<?xml version="1.0" encoding="UTF-8"?>
<gpx version="1.1" creator="2bulu-scraper" xmlns="http://www.topografix.com/GPX/1/1">
  <metadata><name>峨眉山北线穿越 10:02:35</name><desc>source: 2bulu.com trackId=87535830; exported 2026-09-01T16:13:30.445Z</desc>
    <bounds minlat="29.522679" minlon="103.331658" maxlat="29.583076" maxlon="103.441445"/>
    <link href="https://www.2bulu.com/track/t-5YHBJwMkTN%252Fp%252FR2KBg5Tzw%253D%253D.htm"><text>2bulu 源页面</text></link>
  </metadata>
  <wpt lat="29.57051" lon="103.441437"><ele>538</ele><name></name></wpt>
  <wpt lat="29.565653" lon="103.434316"><ele>587</ele><name></name></wpt>
  <wpt lat="29.565216" lon="103.425774"><ele>698</ele><name></name></wpt>
  <wpt lat="29.565343" lon="103.421223"><ele>836</ele><name></name></wpt>
  <wpt lat="29.569695" lon="103.419352"><ele>930</ele><name></name></wpt>
  <wpt lat="29.566706" lon="103.408064"><ele>814</ele><name></name></wpt>
  <wpt lat="29.571987" lon="103.40131"><ele>773</ele><name></name></wpt>
  <wpt lat="29.571934" lon="103.400874"><ele>788</ele><name>这里忘记点开始了！</name></wpt>
  <wpt lat="29.574379" lon="103.392178"><ele>698</ele><name></name></wpt>
  <wpt lat="29.576078" lon="103.39193"><ele>757</ele><name>哪位大神 笑鼠了</name></wpt>
  <wpt lat="29.581397" lon="103.383777"><ele>984</ele><name></name></wpt>
  <wpt lat="29.580986" lon="103.376202"><ele>1239</ele><name>希望景区可以好好给它们相应的合理的报酬</name></wpt>
  <wpt lat="29.56868" lon="103.359683"><ele>1735</ele><name></name></wpt>
  <wpt lat="29.558851" lon="103.344347"><ele>2060</ele><name></name></wpt>
  <wpt lat="29.558609" lon="103.344242"><ele>2066</ele><name></name></wpt>
  <wpt lat="29.558584" lon="103.344229"><ele>2065</ele><name>萌之</name></wpt>
  <wpt lat="29.548002" lon="103.341228"><ele>2340</ele><name>又忘记点开始了。。。就是一直直走</name></wpt>
  <wpt lat="29.53161" lon="103.334522"><ele>2671</ele><name>科技。。</name></wpt>
  <wpt lat="29.529232" lon="103.335084"><ele>2799</ele><name></name></wpt>
  <wpt lat="29.522709" lon="103.33508"><ele>3051</ele><name></name></wpt>
  <wpt lat="29.524291" lon="103.336312"><ele>3056</ele><name>关系好哦</name></wpt>
  <trk><name>峨眉山北线穿越 10:02:35</name>
      <trkseg>
        <trkpt lat="29.570574" lon="103.441445"><ele>526.2976</ele><time>2026-07-23T18:02:37.000Z</time></trkpt>
        <trkpt lat="29.57051" lon="103.441435"><ele>533.2497</ele><time>2026-07-23T18:03:04.000Z</time></trkpt>
        <trkpt lat="29.570475" lon="103.441413"><ele>533.16736</ele><time>2026-07-23T18:03:06.000Z</time></trkpt>
        <trkpt lat="29.570399" lon="103.441364"><ele>533.1823</ele><time>2026-07-23T18:03:08.000Z</time></trkpt>
        <trkpt lat="29.570393" lon="103.441361"><ele>534.4563</ele><time>2026-07-23T18:03:10.000Z</time></trkpt>
        <trkpt lat="29.570387" lon="103.441359"><ele>533.90094</ele><time>2026-07-23T18:03:12.000Z</time></trkpt>
        <trkpt lat="29.570369" lon="103.441349"><ele>533.8841</ele><time>2026-07-23T18:03:14.000Z</time></trkpt>
        <trkpt lat="29.570339" lon="103.441332"><ele>534.51434</ele><time>2026-07-23T18:03:16.000Z</time></trkpt>
        <trkpt lat="29.570311" lon="103.441314"><ele>535.2023</ele><time>2026-07-23T18:03:18.000Z</time></trkpt>
        <trkpt lat="29.570284" lon="103.441298"><ele>534.83057</ele><time>2026-07-23T18:03:20.000Z</time></trkpt>
        <trkpt lat="29.57026" lon="103.441283"><ele>533.94745</ele><time>2026-07-23T18:03:22.000Z</time></trkpt>
        <trkpt lat="29.570238" lon="103.441268"><ele>534.1535</ele><time>2026-07-23T18:03:24.000Z</time></trkpt>
        <trkpt lat="29.570217" lon="103.441256"><ele>533.6191</ele><time>2026-07-23T18:03:26.000Z</time></trkpt>
        <trkpt lat="29.570197" lon="103.441245"><ele>533.0203</ele><time>2026-07-23T18:03:28.000Z</time></trkpt>
        <trkpt lat="29.570179" lon="103.441234"><ele>532.1423</ele><time>2026-07-23T18:03:30.000Z</time></trkpt>
        <trkpt lat="29.570163" lon="103.441223"><ele>532.3752</ele><time>2026-07-23T18:03:32.000Z</time></trkpt>
        <trkpt lat="29.570147" lon="103.441211"><ele>532.6527</ele><time>2026-07-23T18:03:34.000Z</time></trkpt>
        <trkpt lat="29.570129" lon="103.441199"><ele>532.8805</ele><time>2026-07-23T18:03:36.000Z</time></trkpt>
        <trkpt lat="29.570111" lon="103.441188"><ele>533.5891</ele><time>2026-07-23T18:03:38.000Z</time></trkpt>
        <trkpt lat="29.570089" lon="103.441178"><ele>532.5916</ele><time>2026-07-23T18:03:40.000Z</time></trkpt>
        <trkpt lat="29.57007" lon="103.441169"><ele>533.5549</ele><time>2026-07-23T18:03:42.000Z</time></trkpt>
        <trkpt lat="29.570054" lon="103.441161"><ele>533.643</ele><time>2026-07-23T18:03:44.000Z</time></trkpt>
        <trkpt lat="29.570037" lon="103.441151"><ele>533.8911</ele><time>2026-07-23T18:03:46.000Z</time></trkpt>
        <trkpt lat="29.57002" lon="103.441139"><ele>534.4017</ele><time>2026-07-23T18:03:49.000Z</time></trkpt>
        <trkpt lat="29.570001" lon="103.441124"><ele>534.0937</ele><time>2026-07-23T18:03:51.000Z</time></trkpt>
        <trkpt lat="29.569982" lon="103.441109"><ele>534.7469</ele><time>2026-07-23T18:03:53.000Z</time></trkpt>
        <trkpt lat="29.569963" lon="103.441094"><ele>534.88837</ele><time>2026-07-23T18:03:55.000Z</time></trkpt>
        <trkpt lat="29.569942" lon="103.441081"><ele>534.4334</ele><time>2026-07-23T18:03:57.000Z</time></trkpt>
        <trkpt lat="29.56992" lon="103.441068"><ele>534.5284</ele><time>2026-07-23T18:03:59.000Z</time></trkpt>
        <trkpt lat="29.569899" lon="103.441058"><ele>534.558</ele><time>2026-07-23T18:04:01.000Z</time></trkpt>
        <trkpt lat="29.569879" lon="103.44105"><ele>533.87115</ele><time>2026-07-23T18:04:03.000Z</time></trkpt>
        <trkpt lat="29.56986" lon="103.441045"><ele>533.26025</ele><time>2026-07-23T18:04:05.000Z</time></trkpt>
        <trkpt lat="29.569838" lon="103.44104"><ele>533.9021</ele><time>2026-07-23T18:04:07.000Z</time></trkpt>
        <trkpt lat="29.569817" lon="103.441036"><ele>533.9291</ele><time>2026-07-23T18:04:09.000Z</time></trkpt>
        <trkpt lat="29.569795" lon="103.441032"><ele>533.6873</ele><time>2026-07-23T18:04:11.000Z</time></trkpt>
        <trkpt lat="29.569774" lon="103.441027"><ele>533.3906</ele><time>2026-07-23T18:04:13.000Z</time></trkpt>
        <trkpt lat="29.569752" lon="103.44102"><ele>533.65265</ele><time>2026-07-23T18:04:15.000Z</time></trkpt>
        <trkpt lat="29.56973" lon="103.441012"><ele>533.0141</ele><time>2026-07-23T18:04:17.000Z</time></trkpt>
        <trkpt lat="29.569709" lon="103.441006"><ele>533.83936</ele><time>2026-07-23T18:04:19.000Z</time></trkpt>
        <trkpt lat="29.569687" lon="103.441"><ele>533.3857</ele><time>2026-07-23T18:04:21.000Z</time></trkpt>
        <trkpt lat="29.569667" lon="103.440995"><ele>533.4836</ele><time>2026-07-23T18:04:23.000Z</time></trkpt>
        <trkpt lat="29.569646" lon="103.440989"><ele>533.09033</ele><time>2026-07-23T18:04:25.000Z</time></trkpt>
        <trkpt lat="29.569625" lon="103.440985"><ele>532.9071</ele><time>2026-07-23T18:04:27.000Z</time></trkpt>
        <trkpt lat="29.569604" lon="103.440981"><ele>532.60736</ele><time>2026-07-23T18:04:29.000Z</time></trkpt>
        <trkpt lat="29.569584" lon="103.440976"><ele>531.9713</ele><time>2026-07-23T18:04:31.000Z</time></trkpt>
        <trkpt lat="29.569562" lon="103.440972"><ele>532.62665</ele><time>2026-07-23T18:04:33.000Z</time></trkpt>
        <trkpt lat="29.569541" lon="103.44097"><ele>532.55396</ele><time>2026-07-23T18:04:35.000Z</time></trkpt>
        <trkpt lat="29.569518" lon="103.440968"><ele>533.322</ele><time>2026-07-23T18:04:37.000Z</time></trkpt>
        <trkpt lat="29.569497" lon="103.440967"><ele>533.263</ele><time>2026-07-23T18:04:39.000Z</time></trkpt>
        <trkpt lat="29.569474" lon="103.440965"><ele>533.31775</ele><time>2026-07-23T18:04:41.000Z</time></trkpt>
        <trkpt lat="29.569453" lon="103.440965"><ele>533.2487</ele><time>2026-07-23T18:04:43.000Z</time></trkpt>
        <trkpt lat="29.56943" lon="103.440966"><ele>532.7899</ele><time>2026-07-23T18:04:45.000Z</time></trkpt>
        <trkpt lat="29.569409" lon="103.440967"><ele>532.7205</ele><time>2026-07-23T18:04:47.000Z</time></trkpt>
        <trkpt lat="29.569385" lon="103.440966"><ele>531.83405</ele><time>2026-07-23T18:04:48.000Z</time></trkpt>
        <trkpt lat="29.56936" lon="103.440964"><ele>531.1743</ele><time>2026-07-23T18:04:50.000Z</time></trkpt>
        <trkpt lat="29.569336" lon="103.440962"><ele>530.676</ele><time>2026-07-23T18:04:52.000Z</time></trkpt>
        <trkpt lat="29.569316" lon="103.440959"><ele>530.40607</ele><time>2026-07-23T18:04:54.000Z</time></trkpt>
        <trkpt lat="29.569291" lon="103.440956"><ele>530.45526</ele><time>2026-07-23T18:04:56.000Z</time></trkpt>
        <trkpt lat="29.569268" lon="103.440952"><ele>530.21594</ele><time>2026-07-23T18:04:58.000Z</time></trkpt>
        <trkpt lat="29.569253" lon="103.440943"><ele>529.3448</ele><time>2026-07-23T18:05:00.000Z</time></trkpt>
        <trkpt lat="29.569239" lon="103.440929"><ele>528.5397</ele><time>2026-07-23T18:05:02.000Z</time></trkpt>
        <trkpt lat="29.569226" lon="103.44091"><ele>528.0834</ele><time>2026-07-23T18:05:04.000Z</time></trkpt>
        <trkpt lat="29.569214" lon="103.440886"><ele>528.51324</ele><time>2026-07-23T18:05:06.000Z</time></trkpt>
        <trkpt lat="29.569204" lon="103.44086"><ele>528.59436</ele><time>2026-07-23T18:05:08.000Z</time></trkpt>
        <trkpt lat="29.569197" lon="103.440834"><ele>527.98724</ele><time>2026-07-23T18:05:10.000Z</time></trkpt>
        <trkpt lat="29.56919" lon="103.440805"><ele>527.3921</ele><time>2026-07-23T18:05:12.000Z</time></trkpt>
        <trkpt lat="29.569184" lon="103.440776"><ele>527.0941</ele><time>2026-07-23T18:05:14.000Z</time></trkpt>
        <trkpt lat="29.569177" lon="103.440748"><ele>527.4264</ele><time>2026-07-23T18:05:16.000Z</time></trkpt>
        <trkpt lat="29.569168" lon="103.44072"><ele>527.5589</ele><time>2026-07-23T18:05:18.000Z</time></trkpt>
        <trkpt lat="29.569155" lon="103.440699"><ele>527.55865</ele><time>2026-07-23T18:05:20.000Z</time></trkpt>
        <trkpt lat="29.569138" lon="103.440683"><ele>527.7218</ele><time>2026-07-23T18:05:22.000Z</time></trkpt>
        <trkpt lat="29.569119" lon="103.44067"><ele>527.24884</ele><time>2026-07-23T18:05:24.000Z</time></trkpt>
        <trkpt lat="29.569099" lon="103.440659"><ele>527.4658</ele><time>2026-07-23T18:05:26.000Z</time></trkpt>
        <trkpt lat="29.569076" lon="103.440652"><ele>527.48773</ele><time>2026-07-23T18:05:28.000Z</time></trkpt>
        <trkpt lat="29.569052" lon="103.440649"><ele>527.2214</ele><time>2026-07-23T18:05:30.000Z</time></trkpt>
        <trkpt lat="29.569033" lon="103.440647"><ele>527.25543</ele><time>2026-07-23T18:05:32.000Z</time></trkpt>
        <trkpt lat="29.569022" lon="103.440638"><ele>528.2064</ele><time>2026-07-23T18:05:34.000Z</time></trkpt>
        <trkpt lat="29.569015" lon="103.440624"><ele>528.3317</ele><time>2026-07-23T18:05:36.000Z</time></trkpt>
        <trkpt lat="29.56901" lon="103.440607"><ele>529.1279</ele><time>2026-07-23T18:05:38.000Z</time></trkpt>
        <trkpt lat="29.569005" lon="103.440587"><ele>529.9419</ele><time>2026-07-23T18:05:40.000Z</time></trkpt>
        <trkpt lat="29.569" lon="103.440565"><ele>529.76587</ele><time>2026-07-23T18:05:42.000Z</time></trkpt>
        <trkpt lat="29.568997" lon="103.440539"><ele>529.42084</ele><time>2026-07-23T18:05:44.000Z</time></trkpt>
        <trkpt lat="29.568995" lon="103.440513"><ele>529.2735</ele><time>2026-07-23T18:05:46.000Z</time></trkpt>
        <trkpt lat="29.568994" lon="103.44049"><ele>530.0393</ele><time>2026-07-23T18:05:48.000Z</time></trkpt>
        <trkpt lat="29.568994" lon="103.440465"><ele>530.6896</ele><time>2026-07-23T18:05:50.000Z</time></trkpt>
        <trkpt lat="29.568993" lon="103.440441"><ele>530.62683</ele><time>2026-07-23T18:05:52.000Z</time></trkpt>
        <trkpt lat="29.56899" lon="103.440418"><ele>531.3794</ele><time>2026-07-23T18:05:55.000Z</time></trkpt>
        <trkpt lat="29.568987" lon="103.440395"><ele>531.6061</ele><time>2026-07-23T18:05:57.000Z</time></trkpt>
        <trkpt lat="29.568983" lon="103.44037"><ele>532.10626</ele><time>2026-07-23T18:05:59.000Z</time></trkpt>
        <trkpt lat="29.568977" lon="103.440345"><ele>532.54333</ele><time>2026-07-23T18:06:01.000Z</time></trkpt>
        <trkpt lat="29.568971" lon="103.440321"><ele>532.89984</ele><time>2026-07-23T18:06:03.000Z</time></trkpt>
        <trkpt lat="29.568964" lon="103.440298"><ele>532.4912</ele><time>2026-07-23T18:06:05.000Z</time></trkpt>
        <trkpt lat="29.568955" lon="103.440275"><ele>533.2494</ele><time>2026-07-23T18:06:07.000Z</time></trkpt>
        <trkpt lat="29.568943" lon="103.440256"><ele>532.8908</ele><time>2026-07-23T18:06:09.000Z</time></trkpt>
        <trkpt lat="29.568931" lon="103.440236"><ele>532.7596</ele><time>2026-07-23T18:06:11.000Z</time></trkpt>
        <trkpt lat="29.568919" lon="103.440214"><ele>533.79034</ele><time>2026-07-23T18:06:13.000Z</time></trkpt>
        <trkpt lat="29.568908" lon="103.44019"><ele>534.06836</ele><time>2026-07-23T18:06:15.000Z</time></trkpt>
        <trkpt lat="29.568898" lon="103.440166"><ele>533.8754</ele><time>2026-07-23T18:06:17.000Z</time></trkpt>
        <trkpt lat="29.568887" lon="103.440139"><ele>534.1242</ele><time>2026-07-23T18:06:19.000Z</time></trkpt>
        <trkpt lat="29.568874" lon="103.440114"><ele>534.7349</ele><time>2026-07-23T18:06:21.000Z</time></trkpt>
        <trkpt lat="29.568861" lon="103.440091"><ele>535.67084</ele><time>2026-07-23T18:06:23.000Z</time></trkpt>
        <trkpt lat="29.568845" lon="103.440069"><ele>535.7421</ele><time>2026-07-23T18:06:25.000Z</time></trkpt>
        <trkpt lat="29.56883" lon="103.440049"><ele>535.0196</ele><time>2026-07-23T18:06:27.000Z</time></trkpt>
        <trkpt lat="29.568814" lon="103.44003"><ele>536.27423</ele><time>2026-07-23T18:06:29.000Z</time></trkpt>
        <trkpt lat="29.568799" lon="103.440012"><ele>535.8768</ele><time>2026-07-23T18:06:31.000Z</time></trkpt>
        <trkpt lat="29.568783" lon="103.439996"><ele>536.9446</ele><time>2026-07-23T18:06:33.000Z</time></trkpt>
        <trkpt lat="29.568768" lon="103.439981"><ele>536.7025</ele><time>2026-07-23T18:06:35.000Z</time></trkpt>
        <trkpt lat="29.568755" lon="103.439965"><ele>536.9657</ele><time>2026-07-23T18:06:37.000Z</time></trkpt>
        <trkpt lat="29.568742" lon="103.439945"><ele>538.48883</ele><time>2026-07-23T18:06:39.000Z</time></trkpt>
        <trkpt lat="29.56873" lon="103.439925"><ele>538.36694</ele><time>2026-07-23T18:06:41.000Z</time></trkpt>
        <trkpt lat="29.568718" lon="103.439905"><ele>538.35004</ele><time>2026-07-23T18:06:43.000Z</time></trkpt>
        <trkpt lat="29.568704" lon="103.439884"><ele>539.2376</ele><time>2026-07-23T18:06:45.000Z</time></trkpt>
        <trkpt lat="29.56869" lon="103.439864"><ele>538.7673</ele><time>2026-07-23T18:06:47.000Z</time></trkpt>
        <trkpt lat="29.568676" lon="103.439843"><ele>538.78937</ele><time>2026-07-23T18:06:49.000Z</time></trkpt>
        <trkpt lat="29.568661" lon="103.439821"><ele>538.7404</ele><time>2026-07-23T18:06:51.000Z</time></trkpt>
        <trkpt lat="29.568645" lon="103.4398"><ele>537.7156</ele><time>2026-07-23T18:06:53.000Z</time></trkpt>
        <trkpt lat="29.56863" lon="103.439781"><ele>538.8705</ele><time>2026-07-23T18:06:54.000Z</time></trkpt>
        <trkpt lat="29.568614" lon="103.439763"><ele>538.8196</ele><time>2026-07-23T18:06:56.000Z</time></trkpt>
        <trkpt lat="29.568597" lon="103.439748"><ele>539.6045</ele><time>2026-07-23T18:06:58.000Z</time></trkpt>
        <trkpt lat="29.568583" lon="103.439733"><ele>539.52783</ele><time>2026-07-23T18:07:00.000Z</time></trkpt>
        <trkpt lat="29.568568" lon="103.439718"><ele>538.8076</ele><time>2026-07-23T18:07:02.000Z</time></trkpt>
        <trkpt lat="29.568552" lon="103.4397"><ele>538.2501</ele><time>2026-07-23T18:07:04.000Z</time></trkpt>
        <trkpt lat="29.56854" lon="103.439682"><ele>539.2329</ele><time>2026-07-23T18:07:06.000Z</time></trkpt>
        <trkpt lat="29.568529" lon="103.43966"><ele>538.68604</ele><time>2026-07-23T18:07:08.000Z</time></trkpt>
        <trkpt lat="29.568518" lon="103.439636"><ele>539.4355</ele><time>2026-07-23T18:07:10.000Z</time></trkpt>
        <trkpt lat="29.568506" lon="103.43961"><ele>540.4886</ele><time>2026-07-23T18:07:12.000Z</time></trkpt>
        <trkpt lat="29.568496" lon="103.439588"><ele>539.08765</ele><time>2026-07-23T18:07:14.000Z</time></trkpt>
        <trkpt lat="29.568484" lon="103.439565"><ele>537.88904</ele><time>2026-07-23T18:07:16.000Z</time></trkpt>
        <trkpt lat="29.56847" lon="103.439543"><ele>539.17236</ele><time>2026-07-23T18:07:19.000Z</time></trkpt>
        <trkpt lat="29.568455" lon="103.439524"><ele>540.7166</ele><time>2026-07-23T18:07:21.000Z</time></trkpt>
        <trkpt lat="29.568438" lon="103.439508"><ele>540.77594</ele><time>2026-07-23T18:07:23.000Z</time></trkpt>
        <trkpt lat="29.568422" lon="103.439494"><ele>540.4994</ele><time>2026-07-23T18:07:25.000Z</time></trkpt>
        <trkpt lat="29.568409" lon="103.439484"><ele>541.2237</ele><time>2026-07-23T18:07:27.000Z</time></trkpt>
        <trkpt lat="29.568394" lon="103.43947"><ele>542.02905</ele><time>2026-07-23T18:07:29.000Z</time></trkpt>
        <trkpt lat="29.56838" lon="103.439456"><ele>541.9443</ele><time>2026-07-23T18:07:31.000Z</time></trkpt>
        <trkpt lat="29.568363" lon="103.43944"><ele>543.00665</ele><time>2026-07-23T18:07:33.000Z</time></trkpt>
        <trkpt lat="29.568342" lon="103.439422"><ele>543.0145</ele><time>2026-07-23T18:07:35.000Z</time></trkpt>
        <trkpt lat="29.568323" lon="103.439406"><ele>543.14307</ele><time>2026-07-23T18:07:37.000Z</time></trkpt>
        <trkpt lat="29.568307" lon="103.439392"><ele>543.33716</ele><time>2026-07-23T18:07:39.000Z</time></trkpt>
        <trkpt lat="29.56829" lon="103.439377"><ele>543.0192</ele><time>2026-07-23T18:07:41.000Z</time></trkpt>
        <trkpt lat="29.568271" lon="103.439363"><ele>541.7446</ele><time>2026-07-23T18:07:43.000Z</time></trkpt>
        <trkpt lat="29.568255" lon="103.43935"><ele>541.6765</ele><time>2026-07-23T18:07:45.000Z</time></trkpt>
        <trkpt lat="29.56824" lon="103.439335"><ele>540.9133</ele><time>2026-07-23T18:07:47.000Z</time></trkpt>
        <trkpt lat="29.568227" lon="103.439319"><ele>541.11115</ele><time>2026-07-23T18:07:49.000Z</time></trkpt>
        <trkpt lat="29.568212" lon="103.4393"><ele>541.65717</ele><time>2026-07-23T18:07:51.000Z</time></trkpt>
        <trkpt lat="29.568196" lon="103.439281"><ele>541.74664</ele><time>2026-07-23T18:07:53.000Z</time></trkpt>
        <trkpt lat="29.568179" lon="103.439262"><ele>541.0521</ele><time>2026-07-23T18:07:55.000Z</time></trkpt>
        <trkpt lat="29.568161" lon="103.439245"><ele>540.9099</ele><time>2026-07-23T18:07:57.000Z</time></trkpt>
        <trkpt lat="29.568143" lon="103.439229"><ele>541.6286</ele><time>2026-07-23T18:07:59.000Z</time></trkpt>
        <trkpt lat="29.568122" lon="103.439212"><ele>542.74884</ele><time>2026-07-23T18:08:01.000Z</time></trkpt>
        <trkpt lat="29.568103" lon="103.439195"><ele>543.7034</ele><time>2026-07-23T18:08:03.000Z</time></trkpt>
        <trkpt lat="29.568087" lon="103.439177"><ele>543.09686</ele><time>2026-07-23T18:08:05.000Z</time></trkpt>
        <trkpt lat="29.568071" lon="103.439157"><ele>544.258</ele><time>2026-07-23T18:08:07.000Z</time></trkpt>
        <trkpt lat="29.568058" lon="103.439134"><ele>544.18884</ele><time>2026-07-23T18:08:09.000Z</time></trkpt>
        <trkpt lat="29.568046" lon="103.439111"><ele>543.96814</ele><time>2026-07-23T18:08:11.000Z</time></trkpt>
        <trkpt lat="29.568034" lon="103.43909"><ele>543.6938</ele><time>2026-07-23T18:08:13.000Z</time></trkpt>
        <trkpt lat="29.56802" lon="103.439069"><ele>544.1812</ele><time>2026-07-23T18:08:15.000Z</time></trkpt>
        <trkpt lat="29.568004" lon="103.439046"><ele>543.17456</ele><time>2026-07-23T18:08:17.000Z</time></trkpt>
        <trkpt lat="29.56799" lon="103.439026"><ele>543.9024</ele><time>2026-07-23T18:08:19.000Z</time></trkpt>
        <trkpt lat="29.567977" lon="103.439007"><ele>543.5827</ele><time>2026-07-23T18:08:21.000Z</time></trkpt>
        <trkpt lat="29.567963" lon="103.438987"><ele>544.1158</ele><time>2026-07-23T18:08:23.000Z</time></trkpt>
        <trkpt lat="29.567948" lon="103.438967"><ele>543.85846</ele><time>2026-07-23T18:08:25.000Z</time></trkpt>
        <trkpt lat="29.567932" lon="103.438948"><ele>543.82196</ele><time>2026-07-23T18:08:27.000Z</time></trkpt>
        <trkpt lat="29.567915" lon="103.438929"><ele>543.0888</ele><time>2026-07-23T18:08:29.000Z</time></trkpt>
        <trkpt lat="29.5679" lon="103.438911"><ele>544.7387</ele><time>2026-07-23T18:08:31.000Z</time></trkpt>
        <trkpt lat="29.567886" lon="103.438891"><ele>544.2408</ele><time>2026-07-23T18:08:33.000Z</time></trkpt>
        <trkpt lat="29.567872" lon="103.43887"><ele>545.0458</ele><time>2026-07-23T18:08:35.000Z</time></trkpt>
        <trkpt lat="29.567859" lon="103.438851"><ele>544.42267</ele><time>2026-07-23T18:08:37.000Z</time></trkpt>
        <trkpt lat="29.567847" lon="103.438837"><ele>543.3067</ele><time>2026-07-23T18:08:39.000Z</time></trkpt>
        <trkpt lat="29.567834" lon="103.438821"><ele>543.94104</ele><time>2026-07-23T18:08:41.000Z</time></trkpt>
        <trkpt lat="29.567821" lon="103.438803"><ele>544.1611</ele><time>2026-07-23T18:08:43.000Z</time></trkpt>
        <trkpt lat="29.567808" lon="103.438784"><ele>545.00354</ele><time>2026-07-23T18:08:45.000Z</time></trkpt>
        <trkpt lat="29.567793" lon="103.438762"><ele>544.6201</ele><time>2026-07-23T18:08:47.000Z</time></trkpt>
        <trkpt lat="29.567778" lon="103.438742"><ele>545.86237</ele><time>2026-07-23T18:08:49.000Z</time></trkpt>
        <trkpt lat="29.567764" lon="103.438723"><ele>545.52295</ele><time>2026-07-23T18:08:51.000Z</time></trkpt>
        <trkpt lat="29.56775" lon="103.438704"><ele>545.211</ele><time>2026-07-23T18:08:53.000Z</time></trkpt>
        <trkpt lat="29.567736" lon="103.438684"><ele>547.4284</ele><time>2026-07-23T18:08:55.000Z</time></trkpt>
        <trkpt lat="29.567719" lon="103.438663"><ele>546.6135</ele><time>2026-07-23T18:08:57.000Z</time></trkpt>
        <trkpt lat="29.567704" lon="103.438646"><ele>547.12665</ele><time>2026-07-23T18:08:59.000Z</time></trkpt>
        <trkpt lat="29.567687" lon="103.438627"><ele>547.485</ele><time>2026-07-23T18:09:01.000Z</time></trkpt>
        <trkpt lat="29.567671" lon="103.438611"><ele>546.6434</ele><time>2026-07-23T18:09:03.000Z</time></trkpt>
        <trkpt lat="29.567658" lon="103.438595"><ele>547.1001</ele><time>2026-07-23T18:09:05.000Z</time></trkpt>
        <trkpt lat="29.567644" lon="103.438578"><ele>546.5727</ele><time>2026-07-23T18:09:07.000Z</time></trkpt>
        <trkpt lat="29.567631" lon="103.43856"><ele>546.98755</ele><time>2026-07-23T18:09:09.000Z</time></trkpt>
        <trkpt lat="29.567617" lon="103.438538"><ele>547.30817</ele><time>2026-07-23T18:09:11.000Z</time></trkpt>
        <trkpt lat="29.567603" lon="103.438515"><ele>545.97723</ele><time>2026-07-23T18:09:13.000Z</time></trkpt>
        <trkpt lat="29.567589" lon="103.438494"><ele>546.063</ele><time>2026-07-23T18:09:15.000Z</time></trkpt>
        <trkpt lat="29.567573" lon="103.438473"><ele>546.5482</ele><time>2026-07-23T18:09:17.000Z</time></trkpt>
        <trkpt lat="29.567559" lon="103.438453"><ele>546.3701</ele><time>2026-07-23T18:09:19.000Z</time></trkpt>
        <trkpt lat="29.567544" lon="103.438434"><ele>548.41394</ele><time>2026-07-23T18:09:21.000Z</time></trkpt>
        <trkpt lat="29.567529" lon="103.438415"><ele>548.2824</ele><time>2026-07-23T18:09:23.000Z</time></trkpt>
        <trkpt lat="29.567514" lon="103.438399"><ele>548.4784</ele><time>2026-07-23T18:09:25.000Z</time></trkpt>
        <trkpt lat="29.567498" lon="103.438382"><ele>549.2755</ele><time>2026-07-23T18:09:27.000Z</time></trkpt>
        <trkpt lat="29.567481" lon="103.438363"><ele>548.865</ele><time>2026-07-23T18:09:29.000Z</time></trkpt>
        <trkpt lat="29.567466" lon="103.438346"><ele>547.6622</ele><time>2026-07-23T18:09:31.000Z</time></trkpt>
        <trkpt lat="29.567449" lon="103.438323"><ele>548.201</ele><time>2026-07-23T18:09:33.000Z</time></trkpt>
        <trkpt lat="29.567434" lon="103.4383"><ele>547.98425</ele><time>2026-07-23T18:09:35.000Z</time></trkpt>
        <trkpt lat="29.567421" lon="103.43828"><ele>548.3421</ele><time>2026-07-23T18:09:37.000Z</time></trkpt>
        <trkpt lat="29.56741" lon="103.438259"><ele>548.89923</ele><time>2026-07-23T18:09:39.000Z</time></trkpt>
        <trkpt lat="29.567399" lon="103.438238"><ele>548.79236</ele><time>2026-07-23T18:09:41.000Z</time></trkpt>
        <trkpt lat="29.567387" lon="103.438213"><ele>549.4737</ele><time>2026-07-23T18:09:43.000Z</time></trkpt>
        <trkpt lat="29.567374" lon="103.438193"><ele>549.68665</ele><time>2026-07-23T18:09:45.000Z</time></trkpt>
        <trkpt lat="29.567361" lon="103.438175"><ele>549.84033</ele><time>2026-07-23T18:09:47.000Z</time></trkpt>
        <trkpt lat="29.567348" lon="103.438159"><ele>550.5307</ele><time>2026-07-23T18:09:49.000Z</time></trkpt>
        <trkpt lat="29.567336" lon="103.438148"><ele>551.7936</ele><time>2026-07-23T18:09:51.000Z</time></trkpt>
        <trkpt lat="29.567329" lon="103.438146"><ele>552.67914</ele><time>2026-07-23T18:09:53.000Z</time></trkpt>
        <trkpt lat="29.567325" lon="103.438143"><ele>552.10364</ele><time>2026-07-23T18:09:55.000Z</time></trkpt>
        <trkpt lat="29.567314" lon="103.438128"><ele>552.65063</ele><time>2026-07-23T18:09:59.000Z</time></trkpt>
        <trkpt lat="29.567311" lon="103.438121"><ele>552.1456</ele><time>2026-07-23T18:10:03.000Z</time></trkpt>
        <trkpt lat="29.567298" lon="103.438096"><ele>551.5424</ele><time>2026-07-23T18:10:05.000Z</time></trkpt>
        <trkpt lat="29.567281" lon="103.438063"><ele>552.28687</ele><time>2026-07-23T18:10:07.000Z</time></trkpt>
        <trkpt lat="29.567266" lon="103.438032"><ele>552.7889</ele><time>2026-07-23T18:10:09.000Z</time></trkpt>
        <trkpt lat="29.567249" lon="103.438001"><ele>553.00665</ele><time>2026-07-23T18:10:11.000Z</time></trkpt>
        <trkpt lat="29.567233" lon="103.437976"><ele>553.61615</ele><time>2026-07-23T18:10:13.000Z</time></trkpt>
        <trkpt lat="29.567216" lon="103.437953"><ele>553.88873</ele><time>2026-07-23T18:10:15.000Z</time></trkpt>
        <trkpt lat="29.567201" lon="103.437935"><ele>554.0541</ele><time>2026-07-23T18:10:17.000Z</time></trkpt>
        <trkpt lat="29.567187" lon="103.437918"><ele>552.9965</ele><time>2026-07-23T18:10:19.000Z</time></trkpt>
        <trkpt lat="29.567175" lon="103.437902"><ele>553.8123</ele><time>2026-07-23T18:10:21.000Z</time></trkpt>
        <trkpt lat="29.567165" lon="103.437886"><ele>554.2318</ele><time>2026-07-23T18:10:23.000Z</time></trkpt>
        <trkpt lat="29.567157" lon="103.437868"><ele>554.52075</ele><time>2026-07-23T18:10:25.000Z</time></trkpt>
        <trkpt lat="29.567148" lon="103.437847"><ele>554.68695</ele><time>2026-07-23T18:10:27.000Z</time></trkpt>
        <trkpt lat="29.56714" lon="103.437827"><ele>553.6248</ele><time>2026-07-23T18:10:29.000Z</time></trkpt>
        <trkpt lat="29.567131" lon="103.437808"><ele>554.3142</ele><time>2026-07-23T18:10:31.000Z</time></trkpt>
        <trkpt lat="29.567119" lon="103.437786"><ele>554.573</ele><time>2026-07-23T18:10:33.000Z</time></trkpt>
        <trkpt lat="29.567108" lon="103.437765"><ele>555.487</ele><time>2026-07-23T18:10:35.000Z</time></trkpt>
        <trkpt lat="29.567095" lon="103.437745"><ele>554.95184</ele><time>2026-07-23T18:10:37.000Z</time></trkpt>
        <trkpt lat="29.567082" lon="103.437726"><ele>555.24805</ele><time>2026-07-23T18:10:39.000Z</time></trkpt>
        <trkpt lat="29.567069" lon="103.437707"><ele>555.72644</ele><time>2026-07-23T18:10:41.000Z</time></trkpt>
        <trkpt lat="29.567055" lon="103.437688"><ele>555.5998</ele><time>2026-07-23T18:10:43.000Z</time></trkpt>
        <trkpt lat="29.56704" lon="103.437669"><ele>556.57434</ele><time>2026-07-23T18:10:45.000Z</time></trkpt>
        <trkpt lat="29.567027" lon="103.437651"><ele>556.52124</ele><time>2026-07-23T18:10:47.000Z</time></trkpt>
        <trkpt lat="29.567014" lon="103.437632"><ele>556.3837</ele><time>2026-07-23T18:10:49.000Z</time></trkpt>
        <trkpt lat="29.567002" lon="103.437615"><ele>557.4108</ele><time>2026-07-23T18:10:51.000Z</time></trkpt>
        <trkpt lat="29.56699" lon="103.437598"><ele>558.57355</ele><time>2026-07-23T18:10:53.000Z</time></trkpt>
        <trkpt lat="29.566979" lon="103.437581"><ele>558.63654</ele><time>2026-07-23T18:10:55.000Z</time></trkpt>
        <trkpt lat="29.566967" lon="103.437563"><ele>559.16815</ele><time>2026-07-23T18:10:57.000Z</time></trkpt>
        <trkpt lat="29.566956" lon="103.437547"><ele>559.29</ele><time>2026-07-23T18:10:59.000Z</time></trkpt>
        <trkpt lat="29.566945" lon="103.43753"><ele>559.3607</ele><time>2026-07-23T18:11:01.000Z</time></trkpt>
        <trkpt lat="29.566936" lon="103.437512"><ele>559.4287</ele><time>2026-07-23T18:11:03.000Z</time></trkpt>
        <trkpt lat="29.566926" lon="103.437493"><ele>559.3397</ele><time>2026-07-23T18:11:05.000Z</time></trkpt>
        <trkpt lat="29.566916" lon="103.437473"><ele>559.1586</ele><time>2026-07-23T18:11:07.000Z</time></trkpt>
        <trkpt lat="29.566906" lon="103.437451"><ele>558.7859</ele><time>2026-07-23T18:11:09.000Z</time></trkpt>
        <trkpt lat="29.566898" lon="103.43743"><ele>558.15533</ele><time>2026-07-23T18:11:11.000Z</time></trkpt>
        <trkpt lat="29.566889" lon="103.437407"><ele>558.0873</ele><time>2026-07-23T18:11:13.000Z</time></trkpt>
        <trkpt lat="29.566879" lon="103.437384"><ele>558.2933</ele><time>2026-07-23T18:11:15.000Z</time></trkpt>
        <trkpt lat="29.566869" lon="103.437362"><ele>558.1549</ele><time>2026-07-23T18:11:17.000Z</time></trkpt>
        <trkpt lat="29.566859" lon="103.437341"><ele>558.47626</ele><time>2026-07-23T18:11:19.000Z</time></trkpt>
        <trkpt lat="29.566849" lon="103.437322"><ele>558.83813</ele><time>2026-07-23T18:11:21.000Z</time></trkpt>
        <trkpt lat="29.566838" lon="103.437301"><ele>559.0075</ele><time>2026-07-23T18:11:23.000Z</time></trkpt>
        <trkpt lat="29.566827" lon="103.437279"><ele>559.3067</ele><time>2026-07-23T18:11:25.000Z</time></trkpt>
        <trkpt lat="29.566816" lon="103.437257"><ele>559.263</ele><time>2026-07-23T18:11:27.000Z</time></trkpt>
        <trkpt lat="29.566803" lon="103.437236"><ele>559.46735</ele><time>2026-07-23T18:11:29.000Z</time></trkpt>
        <trkpt lat="29.566791" lon="103.437216"><ele>559.7334</ele><time>2026-07-23T18:11:31.000Z</time></trkpt>
        <trkpt lat="29.566778" lon="103.437199"><ele>559.77264</ele><time>2026-07-23T18:11:33.000Z</time></trkpt>
        <trkpt lat="29.566766" lon="103.437182"><ele>560.5095</ele><time>2026-07-23T18:11:35.000Z</time></trkpt>
        <trkpt lat="29.566755" lon="103.437164"><ele>560.7615</ele><time>2026-07-23T18:11:37.000Z</time></trkpt>
        <trkpt lat="29.566743" lon="103.437143"><ele>560.7261</ele><time>2026-07-23T18:11:39.000Z</time></trkpt>
        <trkpt lat="29.566731" lon="103.437123"><ele>560.82983</ele><time>2026-07-23T18:11:41.000Z</time></trkpt>
        <trkpt lat="29.566719" lon="103.437103"><ele>560.51056</ele><time>2026-07-23T18:11:43.000Z</time></trkpt>
        <trkpt lat="29.566707" lon="103.437083"><ele>560.8823</ele><time>2026-07-23T18:11:45.000Z</time></trkpt>
        <trkpt lat="29.566698" lon="103.437065"><ele>561.2653</ele><time>2026-07-23T18:11:47.000Z</time></trkpt>
        <trkpt lat="29.566688" lon="103.437046"><ele>560.8366</ele><time>2026-07-23T18:11:49.000Z</time></trkpt>
        <trkpt lat="29.566678" lon="103.437025"><ele>561.14435</ele><time>2026-07-23T18:11:51.000Z</time></trkpt>
        <trkpt lat="29.566667" lon="103.437004"><ele>562.1039</ele><time>2026-07-23T18:11:53.000Z</time></trkpt>
        <trkpt lat="29.566656" lon="103.436983"><ele>562.08044</ele><time>2026-07-23T18:11:55.000Z</time></trkpt>
        <trkpt lat="29.566646" lon="103.436959"><ele>562.2144</ele><time>2026-07-23T18:11:57.000Z</time></trkpt>
        <trkpt lat="29.566635" lon="103.436935"><ele>561.6143</ele><time>2026-07-23T18:11:59.000Z</time></trkpt>
        <trkpt lat="29.566623" lon="103.436911"><ele>561.21063</ele><time>2026-07-23T18:12:01.000Z</time></trkpt>
        <trkpt lat="29.56661" lon="103.436889"><ele>561.2286</ele><time>2026-07-23T18:12:03.000Z</time></trkpt>
        <trkpt lat="29.566595" lon="103.436867"><ele>562.0435</ele><time>2026-07-23T18:12:05.000Z</time></trkpt>
        <trkpt lat="29.566582" lon="103.436851"><ele>561.8178</ele><time>2026-07-23T18:12:07.000Z</time></trkpt>
        <trkpt lat="29.566569" lon="103.436837"><ele>562.08826</ele><time>2026-07-23T18:12:09.000Z</time></trkpt>
        <trkpt lat="29.566553" lon="103.436824"><ele>562.8631</ele><time>2026-07-23T18:12:11.000Z</time></trkpt>
        <trkpt lat="29.566538" lon="103.436811"><ele>562.7628</ele><time>2026-07-23T18:12:13.000Z</time></trkpt>
        <trkpt lat="29.566521" lon="103.436795"><ele>562.88464</ele><time>2026-07-23T18:12:15.000Z</time></trkpt>
        <trkpt lat="29.566505" lon="103.436777"><ele>563.3711</ele><time>2026-07-23T18:12:17.000Z</time></trkpt>
        <trkpt lat="29.566493" lon="103.436759"><ele>563.3867</ele><time>2026-07-23T18:12:19.000Z</time></trkpt>
        <trkpt lat="29.566485" lon="103.436744"><ele>564.0321</ele><time>2026-07-23T18:12:21.000Z</time></trkpt>
        <trkpt lat="29.566483" lon="103.436738"><ele>564.0374</ele><time>2026-07-23T18:12:23.000Z</time></trkpt>
        <trkpt lat="29.566479" lon="103.436726"><ele>563.40936</ele><time>2026-07-23T18:12:25.000Z</time></trkpt>
        <trkpt lat="29.566472" lon="103.43671"><ele>563.5542</ele><time>2026-07-23T18:12:27.000Z</time></trkpt>
        <trkpt lat="29.566463" lon="103.436689"><ele>563.1352</ele><time>2026-07-23T18:12:29.000Z</time></trkpt>
        <trkpt lat="29.566453" lon="103.436666"><ele>563.54504</ele><time>2026-07-23T18:12:31.000Z</time></trkpt>
        <trkpt lat="29.56644" lon="103.436641"><ele>563.23645</ele><time>2026-07-23T18:12:33.000Z</time></trkpt>
        <trkpt lat="29.566426" lon="103.436617"><ele>562.7939</ele><time>2026-07-23T18:12:35.000Z</time></trkpt>
        <trkpt lat="29.566412" lon="103.436593"><ele>562.88715</ele><time>2026-07-23T18:12:37.000Z</time></trkpt>
        <trkpt lat="29.566398" lon="103.436569"><ele>562.99927</ele><time>2026-07-23T18:12:39.000Z</time></trkpt>
        <trkpt lat="29.566385" lon="103.436544"><ele>562.6843</ele><time>2026-07-23T18:12:41.000Z</time></trkpt>
        <trkpt lat="29.566373" lon="103.436519"><ele>563.0752</ele><time>2026-07-23T18:12:43.000Z</time></trkpt>
        <trkpt lat="29.566361" lon="103.436493"><ele>563.73785</ele><time>2026-07-23T18:12:45.000Z</time></trkpt>
        <trkpt lat="29.566349" lon="103.436467"><ele>563.9042</ele><time>2026-07-23T18:12:47.000Z</time></trkpt>
        <trkpt lat="29.566338" lon="103.436441"><ele>564.70245</ele><time>2026-07-23T18:12:49.000Z</time></trkpt>
        <trkpt lat="29.566328" lon="103.436414"><ele>565.34485</ele><time>2026-07-23T18:12:51.000Z</time></trkpt>
        <trkpt lat="29.56632" lon="103.436389"><ele>566.05756</ele><time>2026-07-23T18:12:53.000Z</time></trkpt>
        <trkpt lat="29.566313" lon="103.436362"><ele>566.1671</ele><time>2026-07-23T18:12:55.000Z</time></trkpt>
        <trkpt lat="29.566308" lon="103.436337"><ele>566.1128</ele><time>2026-07-23T18:12:57.000Z</time></trkpt>
        <trkpt lat="29.566303" lon="103.436315"><ele>566.8814</ele><time>2026-07-23T18:12:59.000Z</time></trkpt>
        <trkpt lat="29.566299" lon="103.436294"><ele>566.97473</ele><time>2026-07-23T18:13:01.000Z</time></trkpt>
        <trkpt lat="29.566295" lon="103.436275"><ele>567.6022</ele><time>2026-07-23T18:13:03.000Z</time></trkpt>
        <trkpt lat="29.566291" lon="103.436256"><ele>567.8262</ele><time>2026-07-23T18:13:05.000Z</time></trkpt>
        <trkpt lat="29.566284" lon="103.436235"><ele>569.03656</ele><time>2026-07-23T18:13:07.000Z</time></trkpt>
        <trkpt lat="29.566278" lon="103.436212"><ele>569.4666</ele><time>2026-07-23T18:13:09.000Z</time></trkpt>
        <trkpt lat="29.566271" lon="103.436188"><ele>568.71405</ele><time>2026-07-23T18:13:11.000Z</time></trkpt>
        <trkpt lat="29.566262" lon="103.436166"><ele>569.23016</ele><time>2026-07-23T18:13:13.000Z</time></trkpt>
        <trkpt lat="29.566252" lon="103.436145"><ele>569.71246</ele><time>2026-07-23T18:13:15.000Z</time></trkpt>
        <trkpt lat="29.566244" lon="103.436122"><ele>570.56506</ele><time>2026-07-23T18:13:17.000Z</time></trkpt>
        <trkpt lat="29.566235" lon="103.436103"><ele>570.01385</ele><time>2026-07-23T18:13:19.000Z</time></trkpt>
        <trkpt lat="29.566228" lon="103.436085"><ele>572.00946</ele><time>2026-07-23T18:13:21.000Z</time></trkpt>
        <trkpt lat="29.566222" lon="103.436066"><ele>572.7999</ele><time>2026-07-23T18:13:23.000Z</time></trkpt>
        <trkpt lat="29.566216" lon="103.436042"><ele>572.6417</ele><time>2026-07-23T18:13:25.000Z</time></trkpt>
        <trkpt lat="29.566211" lon="103.436017"><ele>572.7989</ele><time>2026-07-23T18:13:27.000Z</time></trkpt>
        <trkpt lat="29.566205" lon="103.435989"><ele>572.77954</ele><time>2026-07-23T18:13:29.000Z</time></trkpt>
        <trkpt lat="29.566199" lon="103.435964"><ele>573.0828</ele><time>2026-07-23T18:13:31.000Z</time></trkpt>
        <trkpt lat="29.566192" lon="103.43594"><ele>573.2698</ele><time>2026-07-23T18:13:33.000Z</time></trkpt>
        <trkpt lat="29.566185" lon="103.435919"><ele>572.9639</ele><time>2026-07-23T18:13:35.000Z</time></trkpt>
        <trkpt lat="29.566178" lon="103.435901"><ele>573.4342</ele><time>2026-07-23T18:13:37.000Z</time></trkpt>
        <trkpt lat="29.566168" lon="103.43588"><ele>573.7588</ele><time>2026-07-23T18:13:39.000Z</time></trkpt>
        <trkpt lat="29.56616" lon="103.435858"><ele>574.43243</ele><time>2026-07-23T18:13:41.000Z</time></trkpt>
        <trkpt lat="29.566153" lon="103.435834"><ele>573.9885</ele><time>2026-07-23T18:13:43.000Z</time></trkpt>
        <trkpt lat="29.566145" lon="103.435807"><ele>573.37286</ele><time>2026-07-23T18:13:45.000Z</time></trkpt>
        <trkpt lat="29.566136" lon="103.435781"><ele>573.3992</ele><time>2026-07-23T18:13:47.000Z</time></trkpt>
        <trkpt lat="29.566128" lon="103.435752"><ele>573.6599</ele><time>2026-07-23T18:13:49.000Z</time></trkpt>
        <trkpt lat="29.566121" lon="103.435722"><ele>573.6732</ele><time>2026-07-23T18:13:51.000Z</time></trkpt>
        <trkpt lat="29.566113" lon="103.435694"><ele>572.93787</ele><time>2026-07-23T18:13:53.000Z</time></trkpt>
        <trkpt lat="29.566107" lon="103.435667"><ele>573.01166</ele><time>2026-07-23T18:13:55.000Z</time></trkpt>
        <trkpt lat="29.566099" lon="103.43564"><ele>572.0942</ele><time>2026-07-23T18:13:57.000Z</time></trkpt>
        <trkpt lat="29.566091" lon="103.435613"><ele>571.9288</ele><time>2026-07-23T18:13:59.000Z</time></trkpt>
        <trkpt lat="29.566083" lon="103.435585"><ele>571.344</ele><time>2026-07-23T18:14:01.000Z</time></trkpt>
        <trkpt lat="29.566075" lon="103.435562"><ele>571.59393</ele><time>2026-07-23T18:14:03.000Z</time></trkpt>
        <trkpt lat="29.566069" lon="103.435541"><ele>571.1941</ele><time>2026-07-23T18:14:05.000Z</time></trkpt>
        <trkpt lat="29.566065" lon="103.435523"><ele>571.579</ele><time>2026-07-23T18:14:07.000Z</time></trkpt>
        <trkpt lat="29.566061" lon="103.435503"><ele>571.9772</ele><time>2026-07-23T18:14:09.000Z</time></trkpt>
        <trkpt lat="29.566055" lon="103.435477"><ele>572.3242</ele><time>2026-07-23T18:14:11.000Z</time></trkpt>
        <trkpt lat="29.56605" lon="103.435452"><ele>572.3484</ele><time>2026-07-23T18:14:13.000Z</time></trkpt>
        <trkpt lat="29.566045" lon="103.435429"><ele>572.71014</ele><time>2026-07-23T18:14:15.000Z</time></trkpt>
        <trkpt lat="29.566041" lon="103.435407"><ele>572.5358</ele><time>2026-07-23T18:14:17.000Z</time></trkpt>
        <trkpt lat="29.566035" lon="103.435383"><ele>573.2344</ele><time>2026-07-23T18:14:19.000Z</time></trkpt>
        <trkpt lat="29.566028" lon="103.435359"><ele>573.4408</ele><time>2026-07-23T18:14:21.000Z</time></trkpt>
        <trkpt lat="29.56602" lon="103.435335"><ele>573.96735</ele><time>2026-07-23T18:14:23.000Z</time></trkpt>
        <trkpt lat="29.566011" lon="103.43531"><ele>574.41156</ele><time>2026-07-23T18:14:25.000Z</time></trkpt>
        <trkpt lat="29.566003" lon="103.435286"><ele>574.5577</ele><time>2026-07-23T18:14:27.000Z</time></trkpt>
        <trkpt lat="29.565996" lon="103.435265"><ele>575.594</ele><time>2026-07-23T18:14:29.000Z</time></trkpt>
        <trkpt lat="29.565991" lon="103.435245"><ele>575.4284</ele><time>2026-07-23T18:14:31.000Z</time></trkpt>
        <trkpt lat="29.565994" lon="103.435243"><ele>574.9616</ele><time>2026-07-23T18:14:33.000Z</time></trkpt>
        <trkpt lat="29.565996" lon="103.435244"><ele>575.70764</ele><time>2026-07-23T18:14:37.000Z</time></trkpt>
        <trkpt lat="29.566005" lon="103.435268"><ele>574.85736</ele><time>2026-07-23T18:14:43.000Z</time></trkpt>
        <trkpt lat="29.565984" lon="103.43522"><ele>574.4391</ele><time>2026-07-23T18:14:49.000Z</time></trkpt>
        <trkpt lat="29.565976" lon="103.435201"><ele>575.4114</ele><time>2026-07-23T18:14:51.000Z</time></trkpt>
        <trkpt lat="29.565975" lon="103.435199"><ele>574.8177</ele><time>2026-07-23T18:14:53.000Z</time></trkpt>
        <trkpt lat="29.565961" lon="103.435173"><ele>575.78687</ele><time>2026-07-23T18:14:57.000Z</time></trkpt>
        <trkpt lat="29.565947" lon="103.435148"><ele>576.1722</ele><time>2026-07-23T18:14:59.000Z</time></trkpt>
        <trkpt lat="29.565932" lon="103.435122"><ele>576.7745</ele><time>2026-07-23T18:15:01.000Z</time></trkpt>
        <trkpt lat="29.565915" lon="103.435098"><ele>576.4956</ele><time>2026-07-23T18:15:03.000Z</time></trkpt>
        <trkpt lat="29.565901" lon="103.435076"><ele>576.94586</ele><time>2026-07-23T18:15:05.000Z</time></trkpt>
        <trkpt lat="29.565887" lon="103.435057"><ele>577.80963</ele><time>2026-07-23T18:15:07.000Z</time></trkpt>
        <trkpt lat="29.565872" lon="103.43504"><ele>577.80347</ele><time>2026-07-23T18:15:09.000Z</time></trkpt>
        <trkpt lat="29.565855" lon="103.435024"><ele>578.93896</ele><time>2026-07-23T18:15:11.000Z</time></trkpt>
        <trkpt lat="29.565839" lon="103.435012"><ele>579.4433</ele><time>2026-07-23T18:15:13.000Z</time></trkpt>
        <trkpt lat="29.565824" lon="103.435001"><ele>580.2509</ele><time>2026-07-23T18:15:15.000Z</time></trkpt>
        <trkpt lat="29.56581" lon="103.434993"><ele>580.3885</ele><time>2026-07-23T18:15:17.000Z</time></trkpt>
        <trkpt lat="29.565794" lon="103.434985"><ele>580.8703</ele><time>2026-07-23T18:15:19.000Z</time></trkpt>
        <trkpt lat="29.565776" lon="103.434976"><ele>581.50446</ele><time>2026-07-23T18:15:21.000Z</time></trkpt>
        <trkpt lat="29.565759" lon="103.434967"><ele>582.04474</ele><time>2026-07-23T18:15:23.000Z</time></trkpt>
        <trkpt lat="29.565741" lon="103.434956"><ele>582.6719</ele><time>2026-07-23T18:15:25.000Z</time></trkpt>
        <trkpt lat="29.565725" lon="103.434947"><ele>583.5646</ele><time>2026-07-23T18:15:27.000Z</time></trkpt>
        <trkpt lat="29.56571" lon="103.434938"><ele>584.213</ele><time>2026-07-23T18:15:29.000Z</time></trkpt>
        <trkpt lat="29.565697" lon="103.434929"><ele>584.96564</ele><time>2026-07-23T18:15:31.000Z</time></trkpt>
        <trkpt lat="29.565684" lon="103.43492"><ele>584.76355</ele><time>2026-07-23T18:15:33.000Z</time></trkpt>
        <trkpt lat="29.56567" lon="103.434912"><ele>585.2378</ele><time>2026-07-23T18:15:35.000Z</time></trkpt>
        <trkpt lat="29.565657" lon="103.434903"><ele>584.7923</ele><time>2026-07-23T18:15:37.000Z</time></trkpt>
        <trkpt lat="29.565643" lon="103.43489"><ele>584.34973</ele><time>2026-07-23T18:15:39.000Z</time></trkpt>
        <trkpt lat="29.565636" lon="103.434879"><ele>582.41943</ele><time>2026-07-23T18:15:41.000Z</time></trkpt>
        <trkpt lat="29.565631" lon="103.434865"><ele>581.1916</ele><time>2026-07-23T18:15:43.000Z</time></trkpt>
        <trkpt lat="29.565623" lon="103.434838"><ele>579.997</ele><time>2026-07-23T18:15:45.000Z</time></trkpt>
        <trkpt lat="29.565614" lon="103.434809"><ele>580.0669</ele><time>2026-07-23T18:15:47.000Z</time></trkpt>
        <trkpt lat="29.565604" lon="103.434777"><ele>579.6939</ele><time>2026-07-23T18:15:49.000Z</time></trkpt>
        <trkpt lat="29.565594" lon="103.434747"><ele>579.5549</ele><time>2026-07-23T18:15:51.000Z</time></trkpt>
        <trkpt lat="29.565584" lon="103.43472"><ele>579.3801</ele><time>2026-07-23T18:15:53.000Z</time></trkpt>
        <trkpt lat="29.565574" lon="103.434696"><ele>580.4996</ele><time>2026-07-23T18:15:55.000Z</time></trkpt>
        <trkpt lat="29.565565" lon="103.434671"><ele>579.97266</ele><time>2026-07-23T18:15:57.000Z</time></trkpt>
        <trkpt lat="29.565561" lon="103.434648"><ele>580.52466</ele><time>2026-07-23T18:15:59.000Z</time></trkpt>
        <trkpt lat="29.56556" lon="103.434623"><ele>581.8912</ele><time>2026-07-23T18:16:01.000Z</time></trkpt>
        <trkpt lat="29.565561" lon="103.434598"><ele>581.83496</ele><time>2026-07-23T18:16:03.000Z</time></trkpt>
        <trkpt lat="29.565565" lon="103.434577"><ele>582.5369</ele><time>2026-07-23T18:16:05.000Z</time></trkpt>
        <trkpt lat="29.565572" lon="103.434556"><ele>582.5054</ele><time>2026-07-23T18:16:07.000Z</time></trkpt>
        <trkpt lat="29.565575" lon="103.434538"><ele>581.7628</ele><time>2026-07-23T18:16:09.000Z</time></trkpt>
        <trkpt lat="29.565577" lon="103.43452"><ele>583.3404</ele><time>2026-07-23T18:16:11.000Z</time></trkpt>
        <trkpt lat="29.565578" lon="103.434498"><ele>583.19006</ele><time>2026-07-23T18:16:13.000Z</time></trkpt>
        <trkpt lat="29.565581" lon="103.43448"><ele>583.7163</ele><time>2026-07-23T18:16:15.000Z</time></trkpt>
        <trkpt lat="29.565586" lon="103.434464"><ele>582.92163</ele><time>2026-07-23T18:16:17.000Z</time></trkpt>
        <trkpt lat="29.565595" lon="103.434451"><ele>582.9423</ele><time>2026-07-23T18:16:19.000Z</time></trkpt>
        <trkpt lat="29.565607" lon="103.434434"><ele>581.82654</ele><time>2026-07-23T18:16:21.000Z</time></trkpt>
        <trkpt lat="29.565619" lon="103.434415"><ele>583.3978</ele><time>2026-07-23T18:16:23.000Z</time></trkpt>
        <trkpt lat="29.56563" lon="103.434394"><ele>584.00073</ele><time>2026-07-23T18:16:25.000Z</time></trkpt>
        <trkpt lat="29.56564" lon="103.434369"><ele>584.98944</ele><time>2026-07-23T18:16:27.000Z</time></trkpt>
        <trkpt lat="29.565646" lon="103.43435"><ele>586.614</ele><time>2026-07-23T18:16:29.000Z</time></trkpt>
        <trkpt lat="29.565651" lon="103.43433"><ele>587.3884</ele><time>2026-07-23T18:16:31.000Z</time></trkpt>
        <trkpt lat="29.565654" lon="103.434312"><ele>587.6175</ele><time>2026-07-23T18:16:33.000Z</time></trkpt>
        <trkpt lat="29.565659" lon="103.434304"><ele>588.29205</ele><time>2026-07-23T18:16:35.000Z</time></trkpt>
        <trkpt lat="29.565662" lon="103.434297"><ele>587.5335</ele><time>2026-07-23T18:16:42.000Z</time></trkpt>
        <trkpt lat="29.565671" lon="103.434284"><ele>586.43774</ele><time>2026-07-23T18:16:48.000Z</time></trkpt>
      </trkseg>
      <trkseg>
        <trkpt lat="29.565669" lon="103.43431"><ele>584.9578</ele><time>2026-07-23T18:17:26.000Z</time></trkpt>
        <trkpt lat="29.565715" lon="103.434268"><ele>588.2098</ele><time>2026-07-23T18:18:44.000Z</time></trkpt>
        <trkpt lat="29.565721" lon="103.434253"><ele>588.6125</ele><time>2026-07-23T18:18:46.000Z</time></trkpt>
        <trkpt lat="29.565727" lon="103.434236"><ele>589.0586</ele><time>2026-07-23T18:18:48.000Z</time></trkpt>
        <trkpt lat="29.565738" lon="103.434205"><ele>586.95215</ele><time>2026-07-23T18:18:56.000Z</time></trkpt>
      </trkseg>
      <trkseg>
        <trkpt lat="29.565761" lon="103.434124"><ele>585.36597</ele><time>2026-07-23T18:19:56.000Z</time></trkpt>
        <trkpt lat="29.565733" lon="103.434066"><ele>588.4578</ele><time>2026-07-23T18:20:06.000Z</time></trkpt>
        <trkpt lat="29.565728" lon="103.434044"><ele>588.98114</ele><time>2026-07-23T18:20:08.000Z</time></trkpt>
        <trkpt lat="29.565727" lon="103.434021"><ele>589.3468</ele><time>2026-07-23T18:20:10.000Z</time></trkpt>
        <trkpt lat="29.565728" lon="103.433995"><ele>589.56616</ele><time>2026-07-23T18:20:12.000Z</time></trkpt>
        <trkpt lat="29.565728" lon="103.433974"><ele>589.3666</ele><time>2026-07-23T18:20:14.000Z</time></trkpt>
        <trkpt lat="29.565727" lon="103.433954"><ele>588.9828</ele><time>2026-07-23T18:20:16.000Z</time></trkpt>
        <trkpt lat="29.565725" lon="103.433935"><ele>589.5446</ele><time>2026-07-23T18:20:18.000Z</time></trkpt>
        <trkpt lat="29.565723" lon="103.433918"><ele>590.1946</ele><time>2026-07-23T18:20:20.000Z</time></trkpt>
        <trkpt lat="29.565724" lon="103.433902"><ele>590.7288</ele><time>2026-07-23T18:20:22.000Z</time></trkpt>
        <trkpt lat="29.565725" lon="103.433889"><ele>590.8521</ele><time>2026-07-23T18:20:24.000Z</time></trkpt>
        <trkpt lat="29.565727" lon="103.433874"><ele>590.9603</ele><time>2026-07-23T18:20:26.000Z</time></trkpt>
        <trkpt lat="29.56573" lon="103.433854"><ele>590.8104</ele><time>2026-07-23T18:20:28.000Z</time></trkpt>
        <trkpt lat="29.565733" lon="103.433832"><ele>590.3298</ele><time>2026-07-23T18:20:30.000Z</time></trkpt>
        <trkpt lat="29.565736" lon="103.433808"><ele>590.546</ele><time>2026-07-23T18:20:32.000Z</time></trkpt>
        <trkpt lat="29.565738" lon="103.433782"><ele>590.7762</ele><time>2026-07-23T18:20:34.000Z</time></trkpt>
        <trkpt lat="29.565739" lon="103.433755"><ele>591.28674</ele><time>2026-07-23T18:20:36.000Z</time></trkpt>
        <trkpt lat="29.56574" lon="103.433732"><ele>591.2696</ele><time>2026-07-23T18:20:38.000Z</time></trkpt>
        <trkpt lat="29.56574" lon="103.43371"><ele>590.3244</ele><time>2026-07-23T18:20:40.000Z</time></trkpt>
        <trkpt lat="29.565738" lon="103.433688"><ele>590.538</ele><time>2026-07-23T18:20:42.000Z</time></trkpt>
        <trkpt lat="29.565735" lon="103.433668"><ele>590.50195</ele><time>2026-07-23T18:20:44.000Z</time></trkpt>
        <trkpt lat="29.565731" lon="103.433646"><ele>590.6033</ele><time>2026-07-23T18:20:46.000Z</time></trkpt>
        <trkpt lat="29.565728" lon="103.433621"><ele>590.964</ele><time>2026-07-23T18:20:48.000Z</time></trkpt>
        <trkpt lat="29.565726" lon="103.433596"><ele>591.40155</ele><time>2026-07-23T18:20:50.000Z</time></trkpt>
        <trkpt lat="29.565726" lon="103.433571"><ele>591.1802</ele><time>2026-07-23T18:20:52.000Z</time></trkpt>
        <trkpt lat="29.565726" lon="103.433545"><ele>591.3255</ele><time>2026-07-23T18:20:54.000Z</time></trkpt>
        <trkpt lat="29.565727" lon="103.433521"><ele>590.89</ele><time>2026-07-23T18:20:56.000Z</time></trkpt>
        <trkpt lat="29.565728" lon="103.433497"><ele>590.4685</ele><time>2026-07-23T18:20:58.000Z</time></trkpt>
      </trkseg>
      <trkseg>
        <trkpt lat="29.565716" lon="103.433591"><ele>592.3907</ele><time>2026-07-23T18:21:19.000Z</time></trkpt>
        <trkpt lat="29.565711" lon="103.43355"><ele>592.5054</ele><time>2026-07-23T18:21:26.000Z</time></trkpt>
        <trkpt lat="29.565714" lon="103.433525"><ele>591.6167</ele><time>2026-07-23T18:21:28.000Z</time></trkpt>
        <trkpt lat="29.56572" lon="103.433482"><ele>591.84546</ele><time>2026-07-23T18:21:30.000Z</time></trkpt>
        <trkpt lat="29.565728" lon="103.433438"><ele>591.27594</ele><time>2026-07-23T18:21:32.000Z</time></trkpt>
        <trkpt lat="29.565735" lon="103.433398"><ele>590.6547</ele><time>2026-07-23T18:21:34.000Z</time></trkpt>
        <trkpt lat="29.565737" lon="103.433365"><ele>591.1106</ele><time>2026-07-23T18:21:36.000Z</time></trkpt>
        <trkpt lat="29.565733" lon="103.433334"><ele>591.15314</ele><time>2026-07-23T18:21:38.000Z</time></trkpt>
        <trkpt lat="29.565726" lon="103.433304"><ele>592.05005</ele><time>2026-07-23T18:21:40.000Z</time></trkpt>
        <trkpt lat="29.56572" lon="103.433275"><ele>591.2051</ele><time>2026-07-23T18:21:42.000Z</time></trkpt>
        <trkpt lat="29.565716" lon="103.433245"><ele>591.2916</ele><time>2026-07-23T18:21:44.000Z</time></trkpt>
        <trkpt lat="29.565715" lon="103.433218"><ele>591.9129</ele><time>2026-07-23T18:21:46.000Z</time></trkpt>
        <trkpt lat="29.565715" lon="103.433194"><ele>592.3807</ele><time>2026-07-23T18:21:48.000Z</time></trkpt>
        <trkpt lat="29.565716" lon="103.43317"><ele>592.69794</ele><time>2026-07-23T18:21:50.000Z</time></trkpt>
        <trkpt lat="29.565719" lon="103.433146"><ele>594.09235</ele><time>2026-07-23T18:21:52.000Z</time></trkpt>
        <trkpt lat="29.565721" lon="103.433116"><ele>596.77277</ele><time>2026-07-23T18:21:54.000Z</time></trkpt>
        <trkpt lat="29.56572" lon="103.433088"><ele>597.9651</ele><time>2026-07-23T18:21:56.000Z</time></trkpt>
        <trkpt lat="29.565716" lon="103.433064"><ele>598.75977</ele><time>2026-07-23T18:21:58.000Z</time></trkpt>
        <trkpt lat="29.56571" lon="103.433044"><ele>599.37415</ele><time>2026-07-23T18:22:00.000Z</time></trkpt>
        <trkpt lat="29.565699" lon="103.433026"><ele>598.7184</ele><time>2026-07-23T18:22:02.000Z</time></trkpt>
        <trkpt lat="29.565688" lon="103.433009"><ele>598.7647</ele><time>2026-07-23T18:22:04.000Z</time></trkpt>
        <trkpt lat="29.56568" lon="103.432994"><ele>598.15515</ele><time>2026-07-23T18:22:06.000Z</time></trkpt>
        <trkpt lat="29.565669" lon="103.432974"><ele>598.7716</ele><time>2026-07-23T18:22:08.000Z</time></trkpt>
        <trkpt lat="29.565659" lon="103.432955"><ele>597.4482</ele><time>2026-07-23T18:22:10.000Z</time></trkpt>
        <trkpt lat="29.565649" lon="103.432936"><ele>597.4827</ele><time>2026-07-23T18:22:12.000Z</time></trkpt>
        <trkpt lat="29.565636" lon="103.432913"><ele>597.6487</ele><time>2026-07-23T18:22:14.000Z</time></trkpt>
        <trkpt lat="29.565622" lon="103.432887"><ele>597.7561</ele><time>2026-07-23T18:22:16.000Z</time></trkpt>
        <trkpt lat="29.565607" lon="103.432858"><ele>596.6896</ele><time>2026-07-23T18:22:18.000Z</time></trkpt>
        <trkpt lat="29.565597" lon="103.432838"><ele>596.35803</ele><time>2026-07-23T18:22:20.000Z</time></trkpt>
        <trkpt lat="29.56559" lon="103.432822"><ele>596.31616</ele><time>2026-07-23T18:22:22.000Z</time></trkpt>
        <trkpt lat="29.565584" lon="103.432798"><ele>595.96454</ele><time>2026-07-23T18:22:24.000Z</time></trkpt>
        <trkpt lat="29.565579" lon="103.432773"><ele>595.75256</ele><time>2026-07-23T18:22:26.000Z</time></trkpt>
        <trkpt lat="29.565573" lon="103.432746"><ele>596.1142</ele><time>2026-07-23T18:22:28.000Z</time></trkpt>
        <trkpt lat="29.565568" lon="103.432717"><ele>596.44324</ele><time>2026-07-23T18:22:30.000Z</time></trkpt>
        <trkpt lat="29.565565" lon="103.432685"><ele>596.15204</ele><time>2026-07-23T18:22:32.000Z</time></trkpt>
        <trkpt lat="29.565563" lon="103.432653"><ele>596.32416</ele><time>2026-07-23T18:22:34.000Z</time></trkpt>
        <trkpt lat="29.56556" lon="103.432626"><ele>596.641</ele><time>2026-07-23T18:22:36.000Z</time></trkpt>
        <trkpt lat="29.565558" lon="103.432609"><ele>596.62787</ele><time>2026-07-23T18:22:38.000Z</time></trkpt>
        <trkpt lat="29.565556" lon="103.432587"><ele>597.62823</ele><time>2026-07-23T18:22:40.000Z</time></trkpt>
        <trkpt lat="29.56555" lon="103.43256"><ele>597.8521</ele><time>2026-07-23T18:22:42.000Z</time></trkpt>
        <trkpt lat="29.565543" lon="103.432532"><ele>597.99066</ele><time>2026-07-23T18:22:44.000Z</time></trkpt>
        <trkpt lat="29.565531" lon="103.432505"><ele>598.19196</ele><time>2026-07-23T18:22:46.000Z</time></trkpt>
        <trkpt lat="29.56552" lon="103.432482"><ele>598.5734</ele><time>2026-07-23T18:22:48.000Z</time></trkpt>
        <trkpt lat="29.565507" lon="103.432461"><ele>598.952</ele><time>2026-07-23T18:22:50.000Z</time></trkpt>
        <trkpt lat="29.565493" lon="103.432441"><ele>600.06213</ele><time>2026-07-23T18:22:52.000Z</time></trkpt>
        <trkpt lat="29.565477" lon="103.432422"><ele>600.60504</ele><time>2026-07-23T18:22:54.000Z</time></trkpt>
        <trkpt lat="29.56546" lon="103.432401"><ele>600.2465</ele><time>2026-07-23T18:22:56.000Z</time></trkpt>
        <trkpt lat="29.56545" lon="103.432382"><ele>600.07007</ele><time>2026-07-23T18:22:58.000Z</time></trkpt>
        <trkpt lat="29.565439" lon="103.432362"><ele>599.86115</ele><time>2026-07-23T18:23:00.000Z</time></trkpt>
        <trkpt lat="29.56543" lon="103.432345"><ele>600.3218</ele><time>2026-07-23T18:23:02.000Z</time></trkpt>
        <trkpt lat="29.56542" lon="103.432323"><ele>600.51575</ele><time>2026-07-23T18:23:04.000Z</time></trkpt>
        <trkpt lat="29.565409" lon="103.432304"><ele>600.47107</ele><time>2026-07-23T18:23:06.000Z</time></trkpt>
        <trkpt lat="29.5654" lon="103.432281"><ele>599.7085</ele><time>2026-07-23T18:23:08.000Z</time></trkpt>
        <trkpt lat="29.565394" lon="103.432255"><ele>599.26404</ele><time>2026-07-23T18:23:10.000Z</time></trkpt>
        <trkpt lat="29.565391" lon="103.432232"><ele>599.38025</ele><time>2026-07-23T18:23:12.000Z</time></trkpt>
        <trkpt lat="29.565389" lon="103.432212"><ele>599.3937</ele><time>2026-07-23T18:23:14.000Z</time></trkpt>
        <trkpt lat="29.565389" lon="103.432195"><ele>600.9323</ele><time>2026-07-23T18:23:16.000Z</time></trkpt>
        <trkpt lat="29.565387" lon="103.432175"><ele>602.0449</ele><time>2026-07-23T18:23:18.000Z</time></trkpt>
        <trkpt lat="29.565384" lon="103.432155"><ele>603.2705</ele><time>2026-07-23T18:23:20.000Z</time></trkpt>
        <trkpt lat="29.565379" lon="103.432141"><ele>603.77405</ele><time>2026-07-23T18:23:22.000Z</time></trkpt>
        <trkpt lat="29.565372" lon="103.432126"><ele>604.3483</ele><time>2026-07-23T18:23:24.000Z</time></trkpt>
        <trkpt lat="29.565362" lon="103.432104"><ele>603.70465</ele><time>2026-07-23T18:23:26.000Z</time></trkpt>
        <trkpt lat="29.565352" lon="103.432078"><ele>603.40405</ele><time>2026-07-23T18:23:28.000Z</time></trkpt>
        <trkpt lat="29.565342" lon="103.432057"><ele>602.8373</ele><time>2026-07-23T18:23:30.000Z</time></trkpt>
        <trkpt lat="29.565333" lon="103.432036"><ele>603.87585</ele><time>2026-07-23T18:23:32.000Z</time></trkpt>
        <trkpt lat="29.565326" lon="103.432015"><ele>603.7075</ele><time>2026-07-23T18:23:34.000Z</time></trkpt>
        <trkpt lat="29.565322" lon="103.431994"><ele>604.55853</ele><time>2026-07-23T18:23:36.000Z</time></trkpt>
        <trkpt lat="29.565318" lon="103.431973"><ele>604.84735</ele><time>2026-07-23T18:23:38.000Z</time></trkpt>
        <trkpt lat="29.565314" lon="103.43195"><ele>605.4895</ele><time>2026-07-23T18:23:40.000Z</time></trkpt>
        <trkpt lat="29.565311" lon="103.431926"><ele>606.3981</ele><time>2026-07-23T18:23:42.000Z</time></trkpt>
        <trkpt lat="29.565312" lon="103.431905"><ele>606.37665</ele><time>2026-07-23T18:23:44.000Z</time></trkpt>
        <trkpt lat="29.565313" lon="103.431884"><ele>606.20667</ele><time>2026-07-23T18:23:46.000Z</time></trkpt>
        <trkpt lat="29.565315" lon="103.431867"><ele>605.3482</ele><time>2026-07-23T18:23:48.000Z</time></trkpt>
        <trkpt lat="29.56532" lon="103.431849"><ele>605.29974</ele><time>2026-07-23T18:23:50.000Z</time></trkpt>
        <trkpt lat="29.565327" lon="103.431833"><ele>605.4544</ele><time>2026-07-23T18:23:52.000Z</time></trkpt>
        <trkpt lat="29.565336" lon="103.431819"><ele>604.8772</ele><time>2026-07-23T18:23:54.000Z</time></trkpt>
        <trkpt lat="29.565347" lon="103.431803"><ele>604.96576</ele><time>2026-07-23T18:23:56.000Z</time></trkpt>
        <trkpt lat="29.565357" lon="103.431788"><ele>605.6641</ele><time>2026-07-23T18:23:58.000Z</time></trkpt>
        <trkpt lat="29.565365" lon="103.431773"><ele>606.5761</ele><time>2026-07-23T18:24:00.000Z</time></trkpt>
        <trkpt lat="29.56537" lon="103.431761"><ele>607.3183</ele><time>2026-07-23T18:24:02.000Z</time></trkpt>
        <trkpt lat="29.565376" lon="103.431747"><ele>608.29736</ele><time>2026-07-23T18:24:04.000Z</time></trkpt>
        <trkpt lat="29.565382" lon="103.43173"><ele>608.50214</ele><time>2026-07-23T18:24:06.000Z</time></trkpt>
        <trkpt lat="29.565386" lon="103.431717"><ele>608.4042</ele><time>2026-07-23T18:24:08.000Z</time></trkpt>
        <trkpt lat="29.565392" lon="103.431703"><ele>608.9342</ele><time>2026-07-23T18:24:10.000Z</time></trkpt>
        <trkpt lat="29.565398" lon="103.43169"><ele>609.6273</ele><time>2026-07-23T18:24:12.000Z</time></trkpt>
        <trkpt lat="29.565407" lon="103.431668"><ele>610.60706</ele><time>2026-07-23T18:24:14.000Z</time></trkpt>
        <trkpt lat="29.565412" lon="103.43165"><ele>611.43146</ele><time>2026-07-23T18:24:16.000Z</time></trkpt>
        <trkpt lat="29.565416" lon="103.431628"><ele>611.6432</ele><time>2026-07-23T18:24:18.000Z</time></trkpt>
        <trkpt lat="29.56542" lon="103.431606"><ele>611.7518</ele><time>2026-07-23T18:24:20.000Z</time></trkpt>
        <trkpt lat="29.565424" lon="103.431588"><ele>611.4866</ele><time>2026-07-23T18:24:22.000Z</time></trkpt>
        <trkpt lat="29.565428" lon="103.431567"><ele>610.72943</ele><time>2026-07-23T18:24:24.000Z</time></trkpt>
        <trkpt lat="29.565431" lon="103.431545"><ele>610.39343</ele><time>2026-07-23T18:24:26.000Z</time></trkpt>
        <trkpt lat="29.565434" lon="103.431525"><ele>610.201</ele><time>2026-07-23T18:24:28.000Z</time></trkpt>
        <trkpt lat="29.565437" lon="103.431503"><ele>610.0995</ele><time>2026-07-23T18:24:30.000Z</time></trkpt>
        <trkpt lat="29.565442" lon="103.431485"><ele>610.5482</ele><time>2026-07-23T18:24:32.000Z</time></trkpt>
        <trkpt lat="29.565445" lon="103.431469"><ele>610.6365</ele><time>2026-07-23T18:24:34.000Z</time></trkpt>
        <trkpt lat="29.565447" lon="103.431452"><ele>610.37396</ele><time>2026-07-23T18:24:36.000Z</time></trkpt>
        <trkpt lat="29.565448" lon="103.431433"><ele>611.0207</ele><time>2026-07-23T18:24:38.000Z</time></trkpt>
        <trkpt lat="29.56545" lon="103.431414"><ele>611.7821</ele><time>2026-07-23T18:24:40.000Z</time></trkpt>
        <trkpt lat="29.565453" lon="103.431398"><ele>612.37897</ele><time>2026-07-23T18:24:42.000Z</time></trkpt>
        <trkpt lat="29.565456" lon="103.431387"><ele>612.61816</ele><time>2026-07-23T18:24:44.000Z</time></trkpt>
        <trkpt lat="29.56546" lon="103.431376"><ele>613.48706</ele><time>2026-07-23T18:24:46.000Z</time></trkpt>
        <trkpt lat="29.565464" lon="103.43137"><ele>614.0481</ele><time>2026-07-23T18:24:48.000Z</time></trkpt>
        <trkpt lat="29.565465" lon="103.431362"><ele>614.88635</ele><time>2026-07-23T18:24:52.000Z</time></trkpt>
        <trkpt lat="29.565469" lon="103.43135"><ele>613.52563</ele><time>2026-07-23T18:24:56.000Z</time></trkpt>
        <trkpt lat="29.565486" lon="103.431302"><ele>614.46356</ele><time>2026-07-23T18:24:58.000Z</time></trkpt>
        <trkpt lat="29.565487" lon="103.431298"><ele>615.09607</ele><time>2026-07-23T18:25:00.000Z</time></trkpt>
        <trkpt lat="29.565488" lon="103.431291"><ele>615.86945</ele><time>2026-07-23T18:25:02.000Z</time></trkpt>
        <trkpt lat="29.565493" lon="103.43126"><ele>616.8834</ele><time>2026-07-23T18:25:04.000Z</time></trkpt>
        <trkpt lat="29.565497" lon="103.431216"><ele>617.1942</ele><time>2026-07-23T18:25:06.000Z</time></trkpt>
        <trkpt lat="29.565502" lon="103.43118"><ele>618.23175</ele><time>2026-07-23T18:25:08.000Z</time></trkpt>
        <trkpt lat="29.565507" lon="103.431154"><ele>618.4173</ele><time>2026-07-23T18:25:10.000Z</time></trkpt>
        <trkpt lat="29.565512" lon="103.431133"><ele>618.7936</ele><time>2026-07-23T18:25:12.000Z</time></trkpt>
        <trkpt lat="29.565517" lon="103.431114"><ele>619.3707</ele><time>2026-07-23T18:25:14.000Z</time></trkpt>
        <trkpt lat="29.56552" lon="103.431097"><ele>619.79193</ele><time>2026-07-23T18:25:16.000Z</time></trkpt>
        <trkpt lat="29.56552" lon="103.431079"><ele>620.5157</ele><time>2026-07-23T18:25:18.000Z</time></trkpt>
        <trkpt lat="29.565517" lon="103.431063"><ele>620.4965</ele><time>2026-07-23T18:25:20.000Z</time></trkpt>
        <trkpt lat="29.565511" lon="103.431043"><ele>620.0782</ele><time>2026-07-23T18:25:22.000Z</time></trkpt>
        <trkpt lat="29.565503" lon="103.431025"><ele>619.26154</ele><time>2026-07-23T18:25:24.000Z</time></trkpt>
        <trkpt lat="29.565493" lon="103.431006"><ele>619.73413</ele><time>2026-07-23T18:25:26.000Z</time></trkpt>
        <trkpt lat="29.565481" lon="103.430983"><ele>619.62</ele><time>2026-07-23T18:25:28.000Z</time></trkpt>
        <trkpt lat="29.565469" lon="103.430963"><ele>619.57056</ele><time>2026-07-23T18:25:30.000Z</time></trkpt>
        <trkpt lat="29.565456" lon="103.430947"><ele>619.85815</ele><time>2026-07-23T18:25:32.000Z</time></trkpt>
        <trkpt lat="29.565443" lon="103.430934"><ele>619.39197</ele><time>2026-07-23T18:25:34.000Z</time></trkpt>
        <trkpt lat="29.565427" lon="103.430921"><ele>619.7633</ele><time>2026-07-23T18:25:36.000Z</time></trkpt>
        <trkpt lat="29.565408" lon="103.430908"><ele>620.2848</ele><time>2026-07-23T18:25:38.000Z</time></trkpt>
        <trkpt lat="29.565393" lon="103.430898"><ele>620.40955</ele><time>2026-07-23T18:25:40.000Z</time></trkpt>
        <trkpt lat="29.565379" lon="103.430887"><ele>619.7751</ele><time>2026-07-23T18:25:42.000Z</time></trkpt>
        <trkpt lat="29.565367" lon="103.430876"><ele>620.0927</ele><time>2026-07-23T18:25:44.000Z</time></trkpt>
        <trkpt lat="29.565356" lon="103.430861"><ele>620.31</ele><time>2026-07-23T18:25:46.000Z</time></trkpt>
        <trkpt lat="29.565349" lon="103.430845"><ele>619.5371</ele><time>2026-07-23T18:25:48.000Z</time></trkpt>
        <trkpt lat="29.565346" lon="103.430829"><ele>620.11035</ele><time>2026-07-23T18:25:50.000Z</time></trkpt>
        <trkpt lat="29.565342" lon="103.430807"><ele>619.2381</ele><time>2026-07-23T18:25:52.000Z</time></trkpt>
        <trkpt lat="29.565341" lon="103.43078"><ele>618.97876</ele><time>2026-07-23T18:25:54.000Z</time></trkpt>
        <trkpt lat="29.565341" lon="103.430757"><ele>618.9102</ele><time>2026-07-23T18:25:56.000Z</time></trkpt>
        <trkpt lat="29.565342" lon="103.430731"><ele>620.5057</ele><time>2026-07-23T18:25:58.000Z</time></trkpt>
        <trkpt lat="29.565343" lon="103.430704"><ele>621.46716</ele><time>2026-07-23T18:26:00.000Z</time></trkpt>
        <trkpt lat="29.56534" lon="103.430679"><ele>621.4599</ele><time>2026-07-23T18:26:02.000Z</time></trkpt>
        <trkpt lat="29.565336" lon="103.430654"><ele>621.40924</ele><time>2026-07-23T18:26:04.000Z</time></trkpt>
        <trkpt lat="29.565333" lon="103.430633"><ele>621.4178</ele><time>2026-07-23T18:26:06.000Z</time></trkpt>
        <trkpt lat="29.56533" lon="103.430615"><ele>621.34674</ele><time>2026-07-23T18:26:08.000Z</time></trkpt>
        <trkpt lat="29.565328" lon="103.430599"><ele>622.5402</ele><time>2026-07-23T18:26:10.000Z</time></trkpt>
        <trkpt lat="29.565325" lon="103.430581"><ele>623.6503</ele><time>2026-07-23T18:26:12.000Z</time></trkpt>
        <trkpt lat="29.565321" lon="103.430565"><ele>623.8614</ele><time>2026-07-23T18:26:14.000Z</time></trkpt>
        <trkpt lat="29.565316" lon="103.430545"><ele>623.8711</ele><time>2026-07-23T18:26:16.000Z</time></trkpt>
        <trkpt lat="29.565309" lon="103.430525"><ele>624.2754</ele><time>2026-07-23T18:26:18.000Z</time></trkpt>
        <trkpt lat="29.565302" lon="103.430501"><ele>623.6172</ele><time>2026-07-23T18:26:20.000Z</time></trkpt>
        <trkpt lat="29.565297" lon="103.430481"><ele>624.19196</ele><time>2026-07-23T18:26:22.000Z</time></trkpt>
        <trkpt lat="29.565293" lon="103.430461"><ele>624.1088</ele><time>2026-07-23T18:26:24.000Z</time></trkpt>
        <trkpt lat="29.565292" lon="103.430442"><ele>623.9305</ele><time>2026-07-23T18:26:26.000Z</time></trkpt>
        <trkpt lat="29.565294" lon="103.430423"><ele>623.9953</ele><time>2026-07-23T18:26:28.000Z</time></trkpt>
        <trkpt lat="29.565296" lon="103.430403"><ele>624.3485</ele><time>2026-07-23T18:26:30.000Z</time></trkpt>
        <trkpt lat="29.565295" lon="103.430385"><ele>623.7656</ele><time>2026-07-23T18:26:32.000Z</time></trkpt>
        <trkpt lat="29.565295" lon="103.430366"><ele>624.00903</ele><time>2026-07-23T18:26:34.000Z</time></trkpt>
        <trkpt lat="29.565295" lon="103.43035"><ele>623.8159</ele><time>2026-07-23T18:26:36.000Z</time></trkpt>
        <trkpt lat="29.565296" lon="103.43033"><ele>624.5339</ele><time>2026-07-23T18:26:38.000Z</time></trkpt>
        <trkpt lat="29.565295" lon="103.430311"><ele>624.9885</ele><time>2026-07-23T18:26:40.000Z</time></trkpt>
        <trkpt lat="29.565294" lon="103.43029"><ele>625.20825</ele><time>2026-07-23T18:26:42.000Z</time></trkpt>
        <trkpt lat="29.56529" lon="103.430266"><ele>624.79785</ele><time>2026-07-23T18:26:44.000Z</time></trkpt>
        <trkpt lat="29.565285" lon="103.430243"><ele>625.3</ele><time>2026-07-23T18:26:46.000Z</time></trkpt>
        <trkpt lat="29.56528" lon="103.43022"><ele>625.1915</ele><time>2026-07-23T18:26:48.000Z</time></trkpt>
        <trkpt lat="29.565276" lon="103.430198"><ele>625.27277</ele><time>2026-07-23T18:26:50.000Z</time></trkpt>
        <trkpt lat="29.565273" lon="103.430186"><ele>626.2255</ele><time>2026-07-23T18:26:52.000Z</time></trkpt>
        <trkpt lat="29.565273" lon="103.430184"><ele>626.33527</ele><time>2026-07-23T18:26:54.000Z</time></trkpt>
        <trkpt lat="29.565276" lon="103.430159"><ele>624.4077</ele><time>2026-07-23T18:27:35.000Z</time></trkpt>
        <trkpt lat="29.565276" lon="103.430109"><ele>626.0369</ele><time>2026-07-23T18:28:22.000Z</time></trkpt>
        <trkpt lat="29.565277" lon="103.430102"><ele>624.62964</ele><time>2026-07-23T18:28:24.000Z</time></trkpt>
        <trkpt lat="29.565274" lon="103.430085"><ele>624.24115</ele><time>2026-07-23T18:28:26.000Z</time></trkpt>
        <trkpt lat="29.565267" lon="103.430047"><ele>627.4196</ele><time>2026-07-23T18:28:33.000Z</time></trkpt>
        <trkpt lat="29.565261" lon="103.430024"><ele>628.5529</ele><time>2026-07-23T18:28:35.000Z</time></trkpt>
        <trkpt lat="29.565252" lon="103.429995"><ele>628.2786</ele><time>2026-07-23T18:28:37.000Z</time></trkpt>
        <trkpt lat="29.565243" lon="103.429968"><ele>628.9489</ele><time>2026-07-23T18:28:39.000Z</time></trkpt>
        <trkpt lat="29.565236" lon="103.429944"><ele>629.3323</ele><time>2026-07-23T18:28:41.000Z</time></trkpt>
        <trkpt lat="29.565228" lon="103.429919"><ele>629.2453</ele><time>2026-07-23T18:28:43.000Z</time></trkpt>
        <trkpt lat="29.56522" lon="103.429898"><ele>629.70825</ele><time>2026-07-23T18:28:45.000Z</time></trkpt>
        <trkpt lat="29.565211" lon="103.429879"><ele>629.88293</ele><time>2026-07-23T18:28:47.000Z</time></trkpt>
        <trkpt lat="29.565201" lon="103.429862"><ele>630.1258</ele><time>2026-07-23T18:28:49.000Z</time></trkpt>
        <trkpt lat="29.565191" lon="103.429843"><ele>630.71625</ele><time>2026-07-23T18:28:51.000Z</time></trkpt>
        <trkpt lat="29.565184" lon="103.429826"><ele>631.229</ele><time>2026-07-23T18:28:53.000Z</time></trkpt>
        <trkpt lat="29.565178" lon="103.429812"><ele>631.05396</ele><time>2026-07-23T18:28:55.000Z</time></trkpt>
        <trkpt lat="29.565171" lon="103.429795"><ele>630.4481</ele><time>2026-07-23T18:28:57.000Z</time></trkpt>
        <trkpt lat="29.565164" lon="103.429774"><ele>629.9939</ele><time>2026-07-23T18:28:59.000Z</time></trkpt>
        <trkpt lat="29.565157" lon="103.429754"><ele>630.6186</ele><time>2026-07-23T18:29:01.000Z</time></trkpt>
        <trkpt lat="29.56515" lon="103.429736"><ele>631.72845</ele><time>2026-07-23T18:29:03.000Z</time></trkpt>
        <trkpt lat="29.56514" lon="103.42972"><ele>632.0921</ele><time>2026-07-23T18:29:05.000Z</time></trkpt>
        <trkpt lat="29.56513" lon="103.429707"><ele>632.5415</ele><time>2026-07-23T18:29:07.000Z</time></trkpt>
        <trkpt lat="29.565117" lon="103.429689"><ele>632.5318</ele><time>2026-07-23T18:29:09.000Z</time></trkpt>
        <trkpt lat="29.565113" lon="103.429675"><ele>631.96246</ele><time>2026-07-23T18:29:11.000Z</time></trkpt>
        <trkpt lat="29.565111" lon="103.429673"><ele>631.7578</ele><time>2026-07-23T18:29:13.000Z</time></trkpt>
        <trkpt lat="29.565102" lon="103.429654"><ele>630.8098</ele><time>2026-07-23T18:29:25.000Z</time></trkpt>
        <trkpt lat="29.565088" lon="103.429623"><ele>630.7944</ele><time>2026-07-23T18:29:27.000Z</time></trkpt>
        <trkpt lat="29.565087" lon="103.429621"><ele>631.82336</ele><time>2026-07-23T18:29:29.000Z</time></trkpt>
        <trkpt lat="29.565065" lon="103.42958"><ele>632.4459</ele><time>2026-07-23T18:29:32.000Z</time></trkpt>
        <trkpt lat="29.565065" lon="103.42958"><ele>630.375</ele><time>2026-07-23T18:29:34.000Z</time></trkpt>
        <trkpt lat="29.565062" lon="103.429573"><ele>632.8208</ele><time>2026-07-23T18:29:36.000Z</time></trkpt>
        <trkpt lat="29.56505" lon="103.429549"><ele>632.86017</ele><time>2026-07-23T18:29:38.000Z</time></trkpt>
        <trkpt lat="29.565029" lon="103.429516"><ele>632.3127</ele><time>2026-07-23T18:29:40.000Z</time></trkpt>
        <trkpt lat="29.565005" lon="103.429486"><ele>632.31586</ele><time>2026-07-23T18:29:42.000Z</time></trkpt>
        <trkpt lat="29.564987" lon="103.429462"><ele>631.6656</ele><time>2026-07-23T18:29:44.000Z</time></trkpt>
        <trkpt lat="29.564973" lon="103.429437"><ele>630.8419</ele><time>2026-07-23T18:29:46.000Z</time></trkpt>
        <trkpt lat="29.564964" lon="103.429415"><ele>628.4689</ele><time>2026-07-23T18:29:48.000Z</time></trkpt>
        <trkpt lat="29.56496" lon="103.429389"><ele>627.2512</ele><time>2026-07-23T18:29:50.000Z</time></trkpt>
        <trkpt lat="29.564957" lon="103.42936"><ele>627.78033</ele><time>2026-07-23T18:29:52.000Z</time></trkpt>
        <trkpt lat="29.564953" lon="103.429332"><ele>627.8581</ele><time>2026-07-23T18:29:54.000Z</time></trkpt>
        <trkpt lat="29.564948" lon="103.429306"><ele>627.9593</ele><time>2026-07-23T18:29:56.000Z</time></trkpt>
        <trkpt lat="29.564943" lon="103.429279"><ele>627.6373</ele><time>2026-07-23T18:29:58.000Z</time></trkpt>
        <trkpt lat="29.564938" lon="103.429253"><ele>627.5444</ele><time>2026-07-23T18:30:00.000Z</time></trkpt>
        <trkpt lat="29.564933" lon="103.429224"><ele>627.7428</ele><time>2026-07-23T18:30:02.000Z</time></trkpt>
        <trkpt lat="29.564931" lon="103.429198"><ele>627.98444</ele><time>2026-07-23T18:30:04.000Z</time></trkpt>
        <trkpt lat="29.564933" lon="103.429177"><ele>628.093</ele><time>2026-07-23T18:30:06.000Z</time></trkpt>
        <trkpt lat="29.564932" lon="103.429158"><ele>628.3094</ele><time>2026-07-23T18:30:08.000Z</time></trkpt>
        <trkpt lat="29.564927" lon="103.429137"><ele>629.21814</ele><time>2026-07-23T18:30:10.000Z</time></trkpt>
        <trkpt lat="29.56492" lon="103.429119"><ele>629.72986</ele><time>2026-07-23T18:30:12.000Z</time></trkpt>
        <trkpt lat="29.564911" lon="103.429102"><ele>630.1326</ele><time>2026-07-23T18:30:14.000Z</time></trkpt>
        <trkpt lat="29.564902" lon="103.429085"><ele>630.4214</ele><time>2026-07-23T18:30:16.000Z</time></trkpt>
        <trkpt lat="29.564889" lon="103.429063"><ele>631.906</ele><time>2026-07-23T18:30:18.000Z</time></trkpt>
        <trkpt lat="29.564881" lon="103.429047"><ele>633.97894</ele><time>2026-07-23T18:30:20.000Z</time></trkpt>
        <trkpt lat="29.564875" lon="103.429025"><ele>633.6973</ele><time>2026-07-23T18:30:22.000Z</time></trkpt>
        <trkpt lat="29.564869" lon="103.428999"><ele>634.2922</ele><time>2026-07-23T18:30:24.000Z</time></trkpt>
        <trkpt lat="29.564863" lon="103.428971"><ele>635.4342</ele><time>2026-07-23T18:30:26.000Z</time></trkpt>
        <trkpt lat="29.564856" lon="103.428946"><ele>636.825</ele><time>2026-07-23T18:30:28.000Z</time></trkpt>
        <trkpt lat="29.564853" lon="103.428928"><ele>638.13544</ele><time>2026-07-23T18:30:30.000Z</time></trkpt>
        <trkpt lat="29.56485" lon="103.428906"><ele>638.8164</ele><time>2026-07-23T18:30:32.000Z</time></trkpt>
        <trkpt lat="29.564844" lon="103.428875"><ele>638.8895</ele><time>2026-07-23T18:30:34.000Z</time></trkpt>
        <trkpt lat="29.564838" lon="103.428837"><ele>639.4491</ele><time>2026-07-23T18:30:36.000Z</time></trkpt>
        <trkpt lat="29.564834" lon="103.428798"><ele>639.53204</ele><time>2026-07-23T18:30:38.000Z</time></trkpt>
        <trkpt lat="29.564833" lon="103.428761"><ele>640.10785</ele><time>2026-07-23T18:30:40.000Z</time></trkpt>
        <trkpt lat="29.564834" lon="103.428727"><ele>641.3775</ele><time>2026-07-23T18:30:42.000Z</time></trkpt>
        <trkpt lat="29.564836" lon="103.428698"><ele>641.6281</ele><time>2026-07-23T18:30:44.000Z</time></trkpt>
        <trkpt lat="29.564837" lon="103.428667"><ele>641.9665</ele><time>2026-07-23T18:30:46.000Z</time></trkpt>
        <trkpt lat="29.564836" lon="103.428638"><ele>642.7578</ele><time>2026-07-23T18:30:48.000Z</time></trkpt>
        <trkpt lat="29.564834" lon="103.428608"><ele>643.4192</ele><time>2026-07-23T18:30:50.000Z</time></trkpt>
        <trkpt lat="29.564831" lon="103.428582"><ele>642.64825</ele><time>2026-07-23T18:30:52.000Z</time></trkpt>
        <trkpt lat="29.564827" lon="103.428558"><ele>643.4616</ele><time>2026-07-23T18:30:54.000Z</time></trkpt>
        <trkpt lat="29.564823" lon="103.428533"><ele>642.9836</ele><time>2026-07-23T18:30:56.000Z</time></trkpt>
        <trkpt lat="29.564824" lon="103.428511"><ele>644.0589</ele><time>2026-07-23T18:30:58.000Z</time></trkpt>
        <trkpt lat="29.564831" lon="103.428495"><ele>644.5547</ele><time>2026-07-23T18:31:00.000Z</time></trkpt>
        <trkpt lat="29.564843" lon="103.428483"><ele>645.00323</ele><time>2026-07-23T18:31:02.000Z</time></trkpt>
        <trkpt lat="29.564858" lon="103.428472"><ele>646.06464</ele><time>2026-07-23T18:31:04.000Z</time></trkpt>
        <trkpt lat="29.564878" lon="103.428462"><ele>646.4509</ele><time>2026-07-23T18:31:06.000Z</time></trkpt>
        <trkpt lat="29.564899" lon="103.428453"><ele>647.41394</ele><time>2026-07-23T18:31:08.000Z</time></trkpt>
        <trkpt lat="29.564924" lon="103.428444"><ele>648.54614</ele><time>2026-07-23T18:31:10.000Z</time></trkpt>
        <trkpt lat="29.564949" lon="103.428431"><ele>649.5904</ele><time>2026-07-23T18:31:12.000Z</time></trkpt>
        <trkpt lat="29.56497" lon="103.428417"><ele>650.708</ele><time>2026-07-23T18:31:14.000Z</time></trkpt>
        <trkpt lat="29.564988" lon="103.428407"><ele>651.32495</ele><time>2026-07-23T18:31:16.000Z</time></trkpt>
        <trkpt lat="29.565006" lon="103.428402"><ele>652.5111</ele><time>2026-07-23T18:31:18.000Z</time></trkpt>
        <trkpt lat="29.565026" lon="103.428396"><ele>653.3513</ele><time>2026-07-23T18:31:20.000Z</time></trkpt>
        <trkpt lat="29.565045" lon="103.428389"><ele>654.65295</ele><time>2026-07-23T18:31:22.000Z</time></trkpt>
        <trkpt lat="29.565063" lon="103.428384"><ele>655.6545</ele><time>2026-07-23T18:31:24.000Z</time></trkpt>
        <trkpt lat="29.565085" lon="103.42838"><ele>657.08887</ele><time>2026-07-23T18:31:26.000Z</time></trkpt>
        <trkpt lat="29.56511" lon="103.428374"><ele>658.65375</ele><time>2026-07-23T18:31:28.000Z</time></trkpt>
        <trkpt lat="29.565129" lon="103.428366"><ele>658.8574</ele><time>2026-07-23T18:31:30.000Z</time></trkpt>
        <trkpt lat="29.565145" lon="103.428351"><ele>658.9287</ele><time>2026-07-23T18:31:32.000Z</time></trkpt>
        <trkpt lat="29.565155" lon="103.428332"><ele>658.9078</ele><time>2026-07-23T18:31:34.000Z</time></trkpt>
        <trkpt lat="29.56516" lon="103.42831"><ele>658.9527</ele><time>2026-07-23T18:31:36.000Z</time></trkpt>
        <trkpt lat="29.565167" lon="103.428285"><ele>659.0018</ele><time>2026-07-23T18:31:38.000Z</time></trkpt>
        <trkpt lat="29.565176" lon="103.428262"><ele>659.6312</ele><time>2026-07-23T18:31:40.000Z</time></trkpt>
        <trkpt lat="29.565186" lon="103.428239"><ele>659.6281</ele><time>2026-07-23T18:31:42.000Z</time></trkpt>
        <trkpt lat="29.565195" lon="103.428218"><ele>659.6501</ele><time>2026-07-23T18:31:44.000Z</time></trkpt>
        <trkpt lat="29.565208" lon="103.4282"><ele>660.748</ele><time>2026-07-23T18:31:46.000Z</time></trkpt>
        <trkpt lat="29.565222" lon="103.428182"><ele>658.44574</ele><time>2026-07-23T18:31:48.000Z</time></trkpt>
        <trkpt lat="29.565239" lon="103.428163"><ele>660.3292</ele><time>2026-07-23T18:31:50.000Z</time></trkpt>
        <trkpt lat="29.565255" lon="103.428151"><ele>660.46075</ele><time>2026-07-23T18:31:52.000Z</time></trkpt>
        <trkpt lat="29.565274" lon="103.428143"><ele>661.111</ele><time>2026-07-23T18:31:54.000Z</time></trkpt>
        <trkpt lat="29.565293" lon="103.428135"><ele>661.7548</ele><time>2026-07-23T18:31:56.000Z</time></trkpt>
        <trkpt lat="29.565309" lon="103.42813"><ele>662.14</ele><time>2026-07-23T18:31:58.000Z</time></trkpt>
        <trkpt lat="29.565327" lon="103.428123"><ele>663.2688</ele><time>2026-07-23T18:32:00.000Z</time></trkpt>
        <trkpt lat="29.565344" lon="103.428115"><ele>664.31104</ele><time>2026-07-23T18:32:02.000Z</time></trkpt>
        <trkpt lat="29.56536" lon="103.428106"><ele>665.41547</ele><time>2026-07-23T18:32:04.000Z</time></trkpt>
        <trkpt lat="29.565378" lon="103.428094"><ele>665.58734</ele><time>2026-07-23T18:32:06.000Z</time></trkpt>
        <trkpt lat="29.565398" lon="103.42808"><ele>667.3031</ele><time>2026-07-23T18:32:08.000Z</time></trkpt>
        <trkpt lat="29.565414" lon="103.428064"><ele>667.70197</ele><time>2026-07-23T18:32:10.000Z</time></trkpt>
        <trkpt lat="29.565427" lon="103.428046"><ele>668.31244</ele><time>2026-07-23T18:32:12.000Z</time></trkpt>
        <trkpt lat="29.565437" lon="103.428028"><ele>665.87476</ele><time>2026-07-23T18:32:14.000Z</time></trkpt>
        <trkpt lat="29.565445" lon="103.428006"><ele>666.5203</ele><time>2026-07-23T18:32:16.000Z</time></trkpt>
        <trkpt lat="29.565449" lon="103.427987"><ele>668.6954</ele><time>2026-07-23T18:32:18.000Z</time></trkpt>
        <trkpt lat="29.565449" lon="103.427966"><ele>667.88947</ele><time>2026-07-23T18:32:20.000Z</time></trkpt>
        <trkpt lat="29.565449" lon="103.427943"><ele>668.752</ele><time>2026-07-23T18:32:22.000Z</time></trkpt>
        <trkpt lat="29.565451" lon="103.427921"><ele>669.1672</ele><time>2026-07-23T18:32:24.000Z</time></trkpt>
        <trkpt lat="29.565449" lon="103.427901"><ele>669.41907</ele><time>2026-07-23T18:32:26.000Z</time></trkpt>
        <trkpt lat="29.565446" lon="103.427877"><ele>671.1129</ele><time>2026-07-23T18:32:28.000Z</time></trkpt>
        <trkpt lat="29.565444" lon="103.427855"><ele>671.55176</ele><time>2026-07-23T18:32:30.000Z</time></trkpt>
        <trkpt lat="29.565444" lon="103.427841"><ele>672.67004</ele><time>2026-07-23T18:32:32.000Z</time></trkpt>
        <trkpt lat="29.565446" lon="103.427831"><ele>672.6514</ele><time>2026-07-23T18:32:34.000Z</time></trkpt>
        <trkpt lat="29.565447" lon="103.427806"><ele>673.6432</ele><time>2026-07-23T18:32:38.000Z</time></trkpt>
        <trkpt lat="29.565446" lon="103.427793"><ele>674.73315</ele><time>2026-07-23T18:32:40.000Z</time></trkpt>
        <trkpt lat="29.565446" lon="103.427781"><ele>675.3648</ele><time>2026-07-23T18:32:42.000Z</time></trkpt>
        <trkpt lat="29.565445" lon="103.427748"><ele>674.5645</ele><time>2026-07-23T18:32:46.000Z</time></trkpt>
        <trkpt lat="29.565444" lon="103.427731"><ele>675.059</ele><time>2026-07-23T18:32:48.000Z</time></trkpt>
        <trkpt lat="29.565444" lon="103.427714"><ele>676.1892</ele><time>2026-07-23T18:32:50.000Z</time></trkpt>
        <trkpt lat="29.565444" lon="103.427697"><ele>676.17145</ele><time>2026-07-23T18:32:52.000Z</time></trkpt>
        <trkpt lat="29.565442" lon="103.427677"><ele>677.89606</ele><time>2026-07-23T18:32:54.000Z</time></trkpt>
        <trkpt lat="29.56544" lon="103.427659"><ele>677.95514</ele><time>2026-07-23T18:32:56.000Z</time></trkpt>
        <trkpt lat="29.565433" lon="103.427633"><ele>678.2787</ele><time>2026-07-23T18:32:58.000Z</time></trkpt>
        <trkpt lat="29.565427" lon="103.427605"><ele>677.70294</ele><time>2026-07-23T18:33:00.000Z</time></trkpt>
        <trkpt lat="29.565424" lon="103.427576"><ele>678.16376</ele><time>2026-07-23T18:33:02.000Z</time></trkpt>
        <trkpt lat="29.565422" lon="103.427548"><ele>679.0327</ele><time>2026-07-23T18:33:04.000Z</time></trkpt>
        <trkpt lat="29.565416" lon="103.427522"><ele>679.4719</ele><time>2026-07-23T18:33:06.000Z</time></trkpt>
        <trkpt lat="29.56541" lon="103.427499"><ele>678.78644</ele><time>2026-07-23T18:33:08.000Z</time></trkpt>
        <trkpt lat="29.565404" lon="103.427478"><ele>679.816</ele><time>2026-07-23T18:33:10.000Z</time></trkpt>
        <trkpt lat="29.565399" lon="103.427454"><ele>679.6771</ele><time>2026-07-23T18:33:14.000Z</time></trkpt>
        <trkpt lat="29.565397" lon="103.427432"><ele>680.50574</ele><time>2026-07-23T18:33:18.000Z</time></trkpt>
        <trkpt lat="29.565399" lon="103.427394"><ele>681.3189</ele><time>2026-07-23T18:33:22.000Z</time></trkpt>
        <trkpt lat="29.565403" lon="103.427377"><ele>680.64777</ele><time>2026-07-23T18:33:24.000Z</time></trkpt>
        <trkpt lat="29.565406" lon="103.427362"><ele>681.49945</ele><time>2026-07-23T18:33:26.000Z</time></trkpt>
        <trkpt lat="29.565413" lon="103.427313"><ele>683.70026</ele><time>2026-07-23T18:33:30.000Z</time></trkpt>
        <trkpt lat="29.565409" lon="103.427294"><ele>683.4871</ele><time>2026-07-23T18:33:32.000Z</time></trkpt>
        <trkpt lat="29.565401" lon="103.427288"><ele>684.1477</ele><time>2026-07-23T18:33:34.000Z</time></trkpt>
        <trkpt lat="29.565342" lon="103.427254"><ele>684.87744</ele><time>2026-07-23T18:33:38.000Z</time></trkpt>
        <trkpt lat="29.565313" lon="103.42724"><ele>683.1881</ele><time>2026-07-23T18:33:40.000Z</time></trkpt>
        <trkpt lat="29.565281" lon="103.427226"><ele>682.33636</ele><time>2026-07-23T18:33:42.000Z</time></trkpt>
        <trkpt lat="29.56525" lon="103.427211"><ele>680.6107</ele><time>2026-07-23T18:33:44.000Z</time></trkpt>
        <trkpt lat="29.565222" lon="103.427197"><ele>679.6086</ele><time>2026-07-23T18:33:46.000Z</time></trkpt>
        <trkpt lat="29.5652" lon="103.427181"><ele>678.52905</ele><time>2026-07-23T18:33:48.000Z</time></trkpt>
        <trkpt lat="29.565178" lon="103.427163"><ele>676.7574</ele><time>2026-07-23T18:33:50.000Z</time></trkpt>
        <trkpt lat="29.565161" lon="103.427145"><ele>676.5009</ele><time>2026-07-23T18:33:52.000Z</time></trkpt>
        <trkpt lat="29.565146" lon="103.427126"><ele>676.2238</ele><time>2026-07-23T18:33:54.000Z</time></trkpt>
        <trkpt lat="29.56513" lon="103.427103"><ele>674.9748</ele><time>2026-07-23T18:33:56.000Z</time></trkpt>
        <trkpt lat="29.565112" lon="103.427079"><ele>673.90424</ele><time>2026-07-23T18:33:58.000Z</time></trkpt>
        <trkpt lat="29.565094" lon="103.427062"><ele>672.8957</ele><time>2026-07-23T18:34:00.000Z</time></trkpt>
        <trkpt lat="29.565069" lon="103.427045"><ele>672.4277</ele><time>2026-07-23T18:34:02.000Z</time></trkpt>
        <trkpt lat="29.565044" lon="103.427029"><ele>671.88696</ele><time>2026-07-23T18:34:04.000Z</time></trkpt>
        <trkpt lat="29.565011" lon="103.427008"><ele>668.70184</ele><time>2026-07-23T18:34:06.000Z</time></trkpt>
        <trkpt lat="29.564983" lon="103.426989"><ele>667.1385</ele><time>2026-07-23T18:34:08.000Z</time></trkpt>
        <trkpt lat="29.564962" lon="103.426972"><ele>666.0901</ele><time>2026-07-23T18:34:10.000Z</time></trkpt>
        <trkpt lat="29.564946" lon="103.426955"><ele>665.4862</ele><time>2026-07-23T18:34:12.000Z</time></trkpt>
        <trkpt lat="29.564937" lon="103.426937"><ele>664.6924</ele><time>2026-07-23T18:34:14.000Z</time></trkpt>
        <trkpt lat="29.56493" lon="103.426916"><ele>662.99146</ele><time>2026-07-23T18:34:16.000Z</time></trkpt>
        <trkpt lat="29.564922" lon="103.426889"><ele>662.3397</ele><time>2026-07-23T18:34:18.000Z</time></trkpt>
        <trkpt lat="29.564915" lon="103.426864"><ele>661.3108</ele><time>2026-07-23T18:34:20.000Z</time></trkpt>
        <trkpt lat="29.56491" lon="103.42684"><ele>660.54913</ele><time>2026-07-23T18:34:22.000Z</time></trkpt>
        <trkpt lat="29.564909" lon="103.426817"><ele>659.7205</ele><time>2026-07-23T18:34:24.000Z</time></trkpt>
        <trkpt lat="29.564911" lon="103.426791"><ele>658.9515</ele><time>2026-07-23T18:34:26.000Z</time></trkpt>
        <trkpt lat="29.564912" lon="103.426768"><ele>659.0589</ele><time>2026-07-23T18:34:28.000Z</time></trkpt>
        <trkpt lat="29.564916" lon="103.426747"><ele>660.79144</ele><time>2026-07-23T18:34:30.000Z</time></trkpt>
        <trkpt lat="29.56492" lon="103.426734"><ele>660.72064</ele><time>2026-07-23T18:34:32.000Z</time></trkpt>
        <trkpt lat="29.564921" lon="103.426734"><ele>660.817</ele><time>2026-07-23T18:34:34.000Z</time></trkpt>
        <trkpt lat="29.564891" lon="103.426747"><ele>660.4455</ele><time>2026-07-23T18:34:46.000Z</time></trkpt>
        <trkpt lat="29.564886" lon="103.426742"><ele>660.78705</ele><time>2026-07-23T18:34:48.000Z</time></trkpt>
        <trkpt lat="29.564907" lon="103.426762"><ele>660.81836</ele><time>2026-07-23T18:34:50.000Z</time></trkpt>
        <trkpt lat="29.564909" lon="103.426763"><ele>660.47833</ele><time>2026-07-23T18:34:52.000Z</time></trkpt>
        <trkpt lat="29.564908" lon="103.426764"><ele>660.21765</ele><time>2026-07-23T18:34:54.000Z</time></trkpt>
        <trkpt lat="29.564926" lon="103.42675"><ele>660.81616</ele><time>2026-07-23T18:35:02.000Z</time></trkpt>
        <trkpt lat="29.564946" lon="103.426724"><ele>661.767</ele><time>2026-07-23T18:35:04.000Z</time></trkpt>
        <trkpt lat="29.564957" lon="103.426709"><ele>662.1596</ele><time>2026-07-23T18:35:06.000Z</time></trkpt>
        <trkpt lat="29.564958" lon="103.426708"><ele>661.9196</ele><time>2026-07-23T18:35:08.000Z</time></trkpt>
        <trkpt lat="29.56496" lon="103.426702"><ele>662.19183</ele><time>2026-07-23T18:35:12.000Z</time></trkpt>
        <trkpt lat="29.564969" lon="103.426677"><ele>662.2539</ele><time>2026-07-23T18:35:16.000Z</time></trkpt>
        <trkpt lat="29.564969" lon="103.426677"><ele>661.5718</ele><time>2026-07-23T18:35:18.000Z</time></trkpt>
        <trkpt lat="29.564971" lon="103.426674"><ele>660.9083</ele><time>2026-07-23T18:35:20.000Z</time></trkpt>
        <trkpt lat="29.564989" lon="103.426654"><ele>661.4025</ele><time>2026-07-23T18:35:26.000Z</time></trkpt>
        <trkpt lat="29.564992" lon="103.426649"><ele>661.8051</ele><time>2026-07-23T18:35:28.000Z</time></trkpt>
        <trkpt lat="29.564992" lon="103.426643"><ele>662.9415</ele><time>2026-07-23T18:35:30.000Z</time></trkpt>
        <trkpt lat="29.564993" lon="103.426626"><ele>663.49915</ele><time>2026-07-23T18:35:32.000Z</time></trkpt>
        <trkpt lat="29.564993" lon="103.426625"><ele>663.8178</ele><time>2026-07-23T18:35:34.000Z</time></trkpt>
        <trkpt lat="29.564992" lon="103.426605"><ele>665.5359</ele><time>2026-07-23T18:35:40.000Z</time></trkpt>
        <trkpt lat="29.564991" lon="103.426576"><ele>665.8571</ele><time>2026-07-23T18:35:42.000Z</time></trkpt>
        <trkpt lat="29.564992" lon="103.426574"><ele>667.6508</ele><time>2026-07-23T18:35:44.000Z</time></trkpt>
        <trkpt lat="29.564992" lon="103.426574"><ele>668.70056</ele><time>2026-07-23T18:35:46.000Z</time></trkpt>
        <trkpt lat="29.565011" lon="103.426579"><ele>671.2977</ele><time>2026-07-23T18:35:54.000Z</time></trkpt>
        <trkpt lat="29.565012" lon="103.426578"><ele>671.2977</ele><time>2026-07-23T18:35:56.000Z</time></trkpt>
        <trkpt lat="29.565013" lon="103.426576"><ele>671.8362</ele><time>2026-07-23T18:35:58.000Z</time></trkpt>
        <trkpt lat="29.565017" lon="103.426549"><ele>673.0339</ele><time>2026-07-23T18:36:12.000Z</time></trkpt>
        <trkpt lat="29.565019" lon="103.426546"><ele>673.5456</ele><time>2026-07-23T18:36:14.000Z</time></trkpt>
        <trkpt lat="29.56502" lon="103.426542"><ele>674.13745</ele><time>2026-07-23T18:36:16.000Z</time></trkpt>
        <trkpt lat="29.565038" lon="103.426468"><ele>673.3515</ele><time>2026-07-23T18:36:31.000Z</time></trkpt>
        <trkpt lat="29.565041" lon="103.426454"><ele>673.5251</ele><time>2026-07-23T18:36:33.000Z</time></trkpt>
        <trkpt lat="29.565042" lon="103.426453"><ele>673.90533</ele><time>2026-07-23T18:36:35.000Z</time></trkpt>
        <trkpt lat="29.565046" lon="103.426434"><ele>673.9521</ele><time>2026-07-23T18:36:41.000Z</time></trkpt>
        <trkpt lat="29.565051" lon="103.42641"><ele>674.57056</ele><time>2026-07-23T18:36:43.000Z</time></trkpt>
        <trkpt lat="29.565051" lon="103.426409"><ele>674.8662</ele><time>2026-07-23T18:36:45.000Z</time></trkpt>
        <trkpt lat="29.565054" lon="103.426394"><ele>673.3071</ele><time>2026-07-23T18:36:49.000Z</time></trkpt>
        <trkpt lat="29.565058" lon="103.42638"><ele>672.3293</ele><time>2026-07-23T18:36:51.000Z</time></trkpt>
        <trkpt lat="29.565061" lon="103.426369"><ele>672.53864</ele><time>2026-07-23T18:36:53.000Z</time></trkpt>
        <trkpt lat="29.565062" lon="103.42636"><ele>673.66266</ele><time>2026-07-23T18:36:55.000Z</time></trkpt>
        <trkpt lat="29.565061" lon="103.426347"><ele>673.4628</ele><time>2026-07-23T18:36:57.000Z</time></trkpt>
        <trkpt lat="29.565061" lon="103.426337"><ele>674.2224</ele><time>2026-07-23T18:36:59.000Z</time></trkpt>
        <trkpt lat="29.565063" lon="103.426325"><ele>673.0753</ele><time>2026-07-23T18:37:01.000Z</time></trkpt>
        <trkpt lat="29.565067" lon="103.426309"><ele>672.7958</ele><time>2026-07-23T18:37:03.000Z</time></trkpt>
        <trkpt lat="29.56507" lon="103.426295"><ele>673.0164</ele><time>2026-07-23T18:37:05.000Z</time></trkpt>
        <trkpt lat="29.565072" lon="103.426285"><ele>673.35156</ele><time>2026-07-23T18:37:07.000Z</time></trkpt>
        <trkpt lat="29.565075" lon="103.426271"><ele>673.6752</ele><time>2026-07-23T18:37:09.000Z</time></trkpt>
        <trkpt lat="29.565077" lon="103.426261"><ele>673.05347</ele><time>2026-07-23T18:37:11.000Z</time></trkpt>
        <trkpt lat="29.565083" lon="103.426252"><ele>672.91425</ele><time>2026-07-23T18:37:13.000Z</time></trkpt>
        <trkpt lat="29.565089" lon="103.426244"><ele>673.7487</ele><time>2026-07-23T18:37:15.000Z</time></trkpt>
        <trkpt lat="29.565094" lon="103.426234"><ele>673.89716</ele><time>2026-07-23T18:37:17.000Z</time></trkpt>
        <trkpt lat="29.565095" lon="103.42623"><ele>673.82904</ele><time>2026-07-23T18:37:21.000Z</time></trkpt>
        <trkpt lat="29.565103" lon="103.426215"><ele>674.11505</ele><time>2026-07-23T18:37:27.000Z</time></trkpt>
        <trkpt lat="29.565106" lon="103.42621"><ele>675.0578</ele><time>2026-07-23T18:37:29.000Z</time></trkpt>
        <trkpt lat="29.565106" lon="103.426206"><ele>675.0043</ele><time>2026-07-23T18:37:31.000Z</time></trkpt>
        <trkpt lat="29.565104" lon="103.426187"><ele>679.0329</ele><time>2026-07-23T18:37:41.000Z</time></trkpt>
        <trkpt lat="29.565104" lon="103.426179"><ele>678.00934</ele><time>2026-07-23T18:37:43.000Z</time></trkpt>
        <trkpt lat="29.56511" lon="103.426164"><ele>681.52747</ele><time>2026-07-23T18:37:51.000Z</time></trkpt>
        <trkpt lat="29.565117" lon="103.426158"><ele>683.6256</ele><time>2026-07-23T18:37:55.000Z</time></trkpt>
        <trkpt lat="29.565122" lon="103.426158"><ele>685.0217</ele><time>2026-07-23T18:37:57.000Z</time></trkpt>
        <trkpt lat="29.565147" lon="103.426157"><ele>686.3957</ele><time>2026-07-23T18:38:01.000Z</time></trkpt>
        <trkpt lat="29.565147" lon="103.426157"><ele>687.0332</ele><time>2026-07-23T18:38:03.000Z</time></trkpt>
        <trkpt lat="29.565149" lon="103.426142"><ele>684.6429</ele><time>2026-07-23T18:38:07.000Z</time></trkpt>
        <trkpt lat="29.565154" lon="103.426109"><ele>686.3363</ele><time>2026-07-23T18:38:11.000Z</time></trkpt>
        <trkpt lat="29.565154" lon="103.426109"><ele>686.95654</ele><time>2026-07-23T18:38:13.000Z</time></trkpt>
        <trkpt lat="29.565154" lon="103.426107"><ele>687.5713</ele><time>2026-07-23T18:38:15.000Z</time></trkpt>
        <trkpt lat="29.565151" lon="103.426077"><ele>686.26337</ele><time>2026-07-23T18:38:19.000Z</time></trkpt>
        <trkpt lat="29.565156" lon="103.42607"><ele>686.5471</ele><time>2026-07-23T18:38:21.000Z</time></trkpt>
        <trkpt lat="29.565155" lon="103.426055"><ele>692.9177</ele><time>2026-07-23T18:38:35.000Z</time></trkpt>
        <trkpt lat="29.565153" lon="103.426037"><ele>698.48724</ele><time>2026-07-23T18:38:45.000Z</time></trkpt>
        <trkpt lat="29.565147" lon="103.426009"><ele>698.9198</ele><time>2026-07-23T18:38:47.000Z</time></trkpt>
        <trkpt lat="29.565141" lon="103.425973"><ele>697.57086</ele><time>2026-07-23T18:38:49.000Z</time></trkpt>
        <trkpt lat="29.565141" lon="103.425972"><ele>697.41724</ele><time>2026-07-23T18:38:51.000Z</time></trkpt>
        <trkpt lat="29.565148" lon="103.425959"><ele>696.19196</ele><time>2026-07-23T18:38:55.000Z</time></trkpt>
        <trkpt lat="29.56516" lon="103.425931"><ele>694.60406</ele><time>2026-07-23T18:38:59.000Z</time></trkpt>
        <trkpt lat="29.565163" lon="103.425921"><ele>693.3523</ele><time>2026-07-23T18:39:01.000Z</time></trkpt>
        <trkpt lat="29.565164" lon="103.425912"><ele>692.4277</ele><time>2026-07-23T18:39:03.000Z</time></trkpt>
        <trkpt lat="29.565169" lon="103.425889"><ele>690.5082</ele><time>2026-07-23T18:39:09.000Z</time></trkpt>
        <trkpt lat="29.565172" lon="103.425881"><ele>691.90845</ele><time>2026-07-23T18:39:13.000Z</time></trkpt>
        <trkpt lat="29.565176" lon="103.425877"><ele>692.67236</ele><time>2026-07-23T18:39:15.000Z</time></trkpt>
        <trkpt lat="29.565192" lon="103.425858"><ele>696.38635</ele><time>2026-07-23T18:39:23.000Z</time></trkpt>
        <trkpt lat="29.565206" lon="103.425843"><ele>695.37634</ele><time>2026-07-23T18:39:25.000Z</time></trkpt>
        <trkpt lat="29.565206" lon="103.425841"><ele>693.70264</ele><time>2026-07-23T18:39:27.000Z</time></trkpt>
        <trkpt lat="29.565205" lon="103.425829"><ele>693.86334</ele><time>2026-07-23T18:39:31.000Z</time></trkpt>
        <trkpt lat="29.565201" lon="103.425798"><ele>693.2333</ele><time>2026-07-23T18:39:35.000Z</time></trkpt>
        <trkpt lat="29.565201" lon="103.425798"><ele>692.9691</ele><time>2026-07-23T18:39:37.000Z</time></trkpt>
        <trkpt lat="29.565202" lon="103.425796"><ele>693.18945</ele><time>2026-07-23T18:39:39.000Z</time></trkpt>
        <trkpt lat="29.56522" lon="103.425756"><ele>693.9774</ele><time>2026-07-23T18:39:45.000Z</time></trkpt>
      </trkseg>
      <trkseg>
        <trkpt lat="29.565216" lon="103.425774"><ele>697.98224</ele><time>2026-07-23T18:40:05.000Z</time></trkpt>
        <trkpt lat="29.565196" lon="103.425823"><ele>698.33234</ele><time>2026-07-23T18:40:33.000Z</time></trkpt>
      </trkseg>
      <trkseg>
        <trkpt lat="29.565198" lon="103.425739"><ele>698.16797</ele><time>2026-07-23T18:45:22.000Z</time></trkpt>
        <trkpt lat="29.565165" lon="103.425664"><ele>697.21783</ele><time>2026-07-23T18:45:32.000Z</time></trkpt>
        <trkpt lat="29.565144" lon="103.425627"><ele>697.5415</ele><time>2026-07-23T18:45:34.000Z</time></trkpt>
        <trkpt lat="29.565123" lon="103.425595"><ele>696.78503</ele><time>2026-07-23T18:45:36.000Z</time></trkpt>
        <trkpt lat="29.5651" lon="103.42557"><ele>697.871</ele><time>2026-07-23T18:45:38.000Z</time></trkpt>
        <trkpt lat="29.565079" lon="103.425553"><ele>698.05426</ele><time>2026-07-23T18:45:40.000Z</time></trkpt>
        <trkpt lat="29.565058" lon="103.425537"><ele>698.74286</ele><time>2026-07-23T18:45:42.000Z</time></trkpt>
        <trkpt lat="29.565041" lon="103.425522"><ele>698.8869</ele><time>2026-07-23T18:45:44.000Z</time></trkpt>
        <trkpt lat="29.565023" lon="103.425504"><ele>699.9996</ele><time>2026-07-23T18:45:46.000Z</time></trkpt>
        <trkpt lat="29.565011" lon="103.425487"><ele>698.41547</ele><time>2026-07-23T18:45:48.000Z</time></trkpt>
        <trkpt lat="29.565001" lon="103.425472"><ele>700.8124</ele><time>2026-07-23T18:45:50.000Z</time></trkpt>
        <trkpt lat="29.564996" lon="103.425461"><ele>699.1046</ele><time>2026-07-23T18:45:52.000Z</time></trkpt>
        <trkpt lat="29.56499" lon="103.425447"><ele>698.57074</ele><time>2026-07-23T18:45:54.000Z</time></trkpt>
        <trkpt lat="29.564977" lon="103.425417"><ele>697.9192</ele><time>2026-07-23T18:45:58.000Z</time></trkpt>
        <trkpt lat="29.56497" lon="103.4254"><ele>699.5052</ele><time>2026-07-23T18:46:00.000Z</time></trkpt>
        <trkpt lat="29.564964" lon="103.425384"><ele>699.54974</ele><time>2026-07-23T18:46:02.000Z</time></trkpt>
        <trkpt lat="29.564957" lon="103.425369"><ele>700.24164</ele><time>2026-07-23T18:46:04.000Z</time></trkpt>
        <trkpt lat="29.56495" lon="103.425356"><ele>700.5674</ele><time>2026-07-23T18:46:06.000Z</time></trkpt>
        <trkpt lat="29.56494" lon="103.425343"><ele>700.65106</ele><time>2026-07-23T18:46:08.000Z</time></trkpt>
        <trkpt lat="29.564929" lon="103.425329"><ele>702.0344</ele><time>2026-07-23T18:46:10.000Z</time></trkpt>
        <trkpt lat="29.564921" lon="103.425321"><ele>702.4826</ele><time>2026-07-23T18:46:12.000Z</time></trkpt>
        <trkpt lat="29.564913" lon="103.425314"><ele>702.7814</ele><time>2026-07-23T18:46:14.000Z</time></trkpt>
        <trkpt lat="29.564894" lon="103.425301"><ele>703.7608</ele><time>2026-07-23T18:46:18.000Z</time></trkpt>
        <trkpt lat="29.564881" lon="103.425294"><ele>703.6999</ele><time>2026-07-23T18:46:20.000Z</time></trkpt>
        <trkpt lat="29.564867" lon="103.425286"><ele>702.41</ele><time>2026-07-23T18:46:22.000Z</time></trkpt>
        <trkpt lat="29.564852" lon="103.425275"><ele>704.9264</ele><time>2026-07-23T18:46:24.000Z</time></trkpt>
        <trkpt lat="29.564839" lon="103.425265"><ele>705.099</ele><time>2026-07-23T18:46:26.000Z</time></trkpt>
        <trkpt lat="29.564828" lon="103.425254"><ele>706.79016</ele><time>2026-07-23T18:46:28.000Z</time></trkpt>
        <trkpt lat="29.56482" lon="103.425243"><ele>707.02106</ele><time>2026-07-23T18:46:30.000Z</time></trkpt>
        <trkpt lat="29.564801" lon="103.42522"><ele>707.95966</ele><time>2026-07-23T18:46:34.000Z</time></trkpt>
        <trkpt lat="29.564788" lon="103.425204"><ele>708.8049</ele><time>2026-07-23T18:46:36.000Z</time></trkpt>
        <trkpt lat="29.564779" lon="103.425192"><ele>709.279</ele><time>2026-07-23T18:46:38.000Z</time></trkpt>
        <trkpt lat="29.564781" lon="103.425187"><ele>709.92096</ele><time>2026-07-23T18:46:40.000Z</time></trkpt>
        <trkpt lat="29.564791" lon="103.425157"><ele>709.25854</ele><time>2026-07-23T18:46:52.000Z</time></trkpt>
        <trkpt lat="29.564791" lon="103.42513"><ele>709.71405</ele><time>2026-07-23T18:46:54.000Z</time></trkpt>
        <trkpt lat="29.56479" lon="103.42509"><ele>709.6943</ele><time>2026-07-23T18:46:59.000Z</time></trkpt>
        <trkpt lat="29.56479" lon="103.42509"><ele>709.51843</ele><time>2026-07-23T18:47:01.000Z</time></trkpt>
        <trkpt lat="29.564789" lon="103.425085"><ele>710.03064</ele><time>2026-07-23T18:47:03.000Z</time></trkpt>
        <trkpt lat="29.564783" lon="103.425046"><ele>712.4468</ele><time>2026-07-23T18:47:07.000Z</time></trkpt>
        <trkpt lat="29.564779" lon="103.425032"><ele>712.64355</ele><time>2026-07-23T18:47:09.000Z</time></trkpt>
        <trkpt lat="29.564773" lon="103.425022"><ele>713.55164</ele><time>2026-07-23T18:47:11.000Z</time></trkpt>
        <trkpt lat="29.564768" lon="103.425013"><ele>713.23804</ele><time>2026-07-23T18:47:13.000Z</time></trkpt>
        <trkpt lat="29.564765" lon="103.425002"><ele>712.00934</ele><time>2026-07-23T18:47:15.000Z</time></trkpt>
        <trkpt lat="29.564761" lon="103.424988"><ele>712.5848</ele><time>2026-07-23T18:47:17.000Z</time></trkpt>
        <trkpt lat="29.564761" lon="103.424977"><ele>713.4547</ele><time>2026-07-23T18:47:19.000Z</time></trkpt>
        <trkpt lat="29.564757" lon="103.424971"><ele>713.6006</ele><time>2026-07-23T18:47:21.000Z</time></trkpt>
        <trkpt lat="29.564745" lon="103.424952"><ele>714.8765</ele><time>2026-07-23T18:47:25.000Z</time></trkpt>
        <trkpt lat="29.564739" lon="103.424947"><ele>714.8398</ele><time>2026-07-23T18:47:27.000Z</time></trkpt>
        <trkpt lat="29.564732" lon="103.424942"><ele>714.70337</ele><time>2026-07-23T18:47:29.000Z</time></trkpt>
        <trkpt lat="29.564719" lon="103.424932"><ele>714.385</ele><time>2026-07-23T18:47:31.000Z</time></trkpt>
        <trkpt lat="29.564709" lon="103.424919"><ele>714.17816</ele><time>2026-07-23T18:47:33.000Z</time></trkpt>
        <trkpt lat="29.5647" lon="103.424898"><ele>715.7024</ele><time>2026-07-23T18:47:35.000Z</time></trkpt>
        <trkpt lat="29.5647" lon="103.424885"><ele>715.1717</ele><time>2026-07-23T18:47:37.000Z</time></trkpt>
        <trkpt lat="29.564701" lon="103.424869"><ele>714.70276</ele><time>2026-07-23T18:47:39.000Z</time></trkpt>
        <trkpt lat="29.564704" lon="103.424857"><ele>714.30774</ele><time>2026-07-23T18:47:41.000Z</time></trkpt>
        <trkpt lat="29.564708" lon="103.424841"><ele>714.56903</ele><time>2026-07-23T18:47:43.000Z</time></trkpt>
        <trkpt lat="29.564711" lon="103.424821"><ele>714.1489</ele><time>2026-07-23T18:47:45.000Z</time></trkpt>
        <trkpt lat="29.564711" lon="103.4248"><ele>714.55743</ele><time>2026-07-23T18:47:47.000Z</time></trkpt>
        <trkpt lat="29.564706" lon="103.424783"><ele>715.1966</ele><time>2026-07-23T18:47:49.000Z</time></trkpt>
        <trkpt lat="29.564699" lon="103.424771"><ele>715.1748</ele><time>2026-07-23T18:47:51.000Z</time></trkpt>
        <trkpt lat="29.564692" lon="103.424762"><ele>715.034</ele><time>2026-07-23T18:47:53.000Z</time></trkpt>
        <trkpt lat="29.564686" lon="103.424755"><ele>715.7287</ele><time>2026-07-23T18:47:55.000Z</time></trkpt>
        <trkpt lat="29.564679" lon="103.424747"><ele>715.78906</ele><time>2026-07-23T18:47:57.000Z</time></trkpt>
        <trkpt lat="29.564677" lon="103.424737"><ele>716.00195</ele><time>2026-07-23T18:47:59.000Z</time></trkpt>
        <trkpt lat="29.564679" lon="103.424725"><ele>716.06537</ele><time>2026-07-23T18:48:05.000Z</time></trkpt>
        <trkpt lat="29.564684" lon="103.424705"><ele>715.89453</ele><time>2026-07-23T18:48:07.000Z</time></trkpt>
        <trkpt lat="29.564689" lon="103.424692"><ele>715.9958</ele><time>2026-07-23T18:48:09.000Z</time></trkpt>
        <trkpt lat="29.564693" lon="103.424679"><ele>716.5984</ele><time>2026-07-23T18:48:11.000Z</time></trkpt>
        <trkpt lat="29.564697" lon="103.424668"><ele>717.7372</ele><time>2026-07-23T18:48:13.000Z</time></trkpt>
        <trkpt lat="29.564699" lon="103.424657"><ele>717.74054</ele><time>2026-07-23T18:48:15.000Z</time></trkpt>
        <trkpt lat="29.564703" lon="103.424641"><ele>719.2654</ele><time>2026-07-23T18:48:19.000Z</time></trkpt>
        <trkpt lat="29.564703" lon="103.424627"><ele>719.99133</ele><time>2026-07-23T18:48:21.000Z</time></trkpt>
        <trkpt lat="29.564698" lon="103.424615"><ele>720.1996</ele><time>2026-07-23T18:48:23.000Z</time></trkpt>
        <trkpt lat="29.564692" lon="103.424608"><ele>720.5424</ele><time>2026-07-23T18:48:25.000Z</time></trkpt>
        <trkpt lat="29.564683" lon="103.424597"><ele>720.805</ele><time>2026-07-23T18:48:27.000Z</time></trkpt>
        <trkpt lat="29.564675" lon="103.424584"><ele>720.77216</ele><time>2026-07-23T18:48:29.000Z</time></trkpt>
        <trkpt lat="29.564673" lon="103.424584"><ele>722.138</ele><time>2026-07-23T18:48:31.000Z</time></trkpt>
        <trkpt lat="29.564664" lon="103.424577"><ele>724.4799</ele><time>2026-07-23T18:48:35.000Z</time></trkpt>
        <trkpt lat="29.564662" lon="103.424565"><ele>725.3025</ele><time>2026-07-23T18:48:39.000Z</time></trkpt>
        <trkpt lat="29.564657" lon="103.424529"><ele>725.0087</ele><time>2026-07-23T18:48:41.000Z</time></trkpt>
        <trkpt lat="29.564658" lon="103.424527"><ele>727.47626</ele><time>2026-07-23T18:48:43.000Z</time></trkpt>
        <trkpt lat="29.56466" lon="103.424523"><ele>727.8871</ele><time>2026-07-23T18:48:45.000Z</time></trkpt>
        <trkpt lat="29.564666" lon="103.424495"><ele>727.1963</ele><time>2026-07-23T18:48:49.000Z</time></trkpt>
        <trkpt lat="29.564663" lon="103.424487"><ele>727.50397</ele><time>2026-07-23T18:48:51.000Z</time></trkpt>
        <trkpt lat="29.56465" lon="103.424469"><ele>728.10583</ele><time>2026-07-23T18:48:53.000Z</time></trkpt>
        <trkpt lat="29.564637" lon="103.424455"><ele>728.65674</ele><time>2026-07-23T18:48:55.000Z</time></trkpt>
        <trkpt lat="29.564628" lon="103.424445"><ele>728.07184</ele><time>2026-07-23T18:48:57.000Z</time></trkpt>
        <trkpt lat="29.56462" lon="103.424435"><ele>727.53864</ele><time>2026-07-23T18:48:59.000Z</time></trkpt>
        <trkpt lat="29.56461" lon="103.424422"><ele>726.58734</ele><time>2026-07-23T18:49:01.000Z</time></trkpt>
        <trkpt lat="29.564599" lon="103.42441"><ele>725.74506</ele><time>2026-07-23T18:49:03.000Z</time></trkpt>
        <trkpt lat="29.56459" lon="103.424394"><ele>726.0663</ele><time>2026-07-23T18:49:05.000Z</time></trkpt>
        <trkpt lat="29.564585" lon="103.424378"><ele>726.04456</ele><time>2026-07-23T18:49:07.000Z</time></trkpt>
        <trkpt lat="29.564584" lon="103.424362"><ele>726.8932</ele><time>2026-07-23T18:49:09.000Z</time></trkpt>
        <trkpt lat="29.564587" lon="103.424355"><ele>727.8779</ele><time>2026-07-23T18:49:11.000Z</time></trkpt>
        <trkpt lat="29.564592" lon="103.424339"><ele>731.73065</ele><time>2026-07-23T18:49:19.000Z</time></trkpt>
        <trkpt lat="29.564594" lon="103.424317"><ele>734.6707</ele><time>2026-07-23T18:49:25.000Z</time></trkpt>
        <trkpt lat="29.564592" lon="103.424316"><ele>735.63947</ele><time>2026-07-23T18:49:27.000Z</time></trkpt>
        <trkpt lat="29.564571" lon="103.424295"><ele>736.94617</ele><time>2026-07-23T18:49:31.000Z</time></trkpt>
        <trkpt lat="29.564568" lon="103.424293"><ele>741.9128</ele><time>2026-07-23T18:50:02.000Z</time></trkpt>
        <trkpt lat="29.564559" lon="103.424278"><ele>741.5265</ele><time>2026-07-23T18:50:04.000Z</time></trkpt>
        <trkpt lat="29.564534" lon="103.424239"><ele>740.581</ele><time>2026-07-23T18:50:12.000Z</time></trkpt>
        <trkpt lat="29.564534" lon="103.424239"><ele>740.7869</ele><time>2026-07-23T18:50:14.000Z</time></trkpt>
        <trkpt lat="29.564534" lon="103.424237"><ele>740.9315</ele><time>2026-07-23T18:50:16.000Z</time></trkpt>
        <trkpt lat="29.564533" lon="103.424206"><ele>740.67737</ele><time>2026-07-23T18:50:20.000Z</time></trkpt>
        <trkpt lat="29.56453" lon="103.424199"><ele>741.1825</ele><time>2026-07-23T18:50:22.000Z</time></trkpt>
        <trkpt lat="29.564526" lon="103.424192"><ele>741.1097</ele><time>2026-07-23T18:50:24.000Z</time></trkpt>
        <trkpt lat="29.564517" lon="103.424172"><ele>741.68256</ele><time>2026-07-23T18:50:28.000Z</time></trkpt>
        <trkpt lat="29.564511" lon="103.424163"><ele>741.6621</ele><time>2026-07-23T18:50:30.000Z</time></trkpt>
        <trkpt lat="29.564505" lon="103.424156"><ele>741.9001</ele><time>2026-07-23T18:50:32.000Z</time></trkpt>
        <trkpt lat="29.56449" lon="103.424139"><ele>741.3784</ele><time>2026-07-23T18:50:42.000Z</time></trkpt>
        <trkpt lat="29.564489" lon="103.424134"><ele>741.6436</ele><time>2026-07-23T18:50:44.000Z</time></trkpt>
        <trkpt lat="29.564483" lon="103.424122"><ele>740.4974</ele><time>2026-07-23T18:50:50.000Z</time></trkpt>
        <trkpt lat="29.564468" lon="103.424091"><ele>740.4425</ele><time>2026-07-23T18:50:54.000Z</time></trkpt>
        <trkpt lat="29.564468" lon="103.424091"><ele>740.51154</ele><time>2026-07-23T18:50:56.000Z</time></trkpt>
        <trkpt lat="29.564465" lon="103.424087"><ele>740.3979</ele><time>2026-07-23T18:50:58.000Z</time></trkpt>
        <trkpt lat="29.564424" lon="103.424027"><ele>739.10205</ele><time>2026-07-23T18:51:02.000Z</time></trkpt>
        <trkpt lat="29.564402" lon="103.423996"><ele>739.6379</ele><time>2026-07-23T18:51:04.000Z</time></trkpt>
        <trkpt lat="29.564391" lon="103.423972"><ele>739.2047</ele><time>2026-07-23T18:51:06.000Z</time></trkpt>
        <trkpt lat="29.564391" lon="103.423957"><ele>738.7949</ele><time>2026-07-23T18:51:08.000Z</time></trkpt>
        <trkpt lat="29.564391" lon="103.423941"><ele>738.74664</ele><time>2026-07-23T18:51:10.000Z</time></trkpt>
        <trkpt lat="29.564391" lon="103.423927"><ele>736.5715</ele><time>2026-07-23T18:51:12.000Z</time></trkpt>
        <trkpt lat="29.564389" lon="103.423908"><ele>735.2109</ele><time>2026-07-23T18:51:14.000Z</time></trkpt>
        <trkpt lat="29.564387" lon="103.423892"><ele>734.86786</ele><time>2026-07-23T18:51:16.000Z</time></trkpt>
        <trkpt lat="29.564383" lon="103.423876"><ele>734.71124</ele><time>2026-07-23T18:51:18.000Z</time></trkpt>
        <trkpt lat="29.564376" lon="103.423858"><ele>735.2837</ele><time>2026-07-23T18:51:20.000Z</time></trkpt>
        <trkpt lat="29.564367" lon="103.423839"><ele>735.97266</ele><time>2026-07-23T18:51:22.000Z</time></trkpt>
        <trkpt lat="29.56437" lon="103.423835"><ele>736.77167</ele><time>2026-07-23T18:51:24.000Z</time></trkpt>
        <trkpt lat="29.564387" lon="103.42381"><ele>738.82196</ele><time>2026-07-23T18:51:30.000Z</time></trkpt>
        <trkpt lat="29.564389" lon="103.423807"><ele>739.8304</ele><time>2026-07-23T18:51:34.000Z</time></trkpt>
        <trkpt lat="29.564389" lon="103.423807"><ele>740.5365</ele><time>2026-07-23T18:51:36.000Z</time></trkpt>
        <trkpt lat="29.564341" lon="103.423762"><ele>742.3335</ele><time>2026-07-23T18:51:40.000Z</time></trkpt>
        <trkpt lat="29.564341" lon="103.423762"><ele>743.2157</ele><time>2026-07-23T18:51:42.000Z</time></trkpt>
        <trkpt lat="29.564342" lon="103.423761"><ele>743.6486</ele><time>2026-07-23T18:51:44.000Z</time></trkpt>
        <trkpt lat="29.564361" lon="103.423731"><ele>744.92346</ele><time>2026-07-23T18:51:48.000Z</time></trkpt>
        <trkpt lat="29.564368" lon="103.423712"><ele>744.75854</ele><time>2026-07-23T18:51:50.000Z</time></trkpt>
        <trkpt lat="29.564376" lon="103.423688"><ele>744.2198</ele><time>2026-07-23T18:51:52.000Z</time></trkpt>
        <trkpt lat="29.564382" lon="103.423668"><ele>744.6063</ele><time>2026-07-23T18:51:54.000Z</time></trkpt>
        <trkpt lat="29.564396" lon="103.42365"><ele>745.2872</ele><time>2026-07-23T18:51:56.000Z</time></trkpt>
        <trkpt lat="29.564408" lon="103.423645"><ele>744.81494</ele><time>2026-07-23T18:51:58.000Z</time></trkpt>
        <trkpt lat="29.564428" lon="103.423638"><ele>745.07874</ele><time>2026-07-23T18:52:00.000Z</time></trkpt>
        <trkpt lat="29.564434" lon="103.42363"><ele>745.0816</ele><time>2026-07-23T18:52:02.000Z</time></trkpt>
        <trkpt lat="29.564433" lon="103.423628"><ele>744.1054</ele><time>2026-07-23T18:52:04.000Z</time></trkpt>
        <trkpt lat="29.564423" lon="103.423597"><ele>744.8455</ele><time>2026-07-23T18:52:08.000Z</time></trkpt>
        <trkpt lat="29.564417" lon="103.423584"><ele>744.89307</ele><time>2026-07-23T18:52:10.000Z</time></trkpt>
        <trkpt lat="29.564409" lon="103.423566"><ele>744.16675</ele><time>2026-07-23T18:52:12.000Z</time></trkpt>
        <trkpt lat="29.5644" lon="103.423545"><ele>743.6656</ele><time>2026-07-23T18:52:14.000Z</time></trkpt>
        <trkpt lat="29.564399" lon="103.423531"><ele>742.9038</ele><time>2026-07-23T18:52:16.000Z</time></trkpt>
        <trkpt lat="29.5644" lon="103.423522"><ele>743.7763</ele><time>2026-07-23T18:52:18.000Z</time></trkpt>
        <trkpt lat="29.564398" lon="103.423506"><ele>745.7724</ele><time>2026-07-23T18:52:22.000Z</time></trkpt>
        <trkpt lat="29.564395" lon="103.423486"><ele>745.9509</ele><time>2026-07-23T18:52:24.000Z</time></trkpt>
        <trkpt lat="29.564394" lon="103.423479"><ele>746.08594</ele><time>2026-07-23T18:52:28.000Z</time></trkpt>
        <trkpt lat="29.564396" lon="103.423461"><ele>746.3366</ele><time>2026-07-23T18:52:30.000Z</time></trkpt>
        <trkpt lat="29.564399" lon="103.423439"><ele>746.06335</ele><time>2026-07-23T18:52:32.000Z</time></trkpt>
        <trkpt lat="29.564405" lon="103.423421"><ele>746.3991</ele><time>2026-07-23T18:52:34.000Z</time></trkpt>
        <trkpt lat="29.564414" lon="103.423412"><ele>747.0495</ele><time>2026-07-23T18:52:36.000Z</time></trkpt>
        <trkpt lat="29.564423" lon="103.423403"><ele>747.4193</ele><time>2026-07-23T18:52:38.000Z</time></trkpt>
        <trkpt lat="29.564432" lon="103.423388"><ele>749.33685</ele><time>2026-07-23T18:52:46.000Z</time></trkpt>
        <trkpt lat="29.564441" lon="103.423373"><ele>749.7987</ele><time>2026-07-23T18:52:50.000Z</time></trkpt>
        <trkpt lat="29.564452" lon="103.423354"><ele>750.74286</ele><time>2026-07-23T18:52:52.000Z</time></trkpt>
        <trkpt lat="29.564453" lon="103.423347"><ele>750.6515</ele><time>2026-07-23T18:52:56.000Z</time></trkpt>
        <trkpt lat="29.564454" lon="103.423323"><ele>750.04834</ele><time>2026-07-23T18:53:00.000Z</time></trkpt>
        <trkpt lat="29.564455" lon="103.423277"><ele>750.4084</ele><time>2026-07-23T18:53:04.000Z</time></trkpt>
        <trkpt lat="29.564455" lon="103.423277"><ele>750.8594</ele><time>2026-07-23T18:53:06.000Z</time></trkpt>
        <trkpt lat="29.564456" lon="103.423274"><ele>751.6886</ele><time>2026-07-23T18:53:08.000Z</time></trkpt>
        <trkpt lat="29.564473" lon="103.423228"><ele>753.90454</ele><time>2026-07-23T18:53:20.000Z</time></trkpt>
        <trkpt lat="29.56448" lon="103.423209"><ele>753.73047</ele><time>2026-07-23T18:53:22.000Z</time></trkpt>
        <trkpt lat="29.564479" lon="103.423208"><ele>754.17847</ele><time>2026-07-23T18:53:24.000Z</time></trkpt>
        <trkpt lat="29.564472" lon="103.423169"><ele>754.0101</ele><time>2026-07-23T18:53:30.000Z</time></trkpt>
        <trkpt lat="29.564469" lon="103.42315"><ele>754.3282</ele><time>2026-07-23T18:53:32.000Z</time></trkpt>
        <trkpt lat="29.564468" lon="103.423133"><ele>755.3202</ele><time>2026-07-23T18:53:34.000Z</time></trkpt>
        <trkpt lat="29.564469" lon="103.423124"><ele>755.78894</ele><time>2026-07-23T18:53:36.000Z</time></trkpt>
        <trkpt lat="29.564465" lon="103.423101"><ele>760.28375</ele><time>2026-07-23T18:53:52.000Z</time></trkpt>
        <trkpt lat="29.564462" lon="103.423087"><ele>760.739</ele><time>2026-07-23T18:53:54.000Z</time></trkpt>
        <trkpt lat="29.564461" lon="103.423075"><ele>763.9536</ele><time>2026-07-23T18:54:02.000Z</time></trkpt>
        <trkpt lat="29.56446" lon="103.423038"><ele>763.76294</ele><time>2026-07-23T18:54:04.000Z</time></trkpt>
        <trkpt lat="29.564461" lon="103.423036"><ele>763.81616</ele><time>2026-07-23T18:54:06.000Z</time></trkpt>
        <trkpt lat="29.564477" lon="103.423016"><ele>765.477</ele><time>2026-07-23T18:54:10.000Z</time></trkpt>
        <trkpt lat="29.564485" lon="103.422998"><ele>767.2272</ele><time>2026-07-23T18:54:12.000Z</time></trkpt>
        <trkpt lat="29.564489" lon="103.422976"><ele>767.5761</ele><time>2026-07-23T18:54:14.000Z</time></trkpt>
        <trkpt lat="29.564496" lon="103.422946"><ele>766.3255</ele><time>2026-07-23T18:54:16.000Z</time></trkpt>
        <trkpt lat="29.564502" lon="103.42292"><ele>766.37225</ele><time>2026-07-23T18:54:18.000Z</time></trkpt>
        <trkpt lat="29.564504" lon="103.422908"><ele>766.6276</ele><time>2026-07-23T18:54:20.000Z</time></trkpt>
        <trkpt lat="29.564501" lon="103.422901"><ele>767.1786</ele><time>2026-07-23T18:54:22.000Z</time></trkpt>
        <trkpt lat="29.564492" lon="103.42288"><ele>769.948</ele><time>2026-07-23T18:54:36.000Z</time></trkpt>
        <trkpt lat="29.564485" lon="103.422864"><ele>769.7225</ele><time>2026-07-23T18:54:38.000Z</time></trkpt>
        <trkpt lat="29.564484" lon="103.422864"><ele>770.18604</ele><time>2026-07-23T18:54:40.000Z</time></trkpt>
        <trkpt lat="29.564465" lon="103.422844"><ele>770.129</ele><time>2026-07-23T18:54:48.000Z</time></trkpt>
        <trkpt lat="29.564451" lon="103.42283"><ele>769.7106</ele><time>2026-07-23T18:54:50.000Z</time></trkpt>
        <trkpt lat="29.56445" lon="103.422829"><ele>769.2479</ele><time>2026-07-23T18:54:52.000Z</time></trkpt>
        <trkpt lat="29.564439" lon="103.422815"><ele>769.80084</ele><time>2026-07-23T18:54:56.000Z</time></trkpt>
        <trkpt lat="29.564421" lon="103.422785"><ele>771.04065</ele><time>2026-07-23T18:55:00.000Z</time></trkpt>
        <trkpt lat="29.564414" lon="103.422765"><ele>771.1407</ele><time>2026-07-23T18:55:02.000Z</time></trkpt>
        <trkpt lat="29.56441" lon="103.422748"><ele>770.9172</ele><time>2026-07-23T18:55:04.000Z</time></trkpt>
        <trkpt lat="29.564406" lon="103.42273"><ele>770.6869</ele><time>2026-07-23T18:55:06.000Z</time></trkpt>
        <trkpt lat="29.564403" lon="103.422711"><ele>770.1494</ele><time>2026-07-23T18:55:08.000Z</time></trkpt>
        <trkpt lat="29.5644" lon="103.422691"><ele>769.96454</ele><time>2026-07-23T18:55:10.000Z</time></trkpt>
        <trkpt lat="29.564406" lon="103.42268"><ele>770.071</ele><time>2026-07-23T18:55:12.000Z</time></trkpt>
        <trkpt lat="29.564412" lon="103.422673"><ele>770.0537</ele><time>2026-07-23T18:55:14.000Z</time></trkpt>
        <trkpt lat="29.564415" lon="103.422661"><ele>770.9175</ele><time>2026-07-23T18:55:16.000Z</time></trkpt>
        <trkpt lat="29.564413" lon="103.422637"><ele>769.8271</ele><time>2026-07-23T18:55:20.000Z</time></trkpt>
        <trkpt lat="29.564411" lon="103.422624"><ele>770.70654</ele><time>2026-07-23T18:55:22.000Z</time></trkpt>
        <trkpt lat="29.56441" lon="103.422613"><ele>771.2692</ele><time>2026-07-23T18:55:24.000Z</time></trkpt>
        <trkpt lat="29.564407" lon="103.422591"><ele>772.318</ele><time>2026-07-23T18:55:28.000Z</time></trkpt>
        <trkpt lat="29.564402" lon="103.422581"><ele>772.71716</ele><time>2026-07-23T18:55:30.000Z</time></trkpt>
        <trkpt lat="29.564394" lon="103.422565"><ele>772.80707</ele><time>2026-07-23T18:55:32.000Z</time></trkpt>
        <trkpt lat="29.564388" lon="103.422549"><ele>772.2315</ele><time>2026-07-23T18:55:34.000Z</time></trkpt>
        <trkpt lat="29.56439" lon="103.422544"><ele>771.68274</ele><time>2026-07-23T18:55:36.000Z</time></trkpt>
        <trkpt lat="29.564397" lon="103.422528"><ele>774.17004</ele><time>2026-07-23T18:55:46.000Z</time></trkpt>
        <trkpt lat="29.564404" lon="103.422512"><ele>774.12756</ele><time>2026-07-23T18:55:48.000Z</time></trkpt>
        <trkpt lat="29.564404" lon="103.422512"><ele>774.33734</ele><time>2026-07-23T18:55:50.000Z</time></trkpt>
        <trkpt lat="29.564393" lon="103.422489"><ele>772.759</ele><time>2026-07-23T18:56:00.000Z</time></trkpt>
        <trkpt lat="29.564386" lon="103.422475"><ele>772.96765</ele><time>2026-07-23T18:56:02.000Z</time></trkpt>
        <trkpt lat="29.564386" lon="103.422474"><ele>773.57855</ele><time>2026-07-23T18:56:04.000Z</time></trkpt>
        <trkpt lat="29.56439" lon="103.42246"><ele>773.3306</ele><time>2026-07-23T18:56:10.000Z</time></trkpt>
        <trkpt lat="29.564398" lon="103.422432"><ele>774.20776</ele><time>2026-07-23T18:56:14.000Z</time></trkpt>
        <trkpt lat="29.564398" lon="103.422432"><ele>772.91534</ele><time>2026-07-23T18:56:16.000Z</time></trkpt>
        <trkpt lat="29.564397" lon="103.422424"><ele>774.74396</ele><time>2026-07-23T18:56:22.000Z</time></trkpt>
        <trkpt lat="29.564388" lon="103.422396"><ele>773.0743</ele><time>2026-07-23T18:56:28.000Z</time></trkpt>
        <trkpt lat="29.564384" lon="103.422389"><ele>773.28015</ele><time>2026-07-23T18:56:30.000Z</time></trkpt>
        <trkpt lat="29.564381" lon="103.422371"><ele>772.84705</ele><time>2026-07-23T18:56:32.000Z</time></trkpt>
        <trkpt lat="29.564381" lon="103.42236"><ele>773.51904</ele><time>2026-07-23T18:56:38.000Z</time></trkpt>
        <trkpt lat="29.564381" lon="103.422338"><ele>772.8132</ele><time>2026-07-23T18:56:40.000Z</time></trkpt>
        <trkpt lat="29.564381" lon="103.422325"><ele>771.88226</ele><time>2026-07-23T18:56:46.000Z</time></trkpt>
        <trkpt lat="29.564383" lon="103.422304"><ele>771.9042</ele><time>2026-07-23T18:56:48.000Z</time></trkpt>
        <trkpt lat="29.564381" lon="103.422247"><ele>768.16504</ele><time>2026-07-23T18:58:31.000Z</time></trkpt>
        <trkpt lat="29.56438" lon="103.422232"><ele>768.90247</ele><time>2026-07-23T18:58:33.000Z</time></trkpt>
        <trkpt lat="29.564378" lon="103.422224"><ele>773.19305</ele><time>2026-07-23T18:58:39.000Z</time></trkpt>
        <trkpt lat="29.564364" lon="103.422141"><ele>777.85614</ele><time>2026-07-23T18:59:01.000Z</time></trkpt>
        <trkpt lat="29.56436" lon="103.422116"><ele>778.41394</ele><time>2026-07-23T18:59:03.000Z</time></trkpt>
        <trkpt lat="29.56436" lon="103.422114"><ele>778.25946</ele><time>2026-07-23T18:59:05.000Z</time></trkpt>
        <trkpt lat="29.564351" lon="103.422079"><ele>780.0579</ele><time>2026-07-23T18:59:11.000Z</time></trkpt>
        <trkpt lat="29.564348" lon="103.422065"><ele>780.53125</ele><time>2026-07-23T18:59:13.000Z</time></trkpt>
        <trkpt lat="29.564346" lon="103.422054"><ele>779.8399</ele><time>2026-07-23T18:59:15.000Z</time></trkpt>
        <trkpt lat="29.564343" lon="103.42203"><ele>779.5954</ele><time>2026-07-23T18:59:19.000Z</time></trkpt>
        <trkpt lat="29.564319" lon="103.422034"><ele>784.3145</ele><time>2026-07-23T18:59:27.000Z</time></trkpt>
        <trkpt lat="29.564392" lon="103.422023"><ele>782.9274</ele><time>2026-07-23T18:59:37.000Z</time></trkpt>
        <trkpt lat="29.564392" lon="103.422023"><ele>783.53577</ele><time>2026-07-23T18:59:39.000Z</time></trkpt>
        <trkpt lat="29.564396" lon="103.422021"><ele>783.28174</ele><time>2026-07-23T18:59:41.000Z</time></trkpt>
        <trkpt lat="29.564429" lon="103.422005"><ele>785.4859</ele><time>2026-07-23T18:59:58.000Z</time></trkpt>
        <trkpt lat="29.564372" lon="103.421973"><ele>786.9284</ele><time>2026-07-23T19:00:18.000Z</time></trkpt>
        <trkpt lat="29.564372" lon="103.421973"><ele>787.0071</ele><time>2026-07-23T19:00:20.000Z</time></trkpt>
        <trkpt lat="29.564372" lon="103.421969"><ele>786.9001</ele><time>2026-07-23T19:00:22.000Z</time></trkpt>
        <trkpt lat="29.564361" lon="103.421903"><ele>786.9397</ele><time>2026-07-23T19:00:30.000Z</time></trkpt>
        <trkpt lat="29.564363" lon="103.421889"><ele>786.6688</ele><time>2026-07-23T19:00:32.000Z</time></trkpt>
        <trkpt lat="29.564359" lon="103.42188"><ele>785.82416</ele><time>2026-07-23T19:00:34.000Z</time></trkpt>
        <trkpt lat="29.564351" lon="103.421849"><ele>786.1047</ele><time>2026-07-23T19:00:42.000Z</time></trkpt>
        <trkpt lat="29.564348" lon="103.42184"><ele>786.2059</ele><time>2026-07-23T19:00:48.000Z</time></trkpt>
        <trkpt lat="29.564341" lon="103.421815"><ele>786.4721</ele><time>2026-07-23T19:00:50.000Z</time></trkpt>
        <trkpt lat="29.564342" lon="103.421811"><ele>784.42017</ele><time>2026-07-23T19:00:54.000Z</time></trkpt>
        <trkpt lat="29.564348" lon="103.4218"><ele>784.6062</ele><time>2026-07-23T19:00:56.000Z</time></trkpt>
        <trkpt lat="29.564361" lon="103.421767"><ele>783.3409</ele><time>2026-07-23T19:01:00.000Z</time></trkpt>
        <trkpt lat="29.564364" lon="103.421753"><ele>783.3869</ele><time>2026-07-23T19:01:02.000Z</time></trkpt>
        <trkpt lat="29.564362" lon="103.421745"><ele>784.10175</ele><time>2026-07-23T19:01:04.000Z</time></trkpt>
        <trkpt lat="29.564353" lon="103.421737"><ele>783.88965</ele><time>2026-07-23T19:01:08.000Z</time></trkpt>
        <trkpt lat="29.564317" lon="103.421704"><ele>793.3151</ele><time>2026-07-23T19:02:03.000Z</time></trkpt>
        <trkpt lat="29.564317" lon="103.421703"><ele>794.67865</ele><time>2026-07-23T19:02:07.000Z</time></trkpt>
        <trkpt lat="29.564309" lon="103.421666"><ele>794.3934</ele><time>2026-07-23T19:02:11.000Z</time></trkpt>
        <trkpt lat="29.5643" lon="103.421621"><ele>796.5473</ele><time>2026-07-23T19:02:29.000Z</time></trkpt>
        <trkpt lat="29.564298" lon="103.421613"><ele>797.55286</ele><time>2026-07-23T19:02:31.000Z</time></trkpt>
        <trkpt lat="29.564295" lon="103.421599"><ele>798.9054</ele><time>2026-07-23T19:02:35.000Z</time></trkpt>
        <trkpt lat="29.564285" lon="103.421569"><ele>800.39197</ele><time>2026-07-23T19:02:43.000Z</time></trkpt>
        <trkpt lat="29.564278" lon="103.421546"><ele>800.9179</ele><time>2026-07-23T19:02:45.000Z</time></trkpt>
        <trkpt lat="29.564278" lon="103.421545"><ele>801.62854</ele><time>2026-07-23T19:02:47.000Z</time></trkpt>
        <trkpt lat="29.564269" lon="103.421512"><ele>802.64484</ele><time>2026-07-23T19:02:57.000Z</time></trkpt>
        <trkpt lat="29.564265" lon="103.421498"><ele>804.2203</ele><time>2026-07-23T19:03:01.000Z</time></trkpt>
        <trkpt lat="29.564258" lon="103.421482"><ele>803.88745</ele><time>2026-07-23T19:03:03.000Z</time></trkpt>
        <trkpt lat="29.564243" lon="103.421452"><ele>805.1699</ele><time>2026-07-23T19:03:10.000Z</time></trkpt>
        <trkpt lat="29.564242" lon="103.421442"><ele>805.1231</ele><time>2026-07-23T19:03:12.000Z</time></trkpt>
        <trkpt lat="29.56424" lon="103.421431"><ele>805.75726</ele><time>2026-07-23T19:03:14.000Z</time></trkpt>
        <trkpt lat="29.564241" lon="103.421409"><ele>804.56244</ele><time>2026-07-23T19:03:20.000Z</time></trkpt>
        <trkpt lat="29.564242" lon="103.421393"><ele>804.66034</ele><time>2026-07-23T19:03:22.000Z</time></trkpt>
        <trkpt lat="29.564243" lon="103.421393"><ele>805.08875</ele><time>2026-07-23T19:03:24.000Z</time></trkpt>
        <trkpt lat="29.564288" lon="103.42138"><ele>805.60565</ele><time>2026-07-23T19:03:32.000Z</time></trkpt>
        <trkpt lat="29.564312" lon="103.421374"><ele>807.14624</ele><time>2026-07-23T19:03:34.000Z</time></trkpt>
        <trkpt lat="29.564328" lon="103.42137"><ele>806.97186</ele><time>2026-07-23T19:03:36.000Z</time></trkpt>
        <trkpt lat="29.564343" lon="103.421366"><ele>807.1359</ele><time>2026-07-23T19:03:38.000Z</time></trkpt>
        <trkpt lat="29.564359" lon="103.421362"><ele>807.0198</ele><time>2026-07-23T19:03:40.000Z</time></trkpt>
        <trkpt lat="29.564377" lon="103.421358"><ele>806.4014</ele><time>2026-07-23T19:03:42.000Z</time></trkpt>
        <trkpt lat="29.56439" lon="103.421356"><ele>806.4975</ele><time>2026-07-23T19:03:44.000Z</time></trkpt>
        <trkpt lat="29.564404" lon="103.421353"><ele>806.74756</ele><time>2026-07-23T19:03:46.000Z</time></trkpt>
        <trkpt lat="29.564421" lon="103.421349"><ele>806.95526</ele><time>2026-07-23T19:03:48.000Z</time></trkpt>
        <trkpt lat="29.564435" lon="103.421347"><ele>807.3243</ele><time>2026-07-23T19:03:50.000Z</time></trkpt>
        <trkpt lat="29.564451" lon="103.421344"><ele>808.12213</ele><time>2026-07-23T19:03:52.000Z</time></trkpt>
        <trkpt lat="29.564466" lon="103.421339"><ele>808.30804</ele><time>2026-07-23T19:03:54.000Z</time></trkpt>
        <trkpt lat="29.564477" lon="103.421332"><ele>808.6936</ele><time>2026-07-23T19:03:56.000Z</time></trkpt>
        <trkpt lat="29.564485" lon="103.421323"><ele>808.3021</ele><time>2026-07-23T19:03:58.000Z</time></trkpt>
        <trkpt lat="29.564493" lon="103.421311"><ele>807.75104</ele><time>2026-07-23T19:04:00.000Z</time></trkpt>
        <trkpt lat="29.564498" lon="103.421299"><ele>808.3316</ele><time>2026-07-23T19:04:02.000Z</time></trkpt>
        <trkpt lat="29.564501" lon="103.421291"><ele>808.8148</ele><time>2026-07-23T19:04:04.000Z</time></trkpt>
        <trkpt lat="29.564506" lon="103.421284"><ele>808.96216</ele><time>2026-07-23T19:04:06.000Z</time></trkpt>
        <trkpt lat="29.56452" lon="103.42127"><ele>808.67267</ele><time>2026-07-23T19:04:10.000Z</time></trkpt>
        <trkpt lat="29.564527" lon="103.421267"><ele>808.9148</ele><time>2026-07-23T19:04:12.000Z</time></trkpt>
        <trkpt lat="29.564531" lon="103.421262"><ele>809.68823</ele><time>2026-07-23T19:04:14.000Z</time></trkpt>
        <trkpt lat="29.564548" lon="103.421246"><ele>811.9403</ele><time>2026-07-23T19:04:20.000Z</time></trkpt>
        <trkpt lat="29.564559" lon="103.421236"><ele>812.2327</ele><time>2026-07-23T19:04:22.000Z</time></trkpt>
        <trkpt lat="29.564576" lon="103.421225"><ele>811.8805</ele><time>2026-07-23T19:04:24.000Z</time></trkpt>
        <trkpt lat="29.564593" lon="103.421215"><ele>812.5878</ele><time>2026-07-23T19:04:26.000Z</time></trkpt>
        <trkpt lat="29.564604" lon="103.421207"><ele>813.267</ele><time>2026-07-23T19:04:28.000Z</time></trkpt>
        <trkpt lat="29.564605" lon="103.421201"><ele>813.4412</ele><time>2026-07-23T19:04:30.000Z</time></trkpt>
        <trkpt lat="29.564614" lon="103.421175"><ele>812.98846</ele><time>2026-07-23T19:04:34.000Z</time></trkpt>
        <trkpt lat="29.564621" lon="103.421157"><ele>812.6704</ele><time>2026-07-23T19:04:36.000Z</time></trkpt>
        <trkpt lat="29.564629" lon="103.421143"><ele>812.4052</ele><time>2026-07-23T19:04:38.000Z</time></trkpt>
        <trkpt lat="29.564635" lon="103.421134"><ele>812.9958</ele><time>2026-07-23T19:04:40.000Z</time></trkpt>
        <trkpt lat="29.564642" lon="103.421128"><ele>813.36237</ele><time>2026-07-23T19:04:42.000Z</time></trkpt>
        <trkpt lat="29.564652" lon="103.421127"><ele>813.284</ele><time>2026-07-23T19:04:46.000Z</time></trkpt>
        <trkpt lat="29.564671" lon="103.421129"><ele>813.0036</ele><time>2026-07-23T19:04:48.000Z</time></trkpt>
        <trkpt lat="29.564674" lon="103.421131"><ele>813.22534</ele><time>2026-07-23T19:04:52.000Z</time></trkpt>
        <trkpt lat="29.564686" lon="103.421138"><ele>813.036</ele><time>2026-07-23T19:04:54.000Z</time></trkpt>
        <trkpt lat="29.5647" lon="103.421151"><ele>813.2394</ele><time>2026-07-23T19:04:56.000Z</time></trkpt>
        <trkpt lat="29.564716" lon="103.421169"><ele>813.4856</ele><time>2026-07-23T19:04:58.000Z</time></trkpt>
        <trkpt lat="29.56473" lon="103.421185"><ele>813.19855</ele><time>2026-07-23T19:05:00.000Z</time></trkpt>
        <trkpt lat="29.564742" lon="103.421201"><ele>813.1456</ele><time>2026-07-23T19:05:02.000Z</time></trkpt>
        <trkpt lat="29.564752" lon="103.421212"><ele>813.4072</ele><time>2026-07-23T19:05:04.000Z</time></trkpt>
        <trkpt lat="29.564758" lon="103.421217"><ele>813.35535</ele><time>2026-07-23T19:05:06.000Z</time></trkpt>
        <trkpt lat="29.564764" lon="103.421221"><ele>813.04047</ele><time>2026-07-23T19:05:08.000Z</time></trkpt>
        <trkpt lat="29.564777" lon="103.421233"><ele>813.0611</ele><time>2026-07-23T19:05:12.000Z</time></trkpt>
        <trkpt lat="29.564792" lon="103.421246"><ele>814.0869</ele><time>2026-07-23T19:05:14.000Z</time></trkpt>
        <trkpt lat="29.564792" lon="103.421248"><ele>814.27844</ele><time>2026-07-23T19:05:16.000Z</time></trkpt>
        <trkpt lat="29.564798" lon="103.421259"><ele>815.9997</ele><time>2026-07-23T19:05:20.000Z</time></trkpt>
        <trkpt lat="29.564807" lon="103.421273"><ele>815.98535</ele><time>2026-07-23T19:05:22.000Z</time></trkpt>
        <trkpt lat="29.564821" lon="103.421287"><ele>815.69543</ele><time>2026-07-23T19:05:24.000Z</time></trkpt>
        <trkpt lat="29.564835" lon="103.421296"><ele>816.526</ele><time>2026-07-23T19:05:26.000Z</time></trkpt>
        <trkpt lat="29.564845" lon="103.421301"><ele>816.61084</ele><time>2026-07-23T19:05:28.000Z</time></trkpt>
        <trkpt lat="29.564857" lon="103.421308"><ele>816.8815</ele><time>2026-07-23T19:05:30.000Z</time></trkpt>
        <trkpt lat="29.564861" lon="103.421315"><ele>816.879</ele><time>2026-07-23T19:05:32.000Z</time></trkpt>
        <trkpt lat="29.564865" lon="103.42133"><ele>818.3595</ele><time>2026-07-23T19:05:36.000Z</time></trkpt>
        <trkpt lat="29.564872" lon="103.42135"><ele>818.18964</ele><time>2026-07-23T19:05:38.000Z</time></trkpt>
        <trkpt lat="29.564872" lon="103.421351"><ele>818.2236</ele><time>2026-07-23T19:05:40.000Z</time></trkpt>
        <trkpt lat="29.56488" lon="103.421363"><ele>817.71155</ele><time>2026-07-23T19:05:46.000Z</time></trkpt>
        <trkpt lat="29.564892" lon="103.421378"><ele>818.9851</ele><time>2026-07-23T19:05:50.000Z</time></trkpt>
        <trkpt lat="29.564893" lon="103.421377"><ele>819.07086</ele><time>2026-07-23T19:05:52.000Z</time></trkpt>
        <trkpt lat="29.56491" lon="103.421365"><ele>818.7977</ele><time>2026-07-23T19:05:54.000Z</time></trkpt>
        <trkpt lat="29.564913" lon="103.421365"><ele>817.8583</ele><time>2026-07-23T19:05:58.000Z</time></trkpt>
        <trkpt lat="29.56492" lon="103.421369"><ele>818.6115</ele><time>2026-07-23T19:06:00.000Z</time></trkpt>
        <trkpt lat="29.564944" lon="103.42138"><ele>819.5339</ele><time>2026-07-23T19:06:04.000Z</time></trkpt>
        <trkpt lat="29.56495" lon="103.42138"><ele>819.38885</ele><time>2026-07-23T19:06:06.000Z</time></trkpt>
        <trkpt lat="29.564952" lon="103.421378"><ele>820.0712</ele><time>2026-07-23T19:06:08.000Z</time></trkpt>
        <trkpt lat="29.564968" lon="103.421368"><ele>822.83264</ele><time>2026-07-23T19:06:18.000Z</time></trkpt>
        <trkpt lat="29.56497" lon="103.421368"><ele>822.35846</ele><time>2026-07-23T19:06:20.000Z</time></trkpt>
        <trkpt lat="29.564973" lon="103.421368"><ele>822.21625</ele><time>2026-07-23T19:06:22.000Z</time></trkpt>
        <trkpt lat="29.56503" lon="103.421353"><ele>821.2027</ele><time>2026-07-23T19:06:43.000Z</time></trkpt>
        <trkpt lat="29.565087" lon="103.421331"><ele>822.6262</ele><time>2026-07-23T19:06:58.000Z</time></trkpt>
        <trkpt lat="29.565114" lon="103.421321"><ele>822.09204</ele><time>2026-07-23T19:07:01.000Z</time></trkpt>
        <trkpt lat="29.565114" lon="103.421321"><ele>821.84814</ele><time>2026-07-23T19:07:03.000Z</time></trkpt>
        <trkpt lat="29.565115" lon="103.421321"><ele>822.63336</ele><time>2026-07-23T19:07:05.000Z</time></trkpt>
        <trkpt lat="29.56514" lon="103.421314"><ele>825.22815</ele><time>2026-07-23T19:07:09.000Z</time></trkpt>
        <trkpt lat="29.565153" lon="103.421311"><ele>826.2437</ele><time>2026-07-23T19:07:11.000Z</time></trkpt>
        <trkpt lat="29.565161" lon="103.421308"><ele>826.4548</ele><time>2026-07-23T19:07:13.000Z</time></trkpt>
        <trkpt lat="29.565167" lon="103.421304"><ele>827.3858</ele><time>2026-07-23T19:07:15.000Z</time></trkpt>
        <trkpt lat="29.565178" lon="103.421298"><ele>828.5431</ele><time>2026-07-23T19:07:19.000Z</time></trkpt>
        <trkpt lat="29.565185" lon="103.421294"><ele>827.5031</ele><time>2026-07-23T19:07:21.000Z</time></trkpt>
        <trkpt lat="29.56519" lon="103.42129"><ele>827.8957</ele><time>2026-07-23T19:07:23.000Z</time></trkpt>
        <trkpt lat="29.565199" lon="103.421286"><ele>829.3399</ele><time>2026-07-23T19:07:27.000Z</time></trkpt>
        <trkpt lat="29.565213" lon="103.421279"><ele>829.50256</ele><time>2026-07-23T19:07:29.000Z</time></trkpt>
        <trkpt lat="29.565214" lon="103.421278"><ele>829.9359</ele><time>2026-07-23T19:07:31.000Z</time></trkpt>
        <trkpt lat="29.565226" lon="103.421273"><ele>831.86676</ele><time>2026-07-23T19:07:39.000Z</time></trkpt>
        <trkpt lat="29.565261" lon="103.42126"><ele>831.3642</ele><time>2026-07-23T19:07:55.000Z</time></trkpt>
        <trkpt lat="29.565337" lon="103.421238"><ele>834.9762</ele><time>2026-07-23T19:08:11.000Z</time></trkpt>
      </trkseg>
      <trkseg>
        <trkpt lat="29.56536" lon="103.421247"><ele>838.54755</ele><time>2026-07-23T19:28:13.000Z</time></trkpt>
        <trkpt lat="29.5654" lon="103.4212"><ele>832.75476</ele><time>2026-07-23T19:28:39.000Z</time></trkpt>
        <trkpt lat="29.565412" lon="103.421199"><ele>833.7716</ele><time>2026-07-23T19:28:41.000Z</time></trkpt>
        <trkpt lat="29.565413" lon="103.421198"><ele>834.53766</ele><time>2026-07-23T19:28:43.000Z</time></trkpt>
        <trkpt lat="29.565446" lon="103.421185"><ele>835.0626</ele><time>2026-07-23T19:28:48.000Z</time></trkpt>
        <trkpt lat="29.565478" lon="103.421171"><ele>835.72797</ele><time>2026-07-23T19:28:50.000Z</time></trkpt>
        <trkpt lat="29.565506" lon="103.421157"><ele>834.8557</ele><time>2026-07-23T19:28:52.000Z</time></trkpt>
        <trkpt lat="29.565533" lon="103.421142"><ele>834.81476</ele><time>2026-07-23T19:28:54.000Z</time></trkpt>
        <trkpt lat="29.565557" lon="103.421129"><ele>834.80194</ele><time>2026-07-23T19:28:56.000Z</time></trkpt>
        <trkpt lat="29.565584" lon="103.421117"><ele>834.7001</ele><time>2026-07-23T19:28:58.000Z</time></trkpt>
        <trkpt lat="29.565607" lon="103.421107"><ele>834.79517</ele><time>2026-07-23T19:29:00.000Z</time></trkpt>
        <trkpt lat="29.565627" lon="103.421101"><ele>833.52234</ele><time>2026-07-23T19:29:02.000Z</time></trkpt>
        <trkpt lat="29.565645" lon="103.421098"><ele>833.0711</ele><time>2026-07-23T19:29:04.000Z</time></trkpt>
        <trkpt lat="29.565661" lon="103.421099"><ele>833.6879</ele><time>2026-07-23T19:29:06.000Z</time></trkpt>
        <trkpt lat="29.565681" lon="103.421103"><ele>833.10706</ele><time>2026-07-23T19:29:08.000Z</time></trkpt>
        <trkpt lat="29.565693" lon="103.421108"><ele>834.8548</ele><time>2026-07-23T19:29:10.000Z</time></trkpt>
        <trkpt lat="29.565706" lon="103.421116"><ele>836.7732</ele><time>2026-07-23T19:29:12.000Z</time></trkpt>
        <trkpt lat="29.565718" lon="103.421122"><ele>837.2993</ele><time>2026-07-23T19:29:14.000Z</time></trkpt>
        <trkpt lat="29.565733" lon="103.42113"><ele>837.8132</ele><time>2026-07-23T19:29:16.000Z</time></trkpt>
        <trkpt lat="29.56575" lon="103.421137"><ele>837.2904</ele><time>2026-07-23T19:29:18.000Z</time></trkpt>
        <trkpt lat="29.565771" lon="103.421143"><ele>837.02734</ele><time>2026-07-23T19:29:20.000Z</time></trkpt>
        <trkpt lat="29.565792" lon="103.42115"><ele>837.8146</ele><time>2026-07-23T19:29:22.000Z</time></trkpt>
        <trkpt lat="29.565811" lon="103.421153"><ele>835.8821</ele><time>2026-07-23T19:29:24.000Z</time></trkpt>
        <trkpt lat="29.565827" lon="103.421153"><ele>836.16455</ele><time>2026-07-23T19:29:26.000Z</time></trkpt>
        <trkpt lat="29.565845" lon="103.421148"><ele>837.7815</ele><time>2026-07-23T19:29:28.000Z</time></trkpt>
        <trkpt lat="29.565866" lon="103.421143"><ele>838.3561</ele><time>2026-07-23T19:29:30.000Z</time></trkpt>
        <trkpt lat="29.565885" lon="103.42114"><ele>838.9497</ele><time>2026-07-23T19:29:32.000Z</time></trkpt>
        <trkpt lat="29.565903" lon="103.421139"><ele>839.8762</ele><time>2026-07-23T19:29:34.000Z</time></trkpt>
        <trkpt lat="29.565914" lon="103.42114"><ele>840.9748</ele><time>2026-07-23T19:29:36.000Z</time></trkpt>
        <trkpt lat="29.565929" lon="103.421141"><ele>841.69653</ele><time>2026-07-23T19:29:38.000Z</time></trkpt>
        <trkpt lat="29.565941" lon="103.421143"><ele>840.9742</ele><time>2026-07-23T19:29:40.000Z</time></trkpt>
        <trkpt lat="29.565951" lon="103.421146"><ele>841.3515</ele><time>2026-07-23T19:29:42.000Z</time></trkpt>
        <trkpt lat="29.565962" lon="103.421151"><ele>841.65173</ele><time>2026-07-23T19:29:44.000Z</time></trkpt>
        <trkpt lat="29.56597" lon="103.421153"><ele>841.7915</ele><time>2026-07-23T19:29:46.000Z</time></trkpt>
        <trkpt lat="29.565976" lon="103.421153"><ele>842.33606</ele><time>2026-07-23T19:29:50.000Z</time></trkpt>
        <trkpt lat="29.565993" lon="103.421154"><ele>843.1995</ele><time>2026-07-23T19:29:54.000Z</time></trkpt>
        <trkpt lat="29.566" lon="103.421155"><ele>843.3813</ele><time>2026-07-23T19:29:56.000Z</time></trkpt>
        <trkpt lat="29.566008" lon="103.421157"><ele>843.76056</ele><time>2026-07-23T19:29:58.000Z</time></trkpt>
        <trkpt lat="29.566022" lon="103.421157"><ele>843.6309</ele><time>2026-07-23T19:30:00.000Z</time></trkpt>
        <trkpt lat="29.566036" lon="103.421156"><ele>844.2284</ele><time>2026-07-23T19:30:06.000Z</time></trkpt>
        <trkpt lat="29.566052" lon="103.421155"><ele>844.80884</ele><time>2026-07-23T19:30:08.000Z</time></trkpt>
        <trkpt lat="29.566068" lon="103.421152"><ele>846.064</ele><time>2026-07-23T19:30:10.000Z</time></trkpt>
        <trkpt lat="29.566079" lon="103.42115"><ele>845.44543</ele><time>2026-07-23T19:30:12.000Z</time></trkpt>
        <trkpt lat="29.566092" lon="103.421146"><ele>844.84283</ele><time>2026-07-23T19:30:14.000Z</time></trkpt>
        <trkpt lat="29.566105" lon="103.421144"><ele>844.9244</ele><time>2026-07-23T19:30:16.000Z</time></trkpt>
        <trkpt lat="29.566117" lon="103.421141"><ele>845.6823</ele><time>2026-07-23T19:30:18.000Z</time></trkpt>
        <trkpt lat="29.566123" lon="103.42114"><ele>845.3652</ele><time>2026-07-23T19:30:20.000Z</time></trkpt>
        <trkpt lat="29.566132" lon="103.42113"><ele>845.0778</ele><time>2026-07-23T19:30:24.000Z</time></trkpt>
        <trkpt lat="29.566141" lon="103.421118"><ele>844.2132</ele><time>2026-07-23T19:30:26.000Z</time></trkpt>
        <trkpt lat="29.566142" lon="103.421118"><ele>844.30426</ele><time>2026-07-23T19:30:28.000Z</time></trkpt>
        <trkpt lat="29.566161" lon="103.421111"><ele>842.82324</ele><time>2026-07-23T19:30:32.000Z</time></trkpt>
        <trkpt lat="29.566176" lon="103.421102"><ele>843.0809</ele><time>2026-07-23T19:30:34.000Z</time></trkpt>
        <trkpt lat="29.566192" lon="103.421089"><ele>842.9646</ele><time>2026-07-23T19:30:36.000Z</time></trkpt>
        <trkpt lat="29.566203" lon="103.421074"><ele>842.7169</ele><time>2026-07-23T19:30:38.000Z</time></trkpt>
        <trkpt lat="29.566212" lon="103.421055"><ele>842.4545</ele><time>2026-07-23T19:30:40.000Z</time></trkpt>
        <trkpt lat="29.566219" lon="103.421037"><ele>842.4412</ele><time>2026-07-23T19:30:42.000Z</time></trkpt>
        <trkpt lat="29.566228" lon="103.421017"><ele>843.65625</ele><time>2026-07-23T19:30:44.000Z</time></trkpt>
        <trkpt lat="29.56624" lon="103.421"><ele>844.61414</ele><time>2026-07-23T19:30:46.000Z</time></trkpt>
        <trkpt lat="29.566252" lon="103.420982"><ele>844.06396</ele><time>2026-07-23T19:30:48.000Z</time></trkpt>
        <trkpt lat="29.566264" lon="103.420961"><ele>846.3336</ele><time>2026-07-23T19:30:50.000Z</time></trkpt>
        <trkpt lat="29.566272" lon="103.420941"><ele>846.4649</ele><time>2026-07-23T19:30:52.000Z</time></trkpt>
        <trkpt lat="29.566277" lon="103.420924"><ele>846.22815</ele><time>2026-07-23T19:30:54.000Z</time></trkpt>
        <trkpt lat="29.56628" lon="103.420908"><ele>846.4771</ele><time>2026-07-23T19:30:56.000Z</time></trkpt>
        <trkpt lat="29.566281" lon="103.420893"><ele>846.7618</ele><time>2026-07-23T19:30:58.000Z</time></trkpt>
        <trkpt lat="29.566281" lon="103.420875"><ele>847.9569</ele><time>2026-07-23T19:31:00.000Z</time></trkpt>
        <trkpt lat="29.566279" lon="103.420859"><ele>846.784</ele><time>2026-07-23T19:31:02.000Z</time></trkpt>
        <trkpt lat="29.56628" lon="103.420845"><ele>844.3072</ele><time>2026-07-23T19:31:04.000Z</time></trkpt>
        <trkpt lat="29.566283" lon="103.420829"><ele>845.9352</ele><time>2026-07-23T19:31:06.000Z</time></trkpt>
        <trkpt lat="29.566287" lon="103.420808"><ele>846.343</ele><time>2026-07-23T19:31:08.000Z</time></trkpt>
        <trkpt lat="29.566291" lon="103.420786"><ele>843.3144</ele><time>2026-07-23T19:31:10.000Z</time></trkpt>
        <trkpt lat="29.566295" lon="103.420767"><ele>842.74817</ele><time>2026-07-23T19:31:12.000Z</time></trkpt>
        <trkpt lat="29.566301" lon="103.420752"><ele>843.29834</ele><time>2026-07-23T19:31:14.000Z</time></trkpt>
        <trkpt lat="29.5663" lon="103.42075"><ele>843.3117</ele><time>2026-07-23T19:31:16.000Z</time></trkpt>
        <trkpt lat="29.566325" lon="103.420782"><ele>844.43555</ele><time>2026-07-23T19:31:26.000Z</time></trkpt>
        <trkpt lat="29.566329" lon="103.42079"><ele>844.41974</ele><time>2026-07-23T19:31:28.000Z</time></trkpt>
        <trkpt lat="29.566329" lon="103.420794"><ele>844.41974</ele><time>2026-07-23T19:31:30.000Z</time></trkpt>
        <trkpt lat="29.566335" lon="103.420741"><ele>843.4744</ele><time>2026-07-23T19:31:52.000Z</time></trkpt>
        <trkpt lat="29.566338" lon="103.420716"><ele>845.5513</ele><time>2026-07-23T19:31:54.000Z</time></trkpt>
        <trkpt lat="29.566338" lon="103.420714"><ele>845.00586</ele><time>2026-07-23T19:31:56.000Z</time></trkpt>
        <trkpt lat="29.566351" lon="103.420667"><ele>844.755</ele><time>2026-07-23T19:31:59.000Z</time></trkpt>
        <trkpt lat="29.566351" lon="103.420667"><ele>843.6872</ele><time>2026-07-23T19:32:01.000Z</time></trkpt>
        <trkpt lat="29.566351" lon="103.42066"><ele>844.00024</ele><time>2026-07-23T19:32:03.000Z</time></trkpt>
        <trkpt lat="29.566358" lon="103.420592"><ele>844.2203</ele><time>2026-07-23T19:32:07.000Z</time></trkpt>
        <trkpt lat="29.566361" lon="103.420554"><ele>844.721</ele><time>2026-07-23T19:32:09.000Z</time></trkpt>
        <trkpt lat="29.566367" lon="103.42052"><ele>844.74744</ele><time>2026-07-23T19:32:11.000Z</time></trkpt>
        <trkpt lat="29.566374" lon="103.420497"><ele>844.68604</ele><time>2026-07-23T19:32:13.000Z</time></trkpt>
        <trkpt lat="29.56638" lon="103.420483"><ele>845.2119</ele><time>2026-07-23T19:32:15.000Z</time></trkpt>
        <trkpt lat="29.566384" lon="103.420471"><ele>845.57306</ele><time>2026-07-23T19:32:17.000Z</time></trkpt>
        <trkpt lat="29.566388" lon="103.420462"><ele>845.44476</ele><time>2026-07-23T19:32:19.000Z</time></trkpt>
        <trkpt lat="29.566393" lon="103.420451"><ele>845.7651</ele><time>2026-07-23T19:32:23.000Z</time></trkpt>
        <trkpt lat="29.566396" lon="103.420446"><ele>845.04956</ele><time>2026-07-23T19:32:25.000Z</time></trkpt>
        <trkpt lat="29.566403" lon="103.42043"><ele>845.56396</ele><time>2026-07-23T19:32:27.000Z</time></trkpt>
        <trkpt lat="29.566408" lon="103.420425"><ele>844.5897</ele><time>2026-07-23T19:32:33.000Z</time></trkpt>
        <trkpt lat="29.566422" lon="103.42041"><ele>844.13226</ele><time>2026-07-23T19:32:35.000Z</time></trkpt>
        <trkpt lat="29.566423" lon="103.420408"><ele>844.26337</ele><time>2026-07-23T19:32:37.000Z</time></trkpt>
        <trkpt lat="29.566424" lon="103.420407"><ele>844.3551</ele><time>2026-07-23T19:32:39.000Z</time></trkpt>
        <trkpt lat="29.566448" lon="103.420375"><ele>843.1989</ele><time>2026-07-23T19:32:45.000Z</time></trkpt>
        <trkpt lat="29.566456" lon="103.420364"><ele>842.83655</ele><time>2026-07-23T19:32:47.000Z</time></trkpt>
        <trkpt lat="29.566464" lon="103.420351"><ele>842.67413</ele><time>2026-07-23T19:32:49.000Z</time></trkpt>
        <trkpt lat="29.566472" lon="103.42034"><ele>842.4908</ele><time>2026-07-23T19:32:51.000Z</time></trkpt>
        <trkpt lat="29.566482" lon="103.420326"><ele>842.45166</ele><time>2026-07-23T19:32:53.000Z</time></trkpt>
        <trkpt lat="29.566494" lon="103.42031"><ele>843.50494</ele><time>2026-07-23T19:32:55.000Z</time></trkpt>
        <trkpt lat="29.566505" lon="103.420297"><ele>843.0037</ele><time>2026-07-23T19:32:57.000Z</time></trkpt>
        <trkpt lat="29.566518" lon="103.420283"><ele>842.93964</ele><time>2026-07-23T19:32:59.000Z</time></trkpt>
        <trkpt lat="29.56653" lon="103.420267"><ele>844.5313</ele><time>2026-07-23T19:33:01.000Z</time></trkpt>
        <trkpt lat="29.566542" lon="103.42025"><ele>844.20026</ele><time>2026-07-23T19:33:03.000Z</time></trkpt>
        <trkpt lat="29.566554" lon="103.420232"><ele>844.8632</ele><time>2026-07-23T19:33:05.000Z</time></trkpt>
        <trkpt lat="29.566566" lon="103.420213"><ele>846.27563</ele><time>2026-07-23T19:33:07.000Z</time></trkpt>
        <trkpt lat="29.566578" lon="103.420192"><ele>846.53064</ele><time>2026-07-23T19:33:09.000Z</time></trkpt>
        <trkpt lat="29.566588" lon="103.420174"><ele>846.2925</ele><time>2026-07-23T19:33:11.000Z</time></trkpt>
        <trkpt lat="29.566601" lon="103.420154"><ele>847.8057</ele><time>2026-07-23T19:33:13.000Z</time></trkpt>
        <trkpt lat="29.566611" lon="103.420134"><ele>848.0049</ele><time>2026-07-23T19:33:15.000Z</time></trkpt>
        <trkpt lat="29.566622" lon="103.420118"><ele>848.2963</ele><time>2026-07-23T19:33:17.000Z</time></trkpt>
        <trkpt lat="29.566637" lon="103.420101"><ele>847.6597</ele><time>2026-07-23T19:33:19.000Z</time></trkpt>
        <trkpt lat="29.566651" lon="103.420084"><ele>847.0492</ele><time>2026-07-23T19:33:21.000Z</time></trkpt>
        <trkpt lat="29.56666" lon="103.420068"><ele>847.0998</ele><time>2026-07-23T19:33:23.000Z</time></trkpt>
        <trkpt lat="29.566667" lon="103.420051"><ele>847.7434</ele><time>2026-07-23T19:33:25.000Z</time></trkpt>
        <trkpt lat="29.566668" lon="103.420038"><ele>847.096</ele><time>2026-07-23T19:33:27.000Z</time></trkpt>
        <trkpt lat="29.566667" lon="103.420021"><ele>847.62915</ele><time>2026-07-23T19:33:29.000Z</time></trkpt>
        <trkpt lat="29.566666" lon="103.420005"><ele>847.59973</ele><time>2026-07-23T19:33:31.000Z</time></trkpt>
        <trkpt lat="29.566669" lon="103.419993"><ele>848.3286</ele><time>2026-07-23T19:33:33.000Z</time></trkpt>
        <trkpt lat="29.566675" lon="103.419974"><ele>849.9144</ele><time>2026-07-23T19:33:35.000Z</time></trkpt>
        <trkpt lat="29.566683" lon="103.419952"><ele>850.71576</ele><time>2026-07-23T19:33:37.000Z</time></trkpt>
        <trkpt lat="29.56669" lon="103.41993"><ele>850.22205</ele><time>2026-07-23T19:33:39.000Z</time></trkpt>
        <trkpt lat="29.566697" lon="103.419903"><ele>851.1144</ele><time>2026-07-23T19:33:41.000Z</time></trkpt>
        <trkpt lat="29.566703" lon="103.419877"><ele>851.9486</ele><time>2026-07-23T19:33:43.000Z</time></trkpt>
        <trkpt lat="29.566716" lon="103.41986"><ele>851.64874</ele><time>2026-07-23T19:33:45.000Z</time></trkpt>
        <trkpt lat="29.566725" lon="103.41986"><ele>851.9646</ele><time>2026-07-23T19:33:47.000Z</time></trkpt>
        <trkpt lat="29.566741" lon="103.419867"><ele>852.54474</ele><time>2026-07-23T19:33:49.000Z</time></trkpt>
        <trkpt lat="29.566758" lon="103.419881"><ele>852.95056</ele><time>2026-07-23T19:33:51.000Z</time></trkpt>
        <trkpt lat="29.566766" lon="103.419892"><ele>854.0431</ele><time>2026-07-23T19:33:53.000Z</time></trkpt>
        <trkpt lat="29.566774" lon="103.419904"><ele>855.19867</ele><time>2026-07-23T19:33:55.000Z</time></trkpt>
        <trkpt lat="29.566778" lon="103.419911"><ele>855.422</ele><time>2026-07-23T19:33:57.000Z</time></trkpt>
        <trkpt lat="29.566783" lon="103.419916"><ele>855.5095</ele><time>2026-07-23T19:33:59.000Z</time></trkpt>
        <trkpt lat="29.566799" lon="103.419935"><ele>855.34863</ele><time>2026-07-23T19:34:03.000Z</time></trkpt>
        <trkpt lat="29.566799" lon="103.419935"><ele>855.0872</ele><time>2026-07-23T19:34:05.000Z</time></trkpt>
        <trkpt lat="29.566803" lon="103.419936"><ele>855.312</ele><time>2026-07-23T19:34:09.000Z</time></trkpt>
        <trkpt lat="29.566836" lon="103.419948"><ele>855.96704</ele><time>2026-07-23T19:34:15.000Z</time></trkpt>
        <trkpt lat="29.566836" lon="103.419948"><ele>855.2166</ele><time>2026-07-23T19:34:17.000Z</time></trkpt>
        <trkpt lat="29.566837" lon="103.419948"><ele>854.60986</ele><time>2026-07-23T19:34:19.000Z</time></trkpt>
        <trkpt lat="29.566862" lon="103.419958"><ele>855.2994</ele><time>2026-07-23T19:34:33.000Z</time></trkpt>
        <trkpt lat="29.566864" lon="103.419961"><ele>855.6633</ele><time>2026-07-23T19:34:35.000Z</time></trkpt>
        <trkpt lat="29.566877" lon="103.41997"><ele>855.2645</ele><time>2026-07-23T19:34:37.000Z</time></trkpt>
        <trkpt lat="29.566888" lon="103.419978"><ele>854.53516</ele><time>2026-07-23T19:34:43.000Z</time></trkpt>
        <trkpt lat="29.566901" lon="103.419988"><ele>854.7005</ele><time>2026-07-23T19:34:45.000Z</time></trkpt>
        <trkpt lat="29.566916" lon="103.419998"><ele>854.65027</ele><time>2026-07-23T19:34:47.000Z</time></trkpt>
        <trkpt lat="29.566927" lon="103.420006"><ele>854.69666</ele><time>2026-07-23T19:34:49.000Z</time></trkpt>
        <trkpt lat="29.566937" lon="103.420015"><ele>854.83514</ele><time>2026-07-23T19:34:51.000Z</time></trkpt>
        <trkpt lat="29.566945" lon="103.420022"><ele>854.23444</ele><time>2026-07-23T19:34:53.000Z</time></trkpt>
        <trkpt lat="29.56695" lon="103.420025"><ele>854.0094</ele><time>2026-07-23T19:34:55.000Z</time></trkpt>
        <trkpt lat="29.566953" lon="103.42003"><ele>854.04456</ele><time>2026-07-23T19:34:57.000Z</time></trkpt>
        <trkpt lat="29.566965" lon="103.420044"><ele>853.1057</ele><time>2026-07-23T19:34:59.000Z</time></trkpt>
        <trkpt lat="29.566965" lon="103.420045"><ele>853.51764</ele><time>2026-07-23T19:35:01.000Z</time></trkpt>
        <trkpt lat="29.56697" lon="103.42005"><ele>855.0685</ele><time>2026-07-23T19:35:09.000Z</time></trkpt>
        <trkpt lat="29.566983" lon="103.420063"><ele>856.3089</ele><time>2026-07-23T19:35:15.000Z</time></trkpt>
        <trkpt lat="29.566983" lon="103.420064"><ele>857.20844</ele><time>2026-07-23T19:35:17.000Z</time></trkpt>
        <trkpt lat="29.566989" lon="103.420074"><ele>858.6006</ele><time>2026-07-23T19:35:21.000Z</time></trkpt>
        <trkpt lat="29.566999" lon="103.420095"><ele>858.7157</ele><time>2026-07-23T19:35:29.000Z</time></trkpt>
        <trkpt lat="29.567008" lon="103.420115"><ele>859.18567</ele><time>2026-07-23T19:35:31.000Z</time></trkpt>
        <trkpt lat="29.567008" lon="103.420116"><ele>859.73956</ele><time>2026-07-23T19:35:33.000Z</time></trkpt>
        <trkpt lat="29.567007" lon="103.420121"><ele>860.13226</ele><time>2026-07-23T19:35:35.000Z</time></trkpt>
        <trkpt lat="29.567" lon="103.420165"><ele>859.64996</ele><time>2026-07-23T19:35:39.000Z</time></trkpt>
        <trkpt lat="29.566993" lon="103.420191"><ele>861.28754</ele><time>2026-07-23T19:35:41.000Z</time></trkpt>
        <trkpt lat="29.566986" lon="103.420217"><ele>862.648</ele><time>2026-07-23T19:35:43.000Z</time></trkpt>
        <trkpt lat="29.566982" lon="103.420242"><ele>862.8981</ele><time>2026-07-23T19:35:45.000Z</time></trkpt>
        <trkpt lat="29.566982" lon="103.42026"><ele>861.8215</ele><time>2026-07-23T19:35:47.000Z</time></trkpt>
        <trkpt lat="29.566987" lon="103.420277"><ele>861.413</ele><time>2026-07-23T19:35:49.000Z</time></trkpt>
        <trkpt lat="29.566994" lon="103.420294"><ele>861.5416</ele><time>2026-07-23T19:35:51.000Z</time></trkpt>
        <trkpt lat="29.567002" lon="103.420307"><ele>861.2865</ele><time>2026-07-23T19:35:53.000Z</time></trkpt>
        <trkpt lat="29.567008" lon="103.420321"><ele>862.2313</ele><time>2026-07-23T19:35:55.000Z</time></trkpt>
        <trkpt lat="29.567014" lon="103.420335"><ele>863.0343</ele><time>2026-07-23T19:35:57.000Z</time></trkpt>
        <trkpt lat="29.567019" lon="103.420345"><ele>863.06244</ele><time>2026-07-23T19:35:59.000Z</time></trkpt>
        <trkpt lat="29.567025" lon="103.420351"><ele>863.25256</ele><time>2026-07-23T19:36:01.000Z</time></trkpt>
        <trkpt lat="29.567038" lon="103.420365"><ele>863.575</ele><time>2026-07-23T19:36:05.000Z</time></trkpt>
        <trkpt lat="29.567045" lon="103.42037"><ele>863.6182</ele><time>2026-07-23T19:36:07.000Z</time></trkpt>
        <trkpt lat="29.567052" lon="103.420375"><ele>863.6006</ele><time>2026-07-23T19:36:09.000Z</time></trkpt>
        <trkpt lat="29.567063" lon="103.420382"><ele>863.2941</ele><time>2026-07-23T19:36:11.000Z</time></trkpt>
        <trkpt lat="29.567064" lon="103.420382"><ele>863.2873</ele><time>2026-07-23T19:36:13.000Z</time></trkpt>
        <trkpt lat="29.567073" lon="103.42039"><ele>863.016</ele><time>2026-07-23T19:36:15.000Z</time></trkpt>
        <trkpt lat="29.567083" lon="103.420397"><ele>862.4208</ele><time>2026-07-23T19:36:21.000Z</time></trkpt>
        <trkpt lat="29.5671" lon="103.42041"><ele>862.6215</ele><time>2026-07-23T19:36:23.000Z</time></trkpt>
        <trkpt lat="29.567102" lon="103.420411"><ele>863.38324</ele><time>2026-07-23T19:36:25.000Z</time></trkpt>
        <trkpt lat="29.567102" lon="103.420412"><ele>862.815</ele><time>2026-07-23T19:36:27.000Z</time></trkpt>
        <trkpt lat="29.567126" lon="103.420442"><ele>863.6089</ele><time>2026-07-23T19:36:33.000Z</time></trkpt>
        <trkpt lat="29.567126" lon="103.420442"><ele>864.28186</ele><time>2026-07-23T19:36:35.000Z</time></trkpt>
        <trkpt lat="29.567127" lon="103.420442"><ele>864.9854</ele><time>2026-07-23T19:36:37.000Z</time></trkpt>
        <trkpt lat="29.567154" lon="103.420451"><ele>863.93463</ele><time>2026-07-23T19:36:45.000Z</time></trkpt>
        <trkpt lat="29.567172" lon="103.420458"><ele>864.017</ele><time>2026-07-23T19:36:47.000Z</time></trkpt>
        <trkpt lat="29.567174" lon="103.420458"><ele>863.88403</ele><time>2026-07-23T19:36:49.000Z</time></trkpt>
        <trkpt lat="29.567175" lon="103.420458"><ele>864.68604</ele><time>2026-07-23T19:36:51.000Z</time></trkpt>
        <trkpt lat="29.567214" lon="103.420466"><ele>865.8018</ele><time>2026-07-23T19:36:57.000Z</time></trkpt>
        <trkpt lat="29.567222" lon="103.420467"><ele>865.4464</ele><time>2026-07-23T19:36:59.000Z</time></trkpt>
        <trkpt lat="29.56723" lon="103.420466"><ele>865.12244</ele><time>2026-07-23T19:37:01.000Z</time></trkpt>
        <trkpt lat="29.567238" lon="103.420463"><ele>866.4182</ele><time>2026-07-23T19:37:05.000Z</time></trkpt>
        <trkpt lat="29.567243" lon="103.420461"><ele>867.0884</ele><time>2026-07-23T19:37:07.000Z</time></trkpt>
        <trkpt lat="29.567248" lon="103.420461"><ele>867.45013</ele><time>2026-07-23T19:37:09.000Z</time></trkpt>
        <trkpt lat="29.567262" lon="103.420461"><ele>868.05884</ele><time>2026-07-23T19:37:13.000Z</time></trkpt>
        <trkpt lat="29.567278" lon="103.420461"><ele>868.4059</ele><time>2026-07-23T19:37:15.000Z</time></trkpt>
        <trkpt lat="29.567279" lon="103.420461"><ele>869.3022</ele><time>2026-07-23T19:37:17.000Z</time></trkpt>
        <trkpt lat="29.56729" lon="103.420462"><ele>869.9563</ele><time>2026-07-23T19:37:21.000Z</time></trkpt>
        <trkpt lat="29.567322" lon="103.420467"><ele>871.33185</ele><time>2026-07-23T19:37:25.000Z</time></trkpt>
        <trkpt lat="29.567322" lon="103.420467"><ele>872.28644</ele><time>2026-07-23T19:37:27.000Z</time></trkpt>
        <trkpt lat="29.567325" lon="103.420468"><ele>872.8487</ele><time>2026-07-23T19:37:29.000Z</time></trkpt>
        <trkpt lat="29.56735" lon="103.420474"><ele>872.63544</ele><time>2026-07-23T19:37:33.000Z</time></trkpt>
        <trkpt lat="29.56736" lon="103.420475"><ele>872.85114</ele><time>2026-07-23T19:37:35.000Z</time></trkpt>
        <trkpt lat="29.567367" lon="103.420473"><ele>873.08716</ele><time>2026-07-23T19:37:37.000Z</time></trkpt>
        <trkpt lat="29.567382" lon="103.420469"><ele>873.30884</ele><time>2026-07-23T19:37:41.000Z</time></trkpt>
        <trkpt lat="29.567387" lon="103.420467"><ele>873.7173</ele><time>2026-07-23T19:37:43.000Z</time></trkpt>
        <trkpt lat="29.567392" lon="103.420462"><ele>873.9376</ele><time>2026-07-23T19:37:45.000Z</time></trkpt>
        <trkpt lat="29.5674" lon="103.420451"><ele>873.515</ele><time>2026-07-23T19:37:49.000Z</time></trkpt>
        <trkpt lat="29.567404" lon="103.420445"><ele>873.29865</ele><time>2026-07-23T19:37:51.000Z</time></trkpt>
        <trkpt lat="29.567408" lon="103.420439"><ele>874.4294</ele><time>2026-07-23T19:37:53.000Z</time></trkpt>
        <trkpt lat="29.567419" lon="103.420427"><ele>876.5595</ele><time>2026-07-23T19:37:57.000Z</time></trkpt>
        <trkpt lat="29.567424" lon="103.420424"><ele>877.23364</ele><time>2026-07-23T19:37:59.000Z</time></trkpt>
        <trkpt lat="29.567428" lon="103.420423"><ele>878.224</ele><time>2026-07-23T19:38:01.000Z</time></trkpt>
        <trkpt lat="29.567444" lon="103.420418"><ele>878.62585</ele><time>2026-07-23T19:38:07.000Z</time></trkpt>
        <trkpt lat="29.567449" lon="103.420417"><ele>879.3274</ele><time>2026-07-23T19:38:09.000Z</time></trkpt>
        <trkpt lat="29.567468" lon="103.420415"><ele>878.87744</ele><time>2026-07-23T19:38:11.000Z</time></trkpt>
        <trkpt lat="29.567469" lon="103.420414"><ele>878.6875</ele><time>2026-07-23T19:38:13.000Z</time></trkpt>
        <trkpt lat="29.567475" lon="103.420408"><ele>879.4405</ele><time>2026-07-23T19:38:17.000Z</time></trkpt>
        <trkpt lat="29.567488" lon="103.420396"><ele>880.11633</ele><time>2026-07-23T19:38:21.000Z</time></trkpt>
        <trkpt lat="29.567495" lon="103.420391"><ele>881.0737</ele><time>2026-07-23T19:38:23.000Z</time></trkpt>
        <trkpt lat="29.567502" lon="103.420386"><ele>881.5312</ele><time>2026-07-23T19:38:25.000Z</time></trkpt>
        <trkpt lat="29.56754" lon="103.420366"><ele>882.9899</ele><time>2026-07-23T19:38:42.000Z</time></trkpt>
        <trkpt lat="29.56761" lon="103.420325"><ele>884.84937</ele><time>2026-07-23T19:38:57.000Z</time></trkpt>
        <trkpt lat="29.567633" lon="103.420317"><ele>887.3183</ele><time>2026-07-23T19:39:08.000Z</time></trkpt>
        <trkpt lat="29.567638" lon="103.420316"><ele>887.4577</ele><time>2026-07-23T19:39:10.000Z</time></trkpt>
        <trkpt lat="29.567643" lon="103.420315"><ele>887.8581</ele><time>2026-07-23T19:39:12.000Z</time></trkpt>
        <trkpt lat="29.567659" lon="103.420309"><ele>887.7265</ele><time>2026-07-23T19:39:18.000Z</time></trkpt>
        <trkpt lat="29.567706" lon="103.420291"><ele>887.4037</ele><time>2026-07-23T19:40:11.000Z</time></trkpt>
        <trkpt lat="29.567716" lon="103.420265"><ele>888.9043</ele><time>2026-07-23T19:40:15.000Z</time></trkpt>
        <trkpt lat="29.567716" lon="103.420265"><ele>889.25946</ele><time>2026-07-23T19:40:17.000Z</time></trkpt>
        <trkpt lat="29.567754" lon="103.420256"><ele>890.90857</ele><time>2026-07-23T19:40:25.000Z</time></trkpt>
        <trkpt lat="29.567776" lon="103.42025"><ele>891.7207</ele><time>2026-07-23T19:40:29.000Z</time></trkpt>
        <trkpt lat="29.567776" lon="103.42025"><ele>891.70825</ele><time>2026-07-23T19:40:31.000Z</time></trkpt>
        <trkpt lat="29.567803" lon="103.420235"><ele>892.0826</ele><time>2026-07-23T19:40:37.000Z</time></trkpt>
        <trkpt lat="29.567817" lon="103.420226"><ele>892.3304</ele><time>2026-07-23T19:40:39.000Z</time></trkpt>
        <trkpt lat="29.567831" lon="103.420217"><ele>892.73236</ele><time>2026-07-23T19:40:41.000Z</time></trkpt>
        <trkpt lat="29.567847" lon="103.420209"><ele>892.9464</ele><time>2026-07-23T19:40:43.000Z</time></trkpt>
        <trkpt lat="29.567863" lon="103.420202"><ele>893.697</ele><time>2026-07-23T19:40:45.000Z</time></trkpt>
        <trkpt lat="29.567877" lon="103.420193"><ele>894.9213</ele><time>2026-07-23T19:40:47.000Z</time></trkpt>
        <trkpt lat="29.567886" lon="103.420187"><ele>896.1272</ele><time>2026-07-23T19:40:49.000Z</time></trkpt>
        <trkpt lat="29.56789" lon="103.420182"><ele>896.6897</ele><time>2026-07-23T19:40:51.000Z</time></trkpt>
        <trkpt lat="29.567904" lon="103.420165"><ele>897.08777</ele><time>2026-07-23T19:40:57.000Z</time></trkpt>
        <trkpt lat="29.567908" lon="103.420161"><ele>897.56384</ele><time>2026-07-23T19:40:59.000Z</time></trkpt>
        <trkpt lat="29.567914" lon="103.420156"><ele>898.70013</ele><time>2026-07-23T19:41:01.000Z</time></trkpt>
        <trkpt lat="29.567927" lon="103.420147"><ele>899.0144</ele><time>2026-07-23T19:41:05.000Z</time></trkpt>
        <trkpt lat="29.567939" lon="103.420139"><ele>898.9408</ele><time>2026-07-23T19:41:07.000Z</time></trkpt>
        <trkpt lat="29.56794" lon="103.420138"><ele>899.4928</ele><time>2026-07-23T19:41:09.000Z</time></trkpt>
        <trkpt lat="29.567954" lon="103.420134"><ele>901.51807</ele><time>2026-07-23T19:41:15.000Z</time></trkpt>
        <trkpt lat="29.568007" lon="103.420121"><ele>903.6771</ele><time>2026-07-23T19:41:31.000Z</time></trkpt>
        <trkpt lat="29.568054" lon="103.420107"><ele>905.1317</ele><time>2026-07-23T19:41:47.000Z</time></trkpt>
        <trkpt lat="29.568082" lon="103.420106"><ele>906.03217</ele><time>2026-07-23T19:41:56.000Z</time></trkpt>
        <trkpt lat="29.568094" lon="103.420105"><ele>907.26984</ele><time>2026-07-23T19:41:58.000Z</time></trkpt>
        <trkpt lat="29.568095" lon="103.420104"><ele>906.6777</ele><time>2026-07-23T19:42:00.000Z</time></trkpt>
        <trkpt lat="29.568108" lon="103.420098"><ele>905.57043</ele><time>2026-07-23T19:42:08.000Z</time></trkpt>
        <trkpt lat="29.568123" lon="103.420098"><ele>906.50433</ele><time>2026-07-23T19:42:12.000Z</time></trkpt>
        <trkpt lat="29.568136" lon="103.420098"><ele>906.67645</ele><time>2026-07-23T19:42:14.000Z</time></trkpt>
        <trkpt lat="29.568137" lon="103.420099"><ele>906.1128</ele><time>2026-07-23T19:42:18.000Z</time></trkpt>
        <trkpt lat="29.568162" lon="103.420108"><ele>907.0957</ele><time>2026-07-23T19:42:24.000Z</time></trkpt>
        <trkpt lat="29.568174" lon="103.420107"><ele>908.01874</ele><time>2026-07-23T19:42:26.000Z</time></trkpt>
        <trkpt lat="29.568212" lon="103.420098"><ele>908.273</ele><time>2026-07-23T19:42:41.000Z</time></trkpt>
        <trkpt lat="29.568258" lon="103.420087"><ele>908.99115</ele><time>2026-07-23T19:42:50.000Z</time></trkpt>
        <trkpt lat="29.568258" lon="103.420087"><ele>909.79956</ele><time>2026-07-23T19:42:52.000Z</time></trkpt>
        <trkpt lat="29.568259" lon="103.420087"><ele>910.23035</ele><time>2026-07-23T19:42:54.000Z</time></trkpt>
        <trkpt lat="29.568305" lon="103.420072"><ele>913.774</ele><time>2026-07-23T19:43:08.000Z</time></trkpt>
        <trkpt lat="29.568311" lon="103.420071"><ele>914.0605</ele><time>2026-07-23T19:43:10.000Z</time></trkpt>
        <trkpt lat="29.568316" lon="103.42007"><ele>914.24365</ele><time>2026-07-23T19:43:12.000Z</time></trkpt>
        <trkpt lat="29.568338" lon="103.420065"><ele>914.18134</ele><time>2026-07-23T19:43:20.000Z</time></trkpt>
        <trkpt lat="29.568356" lon="103.420062"><ele>914.3406</ele><time>2026-07-23T19:43:22.000Z</time></trkpt>
        <trkpt lat="29.568357" lon="103.420062"><ele>915.9373</ele><time>2026-07-23T19:43:24.000Z</time></trkpt>
        <trkpt lat="29.568371" lon="103.420065"><ele>916.6176</ele><time>2026-07-23T19:43:28.000Z</time></trkpt>
        <trkpt lat="29.568394" lon="103.420069"><ele>915.5019</ele><time>2026-07-23T19:43:32.000Z</time></trkpt>
        <trkpt lat="29.568402" lon="103.420069"><ele>915.86096</ele><time>2026-07-23T19:43:34.000Z</time></trkpt>
        <trkpt lat="29.568408" lon="103.420067"><ele>916.7098</ele><time>2026-07-23T19:43:36.000Z</time></trkpt>
        <trkpt lat="29.568424" lon="103.420064"><ele>918.20306</ele><time>2026-07-23T19:43:44.000Z</time></trkpt>
        <trkpt lat="29.568428" lon="103.420063"><ele>919.70825</ele><time>2026-07-23T19:43:48.000Z</time></trkpt>
        <trkpt lat="29.568435" lon="103.420064"><ele>919.71985</ele><time>2026-07-23T19:43:54.000Z</time></trkpt>
        <trkpt lat="29.568451" lon="103.420063"><ele>919.762</ele><time>2026-07-23T19:43:58.000Z</time></trkpt>
        <trkpt lat="29.568457" lon="103.420063"><ele>919.87024</ele><time>2026-07-23T19:44:00.000Z</time></trkpt>
        <trkpt lat="29.568465" lon="103.420062"><ele>919.79755</ele><time>2026-07-23T19:44:02.000Z</time></trkpt>
        <trkpt lat="29.568474" lon="103.42006"><ele>920.13116</ele><time>2026-07-23T19:44:04.000Z</time></trkpt>
        <trkpt lat="29.568482" lon="103.42006"><ele>920.7486</ele><time>2026-07-23T19:44:06.000Z</time></trkpt>
        <trkpt lat="29.568501" lon="103.420062"><ele>920.6454</ele><time>2026-07-23T19:44:10.000Z</time></trkpt>
        <trkpt lat="29.568508" lon="103.420064"><ele>920.517</ele><time>2026-07-23T19:44:12.000Z</time></trkpt>
        <trkpt lat="29.568515" lon="103.420066"><ele>920.3136</ele><time>2026-07-23T19:44:14.000Z</time></trkpt>
        <trkpt lat="29.568524" lon="103.420065"><ele>922.581</ele><time>2026-07-23T19:44:18.000Z</time></trkpt>
        <trkpt lat="29.568535" lon="103.420063"><ele>923.7307</ele><time>2026-07-23T19:44:22.000Z</time></trkpt>
        <trkpt lat="29.568538" lon="103.420064"><ele>925.03687</ele><time>2026-07-23T19:44:26.000Z</time></trkpt>
        <trkpt lat="29.568586" lon="103.420076"><ele>925.684</ele><time>2026-07-23T19:44:38.000Z</time></trkpt>
        <trkpt lat="29.568586" lon="103.420076"><ele>925.6938</ele><time>2026-07-23T19:44:40.000Z</time></trkpt>
        <trkpt lat="29.568587" lon="103.420076"><ele>925.91736</ele><time>2026-07-23T19:44:42.000Z</time></trkpt>
        <trkpt lat="29.568606" lon="103.420073"><ele>926.87317</ele><time>2026-07-23T19:44:48.000Z</time></trkpt>
        <trkpt lat="29.56861" lon="103.420073"><ele>926.9318</ele><time>2026-07-23T19:44:50.000Z</time></trkpt>
        <trkpt lat="29.568611" lon="103.420071"><ele>927.1366</ele><time>2026-07-23T19:44:52.000Z</time></trkpt>
        <trkpt lat="29.568581" lon="103.420098"><ele>926.53503</ele><time>2026-07-23T19:45:06.000Z</time></trkpt>
        <trkpt lat="29.568559" lon="103.420102"><ele>926.281</ele><time>2026-07-23T19:45:08.000Z</time></trkpt>
        <trkpt lat="29.568565" lon="103.420091"><ele>925.96075</ele><time>2026-07-23T19:45:23.000Z</time></trkpt>
        <trkpt lat="29.568534" lon="103.420124"><ele>925.2757</ele><time>2026-07-23T19:46:38.000Z</time></trkpt>
      </trkseg>
      <trkseg>
        <trkpt lat="29.569699" lon="103.419362"><ele>930.63293</ele><time>2026-07-23T20:20:10.000Z</time></trkpt>
        <trkpt lat="29.569693" lon="103.419328"><ele>928.9846</ele><time>2026-07-23T20:20:36.000Z</time></trkpt>
        <trkpt lat="29.569696" lon="103.41932"><ele>929.2757</ele><time>2026-07-23T20:20:38.000Z</time></trkpt>
        <trkpt lat="29.569699" lon="103.419314"><ele>929.311</ele><time>2026-07-23T20:20:40.000Z</time></trkpt>
        <trkpt lat="29.569707" lon="103.419301"><ele>928.84436</ele><time>2026-07-23T20:20:46.000Z</time></trkpt>
        <trkpt lat="29.569718" lon="103.419283"><ele>929.00397</ele><time>2026-07-23T20:20:48.000Z</time></trkpt>
        <trkpt lat="29.569719" lon="103.419282"><ele>928.9286</ele><time>2026-07-23T20:20:50.000Z</time></trkpt>
        <trkpt lat="29.569741" lon="103.419255"><ele>929.24164</ele><time>2026-07-23T20:20:54.000Z</time></trkpt>
        <trkpt lat="29.569759" lon="103.419231"><ele>929.4868</ele><time>2026-07-23T20:20:56.000Z</time></trkpt>
        <trkpt lat="29.569773" lon="103.419205"><ele>929.22644</ele><time>2026-07-23T20:20:58.000Z</time></trkpt>
        <trkpt lat="29.569781" lon="103.419181"><ele>931.14966</ele><time>2026-07-23T20:21:00.000Z</time></trkpt>
        <trkpt lat="29.569784" lon="103.419151"><ele>931.05145</ele><time>2026-07-23T20:21:02.000Z</time></trkpt>
        <trkpt lat="29.569782" lon="103.419123"><ele>930.6984</ele><time>2026-07-23T20:21:04.000Z</time></trkpt>
        <trkpt lat="29.569778" lon="103.419095"><ele>930.69666</ele><time>2026-07-23T20:21:06.000Z</time></trkpt>
        <trkpt lat="29.569775" lon="103.419061"><ele>932.01587</ele><time>2026-07-23T20:21:08.000Z</time></trkpt>
        <trkpt lat="29.569774" lon="103.419024"><ele>932.33795</ele><time>2026-07-23T20:21:10.000Z</time></trkpt>
        <trkpt lat="29.569775" lon="103.418988"><ele>933.55676</ele><time>2026-07-23T20:21:12.000Z</time></trkpt>
        <trkpt lat="29.569776" lon="103.418954"><ele>932.6659</ele><time>2026-07-23T20:21:14.000Z</time></trkpt>
        <trkpt lat="29.569779" lon="103.418929"><ele>933.8212</ele><time>2026-07-23T20:21:16.000Z</time></trkpt>
        <trkpt lat="29.569781" lon="103.418906"><ele>933.39075</ele><time>2026-07-23T20:21:18.000Z</time></trkpt>
        <trkpt lat="29.569783" lon="103.418887"><ele>933.83624</ele><time>2026-07-23T20:21:20.000Z</time></trkpt>
        <trkpt lat="29.569784" lon="103.418873"><ele>934.39484</ele><time>2026-07-23T20:21:22.000Z</time></trkpt>
        <trkpt lat="29.569785" lon="103.418855"><ele>934.5149</ele><time>2026-07-23T20:21:24.000Z</time></trkpt>
        <trkpt lat="29.569787" lon="103.418836"><ele>934.3159</ele><time>2026-07-23T20:21:26.000Z</time></trkpt>
        <trkpt lat="29.56979" lon="103.418814"><ele>934.33795</ele><time>2026-07-23T20:21:28.000Z</time></trkpt>
        <trkpt lat="29.569794" lon="103.418789"><ele>933.08496</ele><time>2026-07-23T20:21:30.000Z</time></trkpt>
        <trkpt lat="29.569799" lon="103.418761"><ele>931.7613</ele><time>2026-07-23T20:21:32.000Z</time></trkpt>
        <trkpt lat="29.569802" lon="103.418738"><ele>931.2322</ele><time>2026-07-23T20:21:34.000Z</time></trkpt>
        <trkpt lat="29.569806" lon="103.418715"><ele>931.03143</ele><time>2026-07-23T20:21:36.000Z</time></trkpt>
        <trkpt lat="29.569808" lon="103.418693"><ele>930.09607</ele><time>2026-07-23T20:21:38.000Z</time></trkpt>
        <trkpt lat="29.569809" lon="103.418672"><ele>930.02795</ele><time>2026-07-23T20:21:40.000Z</time></trkpt>
        <trkpt lat="29.569812" lon="103.418652"><ele>931.8461</ele><time>2026-07-23T20:21:42.000Z</time></trkpt>
        <trkpt lat="29.569817" lon="103.418631"><ele>932.72675</ele><time>2026-07-23T20:21:44.000Z</time></trkpt>
        <trkpt lat="29.569822" lon="103.418609"><ele>931.8719</ele><time>2026-07-23T20:21:46.000Z</time></trkpt>
        <trkpt lat="29.569826" lon="103.418587"><ele>931.8664</ele><time>2026-07-23T20:21:48.000Z</time></trkpt>
        <trkpt lat="29.56983" lon="103.418566"><ele>930.7324</ele><time>2026-07-23T20:21:50.000Z</time></trkpt>
        <trkpt lat="29.569834" lon="103.418545"><ele>929.637</ele><time>2026-07-23T20:21:52.000Z</time></trkpt>
        <trkpt lat="29.569836" lon="103.418528"><ele>929.15094</ele><time>2026-07-23T20:21:54.000Z</time></trkpt>
        <trkpt lat="29.569837" lon="103.418513"><ele>929.2737</ele><time>2026-07-23T20:21:56.000Z</time></trkpt>
        <trkpt lat="29.569838" lon="103.418499"><ele>929.2557</ele><time>2026-07-23T20:21:58.000Z</time></trkpt>
        <trkpt lat="29.569838" lon="103.418481"><ele>929.4462</ele><time>2026-07-23T20:22:00.000Z</time></trkpt>
        <trkpt lat="29.569839" lon="103.418462"><ele>930.0507</ele><time>2026-07-23T20:22:02.000Z</time></trkpt>
        <trkpt lat="29.569839" lon="103.418446"><ele>930.0268</ele><time>2026-07-23T20:22:04.000Z</time></trkpt>
        <trkpt lat="29.569837" lon="103.418431"><ele>929.1505</ele><time>2026-07-23T20:22:06.000Z</time></trkpt>
        <trkpt lat="29.569837" lon="103.41842"><ele>928.2285</ele><time>2026-07-23T20:22:08.000Z</time></trkpt>
        <trkpt lat="29.569836" lon="103.418405"><ele>927.4367</ele><time>2026-07-23T20:22:10.000Z</time></trkpt>
        <trkpt lat="29.569834" lon="103.418385"><ele>926.9296</ele><time>2026-07-23T20:22:12.000Z</time></trkpt>
        <trkpt lat="29.569833" lon="103.418365"><ele>924.91455</ele><time>2026-07-23T20:22:14.000Z</time></trkpt>
        <trkpt lat="29.569834" lon="103.418351"><ele>925.3583</ele><time>2026-07-23T20:22:16.000Z</time></trkpt>
        <trkpt lat="29.569839" lon="103.418344"><ele>926.7125</ele><time>2026-07-23T20:22:18.000Z</time></trkpt>
        <trkpt lat="29.569843" lon="103.418337"><ele>927.9496</ele><time>2026-07-23T20:22:22.000Z</time></trkpt>
        <trkpt lat="29.569851" lon="103.418323"><ele>928.78754</ele><time>2026-07-23T20:22:24.000Z</time></trkpt>
        <trkpt lat="29.569851" lon="103.418323"><ele>926.8951</ele><time>2026-07-23T20:22:26.000Z</time></trkpt>
        <trkpt lat="29.569831" lon="103.418293"><ele>927.27594</ele><time>2026-07-23T20:22:28.000Z</time></trkpt>
        <trkpt lat="29.56983" lon="103.418291"><ele>926.26996</ele><time>2026-07-23T20:22:30.000Z</time></trkpt>
        <trkpt lat="29.56983" lon="103.418284"><ele>925.64685</ele><time>2026-07-23T20:22:32.000Z</time></trkpt>
        <trkpt lat="29.569832" lon="103.418261"><ele>926.6592</ele><time>2026-07-23T20:22:34.000Z</time></trkpt>
        <trkpt lat="29.569839" lon="103.418227"><ele>926.7058</ele><time>2026-07-23T20:22:36.000Z</time></trkpt>
        <trkpt lat="29.56985" lon="103.418188"><ele>926.5283</ele><time>2026-07-23T20:22:38.000Z</time></trkpt>
        <trkpt lat="29.569866" lon="103.418154"><ele>926.5939</ele><time>2026-07-23T20:22:40.000Z</time></trkpt>
        <trkpt lat="29.569888" lon="103.41812"><ele>927.9054</ele><time>2026-07-23T20:22:42.000Z</time></trkpt>
        <trkpt lat="29.569909" lon="103.418092"><ele>928.94226</ele><time>2026-07-23T20:22:44.000Z</time></trkpt>
        <trkpt lat="29.569931" lon="103.418066"><ele>930.0389</ele><time>2026-07-23T20:22:46.000Z</time></trkpt>
        <trkpt lat="29.569947" lon="103.418044"><ele>931.3599</ele><time>2026-07-23T20:22:48.000Z</time></trkpt>
        <trkpt lat="29.569954" lon="103.418034"><ele>930.79034</ele><time>2026-07-23T20:22:50.000Z</time></trkpt>
        <trkpt lat="29.569953" lon="103.418032"><ele>931.1033</ele><time>2026-07-23T20:22:52.000Z</time></trkpt>
        <trkpt lat="29.569948" lon="103.418"><ele>930.0971</ele><time>2026-07-23T20:22:58.000Z</time></trkpt>
        <trkpt lat="29.569949" lon="103.418"><ele>928.6145</ele><time>2026-07-23T20:23:00.000Z</time></trkpt>
        <trkpt lat="29.569951" lon="103.417994"><ele>928.0678</ele><time>2026-07-23T20:23:02.000Z</time></trkpt>
        <trkpt lat="29.56996" lon="103.417972"><ele>928.1729</ele><time>2026-07-23T20:23:04.000Z</time></trkpt>
        <trkpt lat="29.569977" lon="103.417935"><ele>929.1738</ele><time>2026-07-23T20:23:06.000Z</time></trkpt>
        <trkpt lat="29.569992" lon="103.417898"><ele>928.0725</ele><time>2026-07-23T20:23:08.000Z</time></trkpt>
        <trkpt lat="29.570007" lon="103.417863"><ele>926.3835</ele><time>2026-07-23T20:23:10.000Z</time></trkpt>
        <trkpt lat="29.570021" lon="103.417833"><ele>926.0496</ele><time>2026-07-23T20:23:12.000Z</time></trkpt>
        <trkpt lat="29.570034" lon="103.417806"><ele>926.60345</ele><time>2026-07-23T20:23:14.000Z</time></trkpt>
        <trkpt lat="29.570041" lon="103.417786"><ele>926.23126</ele><time>2026-07-23T20:23:16.000Z</time></trkpt>
        <trkpt lat="29.570043" lon="103.417768"><ele>926.0322</ele><time>2026-07-23T20:23:18.000Z</time></trkpt>
        <trkpt lat="29.570044" lon="103.417746"><ele>925.1862</ele><time>2026-07-23T20:23:20.000Z</time></trkpt>
        <trkpt lat="29.570045" lon="103.417727"><ele>924.5794</ele><time>2026-07-23T20:23:22.000Z</time></trkpt>
        <trkpt lat="29.570045" lon="103.417713"><ele>924.9369</ele><time>2026-07-23T20:23:24.000Z</time></trkpt>
        <trkpt lat="29.570045" lon="103.417693"><ele>923.4982</ele><time>2026-07-23T20:23:26.000Z</time></trkpt>
        <trkpt lat="29.570045" lon="103.417675"><ele>923.7777</ele><time>2026-07-23T20:23:28.000Z</time></trkpt>
        <trkpt lat="29.570045" lon="103.41766"><ele>924.1969</ele><time>2026-07-23T20:23:30.000Z</time></trkpt>
        <trkpt lat="29.570043" lon="103.417644"><ele>924.5065</ele><time>2026-07-23T20:23:32.000Z</time></trkpt>
        <trkpt lat="29.57004" lon="103.417624"><ele>922.9213</ele><time>2026-07-23T20:23:34.000Z</time></trkpt>
        <trkpt lat="29.570038" lon="103.417604"><ele>922.67377</ele><time>2026-07-23T20:23:36.000Z</time></trkpt>
        <trkpt lat="29.570036" lon="103.417581"><ele>923.09314</ele><time>2026-07-23T20:23:38.000Z</time></trkpt>
        <trkpt lat="29.570035" lon="103.417556"><ele>922.8305</ele><time>2026-07-23T20:23:40.000Z</time></trkpt>
        <trkpt lat="29.570035" lon="103.417525"><ele>922.306</ele><time>2026-07-23T20:23:42.000Z</time></trkpt>
        <trkpt lat="29.570037" lon="103.417492"><ele>923.17285</ele><time>2026-07-23T20:23:44.000Z</time></trkpt>
        <trkpt lat="29.570043" lon="103.417465"><ele>923.61273</ele><time>2026-07-23T20:23:46.000Z</time></trkpt>
        <trkpt lat="29.57005" lon="103.417439"><ele>923.9275</ele><time>2026-07-23T20:23:48.000Z</time></trkpt>
        <trkpt lat="29.570057" lon="103.41741"><ele>925.7451</ele><time>2026-07-23T20:23:50.000Z</time></trkpt>
        <trkpt lat="29.570063" lon="103.417378"><ele>925.84515</ele><time>2026-07-23T20:23:52.000Z</time></trkpt>
        <trkpt lat="29.57007" lon="103.417348"><ele>926.9884</ele><time>2026-07-23T20:23:54.000Z</time></trkpt>
        <trkpt lat="29.570078" lon="103.417324"><ele>927.2268</ele><time>2026-07-23T20:23:56.000Z</time></trkpt>
        <trkpt lat="29.570089" lon="103.417294"><ele>926.765</ele><time>2026-07-23T20:23:58.000Z</time></trkpt>
        <trkpt lat="29.570099" lon="103.417264"><ele>926.33655</ele><time>2026-07-23T20:24:00.000Z</time></trkpt>
        <trkpt lat="29.570107" lon="103.417236"><ele>926.5299</ele><time>2026-07-23T20:24:02.000Z</time></trkpt>
        <trkpt lat="29.570114" lon="103.417209"><ele>928.0222</ele><time>2026-07-23T20:24:04.000Z</time></trkpt>
        <trkpt lat="29.57012" lon="103.41718"><ele>927.3256</ele><time>2026-07-23T20:24:06.000Z</time></trkpt>
        <trkpt lat="29.570127" lon="103.417155"><ele>927.23083</ele><time>2026-07-23T20:24:08.000Z</time></trkpt>
        <trkpt lat="29.570138" lon="103.417136"><ele>928.73267</ele><time>2026-07-23T20:24:10.000Z</time></trkpt>
        <trkpt lat="29.570153" lon="103.417119"><ele>928.1809</ele><time>2026-07-23T20:24:12.000Z</time></trkpt>
        <trkpt lat="29.570173" lon="103.417102"><ele>927.2842</ele><time>2026-07-23T20:24:14.000Z</time></trkpt>
        <trkpt lat="29.570189" lon="103.417093"><ele>927.0233</ele><time>2026-07-23T20:24:16.000Z</time></trkpt>
        <trkpt lat="29.570207" lon="103.417085"><ele>926.58215</ele><time>2026-07-23T20:24:18.000Z</time></trkpt>
        <trkpt lat="29.570227" lon="103.417078"><ele>925.39136</ele><time>2026-07-23T20:24:20.000Z</time></trkpt>
        <trkpt lat="29.570242" lon="103.417075"><ele>926.0656</ele><time>2026-07-23T20:24:22.000Z</time></trkpt>
        <trkpt lat="29.570258" lon="103.417073"><ele>925.6835</ele><time>2026-07-23T20:24:24.000Z</time></trkpt>
        <trkpt lat="29.570277" lon="103.417075"><ele>925.32275</ele><time>2026-07-23T20:24:26.000Z</time></trkpt>
        <trkpt lat="29.570299" lon="103.417079"><ele>926.24713</ele><time>2026-07-23T20:24:28.000Z</time></trkpt>
        <trkpt lat="29.570322" lon="103.417086"><ele>927.4376</ele><time>2026-07-23T20:24:30.000Z</time></trkpt>
        <trkpt lat="29.570337" lon="103.417089"><ele>926.0569</ele><time>2026-07-23T20:24:32.000Z</time></trkpt>
        <trkpt lat="29.570346" lon="103.417088"><ele>925.1017</ele><time>2026-07-23T20:24:34.000Z</time></trkpt>
        <trkpt lat="29.570357" lon="103.417082"><ele>924.3185</ele><time>2026-07-23T20:24:36.000Z</time></trkpt>
        <trkpt lat="29.570364" lon="103.417072"><ele>922.9911</ele><time>2026-07-23T20:24:38.000Z</time></trkpt>
        <trkpt lat="29.57037" lon="103.417057"><ele>921.71545</ele><time>2026-07-23T20:24:40.000Z</time></trkpt>
        <trkpt lat="29.570377" lon="103.417035"><ele>920.56287</ele><time>2026-07-23T20:24:42.000Z</time></trkpt>
        <trkpt lat="29.57038" lon="103.417014"><ele>920.34265</ele><time>2026-07-23T20:24:44.000Z</time></trkpt>
        <trkpt lat="29.570383" lon="103.41699"><ele>919.23944</ele><time>2026-07-23T20:24:46.000Z</time></trkpt>
        <trkpt lat="29.570385" lon="103.416968"><ele>917.7641</ele><time>2026-07-23T20:24:48.000Z</time></trkpt>
        <trkpt lat="29.570385" lon="103.416948"><ele>917.7113</ele><time>2026-07-23T20:24:50.000Z</time></trkpt>
        <trkpt lat="29.570384" lon="103.416925"><ele>917.3254</ele><time>2026-07-23T20:24:52.000Z</time></trkpt>
        <trkpt lat="29.57038" lon="103.416902"><ele>917.14276</ele><time>2026-07-23T20:24:54.000Z</time></trkpt>
        <trkpt lat="29.570375" lon="103.416882"><ele>917.4258</ele><time>2026-07-23T20:24:56.000Z</time></trkpt>
        <trkpt lat="29.570369" lon="103.416862"><ele>917.42847</ele><time>2026-07-23T20:24:58.000Z</time></trkpt>
        <trkpt lat="29.570365" lon="103.416839"><ele>917.1478</ele><time>2026-07-23T20:25:00.000Z</time></trkpt>
        <trkpt lat="29.570363" lon="103.416815"><ele>916.99</ele><time>2026-07-23T20:25:02.000Z</time></trkpt>
        <trkpt lat="29.570364" lon="103.416789"><ele>917.01624</ele><time>2026-07-23T20:25:04.000Z</time></trkpt>
        <trkpt lat="29.570366" lon="103.416759"><ele>916.8104</ele><time>2026-07-23T20:25:06.000Z</time></trkpt>
        <trkpt lat="29.570368" lon="103.41673"><ele>917.31836</ele><time>2026-07-23T20:25:08.000Z</time></trkpt>
        <trkpt lat="29.570371" lon="103.416705"><ele>917.70276</ele><time>2026-07-23T20:25:10.000Z</time></trkpt>
        <trkpt lat="29.570374" lon="103.416683"><ele>917.803</ele><time>2026-07-23T20:25:12.000Z</time></trkpt>
        <trkpt lat="29.570377" lon="103.416662"><ele>918.22815</ele><time>2026-07-23T20:25:14.000Z</time></trkpt>
        <trkpt lat="29.57038" lon="103.41664"><ele>918.9254</ele><time>2026-07-23T20:25:16.000Z</time></trkpt>
        <trkpt lat="29.570383" lon="103.416618"><ele>919.5399</ele><time>2026-07-23T20:25:18.000Z</time></trkpt>
        <trkpt lat="29.570385" lon="103.416599"><ele>919.963</ele><time>2026-07-23T20:25:20.000Z</time></trkpt>
        <trkpt lat="29.570388" lon="103.416575"><ele>920.2085</ele><time>2026-07-23T20:25:22.000Z</time></trkpt>
        <trkpt lat="29.570393" lon="103.416548"><ele>920.57196</ele><time>2026-07-23T20:25:24.000Z</time></trkpt>
        <trkpt lat="29.570399" lon="103.416519"><ele>920.47284</ele><time>2026-07-23T20:25:26.000Z</time></trkpt>
        <trkpt lat="29.570403" lon="103.416494"><ele>921.24664</ele><time>2026-07-23T20:25:28.000Z</time></trkpt>
        <trkpt lat="29.570407" lon="103.416471"><ele>923.50793</ele><time>2026-07-23T20:25:30.000Z</time></trkpt>
        <trkpt lat="29.570412" lon="103.416452"><ele>924.6035</ele><time>2026-07-23T20:25:32.000Z</time></trkpt>
        <trkpt lat="29.570416" lon="103.416435"><ele>923.94507</ele><time>2026-07-23T20:25:34.000Z</time></trkpt>
        <trkpt lat="29.570417" lon="103.416411"><ele>923.4723</ele><time>2026-07-23T20:25:36.000Z</time></trkpt>
        <trkpt lat="29.570415" lon="103.41639"><ele>922.5856</ele><time>2026-07-23T20:25:38.000Z</time></trkpt>
        <trkpt lat="29.570411" lon="103.416374"><ele>922.46924</ele><time>2026-07-23T20:25:40.000Z</time></trkpt>
        <trkpt lat="29.570406" lon="103.416357"><ele>921.22675</ele><time>2026-07-23T20:25:42.000Z</time></trkpt>
        <trkpt lat="29.570402" lon="103.416341"><ele>921.87146</ele><time>2026-07-23T20:25:44.000Z</time></trkpt>
        <trkpt lat="29.5704" lon="103.416328"><ele>922.965</ele><time>2026-07-23T20:25:46.000Z</time></trkpt>
        <trkpt lat="29.5704" lon="103.416313"><ele>922.8906</ele><time>2026-07-23T20:25:48.000Z</time></trkpt>
        <trkpt lat="29.570403" lon="103.416297"><ele>923.3444</ele><time>2026-07-23T20:25:50.000Z</time></trkpt>
        <trkpt lat="29.570411" lon="103.416277"><ele>923.6864</ele><time>2026-07-23T20:25:52.000Z</time></trkpt>
        <trkpt lat="29.570424" lon="103.416258"><ele>923.6463</ele><time>2026-07-23T20:25:54.000Z</time></trkpt>
        <trkpt lat="29.570439" lon="103.416241"><ele>925.12317</ele><time>2026-07-23T20:25:56.000Z</time></trkpt>
        <trkpt lat="29.570455" lon="103.416228"><ele>924.9691</ele><time>2026-07-23T20:25:58.000Z</time></trkpt>
        <trkpt lat="29.570475" lon="103.416213"><ele>924.14307</ele><time>2026-07-23T20:26:00.000Z</time></trkpt>
        <trkpt lat="29.570499" lon="103.4162"><ele>923.54834</ele><time>2026-07-23T20:26:02.000Z</time></trkpt>
        <trkpt lat="29.57052" lon="103.416194"><ele>924.01495</ele><time>2026-07-23T20:26:04.000Z</time></trkpt>
        <trkpt lat="29.570536" lon="103.416192"><ele>923.6705</ele><time>2026-07-23T20:26:06.000Z</time></trkpt>
        <trkpt lat="29.570549" lon="103.416187"><ele>922.2363</ele><time>2026-07-23T20:26:08.000Z</time></trkpt>
        <trkpt lat="29.570559" lon="103.416181"><ele>921.46106</ele><time>2026-07-23T20:26:10.000Z</time></trkpt>
        <trkpt lat="29.570573" lon="103.416173"><ele>921.2547</ele><time>2026-07-23T20:26:12.000Z</time></trkpt>
        <trkpt lat="29.570584" lon="103.416167"><ele>920.2746</ele><time>2026-07-23T20:26:14.000Z</time></trkpt>
        <trkpt lat="29.570596" lon="103.416162"><ele>920.7825</ele><time>2026-07-23T20:26:16.000Z</time></trkpt>
        <trkpt lat="29.570608" lon="103.416157"><ele>921.4053</ele><time>2026-07-23T20:26:18.000Z</time></trkpt>
        <trkpt lat="29.570619" lon="103.416152"><ele>921.544</ele><time>2026-07-23T20:26:20.000Z</time></trkpt>
        <trkpt lat="29.570628" lon="103.416147"><ele>921.70624</ele><time>2026-07-23T20:26:22.000Z</time></trkpt>
        <trkpt lat="29.570634" lon="103.416142"><ele>921.05774</ele><time>2026-07-23T20:26:24.000Z</time></trkpt>
        <trkpt lat="29.570644" lon="103.416133"><ele>921.6297</ele><time>2026-07-23T20:26:26.000Z</time></trkpt>
        <trkpt lat="29.570656" lon="103.416125"><ele>921.41656</ele><time>2026-07-23T20:26:28.000Z</time></trkpt>
        <trkpt lat="29.570667" lon="103.416119"><ele>921.5795</ele><time>2026-07-23T20:26:30.000Z</time></trkpt>
        <trkpt lat="29.570678" lon="103.416114"><ele>921.69574</ele><time>2026-07-23T20:26:32.000Z</time></trkpt>
        <trkpt lat="29.570687" lon="103.416109"><ele>921.529</ele><time>2026-07-23T20:26:34.000Z</time></trkpt>
        <trkpt lat="29.570692" lon="103.416105"><ele>921.28217</ele><time>2026-07-23T20:26:36.000Z</time></trkpt>
        <trkpt lat="29.570698" lon="103.4161"><ele>921.23395</ele><time>2026-07-23T20:26:38.000Z</time></trkpt>
        <trkpt lat="29.570707" lon="103.41609"><ele>921.63385</ele><time>2026-07-23T20:26:42.000Z</time></trkpt>
        <trkpt lat="29.570713" lon="103.416084"><ele>921.3143</ele><time>2026-07-23T20:26:44.000Z</time></trkpt>
        <trkpt lat="29.570718" lon="103.416079"><ele>922.3441</ele><time>2026-07-23T20:26:46.000Z</time></trkpt>
        <trkpt lat="29.570723" lon="103.416073"><ele>922.5617</ele><time>2026-07-23T20:26:48.000Z</time></trkpt>
        <trkpt lat="29.570729" lon="103.416069"><ele>922.9724</ele><time>2026-07-23T20:26:50.000Z</time></trkpt>
        <trkpt lat="29.570736" lon="103.416064"><ele>921.01825</ele><time>2026-07-23T20:26:52.000Z</time></trkpt>
        <trkpt lat="29.570745" lon="103.416058"><ele>921.1853</ele><time>2026-07-23T20:26:56.000Z</time></trkpt>
        <trkpt lat="29.570751" lon="103.416052"><ele>921.9488</ele><time>2026-07-23T20:26:58.000Z</time></trkpt>
        <trkpt lat="29.570766" lon="103.416037"><ele>922.4411</ele><time>2026-07-23T20:27:00.000Z</time></trkpt>
        <trkpt lat="29.570766" lon="103.416035"><ele>923.0078</ele><time>2026-07-23T20:27:02.000Z</time></trkpt>
        <trkpt lat="29.570764" lon="103.416022"><ele>923.11237</ele><time>2026-07-23T20:27:06.000Z</time></trkpt>
        <trkpt lat="29.570757" lon="103.416009"><ele>922.8221</ele><time>2026-07-23T20:27:08.000Z</time></trkpt>
        <trkpt lat="29.570746" lon="103.415993"><ele>922.65674</ele><time>2026-07-23T20:27:10.000Z</time></trkpt>
        <trkpt lat="29.570729" lon="103.415977"><ele>922.43427</ele><time>2026-07-23T20:27:12.000Z</time></trkpt>
        <trkpt lat="29.570716" lon="103.415966"><ele>921.92114</ele><time>2026-07-23T20:27:14.000Z</time></trkpt>
        <trkpt lat="29.570706" lon="103.415955"><ele>921.3638</ele><time>2026-07-23T20:27:16.000Z</time></trkpt>
        <trkpt lat="29.570698" lon="103.415944"><ele>921.5195</ele><time>2026-07-23T20:27:18.000Z</time></trkpt>
        <trkpt lat="29.570686" lon="103.415931"><ele>921.4326</ele><time>2026-07-23T20:27:20.000Z</time></trkpt>
        <trkpt lat="29.570672" lon="103.415916"><ele>921.33344</ele><time>2026-07-23T20:27:22.000Z</time></trkpt>
        <trkpt lat="29.570657" lon="103.4159"><ele>921.5624</ele><time>2026-07-23T20:27:24.000Z</time></trkpt>
        <trkpt lat="29.570643" lon="103.415886"><ele>920.21893</ele><time>2026-07-23T20:27:26.000Z</time></trkpt>
        <trkpt lat="29.570629" lon="103.41587"><ele>918.9246</ele><time>2026-07-23T20:27:28.000Z</time></trkpt>
        <trkpt lat="29.570612" lon="103.415851"><ele>919.4279</ele><time>2026-07-23T20:27:30.000Z</time></trkpt>
        <trkpt lat="29.570593" lon="103.415835"><ele>919.8067</ele><time>2026-07-23T20:27:32.000Z</time></trkpt>
        <trkpt lat="29.570578" lon="103.41583"><ele>919.7455</ele><time>2026-07-23T20:27:34.000Z</time></trkpt>
        <trkpt lat="29.570562" lon="103.415829"><ele>919.25977</ele><time>2026-07-23T20:27:36.000Z</time></trkpt>
        <trkpt lat="29.57054" lon="103.415828"><ele>919.8727</ele><time>2026-07-23T20:27:38.000Z</time></trkpt>
        <trkpt lat="29.57052" lon="103.415824"><ele>919.64935</ele><time>2026-07-23T20:27:40.000Z</time></trkpt>
        <trkpt lat="29.570498" lon="103.415816"><ele>919.3761</ele><time>2026-07-23T20:27:42.000Z</time></trkpt>
        <trkpt lat="29.570485" lon="103.415806"><ele>919.2681</ele><time>2026-07-23T20:27:44.000Z</time></trkpt>
        <trkpt lat="29.570471" lon="103.415789"><ele>919.30945</ele><time>2026-07-23T20:27:46.000Z</time></trkpt>
        <trkpt lat="29.570457" lon="103.415765"><ele>920.21423</ele><time>2026-07-23T20:27:48.000Z</time></trkpt>
        <trkpt lat="29.570444" lon="103.415741"><ele>920.1975</ele><time>2026-07-23T20:27:50.000Z</time></trkpt>
        <trkpt lat="29.570431" lon="103.415717"><ele>920.32007</ele><time>2026-07-23T20:27:52.000Z</time></trkpt>
        <trkpt lat="29.570417" lon="103.415694"><ele>920.6829</ele><time>2026-07-23T20:27:54.000Z</time></trkpt>
        <trkpt lat="29.570402" lon="103.415675"><ele>920.53546</ele><time>2026-07-23T20:27:56.000Z</time></trkpt>
        <trkpt lat="29.570385" lon="103.415657"><ele>919.50726</ele><time>2026-07-23T20:27:58.000Z</time></trkpt>
        <trkpt lat="29.57037" lon="103.415641"><ele>919.1501</ele><time>2026-07-23T20:28:00.000Z</time></trkpt>
        <trkpt lat="29.570353" lon="103.415622"><ele>920.27264</ele><time>2026-07-23T20:28:02.000Z</time></trkpt>
        <trkpt lat="29.570335" lon="103.415604"><ele>921.0482</ele><time>2026-07-23T20:28:04.000Z</time></trkpt>
        <trkpt lat="29.570317" lon="103.415589"><ele>920.637</ele><time>2026-07-23T20:28:06.000Z</time></trkpt>
        <trkpt lat="29.570301" lon="103.41558"><ele>920.2675</ele><time>2026-07-23T20:28:08.000Z</time></trkpt>
        <trkpt lat="29.570284" lon="103.415573"><ele>920.24506</ele><time>2026-07-23T20:28:10.000Z</time></trkpt>
        <trkpt lat="29.570259" lon="103.415566"><ele>921.31305</ele><time>2026-07-23T20:28:12.000Z</time></trkpt>
        <trkpt lat="29.570236" lon="103.415563"><ele>921.3789</ele><time>2026-07-23T20:28:14.000Z</time></trkpt>
        <trkpt lat="29.570217" lon="103.415562"><ele>921.31165</ele><time>2026-07-23T20:28:16.000Z</time></trkpt>
        <trkpt lat="29.570199" lon="103.415563"><ele>921.4976</ele><time>2026-07-23T20:28:18.000Z</time></trkpt>
        <trkpt lat="29.570184" lon="103.415565"><ele>921.6919</ele><time>2026-07-23T20:28:20.000Z</time></trkpt>
        <trkpt lat="29.570171" lon="103.415566"><ele>922.3097</ele><time>2026-07-23T20:28:22.000Z</time></trkpt>
        <trkpt lat="29.570159" lon="103.415566"><ele>923.2196</ele><time>2026-07-23T20:28:24.000Z</time></trkpt>
        <trkpt lat="29.570148" lon="103.415567"><ele>922.92</ele><time>2026-07-23T20:28:26.000Z</time></trkpt>
        <trkpt lat="29.570135" lon="103.415568"><ele>922.573</ele><time>2026-07-23T20:28:28.000Z</time></trkpt>
        <trkpt lat="29.570126" lon="103.415567"><ele>922.8539</ele><time>2026-07-23T20:28:30.000Z</time></trkpt>
        <trkpt lat="29.570113" lon="103.415563"><ele>923.22217</ele><time>2026-07-23T20:28:34.000Z</time></trkpt>
        <trkpt lat="29.570106" lon="103.415558"><ele>923.8718</ele><time>2026-07-23T20:28:36.000Z</time></trkpt>
        <trkpt lat="29.570094" lon="103.415549"><ele>923.685</ele><time>2026-07-23T20:28:38.000Z</time></trkpt>
        <trkpt lat="29.570082" lon="103.415539"><ele>924.31177</ele><time>2026-07-23T20:28:40.000Z</time></trkpt>
        <trkpt lat="29.570069" lon="103.415529"><ele>924.3369</ele><time>2026-07-23T20:28:42.000Z</time></trkpt>
        <trkpt lat="29.57006" lon="103.41552"><ele>923.31476</ele><time>2026-07-23T20:28:44.000Z</time></trkpt>
        <trkpt lat="29.570048" lon="103.415509"><ele>923.6266</ele><time>2026-07-23T20:28:46.000Z</time></trkpt>
        <trkpt lat="29.570037" lon="103.415498"><ele>923.4614</ele><time>2026-07-23T20:28:48.000Z</time></trkpt>
        <trkpt lat="29.570023" lon="103.415486"><ele>923.54095</ele><time>2026-07-23T20:28:50.000Z</time></trkpt>
        <trkpt lat="29.570009" lon="103.415476"><ele>923.3777</ele><time>2026-07-23T20:28:52.000Z</time></trkpt>
        <trkpt lat="29.569994" lon="103.415465"><ele>922.60034</ele><time>2026-07-23T20:28:54.000Z</time></trkpt>
        <trkpt lat="29.569982" lon="103.415453"><ele>922.5709</ele><time>2026-07-23T20:28:56.000Z</time></trkpt>
        <trkpt lat="29.569969" lon="103.415438"><ele>922.45654</ele><time>2026-07-23T20:28:58.000Z</time></trkpt>
        <trkpt lat="29.569953" lon="103.41542"><ele>923.11536</ele><time>2026-07-23T20:29:00.000Z</time></trkpt>
        <trkpt lat="29.569938" lon="103.415398"><ele>923.2918</ele><time>2026-07-23T20:29:02.000Z</time></trkpt>
        <trkpt lat="29.569926" lon="103.415374"><ele>924.227</ele><time>2026-07-23T20:29:04.000Z</time></trkpt>
        <trkpt lat="29.569916" lon="103.415347"><ele>925.40704</ele><time>2026-07-23T20:29:06.000Z</time></trkpt>
        <trkpt lat="29.569913" lon="103.415327"><ele>926.2345</ele><time>2026-07-23T20:29:08.000Z</time></trkpt>
        <trkpt lat="29.569911" lon="103.415311"><ele>925.73926</ele><time>2026-07-23T20:29:10.000Z</time></trkpt>
        <trkpt lat="29.569911" lon="103.41529"><ele>925.5498</ele><time>2026-07-23T20:29:12.000Z</time></trkpt>
        <trkpt lat="29.56991" lon="103.415271"><ele>925.75525</ele><time>2026-07-23T20:29:14.000Z</time></trkpt>
        <trkpt lat="29.569908" lon="103.415248"><ele>925.4799</ele><time>2026-07-23T20:29:16.000Z</time></trkpt>
        <trkpt lat="29.569905" lon="103.415221"><ele>925.7514</ele><time>2026-07-23T20:29:18.000Z</time></trkpt>
        <trkpt lat="29.569903" lon="103.415199"><ele>926.4044</ele><time>2026-07-23T20:29:20.000Z</time></trkpt>
        <trkpt lat="29.569901" lon="103.415175"><ele>926.4163</ele><time>2026-07-23T20:29:22.000Z</time></trkpt>
        <trkpt lat="29.569898" lon="103.41515"><ele>927.0467</ele><time>2026-07-23T20:29:24.000Z</time></trkpt>
        <trkpt lat="29.569896" lon="103.415123"><ele>927.4538</ele><time>2026-07-23T20:29:26.000Z</time></trkpt>
        <trkpt lat="29.569894" lon="103.4151"><ele>927.04297</ele><time>2026-07-23T20:29:28.000Z</time></trkpt>
        <trkpt lat="29.569892" lon="103.415074"><ele>927.372</ele><time>2026-07-23T20:29:30.000Z</time></trkpt>
        <trkpt lat="29.569888" lon="103.415045"><ele>928.5821</ele><time>2026-07-23T20:29:32.000Z</time></trkpt>
        <trkpt lat="29.569882" lon="103.415019"><ele>927.7507</ele><time>2026-07-23T20:29:34.000Z</time></trkpt>
        <trkpt lat="29.569872" lon="103.414992"><ele>927.8477</ele><time>2026-07-23T20:29:36.000Z</time></trkpt>
        <trkpt lat="29.56986" lon="103.414966"><ele>927.5077</ele><time>2026-07-23T20:29:38.000Z</time></trkpt>
        <trkpt lat="29.569846" lon="103.414945"><ele>927.4754</ele><time>2026-07-23T20:29:40.000Z</time></trkpt>
        <trkpt lat="29.569827" lon="103.414926"><ele>928.1958</ele><time>2026-07-23T20:29:42.000Z</time></trkpt>
        <trkpt lat="29.569806" lon="103.414908"><ele>928.13837</ele><time>2026-07-23T20:29:44.000Z</time></trkpt>
        <trkpt lat="29.569786" lon="103.414892"><ele>926.6289</ele><time>2026-07-23T20:29:46.000Z</time></trkpt>
        <trkpt lat="29.569768" lon="103.414877"><ele>926.3013</ele><time>2026-07-23T20:29:48.000Z</time></trkpt>
        <trkpt lat="29.569751" lon="103.414862"><ele>926.8625</ele><time>2026-07-23T20:29:50.000Z</time></trkpt>
        <trkpt lat="29.569734" lon="103.414845"><ele>926.57446</ele><time>2026-07-23T20:29:52.000Z</time></trkpt>
        <trkpt lat="29.569717" lon="103.414824"><ele>926.00586</ele><time>2026-07-23T20:29:54.000Z</time></trkpt>
        <trkpt lat="29.569702" lon="103.414805"><ele>925.13525</ele><time>2026-07-23T20:29:56.000Z</time></trkpt>
        <trkpt lat="29.56969" lon="103.414792"><ele>924.8791</ele><time>2026-07-23T20:29:58.000Z</time></trkpt>
        <trkpt lat="29.569674" lon="103.41478"><ele>924.6492</ele><time>2026-07-23T20:30:00.000Z</time></trkpt>
        <trkpt lat="29.569654" lon="103.414769"><ele>924.26874</ele><time>2026-07-23T20:30:02.000Z</time></trkpt>
        <trkpt lat="29.56963" lon="103.41476"><ele>924.299</ele><time>2026-07-23T20:30:04.000Z</time></trkpt>
        <trkpt lat="29.569607" lon="103.414755"><ele>924.23755</ele><time>2026-07-23T20:30:06.000Z</time></trkpt>
        <trkpt lat="29.569586" lon="103.414754"><ele>923.67535</ele><time>2026-07-23T20:30:08.000Z</time></trkpt>
        <trkpt lat="29.569563" lon="103.414759"><ele>923.4229</ele><time>2026-07-23T20:30:10.000Z</time></trkpt>
        <trkpt lat="29.569543" lon="103.414765"><ele>923.52423</ele><time>2026-07-23T20:30:12.000Z</time></trkpt>
        <trkpt lat="29.569522" lon="103.414774"><ele>923.6655</ele><time>2026-07-23T20:30:14.000Z</time></trkpt>
        <trkpt lat="29.569503" lon="103.414783"><ele>924.28174</ele><time>2026-07-23T20:30:16.000Z</time></trkpt>
        <trkpt lat="29.569484" lon="103.414794"><ele>924.58093</ele><time>2026-07-23T20:30:18.000Z</time></trkpt>
        <trkpt lat="29.569465" lon="103.414804"><ele>924.1215</ele><time>2026-07-23T20:30:20.000Z</time></trkpt>
        <trkpt lat="29.569449" lon="103.414812"><ele>924.364</ele><time>2026-07-23T20:30:22.000Z</time></trkpt>
        <trkpt lat="29.569432" lon="103.414821"><ele>925.67096</ele><time>2026-07-23T20:30:24.000Z</time></trkpt>
        <trkpt lat="29.569416" lon="103.41483"><ele>924.94336</ele><time>2026-07-23T20:30:26.000Z</time></trkpt>
        <trkpt lat="29.569396" lon="103.414837"><ele>925.13416</ele><time>2026-07-23T20:30:28.000Z</time></trkpt>
        <trkpt lat="29.569375" lon="103.414844"><ele>925.0367</ele><time>2026-07-23T20:30:30.000Z</time></trkpt>
        <trkpt lat="29.569354" lon="103.414849"><ele>924.2166</ele><time>2026-07-23T20:30:32.000Z</time></trkpt>
        <trkpt lat="29.569331" lon="103.414855"><ele>924.8433</ele><time>2026-07-23T20:30:34.000Z</time></trkpt>
        <trkpt lat="29.569314" lon="103.41486"><ele>924.8493</ele><time>2026-07-23T20:30:36.000Z</time></trkpt>
        <trkpt lat="29.569298" lon="103.414862"><ele>924.80457</ele><time>2026-07-23T20:30:38.000Z</time></trkpt>
        <trkpt lat="29.569281" lon="103.414862"><ele>925.1244</ele><time>2026-07-23T20:30:40.000Z</time></trkpt>
        <trkpt lat="29.569264" lon="103.414862"><ele>924.7361</ele><time>2026-07-23T20:30:42.000Z</time></trkpt>
        <trkpt lat="29.569247" lon="103.414859"><ele>924.69476</ele><time>2026-07-23T20:30:44.000Z</time></trkpt>
        <trkpt lat="29.569236" lon="103.414853"><ele>924.3107</ele><time>2026-07-23T20:30:46.000Z</time></trkpt>
        <trkpt lat="29.56923" lon="103.414843"><ele>923.9989</ele><time>2026-07-23T20:30:48.000Z</time></trkpt>
        <trkpt lat="29.569223" lon="103.414831"><ele>923.3502</ele><time>2026-07-23T20:30:50.000Z</time></trkpt>
        <trkpt lat="29.569218" lon="103.414819"><ele>923.53687</ele><time>2026-07-23T20:30:52.000Z</time></trkpt>
        <trkpt lat="29.569216" lon="103.414807"><ele>923.3168</ele><time>2026-07-23T20:30:54.000Z</time></trkpt>
        <trkpt lat="29.569214" lon="103.414793"><ele>923.6356</ele><time>2026-07-23T20:30:56.000Z</time></trkpt>
        <trkpt lat="29.569211" lon="103.414778"><ele>922.1405</ele><time>2026-07-23T20:30:58.000Z</time></trkpt>
        <trkpt lat="29.569205" lon="103.414767"><ele>922.1549</ele><time>2026-07-23T20:31:00.000Z</time></trkpt>
        <trkpt lat="29.569196" lon="103.414756"><ele>921.8896</ele><time>2026-07-23T20:31:02.000Z</time></trkpt>
        <trkpt lat="29.569183" lon="103.414743"><ele>921.84265</ele><time>2026-07-23T20:31:04.000Z</time></trkpt>
        <trkpt lat="29.569171" lon="103.414728"><ele>922.3834</ele><time>2026-07-23T20:31:06.000Z</time></trkpt>
        <trkpt lat="29.56916" lon="103.414714"><ele>922.2347</ele><time>2026-07-23T20:31:08.000Z</time></trkpt>
        <trkpt lat="29.569149" lon="103.414697"><ele>923.6382</ele><time>2026-07-23T20:31:10.000Z</time></trkpt>
        <trkpt lat="29.569137" lon="103.414675"><ele>924.3869</ele><time>2026-07-23T20:31:12.000Z</time></trkpt>
        <trkpt lat="29.569127" lon="103.414652"><ele>924.46185</ele><time>2026-07-23T20:31:14.000Z</time></trkpt>
        <trkpt lat="29.569122" lon="103.414628"><ele>924.8148</ele><time>2026-07-23T20:31:16.000Z</time></trkpt>
        <trkpt lat="29.569117" lon="103.414601"><ele>924.2369</ele><time>2026-07-23T20:31:18.000Z</time></trkpt>
        <trkpt lat="29.569111" lon="103.414573"><ele>924.04645</ele><time>2026-07-23T20:31:20.000Z</time></trkpt>
        <trkpt lat="29.569103" lon="103.414543"><ele>923.96893</ele><time>2026-07-23T20:31:22.000Z</time></trkpt>
        <trkpt lat="29.569097" lon="103.414515"><ele>924.5367</ele><time>2026-07-23T20:31:24.000Z</time></trkpt>
        <trkpt lat="29.569092" lon="103.414484"><ele>924.8072</ele><time>2026-07-23T20:31:26.000Z</time></trkpt>
        <trkpt lat="29.569089" lon="103.414454"><ele>925.1244</ele><time>2026-07-23T20:31:28.000Z</time></trkpt>
        <trkpt lat="29.56909" lon="103.414422"><ele>924.7502</ele><time>2026-07-23T20:31:30.000Z</time></trkpt>
        <trkpt lat="29.569097" lon="103.414391"><ele>924.6148</ele><time>2026-07-23T20:31:32.000Z</time></trkpt>
        <trkpt lat="29.569108" lon="103.414358"><ele>925.1452</ele><time>2026-07-23T20:31:34.000Z</time></trkpt>
        <trkpt lat="29.56912" lon="103.414326"><ele>924.31854</ele><time>2026-07-23T20:31:36.000Z</time></trkpt>
        <trkpt lat="29.56913" lon="103.414302"><ele>923.9484</ele><time>2026-07-23T20:31:38.000Z</time></trkpt>
        <trkpt lat="29.569138" lon="103.414282"><ele>923.3003</ele><time>2026-07-23T20:31:40.000Z</time></trkpt>
        <trkpt lat="29.56914" lon="103.414269"><ele>922.949</ele><time>2026-07-23T20:31:42.000Z</time></trkpt>
        <trkpt lat="29.569138" lon="103.414256"><ele>922.4903</ele><time>2026-07-23T20:31:44.000Z</time></trkpt>
        <trkpt lat="29.569134" lon="103.41424"><ele>923.8556</ele><time>2026-07-23T20:31:46.000Z</time></trkpt>
        <trkpt lat="29.569131" lon="103.414225"><ele>923.58545</ele><time>2026-07-23T20:31:48.000Z</time></trkpt>
        <trkpt lat="29.569127" lon="103.414206"><ele>922.9958</ele><time>2026-07-23T20:31:50.000Z</time></trkpt>
        <trkpt lat="29.569123" lon="103.41419"><ele>922.52295</ele><time>2026-07-23T20:31:52.000Z</time></trkpt>
        <trkpt lat="29.569118" lon="103.414172"><ele>922.8512</ele><time>2026-07-23T20:31:54.000Z</time></trkpt>
        <trkpt lat="29.569115" lon="103.414154"><ele>922.24725</ele><time>2026-07-23T20:31:56.000Z</time></trkpt>
        <trkpt lat="29.569115" lon="103.414133"><ele>921.72327</ele><time>2026-07-23T20:31:58.000Z</time></trkpt>
        <trkpt lat="29.569117" lon="103.414105"><ele>920.64795</ele><time>2026-07-23T20:32:00.000Z</time></trkpt>
        <trkpt lat="29.569121" lon="103.414073"><ele>920.5569</ele><time>2026-07-23T20:32:02.000Z</time></trkpt>
        <trkpt lat="29.569125" lon="103.414046"><ele>920.16473</ele><time>2026-07-23T20:32:04.000Z</time></trkpt>
        <trkpt lat="29.569129" lon="103.414018"><ele>920.29346</ele><time>2026-07-23T20:32:06.000Z</time></trkpt>
        <trkpt lat="29.569134" lon="103.413992"><ele>921.7877</ele><time>2026-07-23T20:32:08.000Z</time></trkpt>
        <trkpt lat="29.569141" lon="103.413968"><ele>921.61</ele><time>2026-07-23T20:32:10.000Z</time></trkpt>
        <trkpt lat="29.56915" lon="103.413946"><ele>921.23065</ele><time>2026-07-23T20:32:12.000Z</time></trkpt>
        <trkpt lat="29.569159" lon="103.413923"><ele>921.14233</ele><time>2026-07-23T20:32:14.000Z</time></trkpt>
        <trkpt lat="29.569164" lon="103.413902"><ele>919.815</ele><time>2026-07-23T20:32:16.000Z</time></trkpt>
        <trkpt lat="29.569164" lon="103.413882"><ele>920.1855</ele><time>2026-07-23T20:32:18.000Z</time></trkpt>
        <trkpt lat="29.569161" lon="103.413864"><ele>919.7728</ele><time>2026-07-23T20:32:20.000Z</time></trkpt>
        <trkpt lat="29.569155" lon="103.413849"><ele>920.0359</ele><time>2026-07-23T20:32:22.000Z</time></trkpt>
        <trkpt lat="29.569146" lon="103.413832"><ele>920.8039</ele><time>2026-07-23T20:32:24.000Z</time></trkpt>
        <trkpt lat="29.569136" lon="103.413817"><ele>920.97955</ele><time>2026-07-23T20:32:26.000Z</time></trkpt>
        <trkpt lat="29.569127" lon="103.413801"><ele>920.0756</ele><time>2026-07-23T20:32:28.000Z</time></trkpt>
        <trkpt lat="29.569115" lon="103.413776"><ele>921.12665</ele><time>2026-07-23T20:32:30.000Z</time></trkpt>
        <trkpt lat="29.569106" lon="103.413747"><ele>921.5644</ele><time>2026-07-23T20:32:32.000Z</time></trkpt>
        <trkpt lat="29.5691" lon="103.413721"><ele>921.9507</ele><time>2026-07-23T20:32:34.000Z</time></trkpt>
        <trkpt lat="29.569093" lon="103.413692"><ele>921.8791</ele><time>2026-07-23T20:32:36.000Z</time></trkpt>
        <trkpt lat="29.569083" lon="103.413665"><ele>921.45917</ele><time>2026-07-23T20:32:38.000Z</time></trkpt>
        <trkpt lat="29.569073" lon="103.413645"><ele>920.8573</ele><time>2026-07-23T20:32:40.000Z</time></trkpt>
        <trkpt lat="29.569062" lon="103.413626"><ele>920.02515</ele><time>2026-07-23T20:32:42.000Z</time></trkpt>
        <trkpt lat="29.569049" lon="103.413605"><ele>919.6515</ele><time>2026-07-23T20:32:44.000Z</time></trkpt>
        <trkpt lat="29.56904" lon="103.413588"><ele>919.4987</ele><time>2026-07-23T20:32:46.000Z</time></trkpt>
        <trkpt lat="29.569034" lon="103.413572"><ele>919.11395</ele><time>2026-07-23T20:32:48.000Z</time></trkpt>
        <trkpt lat="29.569029" lon="103.413555"><ele>918.6424</ele><time>2026-07-23T20:32:50.000Z</time></trkpt>
        <trkpt lat="29.569026" lon="103.413539"><ele>918.51184</ele><time>2026-07-23T20:32:52.000Z</time></trkpt>
        <trkpt lat="29.569025" lon="103.413526"><ele>919.5375</ele><time>2026-07-23T20:32:54.000Z</time></trkpt>
        <trkpt lat="29.569024" lon="103.413515"><ele>920.13214</ele><time>2026-07-23T20:32:56.000Z</time></trkpt>
        <trkpt lat="29.569024" lon="103.413505"><ele>920.20746</ele><time>2026-07-23T20:32:58.000Z</time></trkpt>
        <trkpt lat="29.569029" lon="103.413498"><ele>920.4328</ele><time>2026-07-23T20:33:02.000Z</time></trkpt>
        <trkpt lat="29.569029" lon="103.413489"><ele>920.13275</ele><time>2026-07-23T20:33:08.000Z</time></trkpt>
        <trkpt lat="29.569021" lon="103.413472"><ele>916.8367</ele><time>2026-07-23T20:33:32.000Z</time></trkpt>
        <trkpt lat="29.569011" lon="103.413453"><ele>917.6157</ele><time>2026-07-23T20:33:34.000Z</time></trkpt>
        <trkpt lat="29.569012" lon="103.413452"><ele>918.82404</ele><time>2026-07-23T20:33:36.000Z</time></trkpt>
        <trkpt lat="29.569014" lon="103.413436"><ele>919.6217</ele><time>2026-07-23T20:33:40.000Z</time></trkpt>
        <trkpt lat="29.569017" lon="103.413417"><ele>919.95825</ele><time>2026-07-23T20:33:42.000Z</time></trkpt>
        <trkpt lat="29.569019" lon="103.413394"><ele>919.57513</ele><time>2026-07-23T20:33:44.000Z</time></trkpt>
        <trkpt lat="29.56902" lon="103.413375"><ele>919.14056</ele><time>2026-07-23T20:33:46.000Z</time></trkpt>
        <trkpt lat="29.569022" lon="103.413362"><ele>918.80176</ele><time>2026-07-23T20:33:48.000Z</time></trkpt>
        <trkpt lat="29.569023" lon="103.413349"><ele>918.2412</ele><time>2026-07-23T20:33:50.000Z</time></trkpt>
        <trkpt lat="29.569023" lon="103.413333"><ele>918.0934</ele><time>2026-07-23T20:33:52.000Z</time></trkpt>
        <trkpt lat="29.569022" lon="103.413321"><ele>918.16754</ele><time>2026-07-23T20:33:54.000Z</time></trkpt>
        <trkpt lat="29.569023" lon="103.41331"><ele>918.1741</ele><time>2026-07-23T20:33:56.000Z</time></trkpt>
        <trkpt lat="29.569022" lon="103.413297"><ele>919.0087</ele><time>2026-07-23T20:33:58.000Z</time></trkpt>
        <trkpt lat="29.569022" lon="103.413287"><ele>919.58496</ele><time>2026-07-23T20:34:00.000Z</time></trkpt>
        <trkpt lat="29.56902" lon="103.413276"><ele>920.07556</ele><time>2026-07-23T20:34:02.000Z</time></trkpt>
        <trkpt lat="29.569018" lon="103.413265"><ele>920.8002</ele><time>2026-07-23T20:34:04.000Z</time></trkpt>
        <trkpt lat="29.569018" lon="103.413257"><ele>922.12537</ele><time>2026-07-23T20:34:06.000Z</time></trkpt>
        <trkpt lat="29.569024" lon="103.413249"><ele>923.61395</ele><time>2026-07-23T20:34:10.000Z</time></trkpt>
        <trkpt lat="29.569029" lon="103.41324"><ele>926.3538</ele><time>2026-07-23T20:34:16.000Z</time></trkpt>
        <trkpt lat="29.569043" lon="103.413228"><ele>927.2769</ele><time>2026-07-23T20:34:30.000Z</time></trkpt>
        <trkpt lat="29.569061" lon="103.413203"><ele>927.3545</ele><time>2026-07-23T20:34:32.000Z</time></trkpt>
        <trkpt lat="29.569074" lon="103.413185"><ele>926.5529</ele><time>2026-07-23T20:34:34.000Z</time></trkpt>
        <trkpt lat="29.569075" lon="103.413183"><ele>926.4722</ele><time>2026-07-23T20:34:36.000Z</time></trkpt>
        <trkpt lat="29.569084" lon="103.413167"><ele>925.02057</ele><time>2026-07-23T20:34:40.000Z</time></trkpt>
        <trkpt lat="29.569096" lon="103.413146"><ele>924.15234</ele><time>2026-07-23T20:34:42.000Z</time></trkpt>
        <trkpt lat="29.56911" lon="103.41312"><ele>922.9327</ele><time>2026-07-23T20:34:44.000Z</time></trkpt>
        <trkpt lat="29.569122" lon="103.413097"><ele>921.9324</ele><time>2026-07-23T20:34:46.000Z</time></trkpt>
        <trkpt lat="29.56913" lon="103.413072"><ele>921.7018</ele><time>2026-07-23T20:34:48.000Z</time></trkpt>
        <trkpt lat="29.569137" lon="103.413048"><ele>920.5616</ele><time>2026-07-23T20:34:50.000Z</time></trkpt>
        <trkpt lat="29.569141" lon="103.413026"><ele>920.4085</ele><time>2026-07-23T20:34:52.000Z</time></trkpt>
        <trkpt lat="29.569148" lon="103.413005"><ele>919.3135</ele><time>2026-07-23T20:34:54.000Z</time></trkpt>
        <trkpt lat="29.56916" lon="103.412987"><ele>920.0011</ele><time>2026-07-23T20:34:56.000Z</time></trkpt>
        <trkpt lat="29.569172" lon="103.412971"><ele>920.71027</ele><time>2026-07-23T20:34:58.000Z</time></trkpt>
        <trkpt lat="29.569182" lon="103.412957"><ele>919.4902</ele><time>2026-07-23T20:35:00.000Z</time></trkpt>
        <trkpt lat="29.569193" lon="103.412946"><ele>918.89886</ele><time>2026-07-23T20:35:02.000Z</time></trkpt>
        <trkpt lat="29.569206" lon="103.412933"><ele>917.52014</ele><time>2026-07-23T20:35:04.000Z</time></trkpt>
        <trkpt lat="29.569218" lon="103.412921"><ele>916.5998</ele><time>2026-07-23T20:35:06.000Z</time></trkpt>
        <trkpt lat="29.569228" lon="103.41291"><ele>916.2863</ele><time>2026-07-23T20:35:08.000Z</time></trkpt>
        <trkpt lat="29.56924" lon="103.412901"><ele>915.81885</ele><time>2026-07-23T20:35:10.000Z</time></trkpt>
        <trkpt lat="29.569258" lon="103.412887"><ele>916.02466</ele><time>2026-07-23T20:35:12.000Z</time></trkpt>
        <trkpt lat="29.569278" lon="103.412872"><ele>915.3471</ele><time>2026-07-23T20:35:14.000Z</time></trkpt>
        <trkpt lat="29.569295" lon="103.412854"><ele>914.6237</ele><time>2026-07-23T20:35:16.000Z</time></trkpt>
        <trkpt lat="29.569306" lon="103.412838"><ele>913.2031</ele><time>2026-07-23T20:35:18.000Z</time></trkpt>
        <trkpt lat="29.569311" lon="103.412828"><ele>913.21027</ele><time>2026-07-23T20:35:20.000Z</time></trkpt>
        <trkpt lat="29.569318" lon="103.412817"><ele>914.17896</ele><time>2026-07-23T20:35:22.000Z</time></trkpt>
        <trkpt lat="29.569328" lon="103.412803"><ele>913.9724</ele><time>2026-07-23T20:35:24.000Z</time></trkpt>
        <trkpt lat="29.569338" lon="103.412793"><ele>913.7578</ele><time>2026-07-23T20:35:26.000Z</time></trkpt>
        <trkpt lat="29.569355" lon="103.412781"><ele>913.8399</ele><time>2026-07-23T20:35:28.000Z</time></trkpt>
        <trkpt lat="29.569371" lon="103.412771"><ele>913.39435</ele><time>2026-07-23T20:35:30.000Z</time></trkpt>
        <trkpt lat="29.569388" lon="103.412764"><ele>913.38385</ele><time>2026-07-23T20:35:32.000Z</time></trkpt>
        <trkpt lat="29.569404" lon="103.412756"><ele>913.1503</ele><time>2026-07-23T20:35:34.000Z</time></trkpt>
        <trkpt lat="29.569415" lon="103.412748"><ele>912.8758</ele><time>2026-07-23T20:35:36.000Z</time></trkpt>
        <trkpt lat="29.569425" lon="103.412736"><ele>912.84033</ele><time>2026-07-23T20:35:38.000Z</time></trkpt>
        <trkpt lat="29.569429" lon="103.412724"><ele>912.4051</ele><time>2026-07-23T20:35:40.000Z</time></trkpt>
        <trkpt lat="29.569431" lon="103.41271"><ele>911.5228</ele><time>2026-07-23T20:35:42.000Z</time></trkpt>
        <trkpt lat="29.569428" lon="103.412699"><ele>911.49524</ele><time>2026-07-23T20:35:44.000Z</time></trkpt>
        <trkpt lat="29.569422" lon="103.412685"><ele>911.2792</ele><time>2026-07-23T20:35:46.000Z</time></trkpt>
        <trkpt lat="29.569411" lon="103.412664"><ele>911.2231</ele><time>2026-07-23T20:35:48.000Z</time></trkpt>
        <trkpt lat="29.569399" lon="103.412643"><ele>911.474</ele><time>2026-07-23T20:35:50.000Z</time></trkpt>
        <trkpt lat="29.569387" lon="103.412623"><ele>911.05853</ele><time>2026-07-23T20:35:52.000Z</time></trkpt>
        <trkpt lat="29.569373" lon="103.412601"><ele>911.87994</ele><time>2026-07-23T20:35:54.000Z</time></trkpt>
        <trkpt lat="29.56936" lon="103.412579"><ele>912.8563</ele><time>2026-07-23T20:35:56.000Z</time></trkpt>
        <trkpt lat="29.569347" lon="103.412556"><ele>913.8253</ele><time>2026-07-23T20:35:58.000Z</time></trkpt>
        <trkpt lat="29.569335" lon="103.412535"><ele>913.1515</ele><time>2026-07-23T20:36:00.000Z</time></trkpt>
        <trkpt lat="29.569322" lon="103.412518"><ele>913.4239</ele><time>2026-07-23T20:36:02.000Z</time></trkpt>
        <trkpt lat="29.569308" lon="103.412508"><ele>913.86597</ele><time>2026-07-23T20:36:04.000Z</time></trkpt>
        <trkpt lat="29.569291" lon="103.412494"><ele>913.0059</ele><time>2026-07-23T20:36:06.000Z</time></trkpt>
        <trkpt lat="29.569279" lon="103.412479"><ele>912.6147</ele><time>2026-07-23T20:36:08.000Z</time></trkpt>
        <trkpt lat="29.569269" lon="103.412468"><ele>912.3808</ele><time>2026-07-23T20:36:10.000Z</time></trkpt>
        <trkpt lat="29.569264" lon="103.412462"><ele>912.67664</ele><time>2026-07-23T20:36:12.000Z</time></trkpt>
        <trkpt lat="29.569313" lon="103.412497"><ele>913.2217</ele><time>2026-07-23T20:36:20.000Z</time></trkpt>
        <trkpt lat="29.569336" lon="103.412511"><ele>913.4951</ele><time>2026-07-23T20:36:22.000Z</time></trkpt>
        <trkpt lat="29.569338" lon="103.412511"><ele>913.1831</ele><time>2026-07-23T20:36:24.000Z</time></trkpt>
        <trkpt lat="29.569343" lon="103.412508"><ele>913.06573</ele><time>2026-07-23T20:36:26.000Z</time></trkpt>
        <trkpt lat="29.569361" lon="103.412494"><ele>911.32587</ele><time>2026-07-23T20:36:28.000Z</time></trkpt>
        <trkpt lat="29.569377" lon="103.412476"><ele>910.0446</ele><time>2026-07-23T20:36:30.000Z</time></trkpt>
        <trkpt lat="29.569386" lon="103.412458"><ele>909.66534</ele><time>2026-07-23T20:36:32.000Z</time></trkpt>
        <trkpt lat="29.569386" lon="103.412445"><ele>909.51526</ele><time>2026-07-23T20:36:34.000Z</time></trkpt>
        <trkpt lat="29.569381" lon="103.412434"><ele>909.29095</ele><time>2026-07-23T20:36:36.000Z</time></trkpt>
        <trkpt lat="29.569373" lon="103.412421"><ele>909.53827</ele><time>2026-07-23T20:36:38.000Z</time></trkpt>
        <trkpt lat="29.569364" lon="103.41241"><ele>909.0292</ele><time>2026-07-23T20:36:40.000Z</time></trkpt>
        <trkpt lat="29.569356" lon="103.412398"><ele>908.28235</ele><time>2026-07-23T20:36:42.000Z</time></trkpt>
        <trkpt lat="29.56935" lon="103.412388"><ele>908.6963</ele><time>2026-07-23T20:36:44.000Z</time></trkpt>
        <trkpt lat="29.569342" lon="103.412375"><ele>908.711</ele><time>2026-07-23T20:36:46.000Z</time></trkpt>
        <trkpt lat="29.569333" lon="103.412363"><ele>909.9598</ele><time>2026-07-23T20:36:48.000Z</time></trkpt>
        <trkpt lat="29.56933" lon="103.412353"><ele>910.1916</ele><time>2026-07-23T20:36:50.000Z</time></trkpt>
        <trkpt lat="29.569331" lon="103.412341"><ele>910.08624</ele><time>2026-07-23T20:36:52.000Z</time></trkpt>
        <trkpt lat="29.569335" lon="103.412322"><ele>909.73663</ele><time>2026-07-23T20:36:54.000Z</time></trkpt>
        <trkpt lat="29.569342" lon="103.412303"><ele>909.13306</ele><time>2026-07-23T20:36:56.000Z</time></trkpt>
        <trkpt lat="29.569353" lon="103.412282"><ele>908.9017</ele><time>2026-07-23T20:36:58.000Z</time></trkpt>
        <trkpt lat="29.569364" lon="103.412265"><ele>908.1955</ele><time>2026-07-23T20:37:00.000Z</time></trkpt>
        <trkpt lat="29.569371" lon="103.412255"><ele>907.19293</ele><time>2026-07-23T20:37:02.000Z</time></trkpt>
        <trkpt lat="29.569375" lon="103.412248"><ele>906.59424</ele><time>2026-07-23T20:37:04.000Z</time></trkpt>
        <trkpt lat="29.569375" lon="103.412248"><ele>905.2789</ele><time>2026-07-23T20:37:08.000Z</time></trkpt>
        <trkpt lat="29.56935" lon="103.412237"><ele>903.31976</ele><time>2026-07-23T20:37:16.000Z</time></trkpt>
        <trkpt lat="29.569336" lon="103.412231"><ele>902.68097</ele><time>2026-07-23T20:37:18.000Z</time></trkpt>
        <trkpt lat="29.569335" lon="103.412231"><ele>902.0418</ele><time>2026-07-23T20:37:20.000Z</time></trkpt>
        <trkpt lat="29.569316" lon="103.412232"><ele>900.3037</ele><time>2026-07-23T20:37:26.000Z</time></trkpt>
        <trkpt lat="29.5693" lon="103.412232"><ele>900.19666</ele><time>2026-07-23T20:37:28.000Z</time></trkpt>
        <trkpt lat="29.569299" lon="103.412232"><ele>900.40533</ele><time>2026-07-23T20:37:30.000Z</time></trkpt>
        <trkpt lat="29.569284" lon="103.41223"><ele>900.1741</ele><time>2026-07-23T20:37:34.000Z</time></trkpt>
        <trkpt lat="29.56927" lon="103.412227"><ele>899.75385</ele><time>2026-07-23T20:37:36.000Z</time></trkpt>
        <trkpt lat="29.569249" lon="103.41222"><ele>899.4233</ele><time>2026-07-23T20:37:38.000Z</time></trkpt>
        <trkpt lat="29.569232" lon="103.412213"><ele>899.87225</ele><time>2026-07-23T20:37:40.000Z</time></trkpt>
        <trkpt lat="29.569215" lon="103.412205"><ele>900.02966</ele><time>2026-07-23T20:37:42.000Z</time></trkpt>
        <trkpt lat="29.569198" lon="103.412202"><ele>899.11816</ele><time>2026-07-23T20:37:44.000Z</time></trkpt>
        <trkpt lat="29.569184" lon="103.412201"><ele>898.9031</ele><time>2026-07-23T20:37:46.000Z</time></trkpt>
        <trkpt lat="29.56917" lon="103.412203"><ele>899.1773</ele><time>2026-07-23T20:37:48.000Z</time></trkpt>
        <trkpt lat="29.569157" lon="103.412207"><ele>899.4615</ele><time>2026-07-23T20:37:50.000Z</time></trkpt>
        <trkpt lat="29.569156" lon="103.41221"><ele>899.5992</ele><time>2026-07-23T20:37:52.000Z</time></trkpt>
        <trkpt lat="29.569143" lon="103.412227"><ele>898.66095</ele><time>2026-07-23T20:37:58.000Z</time></trkpt>
        <trkpt lat="29.569128" lon="103.41221"><ele>899.6362</ele><time>2026-07-23T20:38:00.000Z</time></trkpt>
        <trkpt lat="29.569127" lon="103.41221"><ele>899.6354</ele><time>2026-07-23T20:38:02.000Z</time></trkpt>
        <trkpt lat="29.569113" lon="103.412206"><ele>898.49475</ele><time>2026-07-23T20:38:06.000Z</time></trkpt>
        <trkpt lat="29.569099" lon="103.412199"><ele>898.4583</ele><time>2026-07-23T20:38:08.000Z</time></trkpt>
        <trkpt lat="29.569083" lon="103.412184"><ele>898.28876</ele><time>2026-07-23T20:38:10.000Z</time></trkpt>
        <trkpt lat="29.569068" lon="103.412161"><ele>899.514</ele><time>2026-07-23T20:38:12.000Z</time></trkpt>
        <trkpt lat="29.569056" lon="103.412139"><ele>900.25604</ele><time>2026-07-23T20:38:14.000Z</time></trkpt>
        <trkpt lat="29.569047" lon="103.41212"><ele>900.4676</ele><time>2026-07-23T20:38:16.000Z</time></trkpt>
        <trkpt lat="29.569036" lon="103.412102"><ele>900.99</ele><time>2026-07-23T20:38:18.000Z</time></trkpt>
        <trkpt lat="29.569028" lon="103.412095"><ele>900.29846</ele><time>2026-07-23T20:38:20.000Z</time></trkpt>
        <trkpt lat="29.569015" lon="103.412087"><ele>900.2518</ele><time>2026-07-23T20:38:22.000Z</time></trkpt>
        <trkpt lat="29.569001" lon="103.412079"><ele>900.549</ele><time>2026-07-23T20:38:24.000Z</time></trkpt>
        <trkpt lat="29.568989" lon="103.412073"><ele>900.0068</ele><time>2026-07-23T20:38:26.000Z</time></trkpt>
        <trkpt lat="29.568979" lon="103.412066"><ele>899.96814</ele><time>2026-07-23T20:38:28.000Z</time></trkpt>
        <trkpt lat="29.568969" lon="103.412058"><ele>899.7061</ele><time>2026-07-23T20:38:30.000Z</time></trkpt>
        <trkpt lat="29.568961" lon="103.41205"><ele>899.0029</ele><time>2026-07-23T20:38:32.000Z</time></trkpt>
        <trkpt lat="29.568952" lon="103.412043"><ele>898.26556</ele><time>2026-07-23T20:38:34.000Z</time></trkpt>
        <trkpt lat="29.568945" lon="103.412033"><ele>899.25244</ele><time>2026-07-23T20:38:36.000Z</time></trkpt>
        <trkpt lat="29.568937" lon="103.412022"><ele>898.5951</ele><time>2026-07-23T20:38:38.000Z</time></trkpt>
        <trkpt lat="29.568927" lon="103.412006"><ele>897.76416</ele><time>2026-07-23T20:38:40.000Z</time></trkpt>
        <trkpt lat="29.568916" lon="103.411986"><ele>897.1943</ele><time>2026-07-23T20:38:42.000Z</time></trkpt>
        <trkpt lat="29.568906" lon="103.41197"><ele>896.50543</ele><time>2026-07-23T20:38:44.000Z</time></trkpt>
        <trkpt lat="29.568899" lon="103.411958"><ele>895.963</ele><time>2026-07-23T20:38:46.000Z</time></trkpt>
        <trkpt lat="29.568889" lon="103.411943"><ele>894.8715</ele><time>2026-07-23T20:38:48.000Z</time></trkpt>
        <trkpt lat="29.568881" lon="103.411934"><ele>893.76587</ele><time>2026-07-23T20:38:50.000Z</time></trkpt>
        <trkpt lat="29.568874" lon="103.411925"><ele>892.4735</ele><time>2026-07-23T20:38:52.000Z</time></trkpt>
        <trkpt lat="29.568866" lon="103.411915"><ele>891.8884</ele><time>2026-07-23T20:38:54.000Z</time></trkpt>
        <trkpt lat="29.568855" lon="103.411906"><ele>891.1946</ele><time>2026-07-23T20:38:56.000Z</time></trkpt>
        <trkpt lat="29.568841" lon="103.4119"><ele>891.3833</ele><time>2026-07-23T20:38:58.000Z</time></trkpt>
        <trkpt lat="29.568826" lon="103.411895"><ele>890.345</ele><time>2026-07-23T20:39:00.000Z</time></trkpt>
        <trkpt lat="29.568804" lon="103.411891"><ele>890.0378</ele><time>2026-07-23T20:39:02.000Z</time></trkpt>
        <trkpt lat="29.56878" lon="103.411887"><ele>889.8548</ele><time>2026-07-23T20:39:04.000Z</time></trkpt>
        <trkpt lat="29.568757" lon="103.411885"><ele>889.76337</ele><time>2026-07-23T20:39:06.000Z</time></trkpt>
        <trkpt lat="29.568737" lon="103.411882"><ele>889.4134</ele><time>2026-07-23T20:39:08.000Z</time></trkpt>
        <trkpt lat="29.568728" lon="103.411878"><ele>889.7686</ele><time>2026-07-23T20:39:10.000Z</time></trkpt>
        <trkpt lat="29.568724" lon="103.411876"><ele>890.0687</ele><time>2026-07-23T20:39:12.000Z</time></trkpt>
        <trkpt lat="29.568711" lon="103.41187"><ele>889.4343</ele><time>2026-07-23T20:39:16.000Z</time></trkpt>
        <trkpt lat="29.568696" lon="103.411864"><ele>889.9853</ele><time>2026-07-23T20:39:18.000Z</time></trkpt>
        <trkpt lat="29.568695" lon="103.411864"><ele>890.14233</ele><time>2026-07-23T20:39:20.000Z</time></trkpt>
        <trkpt lat="29.568681" lon="103.411868"><ele>888.25995</ele><time>2026-07-23T20:39:24.000Z</time></trkpt>
        <trkpt lat="29.568669" lon="103.41187"><ele>887.8369</ele><time>2026-07-23T20:39:26.000Z</time></trkpt>
        <trkpt lat="29.568657" lon="103.411868"><ele>887.501</ele><time>2026-07-23T20:39:28.000Z</time></trkpt>
        <trkpt lat="29.568646" lon="103.411866"><ele>886.4844</ele><time>2026-07-23T20:39:30.000Z</time></trkpt>
        <trkpt lat="29.568637" lon="103.411864"><ele>886.6898</ele><time>2026-07-23T20:39:32.000Z</time></trkpt>
        <trkpt lat="29.568633" lon="103.41186"><ele>886.6713</ele><time>2026-07-23T20:39:34.000Z</time></trkpt>
        <trkpt lat="29.568578" lon="103.411799"><ele>884.9319</ele><time>2026-07-23T20:39:50.000Z</time></trkpt>
        <trkpt lat="29.568578" lon="103.411799"><ele>885.2926</ele><time>2026-07-23T20:39:52.000Z</time></trkpt>
        <trkpt lat="29.568575" lon="103.411797"><ele>885.33624</ele><time>2026-07-23T20:39:54.000Z</time></trkpt>
        <trkpt lat="29.568553" lon="103.411785"><ele>884.9908</ele><time>2026-07-23T20:39:58.000Z</time></trkpt>
        <trkpt lat="29.568538" lon="103.41178"><ele>884.5895</ele><time>2026-07-23T20:40:00.000Z</time></trkpt>
        <trkpt lat="29.56852" lon="103.411772"><ele>884.32355</ele><time>2026-07-23T20:40:02.000Z</time></trkpt>
        <trkpt lat="29.568506" lon="103.411764"><ele>884.8821</ele><time>2026-07-23T20:40:04.000Z</time></trkpt>
        <trkpt lat="29.568499" lon="103.41176"><ele>883.3017</ele><time>2026-07-23T20:40:06.000Z</time></trkpt>
        <trkpt lat="29.568494" lon="103.411752"><ele>882.3773</ele><time>2026-07-23T20:40:08.000Z</time></trkpt>
        <trkpt lat="29.568484" lon="103.411732"><ele>882.2291</ele><time>2026-07-23T20:40:12.000Z</time></trkpt>
        <trkpt lat="29.568483" lon="103.411723"><ele>882.0307</ele><time>2026-07-23T20:40:14.000Z</time></trkpt>
        <trkpt lat="29.568481" lon="103.41171"><ele>881.6262</ele><time>2026-07-23T20:40:16.000Z</time></trkpt>
        <trkpt lat="29.568475" lon="103.411692"><ele>880.3251</ele><time>2026-07-23T20:40:18.000Z</time></trkpt>
        <trkpt lat="29.568469" lon="103.411678"><ele>880.28345</ele><time>2026-07-23T20:40:20.000Z</time></trkpt>
        <trkpt lat="29.56846" lon="103.411664"><ele>880.6432</ele><time>2026-07-23T20:40:22.000Z</time></trkpt>
        <trkpt lat="29.568449" lon="103.411653"><ele>881.3007</ele><time>2026-07-23T20:40:24.000Z</time></trkpt>
        <trkpt lat="29.568435" lon="103.411641"><ele>880.6689</ele><time>2026-07-23T20:40:26.000Z</time></trkpt>
        <trkpt lat="29.568418" lon="103.411627"><ele>879.9506</ele><time>2026-07-23T20:40:28.000Z</time></trkpt>
        <trkpt lat="29.568406" lon="103.411615"><ele>879.52454</ele><time>2026-07-23T20:40:30.000Z</time></trkpt>
        <trkpt lat="29.568397" lon="103.411601"><ele>879.5157</ele><time>2026-07-23T20:40:32.000Z</time></trkpt>
        <trkpt lat="29.568388" lon="103.411586"><ele>879.6326</ele><time>2026-07-23T20:40:34.000Z</time></trkpt>
        <trkpt lat="29.568382" lon="103.411568"><ele>880.4177</ele><time>2026-07-23T20:40:36.000Z</time></trkpt>
        <trkpt lat="29.568379" lon="103.411554"><ele>880.61975</ele><time>2026-07-23T20:40:38.000Z</time></trkpt>
        <trkpt lat="29.568377" lon="103.411542"><ele>880.99457</ele><time>2026-07-23T20:40:40.000Z</time></trkpt>
        <trkpt lat="29.568376" lon="103.411535"><ele>880.99457</ele><time>2026-07-23T20:40:42.000Z</time></trkpt>
        <trkpt lat="29.568377" lon="103.411517"><ele>882.1326</ele><time>2026-07-23T20:40:44.000Z</time></trkpt>
        <trkpt lat="29.568381" lon="103.411502"><ele>881.20807</ele><time>2026-07-23T20:40:46.000Z</time></trkpt>
        <trkpt lat="29.568388" lon="103.411486"><ele>880.3333</ele><time>2026-07-23T20:40:48.000Z</time></trkpt>
        <trkpt lat="29.568397" lon="103.411466"><ele>881.26495</ele><time>2026-07-23T20:40:50.000Z</time></trkpt>
        <trkpt lat="29.568407" lon="103.411443"><ele>881.16376</ele><time>2026-07-23T20:40:52.000Z</time></trkpt>
        <trkpt lat="29.568414" lon="103.411422"><ele>880.57983</ele><time>2026-07-23T20:40:54.000Z</time></trkpt>
        <trkpt lat="29.56842" lon="103.411399"><ele>879.5834</ele><time>2026-07-23T20:40:56.000Z</time></trkpt>
        <trkpt lat="29.568429" lon="103.411372"><ele>879.15576</ele><time>2026-07-23T20:40:58.000Z</time></trkpt>
        <trkpt lat="29.568438" lon="103.411348"><ele>879.6182</ele><time>2026-07-23T20:41:00.000Z</time></trkpt>
        <trkpt lat="29.568448" lon="103.411324"><ele>880.46643</ele><time>2026-07-23T20:41:02.000Z</time></trkpt>
        <trkpt lat="29.568458" lon="103.411302"><ele>879.31494</ele><time>2026-07-23T20:41:04.000Z</time></trkpt>
        <trkpt lat="29.568469" lon="103.411279"><ele>880.3684</ele><time>2026-07-23T20:41:06.000Z</time></trkpt>
        <trkpt lat="29.568478" lon="103.411258"><ele>880.3735</ele><time>2026-07-23T20:41:08.000Z</time></trkpt>
        <trkpt lat="29.568489" lon="103.411234"><ele>880.0438</ele><time>2026-07-23T20:41:10.000Z</time></trkpt>
        <trkpt lat="29.568499" lon="103.411212"><ele>881.31525</ele><time>2026-07-23T20:41:12.000Z</time></trkpt>
        <trkpt lat="29.568508" lon="103.411191"><ele>881.0146</ele><time>2026-07-23T20:41:14.000Z</time></trkpt>
        <trkpt lat="29.568513" lon="103.411171"><ele>880.5415</ele><time>2026-07-23T20:41:16.000Z</time></trkpt>
        <trkpt lat="29.568518" lon="103.411145"><ele>880.133</ele><time>2026-07-23T20:41:18.000Z</time></trkpt>
        <trkpt lat="29.568518" lon="103.411123"><ele>878.6806</ele><time>2026-07-23T20:41:20.000Z</time></trkpt>
        <trkpt lat="29.568518" lon="103.411102"><ele>878.76056</ele><time>2026-07-23T20:41:22.000Z</time></trkpt>
        <trkpt lat="29.568515" lon="103.41108"><ele>878.1932</ele><time>2026-07-23T20:41:24.000Z</time></trkpt>
        <trkpt lat="29.568514" lon="103.411054"><ele>877.06445</ele><time>2026-07-23T20:41:26.000Z</time></trkpt>
        <trkpt lat="29.568516" lon="103.41103"><ele>877.22675</ele><time>2026-07-23T20:41:28.000Z</time></trkpt>
        <trkpt lat="29.568518" lon="103.41101"><ele>876.8214</ele><time>2026-07-23T20:41:30.000Z</time></trkpt>
        <trkpt lat="29.568522" lon="103.410984"><ele>876.50604</ele><time>2026-07-23T20:41:32.000Z</time></trkpt>
        <trkpt lat="29.568528" lon="103.41096"><ele>876.6998</ele><time>2026-07-23T20:41:34.000Z</time></trkpt>
        <trkpt lat="29.568536" lon="103.410937"><ele>876.27563</ele><time>2026-07-23T20:41:36.000Z</time></trkpt>
        <trkpt lat="29.568546" lon="103.410916"><ele>876.3767</ele><time>2026-07-23T20:41:38.000Z</time></trkpt>
        <trkpt lat="29.568554" lon="103.410894"><ele>876.0845</ele><time>2026-07-23T20:41:40.000Z</time></trkpt>
        <trkpt lat="29.56856" lon="103.410874"><ele>875.299</ele><time>2026-07-23T20:41:42.000Z</time></trkpt>
        <trkpt lat="29.568565" lon="103.410853"><ele>874.9142</ele><time>2026-07-23T20:41:44.000Z</time></trkpt>
        <trkpt lat="29.568568" lon="103.410835"><ele>874.52545</ele><time>2026-07-23T20:41:46.000Z</time></trkpt>
        <trkpt lat="29.56857" lon="103.410818"><ele>872.8474</ele><time>2026-07-23T20:41:48.000Z</time></trkpt>
        <trkpt lat="29.568574" lon="103.410804"><ele>872.6082</ele><time>2026-07-23T20:41:50.000Z</time></trkpt>
        <trkpt lat="29.568579" lon="103.410788"><ele>872.9912</ele><time>2026-07-23T20:41:52.000Z</time></trkpt>
        <trkpt lat="29.568586" lon="103.410772"><ele>872.1513</ele><time>2026-07-23T20:41:54.000Z</time></trkpt>
        <trkpt lat="29.568594" lon="103.41075"><ele>872.3104</ele><time>2026-07-23T20:41:56.000Z</time></trkpt>
        <trkpt lat="29.568605" lon="103.410723"><ele>871.9548</ele><time>2026-07-23T20:41:58.000Z</time></trkpt>
        <trkpt lat="29.568614" lon="103.410699"><ele>871.8339</ele><time>2026-07-23T20:42:00.000Z</time></trkpt>
        <trkpt lat="29.56862" lon="103.410679"><ele>872.5104</ele><time>2026-07-23T20:42:02.000Z</time></trkpt>
        <trkpt lat="29.568625" lon="103.41066"><ele>872.9608</ele><time>2026-07-23T20:42:04.000Z</time></trkpt>
        <trkpt lat="29.568626" lon="103.410641"><ele>873.58746</ele><time>2026-07-23T20:42:06.000Z</time></trkpt>
        <trkpt lat="29.568627" lon="103.410628"><ele>874.2336</ele><time>2026-07-23T20:42:08.000Z</time></trkpt>
        <trkpt lat="29.568629" lon="103.410612"><ele>873.9916</ele><time>2026-07-23T20:42:10.000Z</time></trkpt>
        <trkpt lat="29.568631" lon="103.410601"><ele>873.90594</ele><time>2026-07-23T20:42:12.000Z</time></trkpt>
        <trkpt lat="29.568632" lon="103.410588"><ele>873.4052</ele><time>2026-07-23T20:42:14.000Z</time></trkpt>
        <trkpt lat="29.568633" lon="103.410571"><ele>873.00616</ele><time>2026-07-23T20:42:16.000Z</time></trkpt>
        <trkpt lat="29.568636" lon="103.410549"><ele>873.4066</ele><time>2026-07-23T20:42:18.000Z</time></trkpt>
        <trkpt lat="29.568639" lon="103.410526"><ele>873.1077</ele><time>2026-07-23T20:42:20.000Z</time></trkpt>
        <trkpt lat="29.568641" lon="103.410503"><ele>872.3468</ele><time>2026-07-23T20:42:22.000Z</time></trkpt>
        <trkpt lat="29.568644" lon="103.410477"><ele>872.86414</ele><time>2026-07-23T20:42:24.000Z</time></trkpt>
        <trkpt lat="29.568647" lon="103.41045"><ele>873.518</ele><time>2026-07-23T20:42:26.000Z</time></trkpt>
        <trkpt lat="29.568647" lon="103.410422"><ele>872.9721</ele><time>2026-07-23T20:42:28.000Z</time></trkpt>
        <trkpt lat="29.568646" lon="103.410393"><ele>872.8193</ele><time>2026-07-23T20:42:30.000Z</time></trkpt>
        <trkpt lat="29.568643" lon="103.410365"><ele>872.38495</ele><time>2026-07-23T20:42:32.000Z</time></trkpt>
        <trkpt lat="29.568639" lon="103.410338"><ele>872.0536</ele><time>2026-07-23T20:42:34.000Z</time></trkpt>
        <trkpt lat="29.568633" lon="103.410309"><ele>871.3329</ele><time>2026-07-23T20:42:36.000Z</time></trkpt>
        <trkpt lat="29.568628" lon="103.41028"><ele>871.0323</ele><time>2026-07-23T20:42:38.000Z</time></trkpt>
        <trkpt lat="29.568625" lon="103.410253"><ele>871.0565</ele><time>2026-07-23T20:42:40.000Z</time></trkpt>
        <trkpt lat="29.568626" lon="103.410227"><ele>870.8333</ele><time>2026-07-23T20:42:42.000Z</time></trkpt>
        <trkpt lat="29.56863" lon="103.410203"><ele>871.1322</ele><time>2026-07-23T20:42:44.000Z</time></trkpt>
        <trkpt lat="29.568636" lon="103.410177"><ele>870.8531</ele><time>2026-07-23T20:42:46.000Z</time></trkpt>
        <trkpt lat="29.568641" lon="103.41015"><ele>870.35114</ele><time>2026-07-23T20:42:48.000Z</time></trkpt>
        <trkpt lat="29.568643" lon="103.410122"><ele>870.49194</ele><time>2026-07-23T20:42:50.000Z</time></trkpt>
        <trkpt lat="29.568641" lon="103.410096"><ele>870.14795</ele><time>2026-07-23T20:42:52.000Z</time></trkpt>
        <trkpt lat="29.568631" lon="103.410079"><ele>869.977</ele><time>2026-07-23T20:42:54.000Z</time></trkpt>
        <trkpt lat="29.568617" lon="103.410066"><ele>870.9252</ele><time>2026-07-23T20:42:56.000Z</time></trkpt>
        <trkpt lat="29.568603" lon="103.410058"><ele>870.8135</ele><time>2026-07-23T20:42:58.000Z</time></trkpt>
        <trkpt lat="29.568591" lon="103.410052"><ele>870.9812</ele><time>2026-07-23T20:43:00.000Z</time></trkpt>
        <trkpt lat="29.568579" lon="103.410046"><ele>871.0812</ele><time>2026-07-23T20:43:02.000Z</time></trkpt>
        <trkpt lat="29.568563" lon="103.410039"><ele>871.73157</ele><time>2026-07-23T20:43:04.000Z</time></trkpt>
        <trkpt lat="29.568548" lon="103.410032"><ele>871.4731</ele><time>2026-07-23T20:43:06.000Z</time></trkpt>
        <trkpt lat="29.568534" lon="103.410023"><ele>871.375</ele><time>2026-07-23T20:43:08.000Z</time></trkpt>
        <trkpt lat="29.56852" lon="103.410014"><ele>870.8742</ele><time>2026-07-23T20:43:10.000Z</time></trkpt>
        <trkpt lat="29.568507" lon="103.410003"><ele>871.3777</ele><time>2026-07-23T20:43:12.000Z</time></trkpt>
        <trkpt lat="29.568493" lon="103.409993"><ele>871.2185</ele><time>2026-07-23T20:43:14.000Z</time></trkpt>
        <trkpt lat="29.568479" lon="103.409988"><ele>870.5611</ele><time>2026-07-23T20:43:16.000Z</time></trkpt>
        <trkpt lat="29.56847" lon="103.409991"><ele>869.8221</ele><time>2026-07-23T20:43:18.000Z</time></trkpt>
        <trkpt lat="29.568462" lon="103.409997"><ele>869.3594</ele><time>2026-07-23T20:43:20.000Z</time></trkpt>
        <trkpt lat="29.568454" lon="103.410001"><ele>869.0338</ele><time>2026-07-23T20:43:22.000Z</time></trkpt>
        <trkpt lat="29.56844" lon="103.410001"><ele>868.63</ele><time>2026-07-23T20:43:24.000Z</time></trkpt>
        <trkpt lat="29.568427" lon="103.409996"><ele>868.15063</ele><time>2026-07-23T20:43:26.000Z</time></trkpt>
        <trkpt lat="29.568413" lon="103.409986"><ele>868.3158</ele><time>2026-07-23T20:43:28.000Z</time></trkpt>
        <trkpt lat="29.568402" lon="103.409971"><ele>867.7643</ele><time>2026-07-23T20:43:30.000Z</time></trkpt>
        <trkpt lat="29.568391" lon="103.409953"><ele>867.6982</ele><time>2026-07-23T20:43:32.000Z</time></trkpt>
        <trkpt lat="29.568379" lon="103.409935"><ele>868.41705</ele><time>2026-07-23T20:43:34.000Z</time></trkpt>
        <trkpt lat="29.568369" lon="103.409916"><ele>868.4526</ele><time>2026-07-23T20:43:36.000Z</time></trkpt>
        <trkpt lat="29.56836" lon="103.409896"><ele>868.2576</ele><time>2026-07-23T20:43:38.000Z</time></trkpt>
        <trkpt lat="29.568352" lon="103.409879"><ele>868.3116</ele><time>2026-07-23T20:43:40.000Z</time></trkpt>
        <trkpt lat="29.568345" lon="103.409866"><ele>867.814</ele><time>2026-07-23T20:43:42.000Z</time></trkpt>
        <trkpt lat="29.568339" lon="103.409856"><ele>867.6388</ele><time>2026-07-23T20:43:44.000Z</time></trkpt>
        <trkpt lat="29.568334" lon="103.409845"><ele>867.2577</ele><time>2026-07-23T20:43:46.000Z</time></trkpt>
        <trkpt lat="29.568332" lon="103.409837"><ele>866.8182</ele><time>2026-07-23T20:43:48.000Z</time></trkpt>
        <trkpt lat="29.568331" lon="103.409837"><ele>865.9243</ele><time>2026-07-23T20:43:50.000Z</time></trkpt>
        <trkpt lat="29.568313" lon="103.409834"><ele>864.61914</ele><time>2026-07-23T20:44:04.000Z</time></trkpt>
        <trkpt lat="29.568313" lon="103.409832"><ele>864.71075</ele><time>2026-07-23T20:44:06.000Z</time></trkpt>
        <trkpt lat="29.568306" lon="103.409805"><ele>863.72363</ele><time>2026-07-23T20:44:08.000Z</time></trkpt>
        <trkpt lat="29.568306" lon="103.409802"><ele>863.22076</ele><time>2026-07-23T20:44:10.000Z</time></trkpt>
        <trkpt lat="29.568304" lon="103.409798"><ele>863.6413</ele><time>2026-07-23T20:44:12.000Z</time></trkpt>
        <trkpt lat="29.568291" lon="103.409763"><ele>863.2118</ele><time>2026-07-23T20:44:16.000Z</time></trkpt>
        <trkpt lat="29.568284" lon="103.409741"><ele>862.7004</ele><time>2026-07-23T20:44:18.000Z</time></trkpt>
        <trkpt lat="29.568279" lon="103.40972"><ele>862.78845</ele><time>2026-07-23T20:44:20.000Z</time></trkpt>
        <trkpt lat="29.568275" lon="103.409709"><ele>863.38947</ele><time>2026-07-23T20:44:22.000Z</time></trkpt>
        <trkpt lat="29.568273" lon="103.409701"><ele>863.57306</ele><time>2026-07-23T20:44:24.000Z</time></trkpt>
        <trkpt lat="29.568274" lon="103.409694"><ele>862.9338</ele><time>2026-07-23T20:44:28.000Z</time></trkpt>
        <trkpt lat="29.568274" lon="103.40968"><ele>862.2751</ele><time>2026-07-23T20:44:36.000Z</time></trkpt>
        <trkpt lat="29.568273" lon="103.409673"><ele>861.1678</ele><time>2026-07-23T20:44:38.000Z</time></trkpt>
        <trkpt lat="29.568268" lon="103.409653"><ele>862.0732</ele><time>2026-07-23T20:44:40.000Z</time></trkpt>
        <trkpt lat="29.568268" lon="103.409652"><ele>861.8909</ele><time>2026-07-23T20:44:42.000Z</time></trkpt>
        <trkpt lat="29.568264" lon="103.409633"><ele>860.494</ele><time>2026-07-23T20:44:46.000Z</time></trkpt>
        <trkpt lat="29.568261" lon="103.409615"><ele>860.0338</ele><time>2026-07-23T20:44:48.000Z</time></trkpt>
        <trkpt lat="29.568257" lon="103.409595"><ele>859.43854</ele><time>2026-07-23T20:44:50.000Z</time></trkpt>
        <trkpt lat="29.568254" lon="103.409579"><ele>859.6836</ele><time>2026-07-23T20:44:52.000Z</time></trkpt>
        <trkpt lat="29.568249" lon="103.409567"><ele>859.2517</ele><time>2026-07-23T20:44:54.000Z</time></trkpt>
        <trkpt lat="29.568245" lon="103.409557"><ele>858.57916</ele><time>2026-07-23T20:44:56.000Z</time></trkpt>
        <trkpt lat="29.568241" lon="103.409548"><ele>858.078</ele><time>2026-07-23T20:44:58.000Z</time></trkpt>
        <trkpt lat="29.568236" lon="103.409537"><ele>856.9482</ele><time>2026-07-23T20:45:02.000Z</time></trkpt>
        <trkpt lat="29.56823" lon="103.409524"><ele>856.3805</ele><time>2026-07-23T20:45:04.000Z</time></trkpt>
        <trkpt lat="29.568229" lon="103.409523"><ele>856.543</ele><time>2026-07-23T20:45:06.000Z</time></trkpt>
        <trkpt lat="29.568224" lon="103.409513"><ele>856.4706</ele><time>2026-07-23T20:45:10.000Z</time></trkpt>
        <trkpt lat="29.568212" lon="103.409491"><ele>856.1737</ele><time>2026-07-23T20:45:12.000Z</time></trkpt>
        <trkpt lat="29.568211" lon="103.40949"><ele>854.6738</ele><time>2026-07-23T20:45:14.000Z</time></trkpt>
        <trkpt lat="29.568209" lon="103.409485"><ele>854.49603</ele><time>2026-07-23T20:45:16.000Z</time></trkpt>
        <trkpt lat="29.568188" lon="103.409447"><ele>854.6482</ele><time>2026-07-23T20:45:20.000Z</time></trkpt>
        <trkpt lat="29.568181" lon="103.409431"><ele>854.12213</ele><time>2026-07-23T20:45:22.000Z</time></trkpt>
        <trkpt lat="29.568175" lon="103.409417"><ele>854.1671</ele><time>2026-07-23T20:45:24.000Z</time></trkpt>
        <trkpt lat="29.568168" lon="103.409402"><ele>854.06464</ele><time>2026-07-23T20:45:26.000Z</time></trkpt>
        <trkpt lat="29.568164" lon="103.409392"><ele>852.9553</ele><time>2026-07-23T20:45:28.000Z</time></trkpt>
        <trkpt lat="29.568161" lon="103.409386"><ele>851.9433</ele><time>2026-07-23T20:45:30.000Z</time></trkpt>
        <trkpt lat="29.568156" lon="103.409375"><ele>851.3808</ele><time>2026-07-23T20:45:32.000Z</time></trkpt>
        <trkpt lat="29.568148" lon="103.409357"><ele>851.11676</ele><time>2026-07-23T20:45:34.000Z</time></trkpt>
        <trkpt lat="29.568147" lon="103.409356"><ele>850.29834</ele><time>2026-07-23T20:45:36.000Z</time></trkpt>
        <trkpt lat="29.568137" lon="103.409347"><ele>850.3031</ele><time>2026-07-23T20:45:40.000Z</time></trkpt>
        <trkpt lat="29.568124" lon="103.409334"><ele>851.0434</ele><time>2026-07-23T20:45:42.000Z</time></trkpt>
        <trkpt lat="29.568114" lon="103.409322"><ele>850.845</ele><time>2026-07-23T20:45:44.000Z</time></trkpt>
        <trkpt lat="29.568112" lon="103.409315"><ele>850.787</ele><time>2026-07-23T20:45:46.000Z</time></trkpt>
        <trkpt lat="29.56811" lon="103.409304"><ele>849.30035</ele><time>2026-07-23T20:45:48.000Z</time></trkpt>
        <trkpt lat="29.568104" lon="103.409287"><ele>848.2915</ele><time>2026-07-23T20:45:50.000Z</time></trkpt>
        <trkpt lat="29.568095" lon="103.409269"><ele>848.79114</ele><time>2026-07-23T20:45:52.000Z</time></trkpt>
        <trkpt lat="29.568085" lon="103.409248"><ele>848.36237</ele><time>2026-07-23T20:45:54.000Z</time></trkpt>
        <trkpt lat="29.568078" lon="103.409232"><ele>847.99774</ele><time>2026-07-23T20:45:56.000Z</time></trkpt>
        <trkpt lat="29.568073" lon="103.409219"><ele>847.55194</ele><time>2026-07-23T20:45:58.000Z</time></trkpt>
        <trkpt lat="29.56807" lon="103.409204"><ele>845.99304</ele><time>2026-07-23T20:46:00.000Z</time></trkpt>
        <trkpt lat="29.568067" lon="103.409188"><ele>845.54724</ele><time>2026-07-23T20:46:02.000Z</time></trkpt>
        <trkpt lat="29.568064" lon="103.409176"><ele>844.93646</ele><time>2026-07-23T20:46:04.000Z</time></trkpt>
        <trkpt lat="29.568059" lon="103.409162"><ele>844.3783</ele><time>2026-07-23T20:46:06.000Z</time></trkpt>
        <trkpt lat="29.568055" lon="103.409154"><ele>844.31433</ele><time>2026-07-23T20:46:08.000Z</time></trkpt>
        <trkpt lat="29.568051" lon="103.409153"><ele>844.12213</ele><time>2026-07-23T20:46:10.000Z</time></trkpt>
        <trkpt lat="29.568039" lon="103.409147"><ele>844.7502</ele><time>2026-07-23T20:46:18.000Z</time></trkpt>
        <trkpt lat="29.568037" lon="103.409143"><ele>844.0666</ele><time>2026-07-23T20:46:20.000Z</time></trkpt>
        <trkpt lat="29.568026" lon="103.409122"><ele>844.6941</ele><time>2026-07-23T20:46:22.000Z</time></trkpt>
        <trkpt lat="29.568025" lon="103.40912"><ele>843.5712</ele><time>2026-07-23T20:46:24.000Z</time></trkpt>
        <trkpt lat="29.568018" lon="103.409107"><ele>842.03485</ele><time>2026-07-23T20:46:28.000Z</time></trkpt>
        <trkpt lat="29.568008" lon="103.409091"><ele>841.93756</ele><time>2026-07-23T20:46:30.000Z</time></trkpt>
        <trkpt lat="29.567999" lon="103.409075"><ele>841.98285</ele><time>2026-07-23T20:46:32.000Z</time></trkpt>
        <trkpt lat="29.567992" lon="103.409064"><ele>840.7513</ele><time>2026-07-23T20:46:34.000Z</time></trkpt>
        <trkpt lat="29.567988" lon="103.409055"><ele>839.2516</ele><time>2026-07-23T20:46:36.000Z</time></trkpt>
        <trkpt lat="29.567986" lon="103.409049"><ele>838.99304</ele><time>2026-07-23T20:46:38.000Z</time></trkpt>
        <trkpt lat="29.56798" lon="103.409037"><ele>836.9682</ele><time>2026-07-23T20:46:44.000Z</time></trkpt>
        <trkpt lat="29.567976" lon="103.40903"><ele>837.5594</ele><time>2026-07-23T20:46:46.000Z</time></trkpt>
        <trkpt lat="29.567967" lon="103.409015"><ele>836.99963</ele><time>2026-07-23T20:46:48.000Z</time></trkpt>
        <trkpt lat="29.567966" lon="103.409013"><ele>837.05273</ele><time>2026-07-23T20:46:50.000Z</time></trkpt>
        <trkpt lat="29.56796" lon="103.408995"><ele>837.84534</ele><time>2026-07-23T20:46:54.000Z</time></trkpt>
        <trkpt lat="29.567953" lon="103.408979"><ele>837.26404</ele><time>2026-07-23T20:46:56.000Z</time></trkpt>
        <trkpt lat="29.567941" lon="103.408956"><ele>837.64923</ele><time>2026-07-23T20:46:58.000Z</time></trkpt>
        <trkpt lat="29.567932" lon="103.408937"><ele>838.1899</ele><time>2026-07-23T20:47:00.000Z</time></trkpt>
        <trkpt lat="29.567926" lon="103.408922"><ele>837.7837</ele><time>2026-07-23T20:47:02.000Z</time></trkpt>
        <trkpt lat="29.567923" lon="103.408908"><ele>836.8942</ele><time>2026-07-23T20:47:04.000Z</time></trkpt>
        <trkpt lat="29.567921" lon="103.408896"><ele>836.2176</ele><time>2026-07-23T20:47:06.000Z</time></trkpt>
        <trkpt lat="29.567921" lon="103.408889"><ele>834.9819</ele><time>2026-07-23T20:47:08.000Z</time></trkpt>
        <trkpt lat="29.567918" lon="103.408883"><ele>834.4768</ele><time>2026-07-23T20:47:10.000Z</time></trkpt>
        <trkpt lat="29.567912" lon="103.40887"><ele>835.43634</ele><time>2026-07-23T20:47:12.000Z</time></trkpt>
        <trkpt lat="29.567912" lon="103.408869"><ele>836.15393</ele><time>2026-07-23T20:47:14.000Z</time></trkpt>
        <trkpt lat="29.56791" lon="103.408851"><ele>835.54224</ele><time>2026-07-23T20:47:18.000Z</time></trkpt>
        <trkpt lat="29.567909" lon="103.408827"><ele>835.8268</ele><time>2026-07-23T20:47:20.000Z</time></trkpt>
        <trkpt lat="29.567908" lon="103.408795"><ele>836.2101</ele><time>2026-07-23T20:47:22.000Z</time></trkpt>
        <trkpt lat="29.567907" lon="103.408765"><ele>835.5217</ele><time>2026-07-23T20:47:24.000Z</time></trkpt>
        <trkpt lat="29.567906" lon="103.408748"><ele>834.6514</ele><time>2026-07-23T20:47:26.000Z</time></trkpt>
        <trkpt lat="29.567905" lon="103.408737"><ele>833.9964</ele><time>2026-07-23T20:47:28.000Z</time></trkpt>
        <trkpt lat="29.567903" lon="103.40873"><ele>833.072</ele><time>2026-07-23T20:47:30.000Z</time></trkpt>
        <trkpt lat="29.567902" lon="103.408725"><ele>832.39966</ele><time>2026-07-23T20:47:32.000Z</time></trkpt>
        <trkpt lat="29.567896" lon="103.408711"><ele>831.825</ele><time>2026-07-23T20:47:36.000Z</time></trkpt>
        <trkpt lat="29.567885" lon="103.408686"><ele>831.35425</ele><time>2026-07-23T20:47:38.000Z</time></trkpt>
        <trkpt lat="29.567884" lon="103.408685"><ele>830.6536</ele><time>2026-07-23T20:47:40.000Z</time></trkpt>
        <trkpt lat="29.567883" lon="103.408683"><ele>830.04675</ele><time>2026-07-23T20:47:42.000Z</time></trkpt>
        <trkpt lat="29.56787" lon="103.408671"><ele>828.461</ele><time>2026-07-23T20:47:50.000Z</time></trkpt>
        <trkpt lat="29.567868" lon="103.408669"><ele>828.15564</ele><time>2026-07-23T20:47:54.000Z</time></trkpt>
        <trkpt lat="29.567867" lon="103.408668"><ele>827.6011</ele><time>2026-07-23T20:47:56.000Z</time></trkpt>
        <trkpt lat="29.567851" lon="103.408649"><ele>827.71625</ele><time>2026-07-23T20:47:59.000Z</time></trkpt>
        <trkpt lat="29.567836" lon="103.408632"><ele>827.4338</ele><time>2026-07-23T20:48:01.000Z</time></trkpt>
        <trkpt lat="29.567835" lon="103.40863"><ele>826.93555</ele><time>2026-07-23T20:48:03.000Z</time></trkpt>
        <trkpt lat="29.567827" lon="103.408618"><ele>825.79755</ele><time>2026-07-23T20:48:07.000Z</time></trkpt>
        <trkpt lat="29.567821" lon="103.408607"><ele>825.44324</ele><time>2026-07-23T20:48:09.000Z</time></trkpt>
        <trkpt lat="29.567814" lon="103.408594"><ele>825.22455</ele><time>2026-07-23T20:48:11.000Z</time></trkpt>
        <trkpt lat="29.567809" lon="103.408586"><ele>824.86334</ele><time>2026-07-23T20:48:13.000Z</time></trkpt>
        <trkpt lat="29.567802" lon="103.408577"><ele>825.27875</ele><time>2026-07-23T20:48:15.000Z</time></trkpt>
        <trkpt lat="29.567796" lon="103.408569"><ele>824.81775</ele><time>2026-07-23T20:48:17.000Z</time></trkpt>
        <trkpt lat="29.567788" lon="103.408556"><ele>824.5715</ele><time>2026-07-23T20:48:19.000Z</time></trkpt>
        <trkpt lat="29.567778" lon="103.408541"><ele>824.6904</ele><time>2026-07-23T20:48:21.000Z</time></trkpt>
        <trkpt lat="29.567769" lon="103.408528"><ele>823.9309</ele><time>2026-07-23T20:48:23.000Z</time></trkpt>
        <trkpt lat="29.567762" lon="103.408519"><ele>823.7401</ele><time>2026-07-23T20:48:25.000Z</time></trkpt>
        <trkpt lat="29.567755" lon="103.40851"><ele>824.56976</ele><time>2026-07-23T20:48:27.000Z</time></trkpt>
        <trkpt lat="29.567748" lon="103.408504"><ele>824.51654</ele><time>2026-07-23T20:48:29.000Z</time></trkpt>
        <trkpt lat="29.567741" lon="103.4085"><ele>824.24</ele><time>2026-07-23T20:48:31.000Z</time></trkpt>
        <trkpt lat="29.567721" lon="103.408493"><ele>823.8274</ele><time>2026-07-23T20:48:35.000Z</time></trkpt>
        <trkpt lat="29.567712" lon="103.408491"><ele>823.28864</ele><time>2026-07-23T20:48:37.000Z</time></trkpt>
        <trkpt lat="29.567703" lon="103.408488"><ele>823.02734</ele><time>2026-07-23T20:48:39.000Z</time></trkpt>
        <trkpt lat="29.567691" lon="103.408484"><ele>822.22504</ele><time>2026-07-23T20:48:41.000Z</time></trkpt>
        <trkpt lat="29.567676" lon="103.40848"><ele>822.5146</ele><time>2026-07-23T20:48:43.000Z</time></trkpt>
        <trkpt lat="29.567664" lon="103.408476"><ele>822.4364</ele><time>2026-07-23T20:48:45.000Z</time></trkpt>
        <trkpt lat="29.567655" lon="103.40847"><ele>822.652</ele><time>2026-07-23T20:48:47.000Z</time></trkpt>
        <trkpt lat="29.567646" lon="103.408464"><ele>821.8634</ele><time>2026-07-23T20:48:49.000Z</time></trkpt>
        <trkpt lat="29.567639" lon="103.408463"><ele>821.5033</ele><time>2026-07-23T20:48:51.000Z</time></trkpt>
        <trkpt lat="29.567623" lon="103.408466"><ele>820.7152</ele><time>2026-07-23T20:48:55.000Z</time></trkpt>
        <trkpt lat="29.567623" lon="103.408467"><ele>820.714</ele><time>2026-07-23T20:48:57.000Z</time></trkpt>
        <trkpt lat="29.567622" lon="103.408482"><ele>820.6194</ele><time>2026-07-23T20:49:03.000Z</time></trkpt>
        <trkpt lat="29.56762" lon="103.408489"><ele>820.51434</ele><time>2026-07-23T20:49:05.000Z</time></trkpt>
        <trkpt lat="29.567615" lon="103.408502"><ele>819.88354</ele><time>2026-07-23T20:49:07.000Z</time></trkpt>
        <trkpt lat="29.567611" lon="103.408517"><ele>819.4743</ele><time>2026-07-23T20:49:13.000Z</time></trkpt>
        <trkpt lat="29.567609" lon="103.408527"><ele>820.6618</ele><time>2026-07-23T20:49:15.000Z</time></trkpt>
        <trkpt lat="29.56761" lon="103.408532"><ele>821.3678</ele><time>2026-07-23T20:49:17.000Z</time></trkpt>
        <trkpt lat="29.567614" lon="103.408542"><ele>822.29816</ele><time>2026-07-23T20:49:25.000Z</time></trkpt>
        <trkpt lat="29.567616" lon="103.40855"><ele>821.4983</ele><time>2026-07-23T20:49:29.000Z</time></trkpt>
        <trkpt lat="29.567614" lon="103.408556"><ele>820.88696</ele><time>2026-07-23T20:49:33.000Z</time></trkpt>
        <trkpt lat="29.567603" lon="103.408575"><ele>820.4783</ele><time>2026-07-23T20:49:39.000Z</time></trkpt>
        <trkpt lat="29.567599" lon="103.408581"><ele>819.6327</ele><time>2026-07-23T20:49:41.000Z</time></trkpt>
        <trkpt lat="29.567594" lon="103.408588"><ele>819.3813</ele><time>2026-07-23T20:49:43.000Z</time></trkpt>
        <trkpt lat="29.567579" lon="103.408614"><ele>818.8783</ele><time>2026-07-23T20:49:55.000Z</time></trkpt>
        <trkpt lat="29.567574" lon="103.408619"><ele>818.82306</ele><time>2026-07-23T20:49:57.000Z</time></trkpt>
        <trkpt lat="29.567562" lon="103.408631"><ele>819.19073</ele><time>2026-07-23T20:49:59.000Z</time></trkpt>
        <trkpt lat="29.567531" lon="103.408654"><ele>818.34235</ele><time>2026-07-23T20:50:09.000Z</time></trkpt>
        <trkpt lat="29.567516" lon="103.408661"><ele>817.0376</ele><time>2026-07-23T20:50:11.000Z</time></trkpt>
        <trkpt lat="29.567495" lon="103.408668"><ele>817.6329</ele><time>2026-07-23T20:50:13.000Z</time></trkpt>
        <trkpt lat="29.567473" lon="103.40867"><ele>817.64307</ele><time>2026-07-23T20:50:15.000Z</time></trkpt>
        <trkpt lat="29.56745" lon="103.408668"><ele>817.6186</ele><time>2026-07-23T20:50:17.000Z</time></trkpt>
        <trkpt lat="29.567428" lon="103.408661"><ele>817.36926</ele><time>2026-07-23T20:50:19.000Z</time></trkpt>
        <trkpt lat="29.567407" lon="103.408652"><ele>817.7705</ele><time>2026-07-23T20:50:21.000Z</time></trkpt>
        <trkpt lat="29.567384" lon="103.408641"><ele>819.1276</ele><time>2026-07-23T20:50:23.000Z</time></trkpt>
        <trkpt lat="29.56736" lon="103.408628"><ele>818.93353</ele><time>2026-07-23T20:50:25.000Z</time></trkpt>
        <trkpt lat="29.567339" lon="103.408615"><ele>818.4639</ele><time>2026-07-23T20:50:27.000Z</time></trkpt>
        <trkpt lat="29.567317" lon="103.408601"><ele>818.3309</ele><time>2026-07-23T20:50:29.000Z</time></trkpt>
        <trkpt lat="29.567297" lon="103.408589"><ele>817.998</ele><time>2026-07-23T20:50:31.000Z</time></trkpt>
        <trkpt lat="29.567277" lon="103.408577"><ele>817.7156</ele><time>2026-07-23T20:50:33.000Z</time></trkpt>
        <trkpt lat="29.567258" lon="103.408566"><ele>817.2542</ele><time>2026-07-23T20:50:35.000Z</time></trkpt>
        <trkpt lat="29.567239" lon="103.408556"><ele>817.264</ele><time>2026-07-23T20:50:37.000Z</time></trkpt>
        <trkpt lat="29.567222" lon="103.408544"><ele>816.5777</ele><time>2026-07-23T20:50:39.000Z</time></trkpt>
        <trkpt lat="29.567206" lon="103.408531"><ele>815.52765</ele><time>2026-07-23T20:50:41.000Z</time></trkpt>
        <trkpt lat="29.567187" lon="103.408518"><ele>815.1856</ele><time>2026-07-23T20:50:43.000Z</time></trkpt>
        <trkpt lat="29.567167" lon="103.408507"><ele>814.6922</ele><time>2026-07-23T20:50:45.000Z</time></trkpt>
        <trkpt lat="29.567147" lon="103.408499"><ele>814.7062</ele><time>2026-07-23T20:50:47.000Z</time></trkpt>
        <trkpt lat="29.567126" lon="103.408491"><ele>814.2603</ele><time>2026-07-23T20:50:49.000Z</time></trkpt>
        <trkpt lat="29.567107" lon="103.408482"><ele>813.88586</ele><time>2026-07-23T20:50:51.000Z</time></trkpt>
        <trkpt lat="29.567086" lon="103.408474"><ele>814.1563</ele><time>2026-07-23T20:50:53.000Z</time></trkpt>
        <trkpt lat="29.567065" lon="103.408469"><ele>814.3115</ele><time>2026-07-23T20:50:55.000Z</time></trkpt>
        <trkpt lat="29.567044" lon="103.408466"><ele>814.5227</ele><time>2026-07-23T20:50:57.000Z</time></trkpt>
        <trkpt lat="29.567024" lon="103.408465"><ele>814.9213</ele><time>2026-07-23T20:50:59.000Z</time></trkpt>
        <trkpt lat="29.567004" lon="103.408465"><ele>814.7714</ele><time>2026-07-23T20:51:01.000Z</time></trkpt>
        <trkpt lat="29.566983" lon="103.408466"><ele>814.08044</ele><time>2026-07-23T20:51:03.000Z</time></trkpt>
        <trkpt lat="29.566962" lon="103.408469"><ele>814.03503</ele><time>2026-07-23T20:51:05.000Z</time></trkpt>
        <trkpt lat="29.566939" lon="103.408472"><ele>813.7888</ele><time>2026-07-23T20:51:07.000Z</time></trkpt>
        <trkpt lat="29.566917" lon="103.408474"><ele>813.54834</ele><time>2026-07-23T20:51:09.000Z</time></trkpt>
        <trkpt lat="29.566893" lon="103.408475"><ele>813.8825</ele><time>2026-07-23T20:51:11.000Z</time></trkpt>
        <trkpt lat="29.56687" lon="103.408476"><ele>814.2414</ele><time>2026-07-23T20:51:13.000Z</time></trkpt>
        <trkpt lat="29.566847" lon="103.408476"><ele>814.893</ele><time>2026-07-23T20:51:15.000Z</time></trkpt>
        <trkpt lat="29.566824" lon="103.408476"><ele>815.2849</ele><time>2026-07-23T20:51:17.000Z</time></trkpt>
        <trkpt lat="29.566799" lon="103.408475"><ele>815.5461</ele><time>2026-07-23T20:51:19.000Z</time></trkpt>
        <trkpt lat="29.566773" lon="103.408474"><ele>815.2176</ele><time>2026-07-23T20:51:21.000Z</time></trkpt>
        <trkpt lat="29.56675" lon="103.40847"><ele>815.476</ele><time>2026-07-23T20:51:23.000Z</time></trkpt>
        <trkpt lat="29.566731" lon="103.408463"><ele>815.4348</ele><time>2026-07-23T20:51:25.000Z</time></trkpt>
        <trkpt lat="29.566715" lon="103.408449"><ele>816.0612</ele><time>2026-07-23T20:51:27.000Z</time></trkpt>
        <trkpt lat="29.566704" lon="103.408431"><ele>816.1272</ele><time>2026-07-23T20:51:29.000Z</time></trkpt>
        <trkpt lat="29.566693" lon="103.408405"><ele>816.6386</ele><time>2026-07-23T20:51:31.000Z</time></trkpt>
        <trkpt lat="29.566685" lon="103.408375"><ele>816.8335</ele><time>2026-07-23T20:51:33.000Z</time></trkpt>
        <trkpt lat="29.566682" lon="103.408347"><ele>816.2772</ele><time>2026-07-23T20:51:35.000Z</time></trkpt>
        <trkpt lat="29.566682" lon="103.408316"><ele>815.6943</ele><time>2026-07-23T20:51:37.000Z</time></trkpt>
        <trkpt lat="29.566683" lon="103.408282"><ele>815.80145</ele><time>2026-07-23T20:51:39.000Z</time></trkpt>
        <trkpt lat="29.566688" lon="103.408253"><ele>816.0035</ele><time>2026-07-23T20:51:41.000Z</time></trkpt>
        <trkpt lat="29.566694" lon="103.408228"><ele>816.7108</ele><time>2026-07-23T20:51:43.000Z</time></trkpt>
        <trkpt lat="29.566701" lon="103.408202"><ele>817.5566</ele><time>2026-07-23T20:51:45.000Z</time></trkpt>
        <trkpt lat="29.566709" lon="103.408179"><ele>816.2238</ele><time>2026-07-23T20:51:47.000Z</time></trkpt>
        <trkpt lat="29.566717" lon="103.408156"><ele>816.8822</ele><time>2026-07-23T20:51:49.000Z</time></trkpt>
        <trkpt lat="29.566725" lon="103.408135"><ele>816.17816</ele><time>2026-07-23T20:51:51.000Z</time></trkpt>
        <trkpt lat="29.566731" lon="103.408115"><ele>814.9544</ele><time>2026-07-23T20:51:53.000Z</time></trkpt>
        <trkpt lat="29.566735" lon="103.408093"><ele>814.6567</ele><time>2026-07-23T20:51:55.000Z</time></trkpt>
        <trkpt lat="29.566734" lon="103.408073"><ele>814.0819</ele><time>2026-07-23T20:51:57.000Z</time></trkpt>
        <trkpt lat="29.566732" lon="103.408059"><ele>813.9021</ele><time>2026-07-23T20:51:59.000Z</time></trkpt>
        <trkpt lat="29.566731" lon="103.408059"><ele>815.4027</ele><time>2026-07-23T20:52:01.000Z</time></trkpt>
        <trkpt lat="29.566706" lon="103.40806"><ele>813.71625</ele><time>2026-07-23T20:52:07.000Z</time></trkpt>
        <trkpt lat="29.566702" lon="103.408058"><ele>816.3694</ele><time>2026-07-23T20:52:11.000Z</time></trkpt>
        <trkpt lat="29.566686" lon="103.408048"><ele>815.8507</ele><time>2026-07-23T20:52:13.000Z</time></trkpt>
        <trkpt lat="29.56666" lon="103.408036"><ele>815.8098</ele><time>2026-07-23T20:52:15.000Z</time></trkpt>
        <trkpt lat="29.566634" lon="103.408027"><ele>816.7637</ele><time>2026-07-23T20:52:17.000Z</time></trkpt>
        <trkpt lat="29.566612" lon="103.408024"><ele>815.8395</ele><time>2026-07-23T20:52:19.000Z</time></trkpt>
        <trkpt lat="29.566598" lon="103.408023"><ele>815.7305</ele><time>2026-07-23T20:52:21.000Z</time></trkpt>
        <trkpt lat="29.566587" lon="103.408024"><ele>814.027</ele><time>2026-07-23T20:52:23.000Z</time></trkpt>
      </trkseg>
      <trkseg>
        <trkpt lat="29.566604" lon="103.407943"><ele>816.04614</ele><time>2026-07-23T20:56:18.000Z</time></trkpt>
        <trkpt lat="29.566605" lon="103.407862"><ele>815.8628</ele><time>2026-07-23T20:56:38.000Z</time></trkpt>
        <trkpt lat="29.566596" lon="103.407845"><ele>815.6869</ele><time>2026-07-23T20:56:40.000Z</time></trkpt>
        <trkpt lat="29.566597" lon="103.407844"><ele>815.107</ele><time>2026-07-23T20:56:42.000Z</time></trkpt>
        <trkpt lat="29.566605" lon="103.407776"><ele>813.72955</ele><time>2026-07-23T20:56:50.000Z</time></trkpt>
        <trkpt lat="29.566607" lon="103.407751"><ele>814.0183</ele><time>2026-07-23T20:56:52.000Z</time></trkpt>
        <trkpt lat="29.566611" lon="103.407726"><ele>814.8761</ele><time>2026-07-23T20:56:54.000Z</time></trkpt>
        <trkpt lat="29.566614" lon="103.407702"><ele>814.6403</ele><time>2026-07-23T20:56:55.000Z</time></trkpt>
        <trkpt lat="29.566616" lon="103.407685"><ele>814.5369</ele><time>2026-07-23T20:56:57.000Z</time></trkpt>
        <trkpt lat="29.566615" lon="103.407685"><ele>814.38354</ele><time>2026-07-23T20:56:59.000Z</time></trkpt>
        <trkpt lat="29.566587" lon="103.407668"><ele>816.6797</ele><time>2026-07-23T20:57:19.000Z</time></trkpt>
        <trkpt lat="29.566572" lon="103.407657"><ele>815.8967</ele><time>2026-07-23T20:57:21.000Z</time></trkpt>
        <trkpt lat="29.566572" lon="103.407656"><ele>815.5189</ele><time>2026-07-23T20:57:23.000Z</time></trkpt>
        <trkpt lat="29.566569" lon="103.407634"><ele>815.62915</ele><time>2026-07-23T20:57:30.000Z</time></trkpt>
        <trkpt lat="29.566563" lon="103.407615"><ele>815.67786</ele><time>2026-07-23T20:57:32.000Z</time></trkpt>
        <trkpt lat="29.566554" lon="103.407594"><ele>815.569</ele><time>2026-07-23T20:57:34.000Z</time></trkpt>
        <trkpt lat="29.566542" lon="103.407573"><ele>815.05817</ele><time>2026-07-23T20:57:36.000Z</time></trkpt>
        <trkpt lat="29.566528" lon="103.40755"><ele>814.9108</ele><time>2026-07-23T20:57:38.000Z</time></trkpt>
        <trkpt lat="29.566513" lon="103.407524"><ele>814.9849</ele><time>2026-07-23T20:57:40.000Z</time></trkpt>
        <trkpt lat="29.566501" lon="103.4075"><ele>815.4523</ele><time>2026-07-23T20:57:42.000Z</time></trkpt>
        <trkpt lat="29.566489" lon="103.407476"><ele>815.2041</ele><time>2026-07-23T20:57:44.000Z</time></trkpt>
        <trkpt lat="29.566479" lon="103.407453"><ele>815.21765</ele><time>2026-07-23T20:57:46.000Z</time></trkpt>
        <trkpt lat="29.56647" lon="103.407429"><ele>815.4374</ele><time>2026-07-23T20:57:48.000Z</time></trkpt>
        <trkpt lat="29.566463" lon="103.407403"><ele>815.32434</ele><time>2026-07-23T20:57:50.000Z</time></trkpt>
        <trkpt lat="29.566457" lon="103.407376"><ele>814.8844</ele><time>2026-07-23T20:57:52.000Z</time></trkpt>
        <trkpt lat="29.566451" lon="103.407351"><ele>814.84644</ele><time>2026-07-23T20:57:54.000Z</time></trkpt>
        <trkpt lat="29.566447" lon="103.407327"><ele>814.35767</ele><time>2026-07-23T20:57:56.000Z</time></trkpt>
        <trkpt lat="29.566444" lon="103.407307"><ele>813.7497</ele><time>2026-07-23T20:57:58.000Z</time></trkpt>
        <trkpt lat="29.56644" lon="103.407284"><ele>813.1792</ele><time>2026-07-23T20:58:00.000Z</time></trkpt>
        <trkpt lat="29.566437" lon="103.407265"><ele>813.1857</ele><time>2026-07-23T20:58:02.000Z</time></trkpt>
        <trkpt lat="29.566435" lon="103.407247"><ele>812.96967</ele><time>2026-07-23T20:58:04.000Z</time></trkpt>
        <trkpt lat="29.566433" lon="103.407227"><ele>812.30164</ele><time>2026-07-23T20:58:06.000Z</time></trkpt>
        <trkpt lat="29.566431" lon="103.407203"><ele>812.15454</ele><time>2026-07-23T20:58:08.000Z</time></trkpt>
        <trkpt lat="29.566431" lon="103.40718"><ele>812.037</ele><time>2026-07-23T20:58:10.000Z</time></trkpt>
        <trkpt lat="29.566428" lon="103.407156"><ele>811.81934</ele><time>2026-07-23T20:58:12.000Z</time></trkpt>
        <trkpt lat="29.566424" lon="103.40713"><ele>811.575</ele><time>2026-07-23T20:58:14.000Z</time></trkpt>
        <trkpt lat="29.566419" lon="103.407108"><ele>811.26135</ele><time>2026-07-23T20:58:16.000Z</time></trkpt>
        <trkpt lat="29.566415" lon="103.407089"><ele>811.4072</ele><time>2026-07-23T20:58:18.000Z</time></trkpt>
        <trkpt lat="29.566409" lon="103.407067"><ele>811.19324</ele><time>2026-07-23T20:58:20.000Z</time></trkpt>
        <trkpt lat="29.566403" lon="103.407039"><ele>812.0265</ele><time>2026-07-23T20:58:22.000Z</time></trkpt>
        <trkpt lat="29.566398" lon="103.407013"><ele>811.718</ele><time>2026-07-23T20:58:24.000Z</time></trkpt>
        <trkpt lat="29.566397" lon="103.406992"><ele>811.1527</ele><time>2026-07-23T20:58:26.000Z</time></trkpt>
        <trkpt lat="29.566397" lon="103.406972"><ele>811.6196</ele><time>2026-07-23T20:58:28.000Z</time></trkpt>
        <trkpt lat="29.5664" lon="103.406952"><ele>811.33984</ele><time>2026-07-23T20:58:30.000Z</time></trkpt>
        <trkpt lat="29.566405" lon="103.40693"><ele>811.86066</ele><time>2026-07-23T20:58:32.000Z</time></trkpt>
        <trkpt lat="29.566414" lon="103.406909"><ele>811.80597</ele><time>2026-07-23T20:58:34.000Z</time></trkpt>
        <trkpt lat="29.566426" lon="103.406887"><ele>812.0922</ele><time>2026-07-23T20:58:36.000Z</time></trkpt>
        <trkpt lat="29.56644" lon="103.406865"><ele>812.8313</ele><time>2026-07-23T20:58:38.000Z</time></trkpt>
        <trkpt lat="29.566455" lon="103.406843"><ele>813.07294</ele><time>2026-07-23T20:58:40.000Z</time></trkpt>
        <trkpt lat="29.566475" lon="103.406822"><ele>813.6488</ele><time>2026-07-23T20:58:42.000Z</time></trkpt>
        <trkpt lat="29.566492" lon="103.406807"><ele>813.62885</ele><time>2026-07-23T20:58:44.000Z</time></trkpt>
        <trkpt lat="29.56651" lon="103.406794"><ele>814.2697</ele><time>2026-07-23T20:58:46.000Z</time></trkpt>
        <trkpt lat="29.566533" lon="103.406781"><ele>814.8576</ele><time>2026-07-23T20:58:48.000Z</time></trkpt>
        <trkpt lat="29.566555" lon="103.406773"><ele>815.2954</ele><time>2026-07-23T20:58:50.000Z</time></trkpt>
        <trkpt lat="29.566566" lon="103.406775"><ele>815.7735</ele><time>2026-07-23T20:58:52.000Z</time></trkpt>
        <trkpt lat="29.56658" lon="103.406783"><ele>815.4375</ele><time>2026-07-23T20:58:54.000Z</time></trkpt>
        <trkpt lat="29.566589" lon="103.406793"><ele>814.72754</ele><time>2026-07-23T20:58:56.000Z</time></trkpt>
        <trkpt lat="29.566592" lon="103.406801"><ele>813.82904</ele><time>2026-07-23T20:58:58.000Z</time></trkpt>
        <trkpt lat="29.566596" lon="103.40681"><ele>814.1866</ele><time>2026-07-23T20:59:01.000Z</time></trkpt>
        <trkpt lat="29.566598" lon="103.406811"><ele>814.53186</ele><time>2026-07-23T20:59:03.000Z</time></trkpt>
        <trkpt lat="29.566605" lon="103.406806"><ele>814.58374</ele><time>2026-07-23T20:59:11.000Z</time></trkpt>
        <trkpt lat="29.566613" lon="103.406795"><ele>813.5916</ele><time>2026-07-23T20:59:15.000Z</time></trkpt>
        <trkpt lat="29.566617" lon="103.406794"><ele>814.06586</ele><time>2026-07-23T20:59:17.000Z</time></trkpt>
        <trkpt lat="29.566583" lon="103.40682"><ele>813.8271</ele><time>2026-07-23T20:59:28.000Z</time></trkpt>
        <trkpt lat="29.566565" lon="103.406834"><ele>813.11206</ele><time>2026-07-23T20:59:30.000Z</time></trkpt>
        <trkpt lat="29.566565" lon="103.406836"><ele>813.67456</ele><time>2026-07-23T20:59:32.000Z</time></trkpt>
        <trkpt lat="29.566563" lon="103.406841"><ele>813.88196</ele><time>2026-07-23T20:59:36.000Z</time></trkpt>
        <trkpt lat="29.566581" lon="103.406774"><ele>813.5385</ele><time>2026-07-23T21:00:04.000Z</time></trkpt>
        <trkpt lat="29.56659" lon="103.40674"><ele>813.1316</ele><time>2026-07-23T21:00:06.000Z</time></trkpt>
        <trkpt lat="29.566591" lon="103.406738"><ele>813.08466</ele><time>2026-07-23T21:00:08.000Z</time></trkpt>
        <trkpt lat="29.566619" lon="103.406698"><ele>812.87</ele><time>2026-07-23T21:00:11.000Z</time></trkpt>
        <trkpt lat="29.566619" lon="103.406698"><ele>812.9529</ele><time>2026-07-23T21:00:13.000Z</time></trkpt>
        <trkpt lat="29.566622" lon="103.406692"><ele>812.6613</ele><time>2026-07-23T21:00:15.000Z</time></trkpt>
        <trkpt lat="29.566635" lon="103.406671"><ele>812.6283</ele><time>2026-07-23T21:00:17.000Z</time></trkpt>
        <trkpt lat="29.56666" lon="103.406637"><ele>812.61816</ele><time>2026-07-23T21:00:19.000Z</time></trkpt>
        <trkpt lat="29.566687" lon="103.406606"><ele>812.5448</ele><time>2026-07-23T21:00:21.000Z</time></trkpt>
        <trkpt lat="29.566713" lon="103.406579"><ele>812.3932</ele><time>2026-07-23T21:00:23.000Z</time></trkpt>
        <trkpt lat="29.566735" lon="103.406555"><ele>812.6284</ele><time>2026-07-23T21:00:25.000Z</time></trkpt>
        <trkpt lat="29.566756" lon="103.406534"><ele>812.69147</ele><time>2026-07-23T21:00:27.000Z</time></trkpt>
        <trkpt lat="29.566773" lon="103.406515"><ele>812.2277</ele><time>2026-07-23T21:00:29.000Z</time></trkpt>
        <trkpt lat="29.566789" lon="103.406499"><ele>812.02167</ele><time>2026-07-23T21:00:31.000Z</time></trkpt>
        <trkpt lat="29.566808" lon="103.406483"><ele>811.88074</ele><time>2026-07-23T21:00:33.000Z</time></trkpt>
        <trkpt lat="29.566827" lon="103.406466"><ele>811.7115</ele><time>2026-07-23T21:00:35.000Z</time></trkpt>
        <trkpt lat="29.566843" lon="103.406451"><ele>811.29474</ele><time>2026-07-23T21:00:37.000Z</time></trkpt>
        <trkpt lat="29.566861" lon="103.406433"><ele>811.7232</ele><time>2026-07-23T21:00:39.000Z</time></trkpt>
        <trkpt lat="29.566876" lon="103.406414"><ele>811.0767</ele><time>2026-07-23T21:00:41.000Z</time></trkpt>
        <trkpt lat="29.566889" lon="103.406396"><ele>811.6168</ele><time>2026-07-23T21:00:43.000Z</time></trkpt>
        <trkpt lat="29.5669" lon="103.406377"><ele>812.1203</ele><time>2026-07-23T21:00:45.000Z</time></trkpt>
        <trkpt lat="29.566913" lon="103.406355"><ele>812.4689</ele><time>2026-07-23T21:00:47.000Z</time></trkpt>
        <trkpt lat="29.566923" lon="103.406336"><ele>812.47754</ele><time>2026-07-23T21:00:49.000Z</time></trkpt>
        <trkpt lat="29.566935" lon="103.406319"><ele>812.35175</ele><time>2026-07-23T21:00:51.000Z</time></trkpt>
        <trkpt lat="29.56695" lon="103.406302"><ele>812.19165</ele><time>2026-07-23T21:00:53.000Z</time></trkpt>
        <trkpt lat="29.566964" lon="103.406287"><ele>812.255</ele><time>2026-07-23T21:00:55.000Z</time></trkpt>
        <trkpt lat="29.566975" lon="103.406277"><ele>811.3711</ele><time>2026-07-23T21:00:57.000Z</time></trkpt>
        <trkpt lat="29.566985" lon="103.406268"><ele>811.3424</ele><time>2026-07-23T21:00:59.000Z</time></trkpt>
        <trkpt lat="29.566994" lon="103.406255"><ele>811.11646</ele><time>2026-07-23T21:01:01.000Z</time></trkpt>
        <trkpt lat="29.567003" lon="103.406237"><ele>811.40546</ele><time>2026-07-23T21:01:03.000Z</time></trkpt>
        <trkpt lat="29.567009" lon="103.406217"><ele>811.19476</ele><time>2026-07-23T21:01:05.000Z</time></trkpt>
        <trkpt lat="29.567015" lon="103.406195"><ele>810.723</ele><time>2026-07-23T21:01:07.000Z</time></trkpt>
        <trkpt lat="29.567019" lon="103.406169"><ele>809.9319</ele><time>2026-07-23T21:01:09.000Z</time></trkpt>
        <trkpt lat="29.567023" lon="103.406139"><ele>809.85406</ele><time>2026-07-23T21:01:11.000Z</time></trkpt>
        <trkpt lat="29.567029" lon="103.406107"><ele>809.9287</ele><time>2026-07-23T21:01:13.000Z</time></trkpt>
        <trkpt lat="29.567036" lon="103.406073"><ele>809.32605</ele><time>2026-07-23T21:01:15.000Z</time></trkpt>
        <trkpt lat="29.567044" lon="103.406041"><ele>808.9395</ele><time>2026-07-23T21:01:17.000Z</time></trkpt>
        <trkpt lat="29.567056" lon="103.406014"><ele>807.95703</ele><time>2026-07-23T21:01:19.000Z</time></trkpt>
        <trkpt lat="29.567068" lon="103.405991"><ele>807.5589</ele><time>2026-07-23T21:01:21.000Z</time></trkpt>
        <trkpt lat="29.56708" lon="103.405969"><ele>806.91</ele><time>2026-07-23T21:01:23.000Z</time></trkpt>
        <trkpt lat="29.567092" lon="103.405945"><ele>806.22644</ele><time>2026-07-23T21:01:25.000Z</time></trkpt>
        <trkpt lat="29.567101" lon="103.405923"><ele>805.6802</ele><time>2026-07-23T21:01:27.000Z</time></trkpt>
        <trkpt lat="29.567108" lon="103.405896"><ele>805.58124</ele><time>2026-07-23T21:01:29.000Z</time></trkpt>
        <trkpt lat="29.567111" lon="103.405868"><ele>805.72266</ele><time>2026-07-23T21:01:31.000Z</time></trkpt>
        <trkpt lat="29.567111" lon="103.405841"><ele>805.7728</ele><time>2026-07-23T21:01:33.000Z</time></trkpt>
        <trkpt lat="29.567108" lon="103.405816"><ele>805.2791</ele><time>2026-07-23T21:01:35.000Z</time></trkpt>
        <trkpt lat="29.5671" lon="103.405797"><ele>804.6701</ele><time>2026-07-23T21:01:37.000Z</time></trkpt>
        <trkpt lat="29.567087" lon="103.405779"><ele>804.3592</ele><time>2026-07-23T21:01:39.000Z</time></trkpt>
        <trkpt lat="29.567072" lon="103.40576"><ele>803.743</ele><time>2026-07-23T21:01:41.000Z</time></trkpt>
        <trkpt lat="29.567057" lon="103.405742"><ele>804.132</ele><time>2026-07-23T21:01:43.000Z</time></trkpt>
        <trkpt lat="29.567042" lon="103.405727"><ele>805.1871</ele><time>2026-07-23T21:01:45.000Z</time></trkpt>
        <trkpt lat="29.567027" lon="103.40571"><ele>804.65625</ele><time>2026-07-23T21:01:47.000Z</time></trkpt>
        <trkpt lat="29.567012" lon="103.405698"><ele>805.0115</ele><time>2026-07-23T21:01:49.000Z</time></trkpt>
        <trkpt lat="29.566997" lon="103.405683"><ele>805.29236</ele><time>2026-07-23T21:01:51.000Z</time></trkpt>
        <trkpt lat="29.566982" lon="103.405666"><ele>804.623</ele><time>2026-07-23T21:01:53.000Z</time></trkpt>
        <trkpt lat="29.566969" lon="103.405648"><ele>803.60455</ele><time>2026-07-23T21:01:55.000Z</time></trkpt>
        <trkpt lat="29.566957" lon="103.405632"><ele>803.30585</ele><time>2026-07-23T21:01:57.000Z</time></trkpt>
        <trkpt lat="29.566946" lon="103.405617"><ele>802.745</ele><time>2026-07-23T21:01:59.000Z</time></trkpt>
        <trkpt lat="29.566935" lon="103.405602"><ele>802.57965</ele><time>2026-07-23T21:02:01.000Z</time></trkpt>
        <trkpt lat="29.566922" lon="103.405588"><ele>802.1493</ele><time>2026-07-23T21:02:03.000Z</time></trkpt>
        <trkpt lat="29.56691" lon="103.405572"><ele>801.66205</ele><time>2026-07-23T21:02:05.000Z</time></trkpt>
        <trkpt lat="29.566899" lon="103.405556"><ele>801.02246</ele><time>2026-07-23T21:02:07.000Z</time></trkpt>
        <trkpt lat="29.566885" lon="103.405536"><ele>801.13995</ele><time>2026-07-23T21:02:09.000Z</time></trkpt>
        <trkpt lat="29.56687" lon="103.405512"><ele>801.7761</ele><time>2026-07-23T21:02:11.000Z</time></trkpt>
        <trkpt lat="29.566853" lon="103.40549"><ele>802.0893</ele><time>2026-07-23T21:02:13.000Z</time></trkpt>
        <trkpt lat="29.566835" lon="103.40547"><ele>802.71045</ele><time>2026-07-23T21:02:15.000Z</time></trkpt>
        <trkpt lat="29.566816" lon="103.405453"><ele>802.801</ele><time>2026-07-23T21:02:17.000Z</time></trkpt>
        <trkpt lat="29.566799" lon="103.405438"><ele>802.8149</ele><time>2026-07-23T21:02:19.000Z</time></trkpt>
        <trkpt lat="29.566779" lon="103.405421"><ele>802.7862</ele><time>2026-07-23T21:02:21.000Z</time></trkpt>
        <trkpt lat="29.56676" lon="103.4054"><ele>802.4486</ele><time>2026-07-23T21:02:23.000Z</time></trkpt>
        <trkpt lat="29.566744" lon="103.405375"><ele>803.7444</ele><time>2026-07-23T21:02:25.000Z</time></trkpt>
        <trkpt lat="29.566734" lon="103.405352"><ele>803.9274</ele><time>2026-07-23T21:02:27.000Z</time></trkpt>
        <trkpt lat="29.566724" lon="103.405324"><ele>803.9414</ele><time>2026-07-23T21:02:29.000Z</time></trkpt>
        <trkpt lat="29.566716" lon="103.405289"><ele>804.7133</ele><time>2026-07-23T21:02:31.000Z</time></trkpt>
        <trkpt lat="29.566712" lon="103.405262"><ele>803.9044</ele><time>2026-07-23T21:02:33.000Z</time></trkpt>
        <trkpt lat="29.56671" lon="103.405233"><ele>805.0018</ele><time>2026-07-23T21:02:35.000Z</time></trkpt>
        <trkpt lat="29.566711" lon="103.405207"><ele>805.3198</ele><time>2026-07-23T21:02:37.000Z</time></trkpt>
        <trkpt lat="29.566713" lon="103.405186"><ele>806.35284</ele><time>2026-07-23T21:02:39.000Z</time></trkpt>
        <trkpt lat="29.566719" lon="103.40516"><ele>807.9859</ele><time>2026-07-23T21:02:41.000Z</time></trkpt>
        <trkpt lat="29.566729" lon="103.405138"><ele>809.3863</ele><time>2026-07-23T21:02:43.000Z</time></trkpt>
        <trkpt lat="29.566745" lon="103.40512"><ele>809.37445</ele><time>2026-07-23T21:02:45.000Z</time></trkpt>
        <trkpt lat="29.566763" lon="103.405109"><ele>809.149</ele><time>2026-07-23T21:02:47.000Z</time></trkpt>
        <trkpt lat="29.566787" lon="103.405099"><ele>808.91724</ele><time>2026-07-23T21:02:49.000Z</time></trkpt>
        <trkpt lat="29.566812" lon="103.405094"><ele>808.31793</ele><time>2026-07-23T21:02:51.000Z</time></trkpt>
        <trkpt lat="29.566838" lon="103.405094"><ele>807.68494</ele><time>2026-07-23T21:02:53.000Z</time></trkpt>
        <trkpt lat="29.566863" lon="103.405101"><ele>806.6535</ele><time>2026-07-23T21:02:55.000Z</time></trkpt>
        <trkpt lat="29.56689" lon="103.40511"><ele>805.7167</ele><time>2026-07-23T21:02:57.000Z</time></trkpt>
        <trkpt lat="29.566918" lon="103.405118"><ele>805.1341</ele><time>2026-07-23T21:02:59.000Z</time></trkpt>
        <trkpt lat="29.566946" lon="103.405123"><ele>804.48395</ele><time>2026-07-23T21:03:01.000Z</time></trkpt>
        <trkpt lat="29.566973" lon="103.40513"><ele>804.83856</ele><time>2026-07-23T21:03:03.000Z</time></trkpt>
        <trkpt lat="29.566992" lon="103.405135"><ele>804.1083</ele><time>2026-07-23T21:03:05.000Z</time></trkpt>
        <trkpt lat="29.567009" lon="103.40514"><ele>803.9613</ele><time>2026-07-23T21:03:07.000Z</time></trkpt>
        <trkpt lat="29.567028" lon="103.405141"><ele>803.68646</ele><time>2026-07-23T21:03:09.000Z</time></trkpt>
        <trkpt lat="29.567046" lon="103.405139"><ele>803.83905</ele><time>2026-07-23T21:03:11.000Z</time></trkpt>
        <trkpt lat="29.567067" lon="103.405136"><ele>804.36694</ele><time>2026-07-23T21:03:12.000Z</time></trkpt>
        <trkpt lat="29.567093" lon="103.405131"><ele>805.1328</ele><time>2026-07-23T21:03:14.000Z</time></trkpt>
        <trkpt lat="29.567116" lon="103.405127"><ele>804.6481</ele><time>2026-07-23T21:03:16.000Z</time></trkpt>
        <trkpt lat="29.567136" lon="103.405125"><ele>804.2691</ele><time>2026-07-23T21:03:18.000Z</time></trkpt>
        <trkpt lat="29.567153" lon="103.405123"><ele>804.9712</ele><time>2026-07-23T21:03:20.000Z</time></trkpt>
        <trkpt lat="29.567169" lon="103.40512"><ele>804.8981</ele><time>2026-07-23T21:03:22.000Z</time></trkpt>
        <trkpt lat="29.567186" lon="103.405117"><ele>804.2085</ele><time>2026-07-23T21:03:24.000Z</time></trkpt>
        <trkpt lat="29.567206" lon="103.405112"><ele>805.4447</ele><time>2026-07-23T21:03:26.000Z</time></trkpt>
        <trkpt lat="29.56723" lon="103.405104"><ele>805.3925</ele><time>2026-07-23T21:03:29.000Z</time></trkpt>
        <trkpt lat="29.567257" lon="103.405094"><ele>806.0876</ele><time>2026-07-23T21:03:31.000Z</time></trkpt>
        <trkpt lat="29.567282" lon="103.405083"><ele>805.5797</ele><time>2026-07-23T21:03:33.000Z</time></trkpt>
        <trkpt lat="29.567302" lon="103.405075"><ele>806.54504</ele><time>2026-07-23T21:03:35.000Z</time></trkpt>
        <trkpt lat="29.567322" lon="103.40507"><ele>805.69354</ele><time>2026-07-23T21:03:37.000Z</time></trkpt>
        <trkpt lat="29.567341" lon="103.405069"><ele>805.69965</ele><time>2026-07-23T21:03:39.000Z</time></trkpt>
        <trkpt lat="29.567361" lon="103.405067"><ele>805.80634</ele><time>2026-07-23T21:03:41.000Z</time></trkpt>
        <trkpt lat="29.567381" lon="103.405068"><ele>806.0349</ele><time>2026-07-23T21:03:43.000Z</time></trkpt>
        <trkpt lat="29.567403" lon="103.405071"><ele>806.39996</ele><time>2026-07-23T21:03:45.000Z</time></trkpt>
        <trkpt lat="29.567427" lon="103.405075"><ele>807.2299</ele><time>2026-07-23T21:03:47.000Z</time></trkpt>
        <trkpt lat="29.567449" lon="103.405077"><ele>806.8131</ele><time>2026-07-23T21:03:49.000Z</time></trkpt>
        <trkpt lat="29.567466" lon="103.405078"><ele>806.78705</ele><time>2026-07-23T21:03:51.000Z</time></trkpt>
        <trkpt lat="29.567489" lon="103.405078"><ele>806.4811</ele><time>2026-07-23T21:03:53.000Z</time></trkpt>
        <trkpt lat="29.56751" lon="103.405079"><ele>805.77045</ele><time>2026-07-23T21:03:55.000Z</time></trkpt>
        <trkpt lat="29.567531" lon="103.40508"><ele>804.6193</ele><time>2026-07-23T21:03:57.000Z</time></trkpt>
        <trkpt lat="29.567546" lon="103.405081"><ele>804.19104</ele><time>2026-07-23T21:03:59.000Z</time></trkpt>
        <trkpt lat="29.567565" lon="103.405084"><ele>804.4028</ele><time>2026-07-23T21:04:01.000Z</time></trkpt>
        <trkpt lat="29.567582" lon="103.405087"><ele>804.77936</ele><time>2026-07-23T21:04:03.000Z</time></trkpt>
        <trkpt lat="29.567604" lon="103.405094"><ele>804.9135</ele><time>2026-07-23T21:04:05.000Z</time></trkpt>
        <trkpt lat="29.567628" lon="103.405104"><ele>805.28845</ele><time>2026-07-23T21:04:07.000Z</time></trkpt>
        <trkpt lat="29.56765" lon="103.405112"><ele>804.8925</ele><time>2026-07-23T21:04:09.000Z</time></trkpt>
        <trkpt lat="29.56767" lon="103.405119"><ele>804.412</ele><time>2026-07-23T21:04:11.000Z</time></trkpt>
        <trkpt lat="29.56769" lon="103.405123"><ele>803.2289</ele><time>2026-07-23T21:04:13.000Z</time></trkpt>
        <trkpt lat="29.56771" lon="103.405127"><ele>803.1094</ele><time>2026-07-23T21:04:15.000Z</time></trkpt>
        <trkpt lat="29.567732" lon="103.40513"><ele>803.02234</ele><time>2026-07-23T21:04:17.000Z</time></trkpt>
        <trkpt lat="29.567751" lon="103.405131"><ele>802.1019</ele><time>2026-07-23T21:04:19.000Z</time></trkpt>
        <trkpt lat="29.567772" lon="103.40513"><ele>801.9441</ele><time>2026-07-23T21:04:21.000Z</time></trkpt>
        <trkpt lat="29.567792" lon="103.405126"><ele>801.85767</ele><time>2026-07-23T21:04:23.000Z</time></trkpt>
        <trkpt lat="29.567813" lon="103.405118"><ele>801.41266</ele><time>2026-07-23T21:04:25.000Z</time></trkpt>
        <trkpt lat="29.567831" lon="103.405107"><ele>801.14075</ele><time>2026-07-23T21:04:27.000Z</time></trkpt>
        <trkpt lat="29.567849" lon="103.405091"><ele>800.87067</ele><time>2026-07-23T21:04:29.000Z</time></trkpt>
        <trkpt lat="29.567866" lon="103.405072"><ele>800.9875</ele><time>2026-07-23T21:04:31.000Z</time></trkpt>
        <trkpt lat="29.567887" lon="103.405052"><ele>800.27686</ele><time>2026-07-23T21:04:33.000Z</time></trkpt>
        <trkpt lat="29.567907" lon="103.405035"><ele>800.7212</ele><time>2026-07-23T21:04:35.000Z</time></trkpt>
        <trkpt lat="29.567925" lon="103.40502"><ele>800.9066</ele><time>2026-07-23T21:04:37.000Z</time></trkpt>
        <trkpt lat="29.567944" lon="103.405005"><ele>800.89514</ele><time>2026-07-23T21:04:39.000Z</time></trkpt>
        <trkpt lat="29.567965" lon="103.404989"><ele>801.60364</ele><time>2026-07-23T21:04:41.000Z</time></trkpt>
        <trkpt lat="29.567986" lon="103.404971"><ele>801.5203</ele><time>2026-07-23T21:04:43.000Z</time></trkpt>
        <trkpt lat="29.568005" lon="103.404955"><ele>801.3279</ele><time>2026-07-23T21:04:45.000Z</time></trkpt>
        <trkpt lat="29.568025" lon="103.404939"><ele>800.66284</ele><time>2026-07-23T21:04:47.000Z</time></trkpt>
        <trkpt lat="29.568044" lon="103.404922"><ele>800.4714</ele><time>2026-07-23T21:04:49.000Z</time></trkpt>
        <trkpt lat="29.568062" lon="103.404904"><ele>800.2062</ele><time>2026-07-23T21:04:51.000Z</time></trkpt>
        <trkpt lat="29.568084" lon="103.404886"><ele>800.0424</ele><time>2026-07-23T21:04:53.000Z</time></trkpt>
        <trkpt lat="29.568104" lon="103.404873"><ele>800.4789</ele><time>2026-07-23T21:04:55.000Z</time></trkpt>
        <trkpt lat="29.568127" lon="103.404865"><ele>801.4471</ele><time>2026-07-23T21:04:57.000Z</time></trkpt>
        <trkpt lat="29.568151" lon="103.404859"><ele>801.7296</ele><time>2026-07-23T21:04:59.000Z</time></trkpt>
        <trkpt lat="29.568176" lon="103.404854"><ele>801.80225</ele><time>2026-07-23T21:05:01.000Z</time></trkpt>
        <trkpt lat="29.5682" lon="103.404845"><ele>801.17236</ele><time>2026-07-23T21:05:03.000Z</time></trkpt>
        <trkpt lat="29.568223" lon="103.404832"><ele>800.0429</ele><time>2026-07-23T21:05:05.000Z</time></trkpt>
        <trkpt lat="29.568245" lon="103.404814"><ele>799.4539</ele><time>2026-07-23T21:05:07.000Z</time></trkpt>
        <trkpt lat="29.568265" lon="103.404795"><ele>798.78406</ele><time>2026-07-23T21:05:09.000Z</time></trkpt>
        <trkpt lat="29.568285" lon="103.404775"><ele>798.5378</ele><time>2026-07-23T21:05:11.000Z</time></trkpt>
        <trkpt lat="29.568305" lon="103.404755"><ele>798.2197</ele><time>2026-07-23T21:05:13.000Z</time></trkpt>
        <trkpt lat="29.568322" lon="103.404737"><ele>798.0863</ele><time>2026-07-23T21:05:15.000Z</time></trkpt>
        <trkpt lat="29.568341" lon="103.404718"><ele>797.35913</ele><time>2026-07-23T21:05:17.000Z</time></trkpt>
        <trkpt lat="29.568357" lon="103.4047"><ele>797.62836</ele><time>2026-07-23T21:05:18.000Z</time></trkpt>
        <trkpt lat="29.56837" lon="103.40468"><ele>797.087</ele><time>2026-07-23T21:05:20.000Z</time></trkpt>
        <trkpt lat="29.568383" lon="103.40466"><ele>796.49457</ele><time>2026-07-23T21:05:22.000Z</time></trkpt>
        <trkpt lat="29.568396" lon="103.404637"><ele>796.43567</ele><time>2026-07-23T21:05:24.000Z</time></trkpt>
        <trkpt lat="29.568407" lon="103.404615"><ele>796.4563</ele><time>2026-07-23T21:05:26.000Z</time></trkpt>
        <trkpt lat="29.56842" lon="103.404591"><ele>796.7556</ele><time>2026-07-23T21:05:28.000Z</time></trkpt>
        <trkpt lat="29.568435" lon="103.404566"><ele>796.8371</ele><time>2026-07-23T21:05:30.000Z</time></trkpt>
        <trkpt lat="29.568448" lon="103.40454"><ele>796.25854</ele><time>2026-07-23T21:05:32.000Z</time></trkpt>
        <trkpt lat="29.56846" lon="103.404514"><ele>796.01556</ele><time>2026-07-23T21:05:34.000Z</time></trkpt>
        <trkpt lat="29.568473" lon="103.404486"><ele>796.3866</ele><time>2026-07-23T21:05:36.000Z</time></trkpt>
        <trkpt lat="29.568487" lon="103.404459"><ele>795.5079</ele><time>2026-07-23T21:05:38.000Z</time></trkpt>
        <trkpt lat="29.5685" lon="103.404433"><ele>795.01306</ele><time>2026-07-23T21:05:41.000Z</time></trkpt>
        <trkpt lat="29.568511" lon="103.40441"><ele>794.44006</ele><time>2026-07-23T21:05:43.000Z</time></trkpt>
        <trkpt lat="29.568521" lon="103.404388"><ele>794.39026</ele><time>2026-07-23T21:05:45.000Z</time></trkpt>
        <trkpt lat="29.568527" lon="103.40437"><ele>794.34125</ele><time>2026-07-23T21:05:47.000Z</time></trkpt>
        <trkpt lat="29.568533" lon="103.404351"><ele>794.3137</ele><time>2026-07-23T21:05:49.000Z</time></trkpt>
        <trkpt lat="29.568536" lon="103.404334"><ele>794.24316</ele><time>2026-07-23T21:05:51.000Z</time></trkpt>
        <trkpt lat="29.568541" lon="103.404318"><ele>794.1546</ele><time>2026-07-23T21:05:53.000Z</time></trkpt>
        <trkpt lat="29.568547" lon="103.404299"><ele>794.3383</ele><time>2026-07-23T21:05:55.000Z</time></trkpt>
        <trkpt lat="29.568556" lon="103.40428"><ele>793.48065</ele><time>2026-07-23T21:05:57.000Z</time></trkpt>
        <trkpt lat="29.568566" lon="103.404261"><ele>793.41974</ele><time>2026-07-23T21:05:59.000Z</time></trkpt>
        <trkpt lat="29.568576" lon="103.404242"><ele>793.5216</ele><time>2026-07-23T21:06:01.000Z</time></trkpt>
        <trkpt lat="29.568588" lon="103.404222"><ele>793.48114</ele><time>2026-07-23T21:06:03.000Z</time></trkpt>
        <trkpt lat="29.568599" lon="103.404203"><ele>793.08624</ele><time>2026-07-23T21:06:05.000Z</time></trkpt>
        <trkpt lat="29.568611" lon="103.404183"><ele>792.77155</ele><time>2026-07-23T21:06:07.000Z</time></trkpt>
        <trkpt lat="29.568622" lon="103.404164"><ele>793.13025</ele><time>2026-07-23T21:06:09.000Z</time></trkpt>
        <trkpt lat="29.568632" lon="103.404148"><ele>792.8497</ele><time>2026-07-23T21:06:11.000Z</time></trkpt>
        <trkpt lat="29.568643" lon="103.404129"><ele>792.2304</ele><time>2026-07-23T21:06:13.000Z</time></trkpt>
        <trkpt lat="29.568654" lon="103.404111"><ele>791.8955</ele><time>2026-07-23T21:06:15.000Z</time></trkpt>
        <trkpt lat="29.568667" lon="103.404092"><ele>791.3963</ele><time>2026-07-23T21:06:17.000Z</time></trkpt>
        <trkpt lat="29.56868" lon="103.404075"><ele>791.7518</ele><time>2026-07-23T21:06:19.000Z</time></trkpt>
        <trkpt lat="29.568694" lon="103.404056"><ele>791.21704</ele><time>2026-07-23T21:06:21.000Z</time></trkpt>
        <trkpt lat="29.568708" lon="103.404038"><ele>790.8213</ele><time>2026-07-23T21:06:23.000Z</time></trkpt>
        <trkpt lat="29.568723" lon="103.404019"><ele>790.7074</ele><time>2026-07-23T21:06:25.000Z</time></trkpt>
        <trkpt lat="29.568738" lon="103.404002"><ele>791.5089</ele><time>2026-07-23T21:06:27.000Z</time></trkpt>
        <trkpt lat="29.568753" lon="103.403985"><ele>791.57367</ele><time>2026-07-23T21:06:29.000Z</time></trkpt>
        <trkpt lat="29.568767" lon="103.403968"><ele>791.53503</ele><time>2026-07-23T21:06:31.000Z</time></trkpt>
        <trkpt lat="29.568779" lon="103.403953"><ele>790.89154</ele><time>2026-07-23T21:06:33.000Z</time></trkpt>
        <trkpt lat="29.568792" lon="103.403938"><ele>791.19867</ele><time>2026-07-23T21:06:35.000Z</time></trkpt>
        <trkpt lat="29.568808" lon="103.403922"><ele>791.26666</ele><time>2026-07-23T21:06:37.000Z</time></trkpt>
        <trkpt lat="29.568825" lon="103.403911"><ele>791.3505</ele><time>2026-07-23T21:06:39.000Z</time></trkpt>
        <trkpt lat="29.568841" lon="103.403903"><ele>791.3066</ele><time>2026-07-23T21:06:41.000Z</time></trkpt>
        <trkpt lat="29.568858" lon="103.403898"><ele>791.51636</ele><time>2026-07-23T21:06:43.000Z</time></trkpt>
        <trkpt lat="29.568876" lon="103.403894"><ele>791.2665</ele><time>2026-07-23T21:06:45.000Z</time></trkpt>
        <trkpt lat="29.568895" lon="103.403894"><ele>791.4033</ele><time>2026-07-23T21:06:47.000Z</time></trkpt>
        <trkpt lat="29.568914" lon="103.403899"><ele>790.71216</ele><time>2026-07-23T21:06:49.000Z</time></trkpt>
        <trkpt lat="29.568937" lon="103.403907"><ele>790.7138</ele><time>2026-07-23T21:06:51.000Z</time></trkpt>
        <trkpt lat="29.568956" lon="103.403915"><ele>789.7375</ele><time>2026-07-23T21:06:53.000Z</time></trkpt>
        <trkpt lat="29.56897" lon="103.403921"><ele>789.618</ele><time>2026-07-23T21:06:55.000Z</time></trkpt>
        <trkpt lat="29.568978" lon="103.403926"><ele>789.93713</ele><time>2026-07-23T21:06:57.000Z</time></trkpt>
        <trkpt lat="29.568978" lon="103.403928"><ele>789.9523</ele><time>2026-07-23T21:06:59.000Z</time></trkpt>
        <trkpt lat="29.568976" lon="103.403951"><ele>792.22015</ele><time>2026-07-23T21:07:13.000Z</time></trkpt>
        <trkpt lat="29.568976" lon="103.403959"><ele>792.4039</ele><time>2026-07-23T21:07:17.000Z</time></trkpt>
        <trkpt lat="29.568977" lon="103.40396"><ele>792.55505</ele><time>2026-07-23T21:07:19.000Z</time></trkpt>
        <trkpt lat="29.569008" lon="103.403975"><ele>794.5534</ele><time>2026-07-23T21:07:29.000Z</time></trkpt>
        <trkpt lat="29.569023" lon="103.403982"><ele>794.595</ele><time>2026-07-23T21:07:31.000Z</time></trkpt>
        <trkpt lat="29.569024" lon="103.403982"><ele>793.93427</ele><time>2026-07-23T21:07:33.000Z</time></trkpt>
        <trkpt lat="29.56905" lon="103.403989"><ele>790.1768</ele><time>2026-07-23T21:07:37.000Z</time></trkpt>
        <trkpt lat="29.569079" lon="103.403997"><ele>789.11255</ele><time>2026-07-23T21:07:39.000Z</time></trkpt>
        <trkpt lat="29.569108" lon="103.404002"><ele>788.2488</ele><time>2026-07-23T21:07:41.000Z</time></trkpt>
        <trkpt lat="29.569136" lon="103.404"><ele>786.8739</ele><time>2026-07-23T21:07:43.000Z</time></trkpt>
        <trkpt lat="29.569161" lon="103.403993"><ele>787.4329</ele><time>2026-07-23T21:07:45.000Z</time></trkpt>
        <trkpt lat="29.569181" lon="103.403982"><ele>786.52704</ele><time>2026-07-23T21:07:47.000Z</time></trkpt>
        <trkpt lat="29.5692" lon="103.403968"><ele>786.2179</ele><time>2026-07-23T21:07:49.000Z</time></trkpt>
        <trkpt lat="29.569217" lon="103.403953"><ele>785.2728</ele><time>2026-07-23T21:07:51.000Z</time></trkpt>
        <trkpt lat="29.569233" lon="103.403937"><ele>785.1339</ele><time>2026-07-23T21:07:53.000Z</time></trkpt>
        <trkpt lat="29.56925" lon="103.403923"><ele>784.6573</ele><time>2026-07-23T21:07:55.000Z</time></trkpt>
        <trkpt lat="29.569269" lon="103.403909"><ele>784.6252</ele><time>2026-07-23T21:07:57.000Z</time></trkpt>
        <trkpt lat="29.569288" lon="103.403897"><ele>784.63794</ele><time>2026-07-23T21:07:59.000Z</time></trkpt>
        <trkpt lat="29.569308" lon="103.403886"><ele>784.274</ele><time>2026-07-23T21:08:01.000Z</time></trkpt>
        <trkpt lat="29.569329" lon="103.403874"><ele>784.67737</ele><time>2026-07-23T21:08:03.000Z</time></trkpt>
        <trkpt lat="29.56935" lon="103.403863"><ele>784.8428</ele><time>2026-07-23T21:08:05.000Z</time></trkpt>
        <trkpt lat="29.569371" lon="103.403851"><ele>784.7078</ele><time>2026-07-23T21:08:07.000Z</time></trkpt>
        <trkpt lat="29.569393" lon="103.403839"><ele>784.73883</ele><time>2026-07-23T21:08:09.000Z</time></trkpt>
        <trkpt lat="29.569414" lon="103.403826"><ele>784.61633</ele><time>2026-07-23T21:08:11.000Z</time></trkpt>
        <trkpt lat="29.569435" lon="103.403813"><ele>784.5072</ele><time>2026-07-23T21:08:13.000Z</time></trkpt>
        <trkpt lat="29.569454" lon="103.403798"><ele>784.27</ele><time>2026-07-23T21:08:15.000Z</time></trkpt>
        <trkpt lat="29.56947" lon="103.403783"><ele>784.0744</ele><time>2026-07-23T21:08:17.000Z</time></trkpt>
        <trkpt lat="29.569485" lon="103.403767"><ele>784.2381</ele><time>2026-07-23T21:08:19.000Z</time></trkpt>
        <trkpt lat="29.569501" lon="103.403752"><ele>784.0878</ele><time>2026-07-23T21:08:21.000Z</time></trkpt>
        <trkpt lat="29.569517" lon="103.403738"><ele>783.642</ele><time>2026-07-23T21:08:23.000Z</time></trkpt>
        <trkpt lat="29.569534" lon="103.403726"><ele>783.32214</ele><time>2026-07-23T21:08:25.000Z</time></trkpt>
        <trkpt lat="29.569553" lon="103.403713"><ele>783.30756</ele><time>2026-07-23T21:08:27.000Z</time></trkpt>
        <trkpt lat="29.569568" lon="103.403699"><ele>783.05145</ele><time>2026-07-23T21:08:29.000Z</time></trkpt>
        <trkpt lat="29.569582" lon="103.403681"><ele>782.2764</ele><time>2026-07-23T21:08:31.000Z</time></trkpt>
        <trkpt lat="29.569594" lon="103.403666"><ele>782.5318</ele><time>2026-07-23T21:08:33.000Z</time></trkpt>
        <trkpt lat="29.569605" lon="103.40365"><ele>783.28955</ele><time>2026-07-23T21:08:35.000Z</time></trkpt>
        <trkpt lat="29.569614" lon="103.403636"><ele>782.88324</ele><time>2026-07-23T21:08:37.000Z</time></trkpt>
        <trkpt lat="29.569625" lon="103.403621"><ele>782.87585</ele><time>2026-07-23T21:08:39.000Z</time></trkpt>
        <trkpt lat="29.569629" lon="103.403617"><ele>782.7832</ele><time>2026-07-23T21:08:41.000Z</time></trkpt>
        <trkpt lat="29.569636" lon="103.403611"><ele>783.1736</ele><time>2026-07-23T21:08:43.000Z</time></trkpt>
        <trkpt lat="29.56966" lon="103.403592"><ele>781.9497</ele><time>2026-07-23T21:08:47.000Z</time></trkpt>
        <trkpt lat="29.569669" lon="103.403584"><ele>782.2219</ele><time>2026-07-23T21:08:49.000Z</time></trkpt>
        <trkpt lat="29.569683" lon="103.403573"><ele>782.8277</ele><time>2026-07-23T21:08:51.000Z</time></trkpt>
        <trkpt lat="29.569697" lon="103.403558"><ele>783.2654</ele><time>2026-07-23T21:08:53.000Z</time></trkpt>
        <trkpt lat="29.569709" lon="103.403545"><ele>783.6628</ele><time>2026-07-23T21:08:55.000Z</time></trkpt>
        <trkpt lat="29.569723" lon="103.403531"><ele>783.7827</ele><time>2026-07-23T21:08:57.000Z</time></trkpt>
        <trkpt lat="29.569735" lon="103.403519"><ele>784.228</ele><time>2026-07-23T21:08:59.000Z</time></trkpt>
        <trkpt lat="29.569749" lon="103.403507"><ele>784.21674</ele><time>2026-07-23T21:09:01.000Z</time></trkpt>
        <trkpt lat="29.569762" lon="103.403494"><ele>784.1929</ele><time>2026-07-23T21:09:03.000Z</time></trkpt>
        <trkpt lat="29.569775" lon="103.40348"><ele>785.06085</ele><time>2026-07-23T21:09:05.000Z</time></trkpt>
        <trkpt lat="29.569787" lon="103.403463"><ele>785.2945</ele><time>2026-07-23T21:09:07.000Z</time></trkpt>
        <trkpt lat="29.569798" lon="103.403447"><ele>784.7957</ele><time>2026-07-23T21:09:09.000Z</time></trkpt>
        <trkpt lat="29.56981" lon="103.403429"><ele>785.01245</ele><time>2026-07-23T21:09:11.000Z</time></trkpt>
        <trkpt lat="29.569821" lon="103.403411"><ele>784.0337</ele><time>2026-07-23T21:09:13.000Z</time></trkpt>
        <trkpt lat="29.569832" lon="103.403393"><ele>783.236</ele><time>2026-07-23T21:09:15.000Z</time></trkpt>
        <trkpt lat="29.569845" lon="103.403374"><ele>782.6269</ele><time>2026-07-23T21:09:17.000Z</time></trkpt>
        <trkpt lat="29.569859" lon="103.403355"><ele>782.9531</ele><time>2026-07-23T21:09:19.000Z</time></trkpt>
        <trkpt lat="29.569873" lon="103.403337"><ele>782.93823</ele><time>2026-07-23T21:09:21.000Z</time></trkpt>
        <trkpt lat="29.569887" lon="103.403319"><ele>783.3335</ele><time>2026-07-23T21:09:23.000Z</time></trkpt>
        <trkpt lat="29.569903" lon="103.403299"><ele>783.11475</ele><time>2026-07-23T21:09:25.000Z</time></trkpt>
        <trkpt lat="29.569917" lon="103.403278"><ele>782.5688</ele><time>2026-07-23T21:09:27.000Z</time></trkpt>
        <trkpt lat="29.569932" lon="103.403258"><ele>781.77844</ele><time>2026-07-23T21:09:29.000Z</time></trkpt>
        <trkpt lat="29.569946" lon="103.403236"><ele>781.7498</ele><time>2026-07-23T21:09:31.000Z</time></trkpt>
        <trkpt lat="29.569958" lon="103.403212"><ele>780.9909</ele><time>2026-07-23T21:09:33.000Z</time></trkpt>
        <trkpt lat="29.56997" lon="103.403188"><ele>780.35504</ele><time>2026-07-23T21:09:35.000Z</time></trkpt>
        <trkpt lat="29.569981" lon="103.403164"><ele>779.818</ele><time>2026-07-23T21:09:37.000Z</time></trkpt>
        <trkpt lat="29.569991" lon="103.403144"><ele>779.4067</ele><time>2026-07-23T21:09:39.000Z</time></trkpt>
        <trkpt lat="29.569999" lon="103.403123"><ele>779.6306</ele><time>2026-07-23T21:09:41.000Z</time></trkpt>
        <trkpt lat="29.570006" lon="103.403102"><ele>779.73236</ele><time>2026-07-23T21:09:43.000Z</time></trkpt>
        <trkpt lat="29.570012" lon="103.40308"><ele>779.5666</ele><time>2026-07-23T21:09:45.000Z</time></trkpt>
        <trkpt lat="29.570016" lon="103.403056"><ele>779.5738</ele><time>2026-07-23T21:09:47.000Z</time></trkpt>
        <trkpt lat="29.57002" lon="103.40303"><ele>778.99274</ele><time>2026-07-23T21:09:49.000Z</time></trkpt>
        <trkpt lat="29.570026" lon="103.403003"><ele>778.904</ele><time>2026-07-23T21:09:51.000Z</time></trkpt>
        <trkpt lat="29.570034" lon="103.402976"><ele>779.4418</ele><time>2026-07-23T21:09:53.000Z</time></trkpt>
        <trkpt lat="29.570042" lon="103.402951"><ele>779.52405</ele><time>2026-07-23T21:09:55.000Z</time></trkpt>
        <trkpt lat="29.570052" lon="103.402928"><ele>778.9872</ele><time>2026-07-23T21:09:57.000Z</time></trkpt>
        <trkpt lat="29.570061" lon="103.402911"><ele>779.50055</ele><time>2026-07-23T21:09:59.000Z</time></trkpt>
        <trkpt lat="29.570071" lon="103.402897"><ele>779.1746</ele><time>2026-07-23T21:10:01.000Z</time></trkpt>
        <trkpt lat="29.570089" lon="103.402881"><ele>779.7228</ele><time>2026-07-23T21:10:03.000Z</time></trkpt>
        <trkpt lat="29.570108" lon="103.402869"><ele>779.83417</ele><time>2026-07-23T21:10:05.000Z</time></trkpt>
        <trkpt lat="29.57013" lon="103.40286"><ele>780.7199</ele><time>2026-07-23T21:10:07.000Z</time></trkpt>
        <trkpt lat="29.570154" lon="103.402853"><ele>780.52966</ele><time>2026-07-23T21:10:09.000Z</time></trkpt>
        <trkpt lat="29.570178" lon="103.402846"><ele>778.97845</ele><time>2026-07-23T21:10:11.000Z</time></trkpt>
        <trkpt lat="29.570201" lon="103.402842"><ele>779.3593</ele><time>2026-07-23T21:10:13.000Z</time></trkpt>
        <trkpt lat="29.570226" lon="103.402837"><ele>779.62134</ele><time>2026-07-23T21:10:15.000Z</time></trkpt>
        <trkpt lat="29.570248" lon="103.402832"><ele>779.02997</ele><time>2026-07-23T21:10:17.000Z</time></trkpt>
        <trkpt lat="29.57027" lon="103.402824"><ele>779.31165</ele><time>2026-07-23T21:10:19.000Z</time></trkpt>
        <trkpt lat="29.570291" lon="103.402815"><ele>779.94745</ele><time>2026-07-23T21:10:21.000Z</time></trkpt>
        <trkpt lat="29.57031" lon="103.402805"><ele>779.2566</ele><time>2026-07-23T21:10:23.000Z</time></trkpt>
        <trkpt lat="29.570332" lon="103.402797"><ele>778.0376</ele><time>2026-07-23T21:10:25.000Z</time></trkpt>
        <trkpt lat="29.570353" lon="103.402792"><ele>778.59314</ele><time>2026-07-23T21:10:27.000Z</time></trkpt>
        <trkpt lat="29.570375" lon="103.402789"><ele>777.73773</ele><time>2026-07-23T21:10:29.000Z</time></trkpt>
        <trkpt lat="29.570396" lon="103.402784"><ele>777.0595</ele><time>2026-07-23T21:10:31.000Z</time></trkpt>
        <trkpt lat="29.570414" lon="103.402777"><ele>777.7207</ele><time>2026-07-23T21:10:33.000Z</time></trkpt>
        <trkpt lat="29.570432" lon="103.402771"><ele>777.5015</ele><time>2026-07-23T21:10:35.000Z</time></trkpt>
        <trkpt lat="29.570444" lon="103.402767"><ele>778.4451</ele><time>2026-07-23T21:10:37.000Z</time></trkpt>
        <trkpt lat="29.570448" lon="103.402765"><ele>778.7107</ele><time>2026-07-23T21:10:39.000Z</time></trkpt>
        <trkpt lat="29.570457" lon="103.402765"><ele>780.07684</ele><time>2026-07-23T21:10:43.000Z</time></trkpt>
        <trkpt lat="29.570512" lon="103.402764"><ele>779.8048</ele><time>2026-07-23T21:10:47.000Z</time></trkpt>
        <trkpt lat="29.570512" lon="103.402764"><ele>779.36096</ele><time>2026-07-23T21:10:49.000Z</time></trkpt>
        <trkpt lat="29.570518" lon="103.402764"><ele>778.26117</ele><time>2026-07-23T21:10:51.000Z</time></trkpt>
        <trkpt lat="29.570541" lon="103.402766"><ele>778.10004</ele><time>2026-07-23T21:10:53.000Z</time></trkpt>
        <trkpt lat="29.570578" lon="103.40277"><ele>777.3725</ele><time>2026-07-23T21:10:55.000Z</time></trkpt>
        <trkpt lat="29.570649" lon="103.402778"><ele>777.61914</ele><time>2026-07-23T21:10:57.000Z</time></trkpt>
        <trkpt lat="29.570655" lon="103.402779"><ele>777.0006</ele><time>2026-07-23T21:10:59.000Z</time></trkpt>
        <trkpt lat="29.57066" lon="103.40278"><ele>775.88086</ele><time>2026-07-23T21:11:01.000Z</time></trkpt>
        <trkpt lat="29.570677" lon="103.402779"><ele>774.6932</ele><time>2026-07-23T21:11:03.000Z</time></trkpt>
        <trkpt lat="29.5707" lon="103.402773"><ele>774.46045</ele><time>2026-07-23T21:11:05.000Z</time></trkpt>
        <trkpt lat="29.570719" lon="103.402766"><ele>774.6325</ele><time>2026-07-23T21:11:07.000Z</time></trkpt>
        <trkpt lat="29.570738" lon="103.402758"><ele>774.3904</ele><time>2026-07-23T21:11:09.000Z</time></trkpt>
        <trkpt lat="29.570756" lon="103.40275"><ele>774.1249</ele><time>2026-07-23T21:11:11.000Z</time></trkpt>
        <trkpt lat="29.570775" lon="103.402743"><ele>773.97943</ele><time>2026-07-23T21:11:13.000Z</time></trkpt>
        <trkpt lat="29.570791" lon="103.402738"><ele>773.7533</ele><time>2026-07-23T21:11:15.000Z</time></trkpt>
        <trkpt lat="29.570805" lon="103.402734"><ele>773.0429</ele><time>2026-07-23T21:11:17.000Z</time></trkpt>
        <trkpt lat="29.570824" lon="103.402728"><ele>773.5014</ele><time>2026-07-23T21:11:19.000Z</time></trkpt>
        <trkpt lat="29.570838" lon="103.402722"><ele>772.81537</ele><time>2026-07-23T21:11:21.000Z</time></trkpt>
        <trkpt lat="29.57085" lon="103.402713"><ele>771.792</ele><time>2026-07-23T21:11:23.000Z</time></trkpt>
        <trkpt lat="29.570857" lon="103.402702"><ele>771.18396</ele><time>2026-07-23T21:11:25.000Z</time></trkpt>
        <trkpt lat="29.570865" lon="103.402692"><ele>771.152</ele><time>2026-07-23T21:11:27.000Z</time></trkpt>
        <trkpt lat="29.570877" lon="103.402681"><ele>771.4946</ele><time>2026-07-23T21:11:29.000Z</time></trkpt>
        <trkpt lat="29.570892" lon="103.402673"><ele>771.54065</ele><time>2026-07-23T21:11:31.000Z</time></trkpt>
        <trkpt lat="29.570913" lon="103.402666"><ele>771.18164</ele><time>2026-07-23T21:11:33.000Z</time></trkpt>
        <trkpt lat="29.570934" lon="103.402661"><ele>770.456</ele><time>2026-07-23T21:11:35.000Z</time></trkpt>
        <trkpt lat="29.570951" lon="103.402658"><ele>769.1025</ele><time>2026-07-23T21:11:37.000Z</time></trkpt>
        <trkpt lat="29.570964" lon="103.402653"><ele>768.13684</ele><time>2026-07-23T21:11:39.000Z</time></trkpt>
        <trkpt lat="29.570982" lon="103.402642"><ele>768.77454</ele><time>2026-07-23T21:11:41.000Z</time></trkpt>
        <trkpt lat="29.571003" lon="103.402628"><ele>769.30505</ele><time>2026-07-23T21:11:43.000Z</time></trkpt>
        <trkpt lat="29.571027" lon="103.402611"><ele>770.42206</ele><time>2026-07-23T21:11:45.000Z</time></trkpt>
        <trkpt lat="29.57105" lon="103.402593"><ele>770.66187</ele><time>2026-07-23T21:11:47.000Z</time></trkpt>
        <trkpt lat="29.571073" lon="103.402575"><ele>771.50726</ele><time>2026-07-23T21:11:49.000Z</time></trkpt>
        <trkpt lat="29.571096" lon="103.402558"><ele>772.0673</ele><time>2026-07-23T21:11:51.000Z</time></trkpt>
        <trkpt lat="29.571117" lon="103.402542"><ele>771.74677</ele><time>2026-07-23T21:11:53.000Z</time></trkpt>
        <trkpt lat="29.571132" lon="103.402526"><ele>771.28656</ele><time>2026-07-23T21:11:55.000Z</time></trkpt>
        <trkpt lat="29.571144" lon="103.40251"><ele>772.04205</ele><time>2026-07-23T21:11:57.000Z</time></trkpt>
        <trkpt lat="29.571153" lon="103.402496"><ele>771.50543</ele><time>2026-07-23T21:11:59.000Z</time></trkpt>
        <trkpt lat="29.571163" lon="103.402482"><ele>771.3707</ele><time>2026-07-23T21:12:01.000Z</time></trkpt>
        <trkpt lat="29.571174" lon="103.402469"><ele>770.9244</ele><time>2026-07-23T21:12:03.000Z</time></trkpt>
        <trkpt lat="29.571191" lon="103.402449"><ele>770.7779</ele><time>2026-07-23T21:12:05.000Z</time></trkpt>
        <trkpt lat="29.571205" lon="103.402432"><ele>770.2837</ele><time>2026-07-23T21:12:07.000Z</time></trkpt>
        <trkpt lat="29.571216" lon="103.402416"><ele>769.8942</ele><time>2026-07-23T21:12:09.000Z</time></trkpt>
        <trkpt lat="29.571229" lon="103.402395"><ele>770.2111</ele><time>2026-07-23T21:12:11.000Z</time></trkpt>
        <trkpt lat="29.571238" lon="103.402376"><ele>769.9061</ele><time>2026-07-23T21:12:13.000Z</time></trkpt>
        <trkpt lat="29.571244" lon="103.402358"><ele>769.80707</ele><time>2026-07-23T21:12:15.000Z</time></trkpt>
        <trkpt lat="29.57125" lon="103.402338"><ele>770.6141</ele><time>2026-07-23T21:12:17.000Z</time></trkpt>
        <trkpt lat="29.571255" lon="103.402324"><ele>770.6508</ele><time>2026-07-23T21:12:19.000Z</time></trkpt>
        <trkpt lat="29.571262" lon="103.402309"><ele>770.10876</ele><time>2026-07-23T21:12:21.000Z</time></trkpt>
        <trkpt lat="29.57127" lon="103.402286"><ele>770.15814</ele><time>2026-07-23T21:12:23.000Z</time></trkpt>
        <trkpt lat="29.571278" lon="103.402262"><ele>771.07837</ele><time>2026-07-23T21:12:25.000Z</time></trkpt>
        <trkpt lat="29.571283" lon="103.402246"><ele>770.93835</ele><time>2026-07-23T21:12:27.000Z</time></trkpt>
        <trkpt lat="29.57129" lon="103.40223"><ele>771.097</ele><time>2026-07-23T21:12:29.000Z</time></trkpt>
        <trkpt lat="29.5713" lon="103.402211"><ele>770.80145</ele><time>2026-07-23T21:12:31.000Z</time></trkpt>
        <trkpt lat="29.571313" lon="103.402194"><ele>770.84534</ele><time>2026-07-23T21:12:33.000Z</time></trkpt>
        <trkpt lat="29.571327" lon="103.40218"><ele>770.4731</ele><time>2026-07-23T21:12:35.000Z</time></trkpt>
        <trkpt lat="29.571341" lon="103.402169"><ele>770.3148</ele><time>2026-07-23T21:12:37.000Z</time></trkpt>
        <trkpt lat="29.571355" lon="103.402158"><ele>770.0972</ele><time>2026-07-23T21:12:39.000Z</time></trkpt>
        <trkpt lat="29.571368" lon="103.402144"><ele>769.9687</ele><time>2026-07-23T21:12:41.000Z</time></trkpt>
        <trkpt lat="29.571381" lon="103.402124"><ele>769.91534</ele><time>2026-07-23T21:12:43.000Z</time></trkpt>
        <trkpt lat="29.571393" lon="103.402102"><ele>769.6562</ele><time>2026-07-23T21:12:45.000Z</time></trkpt>
        <trkpt lat="29.571406" lon="103.40208"><ele>769.4405</ele><time>2026-07-23T21:12:47.000Z</time></trkpt>
        <trkpt lat="29.571419" lon="103.402059"><ele>770.04834</ele><time>2026-07-23T21:12:49.000Z</time></trkpt>
        <trkpt lat="29.571435" lon="103.40204"><ele>770.15186</ele><time>2026-07-23T21:12:51.000Z</time></trkpt>
        <trkpt lat="29.571451" lon="103.402026"><ele>769.7828</ele><time>2026-07-23T21:12:53.000Z</time></trkpt>
        <trkpt lat="29.571468" lon="103.402009"><ele>768.8013</ele><time>2026-07-23T21:12:55.000Z</time></trkpt>
        <trkpt lat="29.571485" lon="103.40199"><ele>768.1351</ele><time>2026-07-23T21:12:57.000Z</time></trkpt>
        <trkpt lat="29.571498" lon="103.401974"><ele>767.5868</ele><time>2026-07-23T21:12:59.000Z</time></trkpt>
        <trkpt lat="29.571507" lon="103.401962"><ele>767.6004</ele><time>2026-07-23T21:13:01.000Z</time></trkpt>
        <trkpt lat="29.571518" lon="103.40195"><ele>768.66754</ele><time>2026-07-23T21:13:03.000Z</time></trkpt>
        <trkpt lat="29.57153" lon="103.401939"><ele>769.116</ele><time>2026-07-23T21:13:05.000Z</time></trkpt>
        <trkpt lat="29.571547" lon="103.401926"><ele>769.561</ele><time>2026-07-23T21:13:07.000Z</time></trkpt>
        <trkpt lat="29.571565" lon="103.401914"><ele>769.9596</ele><time>2026-07-23T21:13:09.000Z</time></trkpt>
        <trkpt lat="29.571585" lon="103.401903"><ele>769.6268</ele><time>2026-07-23T21:13:11.000Z</time></trkpt>
        <trkpt lat="29.571606" lon="103.401894"><ele>769.2988</ele><time>2026-07-23T21:13:13.000Z</time></trkpt>
        <trkpt lat="29.571627" lon="103.401885"><ele>769.5115</ele><time>2026-07-23T21:13:15.000Z</time></trkpt>
        <trkpt lat="29.571646" lon="103.40188"><ele>768.65796</ele><time>2026-07-23T21:13:17.000Z</time></trkpt>
        <trkpt lat="29.571663" lon="103.401879"><ele>769.1711</ele><time>2026-07-23T21:13:19.000Z</time></trkpt>
        <trkpt lat="29.571679" lon="103.401879"><ele>769.625</ele><time>2026-07-23T21:13:21.000Z</time></trkpt>
        <trkpt lat="29.571693" lon="103.401877"><ele>768.8975</ele><time>2026-07-23T21:13:23.000Z</time></trkpt>
        <trkpt lat="29.571711" lon="103.401876"><ele>767.913</ele><time>2026-07-23T21:13:25.000Z</time></trkpt>
        <trkpt lat="29.57173" lon="103.401876"><ele>766.5778</ele><time>2026-07-23T21:13:27.000Z</time></trkpt>
        <trkpt lat="29.571746" lon="103.401877"><ele>767.6297</ele><time>2026-07-23T21:13:29.000Z</time></trkpt>
        <trkpt lat="29.571753" lon="103.401876"><ele>767.3032</ele><time>2026-07-23T21:13:31.000Z</time></trkpt>
        <trkpt lat="29.571756" lon="103.401872"><ele>767.4464</ele><time>2026-07-23T21:13:33.000Z</time></trkpt>
        <trkpt lat="29.571762" lon="103.401848"><ele>767.4422</ele><time>2026-07-23T21:13:37.000Z</time></trkpt>
        <trkpt lat="29.571765" lon="103.401836"><ele>767.0346</ele><time>2026-07-23T21:13:39.000Z</time></trkpt>
        <trkpt lat="29.571765" lon="103.401835"><ele>767.12604</ele><time>2026-07-23T21:13:41.000Z</time></trkpt>
        <trkpt lat="29.571775" lon="103.401805"><ele>767.41785</ele><time>2026-07-23T21:13:47.000Z</time></trkpt>
        <trkpt lat="29.571782" lon="103.40179"><ele>767.7643</ele><time>2026-07-23T21:13:49.000Z</time></trkpt>
        <trkpt lat="29.571788" lon="103.401779"><ele>767.0834</ele><time>2026-07-23T21:13:51.000Z</time></trkpt>
        <trkpt lat="29.571796" lon="103.401767"><ele>766.51166</ele><time>2026-07-23T21:13:53.000Z</time></trkpt>
        <trkpt lat="29.571804" lon="103.401757"><ele>766.4385</ele><time>2026-07-23T21:13:55.000Z</time></trkpt>
        <trkpt lat="29.571813" lon="103.401748"><ele>766.82196</ele><time>2026-07-23T21:13:57.000Z</time></trkpt>
        <trkpt lat="29.571821" lon="103.401741"><ele>765.83856</ele><time>2026-07-23T21:13:59.000Z</time></trkpt>
        <trkpt lat="29.571831" lon="103.401734"><ele>766.1361</ele><time>2026-07-23T21:14:01.000Z</time></trkpt>
        <trkpt lat="29.571836" lon="103.401729"><ele>766.1155</ele><time>2026-07-23T21:14:03.000Z</time></trkpt>
        <trkpt lat="29.571844" lon="103.401719"><ele>765.8654</ele><time>2026-07-23T21:14:07.000Z</time></trkpt>
        <trkpt lat="29.571855" lon="103.401709"><ele>764.68756</ele><time>2026-07-23T21:14:15.000Z</time></trkpt>
        <trkpt lat="29.571868" lon="103.401691"><ele>764.8534</ele><time>2026-07-23T21:14:17.000Z</time></trkpt>
        <trkpt lat="29.571879" lon="103.401676"><ele>764.70544</ele><time>2026-07-23T21:14:19.000Z</time></trkpt>
        <trkpt lat="29.571884" lon="103.401672"><ele>765.465</ele><time>2026-07-23T21:14:23.000Z</time></trkpt>
        <trkpt lat="29.571899" lon="103.401658"><ele>765.9202</ele><time>2026-07-23T21:14:25.000Z</time></trkpt>
        <trkpt lat="29.571923" lon="103.401638"><ele>765.95044</ele><time>2026-07-23T21:14:27.000Z</time></trkpt>
        <trkpt lat="29.57195" lon="103.401619"><ele>766.2834</ele><time>2026-07-23T21:14:29.000Z</time></trkpt>
        <trkpt lat="29.571974" lon="103.401602"><ele>766.80676</ele><time>2026-07-23T21:14:31.000Z</time></trkpt>
        <trkpt lat="29.571996" lon="103.401584"><ele>766.6832</ele><time>2026-07-23T21:14:33.000Z</time></trkpt>
        <trkpt lat="29.572015" lon="103.401566"><ele>766.3579</ele><time>2026-07-23T21:14:35.000Z</time></trkpt>
        <trkpt lat="29.572029" lon="103.401548"><ele>767.54224</ele><time>2026-07-23T21:14:37.000Z</time></trkpt>
        <trkpt lat="29.572036" lon="103.401529"><ele>768.0288</ele><time>2026-07-23T21:14:39.000Z</time></trkpt>
        <trkpt lat="29.572038" lon="103.40151"><ele>768.4351</ele><time>2026-07-23T21:14:41.000Z</time></trkpt>
        <trkpt lat="29.572037" lon="103.401488"><ele>767.95703</ele><time>2026-07-23T21:14:43.000Z</time></trkpt>
        <trkpt lat="29.572035" lon="103.401471"><ele>769.14435</ele><time>2026-07-23T21:14:45.000Z</time></trkpt>
        <trkpt lat="29.572031" lon="103.401456"><ele>770.05756</ele><time>2026-07-23T21:14:47.000Z</time></trkpt>
        <trkpt lat="29.572029" lon="103.401445"><ele>770.84076</ele><time>2026-07-23T21:14:49.000Z</time></trkpt>
        <trkpt lat="29.572026" lon="103.401424"><ele>770.8977</ele><time>2026-07-23T21:14:53.000Z</time></trkpt>
        <trkpt lat="29.572025" lon="103.401406"><ele>771.3307</ele><time>2026-07-23T21:14:55.000Z</time></trkpt>
        <trkpt lat="29.572022" lon="103.40139"><ele>771.6914</ele><time>2026-07-23T21:14:57.000Z</time></trkpt>
        <trkpt lat="29.572017" lon="103.401374"><ele>770.9094</ele><time>2026-07-23T21:14:59.000Z</time></trkpt>
        <trkpt lat="29.572012" lon="103.401358"><ele>771.22205</ele><time>2026-07-23T21:15:01.000Z</time></trkpt>
        <trkpt lat="29.572008" lon="103.401346"><ele>771.7633</ele><time>2026-07-23T21:15:03.000Z</time></trkpt>
        <trkpt lat="29.572004" lon="103.40134"><ele>772.48584</ele><time>2026-07-23T21:15:05.000Z</time></trkpt>
        <trkpt lat="29.571997" lon="103.401325"><ele>772.75793</ele><time>2026-07-23T21:15:09.000Z</time></trkpt>
      </trkseg>
      <trkseg>
        <trkpt lat="29.571925" lon="103.400882"><ele>786.06836</ele><time>2026-07-23T21:23:46.000Z</time></trkpt>
        <trkpt lat="29.571925" lon="103.40083"><ele>787.4049</ele><time>2026-07-23T21:24:46.000Z</time></trkpt>
        <trkpt lat="29.571917" lon="103.400821"><ele>785.7669</ele><time>2026-07-23T21:24:48.000Z</time></trkpt>
        <trkpt lat="29.571917" lon="103.40082"><ele>785.4816</ele><time>2026-07-23T21:24:50.000Z</time></trkpt>
        <trkpt lat="29.571921" lon="103.400725"><ele>791.20526</ele><time>2026-07-23T21:25:23.000Z</time></trkpt>
        <trkpt lat="29.571893" lon="103.400644"><ele>791.80524</ele><time>2026-07-23T21:25:38.000Z</time></trkpt>
        <trkpt lat="29.571882" lon="103.400591"><ele>795.081</ele><time>2026-07-23T21:25:53.000Z</time></trkpt>
        <trkpt lat="29.571876" lon="103.400546"><ele>797.58496</ele><time>2026-07-23T21:26:09.000Z</time></trkpt>
        <trkpt lat="29.571876" lon="103.400491"><ele>801.8265</ele><time>2026-07-23T21:26:24.000Z</time></trkpt>
        <trkpt lat="29.571875" lon="103.400477"><ele>799.04254</ele><time>2026-07-23T21:26:39.000Z</time></trkpt>
        <trkpt lat="29.571865" lon="103.400445"><ele>803.53345</ele><time>2026-07-23T21:26:54.000Z</time></trkpt>
        <trkpt lat="29.571851" lon="103.400395"><ele>804.674</ele><time>2026-07-23T21:27:09.000Z</time></trkpt>
        <trkpt lat="29.571847" lon="103.40036"><ele>803.98627</ele><time>2026-07-23T21:27:17.000Z</time></trkpt>
        <trkpt lat="29.571847" lon="103.400353"><ele>805.657</ele><time>2026-07-23T21:27:19.000Z</time></trkpt>
        <trkpt lat="29.571847" lon="103.400345"><ele>806.0286</ele><time>2026-07-23T21:27:21.000Z</time></trkpt>
        <trkpt lat="29.571845" lon="103.400321"><ele>806.5156</ele><time>2026-07-23T21:27:27.000Z</time></trkpt>
        <trkpt lat="29.571845" lon="103.400318"><ele>807.41205</ele><time>2026-07-23T21:27:29.000Z</time></trkpt>
        <trkpt lat="29.571844" lon="103.40031"><ele>806.5451</ele><time>2026-07-23T21:27:33.000Z</time></trkpt>
        <trkpt lat="29.571842" lon="103.400289"><ele>808.2578</ele><time>2026-07-23T21:27:39.000Z</time></trkpt>
        <trkpt lat="29.571843" lon="103.400286"><ele>809.41473</ele><time>2026-07-23T21:27:41.000Z</time></trkpt>
        <trkpt lat="29.571843" lon="103.400279"><ele>809.2781</ele><time>2026-07-23T21:27:45.000Z</time></trkpt>
        <trkpt lat="29.571841" lon="103.400241"><ele>810.08453</ele><time>2026-07-23T21:27:59.000Z</time></trkpt>
        <trkpt lat="29.571841" lon="103.400233"><ele>810.2455</ele><time>2026-07-23T21:28:01.000Z</time></trkpt>
        <trkpt lat="29.571839" lon="103.400226"><ele>810.3573</ele><time>2026-07-23T21:28:03.000Z</time></trkpt>
        <trkpt lat="29.571837" lon="103.400211"><ele>810.59644</ele><time>2026-07-23T21:28:09.000Z</time></trkpt>
        <trkpt lat="29.571834" lon="103.400192"><ele>813.1779</ele><time>2026-07-23T21:28:11.000Z</time></trkpt>
        <trkpt lat="29.571834" lon="103.40019"><ele>813.40546</ele><time>2026-07-23T21:28:13.000Z</time></trkpt>
        <trkpt lat="29.571828" lon="103.400173"><ele>812.42035</ele><time>2026-07-23T21:28:19.000Z</time></trkpt>
        <trkpt lat="29.57182" lon="103.400146"><ele>814.54065</ele><time>2026-07-23T21:28:23.000Z</time></trkpt>
        <trkpt lat="29.57182" lon="103.400146"><ele>814.4513</ele><time>2026-07-23T21:28:25.000Z</time></trkpt>
        <trkpt lat="29.571834" lon="103.400119"><ele>814.25977</ele><time>2026-07-23T21:28:34.000Z</time></trkpt>
        <trkpt lat="29.571816" lon="103.400098"><ele>814.9737</ele><time>2026-07-23T21:28:40.000Z</time></trkpt>
        <trkpt lat="29.571808" lon="103.400088"><ele>815.33856</ele><time>2026-07-23T21:28:42.000Z</time></trkpt>
        <trkpt lat="29.571808" lon="103.400087"><ele>815.29535</ele><time>2026-07-23T21:28:44.000Z</time></trkpt>
        <trkpt lat="29.571812" lon="103.40006"><ele>817.18945</ele><time>2026-07-23T21:28:50.000Z</time></trkpt>
        <trkpt lat="29.571815" lon="103.400046"><ele>817.149</ele><time>2026-07-23T21:28:52.000Z</time></trkpt>
        <trkpt lat="29.571814" lon="103.400045"><ele>817.25</ele><time>2026-07-23T21:28:54.000Z</time></trkpt>
        <trkpt lat="29.57181" lon="103.400022"><ele>816.454</ele><time>2026-07-23T21:29:02.000Z</time></trkpt>
        <trkpt lat="29.571805" lon="103.399991"><ele>819.08093</ele><time>2026-07-23T21:29:14.000Z</time></trkpt>
        <trkpt lat="29.571805" lon="103.399988"><ele>819.32684</ele><time>2026-07-23T21:29:16.000Z</time></trkpt>
        <trkpt lat="29.571808" lon="103.399976"><ele>819.38464</ele><time>2026-07-23T21:29:28.000Z</time></trkpt>
        <trkpt lat="29.571818" lon="103.399942"><ele>821.1573</ele><time>2026-07-23T21:29:36.000Z</time></trkpt>
        <trkpt lat="29.571821" lon="103.399935"><ele>821.3192</ele><time>2026-07-23T21:29:38.000Z</time></trkpt>
        <trkpt lat="29.571825" lon="103.399916"><ele>822.275</ele><time>2026-07-23T21:29:42.000Z</time></trkpt>
        <trkpt lat="29.571836" lon="103.399862"><ele>825.31165</ele><time>2026-07-23T21:29:59.000Z</time></trkpt>
        <trkpt lat="29.571848" lon="103.399803"><ele>825.30536</ele><time>2026-07-23T21:30:09.000Z</time></trkpt>
        <trkpt lat="29.571848" lon="103.399803"><ele>825.34186</ele><time>2026-07-23T21:30:11.000Z</time></trkpt>
        <trkpt lat="29.571849" lon="103.399799"><ele>825.5856</ele><time>2026-07-23T21:30:13.000Z</time></trkpt>
        <trkpt lat="29.571854" lon="103.399759"><ele>827.26483</ele><time>2026-07-23T21:30:17.000Z</time></trkpt>
        <trkpt lat="29.571855" lon="103.399739"><ele>827.52264</ele><time>2026-07-23T21:30:19.000Z</time></trkpt>
        <trkpt lat="29.571855" lon="103.39972"><ele>827.9238</ele><time>2026-07-23T21:30:21.000Z</time></trkpt>
        <trkpt lat="29.571855" lon="103.399708"><ele>829.02185</ele><time>2026-07-23T21:30:23.000Z</time></trkpt>
        <trkpt lat="29.571854" lon="103.399703"><ele>829.21094</ele><time>2026-07-23T21:30:25.000Z</time></trkpt>
        <trkpt lat="29.571847" lon="103.399691"><ele>828.6058</ele><time>2026-07-23T21:30:29.000Z</time></trkpt>
        <trkpt lat="29.571841" lon="103.399679"><ele>828.9012</ele><time>2026-07-23T21:30:31.000Z</time></trkpt>
        <trkpt lat="29.571841" lon="103.399678"><ele>829.0057</ele><time>2026-07-23T21:30:33.000Z</time></trkpt>
        <trkpt lat="29.571837" lon="103.399659"><ele>828.70654</ele><time>2026-07-23T21:30:39.000Z</time></trkpt>
        <trkpt lat="29.571834" lon="103.399642"><ele>829.3202</ele><time>2026-07-23T21:30:41.000Z</time></trkpt>
        <trkpt lat="29.571834" lon="103.399641"><ele>829.65515</ele><time>2026-07-23T21:30:43.000Z</time></trkpt>
        <trkpt lat="29.571834" lon="103.399617"><ele>830.5053</ele><time>2026-07-23T21:30:51.000Z</time></trkpt>
        <trkpt lat="29.571834" lon="103.399609"><ele>830.96075</ele><time>2026-07-23T21:30:53.000Z</time></trkpt>
        <trkpt lat="29.571832" lon="103.399601"><ele>831.5766</ele><time>2026-07-23T21:30:55.000Z</time></trkpt>
        <trkpt lat="29.571826" lon="103.399581"><ele>832.3542</ele><time>2026-07-23T21:30:59.000Z</time></trkpt>
        <trkpt lat="29.571825" lon="103.399569"><ele>832.51874</ele><time>2026-07-23T21:31:01.000Z</time></trkpt>
        <trkpt lat="29.571822" lon="103.399529"><ele>832.97186</ele><time>2026-07-23T21:31:06.000Z</time></trkpt>
        <trkpt lat="29.571822" lon="103.399513"><ele>832.96985</ele><time>2026-07-23T21:31:08.000Z</time></trkpt>
        <trkpt lat="29.57182" lon="103.399497"><ele>832.61884</ele><time>2026-07-23T21:31:10.000Z</time></trkpt>
        <trkpt lat="29.571819" lon="103.399483"><ele>832.7946</ele><time>2026-07-23T21:31:12.000Z</time></trkpt>
        <trkpt lat="29.571818" lon="103.399469"><ele>833.2657</ele><time>2026-07-23T21:31:14.000Z</time></trkpt>
        <trkpt lat="29.571819" lon="103.399453"><ele>833.4595</ele><time>2026-07-23T21:31:16.000Z</time></trkpt>
        <trkpt lat="29.571819" lon="103.399434"><ele>832.5545</ele><time>2026-07-23T21:31:18.000Z</time></trkpt>
        <trkpt lat="29.571816" lon="103.399419"><ele>832.98047</ele><time>2026-07-23T21:31:20.000Z</time></trkpt>
        <trkpt lat="29.571812" lon="103.399402"><ele>833.2068</ele><time>2026-07-23T21:31:22.000Z</time></trkpt>
        <trkpt lat="29.571808" lon="103.399387"><ele>833.3421</ele><time>2026-07-23T21:31:24.000Z</time></trkpt>
        <trkpt lat="29.571807" lon="103.399376"><ele>833.3409</ele><time>2026-07-23T21:31:26.000Z</time></trkpt>
        <trkpt lat="29.571809" lon="103.399369"><ele>834.36774</ele><time>2026-07-23T21:31:28.000Z</time></trkpt>
        <trkpt lat="29.571805" lon="103.399355"><ele>835.46423</ele><time>2026-07-23T21:31:34.000Z</time></trkpt>
        <trkpt lat="29.571799" lon="103.399337"><ele>834.9247</ele><time>2026-07-23T21:31:40.000Z</time></trkpt>
        <trkpt lat="29.571797" lon="103.399333"><ele>835.90173</ele><time>2026-07-23T21:31:42.000Z</time></trkpt>
        <trkpt lat="29.571793" lon="103.399323"><ele>836.4465</ele><time>2026-07-23T21:31:46.000Z</time></trkpt>
        <trkpt lat="29.571785" lon="103.399304"><ele>835.27313</ele><time>2026-07-23T21:31:52.000Z</time></trkpt>
        <trkpt lat="29.571784" lon="103.399302"><ele>835.82544</ele><time>2026-07-23T21:31:54.000Z</time></trkpt>
        <trkpt lat="29.571777" lon="103.399296"><ele>838.5813</ele><time>2026-07-23T21:32:09.000Z</time></trkpt>
        <trkpt lat="29.571733" lon="103.399256"><ele>840.44403</ele><time>2026-07-23T21:32:25.000Z</time></trkpt>
        <trkpt lat="29.571719" lon="103.399242"><ele>840.232</ele><time>2026-07-23T21:32:27.000Z</time></trkpt>
        <trkpt lat="29.571719" lon="103.399241"><ele>839.62427</ele><time>2026-07-23T21:32:29.000Z</time></trkpt>
        <trkpt lat="29.571712" lon="103.39922"><ele>841.28613</ele><time>2026-07-23T21:32:35.000Z</time></trkpt>
        <trkpt lat="29.571704" lon="103.399195"><ele>842.5471</ele><time>2026-07-23T21:32:39.000Z</time></trkpt>
        <trkpt lat="29.571704" lon="103.399195"><ele>842.69653</ele><time>2026-07-23T21:32:41.000Z</time></trkpt>
        <trkpt lat="29.571702" lon="103.399184"><ele>843.3555</ele><time>2026-07-23T21:32:45.000Z</time></trkpt>
        <trkpt lat="29.571696" lon="103.399148"><ele>843.65497</ele><time>2026-07-23T21:32:49.000Z</time></trkpt>
        <trkpt lat="29.571693" lon="103.399127"><ele>844.5283</ele><time>2026-07-23T21:32:51.000Z</time></trkpt>
        <trkpt lat="29.57169" lon="103.39911"><ele>844.5464</ele><time>2026-07-23T21:32:53.000Z</time></trkpt>
        <trkpt lat="29.571686" lon="103.399093"><ele>844.63214</ele><time>2026-07-23T21:32:55.000Z</time></trkpt>
        <trkpt lat="29.571681" lon="103.399084"><ele>844.4248</ele><time>2026-07-23T21:32:57.000Z</time></trkpt>
        <trkpt lat="29.571677" lon="103.399076"><ele>843.9453</ele><time>2026-07-23T21:33:01.000Z</time></trkpt>
        <trkpt lat="29.571665" lon="103.399054"><ele>844.7646</ele><time>2026-07-23T21:33:05.000Z</time></trkpt>
        <trkpt lat="29.571658" lon="103.399041"><ele>844.87177</ele><time>2026-07-23T21:33:07.000Z</time></trkpt>
        <trkpt lat="29.571651" lon="103.399026"><ele>845.26654</ele><time>2026-07-23T21:33:09.000Z</time></trkpt>
        <trkpt lat="29.571643" lon="103.399008"><ele>845.2314</ele><time>2026-07-23T21:33:11.000Z</time></trkpt>
        <trkpt lat="29.571636" lon="103.39899"><ele>845.7028</ele><time>2026-07-23T21:33:13.000Z</time></trkpt>
        <trkpt lat="29.571631" lon="103.398974"><ele>846.0832</ele><time>2026-07-23T21:33:15.000Z</time></trkpt>
        <trkpt lat="29.571628" lon="103.398956"><ele>847.1495</ele><time>2026-07-23T21:33:17.000Z</time></trkpt>
        <trkpt lat="29.571626" lon="103.398934"><ele>846.79553</ele><time>2026-07-23T21:33:19.000Z</time></trkpt>
        <trkpt lat="29.571627" lon="103.398916"><ele>847.4687</ele><time>2026-07-23T21:33:21.000Z</time></trkpt>
        <trkpt lat="29.57163" lon="103.398903"><ele>847.1767</ele><time>2026-07-23T21:33:23.000Z</time></trkpt>
        <trkpt lat="29.571634" lon="103.398902"><ele>847.91223</ele><time>2026-07-23T21:33:25.000Z</time></trkpt>
        <trkpt lat="29.571658" lon="103.398897"><ele>846.8439</ele><time>2026-07-23T21:33:35.000Z</time></trkpt>
      </trkseg>
      <trkseg>
        <trkpt lat="29.57166" lon="103.398917"><ele>845.3112</ele><time>2026-07-23T21:55:58.000Z</time></trkpt>
        <trkpt lat="29.571654" lon="103.398882"><ele>844.14105</ele><time>2026-07-23T21:56:39.000Z</time></trkpt>
        <trkpt lat="29.571639" lon="103.398878"><ele>844.0155</ele><time>2026-07-23T21:56:41.000Z</time></trkpt>
        <trkpt lat="29.571638" lon="103.398877"><ele>844.2107</ele><time>2026-07-23T21:56:43.000Z</time></trkpt>
        <trkpt lat="29.571624" lon="103.398857"><ele>845.0311</ele><time>2026-07-23T21:56:47.000Z</time></trkpt>
        <trkpt lat="29.571612" lon="103.398833"><ele>844.55597</ele><time>2026-07-23T21:56:49.000Z</time></trkpt>
        <trkpt lat="29.5716" lon="103.398803"><ele>844.2434</ele><time>2026-07-23T21:56:51.000Z</time></trkpt>
        <trkpt lat="29.571589" lon="103.398778"><ele>844.9265</ele><time>2026-07-23T21:56:53.000Z</time></trkpt>
        <trkpt lat="29.571584" lon="103.398758"><ele>844.60114</ele><time>2026-07-23T21:56:55.000Z</time></trkpt>
        <trkpt lat="29.571581" lon="103.398739"><ele>844.6018</ele><time>2026-07-23T21:56:57.000Z</time></trkpt>
        <trkpt lat="29.571579" lon="103.39872"><ele>844.9648</ele><time>2026-07-23T21:56:59.000Z</time></trkpt>
        <trkpt lat="29.571575" lon="103.398696"><ele>844.5285</ele><time>2026-07-23T21:57:01.000Z</time></trkpt>
        <trkpt lat="29.571573" lon="103.398671"><ele>845.33954</ele><time>2026-07-23T21:57:03.000Z</time></trkpt>
        <trkpt lat="29.571574" lon="103.398649"><ele>845.742</ele><time>2026-07-23T21:57:05.000Z</time></trkpt>
        <trkpt lat="29.571577" lon="103.398626"><ele>845.4529</ele><time>2026-07-23T21:57:07.000Z</time></trkpt>
        <trkpt lat="29.571581" lon="103.398614"><ele>846.0776</ele><time>2026-07-23T21:57:09.000Z</time></trkpt>
        <trkpt lat="29.571581" lon="103.398608"><ele>846.0776</ele><time>2026-07-23T21:57:11.000Z</time></trkpt>
        <trkpt lat="29.571585" lon="103.398593"><ele>847.9631</ele><time>2026-07-23T21:57:21.000Z</time></trkpt>
        <trkpt lat="29.57159" lon="103.398571"><ele>848.5089</ele><time>2026-07-23T21:57:31.000Z</time></trkpt>
        <trkpt lat="29.571593" lon="103.398566"><ele>848.54553</ele><time>2026-07-23T21:57:33.000Z</time></trkpt>
        <trkpt lat="29.571594" lon="103.39856"><ele>849.1396</ele><time>2026-07-23T21:57:35.000Z</time></trkpt>
        <trkpt lat="29.571594" lon="103.398536"><ele>848.0359</ele><time>2026-07-23T21:57:41.000Z</time></trkpt>
        <trkpt lat="29.571592" lon="103.398518"><ele>847.8777</ele><time>2026-07-23T21:57:43.000Z</time></trkpt>
        <trkpt lat="29.571592" lon="103.398516"><ele>847.3876</ele><time>2026-07-23T21:57:45.000Z</time></trkpt>
        <trkpt lat="29.571582" lon="103.398496"><ele>845.9314</ele><time>2026-07-23T21:57:49.000Z</time></trkpt>
        <trkpt lat="29.571572" lon="103.398473"><ele>844.8795</ele><time>2026-07-23T21:57:51.000Z</time></trkpt>
        <trkpt lat="29.571564" lon="103.398447"><ele>845.26355</ele><time>2026-07-23T21:57:53.000Z</time></trkpt>
        <trkpt lat="29.571561" lon="103.398426"><ele>844.637</ele><time>2026-07-23T21:57:55.000Z</time></trkpt>
        <trkpt lat="29.571559" lon="103.398408"><ele>843.7935</ele><time>2026-07-23T21:57:57.000Z</time></trkpt>
        <trkpt lat="29.57156" lon="103.398397"><ele>843.8725</ele><time>2026-07-23T21:57:59.000Z</time></trkpt>
        <trkpt lat="29.571564" lon="103.398387"><ele>844.13745</ele><time>2026-07-23T21:58:01.000Z</time></trkpt>
        <trkpt lat="29.571567" lon="103.398374"><ele>844.0896</ele><time>2026-07-23T21:58:05.000Z</time></trkpt>
        <trkpt lat="29.571571" lon="103.398361"><ele>843.0925</ele><time>2026-07-23T21:58:21.000Z</time></trkpt>
        <trkpt lat="29.571576" lon="103.398342"><ele>842.6514</ele><time>2026-07-23T21:58:23.000Z</time></trkpt>
        <trkpt lat="29.571576" lon="103.398341"><ele>841.83075</ele><time>2026-07-23T21:58:25.000Z</time></trkpt>
        <trkpt lat="29.571571" lon="103.39829"><ele>841.42957</ele><time>2026-07-23T21:58:28.000Z</time></trkpt>
        <trkpt lat="29.571571" lon="103.39829"><ele>841.66016</ele><time>2026-07-23T21:58:30.000Z</time></trkpt>
        <trkpt lat="29.571571" lon="103.398287"><ele>840.2564</ele><time>2026-07-23T21:58:32.000Z</time></trkpt>
        <trkpt lat="29.571571" lon="103.398254"><ele>838.0414</ele><time>2026-07-23T21:58:36.000Z</time></trkpt>
        <trkpt lat="29.571571" lon="103.398229"><ele>837.3657</ele><time>2026-07-23T21:58:38.000Z</time></trkpt>
        <trkpt lat="29.57157" lon="103.398208"><ele>836.5088</ele><time>2026-07-23T21:58:40.000Z</time></trkpt>
        <trkpt lat="29.571572" lon="103.398192"><ele>835.8481</ele><time>2026-07-23T21:58:42.000Z</time></trkpt>
        <trkpt lat="29.571572" lon="103.39818"><ele>835.1525</ele><time>2026-07-23T21:58:44.000Z</time></trkpt>
        <trkpt lat="29.571571" lon="103.398168"><ele>834.9592</ele><time>2026-07-23T21:58:46.000Z</time></trkpt>
        <trkpt lat="29.57157" lon="103.398157"><ele>834.4368</ele><time>2026-07-23T21:58:48.000Z</time></trkpt>
        <trkpt lat="29.571569" lon="103.398142"><ele>834.47656</ele><time>2026-07-23T21:58:50.000Z</time></trkpt>
        <trkpt lat="29.571569" lon="103.398127"><ele>832.7481</ele><time>2026-07-23T21:58:52.000Z</time></trkpt>
        <trkpt lat="29.57157" lon="103.398108"><ele>831.5915</ele><time>2026-07-23T21:58:54.000Z</time></trkpt>
        <trkpt lat="29.571571" lon="103.398087"><ele>831.0388</ele><time>2026-07-23T21:58:56.000Z</time></trkpt>
        <trkpt lat="29.571571" lon="103.398067"><ele>831.36145</ele><time>2026-07-23T21:58:58.000Z</time></trkpt>
        <trkpt lat="29.57157" lon="103.398055"><ele>831.63306</ele><time>2026-07-23T21:59:00.000Z</time></trkpt>
        <trkpt lat="29.571569" lon="103.398042"><ele>831.0069</ele><time>2026-07-23T21:59:02.000Z</time></trkpt>
        <trkpt lat="29.57157" lon="103.398033"><ele>831.0537</ele><time>2026-07-23T21:59:04.000Z</time></trkpt>
        <trkpt lat="29.571569" lon="103.398022"><ele>831.2704</ele><time>2026-07-23T21:59:06.000Z</time></trkpt>
        <trkpt lat="29.571566" lon="103.397998"><ele>830.80963</ele><time>2026-07-23T21:59:10.000Z</time></trkpt>
        <trkpt lat="29.571563" lon="103.397985"><ele>831.4258</ele><time>2026-07-23T21:59:12.000Z</time></trkpt>
        <trkpt lat="29.571562" lon="103.397977"><ele>831.0759</ele><time>2026-07-23T21:59:14.000Z</time></trkpt>
        <trkpt lat="29.571557" lon="103.397949"><ele>831.16254</ele><time>2026-07-23T21:59:18.000Z</time></trkpt>
        <trkpt lat="29.571557" lon="103.397948"><ele>830.39886</ele><time>2026-07-23T21:59:20.000Z</time></trkpt>
        <trkpt lat="29.571548" lon="103.397939"><ele>829.35443</ele><time>2026-07-23T21:59:24.000Z</time></trkpt>
        <trkpt lat="29.571537" lon="103.397922"><ele>827.98413</ele><time>2026-07-23T21:59:30.000Z</time></trkpt>
        <trkpt lat="29.571536" lon="103.397915"><ele>827.47327</ele><time>2026-07-23T21:59:32.000Z</time></trkpt>
        <trkpt lat="29.57153" lon="103.397897"><ele>827.4113</ele><time>2026-07-23T21:59:34.000Z</time></trkpt>
        <trkpt lat="29.571521" lon="103.397879"><ele>825.9711</ele><time>2026-07-23T21:59:40.000Z</time></trkpt>
        <trkpt lat="29.571513" lon="103.397863"><ele>824.9996</ele><time>2026-07-23T21:59:42.000Z</time></trkpt>
        <trkpt lat="29.571506" lon="103.397849"><ele>823.842</ele><time>2026-07-23T21:59:44.000Z</time></trkpt>
        <trkpt lat="29.5715" lon="103.397838"><ele>823.4036</ele><time>2026-07-23T21:59:46.000Z</time></trkpt>
        <trkpt lat="29.571495" lon="103.397829"><ele>823.34607</ele><time>2026-07-23T21:59:48.000Z</time></trkpt>
        <trkpt lat="29.57149" lon="103.397813"><ele>822.3348</ele><time>2026-07-23T21:59:52.000Z</time></trkpt>
        <trkpt lat="29.57149" lon="103.397806"><ele>822.1408</ele><time>2026-07-23T21:59:54.000Z</time></trkpt>
        <trkpt lat="29.571493" lon="103.397777"><ele>821.84863</ele><time>2026-07-23T21:59:58.000Z</time></trkpt>
        <trkpt lat="29.571493" lon="103.397777"><ele>822.29736</ele><time>2026-07-23T22:00:00.000Z</time></trkpt>
        <trkpt lat="29.571489" lon="103.397767"><ele>821.6327</ele><time>2026-07-23T22:00:04.000Z</time></trkpt>
        <trkpt lat="29.571479" lon="103.397739"><ele>820.12573</ele><time>2026-07-23T22:00:08.000Z</time></trkpt>
        <trkpt lat="29.571479" lon="103.397739"><ele>820.005</ele><time>2026-07-23T22:00:10.000Z</time></trkpt>
        <trkpt lat="29.571466" lon="103.397717"><ele>818.13586</ele><time>2026-07-23T22:00:15.000Z</time></trkpt>
        <trkpt lat="29.571455" lon="103.3977"><ele>817.5508</ele><time>2026-07-23T22:00:17.000Z</time></trkpt>
        <trkpt lat="29.571446" lon="103.397689"><ele>817.4118</ele><time>2026-07-23T22:00:19.000Z</time></trkpt>
        <trkpt lat="29.571438" lon="103.397683"><ele>816.7485</ele><time>2026-07-23T22:00:21.000Z</time></trkpt>
        <trkpt lat="29.571433" lon="103.397677"><ele>816.3689</ele><time>2026-07-23T22:00:23.000Z</time></trkpt>
        <trkpt lat="29.571429" lon="103.39766"><ele>815.2279</ele><time>2026-07-23T22:00:29.000Z</time></trkpt>
        <trkpt lat="29.571429" lon="103.397647"><ele>815.5921</ele><time>2026-07-23T22:00:33.000Z</time></trkpt>
        <trkpt lat="29.571429" lon="103.397643"><ele>815.5921</ele><time>2026-07-23T22:00:35.000Z</time></trkpt>
        <trkpt lat="29.571431" lon="103.3976"><ele>815.63855</ele><time>2026-07-23T22:00:41.000Z</time></trkpt>
        <trkpt lat="29.571431" lon="103.3976"><ele>815.5842</ele><time>2026-07-23T22:00:43.000Z</time></trkpt>
        <trkpt lat="29.571431" lon="103.397598"><ele>815.7553</ele><time>2026-07-23T22:00:45.000Z</time></trkpt>
        <trkpt lat="29.571434" lon="103.39755"><ele>815.1971</ele><time>2026-07-23T22:00:51.000Z</time></trkpt>
        <trkpt lat="29.571438" lon="103.397528"><ele>815.24036</ele><time>2026-07-23T22:00:53.000Z</time></trkpt>
        <trkpt lat="29.571445" lon="103.397502"><ele>815.8916</ele><time>2026-07-23T22:00:55.000Z</time></trkpt>
        <trkpt lat="29.571454" lon="103.397477"><ele>816.72296</ele><time>2026-07-23T22:00:57.000Z</time></trkpt>
        <trkpt lat="29.571461" lon="103.397458"><ele>816.34357</ele><time>2026-07-23T22:00:59.000Z</time></trkpt>
        <trkpt lat="29.571467" lon="103.397441"><ele>815.4046</ele><time>2026-07-23T22:01:01.000Z</time></trkpt>
        <trkpt lat="29.571473" lon="103.397422"><ele>814.95935</ele><time>2026-07-23T22:01:03.000Z</time></trkpt>
        <trkpt lat="29.571478" lon="103.397408"><ele>815.4873</ele><time>2026-07-23T22:01:05.000Z</time></trkpt>
        <trkpt lat="29.571485" lon="103.397389"><ele>816.7293</ele><time>2026-07-23T22:01:07.000Z</time></trkpt>
        <trkpt lat="29.571492" lon="103.397372"><ele>816.6026</ele><time>2026-07-23T22:01:09.000Z</time></trkpt>
        <trkpt lat="29.571497" lon="103.397358"><ele>816.8407</ele><time>2026-07-23T22:01:11.000Z</time></trkpt>
        <trkpt lat="29.571498" lon="103.39735"><ele>815.9319</ele><time>2026-07-23T22:01:13.000Z</time></trkpt>
        <trkpt lat="29.571501" lon="103.397334"><ele>815.5446</ele><time>2026-07-23T22:01:17.000Z</time></trkpt>
        <trkpt lat="29.571506" lon="103.39732"><ele>816.01715</ele><time>2026-07-23T22:01:21.000Z</time></trkpt>
        <trkpt lat="29.571511" lon="103.3973"><ele>815.3187</ele><time>2026-07-23T22:01:23.000Z</time></trkpt>
        <trkpt lat="29.571511" lon="103.397299"><ele>814.7859</ele><time>2026-07-23T22:01:25.000Z</time></trkpt>
        <trkpt lat="29.571515" lon="103.397286"><ele>813.76935</ele><time>2026-07-23T22:01:29.000Z</time></trkpt>
        <trkpt lat="29.57153" lon="103.397252"><ele>811.90814</ele><time>2026-07-23T22:01:33.000Z</time></trkpt>
        <trkpt lat="29.571538" lon="103.397237"><ele>811.3195</ele><time>2026-07-23T22:01:35.000Z</time></trkpt>
        <trkpt lat="29.571548" lon="103.397223"><ele>811.03326</ele><time>2026-07-23T22:01:37.000Z</time></trkpt>
        <trkpt lat="29.571557" lon="103.39721"><ele>810.34863</ele><time>2026-07-23T22:01:39.000Z</time></trkpt>
        <trkpt lat="29.571564" lon="103.397199"><ele>809.9209</ele><time>2026-07-23T22:01:41.000Z</time></trkpt>
        <trkpt lat="29.571576" lon="103.397182"><ele>811.6243</ele><time>2026-07-23T22:01:43.000Z</time></trkpt>
        <trkpt lat="29.571584" lon="103.397168"><ele>811.3703</ele><time>2026-07-23T22:01:45.000Z</time></trkpt>
        <trkpt lat="29.571592" lon="103.397156"><ele>811.0183</ele><time>2026-07-23T22:01:47.000Z</time></trkpt>
        <trkpt lat="29.571597" lon="103.397149"><ele>810.4727</ele><time>2026-07-23T22:01:49.000Z</time></trkpt>
        <trkpt lat="29.571605" lon="103.397138"><ele>810.2094</ele><time>2026-07-23T22:01:51.000Z</time></trkpt>
        <trkpt lat="29.571612" lon="103.397126"><ele>809.3217</ele><time>2026-07-23T22:01:53.000Z</time></trkpt>
        <trkpt lat="29.571617" lon="103.397115"><ele>808.44495</ele><time>2026-07-23T22:01:55.000Z</time></trkpt>
        <trkpt lat="29.571622" lon="103.397104"><ele>807.739</ele><time>2026-07-23T22:01:57.000Z</time></trkpt>
        <trkpt lat="29.571626" lon="103.397096"><ele>807.4205</ele><time>2026-07-23T22:01:59.000Z</time></trkpt>
        <trkpt lat="29.571631" lon="103.397083"><ele>807.2147</ele><time>2026-07-23T22:02:01.000Z</time></trkpt>
        <trkpt lat="29.571639" lon="103.397066"><ele>806.14453</ele><time>2026-07-23T22:02:03.000Z</time></trkpt>
        <trkpt lat="29.571644" lon="103.39705"><ele>805.47314</ele><time>2026-07-23T22:02:05.000Z</time></trkpt>
        <trkpt lat="29.571652" lon="103.397027"><ele>805.5213</ele><time>2026-07-23T22:02:07.000Z</time></trkpt>
        <trkpt lat="29.57166" lon="103.39701"><ele>805.3211</ele><time>2026-07-23T22:02:09.000Z</time></trkpt>
        <trkpt lat="29.571668" lon="103.396999"><ele>804.7577</ele><time>2026-07-23T22:02:11.000Z</time></trkpt>
        <trkpt lat="29.571677" lon="103.396991"><ele>804.0503</ele><time>2026-07-23T22:02:13.000Z</time></trkpt>
        <trkpt lat="29.571683" lon="103.396986"><ele>801.85956</ele><time>2026-07-23T22:02:15.000Z</time></trkpt>
        <trkpt lat="29.571694" lon="103.396973"><ele>800.8547</ele><time>2026-07-23T22:02:19.000Z</time></trkpt>
        <trkpt lat="29.571702" lon="103.39696"><ele>801.63617</ele><time>2026-07-23T22:02:21.000Z</time></trkpt>
        <trkpt lat="29.57171" lon="103.396945"><ele>801.0579</ele><time>2026-07-23T22:02:23.000Z</time></trkpt>
        <trkpt lat="29.571717" lon="103.396934"><ele>800.15704</ele><time>2026-07-23T22:02:25.000Z</time></trkpt>
        <trkpt lat="29.571725" lon="103.396922"><ele>800.06506</ele><time>2026-07-23T22:02:27.000Z</time></trkpt>
        <trkpt lat="29.571733" lon="103.39691"><ele>799.5963</ele><time>2026-07-23T22:02:29.000Z</time></trkpt>
        <trkpt lat="29.571738" lon="103.396899"><ele>799.0058</ele><time>2026-07-23T22:02:31.000Z</time></trkpt>
        <trkpt lat="29.571744" lon="103.396889"><ele>798.7324</ele><time>2026-07-23T22:02:33.000Z</time></trkpt>
        <trkpt lat="29.571755" lon="103.396875"><ele>799.3279</ele><time>2026-07-23T22:02:35.000Z</time></trkpt>
        <trkpt lat="29.571763" lon="103.396863"><ele>798.8392</ele><time>2026-07-23T22:02:37.000Z</time></trkpt>
        <trkpt lat="29.571774" lon="103.396851"><ele>799.0361</ele><time>2026-07-23T22:02:39.000Z</time></trkpt>
        <trkpt lat="29.571782" lon="103.396841"><ele>798.0902</ele><time>2026-07-23T22:02:41.000Z</time></trkpt>
        <trkpt lat="29.57179" lon="103.396833"><ele>797.38696</ele><time>2026-07-23T22:02:43.000Z</time></trkpt>
        <trkpt lat="29.571798" lon="103.396826"><ele>797.62823</ele><time>2026-07-23T22:02:45.000Z</time></trkpt>
        <trkpt lat="29.571808" lon="103.39682"><ele>797.19073</ele><time>2026-07-23T22:02:47.000Z</time></trkpt>
        <trkpt lat="29.571818" lon="103.396816"><ele>796.7047</ele><time>2026-07-23T22:02:49.000Z</time></trkpt>
        <trkpt lat="29.571829" lon="103.396812"><ele>797.0671</ele><time>2026-07-23T22:02:51.000Z</time></trkpt>
        <trkpt lat="29.571842" lon="103.396808"><ele>797.5619</ele><time>2026-07-23T22:02:53.000Z</time></trkpt>
        <trkpt lat="29.571852" lon="103.396803"><ele>796.3733</ele><time>2026-07-23T22:02:55.000Z</time></trkpt>
        <trkpt lat="29.571861" lon="103.3968"><ele>796.67957</ele><time>2026-07-23T22:02:57.000Z</time></trkpt>
        <trkpt lat="29.571871" lon="103.396796"><ele>796.30975</ele><time>2026-07-23T22:02:59.000Z</time></trkpt>
        <trkpt lat="29.571885" lon="103.396793"><ele>796.38135</ele><time>2026-07-23T22:03:01.000Z</time></trkpt>
        <trkpt lat="29.571899" lon="103.39679"><ele>796.7871</ele><time>2026-07-23T22:03:03.000Z</time></trkpt>
        <trkpt lat="29.57191" lon="103.396789"><ele>796.1986</ele><time>2026-07-23T22:03:05.000Z</time></trkpt>
        <trkpt lat="29.571925" lon="103.396788"><ele>795.94116</ele><time>2026-07-23T22:03:07.000Z</time></trkpt>
        <trkpt lat="29.57194" lon="103.396787"><ele>795.6599</ele><time>2026-07-23T22:03:09.000Z</time></trkpt>
        <trkpt lat="29.57195" lon="103.396786"><ele>794.78204</ele><time>2026-07-23T22:03:11.000Z</time></trkpt>
        <trkpt lat="29.571961" lon="103.396784"><ele>794.03436</ele><time>2026-07-23T22:03:13.000Z</time></trkpt>
        <trkpt lat="29.571972" lon="103.39678"><ele>792.9664</ele><time>2026-07-23T22:03:15.000Z</time></trkpt>
        <trkpt lat="29.571983" lon="103.396776"><ele>792.5255</ele><time>2026-07-23T22:03:17.000Z</time></trkpt>
        <trkpt lat="29.571995" lon="103.396771"><ele>792.49664</ele><time>2026-07-23T22:03:19.000Z</time></trkpt>
        <trkpt lat="29.572003" lon="103.396768"><ele>792.1248</ele><time>2026-07-23T22:03:21.000Z</time></trkpt>
        <trkpt lat="29.572016" lon="103.396763"><ele>790.4877</ele><time>2026-07-23T22:03:27.000Z</time></trkpt>
        <trkpt lat="29.572023" lon="103.396763"><ele>790.93634</ele><time>2026-07-23T22:03:29.000Z</time></trkpt>
        <trkpt lat="29.572038" lon="103.396761"><ele>790.5663</ele><time>2026-07-23T22:03:31.000Z</time></trkpt>
        <trkpt lat="29.572053" lon="103.396757"><ele>788.74146</ele><time>2026-07-23T22:03:37.000Z</time></trkpt>
        <trkpt lat="29.572065" lon="103.396754"><ele>788.8933</ele><time>2026-07-23T22:03:39.000Z</time></trkpt>
        <trkpt lat="29.572078" lon="103.39675"><ele>788.72546</ele><time>2026-07-23T22:03:41.000Z</time></trkpt>
        <trkpt lat="29.572089" lon="103.396746"><ele>788.7053</ele><time>2026-07-23T22:03:43.000Z</time></trkpt>
        <trkpt lat="29.572099" lon="103.396743"><ele>788.0729</ele><time>2026-07-23T22:03:45.000Z</time></trkpt>
        <trkpt lat="29.572109" lon="103.396739"><ele>788.6176</ele><time>2026-07-23T22:03:47.000Z</time></trkpt>
        <trkpt lat="29.572119" lon="103.396737"><ele>787.88837</ele><time>2026-07-23T22:03:49.000Z</time></trkpt>
        <trkpt lat="29.572137" lon="103.396734"><ele>786.2055</ele><time>2026-07-23T22:03:53.000Z</time></trkpt>
        <trkpt lat="29.572145" lon="103.396732"><ele>785.98926</ele><time>2026-07-23T22:03:55.000Z</time></trkpt>
        <trkpt lat="29.572152" lon="103.39673"><ele>786.58936</ele><time>2026-07-23T22:03:57.000Z</time></trkpt>
        <trkpt lat="29.572174" lon="103.396726"><ele>786.0233</ele><time>2026-07-23T22:04:03.000Z</time></trkpt>
        <trkpt lat="29.57219" lon="103.396722"><ele>786.307</ele><time>2026-07-23T22:04:05.000Z</time></trkpt>
        <trkpt lat="29.572191" lon="103.396723"><ele>786.0047</ele><time>2026-07-23T22:04:07.000Z</time></trkpt>
        <trkpt lat="29.572209" lon="103.396722"><ele>785.9827</ele><time>2026-07-23T22:04:11.000Z</time></trkpt>
        <trkpt lat="29.572225" lon="103.39672"><ele>784.68634</ele><time>2026-07-23T22:04:13.000Z</time></trkpt>
        <trkpt lat="29.572241" lon="103.396717"><ele>783.59204</ele><time>2026-07-23T22:04:15.000Z</time></trkpt>
        <trkpt lat="29.572254" lon="103.396714"><ele>783.78546</ele><time>2026-07-23T22:04:17.000Z</time></trkpt>
        <trkpt lat="29.572263" lon="103.396713"><ele>783.5607</ele><time>2026-07-23T22:04:19.000Z</time></trkpt>
        <trkpt lat="29.572272" lon="103.396712"><ele>783.0605</ele><time>2026-07-23T22:04:21.000Z</time></trkpt>
        <trkpt lat="29.57229" lon="103.39671"><ele>782.02686</ele><time>2026-07-23T22:04:25.000Z</time></trkpt>
        <trkpt lat="29.572299" lon="103.396709"><ele>781.9817</ele><time>2026-07-23T22:04:27.000Z</time></trkpt>
        <trkpt lat="29.572308" lon="103.396705"><ele>780.98816</ele><time>2026-07-23T22:04:29.000Z</time></trkpt>
        <trkpt lat="29.57232" lon="103.396698"><ele>780.0976</ele><time>2026-07-23T22:04:33.000Z</time></trkpt>
        <trkpt lat="29.572331" lon="103.396686"><ele>780.35016</ele><time>2026-07-23T22:04:35.000Z</time></trkpt>
        <trkpt lat="29.572331" lon="103.396683"><ele>778.5972</ele><time>2026-07-23T22:04:39.000Z</time></trkpt>
        <trkpt lat="29.572331" lon="103.396666"><ele>779.65704</ele><time>2026-07-23T22:04:41.000Z</time></trkpt>
        <trkpt lat="29.572333" lon="103.396642"><ele>778.1968</ele><time>2026-07-23T22:04:43.000Z</time></trkpt>
        <trkpt lat="29.572336" lon="103.396618"><ele>778.2274</ele><time>2026-07-23T22:04:45.000Z</time></trkpt>
        <trkpt lat="29.572341" lon="103.3966"><ele>777.73206</ele><time>2026-07-23T22:04:47.000Z</time></trkpt>
        <trkpt lat="29.572348" lon="103.396584"><ele>776.9458</ele><time>2026-07-23T22:04:49.000Z</time></trkpt>
        <trkpt lat="29.572354" lon="103.396569"><ele>775.80164</ele><time>2026-07-23T22:04:51.000Z</time></trkpt>
        <trkpt lat="29.572358" lon="103.396556"><ele>775.62805</ele><time>2026-07-23T22:04:53.000Z</time></trkpt>
        <trkpt lat="29.572359" lon="103.396545"><ele>774.5125</ele><time>2026-07-23T22:04:55.000Z</time></trkpt>
        <trkpt lat="29.572359" lon="103.396532"><ele>774.1959</ele><time>2026-07-23T22:04:57.000Z</time></trkpt>
        <trkpt lat="29.572356" lon="103.39652"><ele>774.2229</ele><time>2026-07-23T22:04:59.000Z</time></trkpt>
        <trkpt lat="29.572352" lon="103.396506"><ele>773.871</ele><time>2026-07-23T22:05:01.000Z</time></trkpt>
        <trkpt lat="29.572347" lon="103.39649"><ele>773.7586</ele><time>2026-07-23T22:05:03.000Z</time></trkpt>
        <trkpt lat="29.572342" lon="103.396472"><ele>773.56995</ele><time>2026-07-23T22:05:05.000Z</time></trkpt>
        <trkpt lat="29.572337" lon="103.396451"><ele>773.3606</ele><time>2026-07-23T22:05:07.000Z</time></trkpt>
        <trkpt lat="29.572333" lon="103.396427"><ele>773.585</ele><time>2026-07-23T22:05:09.000Z</time></trkpt>
        <trkpt lat="29.572332" lon="103.396404"><ele>773.3611</ele><time>2026-07-23T22:05:11.000Z</time></trkpt>
        <trkpt lat="29.572332" lon="103.39638"><ele>772.52515</ele><time>2026-07-23T22:05:13.000Z</time></trkpt>
        <trkpt lat="29.572335" lon="103.396357"><ele>772.8321</ele><time>2026-07-23T22:05:15.000Z</time></trkpt>
        <trkpt lat="29.572341" lon="103.396337"><ele>773.68335</ele><time>2026-07-23T22:05:17.000Z</time></trkpt>
        <trkpt lat="29.572351" lon="103.396321"><ele>774.3908</ele><time>2026-07-23T22:05:19.000Z</time></trkpt>
        <trkpt lat="29.57236" lon="103.396309"><ele>774.16125</ele><time>2026-07-23T22:05:21.000Z</time></trkpt>
        <trkpt lat="29.572369" lon="103.396297"><ele>773.8013</ele><time>2026-07-23T22:05:23.000Z</time></trkpt>
        <trkpt lat="29.572376" lon="103.396284"><ele>773.71014</ele><time>2026-07-23T22:05:25.000Z</time></trkpt>
        <trkpt lat="29.572379" lon="103.39627"><ele>772.99976</ele><time>2026-07-23T22:05:27.000Z</time></trkpt>
        <trkpt lat="29.572379" lon="103.396256"><ele>772.7908</ele><time>2026-07-23T22:05:29.000Z</time></trkpt>
        <trkpt lat="29.572379" lon="103.396238"><ele>773.0449</ele><time>2026-07-23T22:05:31.000Z</time></trkpt>
        <trkpt lat="29.57238" lon="103.39622"><ele>773.3199</ele><time>2026-07-23T22:05:33.000Z</time></trkpt>
        <trkpt lat="29.572382" lon="103.3962"><ele>773.1748</ele><time>2026-07-23T22:05:35.000Z</time></trkpt>
        <trkpt lat="29.572383" lon="103.396181"><ele>772.2754</ele><time>2026-07-23T22:05:37.000Z</time></trkpt>
        <trkpt lat="29.572384" lon="103.396164"><ele>771.614</ele><time>2026-07-23T22:05:39.000Z</time></trkpt>
        <trkpt lat="29.572384" lon="103.396152"><ele>771.0225</ele><time>2026-07-23T22:05:41.000Z</time></trkpt>
        <trkpt lat="29.572385" lon="103.396142"><ele>769.60486</ele><time>2026-07-23T22:05:43.000Z</time></trkpt>
        <trkpt lat="29.572388" lon="103.396129"><ele>769.5417</ele><time>2026-07-23T22:05:45.000Z</time></trkpt>
        <trkpt lat="29.572391" lon="103.396115"><ele>769.8432</ele><time>2026-07-23T22:05:47.000Z</time></trkpt>
        <trkpt lat="29.572396" lon="103.396099"><ele>770.5611</ele><time>2026-07-23T22:05:49.000Z</time></trkpt>
        <trkpt lat="29.572396" lon="103.39609"><ele>770.6482</ele><time>2026-07-23T22:05:51.000Z</time></trkpt>
        <trkpt lat="29.5724" lon="103.396076"><ele>772.5782</ele><time>2026-07-23T22:06:08.000Z</time></trkpt>
        <trkpt lat="29.572406" lon="103.396056"><ele>771.826</ele><time>2026-07-23T22:06:10.000Z</time></trkpt>
        <trkpt lat="29.572407" lon="103.396055"><ele>771.73773</ele><time>2026-07-23T22:06:12.000Z</time></trkpt>
        <trkpt lat="29.572423" lon="103.39604"><ele>771.00244</ele><time>2026-07-23T22:06:16.000Z</time></trkpt>
        <trkpt lat="29.572443" lon="103.396025"><ele>771.0448</ele><time>2026-07-23T22:06:18.000Z</time></trkpt>
        <trkpt lat="29.572465" lon="103.39601"><ele>770.97876</ele><time>2026-07-23T22:06:20.000Z</time></trkpt>
        <trkpt lat="29.572486" lon="103.396001"><ele>770.75165</ele><time>2026-07-23T22:06:22.000Z</time></trkpt>
        <trkpt lat="29.572507" lon="103.395993"><ele>769.6648</ele><time>2026-07-23T22:06:24.000Z</time></trkpt>
        <trkpt lat="29.572526" lon="103.395988"><ele>769.2838</ele><time>2026-07-23T22:06:26.000Z</time></trkpt>
        <trkpt lat="29.572538" lon="103.395984"><ele>768.2466</ele><time>2026-07-23T22:06:28.000Z</time></trkpt>
        <trkpt lat="29.57255" lon="103.395978"><ele>768.00037</ele><time>2026-07-23T22:06:30.000Z</time></trkpt>
        <trkpt lat="29.572562" lon="103.39597"><ele>768.2445</ele><time>2026-07-23T22:06:32.000Z</time></trkpt>
        <trkpt lat="29.572571" lon="103.39596"><ele>767.8822</ele><time>2026-07-23T22:06:34.000Z</time></trkpt>
        <trkpt lat="29.572581" lon="103.395951"><ele>766.78235</ele><time>2026-07-23T22:06:36.000Z</time></trkpt>
        <trkpt lat="29.572589" lon="103.395939"><ele>766.53485</ele><time>2026-07-23T22:06:38.000Z</time></trkpt>
        <trkpt lat="29.572598" lon="103.395928"><ele>766.8422</ele><time>2026-07-23T22:06:40.000Z</time></trkpt>
        <trkpt lat="29.572609" lon="103.395916"><ele>766.0888</ele><time>2026-07-23T22:06:42.000Z</time></trkpt>
        <trkpt lat="29.57262" lon="103.395904"><ele>764.858</ele><time>2026-07-23T22:06:44.000Z</time></trkpt>
        <trkpt lat="29.572632" lon="103.395892"><ele>764.929</ele><time>2026-07-23T22:06:46.000Z</time></trkpt>
        <trkpt lat="29.572641" lon="103.395883"><ele>764.7221</ele><time>2026-07-23T22:06:48.000Z</time></trkpt>
        <trkpt lat="29.57265" lon="103.395871"><ele>764.167</ele><time>2026-07-23T22:06:50.000Z</time></trkpt>
        <trkpt lat="29.572657" lon="103.395864"><ele>763.3695</ele><time>2026-07-23T22:06:52.000Z</time></trkpt>
        <trkpt lat="29.572667" lon="103.395856"><ele>763.80945</ele><time>2026-07-23T22:06:54.000Z</time></trkpt>
        <trkpt lat="29.572678" lon="103.39585"><ele>764.1358</ele><time>2026-07-23T22:06:56.000Z</time></trkpt>
        <trkpt lat="29.572688" lon="103.395845"><ele>764.04944</ele><time>2026-07-23T22:06:58.000Z</time></trkpt>
        <trkpt lat="29.5727" lon="103.39584"><ele>762.8855</ele><time>2026-07-23T22:07:00.000Z</time></trkpt>
        <trkpt lat="29.572713" lon="103.395834"><ele>762.72815</ele><time>2026-07-23T22:07:02.000Z</time></trkpt>
        <trkpt lat="29.572722" lon="103.395828"><ele>760.96765</ele><time>2026-07-23T22:07:04.000Z</time></trkpt>
        <trkpt lat="29.57273" lon="103.39582"><ele>761.30524</ele><time>2026-07-23T22:07:06.000Z</time></trkpt>
        <trkpt lat="29.57274" lon="103.39581"><ele>762.39087</ele><time>2026-07-23T22:07:08.000Z</time></trkpt>
        <trkpt lat="29.572753" lon="103.395795"><ele>763.2306</ele><time>2026-07-23T22:07:10.000Z</time></trkpt>
        <trkpt lat="29.572764" lon="103.39578"><ele>762.9736</ele><time>2026-07-23T22:07:12.000Z</time></trkpt>
        <trkpt lat="29.572775" lon="103.395762"><ele>762.2708</ele><time>2026-07-23T22:07:14.000Z</time></trkpt>
        <trkpt lat="29.572784" lon="103.395747"><ele>762.35895</ele><time>2026-07-23T22:07:16.000Z</time></trkpt>
        <trkpt lat="29.572793" lon="103.395731"><ele>762.5676</ele><time>2026-07-23T22:07:18.000Z</time></trkpt>
        <trkpt lat="29.572804" lon="103.395714"><ele>763.4056</ele><time>2026-07-23T22:07:20.000Z</time></trkpt>
        <trkpt lat="29.572816" lon="103.395696"><ele>763.2851</ele><time>2026-07-23T22:07:22.000Z</time></trkpt>
        <trkpt lat="29.572829" lon="103.395677"><ele>763.61395</ele><time>2026-07-23T22:07:24.000Z</time></trkpt>
        <trkpt lat="29.572841" lon="103.395657"><ele>763.46423</ele><time>2026-07-23T22:07:26.000Z</time></trkpt>
        <trkpt lat="29.57285" lon="103.395641"><ele>763.4109</ele><time>2026-07-23T22:07:28.000Z</time></trkpt>
        <trkpt lat="29.572858" lon="103.395627"><ele>762.3802</ele><time>2026-07-23T22:07:30.000Z</time></trkpt>
        <trkpt lat="29.572863" lon="103.395614"><ele>761.469</ele><time>2026-07-23T22:07:32.000Z</time></trkpt>
        <trkpt lat="29.572866" lon="103.395601"><ele>760.8983</ele><time>2026-07-23T22:07:34.000Z</time></trkpt>
        <trkpt lat="29.57287" lon="103.395582"><ele>760.8954</ele><time>2026-07-23T22:07:36.000Z</time></trkpt>
        <trkpt lat="29.572873" lon="103.395562"><ele>761.2968</ele><time>2026-07-23T22:07:38.000Z</time></trkpt>
        <trkpt lat="29.572878" lon="103.395546"><ele>760.9926</ele><time>2026-07-23T22:07:40.000Z</time></trkpt>
        <trkpt lat="29.572885" lon="103.395527"><ele>759.3266</ele><time>2026-07-23T22:07:42.000Z</time></trkpt>
        <trkpt lat="29.572895" lon="103.395507"><ele>758.7299</ele><time>2026-07-23T22:07:44.000Z</time></trkpt>
        <trkpt lat="29.572905" lon="103.395487"><ele>758.13403</ele><time>2026-07-23T22:07:46.000Z</time></trkpt>
        <trkpt lat="29.572913" lon="103.395468"><ele>758.18616</ele><time>2026-07-23T22:07:48.000Z</time></trkpt>
        <trkpt lat="29.572922" lon="103.395448"><ele>757.3732</ele><time>2026-07-23T22:07:50.000Z</time></trkpt>
        <trkpt lat="29.57293" lon="103.395427"><ele>756.9662</ele><time>2026-07-23T22:07:52.000Z</time></trkpt>
        <trkpt lat="29.572941" lon="103.395404"><ele>757.0006</ele><time>2026-07-23T22:07:54.000Z</time></trkpt>
        <trkpt lat="29.572954" lon="103.395379"><ele>756.3924</ele><time>2026-07-23T22:07:56.000Z</time></trkpt>
        <trkpt lat="29.572965" lon="103.395361"><ele>756.0773</ele><time>2026-07-23T22:07:58.000Z</time></trkpt>
        <trkpt lat="29.572974" lon="103.395346"><ele>756.1212</ele><time>2026-07-23T22:08:00.000Z</time></trkpt>
        <trkpt lat="29.572983" lon="103.395326"><ele>755.91156</ele><time>2026-07-23T22:08:02.000Z</time></trkpt>
        <trkpt lat="29.572991" lon="103.395306"><ele>756.342</ele><time>2026-07-23T22:08:04.000Z</time></trkpt>
        <trkpt lat="29.572997" lon="103.395286"><ele>756.2203</ele><time>2026-07-23T22:08:06.000Z</time></trkpt>
        <trkpt lat="29.572997" lon="103.395269"><ele>755.3325</ele><time>2026-07-23T22:08:08.000Z</time></trkpt>
        <trkpt lat="29.572993" lon="103.395259"><ele>754.90106</ele><time>2026-07-23T22:08:10.000Z</time></trkpt>
        <trkpt lat="29.572986" lon="103.395248"><ele>754.75476</ele><time>2026-07-23T22:08:12.000Z</time></trkpt>
        <trkpt lat="29.572979" lon="103.39524"><ele>755.1708</ele><time>2026-07-23T22:08:14.000Z</time></trkpt>
        <trkpt lat="29.572967" lon="103.395227"><ele>754.65027</ele><time>2026-07-23T22:08:18.000Z</time></trkpt>
        <trkpt lat="29.572961" lon="103.395216"><ele>754.0492</ele><time>2026-07-23T22:08:20.000Z</time></trkpt>
        <trkpt lat="29.572954" lon="103.395202"><ele>753.4483</ele><time>2026-07-23T22:08:22.000Z</time></trkpt>
        <trkpt lat="29.572947" lon="103.395188"><ele>753.13544</ele><time>2026-07-23T22:08:24.000Z</time></trkpt>
        <trkpt lat="29.572942" lon="103.395172"><ele>752.56824</ele><time>2026-07-23T22:08:26.000Z</time></trkpt>
        <trkpt lat="29.572936" lon="103.395154"><ele>752.0351</ele><time>2026-07-23T22:08:28.000Z</time></trkpt>
        <trkpt lat="29.572931" lon="103.395134"><ele>752.1054</ele><time>2026-07-23T22:08:30.000Z</time></trkpt>
        <trkpt lat="29.572926" lon="103.395115"><ele>752.3845</ele><time>2026-07-23T22:08:32.000Z</time></trkpt>
        <trkpt lat="29.572922" lon="103.395101"><ele>751.49176</ele><time>2026-07-23T22:08:34.000Z</time></trkpt>
        <trkpt lat="29.57292" lon="103.395088"><ele>750.72986</ele><time>2026-07-23T22:08:36.000Z</time></trkpt>
        <trkpt lat="29.572917" lon="103.395071"><ele>750.1001</ele><time>2026-07-23T22:08:38.000Z</time></trkpt>
        <trkpt lat="29.572917" lon="103.395055"><ele>749.12396</ele><time>2026-07-23T22:08:40.000Z</time></trkpt>
        <trkpt lat="29.572919" lon="103.395034"><ele>748.8337</ele><time>2026-07-23T22:08:42.000Z</time></trkpt>
        <trkpt lat="29.572922" lon="103.395012"><ele>749.02386</ele><time>2026-07-23T22:08:44.000Z</time></trkpt>
        <trkpt lat="29.572928" lon="103.394983"><ele>750.2341</ele><time>2026-07-23T22:08:46.000Z</time></trkpt>
        <trkpt lat="29.572934" lon="103.394953"><ele>750.194</ele><time>2026-07-23T22:08:48.000Z</time></trkpt>
        <trkpt lat="29.57294" lon="103.394929"><ele>750.44446</ele><time>2026-07-23T22:08:50.000Z</time></trkpt>
        <trkpt lat="29.572946" lon="103.394905"><ele>750.1914</ele><time>2026-07-23T22:08:52.000Z</time></trkpt>
        <trkpt lat="29.572949" lon="103.394881"><ele>750.17706</ele><time>2026-07-23T22:08:54.000Z</time></trkpt>
        <trkpt lat="29.572948" lon="103.394862"><ele>749.84796</ele><time>2026-07-23T22:08:56.000Z</time></trkpt>
        <trkpt lat="29.572943" lon="103.394841"><ele>749.24945</ele><time>2026-07-23T22:08:58.000Z</time></trkpt>
        <trkpt lat="29.572936" lon="103.394818"><ele>749.4519</ele><time>2026-07-23T22:09:00.000Z</time></trkpt>
        <trkpt lat="29.572928" lon="103.394801"><ele>749.9486</ele><time>2026-07-23T22:09:02.000Z</time></trkpt>
        <trkpt lat="29.572916" lon="103.394789"><ele>749.6425</ele><time>2026-07-23T22:09:04.000Z</time></trkpt>
        <trkpt lat="29.5729" lon="103.394774"><ele>748.97327</ele><time>2026-07-23T22:09:06.000Z</time></trkpt>
        <trkpt lat="29.572885" lon="103.394763"><ele>748.59467</ele><time>2026-07-23T22:09:08.000Z</time></trkpt>
        <trkpt lat="29.572871" lon="103.394754"><ele>747.7897</ele><time>2026-07-23T22:09:10.000Z</time></trkpt>
        <trkpt lat="29.572856" lon="103.394745"><ele>747.7846</ele><time>2026-07-23T22:09:12.000Z</time></trkpt>
        <trkpt lat="29.572845" lon="103.394737"><ele>747.62994</ele><time>2026-07-23T22:09:14.000Z</time></trkpt>
        <trkpt lat="29.572836" lon="103.394729"><ele>747.0295</ele><time>2026-07-23T22:09:16.000Z</time></trkpt>
        <trkpt lat="29.572829" lon="103.39472"><ele>746.2497</ele><time>2026-07-23T22:09:18.000Z</time></trkpt>
        <trkpt lat="29.572824" lon="103.394709"><ele>745.98157</ele><time>2026-07-23T22:09:20.000Z</time></trkpt>
        <trkpt lat="29.572819" lon="103.3947"><ele>746.29034</ele><time>2026-07-23T22:09:22.000Z</time></trkpt>
        <trkpt lat="29.572811" lon="103.39469"><ele>746.1592</ele><time>2026-07-23T22:09:24.000Z</time></trkpt>
        <trkpt lat="29.572802" lon="103.394682"><ele>745.17584</ele><time>2026-07-23T22:09:26.000Z</time></trkpt>
        <trkpt lat="29.572792" lon="103.394673"><ele>744.9709</ele><time>2026-07-23T22:09:28.000Z</time></trkpt>
        <trkpt lat="29.572783" lon="103.394663"><ele>744.28125</ele><time>2026-07-23T22:09:30.000Z</time></trkpt>
        <trkpt lat="29.572777" lon="103.394654"><ele>744.524</ele><time>2026-07-23T22:09:32.000Z</time></trkpt>
        <trkpt lat="29.572771" lon="103.394645"><ele>745.50616</ele><time>2026-07-23T22:09:34.000Z</time></trkpt>
        <trkpt lat="29.572764" lon="103.39463"><ele>744.01166</ele><time>2026-07-23T22:09:38.000Z</time></trkpt>
        <trkpt lat="29.57276" lon="103.394619"><ele>744.0108</ele><time>2026-07-23T22:09:40.000Z</time></trkpt>
        <trkpt lat="29.572756" lon="103.394609"><ele>744.0095</ele><time>2026-07-23T22:09:42.000Z</time></trkpt>
        <trkpt lat="29.572749" lon="103.394591"><ele>744.6313</ele><time>2026-07-23T22:09:46.000Z</time></trkpt>
        <trkpt lat="29.572747" lon="103.39458"><ele>744.17914</ele><time>2026-07-23T22:09:48.000Z</time></trkpt>
        <trkpt lat="29.572747" lon="103.394569"><ele>743.8463</ele><time>2026-07-23T22:09:50.000Z</time></trkpt>
        <trkpt lat="29.572749" lon="103.394553"><ele>744.4124</ele><time>2026-07-23T22:09:52.000Z</time></trkpt>
        <trkpt lat="29.572754" lon="103.394537"><ele>744.35645</ele><time>2026-07-23T22:09:54.000Z</time></trkpt>
        <trkpt lat="29.572759" lon="103.394525"><ele>743.1136</ele><time>2026-07-23T22:09:56.000Z</time></trkpt>
        <trkpt lat="29.572764" lon="103.394518"><ele>742.8386</ele><time>2026-07-23T22:09:58.000Z</time></trkpt>
        <trkpt lat="29.572773" lon="103.394511"><ele>741.92035</ele><time>2026-07-23T22:10:02.000Z</time></trkpt>
        <trkpt lat="29.572781" lon="103.394501"><ele>740.67303</ele><time>2026-07-23T22:10:06.000Z</time></trkpt>
        <trkpt lat="29.572789" lon="103.394489"><ele>737.4755</ele><time>2026-07-23T22:10:40.000Z</time></trkpt>
        <trkpt lat="29.572791" lon="103.394484"><ele>736.6994</ele><time>2026-07-23T22:10:42.000Z</time></trkpt>
        <trkpt lat="29.5728" lon="103.394461"><ele>737.4472</ele><time>2026-07-23T22:11:06.000Z</time></trkpt>
        <trkpt lat="29.572805" lon="103.394447"><ele>736.4634</ele><time>2026-07-23T22:11:08.000Z</time></trkpt>
        <trkpt lat="29.572806" lon="103.394446"><ele>735.2976</ele><time>2026-07-23T22:11:10.000Z</time></trkpt>
        <trkpt lat="29.572816" lon="103.394421"><ele>734.5759</ele><time>2026-07-23T22:11:12.000Z</time></trkpt>
        <trkpt lat="29.572817" lon="103.394414"><ele>731.88434</ele><time>2026-07-23T22:11:16.000Z</time></trkpt>
        <trkpt lat="29.572818" lon="103.3944"><ele>731.58417</ele><time>2026-07-23T22:11:18.000Z</time></trkpt>
        <trkpt lat="29.57282" lon="103.394378"><ele>731.3808</ele><time>2026-07-23T22:11:20.000Z</time></trkpt>
        <trkpt lat="29.572822" lon="103.394355"><ele>730.79395</ele><time>2026-07-23T22:11:22.000Z</time></trkpt>
        <trkpt lat="29.572826" lon="103.394336"><ele>729.87537</ele><time>2026-07-23T22:11:24.000Z</time></trkpt>
        <trkpt lat="29.572832" lon="103.394321"><ele>730.03973</ele><time>2026-07-23T22:11:26.000Z</time></trkpt>
        <trkpt lat="29.572839" lon="103.394307"><ele>729.0529</ele><time>2026-07-23T22:11:28.000Z</time></trkpt>
        <trkpt lat="29.572848" lon="103.394293"><ele>729.0315</ele><time>2026-07-23T22:11:30.000Z</time></trkpt>
        <trkpt lat="29.572859" lon="103.394275"><ele>728.976</ele><time>2026-07-23T22:11:32.000Z</time></trkpt>
        <trkpt lat="29.57287" lon="103.394254"><ele>728.96704</ele><time>2026-07-23T22:11:34.000Z</time></trkpt>
        <trkpt lat="29.57288" lon="103.394233"><ele>729.435</ele><time>2026-07-23T22:11:36.000Z</time></trkpt>
        <trkpt lat="29.572886" lon="103.394214"><ele>729.384</ele><time>2026-07-23T22:11:38.000Z</time></trkpt>
        <trkpt lat="29.572891" lon="103.394196"><ele>729.2756</ele><time>2026-07-23T22:11:40.000Z</time></trkpt>
        <trkpt lat="29.572893" lon="103.394177"><ele>728.7015</ele><time>2026-07-23T22:11:42.000Z</time></trkpt>
        <trkpt lat="29.572897" lon="103.394156"><ele>727.1852</ele><time>2026-07-23T22:11:44.000Z</time></trkpt>
        <trkpt lat="29.572901" lon="103.394132"><ele>727.5132</ele><time>2026-07-23T22:11:46.000Z</time></trkpt>
        <trkpt lat="29.572907" lon="103.39411"><ele>726.7432</ele><time>2026-07-23T22:11:48.000Z</time></trkpt>
        <trkpt lat="29.572915" lon="103.394088"><ele>726.03937</ele><time>2026-07-23T22:11:50.000Z</time></trkpt>
        <trkpt lat="29.572925" lon="103.394066"><ele>725.93036</ele><time>2026-07-23T22:11:52.000Z</time></trkpt>
        <trkpt lat="29.572935" lon="103.394046"><ele>724.7721</ele><time>2026-07-23T22:11:54.000Z</time></trkpt>
        <trkpt lat="29.572945" lon="103.394027"><ele>725.13495</ele><time>2026-07-23T22:11:56.000Z</time></trkpt>
        <trkpt lat="29.572954" lon="103.394005"><ele>725.5075</ele><time>2026-07-23T22:11:58.000Z</time></trkpt>
        <trkpt lat="29.572963" lon="103.393986"><ele>724.7923</ele><time>2026-07-23T22:12:00.000Z</time></trkpt>
        <trkpt lat="29.572972" lon="103.393963"><ele>724.419</ele><time>2026-07-23T22:12:02.000Z</time></trkpt>
        <trkpt lat="29.572981" lon="103.393941"><ele>723.57806</ele><time>2026-07-23T22:12:04.000Z</time></trkpt>
        <trkpt lat="29.572991" lon="103.393916"><ele>723.96063</ele><time>2026-07-23T22:12:06.000Z</time></trkpt>
        <trkpt lat="29.573003" lon="103.393886"><ele>723.97595</ele><time>2026-07-23T22:12:08.000Z</time></trkpt>
        <trkpt lat="29.573017" lon="103.393854"><ele>724.3413</ele><time>2026-07-23T22:12:10.000Z</time></trkpt>
        <trkpt lat="29.573033" lon="103.393823"><ele>725.2973</ele><time>2026-07-23T22:12:12.000Z</time></trkpt>
        <trkpt lat="29.57305" lon="103.393795"><ele>725.0837</ele><time>2026-07-23T22:12:14.000Z</time></trkpt>
        <trkpt lat="29.573066" lon="103.393775"><ele>725.1777</ele><time>2026-07-23T22:12:16.000Z</time></trkpt>
        <trkpt lat="29.573085" lon="103.393755"><ele>726.207</ele><time>2026-07-23T22:12:18.000Z</time></trkpt>
        <trkpt lat="29.573105" lon="103.393739"><ele>727.23346</ele><time>2026-07-23T22:12:20.000Z</time></trkpt>
        <trkpt lat="29.573124" lon="103.393727"><ele>729.5261</ele><time>2026-07-23T22:12:22.000Z</time></trkpt>
        <trkpt lat="29.573144" lon="103.393722"><ele>729.8839</ele><time>2026-07-23T22:12:24.000Z</time></trkpt>
        <trkpt lat="29.573159" lon="103.393721"><ele>728.1397</ele><time>2026-07-23T22:12:26.000Z</time></trkpt>
        <trkpt lat="29.573173" lon="103.393723"><ele>727.50574</ele><time>2026-07-23T22:12:28.000Z</time></trkpt>
        <trkpt lat="29.573184" lon="103.393725"><ele>727.4594</ele><time>2026-07-23T22:12:30.000Z</time></trkpt>
        <trkpt lat="29.573193" lon="103.39373"><ele>728.43567</ele><time>2026-07-23T22:12:32.000Z</time></trkpt>
        <trkpt lat="29.573204" lon="103.393738"><ele>727.737</ele><time>2026-07-23T22:12:34.000Z</time></trkpt>
        <trkpt lat="29.573216" lon="103.393745"><ele>727.4334</ele><time>2026-07-23T22:12:36.000Z</time></trkpt>
        <trkpt lat="29.57323" lon="103.393751"><ele>726.4733</ele><time>2026-07-23T22:12:38.000Z</time></trkpt>
        <trkpt lat="29.573245" lon="103.393754"><ele>726.5801</ele><time>2026-07-23T22:12:40.000Z</time></trkpt>
        <trkpt lat="29.57326" lon="103.393755"><ele>726.0794</ele><time>2026-07-23T22:12:42.000Z</time></trkpt>
        <trkpt lat="29.573271" lon="103.393755"><ele>725.22394</ele><time>2026-07-23T22:12:44.000Z</time></trkpt>
        <trkpt lat="29.573279" lon="103.393753"><ele>724.75665</ele><time>2026-07-23T22:12:46.000Z</time></trkpt>
        <trkpt lat="29.573295" lon="103.393749"><ele>724.28815</ele><time>2026-07-23T22:12:50.000Z</time></trkpt>
        <trkpt lat="29.573303" lon="103.393745"><ele>723.06836</ele><time>2026-07-23T22:12:52.000Z</time></trkpt>
        <trkpt lat="29.573311" lon="103.393742"><ele>723.1221</ele><time>2026-07-23T22:12:54.000Z</time></trkpt>
        <trkpt lat="29.573322" lon="103.393735"><ele>722.5727</ele><time>2026-07-23T22:12:56.000Z</time></trkpt>
        <trkpt lat="29.573336" lon="103.393726"><ele>722.5135</ele><time>2026-07-23T22:12:58.000Z</time></trkpt>
        <trkpt lat="29.573346" lon="103.393718"><ele>722.7831</ele><time>2026-07-23T22:13:00.000Z</time></trkpt>
        <trkpt lat="29.573353" lon="103.393711"><ele>722.3527</ele><time>2026-07-23T22:13:02.000Z</time></trkpt>
        <trkpt lat="29.57336" lon="103.393703"><ele>722.4066</ele><time>2026-07-23T22:13:04.000Z</time></trkpt>
        <trkpt lat="29.573309" lon="103.393747"><ele>722.7187</ele><time>2026-07-23T22:13:32.000Z</time></trkpt>
        <trkpt lat="29.573288" lon="103.393765"><ele>722.38086</ele><time>2026-07-23T22:13:34.000Z</time></trkpt>
        <trkpt lat="29.573263" lon="103.393749"><ele>722.4353</ele><time>2026-07-23T22:13:49.000Z</time></trkpt>
        <trkpt lat="29.573259" lon="103.393736"><ele>723.3634</ele><time>2026-07-23T22:14:04.000Z</time></trkpt>
        <trkpt lat="29.573263" lon="103.393737"><ele>723.9245</ele><time>2026-07-23T22:14:08.000Z</time></trkpt>
        <trkpt lat="29.573287" lon="103.393759"><ele>725.29504</ele><time>2026-07-23T22:14:40.000Z</time></trkpt>
        <trkpt lat="29.57329" lon="103.393768"><ele>724.0512</ele><time>2026-07-23T22:14:55.000Z</time></trkpt>
        <trkpt lat="29.573288" lon="103.393769"><ele>721.15454</ele><time>2026-07-23T22:15:10.000Z</time></trkpt>
        <trkpt lat="29.573314" lon="103.393742"><ele>721.23016</ele><time>2026-07-23T22:15:58.000Z</time></trkpt>
        <trkpt lat="29.573329" lon="103.393724"><ele>721.86224</ele><time>2026-07-23T22:16:00.000Z</time></trkpt>
        <trkpt lat="29.573347" lon="103.393704"><ele>722.0567</ele><time>2026-07-23T22:16:02.000Z</time></trkpt>
        <trkpt lat="29.573348" lon="103.393702"><ele>721.8231</ele><time>2026-07-23T22:16:04.000Z</time></trkpt>
        <trkpt lat="29.57335" lon="103.3937"><ele>721.83325</ele><time>2026-07-23T22:16:06.000Z</time></trkpt>
        <trkpt lat="29.573378" lon="103.39367"><ele>722.08856</ele><time>2026-07-23T22:16:10.000Z</time></trkpt>
        <trkpt lat="29.573397" lon="103.39365"><ele>721.4142</ele><time>2026-07-23T22:16:12.000Z</time></trkpt>
        <trkpt lat="29.573414" lon="103.39363"><ele>721.33936</ele><time>2026-07-23T22:16:14.000Z</time></trkpt>
        <trkpt lat="29.573432" lon="103.393615"><ele>722.22986</ele><time>2026-07-23T22:16:16.000Z</time></trkpt>
        <trkpt lat="29.573451" lon="103.393605"><ele>721.8143</ele><time>2026-07-23T22:16:18.000Z</time></trkpt>
        <trkpt lat="29.573467" lon="103.393599"><ele>721.58435</ele><time>2026-07-23T22:16:20.000Z</time></trkpt>
        <trkpt lat="29.573486" lon="103.393595"><ele>721.96655</ele><time>2026-07-23T22:16:22.000Z</time></trkpt>
        <trkpt lat="29.573506" lon="103.393592"><ele>722.2323</ele><time>2026-07-23T22:16:24.000Z</time></trkpt>
        <trkpt lat="29.573529" lon="103.393589"><ele>722.28595</ele><time>2026-07-23T22:16:26.000Z</time></trkpt>
        <trkpt lat="29.573551" lon="103.393586"><ele>722.36426</ele><time>2026-07-23T22:16:28.000Z</time></trkpt>
        <trkpt lat="29.573569" lon="103.393581"><ele>721.8401</ele><time>2026-07-23T22:16:30.000Z</time></trkpt>
        <trkpt lat="29.573586" lon="103.393575"><ele>721.7829</ele><time>2026-07-23T22:16:32.000Z</time></trkpt>
        <trkpt lat="29.573601" lon="103.393567"><ele>721.5392</ele><time>2026-07-23T22:16:34.000Z</time></trkpt>
        <trkpt lat="29.573614" lon="103.393559"><ele>721.63</ele><time>2026-07-23T22:16:36.000Z</time></trkpt>
        <trkpt lat="29.573627" lon="103.393549"><ele>721.7238</ele><time>2026-07-23T22:16:38.000Z</time></trkpt>
        <trkpt lat="29.573638" lon="103.393538"><ele>721.8666</ele><time>2026-07-23T22:16:40.000Z</time></trkpt>
        <trkpt lat="29.573648" lon="103.393527"><ele>721.1323</ele><time>2026-07-23T22:16:42.000Z</time></trkpt>
        <trkpt lat="29.573658" lon="103.393514"><ele>720.631</ele><time>2026-07-23T22:16:44.000Z</time></trkpt>
        <trkpt lat="29.57367" lon="103.393499"><ele>720.49554</ele><time>2026-07-23T22:16:46.000Z</time></trkpt>
        <trkpt lat="29.573685" lon="103.393484"><ele>719.8219</ele><time>2026-07-23T22:16:48.000Z</time></trkpt>
        <trkpt lat="29.573703" lon="103.39347"><ele>719.6986</ele><time>2026-07-23T22:16:50.000Z</time></trkpt>
        <trkpt lat="29.573725" lon="103.393458"><ele>719.9534</ele><time>2026-07-23T22:16:52.000Z</time></trkpt>
        <trkpt lat="29.57375" lon="103.393447"><ele>720.5369</ele><time>2026-07-23T22:16:54.000Z</time></trkpt>
        <trkpt lat="29.573776" lon="103.393437"><ele>720.61646</ele><time>2026-07-23T22:16:56.000Z</time></trkpt>
        <trkpt lat="29.573802" lon="103.393427"><ele>719.5034</ele><time>2026-07-23T22:16:58.000Z</time></trkpt>
        <trkpt lat="29.573826" lon="103.393417"><ele>719.628</ele><time>2026-07-23T22:17:00.000Z</time></trkpt>
        <trkpt lat="29.573847" lon="103.393406"><ele>719.5977</ele><time>2026-07-23T22:17:02.000Z</time></trkpt>
        <trkpt lat="29.573864" lon="103.393394"><ele>719.41785</ele><time>2026-07-23T22:17:04.000Z</time></trkpt>
        <trkpt lat="29.573877" lon="103.393382"><ele>719.2105</ele><time>2026-07-23T22:17:06.000Z</time></trkpt>
        <trkpt lat="29.573889" lon="103.393367"><ele>719.86414</ele><time>2026-07-23T22:17:08.000Z</time></trkpt>
        <trkpt lat="29.573902" lon="103.393351"><ele>719.85815</ele><time>2026-07-23T22:17:10.000Z</time></trkpt>
        <trkpt lat="29.573913" lon="103.393335"><ele>720.1255</ele><time>2026-07-23T22:17:12.000Z</time></trkpt>
        <trkpt lat="29.573922" lon="103.393317"><ele>719.4888</ele><time>2026-07-23T22:17:14.000Z</time></trkpt>
        <trkpt lat="29.573932" lon="103.393298"><ele>719.52563</ele><time>2026-07-23T22:17:16.000Z</time></trkpt>
        <trkpt lat="29.573944" lon="103.393281"><ele>719.7089</ele><time>2026-07-23T22:17:18.000Z</time></trkpt>
        <trkpt lat="29.573956" lon="103.393266"><ele>720.205</ele><time>2026-07-23T22:17:20.000Z</time></trkpt>
        <trkpt lat="29.573964" lon="103.393259"><ele>720.6999</ele><time>2026-07-23T22:17:22.000Z</time></trkpt>
        <trkpt lat="29.573968" lon="103.393251"><ele>721.26886</ele><time>2026-07-23T22:17:24.000Z</time></trkpt>
        <trkpt lat="29.573972" lon="103.393235"><ele>720.5988</ele><time>2026-07-23T22:17:28.000Z</time></trkpt>
        <trkpt lat="29.573976" lon="103.393221"><ele>720.14307</ele><time>2026-07-23T22:17:30.000Z</time></trkpt>
        <trkpt lat="29.573977" lon="103.393215"><ele>720.1266</ele><time>2026-07-23T22:17:34.000Z</time></trkpt>
        <trkpt lat="29.573982" lon="103.393203"><ele>720.2242</ele><time>2026-07-23T22:17:36.000Z</time></trkpt>
        <trkpt lat="29.573989" lon="103.393182"><ele>720.19916</ele><time>2026-07-23T22:17:38.000Z</time></trkpt>
        <trkpt lat="29.573996" lon="103.393164"><ele>719.8074</ele><time>2026-07-23T22:17:40.000Z</time></trkpt>
        <trkpt lat="29.574003" lon="103.393147"><ele>720.5268</ele><time>2026-07-23T22:17:42.000Z</time></trkpt>
        <trkpt lat="29.574008" lon="103.393136"><ele>720.3299</ele><time>2026-07-23T22:17:44.000Z</time></trkpt>
        <trkpt lat="29.574013" lon="103.393126"><ele>720.2785</ele><time>2026-07-23T22:17:46.000Z</time></trkpt>
        <trkpt lat="29.574017" lon="103.393115"><ele>721.0717</ele><time>2026-07-23T22:17:48.000Z</time></trkpt>
        <trkpt lat="29.574023" lon="103.393104"><ele>721.10376</ele><time>2026-07-23T22:17:50.000Z</time></trkpt>
        <trkpt lat="29.574031" lon="103.393096"><ele>721.75836</ele><time>2026-07-23T22:17:54.000Z</time></trkpt>
        <trkpt lat="29.574034" lon="103.393098"><ele>722.32434</ele><time>2026-07-23T22:18:00.000Z</time></trkpt>
        <trkpt lat="29.574082" lon="103.393126"><ele>722.13947</ele><time>2026-07-23T22:18:08.000Z</time></trkpt>
        <trkpt lat="29.574082" lon="103.393127"><ele>722.31226</ele><time>2026-07-23T22:18:10.000Z</time></trkpt>
        <trkpt lat="29.574085" lon="103.393128"><ele>723.5182</ele><time>2026-07-23T22:18:12.000Z</time></trkpt>
        <trkpt lat="29.574117" lon="103.393139"><ele>723.97595</ele><time>2026-07-23T22:18:20.000Z</time></trkpt>
        <trkpt lat="29.574121" lon="103.393139"><ele>724.1691</ele><time>2026-07-23T22:18:22.000Z</time></trkpt>
        <trkpt lat="29.574123" lon="103.39314"><ele>724.45624</ele><time>2026-07-23T22:18:24.000Z</time></trkpt>
        <trkpt lat="29.574023" lon="103.39307"><ele>717.0722</ele><time>2026-07-23T22:20:12.000Z</time></trkpt>
        <trkpt lat="29.574037" lon="103.392997"><ele>715.9406</ele><time>2026-07-23T22:20:27.000Z</time></trkpt>
        <trkpt lat="29.574045" lon="103.392977"><ele>716.8597</ele><time>2026-07-23T22:20:43.000Z</time></trkpt>
        <trkpt lat="29.574058" lon="103.392936"><ele>715.9598</ele><time>2026-07-23T22:20:54.000Z</time></trkpt>
        <trkpt lat="29.574062" lon="103.392923"><ele>715.4938</ele><time>2026-07-23T22:20:56.000Z</time></trkpt>
        <trkpt lat="29.574062" lon="103.392922"><ele>715.5579</ele><time>2026-07-23T22:20:58.000Z</time></trkpt>
        <trkpt lat="29.574066" lon="103.392885"><ele>716.0576</ele><time>2026-07-23T22:21:04.000Z</time></trkpt>
        <trkpt lat="29.57407" lon="103.39287"><ele>715.38715</ele><time>2026-07-23T22:21:06.000Z</time></trkpt>
        <trkpt lat="29.574075" lon="103.392855"><ele>715.2033</ele><time>2026-07-23T22:21:08.000Z</time></trkpt>
        <trkpt lat="29.57408" lon="103.392847"><ele>715.057</ele><time>2026-07-23T22:21:10.000Z</time></trkpt>
        <trkpt lat="29.574088" lon="103.39284"><ele>714.8454</ele><time>2026-07-23T22:21:14.000Z</time></trkpt>
        <trkpt lat="29.574095" lon="103.39283"><ele>715.113</ele><time>2026-07-23T22:21:20.000Z</time></trkpt>
        <trkpt lat="29.574104" lon="103.392817"><ele>714.5966</ele><time>2026-07-23T22:21:24.000Z</time></trkpt>
        <trkpt lat="29.574115" lon="103.392801"><ele>714.03656</ele><time>2026-07-23T22:21:26.000Z</time></trkpt>
        <trkpt lat="29.574115" lon="103.3928"><ele>713.8672</ele><time>2026-07-23T22:21:28.000Z</time></trkpt>
        <trkpt lat="29.574119" lon="103.392787"><ele>714.2415</ele><time>2026-07-23T22:21:32.000Z</time></trkpt>
        <trkpt lat="29.574127" lon="103.392757"><ele>714.8923</ele><time>2026-07-23T22:21:36.000Z</time></trkpt>
        <trkpt lat="29.574129" lon="103.392742"><ele>715.0737</ele><time>2026-07-23T22:21:38.000Z</time></trkpt>
        <trkpt lat="29.574129" lon="103.392728"><ele>715.04395</ele><time>2026-07-23T22:21:40.000Z</time></trkpt>
        <trkpt lat="29.574127" lon="103.39271"><ele>715.1602</ele><time>2026-07-23T22:21:42.000Z</time></trkpt>
        <trkpt lat="29.574124" lon="103.392697"><ele>716.4072</ele><time>2026-07-23T22:21:44.000Z</time></trkpt>
        <trkpt lat="29.574123" lon="103.392687"><ele>716.83417</ele><time>2026-07-23T22:21:46.000Z</time></trkpt>
        <trkpt lat="29.574121" lon="103.392667"><ele>716.9935</ele><time>2026-07-23T22:21:50.000Z</time></trkpt>
        <trkpt lat="29.574123" lon="103.39266"><ele>716.7993</ele><time>2026-07-23T22:21:52.000Z</time></trkpt>
        <trkpt lat="29.574127" lon="103.392646"><ele>717.2544</ele><time>2026-07-23T22:21:54.000Z</time></trkpt>
        <trkpt lat="29.574128" lon="103.392633"><ele>717.045</ele><time>2026-07-23T22:22:00.000Z</time></trkpt>
        <trkpt lat="29.574128" lon="103.392617"><ele>717.32635</ele><time>2026-07-23T22:22:02.000Z</time></trkpt>
        <trkpt lat="29.574125" lon="103.392601"><ele>716.8322</ele><time>2026-07-23T22:22:04.000Z</time></trkpt>
        <trkpt lat="29.574119" lon="103.39258"><ele>716.2481</ele><time>2026-07-23T22:22:06.000Z</time></trkpt>
        <trkpt lat="29.574112" lon="103.392563"><ele>715.04974</ele><time>2026-07-23T22:22:08.000Z</time></trkpt>
        <trkpt lat="29.574103" lon="103.392543"><ele>714.6898</ele><time>2026-07-23T22:22:10.000Z</time></trkpt>
        <trkpt lat="29.574095" lon="103.392524"><ele>714.3215</ele><time>2026-07-23T22:22:12.000Z</time></trkpt>
        <trkpt lat="29.574085" lon="103.392508"><ele>713.531</ele><time>2026-07-23T22:22:14.000Z</time></trkpt>
        <trkpt lat="29.574078" lon="103.392495"><ele>712.39886</ele><time>2026-07-23T22:22:16.000Z</time></trkpt>
        <trkpt lat="29.574074" lon="103.392485"><ele>712.11597</ele><time>2026-07-23T22:22:18.000Z</time></trkpt>
        <trkpt lat="29.574071" lon="103.392473"><ele>711.2112</ele><time>2026-07-23T22:22:20.000Z</time></trkpt>
        <trkpt lat="29.574066" lon="103.392461"><ele>710.81165</ele><time>2026-07-23T22:22:22.000Z</time></trkpt>
        <trkpt lat="29.57406" lon="103.392448"><ele>710.816</ele><time>2026-07-23T22:22:24.000Z</time></trkpt>
        <trkpt lat="29.574058" lon="103.39244"><ele>710.728</ele><time>2026-07-23T22:22:26.000Z</time></trkpt>
        <trkpt lat="29.574057" lon="103.39242"><ele>710.11975</ele><time>2026-07-23T22:22:30.000Z</time></trkpt>
        <trkpt lat="29.574058" lon="103.392413"><ele>709.1589</ele><time>2026-07-23T22:22:32.000Z</time></trkpt>
        <trkpt lat="29.574064" lon="103.392409"><ele>708.92786</ele><time>2026-07-23T22:22:34.000Z</time></trkpt>
        <trkpt lat="29.574084" lon="103.392392"><ele>708.3144</ele><time>2026-07-23T22:22:38.000Z</time></trkpt>
        <trkpt lat="29.574084" lon="103.392392"><ele>707.3481</ele><time>2026-07-23T22:22:40.000Z</time></trkpt>
        <trkpt lat="29.574097" lon="103.392456"><ele>704.31995</ele><time>2026-07-23T22:22:46.000Z</time></trkpt>
        <trkpt lat="29.574097" lon="103.392456"><ele>704.4523</ele><time>2026-07-23T22:22:48.000Z</time></trkpt>
        <trkpt lat="29.5741" lon="103.392457"><ele>704.6741</ele><time>2026-07-23T22:22:50.000Z</time></trkpt>
        <trkpt lat="29.574127" lon="103.392462"><ele>704.03265</ele><time>2026-07-23T22:22:54.000Z</time></trkpt>
        <trkpt lat="29.57414" lon="103.392464"><ele>703.8982</ele><time>2026-07-23T22:22:56.000Z</time></trkpt>
        <trkpt lat="29.574148" lon="103.392464"><ele>702.9784</ele><time>2026-07-23T22:22:58.000Z</time></trkpt>
        <trkpt lat="29.574151" lon="103.392459"><ele>701.5987</ele><time>2026-07-23T22:23:02.000Z</time></trkpt>
        <trkpt lat="29.57417" lon="103.392433"><ele>701.5143</ele><time>2026-07-23T22:23:10.000Z</time></trkpt>
        <trkpt lat="29.574188" lon="103.392409"><ele>701.02826</ele><time>2026-07-23T22:23:12.000Z</time></trkpt>
        <trkpt lat="29.574189" lon="103.392408"><ele>701.0415</ele><time>2026-07-23T22:23:14.000Z</time></trkpt>
        <trkpt lat="29.574196" lon="103.392393"><ele>700.3042</ele><time>2026-07-23T22:23:18.000Z</time></trkpt>
        <trkpt lat="29.574199" lon="103.392371"><ele>700.76746</ele><time>2026-07-23T22:23:20.000Z</time></trkpt>
        <trkpt lat="29.574198" lon="103.392347"><ele>701.7598</ele><time>2026-07-23T22:23:22.000Z</time></trkpt>
        <trkpt lat="29.574194" lon="103.392331"><ele>702.2174</ele><time>2026-07-23T22:23:24.000Z</time></trkpt>
        <trkpt lat="29.574193" lon="103.392318"><ele>702.241</ele><time>2026-07-23T22:23:26.000Z</time></trkpt>
        <trkpt lat="29.574195" lon="103.392309"><ele>702.1981</ele><time>2026-07-23T22:23:28.000Z</time></trkpt>
        <trkpt lat="29.574194" lon="103.392294"><ele>702.12494</ele><time>2026-07-23T22:23:30.000Z</time></trkpt>
        <trkpt lat="29.574187" lon="103.392277"><ele>702.44775</ele><time>2026-07-23T22:23:32.000Z</time></trkpt>
        <trkpt lat="29.574179" lon="103.392271"><ele>702.4123</ele><time>2026-07-23T22:23:34.000Z</time></trkpt>
        <trkpt lat="29.574179" lon="103.392271"><ele>702.3856</ele><time>2026-07-23T22:23:36.000Z</time></trkpt>
        <trkpt lat="29.574194" lon="103.39224"><ele>701.64746</ele><time>2026-07-23T22:23:46.000Z</time></trkpt>
        <trkpt lat="29.57417" lon="103.392231"><ele>701.66724</ele><time>2026-07-23T22:23:48.000Z</time></trkpt>
        <trkpt lat="29.574169" lon="103.392231"><ele>701.0778</ele><time>2026-07-23T22:23:50.000Z</time></trkpt>
        <trkpt lat="29.574256" lon="103.392217"><ele>701.8708</ele><time>2026-07-23T22:24:00.000Z</time></trkpt>
        <trkpt lat="29.574321" lon="103.392208"><ele>701.9184</ele><time>2026-07-23T22:24:03.000Z</time></trkpt>
        <trkpt lat="29.574321" lon="103.392208"><ele>702.94775</ele><time>2026-07-23T22:24:05.000Z</time></trkpt>
        <trkpt lat="29.574321" lon="103.392208"><ele>703.78076</ele><time>2026-07-23T22:24:07.000Z</time></trkpt>
        <trkpt lat="29.574349" lon="103.392194"><ele>700.9302</ele><time>2026-07-23T22:24:25.000Z</time></trkpt>
        <trkpt lat="29.574365" lon="103.392181"><ele>700.24805</ele><time>2026-07-23T22:24:27.000Z</time></trkpt>
      </trkseg>
      <trkseg>
        <trkpt lat="29.574467" lon="103.392222"><ele>700.5268</ele><time>2026-07-23T22:36:49.000Z</time></trkpt>
        <trkpt lat="29.574428" lon="103.392245"><ele>700.9279</ele><time>2026-07-23T22:37:03.000Z</time></trkpt>
        <trkpt lat="29.574412" lon="103.392249"><ele>701.3421</ele><time>2026-07-23T22:37:05.000Z</time></trkpt>
        <trkpt lat="29.574404" lon="103.392251"><ele>701.1935</ele><time>2026-07-23T22:37:07.000Z</time></trkpt>
        <trkpt lat="29.574466" lon="103.392235"><ele>699.0025</ele><time>2026-07-23T22:37:17.000Z</time></trkpt>
        <trkpt lat="29.574466" lon="103.392235"><ele>699.0025</ele><time>2026-07-23T22:37:19.000Z</time></trkpt>
        <trkpt lat="29.574466" lon="103.392235"><ele>697.71277</ele><time>2026-07-23T22:37:21.000Z</time></trkpt>
        <trkpt lat="29.574432" lon="103.392235"><ele>697.07825</ele><time>2026-07-23T22:37:43.000Z</time></trkpt>
        <trkpt lat="29.574412" lon="103.392232"><ele>697.5145</ele><time>2026-07-23T22:37:45.000Z</time></trkpt>
        <trkpt lat="29.574389" lon="103.392226"><ele>697.75104</ele><time>2026-07-23T22:37:47.000Z</time></trkpt>
        <trkpt lat="29.57436" lon="103.392217"><ele>698.94385</ele><time>2026-07-23T22:37:50.000Z</time></trkpt>
        <trkpt lat="29.57436" lon="103.392217"><ele>699.5027</ele><time>2026-07-23T22:37:52.000Z</time></trkpt>
        <trkpt lat="29.574361" lon="103.392216"><ele>699.387</ele><time>2026-07-23T22:37:54.000Z</time></trkpt>
        <trkpt lat="29.574384" lon="103.392176"><ele>700.22437</ele><time>2026-07-23T22:38:00.000Z</time></trkpt>
        <trkpt lat="29.574384" lon="103.392176"><ele>700.2034</ele><time>2026-07-23T22:38:02.000Z</time></trkpt>
        <trkpt lat="29.574385" lon="103.392175"><ele>700.2586</ele><time>2026-07-23T22:38:04.000Z</time></trkpt>
        <trkpt lat="29.574418" lon="103.392151"><ele>702.3591</ele><time>2026-07-23T22:38:10.000Z</time></trkpt>
        <trkpt lat="29.574431" lon="103.392146"><ele>702.4891</ele><time>2026-07-23T22:38:12.000Z</time></trkpt>
        <trkpt lat="29.574442" lon="103.392143"><ele>702.61865</ele><time>2026-07-23T22:38:14.000Z</time></trkpt>
        <trkpt lat="29.574451" lon="103.392145"><ele>702.5749</ele><time>2026-07-23T22:38:16.000Z</time></trkpt>
        <trkpt lat="29.574465" lon="103.39215"><ele>702.1265</ele><time>2026-07-23T22:38:20.000Z</time></trkpt>
        <trkpt lat="29.574472" lon="103.39215"><ele>702.66223</ele><time>2026-07-23T22:38:22.000Z</time></trkpt>
        <trkpt lat="29.574557" lon="103.392149"><ele>705.7881</ele><time>2026-07-23T22:38:37.000Z</time></trkpt>
        <trkpt lat="29.574627" lon="103.39215"><ele>707.95703</ele><time>2026-07-23T22:38:51.000Z</time></trkpt>
        <trkpt lat="29.574641" lon="103.39215"><ele>707.1996</ele><time>2026-07-23T22:38:53.000Z</time></trkpt>
        <trkpt lat="29.574651" lon="103.392151"><ele>707.70483</ele><time>2026-07-23T22:38:55.000Z</time></trkpt>
        <trkpt lat="29.574659" lon="103.392151"><ele>707.9672</ele><time>2026-07-23T22:38:57.000Z</time></trkpt>
        <trkpt lat="29.574681" lon="103.392153"><ele>709.2518</ele><time>2026-07-23T22:39:01.000Z</time></trkpt>
        <trkpt lat="29.574684" lon="103.392153"><ele>708.956</ele><time>2026-07-23T22:39:03.000Z</time></trkpt>
        <trkpt lat="29.574691" lon="103.392152"><ele>708.7287</ele><time>2026-07-23T22:39:07.000Z</time></trkpt>
        <trkpt lat="29.574713" lon="103.392154"><ele>708.6855</ele><time>2026-07-23T22:39:13.000Z</time></trkpt>
        <trkpt lat="29.574719" lon="103.392156"><ele>708.6177</ele><time>2026-07-23T22:39:15.000Z</time></trkpt>
        <trkpt lat="29.574722" lon="103.392156"><ele>708.6177</ele><time>2026-07-23T22:39:17.000Z</time></trkpt>
        <trkpt lat="29.574748" lon="103.392149"><ele>712.10114</ele><time>2026-07-23T22:39:53.000Z</time></trkpt>
        <trkpt lat="29.574761" lon="103.392146"><ele>713.2525</ele><time>2026-07-23T22:39:55.000Z</time></trkpt>
        <trkpt lat="29.574762" lon="103.392146"><ele>713.5361</ele><time>2026-07-23T22:39:57.000Z</time></trkpt>
        <trkpt lat="29.574779" lon="103.392144"><ele>713.113</ele><time>2026-07-23T22:40:03.000Z</time></trkpt>
        <trkpt lat="29.574806" lon="103.39214"><ele>713.29706</ele><time>2026-07-23T22:40:05.000Z</time></trkpt>
        <trkpt lat="29.574808" lon="103.39214"><ele>713.48505</ele><time>2026-07-23T22:40:07.000Z</time></trkpt>
        <trkpt lat="29.574813" lon="103.392139"><ele>714.39734</ele><time>2026-07-23T22:40:09.000Z</time></trkpt>
        <trkpt lat="29.574839" lon="103.392135"><ele>713.732</ele><time>2026-07-23T22:40:13.000Z</time></trkpt>
        <trkpt lat="29.574848" lon="103.392133"><ele>714.11255</ele><time>2026-07-23T22:40:15.000Z</time></trkpt>
        <trkpt lat="29.574853" lon="103.392137"><ele>714.4867</ele><time>2026-07-23T22:40:17.000Z</time></trkpt>
        <trkpt lat="29.574867" lon="103.392133"><ele>716.3806</ele><time>2026-07-23T22:40:25.000Z</time></trkpt>
        <trkpt lat="29.574884" lon="103.392128"><ele>715.61786</ele><time>2026-07-23T22:40:38.000Z</time></trkpt>
        <trkpt lat="29.574901" lon="103.392124"><ele>715.4003</ele><time>2026-07-23T22:40:40.000Z</time></trkpt>
        <trkpt lat="29.574902" lon="103.392123"><ele>714.7826</ele><time>2026-07-23T22:40:42.000Z</time></trkpt>
        <trkpt lat="29.574921" lon="103.392107"><ele>714.98035</ele><time>2026-07-23T22:40:48.000Z</time></trkpt>
        <trkpt lat="29.574928" lon="103.392099"><ele>715.0869</ele><time>2026-07-23T22:40:50.000Z</time></trkpt>
        <trkpt lat="29.574939" lon="103.392094"><ele>715.1328</ele><time>2026-07-23T22:40:52.000Z</time></trkpt>
        <trkpt lat="29.574955" lon="103.392087"><ele>715.88</ele><time>2026-07-23T22:40:58.000Z</time></trkpt>
        <trkpt lat="29.574969" lon="103.392082"><ele>716.0938</ele><time>2026-07-23T22:41:00.000Z</time></trkpt>
        <trkpt lat="29.574981" lon="103.392078"><ele>716.9224</ele><time>2026-07-23T22:41:02.000Z</time></trkpt>
        <trkpt lat="29.57499" lon="103.392075"><ele>716.2111</ele><time>2026-07-23T22:41:04.000Z</time></trkpt>
        <trkpt lat="29.575001" lon="103.392072"><ele>715.5862</ele><time>2026-07-23T22:41:06.000Z</time></trkpt>
        <trkpt lat="29.57501" lon="103.392067"><ele>715.98456</ele><time>2026-07-23T22:41:08.000Z</time></trkpt>
        <trkpt lat="29.57502" lon="103.392063"><ele>717.9705</ele><time>2026-07-23T22:41:12.000Z</time></trkpt>
        <trkpt lat="29.57503" lon="103.392057"><ele>720.0807</ele><time>2026-07-23T22:41:16.000Z</time></trkpt>
        <trkpt lat="29.575041" lon="103.392052"><ele>720.0195</ele><time>2026-07-23T22:41:20.000Z</time></trkpt>
        <trkpt lat="29.575048" lon="103.392052"><ele>719.90234</ele><time>2026-07-23T22:41:22.000Z</time></trkpt>
        <trkpt lat="29.575073" lon="103.392052"><ele>720.47107</ele><time>2026-07-23T22:41:26.000Z</time></trkpt>
        <trkpt lat="29.575073" lon="103.392052"><ele>720.3925</ele><time>2026-07-23T22:41:28.000Z</time></trkpt>
        <trkpt lat="29.575118" lon="103.392008"><ele>722.7339</ele><time>2026-07-23T22:41:44.000Z</time></trkpt>
        <trkpt lat="29.575136" lon="103.391991"><ele>722.547</ele><time>2026-07-23T22:41:48.000Z</time></trkpt>
        <trkpt lat="29.575136" lon="103.391991"><ele>722.15173</ele><time>2026-07-23T22:41:50.000Z</time></trkpt>
        <trkpt lat="29.575148" lon="103.39199"><ele>723.14984</ele><time>2026-07-23T22:41:56.000Z</time></trkpt>
        <trkpt lat="29.575173" lon="103.391988"><ele>723.8372</ele><time>2026-07-23T22:42:00.000Z</time></trkpt>
        <trkpt lat="29.575173" lon="103.391988"><ele>723.8222</ele><time>2026-07-23T22:42:02.000Z</time></trkpt>
        <trkpt lat="29.57518" lon="103.391982"><ele>723.80853</ele><time>2026-07-23T22:42:06.000Z</time></trkpt>
        <trkpt lat="29.575212" lon="103.391954"><ele>723.84467</ele><time>2026-07-23T22:42:12.000Z</time></trkpt>
        <trkpt lat="29.575212" lon="103.391954"><ele>724.9086</ele><time>2026-07-23T22:42:14.000Z</time></trkpt>
        <trkpt lat="29.575214" lon="103.391953"><ele>725.82007</ele><time>2026-07-23T22:42:16.000Z</time></trkpt>
        <trkpt lat="29.575257" lon="103.391943"><ele>726.79877</ele><time>2026-07-23T22:42:21.000Z</time></trkpt>
        <trkpt lat="29.575257" lon="103.391943"><ele>727.6873</ele><time>2026-07-23T22:42:23.000Z</time></trkpt>
        <trkpt lat="29.57526" lon="103.39194"><ele>727.4862</ele><time>2026-07-23T22:42:25.000Z</time></trkpt>
        <trkpt lat="29.575295" lon="103.391914"><ele>728.23676</ele><time>2026-07-23T22:42:31.000Z</time></trkpt>
        <trkpt lat="29.575295" lon="103.391914"><ele>727.61005</ele><time>2026-07-23T22:42:33.000Z</time></trkpt>
        <trkpt lat="29.575297" lon="103.391913"><ele>727.5771</ele><time>2026-07-23T22:42:35.000Z</time></trkpt>
        <trkpt lat="29.575337" lon="103.391899"><ele>727.4687</ele><time>2026-07-23T22:42:41.000Z</time></trkpt>
        <trkpt lat="29.575337" lon="103.391899"><ele>728.5742</ele><time>2026-07-23T22:42:43.000Z</time></trkpt>
        <trkpt lat="29.575339" lon="103.391898"><ele>729.61334</ele><time>2026-07-23T22:42:45.000Z</time></trkpt>
        <trkpt lat="29.575377" lon="103.391877"><ele>731.27246</ele><time>2026-07-23T22:42:51.000Z</time></trkpt>
        <trkpt lat="29.575377" lon="103.391877"><ele>731.576</ele><time>2026-07-23T22:42:53.000Z</time></trkpt>
        <trkpt lat="29.575377" lon="103.391877"><ele>731.98224</ele><time>2026-07-23T22:42:55.000Z</time></trkpt>
        <trkpt lat="29.57541" lon="103.391866"><ele>733.2184</ele><time>2026-07-23T22:43:05.000Z</time></trkpt>
        <trkpt lat="29.575422" lon="103.391862"><ele>733.2476</ele><time>2026-07-23T22:43:07.000Z</time></trkpt>
        <trkpt lat="29.575423" lon="103.391862"><ele>732.82263</ele><time>2026-07-23T22:43:09.000Z</time></trkpt>
        <trkpt lat="29.575488" lon="103.391885"><ele>735.5076</ele><time>2026-07-23T22:43:28.000Z</time></trkpt>
        <trkpt lat="29.575509" lon="103.391893"><ele>735.792</ele><time>2026-07-23T22:43:31.000Z</time></trkpt>
        <trkpt lat="29.57551" lon="103.391893"><ele>735.6494</ele><time>2026-07-23T22:43:33.000Z</time></trkpt>
        <trkpt lat="29.575518" lon="103.391895"><ele>737.71124</ele><time>2026-07-23T22:43:37.000Z</time></trkpt>
        <trkpt lat="29.575548" lon="103.391903"><ele>737.2403</ele><time>2026-07-23T22:43:41.000Z</time></trkpt>
        <trkpt lat="29.575548" lon="103.391903"><ele>737.4392</ele><time>2026-07-23T22:43:43.000Z</time></trkpt>
        <trkpt lat="29.575551" lon="103.391904"><ele>737.4294</ele><time>2026-07-23T22:43:45.000Z</time></trkpt>
        <trkpt lat="29.575578" lon="103.391912"><ele>738.5207</ele><time>2026-07-23T22:43:49.000Z</time></trkpt>
        <trkpt lat="29.575591" lon="103.391917"><ele>738.1865</ele><time>2026-07-23T22:43:51.000Z</time></trkpt>
        <trkpt lat="29.575602" lon="103.391923"><ele>738.406</ele><time>2026-07-23T22:43:53.000Z</time></trkpt>
        <trkpt lat="29.575612" lon="103.39193"><ele>739.6927</ele><time>2026-07-23T22:43:55.000Z</time></trkpt>
        <trkpt lat="29.57562" lon="103.391933"><ele>739.58875</ele><time>2026-07-23T22:43:57.000Z</time></trkpt>
        <trkpt lat="29.575635" lon="103.391935"><ele>740.07715</ele><time>2026-07-23T22:44:01.000Z</time></trkpt>
        <trkpt lat="29.575646" lon="103.391938"><ele>741.0232</ele><time>2026-07-23T22:44:05.000Z</time></trkpt>
        <trkpt lat="29.575649" lon="103.39194"><ele>741.3389</ele><time>2026-07-23T22:44:07.000Z</time></trkpt>
        <trkpt lat="29.575667" lon="103.391951"><ele>743.2023</ele><time>2026-07-23T22:44:13.000Z</time></trkpt>
        <trkpt lat="29.575675" lon="103.391954"><ele>743.7014</ele><time>2026-07-23T22:44:15.000Z</time></trkpt>
        <trkpt lat="29.575679" lon="103.391955"><ele>743.7878</ele><time>2026-07-23T22:44:17.000Z</time></trkpt>
        <trkpt lat="29.575727" lon="103.391952"><ele>746.10583</ele><time>2026-07-23T22:44:42.000Z</time></trkpt>
        <trkpt lat="29.57578" lon="103.391944"><ele>745.78876</ele><time>2026-07-23T22:44:57.000Z</time></trkpt>
        <trkpt lat="29.57579" lon="103.391942"><ele>747.5321</ele><time>2026-07-23T22:44:59.000Z</time></trkpt>
        <trkpt lat="29.57579" lon="103.391941"><ele>746.8387</ele><time>2026-07-23T22:45:01.000Z</time></trkpt>
        <trkpt lat="29.575809" lon="103.391919"><ele>749.42</ele><time>2026-07-23T22:45:11.000Z</time></trkpt>
        <trkpt lat="29.575814" lon="103.391916"><ele>749.6777</ele><time>2026-07-23T22:45:13.000Z</time></trkpt>
        <trkpt lat="29.575817" lon="103.391916"><ele>749.9986</ele><time>2026-07-23T22:45:15.000Z</time></trkpt>
        <trkpt lat="29.575842" lon="103.391909"><ele>751.42804</ele><time>2026-07-23T22:45:21.000Z</time></trkpt>
        <trkpt lat="29.575848" lon="103.391906"><ele>751.13</ele><time>2026-07-23T22:45:23.000Z</time></trkpt>
        <trkpt lat="29.575865" lon="103.391897"><ele>751.41064</ele><time>2026-07-23T22:45:25.000Z</time></trkpt>
        <trkpt lat="29.575876" lon="103.391892"><ele>751.46735</ele><time>2026-07-23T22:45:31.000Z</time></trkpt>
        <trkpt lat="29.575886" lon="103.391887"><ele>751.2643</ele><time>2026-07-23T22:45:33.000Z</time></trkpt>
        <trkpt lat="29.575899" lon="103.391882"><ele>752.6272</ele><time>2026-07-23T22:45:35.000Z</time></trkpt>
        <trkpt lat="29.575911" lon="103.391879"><ele>752.3402</ele><time>2026-07-23T22:45:37.000Z</time></trkpt>
        <trkpt lat="29.575922" lon="103.391877"><ele>751.9245</ele><time>2026-07-23T22:45:39.000Z</time></trkpt>
        <trkpt lat="29.575934" lon="103.39188"><ele>751.8543</ele><time>2026-07-23T22:45:41.000Z</time></trkpt>
        <trkpt lat="29.575942" lon="103.391885"><ele>752.8898</ele><time>2026-07-23T22:45:43.000Z</time></trkpt>
        <trkpt lat="29.57595" lon="103.391893"><ele>753.26605</ele><time>2026-07-23T22:45:45.000Z</time></trkpt>
        <trkpt lat="29.575959" lon="103.3919"><ele>754.2612</ele><time>2026-07-23T22:45:47.000Z</time></trkpt>
        <trkpt lat="29.57597" lon="103.391907"><ele>755.0022</ele><time>2026-07-23T22:45:49.000Z</time></trkpt>
        <trkpt lat="29.575985" lon="103.391914"><ele>753.6086</ele><time>2026-07-23T22:45:51.000Z</time></trkpt>
        <trkpt lat="29.575999" lon="103.391918"><ele>753.8309</ele><time>2026-07-23T22:45:53.000Z</time></trkpt>
        <trkpt lat="29.576016" lon="103.391923"><ele>753.903</ele><time>2026-07-23T22:45:55.000Z</time></trkpt>
        <trkpt lat="29.576027" lon="103.391924"><ele>754.8829</ele><time>2026-07-23T22:45:57.000Z</time></trkpt>
        <trkpt lat="29.576043" lon="103.391928"><ele>754.6082</ele><time>2026-07-23T22:45:59.000Z</time></trkpt>
        <trkpt lat="29.576057" lon="103.391932"><ele>754.52936</ele><time>2026-07-23T22:46:01.000Z</time></trkpt>
        <trkpt lat="29.576069" lon="103.391936"><ele>754.978</ele><time>2026-07-23T22:46:03.000Z</time></trkpt>
        <trkpt lat="29.576076" lon="103.391936"><ele>754.8798</ele><time>2026-07-23T22:46:05.000Z</time></trkpt>
        <trkpt lat="29.576087" lon="103.391936"><ele>756.184</ele><time>2026-07-23T22:46:11.000Z</time></trkpt>
        <trkpt lat="29.576099" lon="103.391937"><ele>757.42163</ele><time>2026-07-23T22:46:29.000Z</time></trkpt>
        <trkpt lat="29.576106" lon="103.391937"><ele>757.61945</ele><time>2026-07-23T22:46:31.000Z</time></trkpt>
        <trkpt lat="29.576125" lon="103.391941"><ele>757.85895</ele><time>2026-07-23T22:46:35.000Z</time></trkpt>
        <trkpt lat="29.57613" lon="103.391944"><ele>759.12946</ele><time>2026-07-23T22:46:37.000Z</time></trkpt>
        <trkpt lat="29.576141" lon="103.391948"><ele>759.6193</ele><time>2026-07-23T22:46:41.000Z</time></trkpt>
        <trkpt lat="29.576156" lon="103.391952"><ele>760.0065</ele><time>2026-07-23T22:46:45.000Z</time></trkpt>
        <trkpt lat="29.576163" lon="103.391954"><ele>759.75684</ele><time>2026-07-23T22:46:47.000Z</time></trkpt>
        <trkpt lat="29.576175" lon="103.391962"><ele>759.6773</ele><time>2026-07-23T22:46:51.000Z</time></trkpt>
        <trkpt lat="29.576183" lon="103.391967"><ele>760.5399</ele><time>2026-07-23T22:46:55.000Z</time></trkpt>
        <trkpt lat="29.576194" lon="103.391974"><ele>761.4861</ele><time>2026-07-23T22:46:59.000Z</time></trkpt>
        <trkpt lat="29.576202" lon="103.391977"><ele>761.4833</ele><time>2026-07-23T22:47:01.000Z</time></trkpt>
        <trkpt lat="29.576221" lon="103.391984"><ele>761.5902</ele><time>2026-07-23T22:47:03.000Z</time></trkpt>
        <trkpt lat="29.576258" lon="103.391999"><ele>764.175</ele><time>2026-07-23T22:47:17.000Z</time></trkpt>
        <trkpt lat="29.576269" lon="103.392004"><ele>763.5929</ele><time>2026-07-23T22:47:19.000Z</time></trkpt>
        <trkpt lat="29.57627" lon="103.392004"><ele>763.2278</ele><time>2026-07-23T22:47:21.000Z</time></trkpt>
        <trkpt lat="29.57629" lon="103.392004"><ele>764.0062</ele><time>2026-07-23T22:47:29.000Z</time></trkpt>
        <trkpt lat="29.576311" lon="103.392003"><ele>763.8454</ele><time>2026-07-23T22:47:31.000Z</time></trkpt>
        <trkpt lat="29.576312" lon="103.392003"><ele>764.34436</ele><time>2026-07-23T22:47:33.000Z</time></trkpt>
        <trkpt lat="29.576325" lon="103.392004"><ele>764.8323</ele><time>2026-07-23T22:47:37.000Z</time></trkpt>
        <trkpt lat="29.576354" lon="103.392007"><ele>765.66724</ele><time>2026-07-23T22:47:41.000Z</time></trkpt>
        <trkpt lat="29.576364" lon="103.392006"><ele>766.24384</ele><time>2026-07-23T22:47:43.000Z</time></trkpt>
        <trkpt lat="29.576372" lon="103.392004"><ele>766.1767</ele><time>2026-07-23T22:47:45.000Z</time></trkpt>
        <trkpt lat="29.576394" lon="103.391997"><ele>767.20374</ele><time>2026-07-23T22:47:49.000Z</time></trkpt>
        <trkpt lat="29.576407" lon="103.391994"><ele>766.3514</ele><time>2026-07-23T22:47:51.000Z</time></trkpt>
        <trkpt lat="29.576423" lon="103.391991"><ele>766.5211</ele><time>2026-07-23T22:47:53.000Z</time></trkpt>
        <trkpt lat="29.57644" lon="103.391988"><ele>766.26483</ele><time>2026-07-23T22:47:55.000Z</time></trkpt>
        <trkpt lat="29.576453" lon="103.391984"><ele>766.3597</ele><time>2026-07-23T22:47:57.000Z</time></trkpt>
        <trkpt lat="29.576465" lon="103.391982"><ele>766.9675</ele><time>2026-07-23T22:47:59.000Z</time></trkpt>
        <trkpt lat="29.576473" lon="103.391983"><ele>767.13055</ele><time>2026-07-23T22:48:01.000Z</time></trkpt>
        <trkpt lat="29.576493" lon="103.391984"><ele>767.2399</ele><time>2026-07-23T22:48:05.000Z</time></trkpt>
        <trkpt lat="29.576503" lon="103.391983"><ele>767.91797</ele><time>2026-07-23T22:48:07.000Z</time></trkpt>
        <trkpt lat="29.576515" lon="103.39198"><ele>767.97906</ele><time>2026-07-23T22:48:09.000Z</time></trkpt>
        <trkpt lat="29.576531" lon="103.391973"><ele>768.6118</ele><time>2026-07-23T22:48:11.000Z</time></trkpt>
        <trkpt lat="29.576549" lon="103.391964"><ele>768.2329</ele><time>2026-07-23T22:48:13.000Z</time></trkpt>
        <trkpt lat="29.576563" lon="103.391953"><ele>769.2211</ele><time>2026-07-23T22:48:15.000Z</time></trkpt>
      </trkseg>
      <trkseg>
        <trkpt lat="29.576585" lon="103.391935"><ele>771.348</ele><time>2026-07-23T22:53:24.000Z</time></trkpt>
        <trkpt lat="29.576619" lon="103.391944"><ele>772.0576</ele><time>2026-07-23T22:53:42.000Z</time></trkpt>
        <trkpt lat="29.576643" lon="103.391936"><ele>771.3293</ele><time>2026-07-23T22:53:44.000Z</time></trkpt>
        <trkpt lat="29.576645" lon="103.391935"><ele>771.0122</ele><time>2026-07-23T22:53:46.000Z</time></trkpt>
        <trkpt lat="29.576648" lon="103.391933"><ele>771.39777</ele><time>2026-07-23T22:53:48.000Z</time></trkpt>
        <trkpt lat="29.576676" lon="103.391915"><ele>773.2006</ele><time>2026-07-23T22:53:52.000Z</time></trkpt>
        <trkpt lat="29.576694" lon="103.391901"><ele>772.789</ele><time>2026-07-23T22:53:54.000Z</time></trkpt>
        <trkpt lat="29.576713" lon="103.391885"><ele>774.4755</ele><time>2026-07-23T22:53:56.000Z</time></trkpt>
        <trkpt lat="29.576726" lon="103.39187"><ele>774.83215</ele><time>2026-07-23T22:53:58.000Z</time></trkpt>
        <trkpt lat="29.576736" lon="103.391856"><ele>775.44366</ele><time>2026-07-23T22:54:00.000Z</time></trkpt>
        <trkpt lat="29.576747" lon="103.391842"><ele>775.2627</ele><time>2026-07-23T22:54:02.000Z</time></trkpt>
        <trkpt lat="29.576759" lon="103.391824"><ele>775.45935</ele><time>2026-07-23T22:54:04.000Z</time></trkpt>
        <trkpt lat="29.57677" lon="103.391808"><ele>776.20734</ele><time>2026-07-23T22:54:06.000Z</time></trkpt>
        <trkpt lat="29.576781" lon="103.391792"><ele>776.4776</ele><time>2026-07-23T22:54:08.000Z</time></trkpt>
        <trkpt lat="29.57679" lon="103.391775"><ele>776.5322</ele><time>2026-07-23T22:54:10.000Z</time></trkpt>
        <trkpt lat="29.576796" lon="103.391757"><ele>776.6936</ele><time>2026-07-23T22:54:12.000Z</time></trkpt>
        <trkpt lat="29.576802" lon="103.391742"><ele>777.33844</ele><time>2026-07-23T22:54:14.000Z</time></trkpt>
        <trkpt lat="29.576807" lon="103.391728"><ele>777.33264</ele><time>2026-07-23T22:54:16.000Z</time></trkpt>
        <trkpt lat="29.576811" lon="103.391712"><ele>778.09656</ele><time>2026-07-23T22:54:18.000Z</time></trkpt>
        <trkpt lat="29.576814" lon="103.391699"><ele>777.7607</ele><time>2026-07-23T22:54:20.000Z</time></trkpt>
        <trkpt lat="29.576818" lon="103.391687"><ele>777.27954</ele><time>2026-07-23T22:54:22.000Z</time></trkpt>
        <trkpt lat="29.576823" lon="103.391675"><ele>776.55536</ele><time>2026-07-23T22:54:24.000Z</time></trkpt>
        <trkpt lat="29.576829" lon="103.391663"><ele>775.6752</ele><time>2026-07-23T22:54:26.000Z</time></trkpt>
        <trkpt lat="29.576835" lon="103.39165"><ele>776.59265</ele><time>2026-07-23T22:54:28.000Z</time></trkpt>
        <trkpt lat="29.576841" lon="103.391636"><ele>776.583</ele><time>2026-07-23T22:54:30.000Z</time></trkpt>
        <trkpt lat="29.576847" lon="103.391621"><ele>776.2953</ele><time>2026-07-23T22:54:32.000Z</time></trkpt>
        <trkpt lat="29.576853" lon="103.391605"><ele>776.6783</ele><time>2026-07-23T22:54:34.000Z</time></trkpt>
        <trkpt lat="29.576859" lon="103.391593"><ele>777.36847</ele><time>2026-07-23T22:54:36.000Z</time></trkpt>
        <trkpt lat="29.576865" lon="103.391583"><ele>777.50256</ele><time>2026-07-23T22:54:38.000Z</time></trkpt>
        <trkpt lat="29.576871" lon="103.39157"><ele>777.38214</ele><time>2026-07-23T22:54:40.000Z</time></trkpt>
        <trkpt lat="29.576874" lon="103.391556"><ele>777.5773</ele><time>2026-07-23T22:54:42.000Z</time></trkpt>
        <trkpt lat="29.576878" lon="103.391543"><ele>778.69275</ele><time>2026-07-23T22:54:44.000Z</time></trkpt>
        <trkpt lat="29.576883" lon="103.391527"><ele>778.5696</ele><time>2026-07-23T22:54:46.000Z</time></trkpt>
        <trkpt lat="29.576891" lon="103.391508"><ele>779.1112</ele><time>2026-07-23T22:54:48.000Z</time></trkpt>
        <trkpt lat="29.576901" lon="103.391489"><ele>778.45135</ele><time>2026-07-23T22:54:50.000Z</time></trkpt>
        <trkpt lat="29.576912" lon="103.391471"><ele>779.99005</ele><time>2026-07-23T22:54:52.000Z</time></trkpt>
        <trkpt lat="29.576925" lon="103.391452"><ele>779.284</ele><time>2026-07-23T22:54:54.000Z</time></trkpt>
        <trkpt lat="29.576936" lon="103.391434"><ele>779.3838</ele><time>2026-07-23T22:54:56.000Z</time></trkpt>
        <trkpt lat="29.576943" lon="103.39142"><ele>780.348</ele><time>2026-07-23T22:54:58.000Z</time></trkpt>
        <trkpt lat="29.576945" lon="103.391411"><ele>781.95667</ele><time>2026-07-23T22:55:00.000Z</time></trkpt>
        <trkpt lat="29.576947" lon="103.391399"><ele>782.19995</ele><time>2026-07-23T22:55:02.000Z</time></trkpt>
        <trkpt lat="29.576953" lon="103.391381"><ele>783.75134</ele><time>2026-07-23T22:55:06.000Z</time></trkpt>
        <trkpt lat="29.576957" lon="103.391377"><ele>784.71985</ele><time>2026-07-23T22:55:08.000Z</time></trkpt>
        <trkpt lat="29.576961" lon="103.391369"><ele>784.029</ele><time>2026-07-23T22:55:10.000Z</time></trkpt>
        <trkpt lat="29.576978" lon="103.391343"><ele>784.265</ele><time>2026-07-23T22:55:14.000Z</time></trkpt>
        <trkpt lat="29.576978" lon="103.391343"><ele>784.13525</ele><time>2026-07-23T22:55:16.000Z</time></trkpt>
        <trkpt lat="29.57698" lon="103.39134"><ele>783.9702</ele><time>2026-07-23T22:55:18.000Z</time></trkpt>
        <trkpt lat="29.576999" lon="103.391308"><ele>784.30615</ele><time>2026-07-23T22:55:22.000Z</time></trkpt>
        <trkpt lat="29.577009" lon="103.391294"><ele>785.0314</ele><time>2026-07-23T22:55:24.000Z</time></trkpt>
        <trkpt lat="29.577019" lon="103.391282"><ele>785.27704</ele><time>2026-07-23T22:55:26.000Z</time></trkpt>
        <trkpt lat="29.577026" lon="103.391272"><ele>785.3177</ele><time>2026-07-23T22:55:28.000Z</time></trkpt>
        <trkpt lat="29.577031" lon="103.391261"><ele>786.03613</ele><time>2026-07-23T22:55:30.000Z</time></trkpt>
        <trkpt lat="29.577036" lon="103.391248"><ele>785.9763</ele><time>2026-07-23T22:55:32.000Z</time></trkpt>
        <trkpt lat="29.577043" lon="103.39123"><ele>786.559</ele><time>2026-07-23T22:55:34.000Z</time></trkpt>
        <trkpt lat="29.577051" lon="103.391214"><ele>786.3233</ele><time>2026-07-23T22:55:36.000Z</time></trkpt>
        <trkpt lat="29.57706" lon="103.391194"><ele>786.21643</ele><time>2026-07-23T22:55:38.000Z</time></trkpt>
        <trkpt lat="29.577071" lon="103.391175"><ele>785.3748</ele><time>2026-07-23T22:55:40.000Z</time></trkpt>
        <trkpt lat="29.57708" lon="103.391158"><ele>787.89716</ele><time>2026-07-23T22:55:42.000Z</time></trkpt>
        <trkpt lat="29.577088" lon="103.391142"><ele>788.7137</ele><time>2026-07-23T22:55:44.000Z</time></trkpt>
        <trkpt lat="29.577093" lon="103.39113"><ele>789.2085</ele><time>2026-07-23T22:55:46.000Z</time></trkpt>
        <trkpt lat="29.577095" lon="103.391121"><ele>789.3427</ele><time>2026-07-23T22:55:48.000Z</time></trkpt>
        <trkpt lat="29.577101" lon="103.391111"><ele>789.87994</ele><time>2026-07-23T22:55:52.000Z</time></trkpt>
        <trkpt lat="29.577114" lon="103.391093"><ele>789.4894</ele><time>2026-07-23T22:55:58.000Z</time></trkpt>
        <trkpt lat="29.577123" lon="103.391079"><ele>789.8222</ele><time>2026-07-23T22:56:00.000Z</time></trkpt>
        <trkpt lat="29.577132" lon="103.391064"><ele>788.82574</ele><time>2026-07-23T22:56:02.000Z</time></trkpt>
        <trkpt lat="29.577142" lon="103.391048"><ele>788.76166</ele><time>2026-07-23T22:56:04.000Z</time></trkpt>
        <trkpt lat="29.577152" lon="103.391033"><ele>789.5349</ele><time>2026-07-23T22:56:06.000Z</time></trkpt>
        <trkpt lat="29.577163" lon="103.391019"><ele>788.0725</ele><time>2026-07-23T22:56:08.000Z</time></trkpt>
        <trkpt lat="29.577176" lon="103.391004"><ele>788.8869</ele><time>2026-07-23T22:56:10.000Z</time></trkpt>
        <trkpt lat="29.577188" lon="103.390992"><ele>788.9928</ele><time>2026-07-23T22:56:12.000Z</time></trkpt>
        <trkpt lat="29.577202" lon="103.390979"><ele>787.50507</ele><time>2026-07-23T22:56:14.000Z</time></trkpt>
        <trkpt lat="29.577218" lon="103.390969"><ele>787.52014</ele><time>2026-07-23T22:56:16.000Z</time></trkpt>
        <trkpt lat="29.57723" lon="103.390966"><ele>789.37024</ele><time>2026-07-23T22:56:18.000Z</time></trkpt>
        <trkpt lat="29.577239" lon="103.390963"><ele>789.5161</ele><time>2026-07-23T22:56:20.000Z</time></trkpt>
        <trkpt lat="29.577254" lon="103.39096"><ele>789.51355</ele><time>2026-07-23T22:56:24.000Z</time></trkpt>
        <trkpt lat="29.577261" lon="103.390959"><ele>789.49207</ele><time>2026-07-23T22:56:26.000Z</time></trkpt>
        <trkpt lat="29.577269" lon="103.390961"><ele>789.259</ele><time>2026-07-23T22:56:28.000Z</time></trkpt>
        <trkpt lat="29.577293" lon="103.390968"><ele>789.3325</ele><time>2026-07-23T22:56:30.000Z</time></trkpt>
        <trkpt lat="29.577295" lon="103.390968"><ele>788.21094</ele><time>2026-07-23T22:56:32.000Z</time></trkpt>
        <trkpt lat="29.577301" lon="103.390968"><ele>789.1547</ele><time>2026-07-23T22:56:34.000Z</time></trkpt>
        <trkpt lat="29.577347" lon="103.390979"><ele>787.6784</ele><time>2026-07-23T22:56:38.000Z</time></trkpt>
        <trkpt lat="29.577368" lon="103.390985"><ele>787.99646</ele><time>2026-07-23T22:56:40.000Z</time></trkpt>
        <trkpt lat="29.577385" lon="103.390988"><ele>789.1747</ele><time>2026-07-23T22:56:42.000Z</time></trkpt>
        <trkpt lat="29.577399" lon="103.390989"><ele>789.5736</ele><time>2026-07-23T22:56:44.000Z</time></trkpt>
        <trkpt lat="29.577411" lon="103.390989"><ele>789.192</ele><time>2026-07-23T22:56:46.000Z</time></trkpt>
        <trkpt lat="29.577422" lon="103.390991"><ele>789.11383</ele><time>2026-07-23T22:56:48.000Z</time></trkpt>
        <trkpt lat="29.577435" lon="103.390994"><ele>790.6388</ele><time>2026-07-23T22:56:50.000Z</time></trkpt>
        <trkpt lat="29.577448" lon="103.390999"><ele>790.9771</ele><time>2026-07-23T22:56:52.000Z</time></trkpt>
        <trkpt lat="29.577462" lon="103.391005"><ele>790.51373</ele><time>2026-07-23T22:56:54.000Z</time></trkpt>
        <trkpt lat="29.577475" lon="103.391013"><ele>790.339</ele><time>2026-07-23T22:56:56.000Z</time></trkpt>
        <trkpt lat="29.577486" lon="103.39102"><ele>790.0732</ele><time>2026-07-23T22:56:58.000Z</time></trkpt>
        <trkpt lat="29.577495" lon="103.391028"><ele>790.0014</ele><time>2026-07-23T22:57:00.000Z</time></trkpt>
        <trkpt lat="29.577501" lon="103.391035"><ele>791.2713</ele><time>2026-07-23T22:57:02.000Z</time></trkpt>
        <trkpt lat="29.577509" lon="103.391038"><ele>791.07404</ele><time>2026-07-23T22:57:04.000Z</time></trkpt>
        <trkpt lat="29.577528" lon="103.391043"><ele>789.6202</ele><time>2026-07-23T22:57:10.000Z</time></trkpt>
        <trkpt lat="29.577552" lon="103.391048"><ele>789.2047</ele><time>2026-07-23T22:57:12.000Z</time></trkpt>
        <trkpt lat="29.577554" lon="103.391048"><ele>789.4589</ele><time>2026-07-23T22:57:14.000Z</time></trkpt>
        <trkpt lat="29.577559" lon="103.391051"><ele>790.1505</ele><time>2026-07-23T22:57:16.000Z</time></trkpt>
        <trkpt lat="29.577601" lon="103.391068"><ele>790.80835</ele><time>2026-07-23T22:57:20.000Z</time></trkpt>
        <trkpt lat="29.577618" lon="103.391076"><ele>791.7901</ele><time>2026-07-23T22:57:22.000Z</time></trkpt>
        <trkpt lat="29.577631" lon="103.391082"><ele>792.4575</ele><time>2026-07-23T22:57:24.000Z</time></trkpt>
        <trkpt lat="29.577642" lon="103.391088"><ele>792.28754</ele><time>2026-07-23T22:57:26.000Z</time></trkpt>
        <trkpt lat="29.577654" lon="103.39109"><ele>792.6539</ele><time>2026-07-23T22:57:28.000Z</time></trkpt>
        <trkpt lat="29.577666" lon="103.39109"><ele>792.828</ele><time>2026-07-23T22:57:30.000Z</time></trkpt>
        <trkpt lat="29.577679" lon="103.391089"><ele>792.73425</ele><time>2026-07-23T22:57:32.000Z</time></trkpt>
        <trkpt lat="29.577688" lon="103.391089"><ele>792.5009</ele><time>2026-07-23T22:57:34.000Z</time></trkpt>
        <trkpt lat="29.577695" lon="103.391091"><ele>792.73584</ele><time>2026-07-23T22:57:36.000Z</time></trkpt>
        <trkpt lat="29.57772" lon="103.391099"><ele>792.59814</ele><time>2026-07-23T22:57:42.000Z</time></trkpt>
        <trkpt lat="29.57772" lon="103.391099"><ele>792.2807</ele><time>2026-07-23T22:57:44.000Z</time></trkpt>
        <trkpt lat="29.57773" lon="103.391103"><ele>795.3133</ele><time>2026-07-23T22:57:48.000Z</time></trkpt>
        <trkpt lat="29.577766" lon="103.391119"><ele>795.4613</ele><time>2026-07-23T22:57:52.000Z</time></trkpt>
        <trkpt lat="29.577766" lon="103.391119"><ele>795.64294</ele><time>2026-07-23T22:57:54.000Z</time></trkpt>
        <trkpt lat="29.577768" lon="103.391119"><ele>796.09564</ele><time>2026-07-23T22:57:56.000Z</time></trkpt>
        <trkpt lat="29.577801" lon="103.391127"><ele>799.64</ele><time>2026-07-23T22:58:06.000Z</time></trkpt>
        <trkpt lat="29.577807" lon="103.391126"><ele>800.6776</ele><time>2026-07-23T22:58:08.000Z</time></trkpt>
        <trkpt lat="29.577814" lon="103.391127"><ele>801.3218</ele><time>2026-07-23T22:58:10.000Z</time></trkpt>
        <trkpt lat="29.577836" lon="103.391136"><ele>802.1523</ele><time>2026-07-23T22:58:20.000Z</time></trkpt>
        <trkpt lat="29.577842" lon="103.391135"><ele>803.05493</ele><time>2026-07-23T22:58:22.000Z</time></trkpt>
        <trkpt lat="29.577865" lon="103.39113"><ele>802.7211</ele><time>2026-07-23T22:58:24.000Z</time></trkpt>
        <trkpt lat="29.577866" lon="103.391129"><ele>802.57513</ele><time>2026-07-23T22:58:26.000Z</time></trkpt>
        <trkpt lat="29.577884" lon="103.391097"><ele>801.93524</ele><time>2026-07-23T22:58:30.000Z</time></trkpt>
        <trkpt lat="29.577903" lon="103.391063"><ele>801.8095</ele><time>2026-07-23T22:58:32.000Z</time></trkpt>
        <trkpt lat="29.577925" lon="103.391023"><ele>801.8494</ele><time>2026-07-23T22:58:34.000Z</time></trkpt>
        <trkpt lat="29.577944" lon="103.390985"><ele>802.06055</ele><time>2026-07-23T22:58:36.000Z</time></trkpt>
        <trkpt lat="29.577962" lon="103.390947"><ele>802.9551</ele><time>2026-07-23T22:58:38.000Z</time></trkpt>
        <trkpt lat="29.577978" lon="103.390915"><ele>803.47296</ele><time>2026-07-23T22:58:40.000Z</time></trkpt>
        <trkpt lat="29.577987" lon="103.390893"><ele>803.7104</ele><time>2026-07-23T22:58:42.000Z</time></trkpt>
        <trkpt lat="29.577993" lon="103.390891"><ele>804.22253</ele><time>2026-07-23T22:58:44.000Z</time></trkpt>
        <trkpt lat="29.577999" lon="103.390882"><ele>803.2425</ele><time>2026-07-23T22:59:14.000Z</time></trkpt>
        <trkpt lat="29.578033" lon="103.390834"><ele>803.3378</ele><time>2026-07-23T22:59:18.000Z</time></trkpt>
        <trkpt lat="29.578033" lon="103.390833"><ele>803.2721</ele><time>2026-07-23T22:59:20.000Z</time></trkpt>
        <trkpt lat="29.578036" lon="103.390828"><ele>803.09894</ele><time>2026-07-23T22:59:22.000Z</time></trkpt>
        <trkpt lat="29.578062" lon="103.390783"><ele>803.8497</ele><time>2026-07-23T22:59:26.000Z</time></trkpt>
        <trkpt lat="29.578077" lon="103.390757"><ele>803.75214</ele><time>2026-07-23T22:59:28.000Z</time></trkpt>
        <trkpt lat="29.578089" lon="103.390734"><ele>804.98175</ele><time>2026-07-23T22:59:30.000Z</time></trkpt>
        <trkpt lat="29.578098" lon="103.390715"><ele>804.65955</ele><time>2026-07-23T22:59:32.000Z</time></trkpt>
        <trkpt lat="29.578106" lon="103.390699"><ele>803.71515</ele><time>2026-07-23T22:59:34.000Z</time></trkpt>
        <trkpt lat="29.578118" lon="103.390678"><ele>803.8066</ele><time>2026-07-23T22:59:36.000Z</time></trkpt>
        <trkpt lat="29.578131" lon="103.390655"><ele>804.2525</ele><time>2026-07-23T22:59:38.000Z</time></trkpt>
        <trkpt lat="29.578145" lon="103.390627"><ele>805.2819</ele><time>2026-07-23T22:59:40.000Z</time></trkpt>
        <trkpt lat="29.578159" lon="103.3906"><ele>805.1593</ele><time>2026-07-23T22:59:42.000Z</time></trkpt>
        <trkpt lat="29.57817" lon="103.390577"><ele>805.79944</ele><time>2026-07-23T22:59:44.000Z</time></trkpt>
        <trkpt lat="29.578179" lon="103.390553"><ele>806.51715</ele><time>2026-07-23T22:59:46.000Z</time></trkpt>
        <trkpt lat="29.578189" lon="103.390527"><ele>807.8482</ele><time>2026-07-23T22:59:48.000Z</time></trkpt>
        <trkpt lat="29.578199" lon="103.390501"><ele>810.3467</ele><time>2026-07-23T22:59:50.000Z</time></trkpt>
        <trkpt lat="29.578209" lon="103.390479"><ele>809.804</ele><time>2026-07-23T22:59:52.000Z</time></trkpt>
        <trkpt lat="29.578217" lon="103.390459"><ele>810.26874</ele><time>2026-07-23T22:59:54.000Z</time></trkpt>
        <trkpt lat="29.578224" lon="103.390442"><ele>809.00494</ele><time>2026-07-23T22:59:56.000Z</time></trkpt>
        <trkpt lat="29.57823" lon="103.390429"><ele>808.7764</ele><time>2026-07-23T22:59:58.000Z</time></trkpt>
        <trkpt lat="29.578236" lon="103.390422"><ele>809.62915</ele><time>2026-07-23T23:00:00.000Z</time></trkpt>
        <trkpt lat="29.578242" lon="103.390414"><ele>810.301</ele><time>2026-07-23T23:00:02.000Z</time></trkpt>
        <trkpt lat="29.57826" lon="103.39039"><ele>810.712</ele><time>2026-07-23T23:00:06.000Z</time></trkpt>
        <trkpt lat="29.57827" lon="103.390373"><ele>811.1793</ele><time>2026-07-23T23:00:08.000Z</time></trkpt>
        <trkpt lat="29.578283" lon="103.39035"><ele>812.6119</ele><time>2026-07-23T23:00:10.000Z</time></trkpt>
        <trkpt lat="29.578293" lon="103.390329"><ele>812.30133</ele><time>2026-07-23T23:00:12.000Z</time></trkpt>
        <trkpt lat="29.578304" lon="103.390302"><ele>812.497</ele><time>2026-07-23T23:00:14.000Z</time></trkpt>
        <trkpt lat="29.57831" lon="103.39028"><ele>812.84106</ele><time>2026-07-23T23:00:16.000Z</time></trkpt>
        <trkpt lat="29.578314" lon="103.390262"><ele>812.0761</ele><time>2026-07-23T23:00:18.000Z</time></trkpt>
        <trkpt lat="29.578319" lon="103.390244"><ele>812.3992</ele><time>2026-07-23T23:00:20.000Z</time></trkpt>
        <trkpt lat="29.578326" lon="103.390236"><ele>812.1877</ele><time>2026-07-23T23:00:22.000Z</time></trkpt>
        <trkpt lat="29.578333" lon="103.390226"><ele>813.30194</ele><time>2026-07-23T23:00:24.000Z</time></trkpt>
        <trkpt lat="29.578342" lon="103.39021"><ele>812.19116</ele><time>2026-07-23T23:00:26.000Z</time></trkpt>
        <trkpt lat="29.578349" lon="103.390193"><ele>813.18036</ele><time>2026-07-23T23:00:28.000Z</time></trkpt>
        <trkpt lat="29.578355" lon="103.390176"><ele>813.8657</ele><time>2026-07-23T23:00:30.000Z</time></trkpt>
        <trkpt lat="29.57836" lon="103.390161"><ele>813.9414</ele><time>2026-07-23T23:00:32.000Z</time></trkpt>
        <trkpt lat="29.578366" lon="103.390143"><ele>814.8459</ele><time>2026-07-23T23:00:34.000Z</time></trkpt>
        <trkpt lat="29.578373" lon="103.390125"><ele>815.19714</ele><time>2026-07-23T23:00:36.000Z</time></trkpt>
        <trkpt lat="29.578381" lon="103.390106"><ele>814.2798</ele><time>2026-07-23T23:00:38.000Z</time></trkpt>
        <trkpt lat="29.578389" lon="103.390094"><ele>815.4425</ele><time>2026-07-23T23:00:40.000Z</time></trkpt>
        <trkpt lat="29.578392" lon="103.390083"><ele>815.24493</ele><time>2026-07-23T23:00:42.000Z</time></trkpt>
        <trkpt lat="29.578396" lon="103.39007"><ele>815.6658</ele><time>2026-07-23T23:00:44.000Z</time></trkpt>
        <trkpt lat="29.578401" lon="103.39005"><ele>815.36334</ele><time>2026-07-23T23:00:46.000Z</time></trkpt>
        <trkpt lat="29.578406" lon="103.390032"><ele>815.74835</ele><time>2026-07-23T23:00:48.000Z</time></trkpt>
        <trkpt lat="29.578411" lon="103.390017"><ele>815.45306</ele><time>2026-07-23T23:00:50.000Z</time></trkpt>
        <trkpt lat="29.578417" lon="103.389995"><ele>815.6484</ele><time>2026-07-23T23:00:52.000Z</time></trkpt>
        <trkpt lat="29.578423" lon="103.389979"><ele>815.9907</ele><time>2026-07-23T23:00:54.000Z</time></trkpt>
        <trkpt lat="29.578425" lon="103.389968"><ele>815.8871</ele><time>2026-07-23T23:00:56.000Z</time></trkpt>
        <trkpt lat="29.578427" lon="103.389952"><ele>815.5743</ele><time>2026-07-23T23:00:58.000Z</time></trkpt>
        <trkpt lat="29.578431" lon="103.389934"><ele>815.4105</ele><time>2026-07-23T23:01:00.000Z</time></trkpt>
        <trkpt lat="29.578435" lon="103.389919"><ele>814.9446</ele><time>2026-07-23T23:01:02.000Z</time></trkpt>
        <trkpt lat="29.578438" lon="103.389906"><ele>815.4085</ele><time>2026-07-23T23:01:04.000Z</time></trkpt>
        <trkpt lat="29.578442" lon="103.389894"><ele>815.7859</ele><time>2026-07-23T23:01:06.000Z</time></trkpt>
        <trkpt lat="29.578447" lon="103.38988"><ele>815.80817</ele><time>2026-07-23T23:01:08.000Z</time></trkpt>
        <trkpt lat="29.578453" lon="103.389861"><ele>816.7229</ele><time>2026-07-23T23:01:10.000Z</time></trkpt>
        <trkpt lat="29.57846" lon="103.389845"><ele>816.62256</ele><time>2026-07-23T23:01:12.000Z</time></trkpt>
        <trkpt lat="29.578462" lon="103.389836"><ele>816.1325</ele><time>2026-07-23T23:01:14.000Z</time></trkpt>
        <trkpt lat="29.578464" lon="103.38982"><ele>817.0253</ele><time>2026-07-23T23:01:16.000Z</time></trkpt>
        <trkpt lat="29.578469" lon="103.389803"><ele>817.23315</ele><time>2026-07-23T23:01:18.000Z</time></trkpt>
        <trkpt lat="29.578477" lon="103.389788"><ele>816.3068</ele><time>2026-07-23T23:01:20.000Z</time></trkpt>
        <trkpt lat="29.578485" lon="103.389776"><ele>816.17194</ele><time>2026-07-23T23:01:22.000Z</time></trkpt>
        <trkpt lat="29.578495" lon="103.389764"><ele>816.89636</ele><time>2026-07-23T23:01:24.000Z</time></trkpt>
        <trkpt lat="29.578501" lon="103.389751"><ele>816.57996</ele><time>2026-07-23T23:01:26.000Z</time></trkpt>
        <trkpt lat="29.578502" lon="103.389737"><ele>817.0272</ele><time>2026-07-23T23:01:28.000Z</time></trkpt>
        <trkpt lat="29.578502" lon="103.389715"><ele>817.9987</ele><time>2026-07-23T23:01:30.000Z</time></trkpt>
        <trkpt lat="29.578503" lon="103.389694"><ele>816.39624</ele><time>2026-07-23T23:01:32.000Z</time></trkpt>
        <trkpt lat="29.578502" lon="103.389669"><ele>816.929</ele><time>2026-07-23T23:01:34.000Z</time></trkpt>
        <trkpt lat="29.578502" lon="103.389646"><ele>818.8797</ele><time>2026-07-23T23:01:36.000Z</time></trkpt>
        <trkpt lat="29.578503" lon="103.389625"><ele>819.59454</ele><time>2026-07-23T23:01:38.000Z</time></trkpt>
        <trkpt lat="29.578502" lon="103.389602"><ele>819.3528</ele><time>2026-07-23T23:01:40.000Z</time></trkpt>
        <trkpt lat="29.5785" lon="103.389582"><ele>819.0655</ele><time>2026-07-23T23:01:42.000Z</time></trkpt>
        <trkpt lat="29.578497" lon="103.389559"><ele>817.1548</ele><time>2026-07-23T23:01:44.000Z</time></trkpt>
        <trkpt lat="29.578493" lon="103.389532"><ele>816.6176</ele><time>2026-07-23T23:01:46.000Z</time></trkpt>
        <trkpt lat="29.57849" lon="103.389505"><ele>815.28766</ele><time>2026-07-23T23:01:48.000Z</time></trkpt>
        <trkpt lat="29.578485" lon="103.389478"><ele>814.7793</ele><time>2026-07-23T23:01:50.000Z</time></trkpt>
        <trkpt lat="29.57848" lon="103.389449"><ele>814.2287</ele><time>2026-07-23T23:01:52.000Z</time></trkpt>
        <trkpt lat="29.578477" lon="103.389423"><ele>815.03033</ele><time>2026-07-23T23:01:54.000Z</time></trkpt>
        <trkpt lat="29.578476" lon="103.389399"><ele>816.2774</ele><time>2026-07-23T23:01:56.000Z</time></trkpt>
        <trkpt lat="29.578472" lon="103.389376"><ele>817.7817</ele><time>2026-07-23T23:01:58.000Z</time></trkpt>
        <trkpt lat="29.578466" lon="103.389355"><ele>819.43536</ele><time>2026-07-23T23:02:00.000Z</time></trkpt>
        <trkpt lat="29.578458" lon="103.389335"><ele>820.2512</ele><time>2026-07-23T23:02:02.000Z</time></trkpt>
        <trkpt lat="29.578448" lon="103.389322"><ele>818.7069</ele><time>2026-07-23T23:02:04.000Z</time></trkpt>
        <trkpt lat="29.578434" lon="103.389306"><ele>818.8613</ele><time>2026-07-23T23:02:06.000Z</time></trkpt>
        <trkpt lat="29.57842" lon="103.389294"><ele>821.4664</ele><time>2026-07-23T23:02:08.000Z</time></trkpt>
        <trkpt lat="29.578406" lon="103.389284"><ele>821.056</ele><time>2026-07-23T23:02:10.000Z</time></trkpt>
        <trkpt lat="29.57839" lon="103.389271"><ele>821.6575</ele><time>2026-07-23T23:02:12.000Z</time></trkpt>
        <trkpt lat="29.578379" lon="103.389257"><ele>821.6943</ele><time>2026-07-23T23:02:14.000Z</time></trkpt>
        <trkpt lat="29.578366" lon="103.389239"><ele>821.3639</ele><time>2026-07-23T23:02:16.000Z</time></trkpt>
        <trkpt lat="29.578356" lon="103.389223"><ele>820.7834</ele><time>2026-07-23T23:02:18.000Z</time></trkpt>
        <trkpt lat="29.57835" lon="103.389207"><ele>819.7792</ele><time>2026-07-23T23:02:20.000Z</time></trkpt>
        <trkpt lat="29.578349" lon="103.389194"><ele>819.0796</ele><time>2026-07-23T23:02:22.000Z</time></trkpt>
        <trkpt lat="29.57835" lon="103.389185"><ele>817.5068</ele><time>2026-07-23T23:02:24.000Z</time></trkpt>
        <trkpt lat="29.578353" lon="103.389173"><ele>816.111</ele><time>2026-07-23T23:02:26.000Z</time></trkpt>
        <trkpt lat="29.578358" lon="103.38916"><ele>816.5585</ele><time>2026-07-23T23:02:28.000Z</time></trkpt>
        <trkpt lat="29.578361" lon="103.389149"><ele>816.3004</ele><time>2026-07-23T23:02:30.000Z</time></trkpt>
        <trkpt lat="29.578364" lon="103.389139"><ele>816.23584</ele><time>2026-07-23T23:02:32.000Z</time></trkpt>
        <trkpt lat="29.578368" lon="103.389127"><ele>815.88055</ele><time>2026-07-23T23:02:34.000Z</time></trkpt>
        <trkpt lat="29.578374" lon="103.389109"><ele>816.87933</ele><time>2026-07-23T23:02:38.000Z</time></trkpt>
        <trkpt lat="29.578377" lon="103.389096"><ele>816.08044</ele><time>2026-07-23T23:02:40.000Z</time></trkpt>
        <trkpt lat="29.57838" lon="103.389077"><ele>816.20654</ele><time>2026-07-23T23:02:42.000Z</time></trkpt>
        <trkpt lat="29.578384" lon="103.389055"><ele>817.058</ele><time>2026-07-23T23:02:44.000Z</time></trkpt>
        <trkpt lat="29.578388" lon="103.389032"><ele>816.226</ele><time>2026-07-23T23:02:46.000Z</time></trkpt>
        <trkpt lat="29.578395" lon="103.389009"><ele>816.7891</ele><time>2026-07-23T23:02:48.000Z</time></trkpt>
        <trkpt lat="29.578402" lon="103.388985"><ele>817.76</ele><time>2026-07-23T23:02:50.000Z</time></trkpt>
        <trkpt lat="29.578409" lon="103.388962"><ele>816.92096</ele><time>2026-07-23T23:02:52.000Z</time></trkpt>
        <trkpt lat="29.578417" lon="103.388939"><ele>815.68616</ele><time>2026-07-23T23:02:54.000Z</time></trkpt>
        <trkpt lat="29.578425" lon="103.38892"><ele>816.494</ele><time>2026-07-23T23:02:56.000Z</time></trkpt>
        <trkpt lat="29.578432" lon="103.3889"><ele>816.8825</ele><time>2026-07-23T23:02:58.000Z</time></trkpt>
        <trkpt lat="29.578439" lon="103.388883"><ele>816.1883</ele><time>2026-07-23T23:03:00.000Z</time></trkpt>
        <trkpt lat="29.578447" lon="103.388873"><ele>815.8453</ele><time>2026-07-23T23:03:02.000Z</time></trkpt>
        <trkpt lat="29.578456" lon="103.388865"><ele>815.3813</ele><time>2026-07-23T23:03:04.000Z</time></trkpt>
        <trkpt lat="29.578471" lon="103.388856"><ele>814.2099</ele><time>2026-07-23T23:03:06.000Z</time></trkpt>
        <trkpt lat="29.578485" lon="103.38885"><ele>815.0823</ele><time>2026-07-23T23:03:08.000Z</time></trkpt>
        <trkpt lat="29.5785" lon="103.388845"><ele>814.077</ele><time>2026-07-23T23:03:10.000Z</time></trkpt>
        <trkpt lat="29.578514" lon="103.388843"><ele>814.1804</ele><time>2026-07-23T23:03:12.000Z</time></trkpt>
        <trkpt lat="29.57853" lon="103.388842"><ele>813.88495</ele><time>2026-07-23T23:03:14.000Z</time></trkpt>
        <trkpt lat="29.578546" lon="103.388843"><ele>813.762</ele><time>2026-07-23T23:03:16.000Z</time></trkpt>
        <trkpt lat="29.578564" lon="103.388845"><ele>813.6044</ele><time>2026-07-23T23:03:18.000Z</time></trkpt>
        <trkpt lat="29.578583" lon="103.388848"><ele>814.3576</ele><time>2026-07-23T23:03:20.000Z</time></trkpt>
        <trkpt lat="29.578602" lon="103.388852"><ele>812.251</ele><time>2026-07-23T23:03:22.000Z</time></trkpt>
        <trkpt lat="29.578622" lon="103.388857"><ele>813.0937</ele><time>2026-07-23T23:03:24.000Z</time></trkpt>
        <trkpt lat="29.578639" lon="103.38886"><ele>812.22595</ele><time>2026-07-23T23:03:26.000Z</time></trkpt>
        <trkpt lat="29.578656" lon="103.388862"><ele>812.2068</ele><time>2026-07-23T23:03:28.000Z</time></trkpt>
        <trkpt lat="29.578672" lon="103.388865"><ele>813.4244</ele><time>2026-07-23T23:03:30.000Z</time></trkpt>
        <trkpt lat="29.578689" lon="103.388869"><ele>816.1462</ele><time>2026-07-23T23:03:32.000Z</time></trkpt>
        <trkpt lat="29.57871" lon="103.388873"><ele>815.259</ele><time>2026-07-23T23:03:34.000Z</time></trkpt>
        <trkpt lat="29.578725" lon="103.388873"><ele>814.9424</ele><time>2026-07-23T23:03:36.000Z</time></trkpt>
        <trkpt lat="29.578743" lon="103.388869"><ele>816.15576</ele><time>2026-07-23T23:03:38.000Z</time></trkpt>
        <trkpt lat="29.578761" lon="103.388861"><ele>816.7246</ele><time>2026-07-23T23:03:40.000Z</time></trkpt>
        <trkpt lat="29.578776" lon="103.388851"><ele>815.4469</ele><time>2026-07-23T23:03:42.000Z</time></trkpt>
        <trkpt lat="29.578788" lon="103.388839"><ele>815.3649</ele><time>2026-07-23T23:03:44.000Z</time></trkpt>
        <trkpt lat="29.578796" lon="103.388828"><ele>815.06</ele><time>2026-07-23T23:03:46.000Z</time></trkpt>
        <trkpt lat="29.578809" lon="103.38881"><ele>815.47076</ele><time>2026-07-23T23:03:48.000Z</time></trkpt>
        <trkpt lat="29.578824" lon="103.388791"><ele>815.96783</ele><time>2026-07-23T23:03:50.000Z</time></trkpt>
        <trkpt lat="29.578842" lon="103.388769"><ele>815.82056</ele><time>2026-07-23T23:03:52.000Z</time></trkpt>
        <trkpt lat="29.578857" lon="103.388752"><ele>817.2128</ele><time>2026-07-23T23:03:54.000Z</time></trkpt>
        <trkpt lat="29.578868" lon="103.388738"><ele>817.8865</ele><time>2026-07-23T23:03:56.000Z</time></trkpt>
        <trkpt lat="29.578878" lon="103.388727"><ele>819.1074</ele><time>2026-07-23T23:03:58.000Z</time></trkpt>
        <trkpt lat="29.578886" lon="103.388716"><ele>819.52466</ele><time>2026-07-23T23:04:00.000Z</time></trkpt>
        <trkpt lat="29.578894" lon="103.388707"><ele>819.9793</ele><time>2026-07-23T23:04:02.000Z</time></trkpt>
        <trkpt lat="29.578904" lon="103.388697"><ele>819.751</ele><time>2026-07-23T23:04:04.000Z</time></trkpt>
        <trkpt lat="29.578913" lon="103.388691"><ele>818.4556</ele><time>2026-07-23T23:04:06.000Z</time></trkpt>
        <trkpt lat="29.578924" lon="103.388682"><ele>817.80316</ele><time>2026-07-23T23:04:08.000Z</time></trkpt>
        <trkpt lat="29.578936" lon="103.388674"><ele>817.5069</ele><time>2026-07-23T23:04:10.000Z</time></trkpt>
        <trkpt lat="29.578943" lon="103.388672"><ele>817.0885</ele><time>2026-07-23T23:04:12.000Z</time></trkpt>
        <trkpt lat="29.57896" lon="103.388665"><ele>817.043</ele><time>2026-07-23T23:04:16.000Z</time></trkpt>
        <trkpt lat="29.578968" lon="103.38866"><ele>817.97107</ele><time>2026-07-23T23:04:18.000Z</time></trkpt>
        <trkpt lat="29.578979" lon="103.388652"><ele>818.8468</ele><time>2026-07-23T23:04:20.000Z</time></trkpt>
        <trkpt lat="29.578989" lon="103.388643"><ele>819.39545</ele><time>2026-07-23T23:04:22.000Z</time></trkpt>
        <trkpt lat="29.578996" lon="103.388632"><ele>819.5691</ele><time>2026-07-23T23:04:24.000Z</time></trkpt>
        <trkpt lat="29.579004" lon="103.388615"><ele>817.5921</ele><time>2026-07-23T23:04:26.000Z</time></trkpt>
        <trkpt lat="29.579012" lon="103.388596"><ele>819.6983</ele><time>2026-07-23T23:04:28.000Z</time></trkpt>
        <trkpt lat="29.579018" lon="103.388583"><ele>820.619</ele><time>2026-07-23T23:04:30.000Z</time></trkpt>
        <trkpt lat="29.579022" lon="103.388569"><ele>822.0365</ele><time>2026-07-23T23:04:32.000Z</time></trkpt>
        <trkpt lat="29.579023" lon="103.388551"><ele>821.7045</ele><time>2026-07-23T23:04:34.000Z</time></trkpt>
        <trkpt lat="29.579019" lon="103.388528"><ele>822.8953</ele><time>2026-07-23T23:04:36.000Z</time></trkpt>
        <trkpt lat="29.579014" lon="103.388501"><ele>824.6322</ele><time>2026-07-23T23:04:38.000Z</time></trkpt>
        <trkpt lat="29.579009" lon="103.388479"><ele>823.5001</ele><time>2026-07-23T23:04:40.000Z</time></trkpt>
        <trkpt lat="29.579004" lon="103.388456"><ele>823.74493</ele><time>2026-07-23T23:04:42.000Z</time></trkpt>
        <trkpt lat="29.578998" lon="103.388436"><ele>825.5642</ele><time>2026-07-23T23:04:44.000Z</time></trkpt>
        <trkpt lat="29.578992" lon="103.38841"><ele>826.1307</ele><time>2026-07-23T23:04:46.000Z</time></trkpt>
        <trkpt lat="29.578987" lon="103.388386"><ele>826.05</ele><time>2026-07-23T23:04:48.000Z</time></trkpt>
        <trkpt lat="29.578986" lon="103.388367"><ele>826.5974</ele><time>2026-07-23T23:04:50.000Z</time></trkpt>
        <trkpt lat="29.578987" lon="103.388356"><ele>826.7836</ele><time>2026-07-23T23:04:52.000Z</time></trkpt>
        <trkpt lat="29.578989" lon="103.388348"><ele>826.9573</ele><time>2026-07-23T23:04:54.000Z</time></trkpt>
        <trkpt lat="29.578993" lon="103.388325"><ele>827.2649</ele><time>2026-07-23T23:05:00.000Z</time></trkpt>
        <trkpt lat="29.578997" lon="103.388309"><ele>827.4833</ele><time>2026-07-23T23:05:02.000Z</time></trkpt>
        <trkpt lat="29.578997" lon="103.388308"><ele>829.02185</ele><time>2026-07-23T23:05:04.000Z</time></trkpt>
        <trkpt lat="29.579004" lon="103.388284"><ele>829.50275</ele><time>2026-07-23T23:05:10.000Z</time></trkpt>
        <trkpt lat="29.57901" lon="103.388267"><ele>830.5545</ele><time>2026-07-23T23:05:12.000Z</time></trkpt>
        <trkpt lat="29.579014" lon="103.388252"><ele>831.8345</ele><time>2026-07-23T23:05:14.000Z</time></trkpt>
        <trkpt lat="29.579015" lon="103.388235"><ele>832.6493</ele><time>2026-07-23T23:05:16.000Z</time></trkpt>
        <trkpt lat="29.579015" lon="103.388223"><ele>831.8854</ele><time>2026-07-23T23:05:18.000Z</time></trkpt>
        <trkpt lat="29.579013" lon="103.388217"><ele>831.65674</ele><time>2026-07-23T23:05:20.000Z</time></trkpt>
        <trkpt lat="29.579009" lon="103.388191"><ele>830.89795</ele><time>2026-07-23T23:05:26.000Z</time></trkpt>
        <trkpt lat="29.579007" lon="103.388174"><ele>831.10864</ele><time>2026-07-23T23:05:28.000Z</time></trkpt>
        <trkpt lat="29.579007" lon="103.388173"><ele>830.4896</ele><time>2026-07-23T23:05:30.000Z</time></trkpt>
        <trkpt lat="29.579006" lon="103.388144"><ele>830.51904</ele><time>2026-07-23T23:05:36.000Z</time></trkpt>
        <trkpt lat="29.579004" lon="103.388133"><ele>830.43304</ele><time>2026-07-23T23:05:38.000Z</time></trkpt>
        <trkpt lat="29.579003" lon="103.388122"><ele>829.8774</ele><time>2026-07-23T23:05:40.000Z</time></trkpt>
        <trkpt lat="29.579" lon="103.388101"><ele>828.78357</ele><time>2026-07-23T23:05:44.000Z</time></trkpt>
        <trkpt lat="29.578997" lon="103.388086"><ele>829.6607</ele><time>2026-07-23T23:05:46.000Z</time></trkpt>
        <trkpt lat="29.578993" lon="103.388069"><ele>828.9017</ele><time>2026-07-23T23:05:48.000Z</time></trkpt>
        <trkpt lat="29.57899" lon="103.38805"><ele>828.38214</ele><time>2026-07-23T23:05:50.000Z</time></trkpt>
        <trkpt lat="29.578989" lon="103.38803"><ele>828.5368</ele><time>2026-07-23T23:05:52.000Z</time></trkpt>
        <trkpt lat="29.578989" lon="103.388012"><ele>827.39136</ele><time>2026-07-23T23:05:54.000Z</time></trkpt>
      </trkseg>
      <trkseg>
        <trkpt lat="29.578982" lon="103.38803"><ele>833.94775</ele><time>2026-07-23T23:12:58.000Z</time></trkpt>
        <trkpt lat="29.578948" lon="103.388014"><ele>829.9625</ele><time>2026-07-23T23:13:47.000Z</time></trkpt>
        <trkpt lat="29.578947" lon="103.388009"><ele>829.05096</ele><time>2026-07-23T23:14:02.000Z</time></trkpt>
        <trkpt lat="29.578949" lon="103.388007"><ele>829.1872</ele><time>2026-07-23T23:14:06.000Z</time></trkpt>
        <trkpt lat="29.578963" lon="103.387983"><ele>830.29596</ele><time>2026-07-23T23:14:22.000Z</time></trkpt>
        <trkpt lat="29.578962" lon="103.387981"><ele>830.6529</ele><time>2026-07-23T23:14:26.000Z</time></trkpt>
        <trkpt lat="29.578964" lon="103.387974"><ele>830.1487</ele><time>2026-07-23T23:14:30.000Z</time></trkpt>
        <trkpt lat="29.578966" lon="103.387942"><ele>830.66797</ele><time>2026-07-23T23:14:39.000Z</time></trkpt>
        <trkpt lat="29.578967" lon="103.387916"><ele>832.3063</ele><time>2026-07-23T23:14:41.000Z</time></trkpt>
        <trkpt lat="29.578968" lon="103.387914"><ele>833.3278</ele><time>2026-07-23T23:14:43.000Z</time></trkpt>
        <trkpt lat="29.578971" lon="103.387903"><ele>834.3977</ele><time>2026-07-23T23:14:47.000Z</time></trkpt>
        <trkpt lat="29.578978" lon="103.387879"><ele>834.68207</ele><time>2026-07-23T23:14:51.000Z</time></trkpt>
        <trkpt lat="29.578978" lon="103.387879"><ele>832.4701</ele><time>2026-07-23T23:14:53.000Z</time></trkpt>
        <trkpt lat="29.578973" lon="103.387846"><ele>832.5424</ele><time>2026-07-23T23:14:57.000Z</time></trkpt>
        <trkpt lat="29.578967" lon="103.387809"><ele>832.9576</ele><time>2026-07-23T23:14:59.000Z</time></trkpt>
        <trkpt lat="29.578961" lon="103.387769"><ele>832.9342</ele><time>2026-07-23T23:15:01.000Z</time></trkpt>
        <trkpt lat="29.578958" lon="103.38773"><ele>833.0861</ele><time>2026-07-23T23:15:03.000Z</time></trkpt>
        <trkpt lat="29.578957" lon="103.387697"><ele>830.3919</ele><time>2026-07-23T23:15:05.000Z</time></trkpt>
        <trkpt lat="29.578956" lon="103.387674"><ele>830.74365</ele><time>2026-07-23T23:15:07.000Z</time></trkpt>
        <trkpt lat="29.578957" lon="103.387653"><ele>830.3523</ele><time>2026-07-23T23:15:09.000Z</time></trkpt>
        <trkpt lat="29.578955" lon="103.38763"><ele>830.8348</ele><time>2026-07-23T23:15:10.000Z</time></trkpt>
        <trkpt lat="29.578952" lon="103.387603"><ele>831.77704</ele><time>2026-07-23T23:15:12.000Z</time></trkpt>
        <trkpt lat="29.578947" lon="103.387576"><ele>832.56793</ele><time>2026-07-23T23:15:14.000Z</time></trkpt>
        <trkpt lat="29.578941" lon="103.387546"><ele>833.70795</ele><time>2026-07-23T23:15:16.000Z</time></trkpt>
        <trkpt lat="29.578938" lon="103.387514"><ele>834.4489</ele><time>2026-07-23T23:15:18.000Z</time></trkpt>
        <trkpt lat="29.578939" lon="103.387482"><ele>833.2578</ele><time>2026-07-23T23:15:20.000Z</time></trkpt>
        <trkpt lat="29.578944" lon="103.387458"><ele>833.35754</ele><time>2026-07-23T23:15:22.000Z</time></trkpt>
        <trkpt lat="29.578948" lon="103.387432"><ele>833.2407</ele><time>2026-07-23T23:15:25.000Z</time></trkpt>
        <trkpt lat="29.578949" lon="103.387412"><ele>833.65955</ele><time>2026-07-23T23:15:27.000Z</time></trkpt>
        <trkpt lat="29.578948" lon="103.38739"><ele>833.4994</ele><time>2026-07-23T23:15:29.000Z</time></trkpt>
        <trkpt lat="29.578944" lon="103.38736"><ele>833.2475</ele><time>2026-07-23T23:15:31.000Z</time></trkpt>
        <trkpt lat="29.578941" lon="103.387333"><ele>833.9519</ele><time>2026-07-23T23:15:33.000Z</time></trkpt>
        <trkpt lat="29.57894" lon="103.387307"><ele>834.80286</ele><time>2026-07-23T23:15:35.000Z</time></trkpt>
        <trkpt lat="29.578942" lon="103.387284"><ele>835.1133</ele><time>2026-07-23T23:15:37.000Z</time></trkpt>
        <trkpt lat="29.578946" lon="103.38726"><ele>835.09735</ele><time>2026-07-23T23:15:39.000Z</time></trkpt>
        <trkpt lat="29.578951" lon="103.38724"><ele>834.0248</ele><time>2026-07-23T23:15:41.000Z</time></trkpt>
        <trkpt lat="29.578959" lon="103.387225"><ele>834.45795</ele><time>2026-07-23T23:15:43.000Z</time></trkpt>
        <trkpt lat="29.578966" lon="103.387215"><ele>834.3077</ele><time>2026-07-23T23:15:45.000Z</time></trkpt>
        <trkpt lat="29.578977" lon="103.387201"><ele>833.5548</ele><time>2026-07-23T23:15:47.000Z</time></trkpt>
        <trkpt lat="29.578988" lon="103.387187"><ele>834.2164</ele><time>2026-07-23T23:15:49.000Z</time></trkpt>
        <trkpt lat="29.578999" lon="103.387174"><ele>834.55994</ele><time>2026-07-23T23:15:51.000Z</time></trkpt>
        <trkpt lat="29.579006" lon="103.387163"><ele>833.87524</ele><time>2026-07-23T23:15:53.000Z</time></trkpt>
        <trkpt lat="29.579013" lon="103.387151"><ele>833.2582</ele><time>2026-07-23T23:15:55.000Z</time></trkpt>
        <trkpt lat="29.579019" lon="103.387141"><ele>833.4991</ele><time>2026-07-23T23:15:57.000Z</time></trkpt>
        <trkpt lat="29.579024" lon="103.387132"><ele>833.74927</ele><time>2026-07-23T23:15:59.000Z</time></trkpt>
        <trkpt lat="29.579027" lon="103.387122"><ele>833.5589</ele><time>2026-07-23T23:16:01.000Z</time></trkpt>
        <trkpt lat="29.579029" lon="103.387103"><ele>836.7257</ele><time>2026-07-23T23:16:25.000Z</time></trkpt>
        <trkpt lat="29.579031" lon="103.38709"><ele>836.48267</ele><time>2026-07-23T23:16:27.000Z</time></trkpt>
        <trkpt lat="29.579031" lon="103.387089"><ele>837.224</ele><time>2026-07-23T23:16:31.000Z</time></trkpt>
        <trkpt lat="29.579054" lon="103.387071"><ele>838.4312</ele><time>2026-07-23T23:16:39.000Z</time></trkpt>
        <trkpt lat="29.579066" lon="103.387061"><ele>838.92316</ele><time>2026-07-23T23:16:41.000Z</time></trkpt>
        <trkpt lat="29.579066" lon="103.38706"><ele>838.3834</ele><time>2026-07-23T23:16:43.000Z</time></trkpt>
        <trkpt lat="29.579079" lon="103.387047"><ele>840.8123</ele><time>2026-07-23T23:16:49.000Z</time></trkpt>
        <trkpt lat="29.579101" lon="103.387025"><ele>842.4935</ele><time>2026-07-23T23:16:53.000Z</time></trkpt>
        <trkpt lat="29.579101" lon="103.387025"><ele>844.0629</ele><time>2026-07-23T23:16:55.000Z</time></trkpt>
        <trkpt lat="29.579102" lon="103.387023"><ele>844.9703</ele><time>2026-07-23T23:16:57.000Z</time></trkpt>
        <trkpt lat="29.579125" lon="103.38698"><ele>844.8735</ele><time>2026-07-23T23:17:03.000Z</time></trkpt>
        <trkpt lat="29.57913" lon="103.386964"><ele>845.70355</ele><time>2026-07-23T23:17:05.000Z</time></trkpt>
        <trkpt lat="29.579135" lon="103.386946"><ele>847.16864</ele><time>2026-07-23T23:17:07.000Z</time></trkpt>
        <trkpt lat="29.579139" lon="103.386937"><ele>848.10724</ele><time>2026-07-23T23:17:09.000Z</time></trkpt>
        <trkpt lat="29.579144" lon="103.386931"><ele>849.41956</ele><time>2026-07-23T23:17:11.000Z</time></trkpt>
        <trkpt lat="29.57916" lon="103.386914"><ele>850.3362</ele><time>2026-07-23T23:17:17.000Z</time></trkpt>
        <trkpt lat="29.579164" lon="103.38691"><ele>850.8482</ele><time>2026-07-23T23:17:19.000Z</time></trkpt>
        <trkpt lat="29.57917" lon="103.386906"><ele>851.78235</ele><time>2026-07-23T23:17:21.000Z</time></trkpt>
        <trkpt lat="29.579191" lon="103.386886"><ele>854.22955</ele><time>2026-07-23T23:17:29.000Z</time></trkpt>
        <trkpt lat="29.5792" lon="103.386877"><ele>854.0149</ele><time>2026-07-23T23:17:31.000Z</time></trkpt>
        <trkpt lat="29.579201" lon="103.386877"><ele>853.8096</ele><time>2026-07-23T23:17:33.000Z</time></trkpt>
        <trkpt lat="29.579213" lon="103.386856"><ele>854.5213</ele><time>2026-07-23T23:17:39.000Z</time></trkpt>
        <trkpt lat="29.579249" lon="103.386803"><ele>859.72675</ele><time>2026-07-23T23:17:54.000Z</time></trkpt>
        <trkpt lat="29.579286" lon="103.386753"><ele>858.04144</ele><time>2026-07-23T23:18:09.000Z</time></trkpt>
        <trkpt lat="29.579297" lon="103.386738"><ele>857.08606</ele><time>2026-07-23T23:18:12.000Z</time></trkpt>
        <trkpt lat="29.579297" lon="103.386738"><ele>857.4865</ele><time>2026-07-23T23:18:14.000Z</time></trkpt>
        <trkpt lat="29.579307" lon="103.386723"><ele>858.7442</ele><time>2026-07-23T23:18:20.000Z</time></trkpt>
        <trkpt lat="29.579321" lon="103.3867"><ele>859.97266</ele><time>2026-07-23T23:18:24.000Z</time></trkpt>
        <trkpt lat="29.579321" lon="103.3867"><ele>861.9672</ele><time>2026-07-23T23:18:26.000Z</time></trkpt>
        <trkpt lat="29.579324" lon="103.386693"><ele>862.5752</ele><time>2026-07-23T23:18:30.000Z</time></trkpt>
        <trkpt lat="29.579341" lon="103.386654"><ele>862.53986</ele><time>2026-07-23T23:18:34.000Z</time></trkpt>
        <trkpt lat="29.579341" lon="103.386654"><ele>861.3919</ele><time>2026-07-23T23:18:36.000Z</time></trkpt>
        <trkpt lat="29.579341" lon="103.386651"><ele>861.11615</ele><time>2026-07-23T23:18:38.000Z</time></trkpt>
        <trkpt lat="29.579351" lon="103.386609"><ele>863.5759</ele><time>2026-07-23T23:18:44.000Z</time></trkpt>
        <trkpt lat="29.579351" lon="103.386609"><ele>864.95557</ele><time>2026-07-23T23:18:46.000Z</time></trkpt>
        <trkpt lat="29.579352" lon="103.386606"><ele>866.06824</ele><time>2026-07-23T23:18:48.000Z</time></trkpt>
        <trkpt lat="29.579364" lon="103.386561"><ele>865.50916</ele><time>2026-07-23T23:18:54.000Z</time></trkpt>
        <trkpt lat="29.579364" lon="103.386561"><ele>864.94354</ele><time>2026-07-23T23:18:56.000Z</time></trkpt>
        <trkpt lat="29.579365" lon="103.386559"><ele>865.71936</ele><time>2026-07-23T23:18:58.000Z</time></trkpt>
        <trkpt lat="29.579379" lon="103.386518"><ele>865.0545</ele><time>2026-07-23T23:19:04.000Z</time></trkpt>
        <trkpt lat="29.579379" lon="103.386518"><ele>865.136</ele><time>2026-07-23T23:19:06.000Z</time></trkpt>
        <trkpt lat="29.579384" lon="103.386504"><ele>867.076</ele><time>2026-07-23T23:19:11.000Z</time></trkpt>
        <trkpt lat="29.579396" lon="103.386468"><ele>868.193</ele><time>2026-07-23T23:19:17.000Z</time></trkpt>
        <trkpt lat="29.579396" lon="103.386468"><ele>867.3938</ele><time>2026-07-23T23:19:19.000Z</time></trkpt>
        <trkpt lat="29.579396" lon="103.386466"><ele>868.3349</ele><time>2026-07-23T23:19:21.000Z</time></trkpt>
        <trkpt lat="29.579387" lon="103.386428"><ele>869.63983</ele><time>2026-07-23T23:19:27.000Z</time></trkpt>
        <trkpt lat="29.579387" lon="103.386428"><ele>869.0207</ele><time>2026-07-23T23:19:29.000Z</time></trkpt>
        <trkpt lat="29.579388" lon="103.386426"><ele>867.71436</ele><time>2026-07-23T23:19:31.000Z</time></trkpt>
        <trkpt lat="29.579406" lon="103.386401"><ele>867.8171</ele><time>2026-07-23T23:19:41.000Z</time></trkpt>
        <trkpt lat="29.579406" lon="103.386401"><ele>868.47394</ele><time>2026-07-23T23:19:43.000Z</time></trkpt>
        <trkpt lat="29.579408" lon="103.3864"><ele>869.03265</ele><time>2026-07-23T23:20:16.000Z</time></trkpt>
        <trkpt lat="29.579377" lon="103.386415"><ele>872.7288</ele><time>2026-07-23T23:21:25.000Z</time></trkpt>
        <trkpt lat="29.57937" lon="103.38638"><ele>872.101</ele><time>2026-07-23T23:23:03.000Z</time></trkpt>
        <trkpt lat="29.579367" lon="103.386375"><ele>872.101</ele><time>2026-07-23T23:23:05.000Z</time></trkpt>
        <trkpt lat="29.579368" lon="103.386369"><ele>873.2883</ele><time>2026-07-23T23:23:07.000Z</time></trkpt>
        <trkpt lat="29.579377" lon="103.386349"><ele>873.2931</ele><time>2026-07-23T23:23:42.000Z</time></trkpt>
        <trkpt lat="29.579382" lon="103.386337"><ele>872.2987</ele><time>2026-07-23T23:23:46.000Z</time></trkpt>
        <trkpt lat="29.579384" lon="103.386331"><ele>872.556</ele><time>2026-07-23T23:23:48.000Z</time></trkpt>
        <trkpt lat="29.579389" lon="103.386314"><ele>868.0639</ele><time>2026-07-23T23:23:52.000Z</time></trkpt>
        <trkpt lat="29.579396" lon="103.38629"><ele>868.6253</ele><time>2026-07-23T23:23:54.000Z</time></trkpt>
        <trkpt lat="29.579397" lon="103.386289"><ele>868.7595</ele><time>2026-07-23T23:23:56.000Z</time></trkpt>
        <trkpt lat="29.5794" lon="103.38628"><ele>869.12213</ele><time>2026-07-23T23:24:00.000Z</time></trkpt>
        <trkpt lat="29.57941" lon="103.386243"><ele>870.26843</ele><time>2026-07-23T23:24:04.000Z</time></trkpt>
        <trkpt lat="29.579415" lon="103.38622"><ele>870.79785</ele><time>2026-07-23T23:24:06.000Z</time></trkpt>
        <trkpt lat="29.579417" lon="103.386196"><ele>872.0082</ele><time>2026-07-23T23:24:08.000Z</time></trkpt>
        <trkpt lat="29.579418" lon="103.386179"><ele>872.517</ele><time>2026-07-23T23:24:10.000Z</time></trkpt>
        <trkpt lat="29.579419" lon="103.386168"><ele>873.5354</ele><time>2026-07-23T23:24:12.000Z</time></trkpt>
        <trkpt lat="29.579421" lon="103.386162"><ele>873.91095</ele><time>2026-07-23T23:24:14.000Z</time></trkpt>
        <trkpt lat="29.579422" lon="103.386139"><ele>875.34015</ele><time>2026-07-23T23:24:22.000Z</time></trkpt>
        <trkpt lat="29.579422" lon="103.38612"><ele>875.8886</ele><time>2026-07-23T23:24:24.000Z</time></trkpt>
        <trkpt lat="29.579422" lon="103.386119"><ele>875.63477</ele><time>2026-07-23T23:24:26.000Z</time></trkpt>
        <trkpt lat="29.579425" lon="103.386102"><ele>875.69403</ele><time>2026-07-23T23:24:32.000Z</time></trkpt>
        <trkpt lat="29.579425" lon="103.386084"><ele>876.37744</ele><time>2026-07-23T23:24:36.000Z</time></trkpt>
        <trkpt lat="29.579426" lon="103.38607"><ele>876.5271</ele><time>2026-07-23T23:24:38.000Z</time></trkpt>
        <trkpt lat="29.579426" lon="103.386066"><ele>876.5852</ele><time>2026-07-23T23:24:42.000Z</time></trkpt>
        <trkpt lat="29.579426" lon="103.38605"><ele>877.3803</ele><time>2026-07-23T23:24:44.000Z</time></trkpt>
        <trkpt lat="29.579428" lon="103.386026"><ele>877.47864</ele><time>2026-07-23T23:24:46.000Z</time></trkpt>
        <trkpt lat="29.579431" lon="103.385998"><ele>876.22754</ele><time>2026-07-23T23:24:48.000Z</time></trkpt>
        <trkpt lat="29.579435" lon="103.385974"><ele>876.7543</ele><time>2026-07-23T23:24:50.000Z</time></trkpt>
        <trkpt lat="29.579437" lon="103.385956"><ele>876.5167</ele><time>2026-07-23T23:24:52.000Z</time></trkpt>
        <trkpt lat="29.579438" lon="103.385937"><ele>876.44684</ele><time>2026-07-23T23:24:54.000Z</time></trkpt>
        <trkpt lat="29.579439" lon="103.385916"><ele>878.43933</ele><time>2026-07-23T23:24:56.000Z</time></trkpt>
      </trkseg>
      <trkseg>
        <trkpt lat="29.57938" lon="103.385972"><ele>878.957</ele><time>2026-07-23T23:58:45.000Z</time></trkpt>
        <trkpt lat="29.57941" lon="103.385955"><ele>875.6919</ele><time>2026-07-23T23:58:59.000Z</time></trkpt>
        <trkpt lat="29.579442" lon="103.385945"><ele>875.5887</ele><time>2026-07-23T23:59:01.000Z</time></trkpt>
        <trkpt lat="29.579444" lon="103.385944"><ele>875.8734</ele><time>2026-07-23T23:59:03.000Z</time></trkpt>
        <trkpt lat="29.579445" lon="103.385942"><ele>875.51074</ele><time>2026-07-23T23:59:05.000Z</time></trkpt>
        <trkpt lat="29.579457" lon="103.385915"><ele>875.0439</ele><time>2026-07-23T23:59:11.000Z</time></trkpt>
        <trkpt lat="29.579458" lon="103.38591"><ele>875.1858</ele><time>2026-07-23T23:59:13.000Z</time></trkpt>
        <trkpt lat="29.57946" lon="103.385907"><ele>876.04114</ele><time>2026-07-23T23:59:15.000Z</time></trkpt>
        <trkpt lat="29.579485" lon="103.385856"><ele>883.4959</ele><time>2026-07-23T23:59:46.000Z</time></trkpt>
        <trkpt lat="29.579528" lon="103.385786"><ele>884.2071</ele><time>2026-07-24T00:00:01.000Z</time></trkpt>
        <trkpt lat="29.579582" lon="103.385699"><ele>886.78534</ele><time>2026-07-24T00:00:16.000Z</time></trkpt>
        <trkpt lat="29.579595" lon="103.385676"><ele>888.52606</ele><time>2026-07-24T00:00:24.000Z</time></trkpt>
        <trkpt lat="29.579602" lon="103.385662"><ele>888.8134</ele><time>2026-07-24T00:00:26.000Z</time></trkpt>
        <trkpt lat="29.579608" lon="103.385647"><ele>889.4657</ele><time>2026-07-24T00:00:28.000Z</time></trkpt>
        <trkpt lat="29.579613" lon="103.385636"><ele>890.00977</ele><time>2026-07-24T00:00:30.000Z</time></trkpt>
        <trkpt lat="29.579617" lon="103.38563"><ele>890.6482</ele><time>2026-07-24T00:00:32.000Z</time></trkpt>
        <trkpt lat="29.579626" lon="103.385619"><ele>890.8824</ele><time>2026-07-24T00:00:36.000Z</time></trkpt>
        <trkpt lat="29.579636" lon="103.385608"><ele>890.9438</ele><time>2026-07-24T00:00:40.000Z</time></trkpt>
        <trkpt lat="29.579638" lon="103.385602"><ele>891.3253</ele><time>2026-07-24T00:00:42.000Z</time></trkpt>
        <trkpt lat="29.579643" lon="103.385584"><ele>890.2229</ele><time>2026-07-24T00:00:44.000Z</time></trkpt>
        <trkpt lat="29.579647" lon="103.38557"><ele>890.45593</ele><time>2026-07-24T00:00:50.000Z</time></trkpt>
        <trkpt lat="29.579652" lon="103.385561"><ele>890.8052</ele><time>2026-07-24T00:00:52.000Z</time></trkpt>
        <trkpt lat="29.579657" lon="103.385554"><ele>891.3322</ele><time>2026-07-24T00:00:54.000Z</time></trkpt>
        <trkpt lat="29.579675" lon="103.385536"><ele>893.3698</ele><time>2026-07-24T00:00:58.000Z</time></trkpt>
        <trkpt lat="29.579684" lon="103.385531"><ele>893.20966</ele><time>2026-07-24T00:01:00.000Z</time></trkpt>
        <trkpt lat="29.579692" lon="103.385527"><ele>893.45917</ele><time>2026-07-24T00:01:02.000Z</time></trkpt>
        <trkpt lat="29.579703" lon="103.385521"><ele>895.0891</ele><time>2026-07-24T00:01:06.000Z</time></trkpt>
        <trkpt lat="29.579719" lon="103.38551"><ele>896.91296</ele><time>2026-07-24T00:01:12.000Z</time></trkpt>
        <trkpt lat="29.579722" lon="103.385508"><ele>897.0538</ele><time>2026-07-24T00:01:14.000Z</time></trkpt>
        <trkpt lat="29.579729" lon="103.385508"><ele>896.8624</ele><time>2026-07-24T00:01:18.000Z</time></trkpt>
        <trkpt lat="29.57975" lon="103.385504"><ele>899.6577</ele><time>2026-07-24T00:01:26.000Z</time></trkpt>
        <trkpt lat="29.579751" lon="103.385501"><ele>900.1858</ele><time>2026-07-24T00:01:28.000Z</time></trkpt>
        <trkpt lat="29.579756" lon="103.385491"><ele>901.4454</ele><time>2026-07-24T00:01:32.000Z</time></trkpt>
        <trkpt lat="29.579767" lon="103.385476"><ele>902.1868</ele><time>2026-07-24T00:01:40.000Z</time></trkpt>
        <trkpt lat="29.579772" lon="103.385473"><ele>903.27386</ele><time>2026-07-24T00:01:42.000Z</time></trkpt>
        <trkpt lat="29.579778" lon="103.385466"><ele>902.4425</ele><time>2026-07-24T00:01:46.000Z</time></trkpt>
        <trkpt lat="29.579788" lon="103.38545"><ele>902.0715</ele><time>2026-07-24T00:02:06.000Z</time></trkpt>
        <trkpt lat="29.579826" lon="103.385399"><ele>903.91425</ele><time>2026-07-24T00:02:21.000Z</time></trkpt>
        <trkpt lat="29.579856" lon="103.385358"><ele>902.8231</ele><time>2026-07-24T00:02:27.000Z</time></trkpt>
        <trkpt lat="29.579856" lon="103.385358"><ele>902.8891</ele><time>2026-07-24T00:02:29.000Z</time></trkpt>
        <trkpt lat="29.579858" lon="103.385358"><ele>903.33405</ele><time>2026-07-24T00:02:31.000Z</time></trkpt>
        <trkpt lat="29.579887" lon="103.385349"><ele>904.9558</ele><time>2026-07-24T00:02:39.000Z</time></trkpt>
        <trkpt lat="29.579899" lon="103.385344"><ele>905.5931</ele><time>2026-07-24T00:02:41.000Z</time></trkpt>
        <trkpt lat="29.5799" lon="103.385344"><ele>905.55066</ele><time>2026-07-24T00:02:43.000Z</time></trkpt>
        <trkpt lat="29.579917" lon="103.385338"><ele>908.30554</ele><time>2026-07-24T00:02:49.000Z</time></trkpt>
        <trkpt lat="29.579938" lon="103.385331"><ele>909.20355</ele><time>2026-07-24T00:02:53.000Z</time></trkpt>
        <trkpt lat="29.579938" lon="103.385331"><ele>909.61676</ele><time>2026-07-24T00:02:55.000Z</time></trkpt>
        <trkpt lat="29.579981" lon="103.385295"><ele>911.99164</ele><time>2026-07-24T00:03:09.000Z</time></trkpt>
        <trkpt lat="29.579988" lon="103.385289"><ele>913.21826</ele><time>2026-07-24T00:03:11.000Z</time></trkpt>
        <trkpt lat="29.579989" lon="103.385288"><ele>913.95844</ele><time>2026-07-24T00:03:13.000Z</time></trkpt>
        <trkpt lat="29.58001" lon="103.385268"><ele>918.51953</ele><time>2026-07-24T00:03:21.000Z</time></trkpt>
        <trkpt lat="29.580014" lon="103.385266"><ele>919.0002</ele><time>2026-07-24T00:03:23.000Z</time></trkpt>
        <trkpt lat="29.580018" lon="103.385265"><ele>918.9021</ele><time>2026-07-24T00:03:25.000Z</time></trkpt>
        <trkpt lat="29.58004" lon="103.385258"><ele>917.73566</ele><time>2026-07-24T00:03:31.000Z</time></trkpt>
        <trkpt lat="29.580045" lon="103.385255"><ele>919.23444</ele><time>2026-07-24T00:03:33.000Z</time></trkpt>
        <trkpt lat="29.580051" lon="103.385251"><ele>918.723</ele><time>2026-07-24T00:03:35.000Z</time></trkpt>
        <trkpt lat="29.580067" lon="103.38524"><ele>917.17505</ele><time>2026-07-24T00:03:39.000Z</time></trkpt>
        <trkpt lat="29.580082" lon="103.385231"><ele>917.21216</ele><time>2026-07-24T00:03:41.000Z</time></trkpt>
        <trkpt lat="29.580082" lon="103.385229"><ele>916.3313</ele><time>2026-07-24T00:03:43.000Z</time></trkpt>
        <trkpt lat="29.580102" lon="103.385201"><ele>915.1472</ele><time>2026-07-24T00:03:47.000Z</time></trkpt>
        <trkpt lat="29.580119" lon="103.385174"><ele>914.88635</ele><time>2026-07-24T00:03:49.000Z</time></trkpt>
        <trkpt lat="29.580136" lon="103.385145"><ele>914.44257</ele><time>2026-07-24T00:03:51.000Z</time></trkpt>
        <trkpt lat="29.580151" lon="103.385118"><ele>915.23676</ele><time>2026-07-24T00:03:53.000Z</time></trkpt>
        <trkpt lat="29.580162" lon="103.385097"><ele>914.89954</ele><time>2026-07-24T00:03:55.000Z</time></trkpt>
        <trkpt lat="29.580171" lon="103.385078"><ele>915.0272</ele><time>2026-07-24T00:03:57.000Z</time></trkpt>
        <trkpt lat="29.58018" lon="103.385061"><ele>915.5524</ele><time>2026-07-24T00:03:59.000Z</time></trkpt>
        <trkpt lat="29.580188" lon="103.385046"><ele>916.2482</ele><time>2026-07-24T00:04:01.000Z</time></trkpt>
        <trkpt lat="29.580197" lon="103.385026"><ele>916.18097</ele><time>2026-07-24T00:04:03.000Z</time></trkpt>
        <trkpt lat="29.580206" lon="103.38501"><ele>916.25494</ele><time>2026-07-24T00:04:05.000Z</time></trkpt>
        <trkpt lat="29.580217" lon="103.384997"><ele>916.46405</ele><time>2026-07-24T00:04:07.000Z</time></trkpt>
        <trkpt lat="29.580226" lon="103.38499"><ele>916.86536</ele><time>2026-07-24T00:04:09.000Z</time></trkpt>
        <trkpt lat="29.580229" lon="103.384991"><ele>916.9271</ele><time>2026-07-24T00:04:11.000Z</time></trkpt>
        <trkpt lat="29.580247" lon="103.385003"><ele>917.3028</ele><time>2026-07-24T00:04:23.000Z</time></trkpt>
        <trkpt lat="29.580258" lon="103.384951"><ele>919.4858</ele><time>2026-07-24T00:04:52.000Z</time></trkpt>
        <trkpt lat="29.580256" lon="103.384954"><ele>916.5286</ele><time>2026-07-24T00:05:07.000Z</time></trkpt>
        <trkpt lat="29.580277" lon="103.384931"><ele>917.208</ele><time>2026-07-24T00:05:11.000Z</time></trkpt>
        <trkpt lat="29.580287" lon="103.384924"><ele>918.07166</ele><time>2026-07-24T00:05:17.000Z</time></trkpt>
        <trkpt lat="29.580302" lon="103.384912"><ele>918.1123</ele><time>2026-07-24T00:05:19.000Z</time></trkpt>
        <trkpt lat="29.580303" lon="103.384911"><ele>918.07404</ele><time>2026-07-24T00:05:21.000Z</time></trkpt>
        <trkpt lat="29.580312" lon="103.384904"><ele>917.9336</ele><time>2026-07-24T00:05:25.000Z</time></trkpt>
        <trkpt lat="29.580337" lon="103.384879"><ele>919.4438</ele><time>2026-07-24T00:05:29.000Z</time></trkpt>
        <trkpt lat="29.580346" lon="103.384863"><ele>919.50275</ele><time>2026-07-24T00:05:31.000Z</time></trkpt>
        <trkpt lat="29.580353" lon="103.384845"><ele>919.54346</ele><time>2026-07-24T00:05:33.000Z</time></trkpt>
        <trkpt lat="29.580358" lon="103.38483"><ele>920.411</ele><time>2026-07-24T00:05:35.000Z</time></trkpt>
        <trkpt lat="29.580363" lon="103.384814"><ele>920.9514</ele><time>2026-07-24T00:05:37.000Z</time></trkpt>
        <trkpt lat="29.580369" lon="103.3848"><ele>921.14465</ele><time>2026-07-24T00:05:39.000Z</time></trkpt>
        <trkpt lat="29.580377" lon="103.384788"><ele>921.8118</ele><time>2026-07-24T00:05:41.000Z</time></trkpt>
        <trkpt lat="29.580384" lon="103.38478"><ele>922.3514</ele><time>2026-07-24T00:05:43.000Z</time></trkpt>
        <trkpt lat="29.580393" lon="103.384772"><ele>922.7759</ele><time>2026-07-24T00:05:45.000Z</time></trkpt>
        <trkpt lat="29.580402" lon="103.384766"><ele>923.08606</ele><time>2026-07-24T00:05:47.000Z</time></trkpt>
        <trkpt lat="29.580413" lon="103.384758"><ele>922.7602</ele><time>2026-07-24T00:05:49.000Z</time></trkpt>
        <trkpt lat="29.580422" lon="103.38475"><ele>924.36035</ele><time>2026-07-24T00:05:51.000Z</time></trkpt>
        <trkpt lat="29.580431" lon="103.384741"><ele>924.45074</ele><time>2026-07-24T00:05:53.000Z</time></trkpt>
        <trkpt lat="29.580439" lon="103.384733"><ele>924.27277</ele><time>2026-07-24T00:05:55.000Z</time></trkpt>
        <trkpt lat="29.580444" lon="103.384726"><ele>924.36346</ele><time>2026-07-24T00:05:57.000Z</time></trkpt>
        <trkpt lat="29.580453" lon="103.384709"><ele>924.11646</ele><time>2026-07-24T00:06:01.000Z</time></trkpt>
        <trkpt lat="29.580454" lon="103.384702"><ele>925.23914</ele><time>2026-07-24T00:06:03.000Z</time></trkpt>
        <trkpt lat="29.580459" lon="103.384685"><ele>926.1013</ele><time>2026-07-24T00:06:05.000Z</time></trkpt>
        <trkpt lat="29.580482" lon="103.384651"><ele>925.74854</ele><time>2026-07-24T00:06:20.000Z</time></trkpt>
        <trkpt lat="29.580521" lon="103.38459"><ele>926.24</ele><time>2026-07-24T00:06:35.000Z</time></trkpt>
        <trkpt lat="29.580551" lon="103.384551"><ele>929.37036</ele><time>2026-07-24T00:06:50.000Z</time></trkpt>
        <trkpt lat="29.580582" lon="103.3845"><ele>930.86035</ele><time>2026-07-24T00:07:05.000Z</time></trkpt>
        <trkpt lat="29.580588" lon="103.384488"><ele>932.4701</ele><time>2026-07-24T00:07:07.000Z</time></trkpt>
        <trkpt lat="29.580589" lon="103.384487"><ele>933.35803</ele><time>2026-07-24T00:07:09.000Z</time></trkpt>
        <trkpt lat="29.580614" lon="103.384466"><ele>933.51654</ele><time>2026-07-24T00:07:15.000Z</time></trkpt>
        <trkpt lat="29.580627" lon="103.384456"><ele>933.1504</ele><time>2026-07-24T00:07:17.000Z</time></trkpt>
        <trkpt lat="29.580637" lon="103.384448"><ele>933.44354</ele><time>2026-07-24T00:07:19.000Z</time></trkpt>
        <trkpt lat="29.580644" lon="103.384442"><ele>932.5726</ele><time>2026-07-24T00:07:21.000Z</time></trkpt>
        <trkpt lat="29.580652" lon="103.384436"><ele>934.6285</ele><time>2026-07-24T00:07:23.000Z</time></trkpt>
        <trkpt lat="29.580659" lon="103.384426"><ele>935.71063</ele><time>2026-07-24T00:07:25.000Z</time></trkpt>
        <trkpt lat="29.580665" lon="103.384416"><ele>936.19885</ele><time>2026-07-24T00:07:27.000Z</time></trkpt>
        <trkpt lat="29.580668" lon="103.384403"><ele>937.2264</ele><time>2026-07-24T00:07:29.000Z</time></trkpt>
        <trkpt lat="29.580668" lon="103.384391"><ele>937.6809</ele><time>2026-07-24T00:07:31.000Z</time></trkpt>
        <trkpt lat="29.580672" lon="103.384389"><ele>937.99176</ele><time>2026-07-24T00:07:33.000Z</time></trkpt>
        <trkpt lat="29.580692" lon="103.38437"><ele>937.23456</ele><time>2026-07-24T00:07:57.000Z</time></trkpt>
        <trkpt lat="29.580709" lon="103.384353"><ele>937.2654</ele><time>2026-07-24T00:07:59.000Z</time></trkpt>
        <trkpt lat="29.58071" lon="103.384351"><ele>938.2153</ele><time>2026-07-24T00:08:01.000Z</time></trkpt>
        <trkpt lat="29.580721" lon="103.384341"><ele>938.8853</ele><time>2026-07-24T00:08:05.000Z</time></trkpt>
        <trkpt lat="29.580736" lon="103.38433"><ele>937.14923</ele><time>2026-07-24T00:08:07.000Z</time></trkpt>
        <trkpt lat="29.580753" lon="103.384317"><ele>936.8827</ele><time>2026-07-24T00:08:09.000Z</time></trkpt>
        <trkpt lat="29.58077" lon="103.384305"><ele>936.8463</ele><time>2026-07-24T00:08:11.000Z</time></trkpt>
        <trkpt lat="29.580786" lon="103.384289"><ele>937.8392</ele><time>2026-07-24T00:08:13.000Z</time></trkpt>
        <trkpt lat="29.580798" lon="103.384274"><ele>939.3128</ele><time>2026-07-24T00:08:15.000Z</time></trkpt>
        <trkpt lat="29.580807" lon="103.384259"><ele>939.94135</ele><time>2026-07-24T00:08:17.000Z</time></trkpt>
        <trkpt lat="29.580813" lon="103.384249"><ele>940.2674</ele><time>2026-07-24T00:08:19.000Z</time></trkpt>
        <trkpt lat="29.580819" lon="103.384246"><ele>940.4785</ele><time>2026-07-24T00:08:21.000Z</time></trkpt>
        <trkpt lat="29.580832" lon="103.384237"><ele>943.216</ele><time>2026-07-24T00:08:31.000Z</time></trkpt>
        <trkpt lat="29.580842" lon="103.384231"><ele>942.93207</ele><time>2026-07-24T00:08:35.000Z</time></trkpt>
        <trkpt lat="29.580855" lon="103.384227"><ele>943.4142</ele><time>2026-07-24T00:08:37.000Z</time></trkpt>
        <trkpt lat="29.580894" lon="103.384209"><ele>946.4327</ele><time>2026-07-24T00:08:58.000Z</time></trkpt>
        <trkpt lat="29.580919" lon="103.384197"><ele>945.69836</ele><time>2026-07-24T00:09:02.000Z</time></trkpt>
        <trkpt lat="29.580919" lon="103.384197"><ele>946.188</ele><time>2026-07-24T00:09:04.000Z</time></trkpt>
        <trkpt lat="29.580928" lon="103.384197"><ele>945.96735</ele><time>2026-07-24T00:09:08.000Z</time></trkpt>
        <trkpt lat="29.580949" lon="103.384191"><ele>948.1374</ele><time>2026-07-24T00:09:14.000Z</time></trkpt>
        <trkpt lat="29.580956" lon="103.384192"><ele>946.9817</ele><time>2026-07-24T00:09:16.000Z</time></trkpt>
        <trkpt lat="29.58097" lon="103.384196"><ele>946.45306</ele><time>2026-07-24T00:09:18.000Z</time></trkpt>
        <trkpt lat="29.580982" lon="103.384198"><ele>949.2956</ele><time>2026-07-24T00:09:30.000Z</time></trkpt>
        <trkpt lat="29.580989" lon="103.384199"><ele>949.59674</ele><time>2026-07-24T00:09:32.000Z</time></trkpt>
        <trkpt lat="29.581045" lon="103.384209"><ele>953.4543</ele><time>2026-07-24T00:09:44.000Z</time></trkpt>
        <trkpt lat="29.581045" lon="103.384209"><ele>953.22205</ele><time>2026-07-24T00:09:46.000Z</time></trkpt>
        <trkpt lat="29.581047" lon="103.384209"><ele>953.3093</ele><time>2026-07-24T00:09:48.000Z</time></trkpt>
        <trkpt lat="29.581078" lon="103.384216"><ele>956.6095</ele><time>2026-07-24T00:09:56.000Z</time></trkpt>
        <trkpt lat="29.58108" lon="103.384217"><ele>956.9133</ele><time>2026-07-24T00:09:58.000Z</time></trkpt>
        <trkpt lat="29.581083" lon="103.384218"><ele>956.91724</ele><time>2026-07-24T00:10:00.000Z</time></trkpt>
        <trkpt lat="29.581108" lon="103.38423"><ele>960.9264</ele><time>2026-07-24T00:10:10.000Z</time></trkpt>
        <trkpt lat="29.581128" lon="103.38424"><ele>962.10803</ele><time>2026-07-24T00:10:12.000Z</time></trkpt>
        <trkpt lat="29.581129" lon="103.38424"><ele>961.885</ele><time>2026-07-24T00:10:14.000Z</time></trkpt>
        <trkpt lat="29.581137" lon="103.384245"><ele>961.8557</ele><time>2026-07-24T00:10:18.000Z</time></trkpt>
        <trkpt lat="29.581153" lon="103.38426"><ele>965.5861</ele><time>2026-07-24T00:10:24.000Z</time></trkpt>
        <trkpt lat="29.58116" lon="103.384266"><ele>966.0211</ele><time>2026-07-24T00:10:28.000Z</time></trkpt>
        <trkpt lat="29.581166" lon="103.38427"><ele>967.81537</ele><time>2026-07-24T00:10:30.000Z</time></trkpt>
        <trkpt lat="29.581174" lon="103.384284"><ele>968.6116</ele><time>2026-07-24T00:10:34.000Z</time></trkpt>
        <trkpt lat="29.581187" lon="103.384295"><ele>968.5386</ele><time>2026-07-24T00:10:40.000Z</time></trkpt>
        <trkpt lat="29.581198" lon="103.384303"><ele>968.0559</ele><time>2026-07-24T00:10:42.000Z</time></trkpt>
        <trkpt lat="29.581199" lon="103.384303"><ele>968.4833</ele><time>2026-07-24T00:10:44.000Z</time></trkpt>
        <trkpt lat="29.581227" lon="103.384306"><ele>972.48047</ele><time>2026-07-24T00:11:00.000Z</time></trkpt>
        <trkpt lat="29.581247" lon="103.384308"><ele>972.7188</ele><time>2026-07-24T00:11:02.000Z</time></trkpt>
        <trkpt lat="29.581249" lon="103.384308"><ele>972.5948</ele><time>2026-07-24T00:11:04.000Z</time></trkpt>
        <trkpt lat="29.581259" lon="103.384313"><ele>971.8741</ele><time>2026-07-24T00:11:08.000Z</time></trkpt>
        <trkpt lat="29.581288" lon="103.384326"><ele>972.73285</ele><time>2026-07-24T00:11:12.000Z</time></trkpt>
        <trkpt lat="29.581288" lon="103.384326"><ele>973.2764</ele><time>2026-07-24T00:11:14.000Z</time></trkpt>
        <trkpt lat="29.581288" lon="103.384325"><ele>975.62573</ele><time>2026-07-24T00:11:16.000Z</time></trkpt>
        <trkpt lat="29.581319" lon="103.384304"><ele>974.14233</ele><time>2026-07-24T00:11:26.000Z</time></trkpt>
        <trkpt lat="29.581323" lon="103.384303"><ele>973.8093</ele><time>2026-07-24T00:11:28.000Z</time></trkpt>
        <trkpt lat="29.581323" lon="103.384303"><ele>974.05676</ele><time>2026-07-24T00:11:30.000Z</time></trkpt>
        <trkpt lat="29.581329" lon="103.384347"><ele>975.3947</ele><time>2026-07-24T00:11:38.000Z</time></trkpt>
        <trkpt lat="29.581329" lon="103.384347"><ele>974.4617</ele><time>2026-07-24T00:11:40.000Z</time></trkpt>
        <trkpt lat="29.581331" lon="103.384346"><ele>974.51056</ele><time>2026-07-24T00:11:42.000Z</time></trkpt>
        <trkpt lat="29.581364" lon="103.384337"><ele>972.322</ele><time>2026-07-24T00:11:46.000Z</time></trkpt>
        <trkpt lat="29.58138" lon="103.384333"><ele>972.74664</ele><time>2026-07-24T00:11:48.000Z</time></trkpt>
        <trkpt lat="29.581405" lon="103.384327"><ele>972.8225</ele><time>2026-07-24T00:11:50.000Z</time></trkpt>
        <trkpt lat="29.581422" lon="103.384324"><ele>972.9365</ele><time>2026-07-24T00:11:52.000Z</time></trkpt>
        <trkpt lat="29.581441" lon="103.384324"><ele>973.13477</ele><time>2026-07-24T00:11:54.000Z</time></trkpt>
        <trkpt lat="29.581456" lon="103.384328"><ele>972.48285</ele><time>2026-07-24T00:11:56.000Z</time></trkpt>
        <trkpt lat="29.581457" lon="103.38433"><ele>972.84644</ele><time>2026-07-24T00:11:58.000Z</time></trkpt>
        <trkpt lat="29.58147" lon="103.384339"><ele>971.4454</ele><time>2026-07-24T00:12:06.000Z</time></trkpt>
        <trkpt lat="29.581487" lon="103.384346"><ele>969.37634</ele><time>2026-07-24T00:12:12.000Z</time></trkpt>
        <trkpt lat="29.581492" lon="103.384346"><ele>968.8726</ele><time>2026-07-24T00:12:14.000Z</time></trkpt>
        <trkpt lat="29.581502" lon="103.384349"><ele>969.0553</ele><time>2026-07-24T00:12:18.000Z</time></trkpt>
        <trkpt lat="29.58153" lon="103.384358"><ele>968.7885</ele><time>2026-07-24T00:12:22.000Z</time></trkpt>
        <trkpt lat="29.581533" lon="103.384358"><ele>966.7565</ele><time>2026-07-24T00:12:26.000Z</time></trkpt>
        <trkpt lat="29.581548" lon="103.384358"><ele>966.03033</ele><time>2026-07-24T00:12:28.000Z</time></trkpt>
        <trkpt lat="29.581569" lon="103.384355"><ele>965.192</ele><time>2026-07-24T00:12:30.000Z</time></trkpt>
        <trkpt lat="29.58159" lon="103.384352"><ele>965.45764</ele><time>2026-07-24T00:12:32.000Z</time></trkpt>
        <trkpt lat="29.581606" lon="103.384345"><ele>964.52484</ele><time>2026-07-24T00:12:34.000Z</time></trkpt>
        <trkpt lat="29.581618" lon="103.384337"><ele>964.0314</ele><time>2026-07-24T00:12:36.000Z</time></trkpt>
        <trkpt lat="29.581631" lon="103.384327"><ele>963.60834</ele><time>2026-07-24T00:12:38.000Z</time></trkpt>
        <trkpt lat="29.581642" lon="103.384316"><ele>964.46954</ele><time>2026-07-24T00:12:40.000Z</time></trkpt>
        <trkpt lat="29.581652" lon="103.384305"><ele>964.92377</ele><time>2026-07-24T00:12:42.000Z</time></trkpt>
        <trkpt lat="29.581662" lon="103.384293"><ele>964.85156</ele><time>2026-07-24T00:12:44.000Z</time></trkpt>
        <trkpt lat="29.581673" lon="103.384278"><ele>964.9186</ele><time>2026-07-24T00:12:46.000Z</time></trkpt>
        <trkpt lat="29.581682" lon="103.384264"><ele>964.98474</ele><time>2026-07-24T00:12:48.000Z</time></trkpt>
        <trkpt lat="29.581685" lon="103.384265"><ele>964.9145</ele><time>2026-07-24T00:12:50.000Z</time></trkpt>
        <trkpt lat="29.581649" lon="103.384255"><ele>965.8567</ele><time>2026-07-24T00:13:12.000Z</time></trkpt>
      </trkseg>
      <trkseg>
        <trkpt lat="29.581642" lon="103.384233"><ele>962.75946</ele><time>2026-07-24T00:22:37.000Z</time></trkpt>
        <trkpt lat="29.58159" lon="103.384238"><ele>967.8447</ele><time>2026-07-24T00:23:22.000Z</time></trkpt>
        <trkpt lat="29.58158" lon="103.38423"><ele>967.73505</ele><time>2026-07-24T00:23:32.000Z</time></trkpt>
        <trkpt lat="29.581577" lon="103.384225"><ele>968.05457</ele><time>2026-07-24T00:23:34.000Z</time></trkpt>
        <trkpt lat="29.581569" lon="103.384211"><ele>966.9806</ele><time>2026-07-24T00:23:38.000Z</time></trkpt>
        <trkpt lat="29.581563" lon="103.384202"><ele>966.99805</ele><time>2026-07-24T00:23:42.000Z</time></trkpt>
        <trkpt lat="29.581559" lon="103.384197"><ele>967.2733</ele><time>2026-07-24T00:23:46.000Z</time></trkpt>
        <trkpt lat="29.581548" lon="103.384183"><ele>969.911</ele><time>2026-07-24T00:23:54.000Z</time></trkpt>
        <trkpt lat="29.581539" lon="103.38417"><ele>970.4965</ele><time>2026-07-24T00:23:58.000Z</time></trkpt>
        <trkpt lat="29.581527" lon="103.384154"><ele>970.70294</ele><time>2026-07-24T00:24:00.000Z</time></trkpt>
        <trkpt lat="29.581527" lon="103.384153"><ele>971.44934</ele><time>2026-07-24T00:24:02.000Z</time></trkpt>
        <trkpt lat="29.581497" lon="103.384094"><ele>973.7635</ele><time>2026-07-24T00:24:17.000Z</time></trkpt>
        <trkpt lat="29.581458" lon="103.384018"><ele>978.06274</ele><time>2026-07-24T00:24:32.000Z</time></trkpt>
        <trkpt lat="29.581458" lon="103.384018"><ele>978.019</ele><time>2026-07-24T00:24:34.000Z</time></trkpt>
        <trkpt lat="29.581458" lon="103.384013"><ele>978.38495</ele><time>2026-07-24T00:24:36.000Z</time></trkpt>
        <trkpt lat="29.581452" lon="103.383972"><ele>977.5967</ele><time>2026-07-24T00:24:40.000Z</time></trkpt>
        <trkpt lat="29.58145" lon="103.383956"><ele>978.24554</ele><time>2026-07-24T00:24:42.000Z</time></trkpt>
        <trkpt lat="29.581448" lon="103.383946"><ele>978.7608</ele><time>2026-07-24T00:24:44.000Z</time></trkpt>
        <trkpt lat="29.581449" lon="103.383939"><ele>978.85486</ele><time>2026-07-24T00:24:46.000Z</time></trkpt>
        <trkpt lat="29.581449" lon="103.383918"><ele>977.0881</ele><time>2026-07-24T00:24:52.000Z</time></trkpt>
        <trkpt lat="29.581448" lon="103.383911"><ele>976.13446</ele><time>2026-07-24T00:24:54.000Z</time></trkpt>
        <trkpt lat="29.581444" lon="103.383905"><ele>976.4332</ele><time>2026-07-24T00:24:56.000Z</time></trkpt>
        <trkpt lat="29.581432" lon="103.383886"><ele>977.1002</ele><time>2026-07-24T00:25:02.000Z</time></trkpt>
        <trkpt lat="29.581429" lon="103.38388"><ele>977.99756</ele><time>2026-07-24T00:25:04.000Z</time></trkpt>
        <trkpt lat="29.581427" lon="103.383874"><ele>979.0478</ele><time>2026-07-24T00:25:06.000Z</time></trkpt>
        <trkpt lat="29.581417" lon="103.383844"><ele>978.0499</ele><time>2026-07-24T00:25:10.000Z</time></trkpt>
        <trkpt lat="29.581407" lon="103.383823"><ele>977.716</ele><time>2026-07-24T00:25:12.000Z</time></trkpt>
        <trkpt lat="29.581396" lon="103.383802"><ele>978.0196</ele><time>2026-07-24T00:25:14.000Z</time></trkpt>
        <trkpt lat="29.581385" lon="103.383789"><ele>978.89325</ele><time>2026-07-24T00:25:16.000Z</time></trkpt>
        <trkpt lat="29.581378" lon="103.383781"><ele>980.22626</ele><time>2026-07-24T00:25:18.000Z</time></trkpt>
        <trkpt lat="29.581379" lon="103.383779"><ele>980.28357</ele><time>2026-07-24T00:25:24.000Z</time></trkpt>
        <trkpt lat="29.581384" lon="103.383752"><ele>980.6528</ele><time>2026-07-24T00:25:32.000Z</time></trkpt>
        <trkpt lat="29.581423" lon="103.383763"><ele>985.13855</ele><time>2026-07-24T00:27:22.000Z</time></trkpt>
        <trkpt lat="29.581433" lon="103.383765"><ele>985.4092</ele><time>2026-07-24T00:27:24.000Z</time></trkpt>
        <trkpt lat="29.581434" lon="103.383764"><ele>985.7636</ele><time>2026-07-24T00:27:26.000Z</time></trkpt>
        <trkpt lat="29.581463" lon="103.383756"><ele>985.5391</ele><time>2026-07-24T00:27:28.000Z</time></trkpt>
        <trkpt lat="29.581465" lon="103.383754"><ele>987.11237</ele><time>2026-07-24T00:27:30.000Z</time></trkpt>
        <trkpt lat="29.581469" lon="103.383752"><ele>986.56604</ele><time>2026-07-24T00:27:32.000Z</time></trkpt>
        <trkpt lat="29.581515" lon="103.383728"><ele>986.2501</ele><time>2026-07-24T00:27:36.000Z</time></trkpt>
        <trkpt lat="29.581542" lon="103.383712"><ele>986.0522</ele><time>2026-07-24T00:27:38.000Z</time></trkpt>
        <trkpt lat="29.581566" lon="103.383696"><ele>984.6185</ele><time>2026-07-24T00:27:40.000Z</time></trkpt>
        <trkpt lat="29.581587" lon="103.383678"><ele>983.67804</ele><time>2026-07-24T00:27:42.000Z</time></trkpt>
        <trkpt lat="29.5816" lon="103.383661"><ele>982.59906</ele><time>2026-07-24T00:27:44.000Z</time></trkpt>
        <trkpt lat="29.581616" lon="103.383643"><ele>982.8631</ele><time>2026-07-24T00:27:46.000Z</time></trkpt>
        <trkpt lat="29.581631" lon="103.383625"><ele>980.9793</ele><time>2026-07-24T00:27:48.000Z</time></trkpt>
        <trkpt lat="29.581646" lon="103.383607"><ele>981.11487</ele><time>2026-07-24T00:27:50.000Z</time></trkpt>
        <trkpt lat="29.581661" lon="103.383589"><ele>980.8242</ele><time>2026-07-24T00:27:52.000Z</time></trkpt>
        <trkpt lat="29.581675" lon="103.383569"><ele>981.28015</ele><time>2026-07-24T00:27:54.000Z</time></trkpt>
        <trkpt lat="29.581687" lon="103.383551"><ele>979.96155</ele><time>2026-07-24T00:27:56.000Z</time></trkpt>
        <trkpt lat="29.581698" lon="103.383532"><ele>981.1871</ele><time>2026-07-24T00:27:58.000Z</time></trkpt>
        <trkpt lat="29.581709" lon="103.383513"><ele>980.47205</ele><time>2026-07-24T00:28:00.000Z</time></trkpt>
        <trkpt lat="29.58172" lon="103.383494"><ele>980.0461</ele><time>2026-07-24T00:28:02.000Z</time></trkpt>
        <trkpt lat="29.581732" lon="103.383476"><ele>979.4842</ele><time>2026-07-24T00:28:04.000Z</time></trkpt>
        <trkpt lat="29.581743" lon="103.383459"><ele>978.803</ele><time>2026-07-24T00:28:06.000Z</time></trkpt>
        <trkpt lat="29.581754" lon="103.383442"><ele>978.68567</ele><time>2026-07-24T00:28:08.000Z</time></trkpt>
        <trkpt lat="29.581765" lon="103.383425"><ele>979.37305</ele><time>2026-07-24T00:28:10.000Z</time></trkpt>
        <trkpt lat="29.581777" lon="103.383404"><ele>980.24634</ele><time>2026-07-24T00:28:12.000Z</time></trkpt>
        <trkpt lat="29.58179" lon="103.383387"><ele>980.10785</ele><time>2026-07-24T00:28:14.000Z</time></trkpt>
        <trkpt lat="29.581803" lon="103.38337"><ele>980.3861</ele><time>2026-07-24T00:28:16.000Z</time></trkpt>
        <trkpt lat="29.581817" lon="103.383356"><ele>980.6814</ele><time>2026-07-24T00:28:18.000Z</time></trkpt>
        <trkpt lat="29.58183" lon="103.383343"><ele>981.2148</ele><time>2026-07-24T00:28:20.000Z</time></trkpt>
        <trkpt lat="29.581845" lon="103.383331"><ele>981.5549</ele><time>2026-07-24T00:28:22.000Z</time></trkpt>
        <trkpt lat="29.58186" lon="103.383316"><ele>982.0543</ele><time>2026-07-24T00:28:24.000Z</time></trkpt>
        <trkpt lat="29.581876" lon="103.383299"><ele>982.0158</ele><time>2026-07-24T00:28:26.000Z</time></trkpt>
        <trkpt lat="29.581892" lon="103.383278"><ele>981.1712</ele><time>2026-07-24T00:28:28.000Z</time></trkpt>
        <trkpt lat="29.581903" lon="103.383257"><ele>981.19196</ele><time>2026-07-24T00:28:30.000Z</time></trkpt>
        <trkpt lat="29.58191" lon="103.383237"><ele>981.2412</ele><time>2026-07-24T00:28:32.000Z</time></trkpt>
        <trkpt lat="29.581911" lon="103.383221"><ele>981.8316</ele><time>2026-07-24T00:28:34.000Z</time></trkpt>
        <trkpt lat="29.58191" lon="103.38321"><ele>982.412</ele><time>2026-07-24T00:28:36.000Z</time></trkpt>
        <trkpt lat="29.581908" lon="103.383201"><ele>983.1315</ele><time>2026-07-24T00:28:38.000Z</time></trkpt>
        <trkpt lat="29.581903" lon="103.383179"><ele>984.1464</ele><time>2026-07-24T00:28:41.000Z</time></trkpt>
        <trkpt lat="29.5819" lon="103.383165"><ele>983.6627</ele><time>2026-07-24T00:28:43.000Z</time></trkpt>
        <trkpt lat="29.581896" lon="103.38315"><ele>983.9713</ele><time>2026-07-24T00:28:45.000Z</time></trkpt>
        <trkpt lat="29.581893" lon="103.383138"><ele>984.762</ele><time>2026-07-24T00:28:47.000Z</time></trkpt>
        <trkpt lat="29.58189" lon="103.383128"><ele>984.60474</ele><time>2026-07-24T00:28:49.000Z</time></trkpt>
        <trkpt lat="29.581888" lon="103.383117"><ele>984.6417</ele><time>2026-07-24T00:28:51.000Z</time></trkpt>
        <trkpt lat="29.58188" lon="103.383097"><ele>985.6826</ele><time>2026-07-24T00:28:56.000Z</time></trkpt>
        <trkpt lat="29.581873" lon="103.383087"><ele>986.56323</ele><time>2026-07-24T00:28:58.000Z</time></trkpt>
        <trkpt lat="29.581865" lon="103.383074"><ele>987.24274</ele><time>2026-07-24T00:29:00.000Z</time></trkpt>
        <trkpt lat="29.581859" lon="103.38306"><ele>987.52075</ele><time>2026-07-24T00:29:02.000Z</time></trkpt>
        <trkpt lat="29.581853" lon="103.383044"><ele>988.53625</ele><time>2026-07-24T00:29:04.000Z</time></trkpt>
        <trkpt lat="29.581847" lon="103.383032"><ele>989.5512</ele><time>2026-07-24T00:29:06.000Z</time></trkpt>
        <trkpt lat="29.581844" lon="103.383021"><ele>990.41925</ele><time>2026-07-24T00:29:08.000Z</time></trkpt>
        <trkpt lat="29.581848" lon="103.383015"><ele>991.2632</ele><time>2026-07-24T00:29:12.000Z</time></trkpt>
        <trkpt lat="29.581857" lon="103.382988"><ele>991.5068</ele><time>2026-07-24T00:29:16.000Z</time></trkpt>
        <trkpt lat="29.581862" lon="103.382956"><ele>991.01685</ele><time>2026-07-24T00:29:23.000Z</time></trkpt>
        <trkpt lat="29.581862" lon="103.382935"><ele>991.6304</ele><time>2026-07-24T00:29:25.000Z</time></trkpt>
        <trkpt lat="29.581861" lon="103.382919"><ele>991.2921</ele><time>2026-07-24T00:29:27.000Z</time></trkpt>
        <trkpt lat="29.581859" lon="103.382906"><ele>991.7326</ele><time>2026-07-24T00:29:29.000Z</time></trkpt>
        <trkpt lat="29.58186" lon="103.382897"><ele>991.7484</ele><time>2026-07-24T00:29:31.000Z</time></trkpt>
        <trkpt lat="29.581862" lon="103.382884"><ele>991.05914</ele><time>2026-07-24T00:29:35.000Z</time></trkpt>
        <trkpt lat="29.581866" lon="103.38287"><ele>991.88104</ele><time>2026-07-24T00:29:41.000Z</time></trkpt>
        <trkpt lat="29.581869" lon="103.382855"><ele>991.65094</ele><time>2026-07-24T00:29:43.000Z</time></trkpt>
        <trkpt lat="29.581871" lon="103.382848"><ele>990.3866</ele><time>2026-07-24T00:29:47.000Z</time></trkpt>
        <trkpt lat="29.581874" lon="103.382824"><ele>991.1668</ele><time>2026-07-24T00:29:49.000Z</time></trkpt>
        <trkpt lat="29.58188" lon="103.382787"><ele>991.2827</ele><time>2026-07-24T00:29:51.000Z</time></trkpt>
        <trkpt lat="29.581886" lon="103.38275"><ele>991.39044</ele><time>2026-07-24T00:29:53.000Z</time></trkpt>
        <trkpt lat="29.581889" lon="103.382717"><ele>991.3072</ele><time>2026-07-24T00:29:55.000Z</time></trkpt>
        <trkpt lat="29.581891" lon="103.38269"><ele>990.42755</ele><time>2026-07-24T00:29:57.000Z</time></trkpt>
        <trkpt lat="29.581895" lon="103.382667"><ele>990.6304</ele><time>2026-07-24T00:29:59.000Z</time></trkpt>
        <trkpt lat="29.581892" lon="103.382653"><ele>991.2842</ele><time>2026-07-24T00:30:01.000Z</time></trkpt>
        <trkpt lat="29.581889" lon="103.382644"><ele>991.18567</ele><time>2026-07-24T00:30:03.000Z</time></trkpt>
        <trkpt lat="29.581906" lon="103.38271"><ele>991.79004</ele><time>2026-07-24T00:30:13.000Z</time></trkpt>
        <trkpt lat="29.581906" lon="103.38271"><ele>991.91254</ele><time>2026-07-24T00:30:15.000Z</time></trkpt>
        <trkpt lat="29.581906" lon="103.382705"><ele>993.02686</ele><time>2026-07-24T00:30:17.000Z</time></trkpt>
        <trkpt lat="29.581903" lon="103.382629"><ele>993.7899</ele><time>2026-07-24T00:30:20.000Z</time></trkpt>
        <trkpt lat="29.581903" lon="103.382629"><ele>993.8912</ele><time>2026-07-24T00:30:22.000Z</time></trkpt>
        <trkpt lat="29.581904" lon="103.382626"><ele>993.0398</ele><time>2026-07-24T00:30:24.000Z</time></trkpt>
        <trkpt lat="29.581925" lon="103.38258"><ele>992.16986</ele><time>2026-07-24T00:30:30.000Z</time></trkpt>
        <trkpt lat="29.58193" lon="103.382564"><ele>990.8645</ele><time>2026-07-24T00:30:32.000Z</time></trkpt>
        <trkpt lat="29.581937" lon="103.382545"><ele>990.76556</ele><time>2026-07-24T00:30:34.000Z</time></trkpt>
        <trkpt lat="29.581943" lon="103.382528"><ele>990.4502</ele><time>2026-07-24T00:30:36.000Z</time></trkpt>
        <trkpt lat="29.581951" lon="103.382509"><ele>990.44867</ele><time>2026-07-24T00:30:38.000Z</time></trkpt>
        <trkpt lat="29.581962" lon="103.382485"><ele>990.69684</ele><time>2026-07-24T00:30:40.000Z</time></trkpt>
        <trkpt lat="29.581973" lon="103.382463"><ele>990.55206</ele><time>2026-07-24T00:30:42.000Z</time></trkpt>
        <trkpt lat="29.58198" lon="103.382443"><ele>990.2886</ele><time>2026-07-24T00:30:44.000Z</time></trkpt>
        <trkpt lat="29.581986" lon="103.382425"><ele>989.6205</ele><time>2026-07-24T00:30:46.000Z</time></trkpt>
        <trkpt lat="29.581992" lon="103.382405"><ele>989.3858</ele><time>2026-07-24T00:30:48.000Z</time></trkpt>
        <trkpt lat="29.582" lon="103.382385"><ele>990.20544</ele><time>2026-07-24T00:30:50.000Z</time></trkpt>
        <trkpt lat="29.58201" lon="103.382363"><ele>991.11957</ele><time>2026-07-24T00:30:52.000Z</time></trkpt>
        <trkpt lat="29.58202" lon="103.382344"><ele>992.16675</ele><time>2026-07-24T00:30:54.000Z</time></trkpt>
        <trkpt lat="29.582029" lon="103.382323"><ele>993.15643</ele><time>2026-07-24T00:30:56.000Z</time></trkpt>
        <trkpt lat="29.58204" lon="103.382306"><ele>993.8119</ele><time>2026-07-24T00:30:58.000Z</time></trkpt>
        <trkpt lat="29.582052" lon="103.382286"><ele>994.20966</ele><time>2026-07-24T00:31:00.000Z</time></trkpt>
        <trkpt lat="29.58206" lon="103.382271"><ele>993.9481</ele><time>2026-07-24T00:31:02.000Z</time></trkpt>
        <trkpt lat="29.582067" lon="103.382255"><ele>994.3338</ele><time>2026-07-24T00:31:04.000Z</time></trkpt>
        <trkpt lat="29.582073" lon="103.382242"><ele>995.08966</ele><time>2026-07-24T00:31:06.000Z</time></trkpt>
        <trkpt lat="29.582078" lon="103.382228"><ele>994.70184</ele><time>2026-07-24T00:31:08.000Z</time></trkpt>
        <trkpt lat="29.582084" lon="103.382216"><ele>994.72473</ele><time>2026-07-24T00:31:10.000Z</time></trkpt>
        <trkpt lat="29.582091" lon="103.3822"><ele>994.5809</ele><time>2026-07-24T00:31:12.000Z</time></trkpt>
        <trkpt lat="29.582097" lon="103.382185"><ele>995.07965</ele><time>2026-07-24T00:31:14.000Z</time></trkpt>
        <trkpt lat="29.5821" lon="103.382168"><ele>994.95715</ele><time>2026-07-24T00:31:16.000Z</time></trkpt>
        <trkpt lat="29.582103" lon="103.382153"><ele>994.69415</ele><time>2026-07-24T00:31:18.000Z</time></trkpt>
        <trkpt lat="29.582106" lon="103.382141"><ele>994.8707</ele><time>2026-07-24T00:31:20.000Z</time></trkpt>
        <trkpt lat="29.582109" lon="103.382129"><ele>994.6486</ele><time>2026-07-24T00:31:22.000Z</time></trkpt>
        <trkpt lat="29.582111" lon="103.382116"><ele>995.5998</ele><time>2026-07-24T00:31:24.000Z</time></trkpt>
        <trkpt lat="29.582114" lon="103.382097"><ele>995.57465</ele><time>2026-07-24T00:31:26.000Z</time></trkpt>
        <trkpt lat="29.582116" lon="103.38208"><ele>995.72144</ele><time>2026-07-24T00:31:28.000Z</time></trkpt>
        <trkpt lat="29.582118" lon="103.382059"><ele>995.5763</ele><time>2026-07-24T00:31:30.000Z</time></trkpt>
        <trkpt lat="29.582122" lon="103.382038"><ele>995.8935</ele><time>2026-07-24T00:31:32.000Z</time></trkpt>
      </trkseg>
      <trkseg>
        <trkpt lat="29.582146" lon="103.382059"><ele>994.48285</ele><time>2026-07-24T00:33:55.000Z</time></trkpt>
        <trkpt lat="29.582146" lon="103.382018"><ele>992.12274</ele><time>2026-07-24T00:34:09.000Z</time></trkpt>
        <trkpt lat="29.58216" lon="103.381983"><ele>991.9606</ele><time>2026-07-24T00:34:11.000Z</time></trkpt>
        <trkpt lat="29.582161" lon="103.381981"><ele>992.2826</ele><time>2026-07-24T00:34:13.000Z</time></trkpt>
        <trkpt lat="29.582164" lon="103.381977"><ele>992.78253</ele><time>2026-07-24T00:34:15.000Z</time></trkpt>
        <trkpt lat="29.582195" lon="103.381946"><ele>994.28015</ele><time>2026-07-24T00:34:19.000Z</time></trkpt>
        <trkpt lat="29.582215" lon="103.38193"><ele>995.1799</ele><time>2026-07-24T00:34:21.000Z</time></trkpt>
        <trkpt lat="29.582235" lon="103.381915"><ele>996.10034</ele><time>2026-07-24T00:34:23.000Z</time></trkpt>
        <trkpt lat="29.582254" lon="103.381901"><ele>996.7836</ele><time>2026-07-24T00:34:25.000Z</time></trkpt>
        <trkpt lat="29.582276" lon="103.381883"><ele>998.2219</ele><time>2026-07-24T00:34:27.000Z</time></trkpt>
        <trkpt lat="29.582294" lon="103.381862"><ele>999.4867</ele><time>2026-07-24T00:34:29.000Z</time></trkpt>
        <trkpt lat="29.582309" lon="103.38184"><ele>999.5956</ele><time>2026-07-24T00:34:31.000Z</time></trkpt>
        <trkpt lat="29.582327" lon="103.381816"><ele>1000.1254</ele><time>2026-07-24T00:34:33.000Z</time></trkpt>
        <trkpt lat="29.582341" lon="103.381796"><ele>999.96826</ele><time>2026-07-24T00:34:35.000Z</time></trkpt>
        <trkpt lat="29.582355" lon="103.381778"><ele>999.9921</ele><time>2026-07-24T00:34:37.000Z</time></trkpt>
        <trkpt lat="29.582368" lon="103.381761"><ele>998.2952</ele><time>2026-07-24T00:34:39.000Z</time></trkpt>
        <trkpt lat="29.582375" lon="103.381746"><ele>998.45514</ele><time>2026-07-24T00:34:41.000Z</time></trkpt>
        <trkpt lat="29.582378" lon="103.381733"><ele>998.596</ele><time>2026-07-24T00:34:43.000Z</time></trkpt>
        <trkpt lat="29.582382" lon="103.381721"><ele>999.21857</ele><time>2026-07-24T00:34:45.000Z</time></trkpt>
        <trkpt lat="29.582385" lon="103.381714"><ele>999.3499</ele><time>2026-07-24T00:34:47.000Z</time></trkpt>
        <trkpt lat="29.58239" lon="103.381698"><ele>999.4903</ele><time>2026-07-24T00:34:51.000Z</time></trkpt>
        <trkpt lat="29.582396" lon="103.381693"><ele>999.49506</ele><time>2026-07-24T00:34:53.000Z</time></trkpt>
        <trkpt lat="29.582409" lon="103.381683"><ele>998.8615</ele><time>2026-07-24T00:34:55.000Z</time></trkpt>
        <trkpt lat="29.582426" lon="103.381668"><ele>998.3694</ele><time>2026-07-24T00:35:01.000Z</time></trkpt>
        <trkpt lat="29.582443" lon="103.381646"><ele>998.4094</ele><time>2026-07-24T00:35:03.000Z</time></trkpt>
        <trkpt lat="29.582462" lon="103.381619"><ele>999.30597</ele><time>2026-07-24T00:35:05.000Z</time></trkpt>
        <trkpt lat="29.582479" lon="103.381592"><ele>999.3633</ele><time>2026-07-24T00:35:07.000Z</time></trkpt>
        <trkpt lat="29.582493" lon="103.381565"><ele>999.3278</ele><time>2026-07-24T00:35:09.000Z</time></trkpt>
        <trkpt lat="29.582504" lon="103.38154"><ele>998.59863</ele><time>2026-07-24T00:35:11.000Z</time></trkpt>
        <trkpt lat="29.582512" lon="103.381515"><ele>998.4478</ele><time>2026-07-24T00:35:13.000Z</time></trkpt>
        <trkpt lat="29.582521" lon="103.381495"><ele>998.15826</ele><time>2026-07-24T00:35:15.000Z</time></trkpt>
        <trkpt lat="29.582529" lon="103.381476"><ele>997.24713</ele><time>2026-07-24T00:35:17.000Z</time></trkpt>
        <trkpt lat="29.582538" lon="103.381457"><ele>997.574</ele><time>2026-07-24T00:35:19.000Z</time></trkpt>
        <trkpt lat="29.582548" lon="103.381439"><ele>997.5198</ele><time>2026-07-24T00:35:21.000Z</time></trkpt>
        <trkpt lat="29.582559" lon="103.381416"><ele>997.6024</ele><time>2026-07-24T00:35:23.000Z</time></trkpt>
        <trkpt lat="29.582569" lon="103.381394"><ele>997.70306</ele><time>2026-07-24T00:35:25.000Z</time></trkpt>
        <trkpt lat="29.582579" lon="103.381371"><ele>997.3089</ele><time>2026-07-24T00:35:27.000Z</time></trkpt>
        <trkpt lat="29.582588" lon="103.381353"><ele>997.04926</ele><time>2026-07-24T00:35:29.000Z</time></trkpt>
        <trkpt lat="29.582598" lon="103.381335"><ele>997.28735</ele><time>2026-07-24T00:35:31.000Z</time></trkpt>
        <trkpt lat="29.582611" lon="103.381317"><ele>996.83984</ele><time>2026-07-24T00:35:33.000Z</time></trkpt>
        <trkpt lat="29.582625" lon="103.381297"><ele>996.4952</ele><time>2026-07-24T00:35:35.000Z</time></trkpt>
        <trkpt lat="29.58264" lon="103.381275"><ele>996.2236</ele><time>2026-07-24T00:35:37.000Z</time></trkpt>
        <trkpt lat="29.582657" lon="103.381254"><ele>996.45917</ele><time>2026-07-24T00:35:39.000Z</time></trkpt>
        <trkpt lat="29.582674" lon="103.381231"><ele>996.3801</ele><time>2026-07-24T00:35:41.000Z</time></trkpt>
        <trkpt lat="29.58269" lon="103.381209"><ele>996.92664</ele><time>2026-07-24T00:35:43.000Z</time></trkpt>
        <trkpt lat="29.582707" lon="103.381187"><ele>996.91754</ele><time>2026-07-24T00:35:45.000Z</time></trkpt>
        <trkpt lat="29.582724" lon="103.381169"><ele>997.0399</ele><time>2026-07-24T00:35:47.000Z</time></trkpt>
        <trkpt lat="29.582741" lon="103.381152"><ele>997.0326</ele><time>2026-07-24T00:35:49.000Z</time></trkpt>
        <trkpt lat="29.582756" lon="103.381134"><ele>997.17914</ele><time>2026-07-24T00:35:51.000Z</time></trkpt>
        <trkpt lat="29.582764" lon="103.381115"><ele>997.0238</ele><time>2026-07-24T00:35:53.000Z</time></trkpt>
        <trkpt lat="29.582766" lon="103.381093"><ele>997.0797</ele><time>2026-07-24T00:35:55.000Z</time></trkpt>
        <trkpt lat="29.582762" lon="103.381067"><ele>997.3409</ele><time>2026-07-24T00:35:57.000Z</time></trkpt>
        <trkpt lat="29.582754" lon="103.381036"><ele>997.377</ele><time>2026-07-24T00:35:59.000Z</time></trkpt>
        <trkpt lat="29.582745" lon="103.381005"><ele>996.9969</ele><time>2026-07-24T00:36:01.000Z</time></trkpt>
        <trkpt lat="29.582735" lon="103.380972"><ele>997.30896</ele><time>2026-07-24T00:36:03.000Z</time></trkpt>
        <trkpt lat="29.582727" lon="103.380942"><ele>997.20325</ele><time>2026-07-24T00:36:05.000Z</time></trkpt>
        <trkpt lat="29.58272" lon="103.380913"><ele>997.07574</ele><time>2026-07-24T00:36:07.000Z</time></trkpt>
        <trkpt lat="29.582715" lon="103.380886"><ele>997.53064</ele><time>2026-07-24T00:36:09.000Z</time></trkpt>
        <trkpt lat="29.582713" lon="103.380862"><ele>997.00055</ele><time>2026-07-24T00:36:11.000Z</time></trkpt>
        <trkpt lat="29.582715" lon="103.380836"><ele>997.346</ele><time>2026-07-24T00:36:13.000Z</time></trkpt>
        <trkpt lat="29.582723" lon="103.380813"><ele>997.2227</ele><time>2026-07-24T00:36:15.000Z</time></trkpt>
        <trkpt lat="29.582735" lon="103.380787"><ele>997.1126</ele><time>2026-07-24T00:36:17.000Z</time></trkpt>
        <trkpt lat="29.582746" lon="103.38076"><ele>997.04065</ele><time>2026-07-24T00:36:19.000Z</time></trkpt>
        <trkpt lat="29.582755" lon="103.380734"><ele>997.067</ele><time>2026-07-24T00:36:21.000Z</time></trkpt>
        <trkpt lat="29.582763" lon="103.380708"><ele>997.17596</ele><time>2026-07-24T00:36:23.000Z</time></trkpt>
        <trkpt lat="29.58277" lon="103.380684"><ele>997.2885</ele><time>2026-07-24T00:36:25.000Z</time></trkpt>
        <trkpt lat="29.582775" lon="103.380659"><ele>997.43567</ele><time>2026-07-24T00:36:27.000Z</time></trkpt>
        <trkpt lat="29.582783" lon="103.380636"><ele>997.41394</ele><time>2026-07-24T00:36:29.000Z</time></trkpt>
        <trkpt lat="29.58279" lon="103.380612"><ele>996.98676</ele><time>2026-07-24T00:36:31.000Z</time></trkpt>
        <trkpt lat="29.582797" lon="103.380588"><ele>996.2608</ele><time>2026-07-24T00:36:33.000Z</time></trkpt>
        <trkpt lat="29.582806" lon="103.380564"><ele>996.39935</ele><time>2026-07-24T00:36:35.000Z</time></trkpt>
        <trkpt lat="29.582815" lon="103.38054"><ele>996.46704</ele><time>2026-07-24T00:36:37.000Z</time></trkpt>
        <trkpt lat="29.582824" lon="103.380517"><ele>995.81793</ele><time>2026-07-24T00:36:39.000Z</time></trkpt>
        <trkpt lat="29.582833" lon="103.380494"><ele>996.24036</ele><time>2026-07-24T00:36:41.000Z</time></trkpt>
        <trkpt lat="29.582841" lon="103.380471"><ele>996.6376</ele><time>2026-07-24T00:36:43.000Z</time></trkpt>
        <trkpt lat="29.582851" lon="103.380447"><ele>996.8602</ele><time>2026-07-24T00:36:45.000Z</time></trkpt>
        <trkpt lat="29.582858" lon="103.380426"><ele>997.22</ele><time>2026-07-24T00:36:47.000Z</time></trkpt>
        <trkpt lat="29.582865" lon="103.380404"><ele>997.0131</ele><time>2026-07-24T00:36:49.000Z</time></trkpt>
        <trkpt lat="29.582873" lon="103.380381"><ele>997.0076</ele><time>2026-07-24T00:36:51.000Z</time></trkpt>
        <trkpt lat="29.582881" lon="103.380359"><ele>998.1406</ele><time>2026-07-24T00:36:53.000Z</time></trkpt>
        <trkpt lat="29.582889" lon="103.380338"><ele>997.2364</ele><time>2026-07-24T00:36:55.000Z</time></trkpt>
        <trkpt lat="29.582898" lon="103.380317"><ele>997.37164</ele><time>2026-07-24T00:36:57.000Z</time></trkpt>
        <trkpt lat="29.582906" lon="103.380294"><ele>997.73663</ele><time>2026-07-24T00:36:59.000Z</time></trkpt>
        <trkpt lat="29.582913" lon="103.380273"><ele>998.0393</ele><time>2026-07-24T00:37:01.000Z</time></trkpt>
        <trkpt lat="29.58292" lon="103.380253"><ele>998.68365</ele><time>2026-07-24T00:37:03.000Z</time></trkpt>
        <trkpt lat="29.582929" lon="103.380232"><ele>998.7542</ele><time>2026-07-24T00:37:05.000Z</time></trkpt>
        <trkpt lat="29.582936" lon="103.380211"><ele>999.76227</ele><time>2026-07-24T00:37:07.000Z</time></trkpt>
        <trkpt lat="29.582944" lon="103.380193"><ele>999.11</ele><time>2026-07-24T00:37:09.000Z</time></trkpt>
        <trkpt lat="29.582952" lon="103.380175"><ele>999.6706</ele><time>2026-07-24T00:37:11.000Z</time></trkpt>
        <trkpt lat="29.582963" lon="103.380154"><ele>998.39197</ele><time>2026-07-24T00:37:13.000Z</time></trkpt>
        <trkpt lat="29.582974" lon="103.380136"><ele>998.9433</ele><time>2026-07-24T00:37:15.000Z</time></trkpt>
        <trkpt lat="29.582985" lon="103.380119"><ele>998.7747</ele><time>2026-07-24T00:37:17.000Z</time></trkpt>
        <trkpt lat="29.582997" lon="103.380103"><ele>998.7315</ele><time>2026-07-24T00:37:19.000Z</time></trkpt>
        <trkpt lat="29.583009" lon="103.380087"><ele>998.6678</ele><time>2026-07-24T00:37:21.000Z</time></trkpt>
        <trkpt lat="29.583022" lon="103.38007"><ele>999.146</ele><time>2026-07-24T00:37:23.000Z</time></trkpt>
        <trkpt lat="29.583035" lon="103.380052"><ele>999.14044</ele><time>2026-07-24T00:37:25.000Z</time></trkpt>
        <trkpt lat="29.583048" lon="103.380035"><ele>998.869</ele><time>2026-07-24T00:37:27.000Z</time></trkpt>
        <trkpt lat="29.583058" lon="103.38002"><ele>999.3297</ele><time>2026-07-24T00:37:29.000Z</time></trkpt>
        <trkpt lat="29.583067" lon="103.380003"><ele>999.18805</ele><time>2026-07-24T00:37:31.000Z</time></trkpt>
        <trkpt lat="29.583072" lon="103.379988"><ele>1000.48157</ele><time>2026-07-24T00:37:33.000Z</time></trkpt>
        <trkpt lat="29.583076" lon="103.379972"><ele>1001.38416</ele><time>2026-07-24T00:37:35.000Z</time></trkpt>
        <trkpt lat="29.583075" lon="103.379958"><ele>1001.65753</ele><time>2026-07-24T00:37:37.000Z</time></trkpt>
        <trkpt lat="29.583069" lon="103.379944"><ele>1001.43933</ele><time>2026-07-24T00:37:39.000Z</time></trkpt>
        <trkpt lat="29.583058" lon="103.379928"><ele>1001.69257</ele><time>2026-07-24T00:37:41.000Z</time></trkpt>
        <trkpt lat="29.583046" lon="103.379911"><ele>1002.5427</ele><time>2026-07-24T00:37:43.000Z</time></trkpt>
        <trkpt lat="29.583036" lon="103.379895"><ele>1002.25757</ele><time>2026-07-24T00:37:45.000Z</time></trkpt>
        <trkpt lat="29.583027" lon="103.379878"><ele>1002.5595</ele><time>2026-07-24T00:37:47.000Z</time></trkpt>
        <trkpt lat="29.583018" lon="103.379857"><ele>1003.4331</ele><time>2026-07-24T00:37:49.000Z</time></trkpt>
        <trkpt lat="29.58301" lon="103.379832"><ele>1004.379</ele><time>2026-07-24T00:37:51.000Z</time></trkpt>
        <trkpt lat="29.583003" lon="103.379812"><ele>1005.2302</ele><time>2026-07-24T00:37:53.000Z</time></trkpt>
        <trkpt lat="29.582995" lon="103.379795"><ele>1006.48315</ele><time>2026-07-24T00:37:55.000Z</time></trkpt>
        <trkpt lat="29.582988" lon="103.379781"><ele>1006.59717</ele><time>2026-07-24T00:37:57.000Z</time></trkpt>
        <trkpt lat="29.582981" lon="103.379763"><ele>1007.079</ele><time>2026-07-24T00:37:59.000Z</time></trkpt>
        <trkpt lat="29.582974" lon="103.379746"><ele>1007.5201</ele><time>2026-07-24T00:38:01.000Z</time></trkpt>
        <trkpt lat="29.582969" lon="103.379733"><ele>1007.9901</ele><time>2026-07-24T00:38:03.000Z</time></trkpt>
        <trkpt lat="29.582962" lon="103.37972"><ele>1008.92725</ele><time>2026-07-24T00:38:05.000Z</time></trkpt>
        <trkpt lat="29.582955" lon="103.379709"><ele>1009.09784</ele><time>2026-07-24T00:38:07.000Z</time></trkpt>
        <trkpt lat="29.582946" lon="103.379696"><ele>1009.61163</ele><time>2026-07-24T00:38:09.000Z</time></trkpt>
        <trkpt lat="29.582935" lon="103.379682"><ele>1009.6075</ele><time>2026-07-24T00:38:11.000Z</time></trkpt>
        <trkpt lat="29.582928" lon="103.379673"><ele>1009.2038</ele><time>2026-07-24T00:38:13.000Z</time></trkpt>
        <trkpt lat="29.582922" lon="103.379665"><ele>1009.15686</ele><time>2026-07-24T00:38:15.000Z</time></trkpt>
        <trkpt lat="29.582916" lon="103.379655"><ele>1009.4504</ele><time>2026-07-24T00:38:17.000Z</time></trkpt>
        <trkpt lat="29.582907" lon="103.379642"><ele>1009.16064</ele><time>2026-07-24T00:38:19.000Z</time></trkpt>
        <trkpt lat="29.582903" lon="103.379632"><ele>1008.99585</ele><time>2026-07-24T00:38:21.000Z</time></trkpt>
        <trkpt lat="29.582903" lon="103.379626"><ele>1009.05426</ele><time>2026-07-24T00:38:23.000Z</time></trkpt>
        <trkpt lat="29.58291" lon="103.379604"><ele>1010.73584</ele><time>2026-07-24T00:38:31.000Z</time></trkpt>
        <trkpt lat="29.582912" lon="103.379599"><ele>1010.7279</ele><time>2026-07-24T00:38:33.000Z</time></trkpt>
        <trkpt lat="29.582913" lon="103.379593"><ele>1011.01416</ele><time>2026-07-24T00:38:35.000Z</time></trkpt>
        <trkpt lat="29.582922" lon="103.379565"><ele>1011.6201</ele><time>2026-07-24T00:38:43.000Z</time></trkpt>
        <trkpt lat="29.582924" lon="103.379563"><ele>1012.06757</ele><time>2026-07-24T00:38:45.000Z</time></trkpt>
        <trkpt lat="29.582936" lon="103.379552"><ele>1012.008</ele><time>2026-07-24T00:38:47.000Z</time></trkpt>
        <trkpt lat="29.582951" lon="103.37954"><ele>1012.13806</ele><time>2026-07-24T00:38:54.000Z</time></trkpt>
        <trkpt lat="29.582959" lon="103.379532"><ele>1012.29785</ele><time>2026-07-24T00:38:56.000Z</time></trkpt>
        <trkpt lat="29.582973" lon="103.379519"><ele>1012.4345</ele><time>2026-07-24T00:38:58.000Z</time></trkpt>
        <trkpt lat="29.582974" lon="103.379518"><ele>1012.76733</ele><time>2026-07-24T00:39:00.000Z</time></trkpt>
        <trkpt lat="29.582977" lon="103.379505"><ele>1014.4784</ele><time>2026-07-24T00:39:04.000Z</time></trkpt>
        <trkpt lat="29.582984" lon="103.379479"><ele>1016.0418</ele><time>2026-07-24T00:39:08.000Z</time></trkpt>
        <trkpt lat="29.582984" lon="103.379479"><ele>1016.4065</ele><time>2026-07-24T00:39:10.000Z</time></trkpt>
        <trkpt lat="29.582963" lon="103.379473"><ele>1016.9651</ele><time>2026-07-24T00:39:16.000Z</time></trkpt>
        <trkpt lat="29.582941" lon="103.379468"><ele>1017.9068</ele><time>2026-07-24T00:39:18.000Z</time></trkpt>
        <trkpt lat="29.58294" lon="103.379468"><ele>1017.7479</ele><time>2026-07-24T00:39:20.000Z</time></trkpt>
        <trkpt lat="29.582929" lon="103.379475"><ele>1016.9015</ele><time>2026-07-24T00:39:24.000Z</time></trkpt>
        <trkpt lat="29.582834" lon="103.379551"><ele>1018.5858</ele><time>2026-07-24T00:39:38.000Z</time></trkpt>
        <trkpt lat="29.582817" lon="103.379569"><ele>1018.5979</ele><time>2026-07-24T00:39:40.000Z</time></trkpt>
        <trkpt lat="29.582804" lon="103.379583"><ele>1018.72943</ele><time>2026-07-24T00:39:42.000Z</time></trkpt>
        <trkpt lat="29.582791" lon="103.379596"><ele>1018.94476</ele><time>2026-07-24T00:39:44.000Z</time></trkpt>
        <trkpt lat="29.58278" lon="103.379605"><ele>1018.9595</ele><time>2026-07-24T00:39:46.000Z</time></trkpt>
        <trkpt lat="29.582768" lon="103.379611"><ele>1018.8722</ele><time>2026-07-24T00:39:48.000Z</time></trkpt>
        <trkpt lat="29.582755" lon="103.379614"><ele>1018.4891</ele><time>2026-07-24T00:39:50.000Z</time></trkpt>
        <trkpt lat="29.582739" lon="103.379617"><ele>1019.05804</ele><time>2026-07-24T00:39:52.000Z</time></trkpt>
        <trkpt lat="29.582723" lon="103.37962"><ele>1019.23755</ele><time>2026-07-24T00:39:54.000Z</time></trkpt>
        <trkpt lat="29.582707" lon="103.379621"><ele>1019.95874</ele><time>2026-07-24T00:39:56.000Z</time></trkpt>
        <trkpt lat="29.58269" lon="103.379618"><ele>1020.40796</ele><time>2026-07-24T00:39:58.000Z</time></trkpt>
        <trkpt lat="29.582672" lon="103.379607"><ele>1020.36304</ele><time>2026-07-24T00:40:00.000Z</time></trkpt>
        <trkpt lat="29.582664" lon="103.379594"><ele>1019.32916</ele><time>2026-07-24T00:40:02.000Z</time></trkpt>
        <trkpt lat="29.58266" lon="103.379576"><ele>1019.4816</ele><time>2026-07-24T00:40:04.000Z</time></trkpt>
        <trkpt lat="29.58266" lon="103.379553"><ele>1019.5223</ele><time>2026-07-24T00:40:06.000Z</time></trkpt>
        <trkpt lat="29.582664" lon="103.379528"><ele>1019.39056</ele><time>2026-07-24T00:40:08.000Z</time></trkpt>
        <trkpt lat="29.582671" lon="103.379507"><ele>1018.5694</ele><time>2026-07-24T00:40:10.000Z</time></trkpt>
        <trkpt lat="29.582675" lon="103.37949"><ele>1018.87506</ele><time>2026-07-24T00:40:12.000Z</time></trkpt>
        <trkpt lat="29.582679" lon="103.379474"><ele>1018.6984</ele><time>2026-07-24T00:40:14.000Z</time></trkpt>
        <trkpt lat="29.58268" lon="103.379465"><ele>1018.88556</ele><time>2026-07-24T00:40:16.000Z</time></trkpt>
        <trkpt lat="29.582683" lon="103.379443"><ele>1017.09</ele><time>2026-07-24T00:40:20.000Z</time></trkpt>
        <trkpt lat="29.582683" lon="103.379426"><ele>1016.5188</ele><time>2026-07-24T00:40:22.000Z</time></trkpt>
        <trkpt lat="29.582683" lon="103.379404"><ele>1015.0007</ele><time>2026-07-24T00:40:24.000Z</time></trkpt>
        <trkpt lat="29.582686" lon="103.379381"><ele>1014.37335</ele><time>2026-07-24T00:40:26.000Z</time></trkpt>
        <trkpt lat="29.582692" lon="103.379364"><ele>1016.2823</ele><time>2026-07-24T00:40:28.000Z</time></trkpt>
        <trkpt lat="29.582699" lon="103.379349"><ele>1018.3201</ele><time>2026-07-24T00:40:30.000Z</time></trkpt>
        <trkpt lat="29.582706" lon="103.379338"><ele>1019.1158</ele><time>2026-07-24T00:40:32.000Z</time></trkpt>
        <trkpt lat="29.582717" lon="103.379331"><ele>1020.7875</ele><time>2026-07-24T00:40:34.000Z</time></trkpt>
        <trkpt lat="29.582675" lon="103.379369"><ele>1023.9649</ele><time>2026-07-24T00:40:50.000Z</time></trkpt>
      </trkseg>
      <trkseg>
        <trkpt lat="29.582686" lon="103.379346"><ele>1021.5933</ele><time>2026-07-24T00:48:54.000Z</time></trkpt>
        <trkpt lat="29.582706" lon="103.379301"><ele>1023.2408</ele><time>2026-07-24T00:49:07.000Z</time></trkpt>
        <trkpt lat="29.582728" lon="103.379294"><ele>1023.7649</ele><time>2026-07-24T00:49:09.000Z</time></trkpt>
        <trkpt lat="29.582745" lon="103.379291"><ele>1024.2369</ele><time>2026-07-24T00:49:11.000Z</time></trkpt>
        <trkpt lat="29.582757" lon="103.37929"><ele>1025.6854</ele><time>2026-07-24T00:49:13.000Z</time></trkpt>
        <trkpt lat="29.58277" lon="103.379291"><ele>1025.6173</ele><time>2026-07-24T00:49:15.000Z</time></trkpt>
        <trkpt lat="29.58278" lon="103.379291"><ele>1025.7875</ele><time>2026-07-24T00:49:17.000Z</time></trkpt>
        <trkpt lat="29.582791" lon="103.37929"><ele>1025.8138</ele><time>2026-07-24T00:49:19.000Z</time></trkpt>
        <trkpt lat="29.582801" lon="103.379291"><ele>1026.0383</ele><time>2026-07-24T00:49:21.000Z</time></trkpt>
        <trkpt lat="29.582811" lon="103.379289"><ele>1026.7073</ele><time>2026-07-24T00:49:23.000Z</time></trkpt>
        <trkpt lat="29.582828" lon="103.379285"><ele>1026.643</ele><time>2026-07-24T00:49:27.000Z</time></trkpt>
        <trkpt lat="29.582835" lon="103.379283"><ele>1026.0327</ele><time>2026-07-24T00:49:29.000Z</time></trkpt>
        <trkpt lat="29.582843" lon="103.379281"><ele>1025.7291</ele><time>2026-07-24T00:49:31.000Z</time></trkpt>
        <trkpt lat="29.582863" lon="103.379276"><ele>1026.2661</ele><time>2026-07-24T00:49:37.000Z</time></trkpt>
        <trkpt lat="29.582867" lon="103.379271"><ele>1025.9966</ele><time>2026-07-24T00:49:39.000Z</time></trkpt>
        <trkpt lat="29.582876" lon="103.379259"><ele>1026.9962</ele><time>2026-07-24T00:49:40.000Z</time></trkpt>
        <trkpt lat="29.582883" lon="103.379246"><ele>1027.9026</ele><time>2026-07-24T00:49:46.000Z</time></trkpt>
        <trkpt lat="29.58289" lon="103.379232"><ele>1026.9701</ele><time>2026-07-24T00:49:48.000Z</time></trkpt>
        <trkpt lat="29.582898" lon="103.379217"><ele>1027.1191</ele><time>2026-07-24T00:49:50.000Z</time></trkpt>
        <trkpt lat="29.582908" lon="103.379201"><ele>1026.3496</ele><time>2026-07-24T00:49:52.000Z</time></trkpt>
        <trkpt lat="29.582919" lon="103.379183"><ele>1027.0894</ele><time>2026-07-24T00:49:54.000Z</time></trkpt>
        <trkpt lat="29.58293" lon="103.379168"><ele>1026.9879</ele><time>2026-07-24T00:49:56.000Z</time></trkpt>
        <trkpt lat="29.582941" lon="103.379151"><ele>1027.2552</ele><time>2026-07-24T00:49:58.000Z</time></trkpt>
        <trkpt lat="29.582952" lon="103.379135"><ele>1027.0914</ele><time>2026-07-24T00:50:00.000Z</time></trkpt>
        <trkpt lat="29.582962" lon="103.379118"><ele>1027.3604</ele><time>2026-07-24T00:50:02.000Z</time></trkpt>
        <trkpt lat="29.582971" lon="103.379099"><ele>1027.2501</ele><time>2026-07-24T00:50:05.000Z</time></trkpt>
        <trkpt lat="29.582979" lon="103.379079"><ele>1026.9285</ele><time>2026-07-24T00:50:07.000Z</time></trkpt>
        <trkpt lat="29.582984" lon="103.379057"><ele>1026.3214</ele><time>2026-07-24T00:50:09.000Z</time></trkpt>
        <trkpt lat="29.582987" lon="103.379037"><ele>1026.0015</ele><time>2026-07-24T00:50:11.000Z</time></trkpt>
        <trkpt lat="29.582991" lon="103.379017"><ele>1026.3806</ele><time>2026-07-24T00:50:13.000Z</time></trkpt>
        <trkpt lat="29.582994" lon="103.378996"><ele>1027.0094</ele><time>2026-07-24T00:50:15.000Z</time></trkpt>
        <trkpt lat="29.582996" lon="103.378976"><ele>1026.8964</ele><time>2026-07-24T00:50:17.000Z</time></trkpt>
        <trkpt lat="29.582997" lon="103.378961"><ele>1027.2577</ele><time>2026-07-24T00:50:19.000Z</time></trkpt>
        <trkpt lat="29.582997" lon="103.378949"><ele>1026.5719</ele><time>2026-07-24T00:50:21.000Z</time></trkpt>
        <trkpt lat="29.582998" lon="103.37894"><ele>1027.2468</ele><time>2026-07-24T00:50:23.000Z</time></trkpt>
        <trkpt lat="29.582994" lon="103.378931"><ele>1026.6699</ele><time>2026-07-24T00:50:27.000Z</time></trkpt>
        <trkpt lat="29.582991" lon="103.378915"><ele>1025.8075</ele><time>2026-07-24T00:50:35.000Z</time></trkpt>
        <trkpt lat="29.582988" lon="103.378889"><ele>1029.2008</ele><time>2026-07-24T00:50:54.000Z</time></trkpt>
        <trkpt lat="29.582983" lon="103.378849"><ele>1029.7179</ele><time>2026-07-24T00:51:02.000Z</time></trkpt>
        <trkpt lat="29.582983" lon="103.378845"><ele>1029.7881</ele><time>2026-07-24T00:51:04.000Z</time></trkpt>
        <trkpt lat="29.582982" lon="103.378838"><ele>1030.346</ele><time>2026-07-24T00:51:06.000Z</time></trkpt>
        <trkpt lat="29.582978" lon="103.378812"><ele>1029.998</ele><time>2026-07-24T00:51:14.000Z</time></trkpt>
        <trkpt lat="29.582977" lon="103.378803"><ele>1030.9379</ele><time>2026-07-24T00:51:16.000Z</time></trkpt>
        <trkpt lat="29.582977" lon="103.378797"><ele>1031.4359</ele><time>2026-07-24T00:51:18.000Z</time></trkpt>
        <trkpt lat="29.582978" lon="103.378776"><ele>1032.1143</ele><time>2026-07-24T00:51:24.000Z</time></trkpt>
        <trkpt lat="29.582978" lon="103.378766"><ele>1033.1898</ele><time>2026-07-24T00:51:28.000Z</time></trkpt>
        <trkpt lat="29.582976" lon="103.378763"><ele>1034.0718</ele><time>2026-07-24T00:51:30.000Z</time></trkpt>
        <trkpt lat="29.582932" lon="103.378682"><ele>1035.9343</ele><time>2026-07-24T00:51:48.000Z</time></trkpt>
        <trkpt lat="29.5829" lon="103.378678"><ele>1037.2484</ele><time>2026-07-24T00:51:54.000Z</time></trkpt>
        <trkpt lat="29.5829" lon="103.378678"><ele>1036.7742</ele><time>2026-07-24T00:51:56.000Z</time></trkpt>
        <trkpt lat="29.5829" lon="103.378676"><ele>1035.703</ele><time>2026-07-24T00:51:58.000Z</time></trkpt>
        <trkpt lat="29.582897" lon="103.378643"><ele>1035.1823</ele><time>2026-07-24T00:52:06.000Z</time></trkpt>
        <trkpt lat="29.582894" lon="103.378639"><ele>1035.6915</ele><time>2026-07-24T00:52:08.000Z</time></trkpt>
        <trkpt lat="29.582881" lon="103.378628"><ele>1035.1989</ele><time>2026-07-24T00:52:10.000Z</time></trkpt>
        <trkpt lat="29.58287" lon="103.378622"><ele>1037.3492</ele><time>2026-07-24T00:52:20.000Z</time></trkpt>
        <trkpt lat="29.582863" lon="103.37862"><ele>1037.3856</ele><time>2026-07-24T00:52:22.000Z</time></trkpt>
        <trkpt lat="29.582846" lon="103.378611"><ele>1037.658</ele><time>2026-07-24T00:52:24.000Z</time></trkpt>
        <trkpt lat="29.5828" lon="103.378586"><ele>1039.4661</ele><time>2026-07-24T00:52:38.000Z</time></trkpt>
        <trkpt lat="29.582794" lon="103.378581"><ele>1039.9895</ele><time>2026-07-24T00:52:40.000Z</time></trkpt>
        <trkpt lat="29.582793" lon="103.37858"><ele>1040.0199</ele><time>2026-07-24T00:52:42.000Z</time></trkpt>
        <trkpt lat="29.582776" lon="103.37856"><ele>1039.104</ele><time>2026-07-24T00:52:54.000Z</time></trkpt>
        <trkpt lat="29.582771" lon="103.378554"><ele>1040.0106</ele><time>2026-07-24T00:52:56.000Z</time></trkpt>
        <trkpt lat="29.582758" lon="103.37854"><ele>1039.1902</ele><time>2026-07-24T00:52:58.000Z</time></trkpt>
        <trkpt lat="29.582751" lon="103.378534"><ele>1040.0265</ele><time>2026-07-24T00:53:04.000Z</time></trkpt>
        <trkpt lat="29.582732" lon="103.37852"><ele>1039.7848</ele><time>2026-07-24T00:53:06.000Z</time></trkpt>
        <trkpt lat="29.582731" lon="103.378519"><ele>1040.9727</ele><time>2026-07-24T00:53:08.000Z</time></trkpt>
        <trkpt lat="29.582726" lon="103.378511"><ele>1042.9006</ele><time>2026-07-24T00:53:12.000Z</time></trkpt>
        <trkpt lat="29.582705" lon="103.378481"><ele>1045.7828</ele><time>2026-07-24T00:53:18.000Z</time></trkpt>
        <trkpt lat="29.582705" lon="103.378481"><ele>1046.0535</ele><time>2026-07-24T00:53:20.000Z</time></trkpt>
        <trkpt lat="29.582703" lon="103.378479"><ele>1044.8427</ele><time>2026-07-24T00:53:22.000Z</time></trkpt>
        <trkpt lat="29.582678" lon="103.378459"><ele>1046.5157</ele><time>2026-07-24T00:53:26.000Z</time></trkpt>
        <trkpt lat="29.582666" lon="103.378448"><ele>1048.1204</ele><time>2026-07-24T00:53:28.000Z</time></trkpt>
        <trkpt lat="29.582656" lon="103.378437"><ele>1050.0166</ele><time>2026-07-24T00:53:30.000Z</time></trkpt>
        <trkpt lat="29.582647" lon="103.378425"><ele>1051.633</ele><time>2026-07-24T00:53:32.000Z</time></trkpt>
        <trkpt lat="29.582638" lon="103.378412"><ele>1052.5663</ele><time>2026-07-24T00:53:34.000Z</time></trkpt>
        <trkpt lat="29.582632" lon="103.3784"><ele>1054.0548</ele><time>2026-07-24T00:53:36.000Z</time></trkpt>
        <trkpt lat="29.582625" lon="103.378389"><ele>1056.0145</ele><time>2026-07-24T00:53:38.000Z</time></trkpt>
        <trkpt lat="29.582619" lon="103.378382"><ele>1057.3289</ele><time>2026-07-24T00:53:40.000Z</time></trkpt>
        <trkpt lat="29.582611" lon="103.378376"><ele>1058.0236</ele><time>2026-07-24T00:53:42.000Z</time></trkpt>
        <trkpt lat="29.582595" lon="103.37836"><ele>1056.6052</ele><time>2026-07-24T00:53:46.000Z</time></trkpt>
        <trkpt lat="29.582592" lon="103.378356"><ele>1057.7179</ele><time>2026-07-24T00:53:48.000Z</time></trkpt>
        <trkpt lat="29.582588" lon="103.378351"><ele>1058.9332</ele><time>2026-07-24T00:53:50.000Z</time></trkpt>
        <trkpt lat="29.582569" lon="103.378333"><ele>1062.0869</ele><time>2026-07-24T00:53:56.000Z</time></trkpt>
        <trkpt lat="29.582559" lon="103.378324"><ele>1062.7054</ele><time>2026-07-24T00:53:58.000Z</time></trkpt>
        <trkpt lat="29.582558" lon="103.378324"><ele>1063.7318</ele><time>2026-07-24T00:54:00.000Z</time></trkpt>
        <trkpt lat="29.582545" lon="103.378312"><ele>1066.728</ele><time>2026-07-24T00:54:06.000Z</time></trkpt>
        <trkpt lat="29.582525" lon="103.378295"><ele>1066.5161</ele><time>2026-07-24T00:54:10.000Z</time></trkpt>
        <trkpt lat="29.582525" lon="103.378295"><ele>1066.8811</ele><time>2026-07-24T00:54:12.000Z</time></trkpt>
        <trkpt lat="29.582524" lon="103.378294"><ele>1069.8567</ele><time>2026-07-24T00:54:30.000Z</time></trkpt>
        <trkpt lat="29.582486" lon="103.378277"><ele>1071.3069</ele><time>2026-07-24T00:54:38.000Z</time></trkpt>
        <trkpt lat="29.582486" lon="103.378277"><ele>1070.5685</ele><time>2026-07-24T00:54:40.000Z</time></trkpt>
        <trkpt lat="29.582473" lon="103.378282"><ele>1069.0767</ele><time>2026-07-24T00:54:44.000Z</time></trkpt>
        <trkpt lat="29.582448" lon="103.378293"><ele>1067.9675</ele><time>2026-07-24T00:54:48.000Z</time></trkpt>
        <trkpt lat="29.582448" lon="103.378293"><ele>1067.4253</ele><time>2026-07-24T00:54:50.000Z</time></trkpt>
        <trkpt lat="29.582443" lon="103.378283"><ele>1067.3297</ele><time>2026-07-24T00:54:54.000Z</time></trkpt>
        <trkpt lat="29.582429" lon="103.378255"><ele>1066.168</ele><time>2026-07-24T00:54:58.000Z</time></trkpt>
        <trkpt lat="29.582429" lon="103.378255"><ele>1066.8165</ele><time>2026-07-24T00:55:00.000Z</time></trkpt>
        <trkpt lat="29.582431" lon="103.37825"><ele>1066.7257</ele><time>2026-07-24T00:55:04.000Z</time></trkpt>
        <trkpt lat="29.58244" lon="103.378221"><ele>1068.6584</ele><time>2026-07-24T00:55:12.000Z</time></trkpt>
        <trkpt lat="29.582438" lon="103.378217"><ele>1069.2922</ele><time>2026-07-24T00:55:14.000Z</time></trkpt>
        <trkpt lat="29.582424" lon="103.378161"><ele>1067.0073</ele><time>2026-07-24T00:55:29.000Z</time></trkpt>
        <trkpt lat="29.582418" lon="103.378139"><ele>1066.644</ele><time>2026-07-24T00:55:34.000Z</time></trkpt>
        <trkpt lat="29.582416" lon="103.378132"><ele>1066.6766</ele><time>2026-07-24T00:55:36.000Z</time></trkpt>
        <trkpt lat="29.582416" lon="103.378124"><ele>1067.1699</ele><time>2026-07-24T00:55:38.000Z</time></trkpt>
        <trkpt lat="29.582416" lon="103.378096"><ele>1066.442</ele><time>2026-07-24T00:55:46.000Z</time></trkpt>
        <trkpt lat="29.582415" lon="103.37809"><ele>1065.7708</ele><time>2026-07-24T00:55:48.000Z</time></trkpt>
        <trkpt lat="29.582412" lon="103.378083"><ele>1067.0116</ele><time>2026-07-24T00:55:50.000Z</time></trkpt>
        <trkpt lat="29.582404" lon="103.378061"><ele>1066.0299</ele><time>2026-07-24T00:55:58.000Z</time></trkpt>
        <trkpt lat="29.582403" lon="103.378059"><ele>1065.5796</ele><time>2026-07-24T00:56:00.000Z</time></trkpt>
        <trkpt lat="29.582401" lon="103.378051"><ele>1066.0905</ele><time>2026-07-24T00:56:02.000Z</time></trkpt>
        <trkpt lat="29.582382" lon="103.377981"><ele>1070.2646</ele><time>2026-07-24T00:56:16.000Z</time></trkpt>
        <trkpt lat="29.582379" lon="103.377968"><ele>1071.5865</ele><time>2026-07-24T00:56:18.000Z</time></trkpt>
        <trkpt lat="29.582378" lon="103.377967"><ele>1072.1534</ele><time>2026-07-24T00:56:20.000Z</time></trkpt>
        <trkpt lat="29.582373" lon="103.377937"><ele>1073.4904</ele><time>2026-07-24T00:56:26.000Z</time></trkpt>
        <trkpt lat="29.582372" lon="103.377919"><ele>1073.2386</ele><time>2026-07-24T00:56:28.000Z</time></trkpt>
        <trkpt lat="29.582373" lon="103.377901"><ele>1072.9219</ele><time>2026-07-24T00:56:30.000Z</time></trkpt>
        <trkpt lat="29.582375" lon="103.377882"><ele>1072.5132</ele><time>2026-07-24T00:56:32.000Z</time></trkpt>
        <trkpt lat="29.582376" lon="103.377862"><ele>1071.5239</ele><time>2026-07-24T00:56:34.000Z</time></trkpt>
        <trkpt lat="29.582375" lon="103.377841"><ele>1070.9028</ele><time>2026-07-24T00:56:36.000Z</time></trkpt>
        <trkpt lat="29.58237" lon="103.377823"><ele>1072.0178</ele><time>2026-07-24T00:56:38.000Z</time></trkpt>
        <trkpt lat="29.582364" lon="103.377796"><ele>1073.2126</ele><time>2026-07-24T00:56:40.000Z</time></trkpt>
        <trkpt lat="29.582362" lon="103.37778"><ele>1074.9247</ele><time>2026-07-24T00:56:42.000Z</time></trkpt>
        <trkpt lat="29.582362" lon="103.377766"><ele>1074.9012</ele><time>2026-07-24T00:56:44.000Z</time></trkpt>
        <trkpt lat="29.582363" lon="103.377756"><ele>1074.3278</ele><time>2026-07-24T00:56:46.000Z</time></trkpt>
        <trkpt lat="29.582363" lon="103.377732"><ele>1075.2369</ele><time>2026-07-24T00:56:50.000Z</time></trkpt>
        <trkpt lat="29.582363" lon="103.377721"><ele>1074.6185</ele><time>2026-07-24T00:56:52.000Z</time></trkpt>
        <trkpt lat="29.582361" lon="103.377709"><ele>1075.5032</ele><time>2026-07-24T00:56:54.000Z</time></trkpt>
        <trkpt lat="29.582359" lon="103.377696"><ele>1076.6251</ele><time>2026-07-24T00:56:56.000Z</time></trkpt>
        <trkpt lat="29.582357" lon="103.377682"><ele>1077.3743</ele><time>2026-07-24T00:56:58.000Z</time></trkpt>
        <trkpt lat="29.582356" lon="103.377674"><ele>1076.6069</ele><time>2026-07-24T00:57:00.000Z</time></trkpt>
        <trkpt lat="29.582353" lon="103.377655"><ele>1078.7843</ele><time>2026-07-24T00:57:06.000Z</time></trkpt>
        <trkpt lat="29.582351" lon="103.37764"><ele>1077.993</ele><time>2026-07-24T00:57:08.000Z</time></trkpt>
        <trkpt lat="29.582352" lon="103.377639"><ele>1077.4095</ele><time>2026-07-24T00:57:10.000Z</time></trkpt>
        <trkpt lat="29.582357" lon="103.37761"><ele>1078.6378</ele><time>2026-07-24T00:57:16.000Z</time></trkpt>
        <trkpt lat="29.582361" lon="103.377596"><ele>1078.6531</ele><time>2026-07-24T00:57:18.000Z</time></trkpt>
        <trkpt lat="29.582366" lon="103.377583"><ele>1080.7042</ele><time>2026-07-24T00:57:20.000Z</time></trkpt>
        <trkpt lat="29.582366" lon="103.377573"><ele>1081.3324</ele><time>2026-07-24T00:57:22.000Z</time></trkpt>
        <trkpt lat="29.582365" lon="103.377554"><ele>1082.8994</ele><time>2026-07-24T00:57:44.000Z</time></trkpt>
        <trkpt lat="29.582365" lon="103.377538"><ele>1084.3654</ele><time>2026-07-24T00:57:46.000Z</time></trkpt>
        <trkpt lat="29.582365" lon="103.377537"><ele>1084.448</ele><time>2026-07-24T00:57:48.000Z</time></trkpt>
        <trkpt lat="29.582378" lon="103.377518"><ele>1083.5216</ele><time>2026-07-24T00:57:56.000Z</time></trkpt>
        <trkpt lat="29.582383" lon="103.377509"><ele>1086.4877</ele><time>2026-07-24T00:58:08.000Z</time></trkpt>
        <trkpt lat="29.582384" lon="103.377502"><ele>1086.9594</ele><time>2026-07-24T00:58:10.000Z</time></trkpt>
        <trkpt lat="29.582387" lon="103.37747"><ele>1087.8846</ele><time>2026-07-24T00:58:14.000Z</time></trkpt>
        <trkpt lat="29.582387" lon="103.37747"><ele>1087.0969</ele><time>2026-07-24T00:58:16.000Z</time></trkpt>
        <trkpt lat="29.582388" lon="103.377466"><ele>1086.3229</ele><time>2026-07-24T00:58:22.000Z</time></trkpt>
        <trkpt lat="29.582398" lon="103.377432"><ele>1088.2424</ele><time>2026-07-24T00:58:36.000Z</time></trkpt>
        <trkpt lat="29.582401" lon="103.377424"><ele>1088.9757</ele><time>2026-07-24T00:58:38.000Z</time></trkpt>
        <trkpt lat="29.582399" lon="103.377419"><ele>1088.6847</ele><time>2026-07-24T00:58:40.000Z</time></trkpt>
        <trkpt lat="29.582384" lon="103.377411"><ele>1089.4152</ele><time>2026-07-24T00:58:48.000Z</time></trkpt>
        <trkpt lat="29.582372" lon="103.377404"><ele>1088.5114</ele><time>2026-07-24T00:59:02.000Z</time></trkpt>
        <trkpt lat="29.582354" lon="103.377394"><ele>1087.8032</ele><time>2026-07-24T00:59:04.000Z</time></trkpt>
        <trkpt lat="29.582353" lon="103.377393"><ele>1087.1519</ele><time>2026-07-24T00:59:06.000Z</time></trkpt>
        <trkpt lat="29.582345" lon="103.377382"><ele>1086.7236</ele><time>2026-07-24T00:59:10.000Z</time></trkpt>
        <trkpt lat="29.582325" lon="103.377355"><ele>1088.1355</ele><time>2026-07-24T00:59:14.000Z</time></trkpt>
        <trkpt lat="29.582325" lon="103.377355"><ele>1088.5731</ele><time>2026-07-24T00:59:16.000Z</time></trkpt>
        <trkpt lat="29.582324" lon="103.377354"><ele>1090.0665</ele><time>2026-07-24T00:59:18.000Z</time></trkpt>
        <trkpt lat="29.582308" lon="103.377318"><ele>1093.2515</ele><time>2026-07-24T00:59:28.000Z</time></trkpt>
        <trkpt lat="29.582305" lon="103.377314"><ele>1092.5386</ele><time>2026-07-24T00:59:30.000Z</time></trkpt>
        <trkpt lat="29.582295" lon="103.377293"><ele>1094.3468</ele><time>2026-07-24T00:59:45.000Z</time></trkpt>
        <trkpt lat="29.582273" lon="103.377261"><ele>1095.1606</ele><time>2026-07-24T01:00:00.000Z</time></trkpt>
        <trkpt lat="29.58226" lon="103.377243"><ele>1095.804</ele><time>2026-07-24T01:00:02.000Z</time></trkpt>
        <trkpt lat="29.58226" lon="103.377243"><ele>1094.9401</ele><time>2026-07-24T01:00:04.000Z</time></trkpt>
        <trkpt lat="29.582242" lon="103.377266"><ele>1096.1598</ele><time>2026-07-24T01:00:18.000Z</time></trkpt>
        <trkpt lat="29.582234" lon="103.377227"><ele>1096.7507</ele><time>2026-07-24T01:00:34.000Z</time></trkpt>
        <trkpt lat="29.58223" lon="103.377198"><ele>1097.3168</ele><time>2026-07-24T01:00:42.000Z</time></trkpt>
        <trkpt lat="29.582229" lon="103.37719"><ele>1097.5789</ele><time>2026-07-24T01:00:44.000Z</time></trkpt>
        <trkpt lat="29.582229" lon="103.377182"><ele>1097.9121</ele><time>2026-07-24T01:00:46.000Z</time></trkpt>
        <trkpt lat="29.582222" lon="103.377158"><ele>1099.9637</ele><time>2026-07-24T01:00:54.000Z</time></trkpt>
        <trkpt lat="29.582218" lon="103.377144"><ele>1100.1086</ele><time>2026-07-24T01:00:56.000Z</time></trkpt>
        <trkpt lat="29.582217" lon="103.377143"><ele>1100.7056</ele><time>2026-07-24T01:00:58.000Z</time></trkpt>
        <trkpt lat="29.582207" lon="103.377127"><ele>1100.843</ele><time>2026-07-24T01:01:12.000Z</time></trkpt>
        <trkpt lat="29.582205" lon="103.377108"><ele>1101.3926</ele><time>2026-07-24T01:01:27.000Z</time></trkpt>
        <trkpt lat="29.582201" lon="103.377084"><ele>1102.6183</ele><time>2026-07-24T01:01:36.000Z</time></trkpt>
        <trkpt lat="29.582198" lon="103.37708"><ele>1103.528</ele><time>2026-07-24T01:01:38.000Z</time></trkpt>
        <trkpt lat="29.582195" lon="103.377074"><ele>1104.6813</ele><time>2026-07-24T01:01:40.000Z</time></trkpt>
        <trkpt lat="29.582181" lon="103.377055"><ele>1106.1802</ele><time>2026-07-24T01:01:46.000Z</time></trkpt>
        <trkpt lat="29.582171" lon="103.377041"><ele>1106.7849</ele><time>2026-07-24T01:01:48.000Z</time></trkpt>
        <trkpt lat="29.58217" lon="103.377041"><ele>1106.9825</ele><time>2026-07-24T01:01:50.000Z</time></trkpt>
        <trkpt lat="29.582158" lon="103.377028"><ele>1107.877</ele><time>2026-07-24T01:01:56.000Z</time></trkpt>
        <trkpt lat="29.582147" lon="103.377011"><ele>1108.4807</ele><time>2026-07-24T01:02:02.000Z</time></trkpt>
        <trkpt lat="29.582146" lon="103.377011"><ele>1108.5288</ele><time>2026-07-24T01:02:04.000Z</time></trkpt>
        <trkpt lat="29.582133" lon="103.376998"><ele>1111.4286</ele><time>2026-07-24T01:02:12.000Z</time></trkpt>
        <trkpt lat="29.582124" lon="103.376983"><ele>1111.005</ele><time>2026-07-24T01:02:16.000Z</time></trkpt>
        <trkpt lat="29.582124" lon="103.376976"><ele>1110.6858</ele><time>2026-07-24T01:02:18.000Z</time></trkpt>
        <trkpt lat="29.58212" lon="103.376966"><ele>1110.3058</ele><time>2026-07-24T01:02:22.000Z</time></trkpt>
        <trkpt lat="29.582115" lon="103.376945"><ele>1111.652</ele><time>2026-07-24T01:02:38.000Z</time></trkpt>
        <trkpt lat="29.582111" lon="103.376927"><ele>1111.2869</ele><time>2026-07-24T01:02:40.000Z</time></trkpt>
        <trkpt lat="29.582111" lon="103.376926"><ele>1112.0688</ele><time>2026-07-24T01:02:42.000Z</time></trkpt>
        <trkpt lat="29.582103" lon="103.376838"><ele>1120.209</ele><time>2026-07-24T01:03:44.000Z</time></trkpt>
        <trkpt lat="29.582109" lon="103.376778"><ele>1121.7563</ele><time>2026-07-24T01:03:59.000Z</time></trkpt>
        <trkpt lat="29.582107" lon="103.376778"><ele>1125.3085</ele><time>2026-07-24T01:04:14.000Z</time></trkpt>
      </trkseg>
      <trkseg>
        <trkpt lat="29.582062" lon="103.376774"><ele>1126.4502</ele><time>2026-07-24T01:05:12.000Z</time></trkpt>
        <trkpt lat="29.582025" lon="103.376772"><ele>1128.8087</ele><time>2026-07-24T01:05:24.000Z</time></trkpt>
        <trkpt lat="29.582022" lon="103.376756"><ele>1129.4951</ele><time>2026-07-24T01:05:26.000Z</time></trkpt>
        <trkpt lat="29.582022" lon="103.376755"><ele>1130.9429</ele><time>2026-07-24T01:05:28.000Z</time></trkpt>
        <trkpt lat="29.582015" lon="103.37674"><ele>1130.6835</ele><time>2026-07-24T01:05:34.000Z</time></trkpt>
        <trkpt lat="29.581996" lon="103.376703"><ele>1129.7333</ele><time>2026-07-24T01:05:36.000Z</time></trkpt>
        <trkpt lat="29.581996" lon="103.3767"><ele>1130.0317</ele><time>2026-07-24T01:05:38.000Z</time></trkpt>
        <trkpt lat="29.581996" lon="103.376699"><ele>1131.603</ele><time>2026-07-24T01:05:40.000Z</time></trkpt>
        <trkpt lat="29.582001" lon="103.376659"><ele>1133.1442</ele><time>2026-07-24T01:05:48.000Z</time></trkpt>
        <trkpt lat="29.582003" lon="103.376651"><ele>1133.3192</ele><time>2026-07-24T01:05:50.000Z</time></trkpt>
        <trkpt lat="29.582008" lon="103.376635"><ele>1133.8397</ele><time>2026-07-24T01:05:52.000Z</time></trkpt>
        <trkpt lat="29.582007" lon="103.376626"><ele>1134.0358</ele><time>2026-07-24T01:05:58.000Z</time></trkpt>
        <trkpt lat="29.582009" lon="103.376607"><ele>1134.1311</ele><time>2026-07-24T01:06:00.000Z</time></trkpt>
        <trkpt lat="29.582009" lon="103.376599"><ele>1137.2355</ele><time>2026-07-24T01:06:08.000Z</time></trkpt>
        <trkpt lat="29.58201" lon="103.376592"><ele>1136.1984</ele><time>2026-07-24T01:06:10.000Z</time></trkpt>
        <trkpt lat="29.582013" lon="103.376551"><ele>1136.2295</ele><time>2026-07-24T01:06:22.000Z</time></trkpt>
        <trkpt lat="29.582015" lon="103.376548"><ele>1137.3141</ele><time>2026-07-24T01:06:24.000Z</time></trkpt>
        <trkpt lat="29.582014" lon="103.376548"><ele>1137.667</ele><time>2026-07-24T01:06:26.000Z</time></trkpt>
        <trkpt lat="29.58199" lon="103.376534"><ele>1139.758</ele><time>2026-07-24T01:06:34.000Z</time></trkpt>
        <trkpt lat="29.581978" lon="103.376529"><ele>1138.8564</ele><time>2026-07-24T01:06:36.000Z</time></trkpt>
        <trkpt lat="29.581977" lon="103.376529"><ele>1139.792</ele><time>2026-07-24T01:06:38.000Z</time></trkpt>
        <trkpt lat="29.581956" lon="103.376535"><ele>1143.0033</ele><time>2026-07-24T01:06:46.000Z</time></trkpt>
      </trkseg>
      <trkseg>
        <trkpt lat="29.581932" lon="103.37656"><ele>1141.4421</ele><time>2026-07-24T01:18:51.000Z</time></trkpt>
        <trkpt lat="29.581905" lon="103.376587"><ele>1147.2646</ele><time>2026-07-24T01:19:23.000Z</time></trkpt>
        <trkpt lat="29.581899" lon="103.376591"><ele>1147.3134</ele><time>2026-07-24T01:19:25.000Z</time></trkpt>
        <trkpt lat="29.581895" lon="103.37659"><ele>1147.207</ele><time>2026-07-24T01:19:27.000Z</time></trkpt>
        <trkpt lat="29.581873" lon="103.376587"><ele>1148.1005</ele><time>2026-07-24T01:19:33.000Z</time></trkpt>
        <trkpt lat="29.581867" lon="103.376586"><ele>1149.4718</ele><time>2026-07-24T01:19:35.000Z</time></trkpt>
        <trkpt lat="29.581863" lon="103.376582"><ele>1149.5795</ele><time>2026-07-24T01:19:37.000Z</time></trkpt>
        <trkpt lat="29.581847" lon="103.376569"><ele>1151.301</ele><time>2026-07-24T01:19:45.000Z</time></trkpt>
        <trkpt lat="29.581842" lon="103.376567"><ele>1151.6</ele><time>2026-07-24T01:19:47.000Z</time></trkpt>
        <trkpt lat="29.581833" lon="103.376567"><ele>1150.9486</ele><time>2026-07-24T01:19:51.000Z</time></trkpt>
        <trkpt lat="29.581812" lon="103.376562"><ele>1152.4257</ele><time>2026-07-24T01:19:59.000Z</time></trkpt>
        <trkpt lat="29.581793" lon="103.376558"><ele>1151.6943</ele><time>2026-07-24T01:20:01.000Z</time></trkpt>
        <trkpt lat="29.581791" lon="103.376558"><ele>1151.3729</ele><time>2026-07-24T01:20:03.000Z</time></trkpt>
        <trkpt lat="29.581781" lon="103.376552"><ele>1152.4736</ele><time>2026-07-24T01:20:09.000Z</time></trkpt>
        <trkpt lat="29.581759" lon="103.376537"><ele>1152.8391</ele><time>2026-07-24T01:20:15.000Z</time></trkpt>
        <trkpt lat="29.581754" lon="103.376531"><ele>1153.1833</ele><time>2026-07-24T01:20:17.000Z</time></trkpt>
        <trkpt lat="29.581753" lon="103.376532"><ele>1153.8362</ele><time>2026-07-24T01:20:19.000Z</time></trkpt>
        <trkpt lat="29.581724" lon="103.376535"><ele>1154.1633</ele><time>2026-07-24T01:20:33.000Z</time></trkpt>
        <trkpt lat="29.581721" lon="103.376533"><ele>1153.1979</ele><time>2026-07-24T01:20:35.000Z</time></trkpt>
        <trkpt lat="29.581721" lon="103.376532"><ele>1153.2083</ele><time>2026-07-24T01:20:37.000Z</time></trkpt>
        <trkpt lat="29.581724" lon="103.3765"><ele>1154.2385</ele><time>2026-07-24T01:20:53.000Z</time></trkpt>
        <trkpt lat="29.581698" lon="103.376494"><ele>1153.1344</ele><time>2026-07-24T01:21:09.000Z</time></trkpt>
        <trkpt lat="29.581698" lon="103.376494"><ele>1153.434</ele><time>2026-07-24T01:21:11.000Z</time></trkpt>
        <trkpt lat="29.58172" lon="103.376457"><ele>1156.7849</ele><time>2026-07-24T01:21:23.000Z</time></trkpt>
        <trkpt lat="29.581719" lon="103.376453"><ele>1157.1543</ele><time>2026-07-24T01:21:25.000Z</time></trkpt>
        <trkpt lat="29.581719" lon="103.376435"><ele>1156.9333</ele><time>2026-07-24T01:21:27.000Z</time></trkpt>
        <trkpt lat="29.581723" lon="103.376422"><ele>1155.223</ele><time>2026-07-24T01:21:33.000Z</time></trkpt>
        <trkpt lat="29.581727" lon="103.37641"><ele>1155.8088</ele><time>2026-07-24T01:21:35.000Z</time></trkpt>
        <trkpt lat="29.581728" lon="103.376401"><ele>1156.2598</ele><time>2026-07-24T01:21:37.000Z</time></trkpt>
        <trkpt lat="29.581728" lon="103.376388"><ele>1157.2296</ele><time>2026-07-24T01:21:41.000Z</time></trkpt>
        <trkpt lat="29.581731" lon="103.376371"><ele>1158.9448</ele><time>2026-07-24T01:21:49.000Z</time></trkpt>
        <trkpt lat="29.581734" lon="103.376368"><ele>1158.6044</ele><time>2026-07-24T01:21:51.000Z</time></trkpt>
        <trkpt lat="29.581744" lon="103.376351"><ele>1158.4175</ele><time>2026-07-24T01:21:55.000Z</time></trkpt>
        <trkpt lat="29.581751" lon="103.376339"><ele>1158.191</ele><time>2026-07-24T01:21:57.000Z</time></trkpt>
        <trkpt lat="29.581751" lon="103.376338"><ele>1158.6853</ele><time>2026-07-24T01:21:59.000Z</time></trkpt>
        <trkpt lat="29.581747" lon="103.376309"><ele>1159.1641</ele><time>2026-07-24T01:22:07.000Z</time></trkpt>
        <trkpt lat="29.581745" lon="103.376296"><ele>1159.3108</ele><time>2026-07-24T01:22:09.000Z</time></trkpt>
        <trkpt lat="29.581745" lon="103.376295"><ele>1161.0094</ele><time>2026-07-24T01:22:11.000Z</time></trkpt>
        <trkpt lat="29.581745" lon="103.37627"><ele>1161.912</ele><time>2026-07-24T01:22:17.000Z</time></trkpt>
        <trkpt lat="29.581747" lon="103.376259"><ele>1160.9489</ele><time>2026-07-24T01:22:19.000Z</time></trkpt>
        <trkpt lat="29.581749" lon="103.376253"><ele>1161.7356</ele><time>2026-07-24T01:22:21.000Z</time></trkpt>
        <trkpt lat="29.581761" lon="103.37624"><ele>1163.0657</ele><time>2026-07-24T01:22:27.000Z</time></trkpt>
        <trkpt lat="29.58172" lon="103.376279"><ele>1172.9052</ele><time>2026-07-24T01:23:04.000Z</time></trkpt>
        <trkpt lat="29.581704" lon="103.376289"><ele>1171.7576</ele><time>2026-07-24T01:23:20.000Z</time></trkpt>
        <trkpt lat="29.581658" lon="103.376318"><ele>1174.6931</ele><time>2026-07-24T01:23:35.000Z</time></trkpt>
        <trkpt lat="29.581658" lon="103.376318"><ele>1174.6998</ele><time>2026-07-24T01:23:37.000Z</time></trkpt>
        <trkpt lat="29.581658" lon="103.376318"><ele>1175.0997</ele><time>2026-07-24T01:23:39.000Z</time></trkpt>
        <trkpt lat="29.581632" lon="103.376339"><ele>1176.1111</ele><time>2026-07-24T01:23:55.000Z</time></trkpt>
        <trkpt lat="29.581629" lon="103.376339"><ele>1175.8142</ele><time>2026-07-24T01:23:57.000Z</time></trkpt>
        <trkpt lat="29.581625" lon="103.376338"><ele>1176.8959</ele><time>2026-07-24T01:23:59.000Z</time></trkpt>
        <trkpt lat="29.581576" lon="103.376327"><ele>1176.0459</ele><time>2026-07-24T01:24:05.000Z</time></trkpt>
        <trkpt lat="29.581576" lon="103.376327"><ele>1177.9127</ele><time>2026-07-24T01:24:07.000Z</time></trkpt>
        <trkpt lat="29.581575" lon="103.376327"><ele>1179.5844</ele><time>2026-07-24T01:24:09.000Z</time></trkpt>
        <trkpt lat="29.581545" lon="103.376349"><ele>1182.0974</ele><time>2026-07-24T01:24:21.000Z</time></trkpt>
        <trkpt lat="29.581543" lon="103.376351"><ele>1182.0913</ele><time>2026-07-24T01:24:23.000Z</time></trkpt>
        <trkpt lat="29.581542" lon="103.376352"><ele>1181.1312</ele><time>2026-07-24T01:24:25.000Z</time></trkpt>
        <trkpt lat="29.581515" lon="103.376356"><ele>1186.0049</ele><time>2026-07-24T01:24:59.000Z</time></trkpt>
        <trkpt lat="29.581506" lon="103.376358"><ele>1186.2094</ele><time>2026-07-24T01:25:01.000Z</time></trkpt>
        <trkpt lat="29.581505" lon="103.376358"><ele>1187.9218</ele><time>2026-07-24T01:25:03.000Z</time></trkpt>
        <trkpt lat="29.581485" lon="103.376357"><ele>1187.6151</ele><time>2026-07-24T01:25:19.000Z</time></trkpt>
        <trkpt lat="29.581458" lon="103.376354"><ele>1189.1758</ele><time>2026-07-24T01:25:23.000Z</time></trkpt>
        <trkpt lat="29.581458" lon="103.376354"><ele>1188.7842</ele><time>2026-07-24T01:25:25.000Z</time></trkpt>
        <trkpt lat="29.58145" lon="103.376359"><ele>1189.6282</ele><time>2026-07-24T01:25:29.000Z</time></trkpt>
        <trkpt lat="29.581421" lon="103.376373"><ele>1194.6344</ele><time>2026-07-24T01:26:28.000Z</time></trkpt>
        <trkpt lat="29.581418" lon="103.376375"><ele>1193.9813</ele><time>2026-07-24T01:26:30.000Z</time></trkpt>
        <trkpt lat="29.581414" lon="103.376376"><ele>1193.5312</ele><time>2026-07-24T01:26:32.000Z</time></trkpt>
        <trkpt lat="29.581391" lon="103.37638"><ele>1193.6665</ele><time>2026-07-24T01:26:44.000Z</time></trkpt>
        <trkpt lat="29.581386" lon="103.376381"><ele>1193.321</ele><time>2026-07-24T01:26:46.000Z</time></trkpt>
        <trkpt lat="29.581383" lon="103.376383"><ele>1193.5479</ele><time>2026-07-24T01:26:48.000Z</time></trkpt>
        <trkpt lat="29.581363" lon="103.376397"><ele>1194.244</ele><time>2026-07-24T01:26:56.000Z</time></trkpt>
        <trkpt lat="29.581357" lon="103.376401"><ele>1194.5421</ele><time>2026-07-24T01:26:58.000Z</time></trkpt>
        <trkpt lat="29.581351" lon="103.376402"><ele>1194.671</ele><time>2026-07-24T01:27:00.000Z</time></trkpt>
        <trkpt lat="29.58133" lon="103.376402"><ele>1196.3453</ele><time>2026-07-24T01:27:16.000Z</time></trkpt>
        <trkpt lat="29.581327" lon="103.376401"><ele>1196.5605</ele><time>2026-07-24T01:27:18.000Z</time></trkpt>
        <trkpt lat="29.581317" lon="103.376397"><ele>1196.9204</ele><time>2026-07-24T01:27:22.000Z</time></trkpt>
        <trkpt lat="29.581301" lon="103.376389"><ele>1196.6333</ele><time>2026-07-24T01:27:36.000Z</time></trkpt>
        <trkpt lat="29.581298" lon="103.376388"><ele>1196.1265</ele><time>2026-07-24T01:27:40.000Z</time></trkpt>
        <trkpt lat="29.58129" lon="103.376391"><ele>1195.8585</ele><time>2026-07-24T01:27:52.000Z</time></trkpt>
        <trkpt lat="29.581272" lon="103.376398"><ele>1198.9097</ele><time>2026-07-24T01:28:11.000Z</time></trkpt>
        <trkpt lat="29.581284" lon="103.376425"><ele>1203.3473</ele><time>2026-07-24T01:28:26.000Z</time></trkpt>
        <trkpt lat="29.581285" lon="103.376425"><ele>1203.3656</ele><time>2026-07-24T01:28:28.000Z</time></trkpt>
        <trkpt lat="29.581261" lon="103.376435"><ele>1203.095</ele><time>2026-07-24T01:28:34.000Z</time></trkpt>
        <trkpt lat="29.581256" lon="103.376436"><ele>1202.8759</ele><time>2026-07-24T01:28:36.000Z</time></trkpt>
        <trkpt lat="29.581254" lon="103.37644"><ele>1202.9437</ele><time>2026-07-24T01:28:38.000Z</time></trkpt>
        <trkpt lat="29.581236" lon="103.376466"><ele>1202.8389</ele><time>2026-07-24T01:29:11.000Z</time></trkpt>
        <trkpt lat="29.58123" lon="103.37647"><ele>1203.5209</ele><time>2026-07-24T01:29:16.000Z</time></trkpt>
        <trkpt lat="29.581225" lon="103.376473"><ele>1203.7256</ele><time>2026-07-24T01:29:18.000Z</time></trkpt>
        <trkpt lat="29.581207" lon="103.376482"><ele>1204.4575</ele><time>2026-07-24T01:29:30.000Z</time></trkpt>
        <trkpt lat="29.581202" lon="103.376483"><ele>1204.8087</ele><time>2026-07-24T01:29:32.000Z</time></trkpt>
        <trkpt lat="29.581195" lon="103.376485"><ele>1205.9556</ele><time>2026-07-24T01:29:34.000Z</time></trkpt>
        <trkpt lat="29.581178" lon="103.376493"><ele>1207.9639</ele><time>2026-07-24T01:29:40.000Z</time></trkpt>
        <trkpt lat="29.581171" lon="103.376495"><ele>1209.0305</ele><time>2026-07-24T01:29:44.000Z</time></trkpt>
        <trkpt lat="29.581164" lon="103.376493"><ele>1209.2684</ele><time>2026-07-24T01:29:48.000Z</time></trkpt>
        <trkpt lat="29.581143" lon="103.376487"><ele>1210.0139</ele><time>2026-07-24T01:30:04.000Z</time></trkpt>
        <trkpt lat="29.581131" lon="103.376484"><ele>1210.9069</ele><time>2026-07-24T01:30:08.000Z</time></trkpt>
        <trkpt lat="29.581131" lon="103.376483"><ele>1211.5281</ele><time>2026-07-24T01:30:10.000Z</time></trkpt>
        <trkpt lat="29.581124" lon="103.376457"><ele>1210.4418</ele><time>2026-07-24T01:30:26.000Z</time></trkpt>
        <trkpt lat="29.581126" lon="103.376453"><ele>1208.6688</ele><time>2026-07-24T01:30:32.000Z</time></trkpt>
        <trkpt lat="29.581096" lon="103.376513"><ele>1209.7473</ele><time>2026-07-24T01:30:50.000Z</time></trkpt>
        <trkpt lat="29.581096" lon="103.376513"><ele>1209.1641</ele><time>2026-07-24T01:30:52.000Z</time></trkpt>
        <trkpt lat="29.581094" lon="103.376512"><ele>1209.3593</ele><time>2026-07-24T01:30:54.000Z</time></trkpt>
        <trkpt lat="29.581064" lon="103.37651"><ele>1209.13</ele><time>2026-07-24T01:31:02.000Z</time></trkpt>
        <trkpt lat="29.58106" lon="103.37651"><ele>1210.5344</ele><time>2026-07-24T01:31:04.000Z</time></trkpt>
        <trkpt lat="29.581056" lon="103.376511"><ele>1211.6051</ele><time>2026-07-24T01:31:06.000Z</time></trkpt>
        <trkpt lat="29.581032" lon="103.376505"><ele>1216.8192</ele><time>2026-07-24T01:31:22.000Z</time></trkpt>
        <trkpt lat="29.581016" lon="103.376499"><ele>1216.5845</ele><time>2026-07-24T01:31:27.000Z</time></trkpt>
        <trkpt lat="29.581011" lon="103.376496"><ele>1216.8157</ele><time>2026-07-24T01:31:29.000Z</time></trkpt>
        <trkpt lat="29.580998" lon="103.376486"><ele>1217.4047</ele><time>2026-07-24T01:31:31.000Z</time></trkpt>
        <trkpt lat="29.580987" lon="103.376476"><ele>1217.4897</ele><time>2026-07-24T01:31:39.000Z</time></trkpt>
        <trkpt lat="29.580973" lon="103.376464"><ele>1216.8508</ele><time>2026-07-24T01:31:41.000Z</time></trkpt>
        <trkpt lat="29.580972" lon="103.376465"><ele>1217.5388</ele><time>2026-07-24T01:31:43.000Z</time></trkpt>
        <trkpt lat="29.580959" lon="103.37646"><ele>1220.3602</ele><time>2026-07-24T01:31:55.000Z</time></trkpt>
        <trkpt lat="29.580944" lon="103.376455"><ele>1224.1803</ele><time>2026-07-24T01:32:17.000Z</time></trkpt>
        <trkpt lat="29.58094" lon="103.376456"><ele>1223.8666</ele><time>2026-07-24T01:32:19.000Z</time></trkpt>
        <trkpt lat="29.580927" lon="103.376454"><ele>1225.8522</ele><time>2026-07-24T01:32:38.000Z</time></trkpt>
        <trkpt lat="29.580907" lon="103.376448"><ele>1228.0576</ele><time>2026-07-24T01:32:44.000Z</time></trkpt>
        <trkpt lat="29.580881" lon="103.376439"><ele>1227.7379</ele><time>2026-07-24T01:32:46.000Z</time></trkpt>
        <trkpt lat="29.580881" lon="103.376438"><ele>1227.0165</ele><time>2026-07-24T01:32:48.000Z</time></trkpt>
        <trkpt lat="29.580881" lon="103.376433"><ele>1225.9819</ele><time>2026-07-24T01:32:50.000Z</time></trkpt>
        <trkpt lat="29.580884" lon="103.376381"><ele>1225.6666</ele><time>2026-07-24T01:32:54.000Z</time></trkpt>
        <trkpt lat="29.580891" lon="103.376358"><ele>1223.9708</ele><time>2026-07-24T01:32:56.000Z</time></trkpt>
        <trkpt lat="29.580898" lon="103.376346"><ele>1225.0631</ele><time>2026-07-24T01:32:58.000Z</time></trkpt>
        <trkpt lat="29.580906" lon="103.376335"><ele>1225.6483</ele><time>2026-07-24T01:33:00.000Z</time></trkpt>
        <trkpt lat="29.580913" lon="103.376328"><ele>1226.3475</ele><time>2026-07-24T01:33:02.000Z</time></trkpt>
        <trkpt lat="29.580918" lon="103.37632"><ele>1225.3031</ele><time>2026-07-24T01:33:04.000Z</time></trkpt>
        <trkpt lat="29.580925" lon="103.376304"><ele>1227.1434</ele><time>2026-07-24T01:33:10.000Z</time></trkpt>
        <trkpt lat="29.580929" lon="103.376296"><ele>1227.7985</ele><time>2026-07-24T01:33:14.000Z</time></trkpt>
        <trkpt lat="29.580931" lon="103.37629"><ele>1227.3429</ele><time>2026-07-24T01:33:16.000Z</time></trkpt>
        <trkpt lat="29.580933" lon="103.376271"><ele>1229.8257</ele><time>2026-07-24T01:33:22.000Z</time></trkpt>
        <trkpt lat="29.580935" lon="103.376261"><ele>1229.6718</ele><time>2026-07-24T01:33:28.000Z</time></trkpt>
        <trkpt lat="29.580938" lon="103.376256"><ele>1231.2009</ele><time>2026-07-24T01:33:32.000Z</time></trkpt>
        <trkpt lat="29.580951" lon="103.376235"><ele>1231.249</ele><time>2026-07-24T01:33:40.000Z</time></trkpt>
        <trkpt lat="29.580955" lon="103.376228"><ele>1232.2858</ele><time>2026-07-24T01:33:42.000Z</time></trkpt>
        <trkpt lat="29.580956" lon="103.376221"><ele>1233.0491</ele><time>2026-07-24T01:33:44.000Z</time></trkpt>
        <trkpt lat="29.58096" lon="103.376202"><ele>1234.2145</ele><time>2026-07-24T01:34:03.000Z</time></trkpt>
        <trkpt lat="29.580966" lon="103.376186"><ele>1235.0673</ele><time>2026-07-24T01:34:07.000Z</time></trkpt>
        <trkpt lat="29.580967" lon="103.376187"><ele>1236.2974</ele><time>2026-07-24T01:34:09.000Z</time></trkpt>
        <trkpt lat="29.580992" lon="103.376193"><ele>1237.6194</ele><time>2026-07-24T01:34:29.000Z</time></trkpt>
        <trkpt lat="29.580944" lon="103.376212"><ele>1241.0605</ele><time>2026-07-24T01:36:45.000Z</time></trkpt>
        <trkpt lat="29.580829" lon="103.376257"><ele>1243.226</ele><time>2026-07-24T01:37:00.000Z</time></trkpt>
        <trkpt lat="29.580828" lon="103.376257"><ele>1243.2585</ele><time>2026-07-24T01:37:02.000Z</time></trkpt>
        <trkpt lat="29.580826" lon="103.376257"><ele>1244.0167</ele><time>2026-07-24T01:37:04.000Z</time></trkpt>
        <trkpt lat="29.580785" lon="103.376261"><ele>1244.4816</ele><time>2026-07-24T01:37:10.000Z</time></trkpt>
        <trkpt lat="29.580784" lon="103.376261"><ele>1243.9689</ele><time>2026-07-24T01:37:12.000Z</time></trkpt>
        <trkpt lat="29.580783" lon="103.376262"><ele>1243.8527</ele><time>2026-07-24T01:37:14.000Z</time></trkpt>
        <trkpt lat="29.58075" lon="103.376285"><ele>1244.2865</ele><time>2026-07-24T01:37:20.000Z</time></trkpt>
        <trkpt lat="29.58075" lon="103.376285"><ele>1244.074</ele><time>2026-07-24T01:37:22.000Z</time></trkpt>
      </trkseg>
      <trkseg>
        <trkpt lat="29.580691" lon="103.376303"><ele>1243.7333</ele><time>2026-07-24T01:43:51.000Z</time></trkpt>
        <trkpt lat="29.58065" lon="103.376302"><ele>1243.4148</ele><time>2026-07-24T01:44:01.000Z</time></trkpt>
        <trkpt lat="29.580635" lon="103.376303"><ele>1243.5527</ele><time>2026-07-24T01:44:03.000Z</time></trkpt>
        <trkpt lat="29.580623" lon="103.376305"><ele>1243.6475</ele><time>2026-07-24T01:44:05.000Z</time></trkpt>
        <trkpt lat="29.580619" lon="103.37631"><ele>1244.3506</ele><time>2026-07-24T01:44:07.000Z</time></trkpt>
        <trkpt lat="29.580607" lon="103.376318"><ele>1245.4277</ele><time>2026-07-24T01:44:33.000Z</time></trkpt>
        <trkpt lat="29.580587" lon="103.37633"><ele>1245.3315</ele><time>2026-07-24T01:44:35.000Z</time></trkpt>
        <trkpt lat="29.580586" lon="103.376329"><ele>1245.5013</ele><time>2026-07-24T01:44:37.000Z</time></trkpt>
        <trkpt lat="29.58055" lon="103.376316"><ele>1244.8083</ele><time>2026-07-24T01:44:40.000Z</time></trkpt>
        <trkpt lat="29.58055" lon="103.376316"><ele>1244.9923</ele><time>2026-07-24T01:44:42.000Z</time></trkpt>
        <trkpt lat="29.580547" lon="103.376317"><ele>1244.8527</ele><time>2026-07-24T01:44:44.000Z</time></trkpt>
        <trkpt lat="29.580515" lon="103.376325"><ele>1245.0602</ele><time>2026-07-24T01:44:48.000Z</time></trkpt>
        <trkpt lat="29.580493" lon="103.376329"><ele>1245.43</ele><time>2026-07-24T01:44:50.000Z</time></trkpt>
        <trkpt lat="29.580472" lon="103.376334"><ele>1245.8097</ele><time>2026-07-24T01:44:52.000Z</time></trkpt>
        <trkpt lat="29.580455" lon="103.376339"><ele>1245.6512</ele><time>2026-07-24T01:44:54.000Z</time></trkpt>
        <trkpt lat="29.580435" lon="103.376344"><ele>1246.3989</ele><time>2026-07-24T01:44:56.000Z</time></trkpt>
        <trkpt lat="29.580418" lon="103.376349"><ele>1246.1605</ele><time>2026-07-24T01:44:58.000Z</time></trkpt>
        <trkpt lat="29.5804" lon="103.376353"><ele>1246.4016</ele><time>2026-07-24T01:45:00.000Z</time></trkpt>
        <trkpt lat="29.580382" lon="103.376354"><ele>1246.946</ele><time>2026-07-24T01:45:02.000Z</time></trkpt>
        <trkpt lat="29.580364" lon="103.376353"><ele>1247.0165</ele><time>2026-07-24T01:45:04.000Z</time></trkpt>
        <trkpt lat="29.580347" lon="103.376351"><ele>1247.0771</ele><time>2026-07-24T01:45:06.000Z</time></trkpt>
        <trkpt lat="29.58033" lon="103.376348"><ele>1246.9684</ele><time>2026-07-24T01:45:08.000Z</time></trkpt>
        <trkpt lat="29.580313" lon="103.376345"><ele>1246.6072</ele><time>2026-07-24T01:45:10.000Z</time></trkpt>
        <trkpt lat="29.580297" lon="103.376342"><ele>1246.7937</ele><time>2026-07-24T01:45:12.000Z</time></trkpt>
        <trkpt lat="29.580283" lon="103.376339"><ele>1246.7198</ele><time>2026-07-24T01:45:14.000Z</time></trkpt>
        <trkpt lat="29.580277" lon="103.376335"><ele>1246.7441</ele><time>2026-07-24T01:45:16.000Z</time></trkpt>
        <trkpt lat="29.58026" lon="103.376324"><ele>1245.0471</ele><time>2026-07-24T01:45:22.000Z</time></trkpt>
        <trkpt lat="29.580255" lon="103.376323"><ele>1244.9845</ele><time>2026-07-24T01:45:26.000Z</time></trkpt>
        <trkpt lat="29.580239" lon="103.37632"><ele>1245.7819</ele><time>2026-07-24T01:45:28.000Z</time></trkpt>
        <trkpt lat="29.580215" lon="103.376318"><ele>1245.1229</ele><time>2026-07-24T01:45:30.000Z</time></trkpt>
        <trkpt lat="29.58019" lon="103.376316"><ele>1245.0333</ele><time>2026-07-24T01:45:32.000Z</time></trkpt>
        <trkpt lat="29.580169" lon="103.376315"><ele>1245.2267</ele><time>2026-07-24T01:45:34.000Z</time></trkpt>
        <trkpt lat="29.580149" lon="103.376313"><ele>1245.7843</ele><time>2026-07-24T01:45:36.000Z</time></trkpt>
        <trkpt lat="29.580133" lon="103.37631"><ele>1245.7233</ele><time>2026-07-24T01:45:38.000Z</time></trkpt>
        <trkpt lat="29.580128" lon="103.376305"><ele>1245.0182</ele><time>2026-07-24T01:45:40.000Z</time></trkpt>
        <trkpt lat="29.58012" lon="103.376303"><ele>1244.068</ele><time>2026-07-24T01:45:58.000Z</time></trkpt>
        <trkpt lat="29.58009" lon="103.376293"><ele>1244.3392</ele><time>2026-07-24T01:46:02.000Z</time></trkpt>
        <trkpt lat="29.580076" lon="103.376292"><ele>1244.778</ele><time>2026-07-24T01:46:04.000Z</time></trkpt>
        <trkpt lat="29.580061" lon="103.376291"><ele>1245.0023</ele><time>2026-07-24T01:46:06.000Z</time></trkpt>
        <trkpt lat="29.58006" lon="103.376291"><ele>1244.1885</ele><time>2026-07-24T01:46:08.000Z</time></trkpt>
        <trkpt lat="29.580046" lon="103.37628"><ele>1243.744</ele><time>2026-07-24T01:46:12.000Z</time></trkpt>
        <trkpt lat="29.580032" lon="103.376264"><ele>1243.6548</ele><time>2026-07-24T01:46:14.000Z</time></trkpt>
        <trkpt lat="29.580016" lon="103.376245"><ele>1243.265</ele><time>2026-07-24T01:46:16.000Z</time></trkpt>
        <trkpt lat="29.580004" lon="103.376229"><ele>1243.221</ele><time>2026-07-24T01:46:18.000Z</time></trkpt>
        <trkpt lat="29.579994" lon="103.376212"><ele>1242.6771</ele><time>2026-07-24T01:46:20.000Z</time></trkpt>
        <trkpt lat="29.579985" lon="103.376192"><ele>1241.582</ele><time>2026-07-24T01:46:22.000Z</time></trkpt>
        <trkpt lat="29.579979" lon="103.376173"><ele>1241.0748</ele><time>2026-07-24T01:46:24.000Z</time></trkpt>
        <trkpt lat="29.57997" lon="103.376152"><ele>1239.8628</ele><time>2026-07-24T01:46:26.000Z</time></trkpt>
        <trkpt lat="29.579964" lon="103.37613"><ele>1240.6748</ele><time>2026-07-24T01:46:28.000Z</time></trkpt>
        <trkpt lat="29.579956" lon="103.376107"><ele>1239.8656</ele><time>2026-07-24T01:46:30.000Z</time></trkpt>
        <trkpt lat="29.579949" lon="103.376082"><ele>1240.985</ele><time>2026-07-24T01:46:32.000Z</time></trkpt>
        <trkpt lat="29.579944" lon="103.376059"><ele>1242.004</ele><time>2026-07-24T01:46:34.000Z</time></trkpt>
        <trkpt lat="29.579939" lon="103.376037"><ele>1242.7908</ele><time>2026-07-24T01:46:36.000Z</time></trkpt>
        <trkpt lat="29.579933" lon="103.376014"><ele>1242.6125</ele><time>2026-07-24T01:46:38.000Z</time></trkpt>
        <trkpt lat="29.579923" lon="103.375989"><ele>1244.5579</ele><time>2026-07-24T01:46:40.000Z</time></trkpt>
        <trkpt lat="29.579912" lon="103.375963"><ele>1242.3949</ele><time>2026-07-24T01:46:42.000Z</time></trkpt>
        <trkpt lat="29.5799" lon="103.37594"><ele>1243.1978</ele><time>2026-07-24T01:46:44.000Z</time></trkpt>
        <trkpt lat="29.579887" lon="103.375917"><ele>1242.8749</ele><time>2026-07-24T01:46:46.000Z</time></trkpt>
        <trkpt lat="29.579875" lon="103.375895"><ele>1242.5027</ele><time>2026-07-24T01:46:48.000Z</time></trkpt>
        <trkpt lat="29.579862" lon="103.375873"><ele>1241.9414</ele><time>2026-07-24T01:46:50.000Z</time></trkpt>
        <trkpt lat="29.579851" lon="103.375853"><ele>1241.5756</ele><time>2026-07-24T01:46:52.000Z</time></trkpt>
        <trkpt lat="29.579841" lon="103.375834"><ele>1242.0537</ele><time>2026-07-24T01:46:54.000Z</time></trkpt>
        <trkpt lat="29.57983" lon="103.37581"><ele>1241.0348</ele><time>2026-07-24T01:46:56.000Z</time></trkpt>
        <trkpt lat="29.579819" lon="103.375783"><ele>1242.4832</ele><time>2026-07-24T01:46:58.000Z</time></trkpt>
        <trkpt lat="29.579814" lon="103.375761"><ele>1242.9133</ele><time>2026-07-24T01:47:00.000Z</time></trkpt>
        <trkpt lat="29.57981" lon="103.375744"><ele>1243.565</ele><time>2026-07-24T01:47:02.000Z</time></trkpt>
        <trkpt lat="29.579808" lon="103.375723"><ele>1245.1027</ele><time>2026-07-24T01:47:04.000Z</time></trkpt>
        <trkpt lat="29.57981" lon="103.375707"><ele>1245.1615</ele><time>2026-07-24T01:47:06.000Z</time></trkpt>
        <trkpt lat="29.579812" lon="103.375694"><ele>1244.8207</ele><time>2026-07-24T01:47:08.000Z</time></trkpt>
        <trkpt lat="29.579815" lon="103.375684"><ele>1245.7836</ele><time>2026-07-24T01:47:10.000Z</time></trkpt>
        <trkpt lat="29.57982" lon="103.375674"><ele>1245.3872</ele><time>2026-07-24T01:47:12.000Z</time></trkpt>
        <trkpt lat="29.579826" lon="103.375665"><ele>1245.3447</ele><time>2026-07-24T01:47:14.000Z</time></trkpt>
        <trkpt lat="29.579833" lon="103.375654"><ele>1245.3258</ele><time>2026-07-24T01:47:16.000Z</time></trkpt>
        <trkpt lat="29.57984" lon="103.375642"><ele>1245.6364</ele><time>2026-07-24T01:47:18.000Z</time></trkpt>
        <trkpt lat="29.579846" lon="103.375629"><ele>1246.4337</ele><time>2026-07-24T01:47:20.000Z</time></trkpt>
        <trkpt lat="29.579852" lon="103.375618"><ele>1247.2358</ele><time>2026-07-24T01:47:22.000Z</time></trkpt>
        <trkpt lat="29.579856" lon="103.375609"><ele>1247.8392</ele><time>2026-07-24T01:47:24.000Z</time></trkpt>
        <trkpt lat="29.579864" lon="103.375607"><ele>1248.0234</ele><time>2026-07-24T01:47:28.000Z</time></trkpt>
        <trkpt lat="29.579912" lon="103.375595"><ele>1250.4008</ele><time>2026-07-24T01:47:43.000Z</time></trkpt>
        <trkpt lat="29.579912" lon="103.375595"><ele>1250.4916</ele><time>2026-07-24T01:47:45.000Z</time></trkpt>
        <trkpt lat="29.579913" lon="103.375594"><ele>1250.157</ele><time>2026-07-24T01:47:47.000Z</time></trkpt>
        <trkpt lat="29.579935" lon="103.375565"><ele>1249.992</ele><time>2026-07-24T01:47:59.000Z</time></trkpt>
        <trkpt lat="29.57994" lon="103.375561"><ele>1250.672</ele><time>2026-07-24T01:48:01.000Z</time></trkpt>
        <trkpt lat="29.579947" lon="103.375559"><ele>1251.1127</ele><time>2026-07-24T01:48:03.000Z</time></trkpt>
        <trkpt lat="29.579973" lon="103.375554"><ele>1253.1561</ele><time>2026-07-24T01:48:11.000Z</time></trkpt>
        <trkpt lat="29.579979" lon="103.375551"><ele>1253.763</ele><time>2026-07-24T01:48:13.000Z</time></trkpt>
        <trkpt lat="29.580029" lon="103.37553"><ele>1255.5061</ele><time>2026-07-24T01:48:29.000Z</time></trkpt>
        <trkpt lat="29.580038" lon="103.375526"><ele>1254.8716</ele><time>2026-07-24T01:48:45.000Z</time></trkpt>
        <trkpt lat="29.580078" lon="103.375515"><ele>1257.9873</ele><time>2026-07-24T01:49:00.000Z</time></trkpt>
        <trkpt lat="29.580107" lon="103.37551"><ele>1258.8182</ele><time>2026-07-24T01:49:15.000Z</time></trkpt>
        <trkpt lat="29.580142" lon="103.375511"><ele>1258.5665</ele><time>2026-07-24T01:49:30.000Z</time></trkpt>
        <trkpt lat="29.580186" lon="103.375518"><ele>1259.2034</ele><time>2026-07-24T01:49:42.000Z</time></trkpt>
        <trkpt lat="29.580187" lon="103.375519"><ele>1259.5157</ele><time>2026-07-24T01:49:44.000Z</time></trkpt>
        <trkpt lat="29.580187" lon="103.37552"><ele>1261.223</ele><time>2026-07-24T01:49:46.000Z</time></trkpt>
        <trkpt lat="29.580214" lon="103.375502"><ele>1268.6163</ele><time>2026-07-24T01:50:39.000Z</time></trkpt>
        <trkpt lat="29.580214" lon="103.375502"><ele>1269.4429</ele><time>2026-07-24T01:50:41.000Z</time></trkpt>
        <trkpt lat="29.580219" lon="103.375506"><ele>1269.6852</ele><time>2026-07-24T01:50:43.000Z</time></trkpt>
        <trkpt lat="29.580242" lon="103.37552"><ele>1271.7635</ele><time>2026-07-24T01:50:51.000Z</time></trkpt>
        <trkpt lat="29.580249" lon="103.375523"><ele>1271.0754</ele><time>2026-07-24T01:50:53.000Z</time></trkpt>
        <trkpt lat="29.580255" lon="103.375525"><ele>1271.5602</ele><time>2026-07-24T01:50:55.000Z</time></trkpt>
        <trkpt lat="29.580276" lon="103.375536"><ele>1272.7605</ele><time>2026-07-24T01:50:59.000Z</time></trkpt>
        <trkpt lat="29.580294" lon="103.375544"><ele>1275.0548</ele><time>2026-07-24T01:51:11.000Z</time></trkpt>
        <trkpt lat="29.580295" lon="103.375545"><ele>1274.8018</ele><time>2026-07-24T01:51:13.000Z</time></trkpt>
        <trkpt lat="29.580305" lon="103.375542"><ele>1275.137</ele><time>2026-07-24T01:51:19.000Z</time></trkpt>
        <trkpt lat="29.580326" lon="103.37554"><ele>1277.281</ele><time>2026-07-24T01:52:00.000Z</time></trkpt>
        <trkpt lat="29.580327" lon="103.37554"><ele>1277.1534</ele><time>2026-07-24T01:52:15.000Z</time></trkpt>
        <trkpt lat="29.580354" lon="103.375554"><ele>1282.8162</ele><time>2026-07-24T01:52:30.000Z</time></trkpt>
        <trkpt lat="29.580355" lon="103.375553"><ele>1282.51</ele><time>2026-07-24T01:52:46.000Z</time></trkpt>
        <trkpt lat="29.580364" lon="103.375548"><ele>1285.2026</ele><time>2026-07-24T01:53:48.000Z</time></trkpt>
        <trkpt lat="29.580421" lon="103.375531"><ele>1282.1088</ele><time>2026-07-24T01:54:03.000Z</time></trkpt>
        <trkpt lat="29.580454" lon="103.375522"><ele>1283.5344</ele><time>2026-07-24T01:54:10.000Z</time></trkpt>
        <trkpt lat="29.580454" lon="103.375522"><ele>1283.0405</ele><time>2026-07-24T01:54:12.000Z</time></trkpt>
        <trkpt lat="29.580456" lon="103.37552"><ele>1283.4354</ele><time>2026-07-24T01:54:14.000Z</time></trkpt>
        <trkpt lat="29.580484" lon="103.375502"><ele>1287.4681</ele><time>2026-07-24T01:54:20.000Z</time></trkpt>
        <trkpt lat="29.580484" lon="103.375502"><ele>1287.6158</ele><time>2026-07-24T01:54:22.000Z</time></trkpt>
        <trkpt lat="29.580486" lon="103.3755"><ele>1287.5886</ele><time>2026-07-24T01:54:24.000Z</time></trkpt>
        <trkpt lat="29.580513" lon="103.375473"><ele>1289.4462</ele><time>2026-07-24T01:54:30.000Z</time></trkpt>
        <trkpt lat="29.580513" lon="103.375473"><ele>1290.9497</ele><time>2026-07-24T01:54:32.000Z</time></trkpt>
        <trkpt lat="29.580514" lon="103.375472"><ele>1291.3186</ele><time>2026-07-24T01:54:34.000Z</time></trkpt>
        <trkpt lat="29.580537" lon="103.375453"><ele>1291.6656</ele><time>2026-07-24T01:54:50.000Z</time></trkpt>
        <trkpt lat="29.580538" lon="103.375453"><ele>1292.1997</ele><time>2026-07-24T01:54:52.000Z</time></trkpt>
        <trkpt lat="29.580545" lon="103.375453"><ele>1291.7097</ele><time>2026-07-24T01:54:56.000Z</time></trkpt>
        <trkpt lat="29.580568" lon="103.37545"><ele>1291.9816</ele><time>2026-07-24T01:55:02.000Z</time></trkpt>
        <trkpt lat="29.580597" lon="103.375446"><ele>1292.5192</ele><time>2026-07-24T01:55:04.000Z</time></trkpt>
        <trkpt lat="29.580599" lon="103.375445"><ele>1291.6808</ele><time>2026-07-24T01:55:06.000Z</time></trkpt>
        <trkpt lat="29.580599" lon="103.375445"><ele>1291.161</ele><time>2026-07-24T01:55:08.000Z</time></trkpt>
        <trkpt lat="29.580629" lon="103.375431"><ele>1293.083</ele><time>2026-07-24T01:55:22.000Z</time></trkpt>
        <trkpt lat="29.580643" lon="103.375426"><ele>1293.3901</ele><time>2026-07-24T01:55:24.000Z</time></trkpt>
        <trkpt lat="29.580644" lon="103.375425"><ele>1293.2998</ele><time>2026-07-24T01:55:26.000Z</time></trkpt>
        <trkpt lat="29.580658" lon="103.375421"><ele>1291.2067</ele><time>2026-07-24T01:55:30.000Z</time></trkpt>
      </trkseg>
      <trkseg>
        <trkpt lat="29.580645" lon="103.375399"><ele>1293.3671</ele><time>2026-07-24T01:57:41.000Z</time></trkpt>
        <trkpt lat="29.580675" lon="103.37531"><ele>1292.2784</ele><time>2026-07-24T01:58:26.000Z</time></trkpt>
        <trkpt lat="29.580676" lon="103.375271"><ele>1294.9829</ele><time>2026-07-24T01:58:41.000Z</time></trkpt>
        <trkpt lat="29.580681" lon="103.375226"><ele>1297.6316</ele><time>2026-07-24T01:58:57.000Z</time></trkpt>
        <trkpt lat="29.580681" lon="103.375182"><ele>1302.2588</ele><time>2026-07-24T01:59:12.000Z</time></trkpt>
        <trkpt lat="29.580679" lon="103.375147"><ele>1301.5454</ele><time>2026-07-24T01:59:27.000Z</time></trkpt>
        <trkpt lat="29.580685" lon="103.375105"><ele>1302.4952</ele><time>2026-07-24T01:59:42.000Z</time></trkpt>
        <trkpt lat="29.580691" lon="103.375074"><ele>1307.9972</ele><time>2026-07-24T01:59:57.000Z</time></trkpt>
        <trkpt lat="29.580697" lon="103.375036"><ele>1306.6376</ele><time>2026-07-24T02:00:12.000Z</time></trkpt>
        <trkpt lat="29.580701" lon="103.375029"><ele>1308.4285</ele><time>2026-07-24T02:00:27.000Z</time></trkpt>
        <trkpt lat="29.580719" lon="103.375016"><ele>1307.4243</ele><time>2026-07-24T02:00:42.000Z</time></trkpt>
        <trkpt lat="29.580718" lon="103.375012"><ele>1313.7688</ele><time>2026-07-24T02:00:58.000Z</time></trkpt>
        <trkpt lat="29.580716" lon="103.374975"><ele>1314.0424</ele><time>2026-07-24T02:01:13.000Z</time></trkpt>
        <trkpt lat="29.580717" lon="103.374944"><ele>1314.447</ele><time>2026-07-24T02:01:28.000Z</time></trkpt>
        <trkpt lat="29.580713" lon="103.374935"><ele>1318.3898</ele><time>2026-07-24T02:01:43.000Z</time></trkpt>
        <trkpt lat="29.580704" lon="103.374915"><ele>1321.4617</ele><time>2026-07-24T02:01:58.000Z</time></trkpt>
        <trkpt lat="29.58069" lon="103.374862"><ele>1322.1406</ele><time>2026-07-24T02:02:13.000Z</time></trkpt>
        <trkpt lat="29.580676" lon="103.37481"><ele>1318.8406</ele><time>2026-07-24T02:02:28.000Z</time></trkpt>
        <trkpt lat="29.580667" lon="103.374786"><ele>1320.7598</ele><time>2026-07-24T02:02:41.000Z</time></trkpt>
        <trkpt lat="29.580665" lon="103.374784"><ele>1320.9036</ele><time>2026-07-24T02:02:43.000Z</time></trkpt>
        <trkpt lat="29.580658" lon="103.374778"><ele>1321.5605</ele><time>2026-07-24T02:02:47.000Z</time></trkpt>
        <trkpt lat="29.580644" lon="103.374763"><ele>1323.0287</ele><time>2026-07-24T02:02:55.000Z</time></trkpt>
        <trkpt lat="29.580641" lon="103.374761"><ele>1323.4086</ele><time>2026-07-24T02:02:57.000Z</time></trkpt>
        <trkpt lat="29.580634" lon="103.374756"><ele>1324.3538</ele><time>2026-07-24T02:03:03.000Z</time></trkpt>
        <trkpt lat="29.580609" lon="103.374738"><ele>1326.9216</ele><time>2026-07-24T02:03:09.000Z</time></trkpt>
        <trkpt lat="29.580609" lon="103.374738"><ele>1326.8264</ele><time>2026-07-24T02:03:11.000Z</time></trkpt>
        <trkpt lat="29.580629" lon="103.374712"><ele>1325.2446</ele><time>2026-07-24T02:03:19.000Z</time></trkpt>
      </trkseg>
      <trkseg>
        <trkpt lat="29.580637" lon="103.374701"><ele>1322.4524</ele><time>2026-07-24T02:17:09.000Z</time></trkpt>
        <trkpt lat="29.580629" lon="103.374668"><ele>1322.1992</ele><time>2026-07-24T02:17:43.000Z</time></trkpt>
        <trkpt lat="29.580626" lon="103.374669"><ele>1322.8258</ele><time>2026-07-24T02:17:45.000Z</time></trkpt>
        <trkpt lat="29.580625" lon="103.374672"><ele>1322.6141</ele><time>2026-07-24T02:17:47.000Z</time></trkpt>
        <trkpt lat="29.580645" lon="103.374637"><ele>1324.2919</ele><time>2026-07-24T02:18:24.000Z</time></trkpt>
        <trkpt lat="29.580645" lon="103.374636"><ele>1325.266</ele><time>2026-07-24T02:18:26.000Z</time></trkpt>
        <trkpt lat="29.580644" lon="103.374631"><ele>1326.0333</ele><time>2026-07-24T02:18:28.000Z</time></trkpt>
        <trkpt lat="29.580637" lon="103.3746"><ele>1325.9868</ele><time>2026-07-24T02:18:36.000Z</time></trkpt>
        <trkpt lat="29.580637" lon="103.374595"><ele>1326.0343</ele><time>2026-07-24T02:18:38.000Z</time></trkpt>
        <trkpt lat="29.580638" lon="103.374586"><ele>1325.7885</ele><time>2026-07-24T02:18:40.000Z</time></trkpt>
        <trkpt lat="29.580638" lon="103.374561"><ele>1326.9517</ele><time>2026-07-24T02:18:46.000Z</time></trkpt>
        <trkpt lat="29.580638" lon="103.374556"><ele>1326.4747</ele><time>2026-07-24T02:18:48.000Z</time></trkpt>
        <trkpt lat="29.580633" lon="103.374548"><ele>1325.7587</ele><time>2026-07-24T02:18:55.000Z</time></trkpt>
        <trkpt lat="29.580626" lon="103.37453"><ele>1330.6696</ele><time>2026-07-24T02:19:07.000Z</time></trkpt>
        <trkpt lat="29.580627" lon="103.374525"><ele>1330.8278</ele><time>2026-07-24T02:19:09.000Z</time></trkpt>
        <trkpt lat="29.580633" lon="103.374509"><ele>1331.4695</ele><time>2026-07-24T02:19:13.000Z</time></trkpt>
        <trkpt lat="29.580642" lon="103.374486"><ele>1332.6807</ele><time>2026-07-24T02:19:17.000Z</time></trkpt>
        <trkpt lat="29.580642" lon="103.374486"><ele>1332.7362</ele><time>2026-07-24T02:19:19.000Z</time></trkpt>
        <trkpt lat="29.580636" lon="103.374468"><ele>1333.8772</ele><time>2026-07-24T02:19:29.000Z</time></trkpt>
        <trkpt lat="29.580629" lon="103.374444"><ele>1334.6506</ele><time>2026-07-24T02:19:31.000Z</time></trkpt>
        <trkpt lat="29.580629" lon="103.374442"><ele>1335.0205</ele><time>2026-07-24T02:19:33.000Z</time></trkpt>
        <trkpt lat="29.58063" lon="103.374432"><ele>1335.0867</ele><time>2026-07-24T02:19:37.000Z</time></trkpt>
        <trkpt lat="29.580635" lon="103.374398"><ele>1335.1997</ele><time>2026-07-24T02:19:41.000Z</time></trkpt>
        <trkpt lat="29.580635" lon="103.374398"><ele>1335.7816</ele><time>2026-07-24T02:19:43.000Z</time></trkpt>
        <trkpt lat="29.580635" lon="103.374397"><ele>1337.2115</ele><time>2026-07-24T02:19:45.000Z</time></trkpt>
        <trkpt lat="29.58063" lon="103.374361"><ele>1338.4878</ele><time>2026-07-24T02:19:53.000Z</time></trkpt>
        <trkpt lat="29.580628" lon="103.374345"><ele>1339.6112</ele><time>2026-07-24T02:19:55.000Z</time></trkpt>
        <trkpt lat="29.580629" lon="103.374345"><ele>1339.3888</ele><time>2026-07-24T02:19:57.000Z</time></trkpt>
        <trkpt lat="29.580655" lon="103.374283"><ele>1337.6324</ele><time>2026-07-24T02:20:16.000Z</time></trkpt>
        <trkpt lat="29.580658" lon="103.374259"><ele>1339.1709</ele><time>2026-07-24T02:20:31.000Z</time></trkpt>
        <trkpt lat="29.580656" lon="103.374212"><ele>1342.3529</ele><time>2026-07-24T02:20:46.000Z</time></trkpt>
        <trkpt lat="29.580646" lon="103.374171"><ele>1343.0459</ele><time>2026-07-24T02:21:01.000Z</time></trkpt>
        <trkpt lat="29.580639" lon="103.374129"><ele>1345.6837</ele><time>2026-07-24T02:21:16.000Z</time></trkpt>
        <trkpt lat="29.58064" lon="103.374075"><ele>1345.2385</ele><time>2026-07-24T02:21:31.000Z</time></trkpt>
        <trkpt lat="29.580632" lon="103.374018"><ele>1345.0095</ele><time>2026-07-24T02:21:46.000Z</time></trkpt>
        <trkpt lat="29.580616" lon="103.373971"><ele>1344.834</ele><time>2026-07-24T02:22:02.000Z</time></trkpt>
        <trkpt lat="29.580595" lon="103.373911"><ele>1345.1946</ele><time>2026-07-24T02:22:18.000Z</time></trkpt>
        <trkpt lat="29.580556" lon="103.373872"><ele>1346.823</ele><time>2026-07-24T02:22:30.000Z</time></trkpt>
        <trkpt lat="29.580547" lon="103.373863"><ele>1347.3535</ele><time>2026-07-24T02:22:32.000Z</time></trkpt>
        <trkpt lat="29.580547" lon="103.373862"><ele>1347.0415</ele><time>2026-07-24T02:22:34.000Z</time></trkpt>
        <trkpt lat="29.580531" lon="103.373848"><ele>1347.4125</ele><time>2026-07-24T02:22:40.000Z</time></trkpt>
        <trkpt lat="29.580518" lon="103.373837"><ele>1348.0292</ele><time>2026-07-24T02:22:42.000Z</time></trkpt>
        <trkpt lat="29.580517" lon="103.373836"><ele>1348.2137</ele><time>2026-07-24T02:22:44.000Z</time></trkpt>
        <trkpt lat="29.580499" lon="103.373824"><ele>1349.6136</ele><time>2026-07-24T02:22:50.000Z</time></trkpt>
        <trkpt lat="29.580488" lon="103.373819"><ele>1350.4045</ele><time>2026-07-24T02:22:52.000Z</time></trkpt>
        <trkpt lat="29.580478" lon="103.373815"><ele>1349.6227</ele><time>2026-07-24T02:22:54.000Z</time></trkpt>
        <trkpt lat="29.58047" lon="103.373813"><ele>1350.3147</ele><time>2026-07-24T02:22:56.000Z</time></trkpt>
        <trkpt lat="29.580458" lon="103.373811"><ele>1352.2455</ele><time>2026-07-24T02:23:00.000Z</time></trkpt>
        <trkpt lat="29.580446" lon="103.373811"><ele>1353.1033</ele><time>2026-07-24T02:23:04.000Z</time></trkpt>
        <trkpt lat="29.580435" lon="103.373809"><ele>1353.2635</ele><time>2026-07-24T02:23:08.000Z</time></trkpt>
        <trkpt lat="29.580429" lon="103.373801"><ele>1353.2938</ele><time>2026-07-24T02:23:12.000Z</time></trkpt>
        <trkpt lat="29.580408" lon="103.373776"><ele>1352.6803</ele><time>2026-07-24T02:23:16.000Z</time></trkpt>
        <trkpt lat="29.580408" lon="103.373776"><ele>1352.9374</ele><time>2026-07-24T02:23:18.000Z</time></trkpt>
        <trkpt lat="29.580408" lon="103.373773"><ele>1352.4834</ele><time>2026-07-24T02:23:20.000Z</time></trkpt>
        <trkpt lat="29.580393" lon="103.37373"><ele>1351.8279</ele><time>2026-07-24T02:23:26.000Z</time></trkpt>
        <trkpt lat="29.580387" lon="103.373718"><ele>1352.2241</ele><time>2026-07-24T02:23:28.000Z</time></trkpt>
        <trkpt lat="29.580379" lon="103.373708"><ele>1352.6844</ele><time>2026-07-24T02:23:30.000Z</time></trkpt>
        <trkpt lat="29.58037" lon="103.373699"><ele>1353.4586</ele><time>2026-07-24T02:23:32.000Z</time></trkpt>
        <trkpt lat="29.580361" lon="103.373691"><ele>1353.5157</ele><time>2026-07-24T02:23:34.000Z</time></trkpt>
        <trkpt lat="29.580351" lon="103.373681"><ele>1353.4097</ele><time>2026-07-24T02:23:36.000Z</time></trkpt>
        <trkpt lat="29.580339" lon="103.373668"><ele>1353.1918</ele><time>2026-07-24T02:23:38.000Z</time></trkpt>
        <trkpt lat="29.580327" lon="103.373656"><ele>1353.2346</ele><time>2026-07-24T02:23:40.000Z</time></trkpt>
        <trkpt lat="29.580314" lon="103.373647"><ele>1352.5121</ele><time>2026-07-24T02:23:42.000Z</time></trkpt>
        <trkpt lat="29.5803" lon="103.373638"><ele>1352.3213</ele><time>2026-07-24T02:23:44.000Z</time></trkpt>
        <trkpt lat="29.580287" lon="103.37363"><ele>1351.9045</ele><time>2026-07-24T02:23:46.000Z</time></trkpt>
        <trkpt lat="29.580274" lon="103.373621"><ele>1351.6353</ele><time>2026-07-24T02:23:48.000Z</time></trkpt>
        <trkpt lat="29.580263" lon="103.373612"><ele>1351.6696</ele><time>2026-07-24T02:23:50.000Z</time></trkpt>
        <trkpt lat="29.580252" lon="103.373603"><ele>1351.8213</ele><time>2026-07-24T02:23:52.000Z</time></trkpt>
        <trkpt lat="29.580243" lon="103.373593"><ele>1352.3914</ele><time>2026-07-24T02:23:54.000Z</time></trkpt>
        <trkpt lat="29.580232" lon="103.373582"><ele>1352.085</ele><time>2026-07-24T02:23:56.000Z</time></trkpt>
        <trkpt lat="29.580223" lon="103.373571"><ele>1351.4213</ele><time>2026-07-24T02:23:58.000Z</time></trkpt>
        <trkpt lat="29.580216" lon="103.373561"><ele>1351.6251</ele><time>2026-07-24T02:24:00.000Z</time></trkpt>
        <trkpt lat="29.580209" lon="103.373551"><ele>1351.5116</ele><time>2026-07-24T02:24:02.000Z</time></trkpt>
        <trkpt lat="29.580201" lon="103.373541"><ele>1351.9434</ele><time>2026-07-24T02:24:04.000Z</time></trkpt>
        <trkpt lat="29.580195" lon="103.373531"><ele>1351.7913</ele><time>2026-07-24T02:24:06.000Z</time></trkpt>
        <trkpt lat="29.580188" lon="103.373521"><ele>1351.5255</ele><time>2026-07-24T02:24:08.000Z</time></trkpt>
        <trkpt lat="29.580184" lon="103.373512"><ele>1351.0466</ele><time>2026-07-24T02:24:10.000Z</time></trkpt>
        <trkpt lat="29.580178" lon="103.3735"><ele>1351.8359</ele><time>2026-07-24T02:24:12.000Z</time></trkpt>
        <trkpt lat="29.580171" lon="103.373492"><ele>1351.8094</ele><time>2026-07-24T02:24:14.000Z</time></trkpt>
        <trkpt lat="29.580165" lon="103.373485"><ele>1352.2799</ele><time>2026-07-24T02:24:16.000Z</time></trkpt>
        <trkpt lat="29.580154" lon="103.373476"><ele>1352.3724</ele><time>2026-07-24T02:24:18.000Z</time></trkpt>
        <trkpt lat="29.580143" lon="103.373467"><ele>1351.6243</ele><time>2026-07-24T02:24:20.000Z</time></trkpt>
        <trkpt lat="29.580136" lon="103.373461"><ele>1351.2815</ele><time>2026-07-24T02:24:22.000Z</time></trkpt>
        <trkpt lat="29.580129" lon="103.373454"><ele>1351.9092</ele><time>2026-07-24T02:24:24.000Z</time></trkpt>
        <trkpt lat="29.580121" lon="103.373444"><ele>1352.6434</ele><time>2026-07-24T02:24:26.000Z</time></trkpt>
        <trkpt lat="29.580113" lon="103.373433"><ele>1353.627</ele><time>2026-07-24T02:24:28.000Z</time></trkpt>
        <trkpt lat="29.580103" lon="103.373422"><ele>1354.2932</ele><time>2026-07-24T02:24:30.000Z</time></trkpt>
        <trkpt lat="29.580095" lon="103.373412"><ele>1354.2736</ele><time>2026-07-24T02:24:32.000Z</time></trkpt>
        <trkpt lat="29.580088" lon="103.373402"><ele>1354.8241</ele><time>2026-07-24T02:24:34.000Z</time></trkpt>
        <trkpt lat="29.580084" lon="103.373395"><ele>1355.2709</ele><time>2026-07-24T02:24:36.000Z</time></trkpt>
        <trkpt lat="29.580074" lon="103.373381"><ele>1356.1423</ele><time>2026-07-24T02:24:40.000Z</time></trkpt>
        <trkpt lat="29.58007" lon="103.373375"><ele>1356.4034</ele><time>2026-07-24T02:24:42.000Z</time></trkpt>
        <trkpt lat="29.580062" lon="103.373366"><ele>1357.769</ele><time>2026-07-24T02:24:46.000Z</time></trkpt>
        <trkpt lat="29.580046" lon="103.373349"><ele>1358.7693</ele><time>2026-07-24T02:24:50.000Z</time></trkpt>
        <trkpt lat="29.580046" lon="103.373349"><ele>1359.0413</ele><time>2026-07-24T02:24:52.000Z</time></trkpt>
        <trkpt lat="29.580035" lon="103.373341"><ele>1359.4077</ele><time>2026-07-24T02:24:56.000Z</time></trkpt>
        <trkpt lat="29.580014" lon="103.373323"><ele>1359.7922</ele><time>2026-07-24T02:25:00.000Z</time></trkpt>
        <trkpt lat="29.580008" lon="103.373314"><ele>1359.6777</ele><time>2026-07-24T02:25:02.000Z</time></trkpt>
        <trkpt lat="29.580003" lon="103.373304"><ele>1360.3605</ele><time>2026-07-24T02:25:04.000Z</time></trkpt>
        <trkpt lat="29.579998" lon="103.373295"><ele>1360.1428</ele><time>2026-07-24T02:25:06.000Z</time></trkpt>
        <trkpt lat="29.579993" lon="103.373285"><ele>1360.1461</ele><time>2026-07-24T02:25:08.000Z</time></trkpt>
        <trkpt lat="29.579987" lon="103.373274"><ele>1359.8325</ele><time>2026-07-24T02:25:10.000Z</time></trkpt>
        <trkpt lat="29.579981" lon="103.373265"><ele>1359.7705</ele><time>2026-07-24T02:25:12.000Z</time></trkpt>
        <trkpt lat="29.579972" lon="103.373257"><ele>1360.2065</ele><time>2026-07-24T02:25:16.000Z</time></trkpt>
        <trkpt lat="29.579961" lon="103.373249"><ele>1361.5402</ele><time>2026-07-24T02:25:20.000Z</time></trkpt>
        <trkpt lat="29.579956" lon="103.373244"><ele>1362.0785</ele><time>2026-07-24T02:25:22.000Z</time></trkpt>
        <trkpt lat="29.579944" lon="103.373229"><ele>1362.8158</ele><time>2026-07-24T02:25:26.000Z</time></trkpt>
        <trkpt lat="29.579934" lon="103.373217"><ele>1362.831</ele><time>2026-07-24T02:25:28.000Z</time></trkpt>
        <trkpt lat="29.579933" lon="103.373216"><ele>1362.9613</ele><time>2026-07-24T02:25:30.000Z</time></trkpt>
        <trkpt lat="29.579921" lon="103.373207"><ele>1364.1576</ele><time>2026-07-24T02:25:42.000Z</time></trkpt>
        <trkpt lat="29.579887" lon="103.373181"><ele>1367.0869</ele><time>2026-07-24T02:26:03.000Z</time></trkpt>
        <trkpt lat="29.579877" lon="103.373172"><ele>1366.8915</ele><time>2026-07-24T02:26:19.000Z</time></trkpt>
        <trkpt lat="29.579871" lon="103.373168"><ele>1367.6898</ele><time>2026-07-24T02:26:35.000Z</time></trkpt>
        <trkpt lat="29.579842" lon="103.373146"><ele>1368.1715</ele><time>2026-07-24T02:26:51.000Z</time></trkpt>
        <trkpt lat="29.57981" lon="103.373115"><ele>1368.9655</ele><time>2026-07-24T02:27:06.000Z</time></trkpt>
        <trkpt lat="29.579781" lon="103.373092"><ele>1369.8684</ele><time>2026-07-24T02:27:21.000Z</time></trkpt>
        <trkpt lat="29.579757" lon="103.373073"><ele>1371.6969</ele><time>2026-07-24T02:27:26.000Z</time></trkpt>
        <trkpt lat="29.579757" lon="103.373073"><ele>1372.8015</ele><time>2026-07-24T02:27:28.000Z</time></trkpt>
        <trkpt lat="29.579755" lon="103.373066"><ele>1373.6796</ele><time>2026-07-24T02:27:32.000Z</time></trkpt>
        <trkpt lat="29.579748" lon="103.373036"><ele>1374.3394</ele><time>2026-07-24T02:27:42.000Z</time></trkpt>
        <trkpt lat="29.579748" lon="103.373036"><ele>1373.5453</ele><time>2026-07-24T02:27:44.000Z</time></trkpt>
        <trkpt lat="29.579747" lon="103.37303"><ele>1374.6777</ele><time>2026-07-24T02:27:48.000Z</time></trkpt>
        <trkpt lat="29.579738" lon="103.372998"><ele>1375.4238</ele><time>2026-07-24T02:28:18.000Z</time></trkpt>
        <trkpt lat="29.579733" lon="103.372983"><ele>1375.9865</ele><time>2026-07-24T02:28:49.000Z</time></trkpt>
        <trkpt lat="29.57972" lon="103.372964"><ele>1378.9192</ele><time>2026-07-24T02:29:04.000Z</time></trkpt>
        <trkpt lat="29.579689" lon="103.372924"><ele>1381.4751</ele><time>2026-07-24T02:29:19.000Z</time></trkpt>
        <trkpt lat="29.579683" lon="103.37292"><ele>1380.7234</ele><time>2026-07-24T02:29:21.000Z</time></trkpt>
        <trkpt lat="29.579678" lon="103.372919"><ele>1380.9238</ele><time>2026-07-24T02:29:23.000Z</time></trkpt>
        <trkpt lat="29.579658" lon="103.372913"><ele>1381.9205</ele><time>2026-07-24T02:29:37.000Z</time></trkpt>
        <trkpt lat="29.579653" lon="103.372911"><ele>1384.9087</ele><time>2026-07-24T02:29:48.000Z</time></trkpt>
        <trkpt lat="29.57965" lon="103.372908"><ele>1384.6167</ele><time>2026-07-24T02:29:50.000Z</time></trkpt>
        <trkpt lat="29.579632" lon="103.372888"><ele>1383.9718</ele><time>2026-07-24T02:30:00.000Z</time></trkpt>
        <trkpt lat="29.579628" lon="103.372882"><ele>1384.6813</ele><time>2026-07-24T02:30:02.000Z</time></trkpt>
        <trkpt lat="29.579628" lon="103.372877"><ele>1384.3204</ele><time>2026-07-24T02:30:04.000Z</time></trkpt>
        <trkpt lat="29.579623" lon="103.372854"><ele>1385.7473</ele><time>2026-07-24T02:30:10.000Z</time></trkpt>
        <trkpt lat="29.579621" lon="103.37285"><ele>1385.8206</ele><time>2026-07-24T02:30:12.000Z</time></trkpt>
        <trkpt lat="29.579618" lon="103.372845"><ele>1385.9049</ele><time>2026-07-24T02:30:14.000Z</time></trkpt>
        <trkpt lat="29.579604" lon="103.372825"><ele>1386.4902</ele><time>2026-07-24T02:30:20.000Z</time></trkpt>
        <trkpt lat="29.579591" lon="103.372807"><ele>1387.7639</ele><time>2026-07-24T02:30:22.000Z</time></trkpt>
        <trkpt lat="29.57959" lon="103.372807"><ele>1387.9506</ele><time>2026-07-24T02:30:24.000Z</time></trkpt>
        <trkpt lat="29.579573" lon="103.372801"><ele>1387.8767</ele><time>2026-07-24T02:30:30.000Z</time></trkpt>
        <trkpt lat="29.579553" lon="103.372793"><ele>1387.6711</ele><time>2026-07-24T02:30:32.000Z</time></trkpt>
        <trkpt lat="29.579552" lon="103.372793"><ele>1388.8324</ele><time>2026-07-24T02:30:34.000Z</time></trkpt>
        <trkpt lat="29.579545" lon="103.372797"><ele>1389.0377</ele><time>2026-07-24T02:30:38.000Z</time></trkpt>
        <trkpt lat="29.579517" lon="103.372812"><ele>1390.6871</ele><time>2026-07-24T02:30:42.000Z</time></trkpt>
        <trkpt lat="29.579517" lon="103.372812"><ele>1390.3055</ele><time>2026-07-24T02:30:44.000Z</time></trkpt>
        <trkpt lat="29.579515" lon="103.372812"><ele>1390.2762</ele><time>2026-07-24T02:30:46.000Z</time></trkpt>
        <trkpt lat="29.579482" lon="103.37281"><ele>1390.1516</ele><time>2026-07-24T02:30:58.000Z</time></trkpt>
        <trkpt lat="29.579474" lon="103.372807"><ele>1390.4365</ele><time>2026-07-24T02:31:00.000Z</time></trkpt>
        <trkpt lat="29.579461" lon="103.372802"><ele>1390.6447</ele><time>2026-07-24T02:31:02.000Z</time></trkpt>
        <trkpt lat="29.579453" lon="103.372797"><ele>1392.0975</ele><time>2026-07-24T02:31:08.000Z</time></trkpt>
        <trkpt lat="29.57944" lon="103.372785"><ele>1391.9058</ele><time>2026-07-24T02:31:10.000Z</time></trkpt>
        <trkpt lat="29.5794" lon="103.372735"><ele>1394.564</ele><time>2026-07-24T02:31:27.000Z</time></trkpt>
        <trkpt lat="29.57938" lon="103.37271"><ele>1394.7855</ele><time>2026-07-24T02:31:36.000Z</time></trkpt>
        <trkpt lat="29.579377" lon="103.372707"><ele>1395.0249</ele><time>2026-07-24T02:31:38.000Z</time></trkpt>
        <trkpt lat="29.579374" lon="103.3727"><ele>1394.9105</ele><time>2026-07-24T02:31:40.000Z</time></trkpt>
        <trkpt lat="29.579361" lon="103.372677"><ele>1396.1787</ele><time>2026-07-24T02:31:44.000Z</time></trkpt>
        <trkpt lat="29.579355" lon="103.372671"><ele>1396.7462</ele><time>2026-07-24T02:31:46.000Z</time></trkpt>
        <trkpt lat="29.57935" lon="103.372666"><ele>1396.592</ele><time>2026-07-24T02:31:48.000Z</time></trkpt>
        <trkpt lat="29.579333" lon="103.372652"><ele>1397.8773</ele><time>2026-07-24T02:31:52.000Z</time></trkpt>
        <trkpt lat="29.579325" lon="103.372646"><ele>1396.8193</ele><time>2026-07-24T02:31:54.000Z</time></trkpt>
        <trkpt lat="29.579318" lon="103.37264"><ele>1395.4677</ele><time>2026-07-24T02:31:56.000Z</time></trkpt>
        <trkpt lat="29.579306" lon="103.372628"><ele>1395.8394</ele><time>2026-07-24T02:32:00.000Z</time></trkpt>
        <trkpt lat="29.579302" lon="103.372622"><ele>1396.8136</ele><time>2026-07-24T02:32:02.000Z</time></trkpt>
        <trkpt lat="29.579298" lon="103.372613"><ele>1397.8217</ele><time>2026-07-24T02:32:04.000Z</time></trkpt>
        <trkpt lat="29.579291" lon="103.372596"><ele>1398.6741</ele><time>2026-07-24T02:32:08.000Z</time></trkpt>
        <trkpt lat="29.579287" lon="103.372591"><ele>1397.6265</ele><time>2026-07-24T02:32:10.000Z</time></trkpt>
        <trkpt lat="29.579279" lon="103.372582"><ele>1398.6824</ele><time>2026-07-24T02:32:16.000Z</time></trkpt>
        <trkpt lat="29.579268" lon="103.372572"><ele>1399.3687</ele><time>2026-07-24T02:32:20.000Z</time></trkpt>
        <trkpt lat="29.579262" lon="103.372567"><ele>1399.0011</ele><time>2026-07-24T02:32:22.000Z</time></trkpt>
        <trkpt lat="29.579229" lon="103.37254"><ele>1400.6302</ele><time>2026-07-24T02:32:29.000Z</time></trkpt>
        <trkpt lat="29.579229" lon="103.37254"><ele>1401.679</ele><time>2026-07-24T02:32:31.000Z</time></trkpt>
        <trkpt lat="29.579227" lon="103.372539"><ele>1401.2554</ele><time>2026-07-24T02:32:33.000Z</time></trkpt>
        <trkpt lat="29.579193" lon="103.372518"><ele>1402.565</ele><time>2026-07-24T02:32:39.000Z</time></trkpt>
        <trkpt lat="29.579193" lon="103.372518"><ele>1402.2635</ele><time>2026-07-24T02:32:41.000Z</time></trkpt>
        <trkpt lat="29.579191" lon="103.372517"><ele>1402.0226</ele><time>2026-07-24T02:32:43.000Z</time></trkpt>
        <trkpt lat="29.579163" lon="103.372497"><ele>1403.6617</ele><time>2026-07-24T02:32:49.000Z</time></trkpt>
        <trkpt lat="29.579163" lon="103.372497"><ele>1403.0323</ele><time>2026-07-24T02:32:51.000Z</time></trkpt>
        <trkpt lat="29.57916" lon="103.372496"><ele>1404.4104</ele><time>2026-07-24T02:32:53.000Z</time></trkpt>
        <trkpt lat="29.579128" lon="103.372487"><ele>1406.353</ele><time>2026-07-24T02:32:57.000Z</time></trkpt>
        <trkpt lat="29.579113" lon="103.372483"><ele>1405.4283</ele><time>2026-07-24T02:32:59.000Z</time></trkpt>
        <trkpt lat="29.579099" lon="103.37248"><ele>1406.0488</ele><time>2026-07-24T02:33:01.000Z</time></trkpt>
        <trkpt lat="29.579085" lon="103.372479"><ele>1406.0182</ele><time>2026-07-24T02:33:03.000Z</time></trkpt>
        <trkpt lat="29.579072" lon="103.372481"><ele>1406.5452</ele><time>2026-07-24T02:33:05.000Z</time></trkpt>
        <trkpt lat="29.579056" lon="103.372483"><ele>1407.6779</ele><time>2026-07-24T02:33:07.000Z</time></trkpt>
        <trkpt lat="29.579039" lon="103.372486"><ele>1408.3694</ele><time>2026-07-24T02:33:09.000Z</time></trkpt>
        <trkpt lat="29.579025" lon="103.372488"><ele>1407.6616</ele><time>2026-07-24T02:33:11.000Z</time></trkpt>
        <trkpt lat="29.579011" lon="103.372488"><ele>1407.9199</ele><time>2026-07-24T02:33:13.000Z</time></trkpt>
        <trkpt lat="29.578999" lon="103.372487"><ele>1407.361</ele><time>2026-07-24T02:33:15.000Z</time></trkpt>
        <trkpt lat="29.578995" lon="103.372483"><ele>1407.1195</ele><time>2026-07-24T02:33:17.000Z</time></trkpt>
        <trkpt lat="29.578981" lon="103.372464"><ele>1405.542</ele><time>2026-07-24T02:33:31.000Z</time></trkpt>
        <trkpt lat="29.578975" lon="103.372457"><ele>1406.0133</ele><time>2026-07-24T02:33:33.000Z</time></trkpt>
        <trkpt lat="29.578972" lon="103.372451"><ele>1406.0219</ele><time>2026-07-24T02:33:35.000Z</time></trkpt>
        <trkpt lat="29.578963" lon="103.372434"><ele>1407.0024</ele><time>2026-07-24T02:33:41.000Z</time></trkpt>
        <trkpt lat="29.578958" lon="103.372422"><ele>1407.6915</ele><time>2026-07-24T02:33:45.000Z</time></trkpt>
        <trkpt lat="29.578955" lon="103.372416"><ele>1406.9043</ele><time>2026-07-24T02:33:47.000Z</time></trkpt>
        <trkpt lat="29.578946" lon="103.372392"><ele>1406.9495</ele><time>2026-07-24T02:33:51.000Z</time></trkpt>
        <trkpt lat="29.578944" lon="103.37239"><ele>1407.6594</ele><time>2026-07-24T02:33:55.000Z</time></trkpt>
        <trkpt lat="29.578937" lon="103.372381"><ele>1407.9298</ele><time>2026-07-24T02:33:57.000Z</time></trkpt>
        <trkpt lat="29.578887" lon="103.372333"><ele>1409.1881</ele><time>2026-07-24T02:34:14.000Z</time></trkpt>
        <trkpt lat="29.578879" lon="103.372327"><ele>1410.5773</ele><time>2026-07-24T02:34:29.000Z</time></trkpt>
        <trkpt lat="29.578843" lon="103.372303"><ele>1410.4962</ele><time>2026-07-24T02:34:45.000Z</time></trkpt>
        <trkpt lat="29.578776" lon="103.372258"><ele>1412.3392</ele><time>2026-07-24T02:35:01.000Z</time></trkpt>
        <trkpt lat="29.578775" lon="103.372258"><ele>1412.3818</ele><time>2026-07-24T02:35:04.000Z</time></trkpt>
        <trkpt lat="29.578736" lon="103.372234"><ele>1412.7896</ele><time>2026-07-24T02:35:06.000Z</time></trkpt>
        <trkpt lat="29.578733" lon="103.372232"><ele>1412.3923</ele><time>2026-07-24T02:35:08.000Z</time></trkpt>
        <trkpt lat="29.578729" lon="103.372229"><ele>1411.8604</ele><time>2026-07-24T02:35:10.000Z</time></trkpt>
        <trkpt lat="29.578694" lon="103.372198"><ele>1411.877</ele><time>2026-07-24T02:35:14.000Z</time></trkpt>
        <trkpt lat="29.578676" lon="103.372181"><ele>1411.7316</ele><time>2026-07-24T02:35:16.000Z</time></trkpt>
        <trkpt lat="29.57866" lon="103.372164"><ele>1412.3079</ele><time>2026-07-24T02:35:18.000Z</time></trkpt>
        <trkpt lat="29.578648" lon="103.372149"><ele>1412.2238</ele><time>2026-07-24T02:35:20.000Z</time></trkpt>
        <trkpt lat="29.578638" lon="103.372136"><ele>1412.0746</ele><time>2026-07-24T02:35:22.000Z</time></trkpt>
        <trkpt lat="29.578629" lon="103.372121"><ele>1412.4354</ele><time>2026-07-24T02:35:24.000Z</time></trkpt>
        <trkpt lat="29.578621" lon="103.372108"><ele>1412.1411</ele><time>2026-07-24T02:35:26.000Z</time></trkpt>
      </trkseg>
      <trkseg>
        <trkpt lat="29.578629" lon="103.372096"><ele>1413.107</ele><time>2026-07-24T02:41:04.000Z</time></trkpt>
        <trkpt lat="29.5786" lon="103.372045"><ele>1413.4893</ele><time>2026-07-24T02:41:49.000Z</time></trkpt>
        <trkpt lat="29.578553" lon="103.372002"><ele>1414.3246</ele><time>2026-07-24T02:42:04.000Z</time></trkpt>
        <trkpt lat="29.578543" lon="103.371993"><ele>1414.8293</ele><time>2026-07-24T02:42:06.000Z</time></trkpt>
        <trkpt lat="29.578542" lon="103.371993"><ele>1415.2012</ele><time>2026-07-24T02:42:08.000Z</time></trkpt>
        <trkpt lat="29.578521" lon="103.371987"><ele>1417.034</ele><time>2026-07-24T02:42:20.000Z</time></trkpt>
        <trkpt lat="29.578514" lon="103.371984"><ele>1417.5424</ele><time>2026-07-24T02:42:26.000Z</time></trkpt>
        <trkpt lat="29.578513" lon="103.371983"><ele>1417.9192</ele><time>2026-07-24T02:42:28.000Z</time></trkpt>
        <trkpt lat="29.578498" lon="103.371964"><ele>1419.8741</ele><time>2026-07-24T02:42:36.000Z</time></trkpt>
        <trkpt lat="29.57849" lon="103.371952"><ele>1419.9485</ele><time>2026-07-24T02:42:39.000Z</time></trkpt>
        <trkpt lat="29.578482" lon="103.371941"><ele>1420.2262</ele><time>2026-07-24T02:42:41.000Z</time></trkpt>
        <trkpt lat="29.578476" lon="103.37193"><ele>1420.6709</ele><time>2026-07-24T02:42:47.000Z</time></trkpt>
        <trkpt lat="29.578463" lon="103.371909"><ele>1420.2767</ele><time>2026-07-24T02:42:49.000Z</time></trkpt>
        <trkpt lat="29.578462" lon="103.371907"><ele>1419.308</ele><time>2026-07-24T02:42:51.000Z</time></trkpt>
        <trkpt lat="29.578457" lon="103.371898"><ele>1419.7948</ele><time>2026-07-24T02:42:55.000Z</time></trkpt>
        <trkpt lat="29.578443" lon="103.371875"><ele>1421.3339</ele><time>2026-07-24T02:42:59.000Z</time></trkpt>
        <trkpt lat="29.578443" lon="103.371875"><ele>1421.0635</ele><time>2026-07-24T02:43:01.000Z</time></trkpt>
        <trkpt lat="29.578439" lon="103.37187"><ele>1421.0164</ele><time>2026-07-24T02:43:05.000Z</time></trkpt>
        <trkpt lat="29.578416" lon="103.371841"><ele>1420.9167</ele><time>2026-07-24T02:43:11.000Z</time></trkpt>
        <trkpt lat="29.578416" lon="103.371841"><ele>1421.8075</ele><time>2026-07-24T02:43:13.000Z</time></trkpt>
        <trkpt lat="29.578415" lon="103.371838"><ele>1420.9989</ele><time>2026-07-24T02:43:15.000Z</time></trkpt>
        <trkpt lat="29.578395" lon="103.371802"><ele>1421.4558</ele><time>2026-07-24T02:43:21.000Z</time></trkpt>
        <trkpt lat="29.578391" lon="103.371794"><ele>1421.1432</ele><time>2026-07-24T02:43:23.000Z</time></trkpt>
        <trkpt lat="29.578384" lon="103.371783"><ele>1421.6722</ele><time>2026-07-24T02:43:25.000Z</time></trkpt>
        <trkpt lat="29.578378" lon="103.371774"><ele>1420.9834</ele><time>2026-07-24T02:43:27.000Z</time></trkpt>
        <trkpt lat="29.578373" lon="103.371766"><ele>1421.5574</ele><time>2026-07-24T02:43:29.000Z</time></trkpt>
        <trkpt lat="29.578366" lon="103.371755"><ele>1423.0114</ele><time>2026-07-24T02:43:31.000Z</time></trkpt>
        <trkpt lat="29.578355" lon="103.371736"><ele>1422.5352</ele><time>2026-07-24T02:43:35.000Z</time></trkpt>
        <trkpt lat="29.57835" lon="103.371725"><ele>1422.9208</ele><time>2026-07-24T02:43:37.000Z</time></trkpt>
        <trkpt lat="29.578345" lon="103.371713"><ele>1422.4872</ele><time>2026-07-24T02:43:39.000Z</time></trkpt>
        <trkpt lat="29.57834" lon="103.371698"><ele>1423.2716</ele><time>2026-07-24T02:43:41.000Z</time></trkpt>
        <trkpt lat="29.578337" lon="103.371683"><ele>1424.1221</ele><time>2026-07-24T02:43:43.000Z</time></trkpt>
        <trkpt lat="29.578334" lon="103.371668"><ele>1424.7363</ele><time>2026-07-24T02:43:45.000Z</time></trkpt>
        <trkpt lat="29.57833" lon="103.371655"><ele>1424.4784</ele><time>2026-07-24T02:43:47.000Z</time></trkpt>
        <trkpt lat="29.578324" lon="103.371645"><ele>1424.2595</ele><time>2026-07-24T02:43:49.000Z</time></trkpt>
        <trkpt lat="29.578317" lon="103.371632"><ele>1425.2499</ele><time>2026-07-24T02:43:51.000Z</time></trkpt>
        <trkpt lat="29.578307" lon="103.371617"><ele>1426.0046</ele><time>2026-07-24T02:43:53.000Z</time></trkpt>
        <trkpt lat="29.578296" lon="103.371603"><ele>1425.9985</ele><time>2026-07-24T02:43:55.000Z</time></trkpt>
        <trkpt lat="29.578286" lon="103.371595"><ele>1426.0133</ele><time>2026-07-24T02:43:57.000Z</time></trkpt>
        <trkpt lat="29.578275" lon="103.371589"><ele>1425.8815</ele><time>2026-07-24T02:43:59.000Z</time></trkpt>
        <trkpt lat="29.578266" lon="103.371584"><ele>1426.0623</ele><time>2026-07-24T02:44:01.000Z</time></trkpt>
        <trkpt lat="29.578256" lon="103.371576"><ele>1426.4503</ele><time>2026-07-24T02:44:05.000Z</time></trkpt>
        <trkpt lat="29.578247" lon="103.371568"><ele>1427.5042</ele><time>2026-07-24T02:44:13.000Z</time></trkpt>
        <trkpt lat="29.578237" lon="103.371565"><ele>1428.2623</ele><time>2026-07-24T02:44:17.000Z</time></trkpt>
        <trkpt lat="29.578224" lon="103.371559"><ele>1429.4512</ele><time>2026-07-24T02:44:21.000Z</time></trkpt>
        <trkpt lat="29.578219" lon="103.371556"><ele>1430.0817</ele><time>2026-07-24T02:44:23.000Z</time></trkpt>
        <trkpt lat="29.578174" lon="103.371534"><ele>1431.1869</ele><time>2026-07-24T02:44:38.000Z</time></trkpt>
        <trkpt lat="29.57814" lon="103.37152"><ele>1432.5178</ele><time>2026-07-24T02:44:51.000Z</time></trkpt>
        <trkpt lat="29.57814" lon="103.371521"><ele>1432.942</ele><time>2026-07-24T02:44:53.000Z</time></trkpt>
        <trkpt lat="29.578141" lon="103.371522"><ele>1432.942</ele><time>2026-07-24T02:44:55.000Z</time></trkpt>
        <trkpt lat="29.578116" lon="103.371492"><ele>1435.873</ele><time>2026-07-24T02:45:23.000Z</time></trkpt>
        <trkpt lat="29.578116" lon="103.371492"><ele>1435.8145</ele><time>2026-07-24T02:45:25.000Z</time></trkpt>
        <trkpt lat="29.578115" lon="103.371492"><ele>1435.7906</ele><time>2026-07-24T02:45:27.000Z</time></trkpt>
        <trkpt lat="29.578093" lon="103.371464"><ele>1436.6165</ele><time>2026-07-24T02:45:41.000Z</time></trkpt>
        <trkpt lat="29.578091" lon="103.37146"><ele>1437.0428</ele><time>2026-07-24T02:45:43.000Z</time></trkpt>
        <trkpt lat="29.57809" lon="103.371456"><ele>1436.665</ele><time>2026-07-24T02:45:45.000Z</time></trkpt>
        <trkpt lat="29.578077" lon="103.371434"><ele>1437.468</ele><time>2026-07-24T02:45:55.000Z</time></trkpt>
        <trkpt lat="29.578065" lon="103.37142"><ele>1439.0685</ele><time>2026-07-24T02:46:01.000Z</time></trkpt>
        <trkpt lat="29.578061" lon="103.371416"><ele>1438.8572</ele><time>2026-07-24T02:46:03.000Z</time></trkpt>
        <trkpt lat="29.578051" lon="103.371403"><ele>1439.5946</ele><time>2026-07-24T02:46:07.000Z</time></trkpt>
        <trkpt lat="29.578042" lon="103.371393"><ele>1440.8008</ele><time>2026-07-24T02:46:11.000Z</time></trkpt>
        <trkpt lat="29.578039" lon="103.371392"><ele>1441.2262</ele><time>2026-07-24T02:46:13.000Z</time></trkpt>
        <trkpt lat="29.578023" lon="103.37139"><ele>1442.236</ele><time>2026-07-24T02:46:21.000Z</time></trkpt>
        <trkpt lat="29.578008" lon="103.371387"><ele>1441.9701</ele><time>2026-07-24T02:46:27.000Z</time></trkpt>
        <trkpt lat="29.578002" lon="103.371385"><ele>1442.5444</ele><time>2026-07-24T02:46:29.000Z</time></trkpt>
        <trkpt lat="29.577994" lon="103.37138"><ele>1442.4614</ele><time>2026-07-24T02:46:31.000Z</time></trkpt>
        <trkpt lat="29.577982" lon="103.37137"><ele>1443.3577</ele><time>2026-07-24T02:46:37.000Z</time></trkpt>
        <trkpt lat="29.577976" lon="103.371365"><ele>1443.5381</ele><time>2026-07-24T02:46:43.000Z</time></trkpt>
        <trkpt lat="29.577968" lon="103.371359"><ele>1444.8398</ele><time>2026-07-24T02:46:47.000Z</time></trkpt>
        <trkpt lat="29.577951" lon="103.371349"><ele>1446.8124</ele><time>2026-07-24T02:46:53.000Z</time></trkpt>
        <trkpt lat="29.577946" lon="103.371344"><ele>1447.113</ele><time>2026-07-24T02:46:55.000Z</time></trkpt>
        <trkpt lat="29.577924" lon="103.371331"><ele>1450.0676</ele><time>2026-07-24T02:47:10.000Z</time></trkpt>
        <trkpt lat="29.577898" lon="103.37131"><ele>1450.359</ele><time>2026-07-24T02:47:26.000Z</time></trkpt>
        <trkpt lat="29.577865" lon="103.371287"><ele>1452.1437</ele><time>2026-07-24T02:47:42.000Z</time></trkpt>
        <trkpt lat="29.577831" lon="103.371277"><ele>1451.9668</ele><time>2026-07-24T02:47:58.000Z</time></trkpt>
        <trkpt lat="29.57781" lon="103.37127"><ele>1452.8962</ele><time>2026-07-24T02:48:02.000Z</time></trkpt>
        <trkpt lat="29.57781" lon="103.37127"><ele>1453.1913</ele><time>2026-07-24T02:48:04.000Z</time></trkpt>
        <trkpt lat="29.577804" lon="103.37125"><ele>1454.9856</ele><time>2026-07-24T02:48:30.000Z</time></trkpt>
        <trkpt lat="29.577798" lon="103.371237"><ele>1455.2323</ele><time>2026-07-24T02:48:34.000Z</time></trkpt>
        <trkpt lat="29.577795" lon="103.371233"><ele>1454.2649</ele><time>2026-07-24T02:48:36.000Z</time></trkpt>
        <trkpt lat="29.577783" lon="103.371217"><ele>1454.6583</ele><time>2026-07-24T02:48:42.000Z</time></trkpt>
        <trkpt lat="29.577778" lon="103.371212"><ele>1454.7452</ele><time>2026-07-24T02:48:44.000Z</time></trkpt>
        <trkpt lat="29.577772" lon="103.371207"><ele>1455.6547</ele><time>2026-07-24T02:48:46.000Z</time></trkpt>
        <trkpt lat="29.577752" lon="103.371191"><ele>1455.9258</ele><time>2026-07-24T02:48:56.000Z</time></trkpt>
        <trkpt lat="29.577746" lon="103.371186"><ele>1455.6003</ele><time>2026-07-24T02:48:58.000Z</time></trkpt>
        <trkpt lat="29.577741" lon="103.371181"><ele>1456.2648</ele><time>2026-07-24T02:49:00.000Z</time></trkpt>
        <trkpt lat="29.577724" lon="103.371168"><ele>1456.4718</ele><time>2026-07-24T02:49:04.000Z</time></trkpt>
        <trkpt lat="29.577717" lon="103.371162"><ele>1455.9193</ele><time>2026-07-24T02:49:06.000Z</time></trkpt>
        <trkpt lat="29.577709" lon="103.371155"><ele>1456.7947</ele><time>2026-07-24T02:49:08.000Z</time></trkpt>
        <trkpt lat="29.577692" lon="103.37114"><ele>1457.2037</ele><time>2026-07-24T02:49:12.000Z</time></trkpt>
        <trkpt lat="29.577682" lon="103.371132"><ele>1457.5905</ele><time>2026-07-24T02:49:14.000Z</time></trkpt>
        <trkpt lat="29.577671" lon="103.371122"><ele>1457.4589</ele><time>2026-07-24T02:49:16.000Z</time></trkpt>
        <trkpt lat="29.577664" lon="103.371115"><ele>1457.7693</ele><time>2026-07-24T02:49:18.000Z</time></trkpt>
        <trkpt lat="29.577658" lon="103.371109"><ele>1457.8844</ele><time>2026-07-24T02:49:20.000Z</time></trkpt>
        <trkpt lat="29.577646" lon="103.371104"><ele>1458.2194</ele><time>2026-07-24T02:49:24.000Z</time></trkpt>
        <trkpt lat="29.577634" lon="103.371098"><ele>1459.602</ele><time>2026-07-24T02:49:30.000Z</time></trkpt>
        <trkpt lat="29.57763" lon="103.371094"><ele>1460.8276</ele><time>2026-07-24T02:49:32.000Z</time></trkpt>
        <trkpt lat="29.577618" lon="103.371083"><ele>1462.5417</ele><time>2026-07-24T02:49:38.000Z</time></trkpt>
        <trkpt lat="29.577606" lon="103.371073"><ele>1463.821</ele><time>2026-07-24T02:49:42.000Z</time></trkpt>
        <trkpt lat="29.5776" lon="103.371069"><ele>1465.308</ele><time>2026-07-24T02:49:44.000Z</time></trkpt>
        <trkpt lat="29.577588" lon="103.371062"><ele>1466.2004</ele><time>2026-07-24T02:49:48.000Z</time></trkpt>
        <trkpt lat="29.577572" lon="103.371053"><ele>1465.5836</ele><time>2026-07-24T02:49:52.000Z</time></trkpt>
        <trkpt lat="29.57755" lon="103.37104"><ele>1465.3973</ele><time>2026-07-24T02:49:54.000Z</time></trkpt>
        <trkpt lat="29.577548" lon="103.371039"><ele>1465.0658</ele><time>2026-07-24T02:49:56.000Z</time></trkpt>
        <trkpt lat="29.577545" lon="103.371037"><ele>1464.9493</ele><time>2026-07-24T02:49:58.000Z</time></trkpt>
        <trkpt lat="29.577515" lon="103.371012"><ele>1465.9104</ele><time>2026-07-24T02:50:02.000Z</time></trkpt>
        <trkpt lat="29.577505" lon="103.371003"><ele>1465.5547</ele><time>2026-07-24T02:50:04.000Z</time></trkpt>
        <trkpt lat="29.5775" lon="103.370998"><ele>1465.6558</ele><time>2026-07-24T02:50:06.000Z</time></trkpt>
        <trkpt lat="29.57749" lon="103.37099"><ele>1466.7384</ele><time>2026-07-24T02:50:14.000Z</time></trkpt>
        <trkpt lat="29.577479" lon="103.370981"><ele>1466.4395</ele><time>2026-07-24T02:50:18.000Z</time></trkpt>
        <trkpt lat="29.57746" lon="103.370967"><ele>1466.6702</ele><time>2026-07-24T02:50:20.000Z</time></trkpt>
        <trkpt lat="29.577458" lon="103.370966"><ele>1467.6047</ele><time>2026-07-24T02:50:22.000Z</time></trkpt>
        <trkpt lat="29.577443" lon="103.37096"><ele>1468.0165</ele><time>2026-07-24T02:50:26.000Z</time></trkpt>
        <trkpt lat="29.577427" lon="103.370954"><ele>1468.1519</ele><time>2026-07-24T02:50:28.000Z</time></trkpt>
        <trkpt lat="29.577411" lon="103.37095"><ele>1466.1322</ele><time>2026-07-24T02:50:30.000Z</time></trkpt>
        <trkpt lat="29.577396" lon="103.370951"><ele>1466.6536</ele><time>2026-07-24T02:50:32.000Z</time></trkpt>
      </trkseg>
      <trkseg>
        <trkpt lat="29.577554" lon="103.371038"><ele>1467.6829</ele><time>2026-07-24T15:21:02.000Z</time></trkpt>
        <trkpt lat="29.577578" lon="103.371069"><ele>1466.6694</ele><time>2026-07-24T15:21:10.000Z</time></trkpt>
        <trkpt lat="29.577593" lon="103.371088"><ele>1465.1184</ele><time>2026-07-24T15:21:12.000Z</time></trkpt>
        <trkpt lat="29.577609" lon="103.371108"><ele>1464.9886</ele><time>2026-07-24T15:21:14.000Z</time></trkpt>
        <trkpt lat="29.577625" lon="103.371122"><ele>1464.69</ele><time>2026-07-24T15:21:16.000Z</time></trkpt>
        <trkpt lat="29.577638" lon="103.371131"><ele>1464.8066</ele><time>2026-07-24T15:21:18.000Z</time></trkpt>
        <trkpt lat="29.577649" lon="103.371136"><ele>1464.361</ele><time>2026-07-24T15:21:20.000Z</time></trkpt>
        <trkpt lat="29.577656" lon="103.371138"><ele>1463.664</ele><time>2026-07-24T15:21:22.000Z</time></trkpt>
        <trkpt lat="29.577674" lon="103.371141"><ele>1461.5306</ele><time>2026-07-24T15:21:25.000Z</time></trkpt>
        <trkpt lat="29.577683" lon="103.37114"><ele>1460.6058</ele><time>2026-07-24T15:21:27.000Z</time></trkpt>
        <trkpt lat="29.577694" lon="103.371135"><ele>1461.3142</ele><time>2026-07-24T15:21:29.000Z</time></trkpt>
        <trkpt lat="29.577695" lon="103.371127"><ele>1460.8798</ele><time>2026-07-24T15:21:32.000Z</time></trkpt>
        <trkpt lat="29.577695" lon="103.371103"><ele>1459.8672</ele><time>2026-07-24T15:21:36.000Z</time></trkpt>
        <trkpt lat="29.577692" lon="103.371089"><ele>1458.7319</ele><time>2026-07-24T15:21:38.000Z</time></trkpt>
        <trkpt lat="29.577687" lon="103.371075"><ele>1458.4731</ele><time>2026-07-24T15:21:40.000Z</time></trkpt>
        <trkpt lat="29.577679" lon="103.37106"><ele>1457.5244</ele><time>2026-07-24T15:21:42.000Z</time></trkpt>
        <trkpt lat="29.577669" lon="103.371041"><ele>1457.4241</ele><time>2026-07-24T15:21:44.000Z</time></trkpt>
        <trkpt lat="29.577659" lon="103.371023"><ele>1457.7831</ele><time>2026-07-24T15:21:46.000Z</time></trkpt>
        <trkpt lat="29.57765" lon="103.371006"><ele>1456.955</ele><time>2026-07-24T15:21:48.000Z</time></trkpt>
        <trkpt lat="29.577644" lon="103.370997"><ele>1456.9994</ele><time>2026-07-24T15:21:50.000Z</time></trkpt>
        <trkpt lat="29.577641" lon="103.37099"><ele>1456.2697</ele><time>2026-07-24T15:21:52.000Z</time></trkpt>
        <trkpt lat="29.577632" lon="103.370958"><ele>1457.0033</ele><time>2026-07-24T15:21:56.000Z</time></trkpt>
        <trkpt lat="29.577626" lon="103.370936"><ele>1456.836</ele><time>2026-07-24T15:21:58.000Z</time></trkpt>
        <trkpt lat="29.577619" lon="103.370911"><ele>1457.1581</ele><time>2026-07-24T15:22:00.000Z</time></trkpt>
        <trkpt lat="29.577609" lon="103.370885"><ele>1456.9491</ele><time>2026-07-24T15:22:02.000Z</time></trkpt>
        <trkpt lat="29.577597" lon="103.370858"><ele>1456.8103</ele><time>2026-07-24T15:22:04.000Z</time></trkpt>
        <trkpt lat="29.577584" lon="103.370831"><ele>1457.185</ele><time>2026-07-24T15:22:06.000Z</time></trkpt>
        <trkpt lat="29.577571" lon="103.370803"><ele>1457.0059</ele><time>2026-07-24T15:22:08.000Z</time></trkpt>
        <trkpt lat="29.57756" lon="103.370775"><ele>1458.5198</ele><time>2026-07-24T15:22:10.000Z</time></trkpt>
        <trkpt lat="29.577548" lon="103.37075"><ele>1458.3411</ele><time>2026-07-24T15:22:12.000Z</time></trkpt>
        <trkpt lat="29.577535" lon="103.370727"><ele>1458.935</ele><time>2026-07-24T15:22:14.000Z</time></trkpt>
        <trkpt lat="29.577521" lon="103.370703"><ele>1461.073</ele><time>2026-07-24T15:22:16.000Z</time></trkpt>
        <trkpt lat="29.577506" lon="103.370679"><ele>1463.2205</ele><time>2026-07-24T15:22:18.000Z</time></trkpt>
        <trkpt lat="29.577492" lon="103.37066"><ele>1462.6293</ele><time>2026-07-24T15:22:20.000Z</time></trkpt>
        <trkpt lat="29.57748" lon="103.370645"><ele>1462.8414</ele><time>2026-07-24T15:22:22.000Z</time></trkpt>
        <trkpt lat="29.577471" lon="103.370636"><ele>1462.9303</ele><time>2026-07-24T15:22:24.000Z</time></trkpt>
        <trkpt lat="29.577461" lon="103.370626"><ele>1461.901</ele><time>2026-07-24T15:22:26.000Z</time></trkpt>
        <trkpt lat="29.577449" lon="103.370617"><ele>1464.7045</ele><time>2026-07-24T15:22:28.000Z</time></trkpt>
        <trkpt lat="29.577437" lon="103.370609"><ele>1465.0029</ele><time>2026-07-24T15:22:30.000Z</time></trkpt>
        <trkpt lat="29.57742" lon="103.370598"><ele>1464.8859</ele><time>2026-07-24T15:22:32.000Z</time></trkpt>
        <trkpt lat="29.577408" lon="103.370591"><ele>1463.5018</ele><time>2026-07-24T15:22:34.000Z</time></trkpt>
        <trkpt lat="29.577406" lon="103.370585"><ele>1463.3058</ele><time>2026-07-24T15:22:36.000Z</time></trkpt>
        <trkpt lat="29.577392" lon="103.37057"><ele>1465.4622</ele><time>2026-07-24T15:23:04.000Z</time></trkpt>
        <trkpt lat="29.577368" lon="103.370546"><ele>1463.5747</ele><time>2026-07-24T15:23:06.000Z</time></trkpt>
        <trkpt lat="29.577366" lon="103.370545"><ele>1464.0425</ele><time>2026-07-24T15:23:08.000Z</time></trkpt>
        <trkpt lat="29.577319" lon="103.370515"><ele>1461.7937</ele><time>2026-07-24T15:23:11.000Z</time></trkpt>
        <trkpt lat="29.577319" lon="103.370514"><ele>1463.8898</ele><time>2026-07-24T15:23:13.000Z</time></trkpt>
        <trkpt lat="29.577314" lon="103.370509"><ele>1463.2324</ele><time>2026-07-24T15:23:15.000Z</time></trkpt>
        <trkpt lat="29.577298" lon="103.370492"><ele>1463.0657</ele><time>2026-07-24T15:23:17.000Z</time></trkpt>
        <trkpt lat="29.577274" lon="103.370464"><ele>1463.0789</ele><time>2026-07-24T15:23:19.000Z</time></trkpt>
        <trkpt lat="29.577248" lon="103.370435"><ele>1462.8003</ele><time>2026-07-24T15:23:21.000Z</time></trkpt>
        <trkpt lat="29.577226" lon="103.370407"><ele>1462.8223</ele><time>2026-07-24T15:23:23.000Z</time></trkpt>
        <trkpt lat="29.577204" lon="103.370384"><ele>1464.1073</ele><time>2026-07-24T15:23:25.000Z</time></trkpt>
        <trkpt lat="29.577185" lon="103.370366"><ele>1464.487</ele><time>2026-07-24T15:23:27.000Z</time></trkpt>
        <trkpt lat="29.577167" lon="103.370354"><ele>1464.5846</ele><time>2026-07-24T15:23:29.000Z</time></trkpt>
        <trkpt lat="29.57715" lon="103.370345"><ele>1464.433</ele><time>2026-07-24T15:23:31.000Z</time></trkpt>
        <trkpt lat="29.577136" lon="103.370337"><ele>1465.3805</ele><time>2026-07-24T15:23:33.000Z</time></trkpt>
        <trkpt lat="29.577122" lon="103.370327"><ele>1465.9266</ele><time>2026-07-24T15:23:35.000Z</time></trkpt>
        <trkpt lat="29.577108" lon="103.370314"><ele>1466.7856</ele><time>2026-07-24T15:23:37.000Z</time></trkpt>
        <trkpt lat="29.577094" lon="103.370298"><ele>1469.3529</ele><time>2026-07-24T15:23:39.000Z</time></trkpt>
        <trkpt lat="29.577082" lon="103.370282"><ele>1468.6948</ele><time>2026-07-24T15:23:41.000Z</time></trkpt>
        <trkpt lat="29.577072" lon="103.370262"><ele>1468.3824</ele><time>2026-07-24T15:23:43.000Z</time></trkpt>
        <trkpt lat="29.577059" lon="103.370242"><ele>1469.8018</ele><time>2026-07-24T15:23:45.000Z</time></trkpt>
        <trkpt lat="29.577049" lon="103.370224"><ele>1465.4607</ele><time>2026-07-24T15:23:47.000Z</time></trkpt>
        <trkpt lat="29.577038" lon="103.370206"><ele>1466.5206</ele><time>2026-07-24T15:23:49.000Z</time></trkpt>
        <trkpt lat="29.577024" lon="103.370185"><ele>1466.8939</ele><time>2026-07-24T15:23:51.000Z</time></trkpt>
        <trkpt lat="29.577009" lon="103.370162"><ele>1467.5378</ele><time>2026-07-24T15:23:53.000Z</time></trkpt>
        <trkpt lat="29.576997" lon="103.37014"><ele>1467.518</ele><time>2026-07-24T15:23:55.000Z</time></trkpt>
        <trkpt lat="29.576986" lon="103.370117"><ele>1468.9583</ele><time>2026-07-24T15:23:57.000Z</time></trkpt>
        <trkpt lat="29.576978" lon="103.370096"><ele>1469.2684</ele><time>2026-07-24T15:23:59.000Z</time></trkpt>
        <trkpt lat="29.57697" lon="103.370074"><ele>1468.2866</ele><time>2026-07-24T15:24:01.000Z</time></trkpt>
        <trkpt lat="29.576965" lon="103.370047"><ele>1469.8157</ele><time>2026-07-24T15:24:03.000Z</time></trkpt>
        <trkpt lat="29.576963" lon="103.370021"><ele>1470.8105</ele><time>2026-07-24T15:24:05.000Z</time></trkpt>
        <trkpt lat="29.576964" lon="103.370003"><ele>1472.053</ele><time>2026-07-24T15:24:07.000Z</time></trkpt>
        <trkpt lat="29.576965" lon="103.369986"><ele>1472.5068</ele><time>2026-07-24T15:24:09.000Z</time></trkpt>
        <trkpt lat="29.576963" lon="103.369973"><ele>1472.9027</ele><time>2026-07-24T15:24:11.000Z</time></trkpt>
        <trkpt lat="29.576963" lon="103.36996"><ele>1474.0424</ele><time>2026-07-24T15:24:13.000Z</time></trkpt>
        <trkpt lat="29.576964" lon="103.369948"><ele>1474.6417</ele><time>2026-07-24T15:24:15.000Z</time></trkpt>
        <trkpt lat="29.576964" lon="103.369936"><ele>1475.7546</ele><time>2026-07-24T15:24:17.000Z</time></trkpt>
        <trkpt lat="29.576963" lon="103.369923"><ele>1475.647</ele><time>2026-07-24T15:24:19.000Z</time></trkpt>
        <trkpt lat="29.576961" lon="103.36991"><ele>1475.7062</ele><time>2026-07-24T15:24:21.000Z</time></trkpt>
        <trkpt lat="29.57696" lon="103.369895"><ele>1476.5311</ele><time>2026-07-24T15:24:23.000Z</time></trkpt>
        <trkpt lat="29.576961" lon="103.369873"><ele>1476.0499</ele><time>2026-07-24T15:24:25.000Z</time></trkpt>
        <trkpt lat="29.576962" lon="103.369848"><ele>1476.347</ele><time>2026-07-24T15:24:27.000Z</time></trkpt>
        <trkpt lat="29.57696" lon="103.369824"><ele>1475.8826</ele><time>2026-07-24T15:24:29.000Z</time></trkpt>
        <trkpt lat="29.576955" lon="103.369799"><ele>1474.7632</ele><time>2026-07-24T15:24:31.000Z</time></trkpt>
        <trkpt lat="29.576949" lon="103.369779"><ele>1477.0782</ele><time>2026-07-24T15:24:33.000Z</time></trkpt>
        <trkpt lat="29.576942" lon="103.36976"><ele>1475.5829</ele><time>2026-07-24T15:24:35.000Z</time></trkpt>
        <trkpt lat="29.576936" lon="103.36974"><ele>1474.2339</ele><time>2026-07-24T15:24:37.000Z</time></trkpt>
        <trkpt lat="29.576933" lon="103.369719"><ele>1476.5549</ele><time>2026-07-24T15:24:39.000Z</time></trkpt>
        <trkpt lat="29.576933" lon="103.369701"><ele>1476.997</ele><time>2026-07-24T15:24:41.000Z</time></trkpt>
        <trkpt lat="29.576937" lon="103.369687"><ele>1474.8115</ele><time>2026-07-24T15:24:43.000Z</time></trkpt>
        <trkpt lat="29.576946" lon="103.369666"><ele>1477.0209</ele><time>2026-07-24T15:24:45.000Z</time></trkpt>
        <trkpt lat="29.576952" lon="103.369645"><ele>1476.143</ele><time>2026-07-24T15:24:47.000Z</time></trkpt>
        <trkpt lat="29.576957" lon="103.369628"><ele>1474.7667</ele><time>2026-07-24T15:24:49.000Z</time></trkpt>
        <trkpt lat="29.576962" lon="103.369613"><ele>1475.5604</ele><time>2026-07-24T15:24:51.000Z</time></trkpt>
        <trkpt lat="29.576964" lon="103.369593"><ele>1475.2781</ele><time>2026-07-24T15:24:53.000Z</time></trkpt>
        <trkpt lat="29.576965" lon="103.369575"><ele>1475.9883</ele><time>2026-07-24T15:24:55.000Z</time></trkpt>
        <trkpt lat="29.576967" lon="103.369556"><ele>1475.5504</ele><time>2026-07-24T15:24:57.000Z</time></trkpt>
        <trkpt lat="29.57697" lon="103.369533"><ele>1474.8866</ele><time>2026-07-24T15:24:59.000Z</time></trkpt>
        <trkpt lat="29.576972" lon="103.36951"><ele>1474.396</ele><time>2026-07-24T15:25:01.000Z</time></trkpt>
        <trkpt lat="29.576971" lon="103.369489"><ele>1473.8579</ele><time>2026-07-24T15:25:03.000Z</time></trkpt>
        <trkpt lat="29.576968" lon="103.369469"><ele>1474.3114</ele><time>2026-07-24T15:25:05.000Z</time></trkpt>
        <trkpt lat="29.576962" lon="103.36945"><ele>1474.3705</ele><time>2026-07-24T15:25:07.000Z</time></trkpt>
        <trkpt lat="29.576956" lon="103.369434"><ele>1473.7172</ele><time>2026-07-24T15:25:09.000Z</time></trkpt>
        <trkpt lat="29.576952" lon="103.369417"><ele>1476.2134</ele><time>2026-07-24T15:25:11.000Z</time></trkpt>
        <trkpt lat="29.576949" lon="103.369398"><ele>1474.8975</ele><time>2026-07-24T15:25:13.000Z</time></trkpt>
        <trkpt lat="29.576945" lon="103.369379"><ele>1476.9397</ele><time>2026-07-24T15:25:15.000Z</time></trkpt>
        <trkpt lat="29.576941" lon="103.369364"><ele>1477.48</ele><time>2026-07-24T15:25:17.000Z</time></trkpt>
        <trkpt lat="29.576937" lon="103.369345"><ele>1475.4615</ele><time>2026-07-24T15:25:19.000Z</time></trkpt>
        <trkpt lat="29.576934" lon="103.369326"><ele>1476.5114</ele><time>2026-07-24T15:25:21.000Z</time></trkpt>
        <trkpt lat="29.576932" lon="103.36931"><ele>1476.2064</ele><time>2026-07-24T15:25:23.000Z</time></trkpt>
        <trkpt lat="29.576931" lon="103.369295"><ele>1477.7579</ele><time>2026-07-24T15:25:25.000Z</time></trkpt>
        <trkpt lat="29.576931" lon="103.369275"><ele>1478.665</ele><time>2026-07-24T15:25:27.000Z</time></trkpt>
        <trkpt lat="29.576933" lon="103.369261"><ele>1478.5946</ele><time>2026-07-24T15:25:29.000Z</time></trkpt>
        <trkpt lat="29.576934" lon="103.369248"><ele>1479.8833</ele><time>2026-07-24T15:25:31.000Z</time></trkpt>
        <trkpt lat="29.576936" lon="103.369235"><ele>1480.5499</ele><time>2026-07-24T15:25:33.000Z</time></trkpt>
        <trkpt lat="29.576937" lon="103.369222"><ele>1478.7039</ele><time>2026-07-24T15:25:35.000Z</time></trkpt>
        <trkpt lat="29.576942" lon="103.369215"><ele>1481.4001</ele><time>2026-07-24T15:25:37.000Z</time></trkpt>
        <trkpt lat="29.576961" lon="103.369189"><ele>1482.7113</ele><time>2026-07-24T15:25:45.000Z</time></trkpt>
        <trkpt lat="29.576961" lon="103.369189"><ele>1482.6376</ele><time>2026-07-24T15:25:47.000Z</time></trkpt>
        <trkpt lat="29.576959" lon="103.369185"><ele>1483.5076</ele><time>2026-07-24T15:25:49.000Z</time></trkpt>
        <trkpt lat="29.576942" lon="103.369151"><ele>1482.7434</ele><time>2026-07-24T15:25:53.000Z</time></trkpt>
        <trkpt lat="29.576935" lon="103.36913"><ele>1483.9067</ele><time>2026-07-24T15:25:55.000Z</time></trkpt>
        <trkpt lat="29.576933" lon="103.369112"><ele>1482.9865</ele><time>2026-07-24T15:25:57.000Z</time></trkpt>
        <trkpt lat="29.576933" lon="103.369092"><ele>1482.5387</ele><time>2026-07-24T15:25:59.000Z</time></trkpt>
        <trkpt lat="29.576934" lon="103.369076"><ele>1484.4523</ele><time>2026-07-24T15:26:01.000Z</time></trkpt>
        <trkpt lat="29.576936" lon="103.369062"><ele>1483.5547</ele><time>2026-07-24T15:26:03.000Z</time></trkpt>
        <trkpt lat="29.576938" lon="103.369046"><ele>1481.5977</ele><time>2026-07-24T15:26:05.000Z</time></trkpt>
        <trkpt lat="29.576941" lon="103.369028"><ele>1482.5895</ele><time>2026-07-24T15:26:07.000Z</time></trkpt>
        <trkpt lat="29.576944" lon="103.369012"><ele>1481.5426</ele><time>2026-07-24T15:26:09.000Z</time></trkpt>
        <trkpt lat="29.576945" lon="103.368995"><ele>1480.9939</ele><time>2026-07-24T15:26:11.000Z</time></trkpt>
        <trkpt lat="29.576945" lon="103.368974"><ele>1482.5787</ele><time>2026-07-24T15:26:13.000Z</time></trkpt>
        <trkpt lat="29.576946" lon="103.368952"><ele>1481.5875</ele><time>2026-07-24T15:26:15.000Z</time></trkpt>
        <trkpt lat="29.576946" lon="103.368931"><ele>1481.1776</ele><time>2026-07-24T15:26:17.000Z</time></trkpt>
        <trkpt lat="29.576946" lon="103.368911"><ele>1480.7754</ele><time>2026-07-24T15:26:19.000Z</time></trkpt>
        <trkpt lat="29.576944" lon="103.368889"><ele>1480.1971</ele><time>2026-07-24T15:26:21.000Z</time></trkpt>
        <trkpt lat="29.576942" lon="103.368866"><ele>1479.5557</ele><time>2026-07-24T15:26:23.000Z</time></trkpt>
        <trkpt lat="29.576941" lon="103.368843"><ele>1477.6511</ele><time>2026-07-24T15:26:25.000Z</time></trkpt>
        <trkpt lat="29.57694" lon="103.368821"><ele>1478.0836</ele><time>2026-07-24T15:26:27.000Z</time></trkpt>
        <trkpt lat="29.57694" lon="103.368799"><ele>1477.7544</ele><time>2026-07-24T15:26:29.000Z</time></trkpt>
        <trkpt lat="29.576942" lon="103.368772"><ele>1478.6737</ele><time>2026-07-24T15:26:31.000Z</time></trkpt>
        <trkpt lat="29.576943" lon="103.368748"><ele>1477.4534</ele><time>2026-07-24T15:26:33.000Z</time></trkpt>
        <trkpt lat="29.576944" lon="103.368724"><ele>1477.1494</ele><time>2026-07-24T15:26:35.000Z</time></trkpt>
        <trkpt lat="29.576946" lon="103.368702"><ele>1477.2797</ele><time>2026-07-24T15:26:37.000Z</time></trkpt>
        <trkpt lat="29.576948" lon="103.368677"><ele>1476.277</ele><time>2026-07-24T15:26:39.000Z</time></trkpt>
        <trkpt lat="29.576952" lon="103.368652"><ele>1477.3433</ele><time>2026-07-24T15:26:41.000Z</time></trkpt>
        <trkpt lat="29.576956" lon="103.368629"><ele>1475.2452</ele><time>2026-07-24T15:26:43.000Z</time></trkpt>
        <trkpt lat="29.57696" lon="103.368607"><ele>1476.3568</ele><time>2026-07-24T15:26:45.000Z</time></trkpt>
        <trkpt lat="29.576963" lon="103.368585"><ele>1476.2203</ele><time>2026-07-24T15:26:47.000Z</time></trkpt>
        <trkpt lat="29.576965" lon="103.368564"><ele>1476.3578</ele><time>2026-07-24T15:26:49.000Z</time></trkpt>
        <trkpt lat="29.576967" lon="103.368543"><ele>1477.7844</ele><time>2026-07-24T15:26:51.000Z</time></trkpt>
        <trkpt lat="29.57697" lon="103.368522"><ele>1476.1516</ele><time>2026-07-24T15:26:53.000Z</time></trkpt>
        <trkpt lat="29.576973" lon="103.368504"><ele>1477.4213</ele><time>2026-07-24T15:26:55.000Z</time></trkpt>
        <trkpt lat="29.576978" lon="103.368486"><ele>1476.2151</ele><time>2026-07-24T15:26:57.000Z</time></trkpt>
        <trkpt lat="29.576984" lon="103.368463"><ele>1476.6903</ele><time>2026-07-24T15:26:59.000Z</time></trkpt>
        <trkpt lat="29.57699" lon="103.368441"><ele>1475.8743</ele><time>2026-07-24T15:27:01.000Z</time></trkpt>
        <trkpt lat="29.576995" lon="103.368419"><ele>1477.2543</ele><time>2026-07-24T15:27:03.000Z</time></trkpt>
        <trkpt lat="29.577" lon="103.368401"><ele>1477.3907</ele><time>2026-07-24T15:27:05.000Z</time></trkpt>
        <trkpt lat="29.577002" lon="103.368383"><ele>1479.2826</ele><time>2026-07-24T15:27:07.000Z</time></trkpt>
        <trkpt lat="29.577003" lon="103.368368"><ele>1480.0707</ele><time>2026-07-24T15:27:09.000Z</time></trkpt>
        <trkpt lat="29.577005" lon="103.368351"><ele>1479.313</ele><time>2026-07-24T15:27:11.000Z</time></trkpt>
        <trkpt lat="29.577007" lon="103.368338"><ele>1481.3733</ele><time>2026-07-24T15:27:13.000Z</time></trkpt>
        <trkpt lat="29.577008" lon="103.368327"><ele>1481.3193</ele><time>2026-07-24T15:27:15.000Z</time></trkpt>
        <trkpt lat="29.577009" lon="103.368313"><ele>1482.1658</ele><time>2026-07-24T15:27:17.000Z</time></trkpt>
        <trkpt lat="29.577012" lon="103.368297"><ele>1482.2328</ele><time>2026-07-24T15:27:19.000Z</time></trkpt>
        <trkpt lat="29.577016" lon="103.368281"><ele>1481.961</ele><time>2026-07-24T15:27:21.000Z</time></trkpt>
        <trkpt lat="29.57702" lon="103.368265"><ele>1482.8899</ele><time>2026-07-24T15:27:23.000Z</time></trkpt>
        <trkpt lat="29.577022" lon="103.368249"><ele>1483.897</ele><time>2026-07-24T15:27:25.000Z</time></trkpt>
        <trkpt lat="29.577022" lon="103.368234"><ele>1484.0817</ele><time>2026-07-24T15:27:27.000Z</time></trkpt>
        <trkpt lat="29.577023" lon="103.368221"><ele>1484.7864</ele><time>2026-07-24T15:27:29.000Z</time></trkpt>
        <trkpt lat="29.577023" lon="103.368209"><ele>1483.699</ele><time>2026-07-24T15:27:31.000Z</time></trkpt>
        <trkpt lat="29.577021" lon="103.368199"><ele>1484.3787</ele><time>2026-07-24T15:27:33.000Z</time></trkpt>
        <trkpt lat="29.577021" lon="103.368185"><ele>1485.7789</ele><time>2026-07-24T15:27:37.000Z</time></trkpt>
        <trkpt lat="29.57702" lon="103.368172"><ele>1487.3566</ele><time>2026-07-24T15:27:41.000Z</time></trkpt>
        <trkpt lat="29.577021" lon="103.368163"><ele>1490.0361</ele><time>2026-07-24T15:27:45.000Z</time></trkpt>
        <trkpt lat="29.577024" lon="103.368147"><ele>1490.9202</ele><time>2026-07-24T15:27:49.000Z</time></trkpt>
        <trkpt lat="29.577025" lon="103.368135"><ele>1492.033</ele><time>2026-07-24T15:27:53.000Z</time></trkpt>
        <trkpt lat="29.577023" lon="103.368129"><ele>1491.5659</ele><time>2026-07-24T15:27:55.000Z</time></trkpt>
        <trkpt lat="29.577019" lon="103.368106"><ele>1493.0637</ele><time>2026-07-24T15:28:05.000Z</time></trkpt>
        <trkpt lat="29.577021" lon="103.368106"><ele>1491.5068</ele><time>2026-07-24T15:28:07.000Z</time></trkpt>
        <trkpt lat="29.577037" lon="103.368099"><ele>1494.4253</ele><time>2026-07-24T15:28:15.000Z</time></trkpt>
        <trkpt lat="29.577047" lon="103.368085"><ele>1495.3903</ele><time>2026-07-24T15:28:21.000Z</time></trkpt>
        <trkpt lat="29.577095" lon="103.368019"><ele>1493.2433</ele><time>2026-07-24T15:28:37.000Z</time></trkpt>
        <trkpt lat="29.57711" lon="103.368005"><ele>1496.9147</ele><time>2026-07-24T15:28:52.000Z</time></trkpt>
        <trkpt lat="29.577114" lon="103.368002"><ele>1497.7253</ele><time>2026-07-24T15:28:54.000Z</time></trkpt>
        <trkpt lat="29.577118" lon="103.367994"><ele>1497.636</ele><time>2026-07-24T15:28:58.000Z</time></trkpt>
        <trkpt lat="29.577126" lon="103.367976"><ele>1499.7003</ele><time>2026-07-24T15:29:08.000Z</time></trkpt>
        <trkpt lat="29.577129" lon="103.367973"><ele>1499.34</ele><time>2026-07-24T15:29:10.000Z</time></trkpt>
        <trkpt lat="29.57714" lon="103.36797"><ele>1499.7883</ele><time>2026-07-24T15:29:14.000Z</time></trkpt>
        <trkpt lat="29.577156" lon="103.367963"><ele>1500.2354</ele><time>2026-07-24T15:29:24.000Z</time></trkpt>
        <trkpt lat="29.577159" lon="103.367961"><ele>1502.1941</ele><time>2026-07-24T15:29:28.000Z</time></trkpt>
        <trkpt lat="29.57717" lon="103.367955"><ele>1501.963</ele><time>2026-07-24T15:29:32.000Z</time></trkpt>
        <trkpt lat="29.577193" lon="103.367942"><ele>1500.5182</ele><time>2026-07-24T15:29:36.000Z</time></trkpt>
        <trkpt lat="29.577193" lon="103.367942"><ele>1500.4202</ele><time>2026-07-24T15:29:38.000Z</time></trkpt>
        <trkpt lat="29.577198" lon="103.367934"><ele>1500.8932</ele><time>2026-07-24T15:29:42.000Z</time></trkpt>
        <trkpt lat="29.577209" lon="103.367913"><ele>1503.4818</ele><time>2026-07-24T15:29:52.000Z</time></trkpt>
        <trkpt lat="29.57721" lon="103.36791"><ele>1503.783</ele><time>2026-07-24T15:29:54.000Z</time></trkpt>
        <trkpt lat="29.577229" lon="103.367851"><ele>1505.4113</ele><time>2026-07-24T15:30:10.000Z</time></trkpt>
        <trkpt lat="29.577231" lon="103.367849"><ele>1505.3375</ele><time>2026-07-24T15:30:12.000Z</time></trkpt>
        <trkpt lat="29.577232" lon="103.367845"><ele>1505.4613</ele><time>2026-07-24T15:30:14.000Z</time></trkpt>
        <trkpt lat="29.577238" lon="103.367817"><ele>1507.5166</ele><time>2026-07-24T15:30:26.000Z</time></trkpt>
        <trkpt lat="29.577239" lon="103.367808"><ele>1507.6951</ele><time>2026-07-24T15:30:28.000Z</time></trkpt>
        <trkpt lat="29.57724" lon="103.367798"><ele>1507.7021</ele><time>2026-07-24T15:30:30.000Z</time></trkpt>
        <trkpt lat="29.577239" lon="103.367781"><ele>1507.8043</ele><time>2026-07-24T15:30:34.000Z</time></trkpt>
        <trkpt lat="29.577238" lon="103.367774"><ele>1507.3806</ele><time>2026-07-24T15:30:36.000Z</time></trkpt>
        <trkpt lat="29.577234" lon="103.367759"><ele>1507.7192</ele><time>2026-07-24T15:30:40.000Z</time></trkpt>
        <trkpt lat="29.577214" lon="103.367721"><ele>1510.3953</ele><time>2026-07-24T15:30:57.000Z</time></trkpt>
        <trkpt lat="29.577206" lon="103.367704"><ele>1511.47</ele><time>2026-07-24T15:31:06.000Z</time></trkpt>
        <trkpt lat="29.5772" lon="103.367689"><ele>1511.7843</ele><time>2026-07-24T15:31:08.000Z</time></trkpt>
        <trkpt lat="29.5772" lon="103.367688"><ele>1511.5713</ele><time>2026-07-24T15:31:10.000Z</time></trkpt>
        <trkpt lat="29.577199" lon="103.367665"><ele>1511.5242</ele><time>2026-07-24T15:31:16.000Z</time></trkpt>
        <trkpt lat="29.577198" lon="103.367655"><ele>1511.534</ele><time>2026-07-24T15:31:18.000Z</time></trkpt>
        <trkpt lat="29.577194" lon="103.36765"><ele>1511.2181</ele><time>2026-07-24T15:31:20.000Z</time></trkpt>
        <trkpt lat="29.577179" lon="103.367632"><ele>1508.8142</ele><time>2026-07-24T15:31:28.000Z</time></trkpt>
        <trkpt lat="29.577172" lon="103.367624"><ele>1507.9818</ele><time>2026-07-24T15:31:30.000Z</time></trkpt>
        <trkpt lat="29.577171" lon="103.367623"><ele>1507.5107</ele><time>2026-07-24T15:31:32.000Z</time></trkpt>
        <trkpt lat="29.577137" lon="103.367599"><ele>1505.647</ele><time>2026-07-24T15:31:38.000Z</time></trkpt>
        <trkpt lat="29.577118" lon="103.367583"><ele>1505.9253</ele><time>2026-07-24T15:31:40.000Z</time></trkpt>
        <trkpt lat="29.577097" lon="103.367564"><ele>1508.1064</ele><time>2026-07-24T15:31:42.000Z</time></trkpt>
        <trkpt lat="29.577079" lon="103.367544"><ele>1507.9269</ele><time>2026-07-24T15:31:44.000Z</time></trkpt>
        <trkpt lat="29.577064" lon="103.367525"><ele>1506.922</ele><time>2026-07-24T15:31:46.000Z</time></trkpt>
        <trkpt lat="29.577052" lon="103.367506"><ele>1507.6372</ele><time>2026-07-24T15:31:48.000Z</time></trkpt>
        <trkpt lat="29.577045" lon="103.367489"><ele>1506.4906</ele><time>2026-07-24T15:31:50.000Z</time></trkpt>
        <trkpt lat="29.577039" lon="103.367469"><ele>1506.6409</ele><time>2026-07-24T15:31:52.000Z</time></trkpt>
        <trkpt lat="29.577033" lon="103.36745"><ele>1506.863</ele><time>2026-07-24T15:31:54.000Z</time></trkpt>
        <trkpt lat="29.577026" lon="103.36743"><ele>1506.7015</ele><time>2026-07-24T15:31:56.000Z</time></trkpt>
        <trkpt lat="29.577016" lon="103.367411"><ele>1505.8467</ele><time>2026-07-24T15:31:58.000Z</time></trkpt>
        <trkpt lat="29.577004" lon="103.367392"><ele>1506.9777</ele><time>2026-07-24T15:32:00.000Z</time></trkpt>
        <trkpt lat="29.576992" lon="103.367379"><ele>1505.768</ele><time>2026-07-24T15:32:02.000Z</time></trkpt>
        <trkpt lat="29.576981" lon="103.367371"><ele>1504.5653</ele><time>2026-07-24T15:32:04.000Z</time></trkpt>
        <trkpt lat="29.576977" lon="103.367367"><ele>1505.1864</ele><time>2026-07-24T15:32:06.000Z</time></trkpt>
        <trkpt lat="29.576952" lon="103.367334"><ele>1504.0708</ele><time>2026-07-24T15:32:50.000Z</time></trkpt>
        <trkpt lat="29.576952" lon="103.367334"><ele>1503.7887</ele><time>2026-07-24T15:32:52.000Z</time></trkpt>
        <trkpt lat="29.576949" lon="103.367332"><ele>1503.2034</ele><time>2026-07-24T15:32:54.000Z</time></trkpt>
        <trkpt lat="29.57692" lon="103.367312"><ele>1501.0988</ele><time>2026-07-24T15:32:56.000Z</time></trkpt>
        <trkpt lat="29.576918" lon="103.36731"><ele>1503.2164</ele><time>2026-07-24T15:32:58.000Z</time></trkpt>
        <trkpt lat="29.576914" lon="103.367307"><ele>1501.791</ele><time>2026-07-24T15:33:00.000Z</time></trkpt>
        <trkpt lat="29.576869" lon="103.367278"><ele>1503.1906</ele><time>2026-07-24T15:33:04.000Z</time></trkpt>
        <trkpt lat="29.576843" lon="103.367265"><ele>1502.1317</ele><time>2026-07-24T15:33:06.000Z</time></trkpt>
        <trkpt lat="29.576819" lon="103.367251"><ele>1502.2683</ele><time>2026-07-24T15:33:08.000Z</time></trkpt>
        <trkpt lat="29.576798" lon="103.367238"><ele>1502.3677</ele><time>2026-07-24T15:33:10.000Z</time></trkpt>
        <trkpt lat="29.576783" lon="103.367227"><ele>1502.3142</ele><time>2026-07-24T15:33:12.000Z</time></trkpt>
        <trkpt lat="29.576775" lon="103.367216"><ele>1501.232</ele><time>2026-07-24T15:33:14.000Z</time></trkpt>
        <trkpt lat="29.576766" lon="103.367198"><ele>1502.7096</ele><time>2026-07-24T15:33:16.000Z</time></trkpt>
        <trkpt lat="29.576756" lon="103.367179"><ele>1503.5641</ele><time>2026-07-24T15:33:18.000Z</time></trkpt>
        <trkpt lat="29.576744" lon="103.367158"><ele>1503.2954</ele><time>2026-07-24T15:33:20.000Z</time></trkpt>
        <trkpt lat="29.576733" lon="103.367138"><ele>1502.1335</ele><time>2026-07-24T15:33:22.000Z</time></trkpt>
        <trkpt lat="29.57672" lon="103.367119"><ele>1500.4423</ele><time>2026-07-24T15:33:24.000Z</time></trkpt>
        <trkpt lat="29.576708" lon="103.367102"><ele>1500.0121</ele><time>2026-07-24T15:33:26.000Z</time></trkpt>
        <trkpt lat="29.576696" lon="103.367087"><ele>1500.4303</ele><time>2026-07-24T15:33:28.000Z</time></trkpt>
        <trkpt lat="29.576686" lon="103.367073"><ele>1500.5079</ele><time>2026-07-24T15:33:30.000Z</time></trkpt>
        <trkpt lat="29.576676" lon="103.367055"><ele>1501.334</ele><time>2026-07-24T15:33:32.000Z</time></trkpt>
        <trkpt lat="29.576668" lon="103.367036"><ele>1500.9746</ele><time>2026-07-24T15:33:34.000Z</time></trkpt>
        <trkpt lat="29.576659" lon="103.367016"><ele>1500.3562</ele><time>2026-07-24T15:33:36.000Z</time></trkpt>
        <trkpt lat="29.576647" lon="103.366993"><ele>1500.6716</ele><time>2026-07-24T15:33:38.000Z</time></trkpt>
        <trkpt lat="29.576636" lon="103.366969"><ele>1500.754</ele><time>2026-07-24T15:33:40.000Z</time></trkpt>
        <trkpt lat="29.576626" lon="103.366949"><ele>1501.9796</ele><time>2026-07-24T15:33:42.000Z</time></trkpt>
        <trkpt lat="29.576617" lon="103.366932"><ele>1501.4642</ele><time>2026-07-24T15:33:44.000Z</time></trkpt>
        <trkpt lat="29.576607" lon="103.366917"><ele>1501.7501</ele><time>2026-07-24T15:33:46.000Z</time></trkpt>
        <trkpt lat="29.576596" lon="103.366903"><ele>1500.6023</ele><time>2026-07-24T15:33:48.000Z</time></trkpt>
        <trkpt lat="29.576582" lon="103.366886"><ele>1500.1202</ele><time>2026-07-24T15:33:50.000Z</time></trkpt>
        <trkpt lat="29.576569" lon="103.366873"><ele>1500.4883</ele><time>2026-07-24T15:33:52.000Z</time></trkpt>
        <trkpt lat="29.576555" lon="103.366859"><ele>1499.8877</ele><time>2026-07-24T15:33:54.000Z</time></trkpt>
        <trkpt lat="29.57654" lon="103.366845"><ele>1501.3275</ele><time>2026-07-24T15:33:56.000Z</time></trkpt>
        <trkpt lat="29.576521" lon="103.366829"><ele>1500.8112</ele><time>2026-07-24T15:33:58.000Z</time></trkpt>
        <trkpt lat="29.576503" lon="103.366816"><ele>1500.509</ele><time>2026-07-24T15:34:00.000Z</time></trkpt>
        <trkpt lat="29.576483" lon="103.366801"><ele>1499.8248</ele><time>2026-07-24T15:34:02.000Z</time></trkpt>
        <trkpt lat="29.576464" lon="103.366782"><ele>1500.7146</ele><time>2026-07-24T15:34:04.000Z</time></trkpt>
        <trkpt lat="29.576447" lon="103.366761"><ele>1501.4117</ele><time>2026-07-24T15:34:06.000Z</time></trkpt>
        <trkpt lat="29.576432" lon="103.366743"><ele>1502.1193</ele><time>2026-07-24T15:34:08.000Z</time></trkpt>
        <trkpt lat="29.576416" lon="103.366723"><ele>1502.6685</ele><time>2026-07-24T15:34:10.000Z</time></trkpt>
        <trkpt lat="29.576401" lon="103.366706"><ele>1500.8427</ele><time>2026-07-24T15:34:12.000Z</time></trkpt>
        <trkpt lat="29.576389" lon="103.366691"><ele>1500.7761</ele><time>2026-07-24T15:34:14.000Z</time></trkpt>
        <trkpt lat="29.576376" lon="103.366674"><ele>1500.6401</ele><time>2026-07-24T15:34:16.000Z</time></trkpt>
        <trkpt lat="29.576367" lon="103.366657"><ele>1500.9146</ele><time>2026-07-24T15:34:18.000Z</time></trkpt>
        <trkpt lat="29.576358" lon="103.366636"><ele>1501.9512</ele><time>2026-07-24T15:34:20.000Z</time></trkpt>
        <trkpt lat="29.57635" lon="103.366614"><ele>1502.4814</ele><time>2026-07-24T15:34:22.000Z</time></trkpt>
        <trkpt lat="29.576342" lon="103.366589"><ele>1502.5358</ele><time>2026-07-24T15:34:24.000Z</time></trkpt>
        <trkpt lat="29.576337" lon="103.36657"><ele>1501.133</ele><time>2026-07-24T15:34:26.000Z</time></trkpt>
        <trkpt lat="29.576333" lon="103.366551"><ele>1501.391</ele><time>2026-07-24T15:34:28.000Z</time></trkpt>
        <trkpt lat="29.576327" lon="103.366533"><ele>1500.9169</ele><time>2026-07-24T15:34:30.000Z</time></trkpt>
        <trkpt lat="29.576321" lon="103.366519"><ele>1499.9291</ele><time>2026-07-24T15:34:32.000Z</time></trkpt>
        <trkpt lat="29.576315" lon="103.366505"><ele>1499.5908</ele><time>2026-07-24T15:34:34.000Z</time></trkpt>
        <trkpt lat="29.576308" lon="103.366493"><ele>1498.312</ele><time>2026-07-24T15:34:36.000Z</time></trkpt>
        <trkpt lat="29.576301" lon="103.366481"><ele>1499.0548</ele><time>2026-07-24T15:34:38.000Z</time></trkpt>
        <trkpt lat="29.576292" lon="103.366467"><ele>1498.0309</ele><time>2026-07-24T15:34:40.000Z</time></trkpt>
        <trkpt lat="29.576284" lon="103.366455"><ele>1497.4529</ele><time>2026-07-24T15:34:42.000Z</time></trkpt>
        <trkpt lat="29.576277" lon="103.366443"><ele>1496.3047</ele><time>2026-07-24T15:34:44.000Z</time></trkpt>
        <trkpt lat="29.576273" lon="103.366432"><ele>1497.5206</ele><time>2026-07-24T15:34:46.000Z</time></trkpt>
        <trkpt lat="29.576268" lon="103.366419"><ele>1496.2865</ele><time>2026-07-24T15:34:48.000Z</time></trkpt>
        <trkpt lat="29.576264" lon="103.366407"><ele>1496.3711</ele><time>2026-07-24T15:34:50.000Z</time></trkpt>
        <trkpt lat="29.576259" lon="103.366392"><ele>1496.7234</ele><time>2026-07-24T15:34:52.000Z</time></trkpt>
        <trkpt lat="29.576256" lon="103.366379"><ele>1495.5967</ele><time>2026-07-24T15:34:54.000Z</time></trkpt>
        <trkpt lat="29.576255" lon="103.366365"><ele>1494.0825</ele><time>2026-07-24T15:34:56.000Z</time></trkpt>
        <trkpt lat="29.576254" lon="103.366353"><ele>1494.0715</ele><time>2026-07-24T15:34:58.000Z</time></trkpt>
        <trkpt lat="29.576253" lon="103.366342"><ele>1494.5697</ele><time>2026-07-24T15:35:00.000Z</time></trkpt>
        <trkpt lat="29.576248" lon="103.366329"><ele>1495.6035</ele><time>2026-07-24T15:35:04.000Z</time></trkpt>
        <trkpt lat="29.576239" lon="103.366303"><ele>1496.017</ele><time>2026-07-24T15:35:40.000Z</time></trkpt>
        <trkpt lat="29.576233" lon="103.366287"><ele>1496.2422</ele><time>2026-07-24T15:35:42.000Z</time></trkpt>
        <trkpt lat="29.576234" lon="103.366286"><ele>1495.0135</ele><time>2026-07-24T15:35:44.000Z</time></trkpt>
        <trkpt lat="29.576238" lon="103.366267"><ele>1493.9583</ele><time>2026-07-24T15:35:50.000Z</time></trkpt>
        <trkpt lat="29.576244" lon="103.366242"><ele>1493.8348</ele><time>2026-07-24T15:35:52.000Z</time></trkpt>
        <trkpt lat="29.576244" lon="103.36624"><ele>1493.7606</ele><time>2026-07-24T15:35:54.000Z</time></trkpt>
        <trkpt lat="29.576253" lon="103.366233"><ele>1493.067</ele><time>2026-07-24T15:35:58.000Z</time></trkpt>
        <trkpt lat="29.57627" lon="103.36622"><ele>1491.8654</ele><time>2026-07-24T15:36:02.000Z</time></trkpt>
        <trkpt lat="29.57627" lon="103.36622"><ele>1491.8253</ele><time>2026-07-24T15:36:04.000Z</time></trkpt>
        <trkpt lat="29.576255" lon="103.366189"><ele>1490.1384</ele><time>2026-07-24T15:36:42.000Z</time></trkpt>
        <trkpt lat="29.576252" lon="103.366182"><ele>1489.624</ele><time>2026-07-24T15:36:44.000Z</time></trkpt>
        <trkpt lat="29.576249" lon="103.366173"><ele>1489.5092</ele><time>2026-07-24T15:36:46.000Z</time></trkpt>
        <trkpt lat="29.576241" lon="103.366154"><ele>1488.7081</ele><time>2026-07-24T15:36:50.000Z</time></trkpt>
        <trkpt lat="29.576238" lon="103.366147"><ele>1488.9646</ele><time>2026-07-24T15:36:52.000Z</time></trkpt>
        <trkpt lat="29.576232" lon="103.366141"><ele>1489.0001</ele><time>2026-07-24T15:36:54.000Z</time></trkpt>
        <trkpt lat="29.576219" lon="103.366121"><ele>1488.4818</ele><time>2026-07-24T15:36:58.000Z</time></trkpt>
        <trkpt lat="29.576201" lon="103.366094"><ele>1486.3914</ele><time>2026-07-24T15:37:15.000Z</time></trkpt>
        <trkpt lat="29.576197" lon="103.366089"><ele>1485.8403</ele><time>2026-07-24T15:37:17.000Z</time></trkpt>
        <trkpt lat="29.576193" lon="103.366083"><ele>1485.0012</ele><time>2026-07-24T15:37:19.000Z</time></trkpt>
        <trkpt lat="29.576177" lon="103.366064"><ele>1484.3916</ele><time>2026-07-24T15:37:25.000Z</time></trkpt>
        <trkpt lat="29.576174" lon="103.366062"><ele>1482.4847</ele><time>2026-07-24T15:37:27.000Z</time></trkpt>
        <trkpt lat="29.576171" lon="103.366055"><ele>1482.7601</ele><time>2026-07-24T15:37:29.000Z</time></trkpt>
        <trkpt lat="29.576155" lon="103.366024"><ele>1482.2584</ele><time>2026-07-24T15:37:33.000Z</time></trkpt>
        <trkpt lat="29.576155" lon="103.366024"><ele>1481.6249</ele><time>2026-07-24T15:37:35.000Z</time></trkpt>
        <trkpt lat="29.576154" lon="103.366023"><ele>1481.121</ele><time>2026-07-24T15:37:37.000Z</time></trkpt>
        <trkpt lat="29.576123" lon="103.36599"><ele>1479.5183</ele><time>2026-07-24T15:37:43.000Z</time></trkpt>
        <trkpt lat="29.576115" lon="103.365982"><ele>1478.6757</ele><time>2026-07-24T15:37:45.000Z</time></trkpt>
        <trkpt lat="29.576109" lon="103.365973"><ele>1479.0857</ele><time>2026-07-24T15:37:47.000Z</time></trkpt>
        <trkpt lat="29.576103" lon="103.365961"><ele>1478.7106</ele><time>2026-07-24T15:37:51.000Z</time></trkpt>
        <trkpt lat="29.576096" lon="103.36595"><ele>1478.9476</ele><time>2026-07-24T15:37:55.000Z</time></trkpt>
        <trkpt lat="29.576091" lon="103.365944"><ele>1477.6704</ele><time>2026-07-24T15:37:57.000Z</time></trkpt>
        <trkpt lat="29.576082" lon="103.365934"><ele>1476.5945</ele><time>2026-07-24T15:38:01.000Z</time></trkpt>
        <trkpt lat="29.576073" lon="103.365926"><ele>1476.2382</ele><time>2026-07-24T15:38:05.000Z</time></trkpt>
        <trkpt lat="29.576067" lon="103.365922"><ele>1476.5272</ele><time>2026-07-24T15:38:07.000Z</time></trkpt>
        <trkpt lat="29.576045" lon="103.36591"><ele>1474.9069</ele><time>2026-07-24T15:38:11.000Z</time></trkpt>
        <trkpt lat="29.576045" lon="103.36591"><ele>1473.9282</ele><time>2026-07-24T15:38:13.000Z</time></trkpt>
        <trkpt lat="29.576032" lon="103.365907"><ele>1474.0156</ele><time>2026-07-24T15:38:17.000Z</time></trkpt>
        <trkpt lat="29.576003" lon="103.365898"><ele>1472.9259</ele><time>2026-07-24T15:38:21.000Z</time></trkpt>
        <trkpt lat="29.575991" lon="103.365893"><ele>1472.818</ele><time>2026-07-24T15:38:23.000Z</time></trkpt>
        <trkpt lat="29.57598" lon="103.365887"><ele>1472.1217</ele><time>2026-07-24T15:38:25.000Z</time></trkpt>
        <trkpt lat="29.57597" lon="103.365881"><ele>1471.9006</ele><time>2026-07-24T15:38:27.000Z</time></trkpt>
        <trkpt lat="29.575962" lon="103.365875"><ele>1471.2947</ele><time>2026-07-24T15:38:29.000Z</time></trkpt>
        <trkpt lat="29.575953" lon="103.365868"><ele>1471.7942</ele><time>2026-07-24T15:38:31.000Z</time></trkpt>
        <trkpt lat="29.575944" lon="103.365861"><ele>1471.6245</ele><time>2026-07-24T15:38:33.000Z</time></trkpt>
        <trkpt lat="29.575935" lon="103.365854"><ele>1470.8071</ele><time>2026-07-24T15:38:35.000Z</time></trkpt>
        <trkpt lat="29.575925" lon="103.365845"><ele>1471.7219</ele><time>2026-07-24T15:38:37.000Z</time></trkpt>
        <trkpt lat="29.575918" lon="103.365838"><ele>1471.8257</ele><time>2026-07-24T15:38:39.000Z</time></trkpt>
        <trkpt lat="29.575911" lon="103.365829"><ele>1471.5344</ele><time>2026-07-24T15:38:41.000Z</time></trkpt>
        <trkpt lat="29.575903" lon="103.365822"><ele>1472.4028</ele><time>2026-07-24T15:38:43.000Z</time></trkpt>
        <trkpt lat="29.575895" lon="103.365818"><ele>1470.805</ele><time>2026-07-24T15:38:45.000Z</time></trkpt>
        <trkpt lat="29.575873" lon="103.365807"><ele>1471.5426</ele><time>2026-07-24T15:38:49.000Z</time></trkpt>
        <trkpt lat="29.575861" lon="103.365803"><ele>1471.149</ele><time>2026-07-24T15:38:51.000Z</time></trkpt>
        <trkpt lat="29.57585" lon="103.365799"><ele>1470.8397</ele><time>2026-07-24T15:38:53.000Z</time></trkpt>
        <trkpt lat="29.575842" lon="103.365797"><ele>1472.0115</ele><time>2026-07-24T15:38:55.000Z</time></trkpt>
        <trkpt lat="29.575833" lon="103.365795"><ele>1470.7454</ele><time>2026-07-24T15:38:57.000Z</time></trkpt>
        <trkpt lat="29.575819" lon="103.365792"><ele>1470.3243</ele><time>2026-07-24T15:39:01.000Z</time></trkpt>
        <trkpt lat="29.575814" lon="103.365787"><ele>1470.5183</ele><time>2026-07-24T15:39:05.000Z</time></trkpt>
        <trkpt lat="29.5758" lon="103.36577"><ele>1469.5465</ele><time>2026-07-24T15:39:13.000Z</time></trkpt>
        <trkpt lat="29.57579" lon="103.365756"><ele>1469.7001</ele><time>2026-07-24T15:39:15.000Z</time></trkpt>
        <trkpt lat="29.575789" lon="103.365755"><ele>1469.8761</ele><time>2026-07-24T15:39:17.000Z</time></trkpt>
        <trkpt lat="29.575776" lon="103.365745"><ele>1469.4176</ele><time>2026-07-24T15:39:21.000Z</time></trkpt>
        <trkpt lat="29.575759" lon="103.365733"><ele>1468.5011</ele><time>2026-07-24T15:39:23.000Z</time></trkpt>
        <trkpt lat="29.575742" lon="103.365721"><ele>1468.4258</ele><time>2026-07-24T15:39:25.000Z</time></trkpt>
        <trkpt lat="29.575724" lon="103.365713"><ele>1468.0872</ele><time>2026-07-24T15:39:27.000Z</time></trkpt>
        <trkpt lat="29.575708" lon="103.365706"><ele>1466.4171</ele><time>2026-07-24T15:39:29.000Z</time></trkpt>
        <trkpt lat="29.575687" lon="103.365698"><ele>1466.542</ele><time>2026-07-24T15:39:31.000Z</time></trkpt>
        <trkpt lat="29.575671" lon="103.365692"><ele>1465.076</ele><time>2026-07-24T15:39:33.000Z</time></trkpt>
        <trkpt lat="29.575657" lon="103.365687"><ele>1463.8247</ele><time>2026-07-24T15:39:35.000Z</time></trkpt>
        <trkpt lat="29.575647" lon="103.365684"><ele>1462.5281</ele><time>2026-07-24T15:39:37.000Z</time></trkpt>
        <trkpt lat="29.575639" lon="103.365679"><ele>1462.2977</ele><time>2026-07-24T15:39:39.000Z</time></trkpt>
        <trkpt lat="29.575629" lon="103.365671"><ele>1461.6315</ele><time>2026-07-24T15:39:41.000Z</time></trkpt>
        <trkpt lat="29.575621" lon="103.365663"><ele>1460.4006</ele><time>2026-07-24T15:39:43.000Z</time></trkpt>
        <trkpt lat="29.575615" lon="103.365655"><ele>1462.0426</ele><time>2026-07-24T15:39:45.000Z</time></trkpt>
        <trkpt lat="29.575608" lon="103.365645"><ele>1461.6007</ele><time>2026-07-24T15:39:47.000Z</time></trkpt>
        <trkpt lat="29.575602" lon="103.365632"><ele>1461.8374</ele><time>2026-07-24T15:39:49.000Z</time></trkpt>
        <trkpt lat="29.575596" lon="103.365615"><ele>1460.533</ele><time>2026-07-24T15:39:51.000Z</time></trkpt>
        <trkpt lat="29.57559" lon="103.365594"><ele>1461.1746</ele><time>2026-07-24T15:39:53.000Z</time></trkpt>
        <trkpt lat="29.575586" lon="103.365579"><ele>1461.582</ele><time>2026-07-24T15:39:55.000Z</time></trkpt>
        <trkpt lat="29.575582" lon="103.365564"><ele>1460.517</ele><time>2026-07-24T15:39:57.000Z</time></trkpt>
        <trkpt lat="29.575578" lon="103.365557"><ele>1461.937</ele><time>2026-07-24T15:39:59.000Z</time></trkpt>
        <trkpt lat="29.57557" lon="103.365552"><ele>1463.2543</ele><time>2026-07-24T15:40:03.000Z</time></trkpt>
        <trkpt lat="29.575555" lon="103.365545"><ele>1465.7582</ele><time>2026-07-24T15:40:09.000Z</time></trkpt>
        <trkpt lat="29.575547" lon="103.365545"><ele>1465.9731</ele><time>2026-07-24T15:40:13.000Z</time></trkpt>
        <trkpt lat="29.575538" lon="103.365547"><ele>1468.2112</ele><time>2026-07-24T15:40:17.000Z</time></trkpt>
        <trkpt lat="29.575526" lon="103.365553"><ele>1468.5529</ele><time>2026-07-24T15:40:21.000Z</time></trkpt>
        <trkpt lat="29.575512" lon="103.36556"><ele>1467.7865</ele><time>2026-07-24T15:40:23.000Z</time></trkpt>
        <trkpt lat="29.57551" lon="103.365559"><ele>1468.0922</ele><time>2026-07-24T15:40:27.000Z</time></trkpt>
        <trkpt lat="29.575483" lon="103.365545"><ele>1467.2379</ele><time>2026-07-24T15:40:31.000Z</time></trkpt>
        <trkpt lat="29.575483" lon="103.365545"><ele>1467.3372</ele><time>2026-07-24T15:40:33.000Z</time></trkpt>
        <trkpt lat="29.575482" lon="103.365545"><ele>1468.2366</ele><time>2026-07-24T15:40:35.000Z</time></trkpt>
        <trkpt lat="29.575446" lon="103.365542"><ele>1472.4958</ele><time>2026-07-24T15:40:45.000Z</time></trkpt>
        <trkpt lat="29.57544" lon="103.365541"><ele>1472.2758</ele><time>2026-07-24T15:40:47.000Z</time></trkpt>
        <trkpt lat="29.575435" lon="103.365537"><ele>1472.6646</ele><time>2026-07-24T15:40:49.000Z</time></trkpt>
        <trkpt lat="29.575418" lon="103.365523"><ele>1472.7358</ele><time>2026-07-24T15:40:59.000Z</time></trkpt>
        <trkpt lat="29.575415" lon="103.365523"><ele>1473.6462</ele><time>2026-07-24T15:41:03.000Z</time></trkpt>
        <trkpt lat="29.575391" lon="103.36553"><ele>1473.3939</ele><time>2026-07-24T15:41:09.000Z</time></trkpt>
        <trkpt lat="29.575383" lon="103.365532"><ele>1473.2264</ele><time>2026-07-24T15:41:11.000Z</time></trkpt>
        <trkpt lat="29.575383" lon="103.365532"><ele>1473.3458</ele><time>2026-07-24T15:41:13.000Z</time></trkpt>
        <trkpt lat="29.575381" lon="103.365493"><ele>1476.1482</ele><time>2026-07-24T15:41:33.000Z</time></trkpt>
        <trkpt lat="29.57538" lon="103.365487"><ele>1476.63</ele><time>2026-07-24T15:41:35.000Z</time></trkpt>
        <trkpt lat="29.575379" lon="103.36548"><ele>1476.5455</ele><time>2026-07-24T15:41:37.000Z</time></trkpt>
        <trkpt lat="29.57537" lon="103.365462"><ele>1477.067</ele><time>2026-07-24T15:41:43.000Z</time></trkpt>
        <trkpt lat="29.575362" lon="103.365448"><ele>1476.8379</ele><time>2026-07-24T15:41:45.000Z</time></trkpt>
        <trkpt lat="29.575362" lon="103.365448"><ele>1477.5292</ele><time>2026-07-24T15:41:47.000Z</time></trkpt>
        <trkpt lat="29.575342" lon="103.365444"><ele>1479.2196</ele><time>2026-07-24T15:41:53.000Z</time></trkpt>
        <trkpt lat="29.575324" lon="103.365439"><ele>1479.5322</ele><time>2026-07-24T15:41:55.000Z</time></trkpt>
        <trkpt lat="29.575323" lon="103.365438"><ele>1479.5314</ele><time>2026-07-24T15:41:57.000Z</time></trkpt>
        <trkpt lat="29.575312" lon="103.365428"><ele>1479.8615</ele><time>2026-07-24T15:42:03.000Z</time></trkpt>
        <trkpt lat="29.5753" lon="103.365414"><ele>1481.0015</ele><time>2026-07-24T15:42:09.000Z</time></trkpt>
        <trkpt lat="29.575298" lon="103.365408"><ele>1481.6456</ele><time>2026-07-24T15:42:11.000Z</time></trkpt>
        <trkpt lat="29.57529" lon="103.365397"><ele>1483.0737</ele><time>2026-07-24T15:42:15.000Z</time></trkpt>
        <trkpt lat="29.575279" lon="103.365389"><ele>1485.3527</ele><time>2026-07-24T15:42:25.000Z</time></trkpt>
        <trkpt lat="29.575272" lon="103.365388"><ele>1484.8057</ele><time>2026-07-24T15:42:29.000Z</time></trkpt>
        <trkpt lat="29.575262" lon="103.365383"><ele>1486.1855</ele><time>2026-07-24T15:42:39.000Z</time></trkpt>
        <trkpt lat="29.575245" lon="103.365377"><ele>1485.3147</ele><time>2026-07-24T15:42:45.000Z</time></trkpt>
        <trkpt lat="29.575239" lon="103.365375"><ele>1485.9564</ele><time>2026-07-24T15:42:47.000Z</time></trkpt>
        <trkpt lat="29.575233" lon="103.365369"><ele>1485.3551</ele><time>2026-07-24T15:42:49.000Z</time></trkpt>
        <trkpt lat="29.575216" lon="103.365352"><ele>1484.1583</ele><time>2026-07-24T15:42:58.000Z</time></trkpt>
        <trkpt lat="29.575211" lon="103.365348"><ele>1484.7578</ele><time>2026-07-24T15:43:00.000Z</time></trkpt>
        <trkpt lat="29.575198" lon="103.365341"><ele>1484.3502</ele><time>2026-07-24T15:43:02.000Z</time></trkpt>
        <trkpt lat="29.575183" lon="103.365338"><ele>1487.0675</ele><time>2026-07-24T15:43:10.000Z</time></trkpt>
        <trkpt lat="29.57517" lon="103.365336"><ele>1487.296</ele><time>2026-07-24T15:43:12.000Z</time></trkpt>
        <trkpt lat="29.575167" lon="103.365334"><ele>1489.2147</ele><time>2026-07-24T15:43:16.000Z</time></trkpt>
        <trkpt lat="29.575152" lon="103.365325"><ele>1491.4417</ele><time>2026-07-24T15:43:22.000Z</time></trkpt>
        <trkpt lat="29.575167" lon="103.365297"><ele>1494.8195</ele><time>2026-07-24T15:43:34.000Z</time></trkpt>
        <trkpt lat="29.575167" lon="103.365293"><ele>1495.2986</ele><time>2026-07-24T15:43:36.000Z</time></trkpt>
        <trkpt lat="29.575171" lon="103.365289"><ele>1494.5015</ele><time>2026-07-24T15:43:38.000Z</time></trkpt>
        <trkpt lat="29.575202" lon="103.365254"><ele>1495.1488</ele><time>2026-07-24T15:43:58.000Z</time></trkpt>
        <trkpt lat="29.575177" lon="103.365241"><ele>1496.7744</ele><time>2026-07-24T15:44:14.000Z</time></trkpt>
        <trkpt lat="29.575139" lon="103.365215"><ele>1496.165</ele><time>2026-07-24T15:44:30.000Z</time></trkpt>
        <trkpt lat="29.575107" lon="103.365189"><ele>1497.2415</ele><time>2026-07-24T15:44:46.000Z</time></trkpt>
        <trkpt lat="29.575083" lon="103.365168"><ele>1499.5275</ele><time>2026-07-24T15:44:52.000Z</time></trkpt>
        <trkpt lat="29.575083" lon="103.365168"><ele>1498.1017</ele><time>2026-07-24T15:44:54.000Z</time></trkpt>
        <trkpt lat="29.57508" lon="103.365167"><ele>1498.0927</ele><time>2026-07-24T15:44:56.000Z</time></trkpt>
        <trkpt lat="29.575053" lon="103.365147"><ele>1496.9375</ele><time>2026-07-24T15:45:00.000Z</time></trkpt>
        <trkpt lat="29.57504" lon="103.365132"><ele>1496.5875</ele><time>2026-07-24T15:45:02.000Z</time></trkpt>
        <trkpt lat="29.575032" lon="103.365117"><ele>1495.9915</ele><time>2026-07-24T15:45:04.000Z</time></trkpt>
        <trkpt lat="29.57503" lon="103.36511"><ele>1497.3917</ele><time>2026-07-24T15:45:06.000Z</time></trkpt>
        <trkpt lat="29.575022" lon="103.365099"><ele>1500.413</ele><time>2026-07-24T15:45:28.000Z</time></trkpt>
        <trkpt lat="29.575015" lon="103.365086"><ele>1498.2081</ele><time>2026-07-24T15:45:32.000Z</time></trkpt>
        <trkpt lat="29.575005" lon="103.365064"><ele>1499.774</ele><time>2026-07-24T15:45:34.000Z</time></trkpt>
        <trkpt lat="29.575004" lon="103.365062"><ele>1498.9352</ele><time>2026-07-24T15:45:36.000Z</time></trkpt>
        <trkpt lat="29.575005" lon="103.365039"><ele>1499.7612</ele><time>2026-07-24T15:45:40.000Z</time></trkpt>
        <trkpt lat="29.575005" lon="103.365016"><ele>1499.9617</ele><time>2026-07-24T15:45:42.000Z</time></trkpt>
        <trkpt lat="29.575004" lon="103.364995"><ele>1500.3965</ele><time>2026-07-24T15:45:44.000Z</time></trkpt>
        <trkpt lat="29.575002" lon="103.364974"><ele>1501.7347</ele><time>2026-07-24T15:45:46.000Z</time></trkpt>
        <trkpt lat="29.575" lon="103.364957"><ele>1502.2195</ele><time>2026-07-24T15:45:48.000Z</time></trkpt>
        <trkpt lat="29.574997" lon="103.364944"><ele>1503.1794</ele><time>2026-07-24T15:45:50.000Z</time></trkpt>
        <trkpt lat="29.574996" lon="103.364933"><ele>1502.1193</ele><time>2026-07-24T15:45:52.000Z</time></trkpt>
        <trkpt lat="29.574992" lon="103.364925"><ele>1503.4464</ele><time>2026-07-24T15:45:54.000Z</time></trkpt>
        <trkpt lat="29.574984" lon="103.364905"><ele>1504.414</ele><time>2026-07-24T15:45:58.000Z</time></trkpt>
        <trkpt lat="29.574981" lon="103.364897"><ele>1505.6285</ele><time>2026-07-24T15:46:00.000Z</time></trkpt>
        <trkpt lat="29.574978" lon="103.364889"><ele>1505.1515</ele><time>2026-07-24T15:46:02.000Z</time></trkpt>
        <trkpt lat="29.574972" lon="103.364872"><ele>1506.5227</ele><time>2026-07-24T15:46:06.000Z</time></trkpt>
        <trkpt lat="29.574967" lon="103.364863"><ele>1507.2678</ele><time>2026-07-24T15:46:10.000Z</time></trkpt>
        <trkpt lat="29.574963" lon="103.364854"><ele>1507.803</ele><time>2026-07-24T15:46:18.000Z</time></trkpt>
        <trkpt lat="29.574955" lon="103.364844"><ele>1506.8849</ele><time>2026-07-24T15:46:22.000Z</time></trkpt>
        <trkpt lat="29.574948" lon="103.364834"><ele>1506.9703</ele><time>2026-07-24T15:46:26.000Z</time></trkpt>
        <trkpt lat="29.574944" lon="103.364828"><ele>1508.3455</ele><time>2026-07-24T15:46:28.000Z</time></trkpt>
        <trkpt lat="29.574931" lon="103.364813"><ele>1508.9742</ele><time>2026-07-24T15:46:32.000Z</time></trkpt>
        <trkpt lat="29.574926" lon="103.364807"><ele>1508.9796</ele><time>2026-07-24T15:46:34.000Z</time></trkpt>
        <trkpt lat="29.574915" lon="103.364795"><ele>1510.0884</ele><time>2026-07-24T15:46:36.000Z</time></trkpt>
        <trkpt lat="29.574908" lon="103.364787"><ele>1511.8842</ele><time>2026-07-24T15:46:42.000Z</time></trkpt>
        <trkpt lat="29.574901" lon="103.364782"><ele>1511.0874</ele><time>2026-07-24T15:46:44.000Z</time></trkpt>
        <trkpt lat="29.574885" lon="103.364771"><ele>1511.8475</ele><time>2026-07-24T15:46:48.000Z</time></trkpt>
        <trkpt lat="29.574881" lon="103.364771"><ele>1511.774</ele><time>2026-07-24T15:46:50.000Z</time></trkpt>
        <trkpt lat="29.574871" lon="103.364766"><ele>1513.5778</ele><time>2026-07-24T15:46:56.000Z</time></trkpt>
        <trkpt lat="29.574856" lon="103.364752"><ele>1514.8906</ele><time>2026-07-24T15:47:04.000Z</time></trkpt>
        <trkpt lat="29.574854" lon="103.364746"><ele>1515.8147</ele><time>2026-07-24T15:47:06.000Z</time></trkpt>
        <trkpt lat="29.574848" lon="103.364739"><ele>1515.911</ele><time>2026-07-24T15:47:08.000Z</time></trkpt>
        <trkpt lat="29.57483" lon="103.364711"><ele>1518.1786</ele><time>2026-07-24T15:47:17.000Z</time></trkpt>
        <trkpt lat="29.574828" lon="103.364706"><ele>1517.7023</ele><time>2026-07-24T15:47:19.000Z</time></trkpt>
        <trkpt lat="29.574827" lon="103.364704"><ele>1517.8528</ele><time>2026-07-24T15:47:21.000Z</time></trkpt>
        <trkpt lat="29.574813" lon="103.364672"><ele>1520.1809</ele><time>2026-07-24T15:47:51.000Z</time></trkpt>
        <trkpt lat="29.574813" lon="103.364666"><ele>1520.5972</ele><time>2026-07-24T15:47:53.000Z</time></trkpt>
        <trkpt lat="29.574812" lon="103.364659"><ele>1520.6093</ele><time>2026-07-24T15:47:55.000Z</time></trkpt>
        <trkpt lat="29.574809" lon="103.364635"><ele>1521.0492</ele><time>2026-07-24T15:48:03.000Z</time></trkpt>
        <trkpt lat="29.574808" lon="103.364631"><ele>1521.4869</ele><time>2026-07-24T15:48:07.000Z</time></trkpt>
        <trkpt lat="29.57479" lon="103.364606"><ele>1524.5798</ele><time>2026-07-24T15:48:54.000Z</time></trkpt>
        <trkpt lat="29.57476" lon="103.364565"><ele>1528.2302</ele><time>2026-07-24T15:49:09.000Z</time></trkpt>
        <trkpt lat="29.574758" lon="103.364564"><ele>1527.8677</ele><time>2026-07-24T15:49:11.000Z</time></trkpt>
        <trkpt lat="29.574754" lon="103.364561"><ele>1529.1388</ele><time>2026-07-24T15:49:13.000Z</time></trkpt>
        <trkpt lat="29.574721" lon="103.364543"><ele>1530.9261</ele><time>2026-07-24T15:49:23.000Z</time></trkpt>
        <trkpt lat="29.574721" lon="103.364543"><ele>1530.2892</ele><time>2026-07-24T15:49:25.000Z</time></trkpt>
        <trkpt lat="29.57472" lon="103.364541"><ele>1529.4277</ele><time>2026-07-24T15:49:27.000Z</time></trkpt>
        <trkpt lat="29.574705" lon="103.364514"><ele>1531.7554</ele><time>2026-07-24T15:49:37.000Z</time></trkpt>
        <trkpt lat="29.574701" lon="103.364509"><ele>1531.14</ele><time>2026-07-24T15:49:39.000Z</time></trkpt>
        <trkpt lat="29.574697" lon="103.364506"><ele>1532.6288</ele><time>2026-07-24T15:49:41.000Z</time></trkpt>
        <trkpt lat="29.574679" lon="103.36449"><ele>1530.8015</ele><time>2026-07-24T15:49:47.000Z</time></trkpt>
        <trkpt lat="29.574677" lon="103.364486"><ele>1533.1403</ele><time>2026-07-24T15:49:53.000Z</time></trkpt>
        <trkpt lat="29.574675" lon="103.364483"><ele>1534.3969</ele><time>2026-07-24T15:49:55.000Z</time></trkpt>
        <trkpt lat="29.574664" lon="103.364456"><ele>1536.3359</ele><time>2026-07-24T15:50:01.000Z</time></trkpt>
        <trkpt lat="29.574665" lon="103.36445"><ele>1535.6285</ele><time>2026-07-24T15:50:03.000Z</time></trkpt>
        <trkpt lat="29.574671" lon="103.364426"><ele>1536.5597</ele><time>2026-07-24T15:50:05.000Z</time></trkpt>
        <trkpt lat="29.574672" lon="103.364423"><ele>1536.0599</ele><time>2026-07-24T15:50:09.000Z</time></trkpt>
        <trkpt lat="29.574676" lon="103.364418"><ele>1536.6915</ele><time>2026-07-24T15:50:11.000Z</time></trkpt>
        <trkpt lat="29.574693" lon="103.364401"><ele>1537.3315</ele><time>2026-07-24T15:50:17.000Z</time></trkpt>
        <trkpt lat="29.574695" lon="103.364399"><ele>1537.4368</ele><time>2026-07-24T15:50:19.000Z</time></trkpt>
        <trkpt lat="29.574695" lon="103.364389"><ele>1540.2235</ele><time>2026-07-24T15:50:59.000Z</time></trkpt>
        <trkpt lat="29.574697" lon="103.364356"><ele>1538.7251</ele><time>2026-07-24T15:51:03.000Z</time></trkpt>
        <trkpt lat="29.574697" lon="103.364356"><ele>1538.2623</ele><time>2026-07-24T15:51:05.000Z</time></trkpt>
        <trkpt lat="29.574694" lon="103.364353"><ele>1538.3676</ele><time>2026-07-24T15:51:07.000Z</time></trkpt>
        <trkpt lat="29.574664" lon="103.364317"><ele>1538.4036</ele><time>2026-07-24T15:51:11.000Z</time></trkpt>
        <trkpt lat="29.574647" lon="103.364296"><ele>1537.2821</ele><time>2026-07-24T15:51:13.000Z</time></trkpt>
        <trkpt lat="29.57463" lon="103.364276"><ele>1538.2767</ele><time>2026-07-24T15:51:15.000Z</time></trkpt>
        <trkpt lat="29.574613" lon="103.364257"><ele>1538.0463</ele><time>2026-07-24T15:51:17.000Z</time></trkpt>
        <trkpt lat="29.574596" lon="103.364241"><ele>1536.8698</ele><time>2026-07-24T15:51:19.000Z</time></trkpt>
        <trkpt lat="29.574581" lon="103.364229"><ele>1538.9528</ele><time>2026-07-24T15:51:21.000Z</time></trkpt>
        <trkpt lat="29.574566" lon="103.364219"><ele>1539.8093</ele><time>2026-07-24T15:51:23.000Z</time></trkpt>
        <trkpt lat="29.574551" lon="103.364209"><ele>1539.2506</ele><time>2026-07-24T15:51:25.000Z</time></trkpt>
        <trkpt lat="29.574538" lon="103.364199"><ele>1538.8148</ele><time>2026-07-24T15:51:27.000Z</time></trkpt>
        <trkpt lat="29.574529" lon="103.364192"><ele>1539.7646</ele><time>2026-07-24T15:51:29.000Z</time></trkpt>
        <trkpt lat="29.574522" lon="103.364183"><ele>1539.7166</ele><time>2026-07-24T15:51:31.000Z</time></trkpt>
        <trkpt lat="29.574509" lon="103.36417"><ele>1539.765</ele><time>2026-07-24T15:51:35.000Z</time></trkpt>
        <trkpt lat="29.574505" lon="103.364167"><ele>1540.8715</ele><time>2026-07-24T15:51:37.000Z</time></trkpt>
        <trkpt lat="29.574489" lon="103.36416"><ele>1541.7899</ele><time>2026-07-24T15:51:41.000Z</time></trkpt>
        <trkpt lat="29.574469" lon="103.364151"><ele>1542.7472</ele><time>2026-07-24T15:51:43.000Z</time></trkpt>
        <trkpt lat="29.574468" lon="103.364149"><ele>1542.7988</ele><time>2026-07-24T15:51:45.000Z</time></trkpt>
        <trkpt lat="29.574459" lon="103.364133"><ele>1543.88</ele><time>2026-07-24T15:51:49.000Z</time></trkpt>
        <trkpt lat="29.57445" lon="103.364116"><ele>1541.936</ele><time>2026-07-24T15:51:51.000Z</time></trkpt>
        <trkpt lat="29.574442" lon="103.364097"><ele>1544.0532</ele><time>2026-07-24T15:51:53.000Z</time></trkpt>
        <trkpt lat="29.574434" lon="103.364077"><ele>1544.1497</ele><time>2026-07-24T15:51:55.000Z</time></trkpt>
        <trkpt lat="29.57443" lon="103.364059"><ele>1544.389</ele><time>2026-07-24T15:51:57.000Z</time></trkpt>
        <trkpt lat="29.574429" lon="103.364045"><ele>1545.7448</ele><time>2026-07-24T15:51:59.000Z</time></trkpt>
        <trkpt lat="29.57443" lon="103.364028"><ele>1546.7185</ele><time>2026-07-24T15:52:01.000Z</time></trkpt>
        <trkpt lat="29.574431" lon="103.364016"><ele>1546.5748</ele><time>2026-07-24T15:52:03.000Z</time></trkpt>
        <trkpt lat="29.574431" lon="103.364006"><ele>1547.1926</ele><time>2026-07-24T15:52:05.000Z</time></trkpt>
        <trkpt lat="29.57443" lon="103.363988"><ele>1549.0045</ele><time>2026-07-24T15:52:09.000Z</time></trkpt>
        <trkpt lat="29.57443" lon="103.363979"><ele>1548.2224</ele><time>2026-07-24T15:52:11.000Z</time></trkpt>
        <trkpt lat="29.574435" lon="103.363967"><ele>1551.5596</ele><time>2026-07-24T15:52:15.000Z</time></trkpt>
        <trkpt lat="29.574442" lon="103.363949"><ele>1550.5007</ele><time>2026-07-24T15:52:21.000Z</time></trkpt>
        <trkpt lat="29.574441" lon="103.363945"><ele>1551.6699</ele><time>2026-07-24T15:52:23.000Z</time></trkpt>
        <trkpt lat="29.574437" lon="103.363931"><ele>1551.9175</ele><time>2026-07-24T15:52:27.000Z</time></trkpt>
        <trkpt lat="29.574431" lon="103.363916"><ele>1552.6226</ele><time>2026-07-24T15:52:38.000Z</time></trkpt>
        <trkpt lat="29.574429" lon="103.363914"><ele>1552.8271</ele><time>2026-07-24T15:52:40.000Z</time></trkpt>
        <trkpt lat="29.574417" lon="103.3639"><ele>1555.7559</ele><time>2026-07-24T15:52:46.000Z</time></trkpt>
        <trkpt lat="29.574401" lon="103.363883"><ele>1556.5918</ele><time>2026-07-24T15:52:50.000Z</time></trkpt>
        <trkpt lat="29.574401" lon="103.363883"><ele>1556.3499</ele><time>2026-07-24T15:52:53.000Z</time></trkpt>
        <trkpt lat="29.574397" lon="103.363871"><ele>1560.2552</ele><time>2026-07-24T15:52:59.000Z</time></trkpt>
        <trkpt lat="29.574389" lon="103.363848"><ele>1559.6035</ele><time>2026-07-24T15:53:05.000Z</time></trkpt>
        <trkpt lat="29.574387" lon="103.36384"><ele>1559.9382</ele><time>2026-07-24T15:53:07.000Z</time></trkpt>
        <trkpt lat="29.574386" lon="103.363825"><ele>1559.3882</ele><time>2026-07-24T15:53:09.000Z</time></trkpt>
        <trkpt lat="29.574386" lon="103.363812"><ele>1559.5027</ele><time>2026-07-24T15:53:15.000Z</time></trkpt>
        <trkpt lat="29.574389" lon="103.363803"><ele>1559.3112</ele><time>2026-07-24T15:53:17.000Z</time></trkpt>
        <trkpt lat="29.574396" lon="103.363783"><ele>1558.2953</ele><time>2026-07-24T15:53:19.000Z</time></trkpt>
        <trkpt lat="29.574397" lon="103.363781"><ele>1559.511</ele><time>2026-07-24T15:53:23.000Z</time></trkpt>
        <trkpt lat="29.574406" lon="103.363773"><ele>1560.8405</ele><time>2026-07-24T15:53:29.000Z</time></trkpt>
        <trkpt lat="29.57442" lon="103.363758"><ele>1561.5076</ele><time>2026-07-24T15:53:51.000Z</time></trkpt>
        <trkpt lat="29.57442" lon="103.363758"><ele>1561.3732</ele><time>2026-07-24T15:54:26.000Z</time></trkpt>
        <trkpt lat="29.574431" lon="103.363754"><ele>1562.2141</ele><time>2026-07-24T15:54:32.000Z</time></trkpt>
        <trkpt lat="29.57445" lon="103.363744"><ele>1564.3467</ele><time>2026-07-24T15:54:40.000Z</time></trkpt>
        <trkpt lat="29.574455" lon="103.363739"><ele>1564.806</ele><time>2026-07-24T15:54:42.000Z</time></trkpt>
        <trkpt lat="29.574462" lon="103.363737"><ele>1564.9579</ele><time>2026-07-24T15:54:44.000Z</time></trkpt>
        <trkpt lat="29.57448" lon="103.36373"><ele>1566.4437</ele><time>2026-07-24T15:54:50.000Z</time></trkpt>
        <trkpt lat="29.574485" lon="103.363727"><ele>1566.1993</ele><time>2026-07-24T15:54:52.000Z</time></trkpt>
        <trkpt lat="29.574492" lon="103.363725"><ele>1565.2349</ele><time>2026-07-24T15:54:54.000Z</time></trkpt>
        <trkpt lat="29.574514" lon="103.363723"><ele>1568.3517</ele><time>2026-07-24T15:55:00.000Z</time></trkpt>
        <trkpt lat="29.574516" lon="103.363724"><ele>1568.9451</ele><time>2026-07-24T15:55:02.000Z</time></trkpt>
        <trkpt lat="29.574522" lon="103.363729"><ele>1569.58</ele><time>2026-07-24T15:55:04.000Z</time></trkpt>
        <trkpt lat="29.574542" lon="103.363744"><ele>1572.8795</ele><time>2026-07-24T15:55:46.000Z</time></trkpt>
        <trkpt lat="29.574545" lon="103.363742"><ele>1571.8644</ele><time>2026-07-24T15:55:48.000Z</time></trkpt>
        <trkpt lat="29.574562" lon="103.363738"><ele>1569.1959</ele><time>2026-07-24T15:55:50.000Z</time></trkpt>
        <trkpt lat="29.574571" lon="103.363735"><ele>1570.2393</ele><time>2026-07-24T15:55:56.000Z</time></trkpt>
        <trkpt lat="29.574594" lon="103.363728"><ele>1569.0825</ele><time>2026-07-24T15:55:58.000Z</time></trkpt>
        <trkpt lat="29.574596" lon="103.363728"><ele>1569.1948</ele><time>2026-07-24T15:56:00.000Z</time></trkpt>
        <trkpt lat="29.574603" lon="103.363722"><ele>1569.5428</ele><time>2026-07-24T15:56:04.000Z</time></trkpt>
        <trkpt lat="29.574632" lon="103.3637"><ele>1569.1572</ele><time>2026-07-24T15:56:10.000Z</time></trkpt>
        <trkpt lat="29.574632" lon="103.3637"><ele>1567.7545</ele><time>2026-07-24T15:56:12.000Z</time></trkpt>
        <trkpt lat="29.574631" lon="103.363697"><ele>1568.1808</ele><time>2026-07-24T15:56:14.000Z</time></trkpt>
        <trkpt lat="29.574627" lon="103.363661"><ele>1568.5647</ele><time>2026-07-24T15:56:21.000Z</time></trkpt>
        <trkpt lat="29.574627" lon="103.363661"><ele>1567.4368</ele><time>2026-07-24T15:56:23.000Z</time></trkpt>
        <trkpt lat="29.574627" lon="103.36366"><ele>1567.3479</ele><time>2026-07-24T15:56:25.000Z</time></trkpt>
        <trkpt lat="29.574631" lon="103.363626"><ele>1571.4955</ele><time>2026-07-24T15:57:19.000Z</time></trkpt>
        <trkpt lat="29.574632" lon="103.363609"><ele>1571.3573</ele><time>2026-07-24T15:57:21.000Z</time></trkpt>
        <trkpt lat="29.574632" lon="103.363608"><ele>1571.7325</ele><time>2026-07-24T15:57:23.000Z</time></trkpt>
        <trkpt lat="29.574634" lon="103.363578"><ele>1570.073</ele><time>2026-07-24T15:57:29.000Z</time></trkpt>
        <trkpt lat="29.574634" lon="103.363563"><ele>1570.7936</ele><time>2026-07-24T15:57:31.000Z</time></trkpt>
        <trkpt lat="29.574633" lon="103.36355"><ele>1571.8563</ele><time>2026-07-24T15:57:33.000Z</time></trkpt>
        <trkpt lat="29.574632" lon="103.36354"><ele>1571.5498</ele><time>2026-07-24T15:57:35.000Z</time></trkpt>
        <trkpt lat="29.574634" lon="103.363529"><ele>1571.7311</ele><time>2026-07-24T15:57:39.000Z</time></trkpt>
        <trkpt lat="29.574637" lon="103.363514"><ele>1570.8097</ele><time>2026-07-24T15:57:43.000Z</time></trkpt>
        <trkpt lat="29.57464" lon="103.363508"><ele>1572.3345</ele><time>2026-07-24T15:57:45.000Z</time></trkpt>
        <trkpt lat="29.574623" lon="103.36356"><ele>1572.3427</ele><time>2026-07-24T16:01:04.000Z</time></trkpt>
        <trkpt lat="29.574613" lon="103.363592"><ele>1571.7533</ele><time>2026-07-24T16:01:06.000Z</time></trkpt>
        <trkpt lat="29.574614" lon="103.363594"><ele>1571.9602</ele><time>2026-07-24T16:01:08.000Z</time></trkpt>
        <trkpt lat="29.574614" lon="103.363596"><ele>1572.1742</ele><time>2026-07-24T16:01:10.000Z</time></trkpt>
        <trkpt lat="29.574618" lon="103.363628"><ele>1570.7904</ele><time>2026-07-24T16:01:20.000Z</time></trkpt>
        <trkpt lat="29.574619" lon="103.363645"><ele>1570.1815</ele><time>2026-07-24T16:01:22.000Z</time></trkpt>
        <trkpt lat="29.574619" lon="103.363646"><ele>1569.647</ele><time>2026-07-24T16:01:24.000Z</time></trkpt>
        <trkpt lat="29.574636" lon="103.363656"><ele>1570.2593</ele><time>2026-07-24T16:01:43.000Z</time></trkpt>
        <trkpt lat="29.574629" lon="103.363607"><ele>1570.2396</ele><time>2026-07-24T16:04:16.000Z</time></trkpt>
        <trkpt lat="29.574627" lon="103.363592"><ele>1570.2719</ele><time>2026-07-24T16:04:18.000Z</time></trkpt>
        <trkpt lat="29.574627" lon="103.363591"><ele>1570.1211</ele><time>2026-07-24T16:04:20.000Z</time></trkpt>
        <trkpt lat="29.57464" lon="103.363552"><ele>1571.5591</ele><time>2026-07-24T16:04:27.000Z</time></trkpt>
        <trkpt lat="29.574646" lon="103.363536"><ele>1571.717</ele><time>2026-07-24T16:04:29.000Z</time></trkpt>
        <trkpt lat="29.574649" lon="103.363525"><ele>1571.4714</ele><time>2026-07-24T16:04:31.000Z</time></trkpt>
        <trkpt lat="29.574648" lon="103.363523"><ele>1571.4309</ele><time>2026-07-24T16:04:33.000Z</time></trkpt>
        <trkpt lat="29.574628" lon="103.363496"><ele>1571.3743</ele><time>2026-07-24T16:05:42.000Z</time></trkpt>
        <trkpt lat="29.574623" lon="103.363488"><ele>1571.9214</ele><time>2026-07-24T16:05:44.000Z</time></trkpt>
        <trkpt lat="29.574622" lon="103.363483"><ele>1571.6292</ele><time>2026-07-24T16:05:46.000Z</time></trkpt>
        <trkpt lat="29.574622" lon="103.363454"><ele>1572.8523</ele><time>2026-07-24T16:05:52.000Z</time></trkpt>
        <trkpt lat="29.574621" lon="103.363431"><ele>1573.5088</ele><time>2026-07-24T16:05:54.000Z</time></trkpt>
        <trkpt lat="29.574621" lon="103.363429"><ele>1573.6969</ele><time>2026-07-24T16:05:56.000Z</time></trkpt>
        <trkpt lat="29.574623" lon="103.363415"><ele>1574.046</ele><time>2026-07-24T16:06:00.000Z</time></trkpt>
        <trkpt lat="29.574625" lon="103.363397"><ele>1575.917</ele><time>2026-07-24T16:06:03.000Z</time></trkpt>
        <trkpt lat="29.574626" lon="103.363374"><ele>1575.9165</ele><time>2026-07-24T16:06:05.000Z</time></trkpt>
        <trkpt lat="29.574625" lon="103.363358"><ele>1576.1741</ele><time>2026-07-24T16:06:07.000Z</time></trkpt>
        <trkpt lat="29.574625" lon="103.363344"><ele>1575.9779</ele><time>2026-07-24T16:06:09.000Z</time></trkpt>
        <trkpt lat="29.574626" lon="103.363332"><ele>1577.1633</ele><time>2026-07-24T16:06:11.000Z</time></trkpt>
        <trkpt lat="29.574629" lon="103.36332"><ele>1577.5372</ele><time>2026-07-24T16:06:13.000Z</time></trkpt>
        <trkpt lat="29.574631" lon="103.36331"><ele>1578.8525</ele><time>2026-07-24T16:06:15.000Z</time></trkpt>
        <trkpt lat="29.574634" lon="103.3633"><ele>1578.4291</ele><time>2026-07-24T16:06:17.000Z</time></trkpt>
        <trkpt lat="29.574642" lon="103.363283"><ele>1579.1195</ele><time>2026-07-24T16:06:21.000Z</time></trkpt>
        <trkpt lat="29.574647" lon="103.36328"><ele>1579.346</ele><time>2026-07-24T16:06:23.000Z</time></trkpt>
        <trkpt lat="29.574671" lon="103.363266"><ele>1580.5303</ele><time>2026-07-24T16:06:25.000Z</time></trkpt>
        <trkpt lat="29.574671" lon="103.363266"><ele>1579.6061</ele><time>2026-07-24T16:06:27.000Z</time></trkpt>
        <trkpt lat="29.574642" lon="103.363232"><ele>1580.5603</ele><time>2026-07-24T16:06:35.000Z</time></trkpt>
        <trkpt lat="29.574642" lon="103.363232"><ele>1582.1875</ele><time>2026-07-24T16:06:37.000Z</time></trkpt>
        <trkpt lat="29.574641" lon="103.363231"><ele>1582.248</ele><time>2026-07-24T16:06:39.000Z</time></trkpt>
        <trkpt lat="29.574629" lon="103.363198"><ele>1583.344</ele><time>2026-07-24T16:06:51.000Z</time></trkpt>
        <trkpt lat="29.574627" lon="103.363191"><ele>1582.8688</ele><time>2026-07-24T16:06:53.000Z</time></trkpt>
        <trkpt lat="29.574626" lon="103.363183"><ele>1582.6935</ele><time>2026-07-24T16:06:55.000Z</time></trkpt>
        <trkpt lat="29.574625" lon="103.363147"><ele>1583.6715</ele><time>2026-07-24T16:07:10.000Z</time></trkpt>
        <trkpt lat="29.574622" lon="103.363103"><ele>1585.0778</ele><time>2026-07-24T16:07:21.000Z</time></trkpt>
        <trkpt lat="29.57462" lon="103.363095"><ele>1585.8297</ele><time>2026-07-24T16:07:23.000Z</time></trkpt>
        <trkpt lat="29.574617" lon="103.363091"><ele>1587.2933</ele><time>2026-07-24T16:07:25.000Z</time></trkpt>
        <trkpt lat="29.574607" lon="103.363069"><ele>1587.267</ele><time>2026-07-24T16:07:33.000Z</time></trkpt>
        <trkpt lat="29.574605" lon="103.363057"><ele>1588.4075</ele><time>2026-07-24T16:07:37.000Z</time></trkpt>
        <trkpt lat="29.574606" lon="103.36305"><ele>1588.8667</ele><time>2026-07-24T16:07:39.000Z</time></trkpt>
        <trkpt lat="29.574611" lon="103.363025"><ele>1590.8386</ele><time>2026-07-24T16:07:43.000Z</time></trkpt>
        <trkpt lat="29.574612" lon="103.363022"><ele>1590.4606</ele><time>2026-07-24T16:07:47.000Z</time></trkpt>
        <trkpt lat="29.574616" lon="103.363012"><ele>1591.608</ele><time>2026-07-24T16:07:49.000Z</time></trkpt>
        <trkpt lat="29.574627" lon="103.362979"><ele>1594.2509</ele><time>2026-07-24T16:07:53.000Z</time></trkpt>
        <trkpt lat="29.574633" lon="103.362965"><ele>1594.1218</ele><time>2026-07-24T16:07:55.000Z</time></trkpt>
        <trkpt lat="29.57464" lon="103.362955"><ele>1594.9576</ele><time>2026-07-24T16:07:57.000Z</time></trkpt>
        <trkpt lat="29.574645" lon="103.36295"><ele>1594.5248</ele><time>2026-07-24T16:07:59.000Z</time></trkpt>
        <trkpt lat="29.57466" lon="103.362944"><ele>1594.8495</ele><time>2026-07-24T16:08:05.000Z</time></trkpt>
        <trkpt lat="29.574682" lon="103.362935"><ele>1594.5006</ele><time>2026-07-24T16:08:07.000Z</time></trkpt>
        <trkpt lat="29.574683" lon="103.362933"><ele>1594.9274</ele><time>2026-07-24T16:08:09.000Z</time></trkpt>
        <trkpt lat="29.57469" lon="103.36293"><ele>1595.9254</ele><time>2026-07-24T16:08:15.000Z</time></trkpt>
        <trkpt lat="29.574713" lon="103.362918"><ele>1595.1827</ele><time>2026-07-24T16:08:25.000Z</time></trkpt>
        <trkpt lat="29.574719" lon="103.362914"><ele>1594.5453</ele><time>2026-07-24T16:08:27.000Z</time></trkpt>
        <trkpt lat="29.574724" lon="103.36291"><ele>1594.0442</ele><time>2026-07-24T16:08:29.000Z</time></trkpt>
        <trkpt lat="29.574739" lon="103.362897"><ele>1594.4098</ele><time>2026-07-24T16:08:35.000Z</time></trkpt>
        <trkpt lat="29.574745" lon="103.362892"><ele>1595.0403</ele><time>2026-07-24T16:08:37.000Z</time></trkpt>
        <trkpt lat="29.57475" lon="103.362887"><ele>1594.1757</ele><time>2026-07-24T16:08:39.000Z</time></trkpt>
        <trkpt lat="29.574764" lon="103.362874"><ele>1594.5066</ele><time>2026-07-24T16:08:45.000Z</time></trkpt>
        <trkpt lat="29.57477" lon="103.36287"><ele>1594.056</ele><time>2026-07-24T16:08:47.000Z</time></trkpt>
        <trkpt lat="29.574774" lon="103.362863"><ele>1594.681</ele><time>2026-07-24T16:08:49.000Z</time></trkpt>
        <trkpt lat="29.574788" lon="103.362853"><ele>1592.6653</ele><time>2026-07-24T16:08:53.000Z</time></trkpt>
        <trkpt lat="29.574794" lon="103.362849"><ele>1595.2954</ele><time>2026-07-24T16:09:03.000Z</time></trkpt>
        <trkpt lat="29.574805" lon="103.36284"><ele>1594.9562</ele><time>2026-07-24T16:09:07.000Z</time></trkpt>
        <trkpt lat="29.574814" lon="103.362832"><ele>1594.9619</ele><time>2026-07-24T16:09:11.000Z</time></trkpt>
        <trkpt lat="29.574831" lon="103.362817"><ele>1595.3158</ele><time>2026-07-24T16:09:14.000Z</time></trkpt>
        <trkpt lat="29.574831" lon="103.362817"><ele>1595.6306</ele><time>2026-07-24T16:09:16.000Z</time></trkpt>
        <trkpt lat="29.574837" lon="103.362809"><ele>1596.6678</ele><time>2026-07-24T16:09:22.000Z</time></trkpt>
        <trkpt lat="29.574853" lon="103.362787"><ele>1596.2538</ele><time>2026-07-24T16:09:28.000Z</time></trkpt>
        <trkpt lat="29.574855" lon="103.36278"><ele>1597.3374</ele><time>2026-07-24T16:09:30.000Z</time></trkpt>
        <trkpt lat="29.574861" lon="103.362763"><ele>1596.8228</ele><time>2026-07-24T16:09:32.000Z</time></trkpt>
        <trkpt lat="29.574866" lon="103.362749"><ele>1597.457</ele><time>2026-07-24T16:09:38.000Z</time></trkpt>
        <trkpt lat="29.574872" lon="103.362737"><ele>1598.0718</ele><time>2026-07-24T16:09:40.000Z</time></trkpt>
        <trkpt lat="29.57488" lon="103.362725"><ele>1598.7208</ele><time>2026-07-24T16:09:42.000Z</time></trkpt>
        <trkpt lat="29.574887" lon="103.362716"><ele>1599.1365</ele><time>2026-07-24T16:09:44.000Z</time></trkpt>
        <trkpt lat="29.574893" lon="103.362708"><ele>1598.8508</ele><time>2026-07-24T16:09:46.000Z</time></trkpt>
        <trkpt lat="29.574901" lon="103.362698"><ele>1598.9481</ele><time>2026-07-24T16:09:48.000Z</time></trkpt>
        <trkpt lat="29.574909" lon="103.362685"><ele>1599.4833</ele><time>2026-07-24T16:09:50.000Z</time></trkpt>
        <trkpt lat="29.574915" lon="103.362672"><ele>1599.283</ele><time>2026-07-24T16:09:52.000Z</time></trkpt>
        <trkpt lat="29.574919" lon="103.362661"><ele>1599.5209</ele><time>2026-07-24T16:09:54.000Z</time></trkpt>
        <trkpt lat="29.574919" lon="103.362653"><ele>1600.2405</ele><time>2026-07-24T16:09:56.000Z</time></trkpt>
        <trkpt lat="29.574914" lon="103.36263"><ele>1599.9545</ele><time>2026-07-24T16:10:00.000Z</time></trkpt>
        <trkpt lat="29.57491" lon="103.362619"><ele>1600.5637</ele><time>2026-07-24T16:10:02.000Z</time></trkpt>
        <trkpt lat="29.574905" lon="103.362609"><ele>1600.8699</ele><time>2026-07-24T16:10:04.000Z</time></trkpt>
        <trkpt lat="29.5749" lon="103.3626"><ele>1600.5752</ele><time>2026-07-24T16:10:06.000Z</time></trkpt>
        <trkpt lat="29.574889" lon="103.362583"><ele>1601.4146</ele><time>2026-07-24T16:10:10.000Z</time></trkpt>
        <trkpt lat="29.574883" lon="103.362574"><ele>1601.2739</ele><time>2026-07-24T16:10:12.000Z</time></trkpt>
        <trkpt lat="29.574877" lon="103.362564"><ele>1601.3778</ele><time>2026-07-24T16:10:14.000Z</time></trkpt>
        <trkpt lat="29.574872" lon="103.362552"><ele>1602.3711</ele><time>2026-07-24T16:10:16.000Z</time></trkpt>
        <trkpt lat="29.574868" lon="103.362538"><ele>1602.5581</ele><time>2026-07-24T16:10:18.000Z</time></trkpt>
        <trkpt lat="29.574863" lon="103.362523"><ele>1603.3389</ele><time>2026-07-24T16:10:20.000Z</time></trkpt>
        <trkpt lat="29.574857" lon="103.36251"><ele>1604.282</ele><time>2026-07-24T16:10:22.000Z</time></trkpt>
        <trkpt lat="29.574851" lon="103.3625"><ele>1603.9615</ele><time>2026-07-24T16:10:24.000Z</time></trkpt>
        <trkpt lat="29.574846" lon="103.362493"><ele>1603.6798</ele><time>2026-07-24T16:10:26.000Z</time></trkpt>
        <trkpt lat="29.574832" lon="103.362478"><ele>1603.4103</ele><time>2026-07-24T16:10:30.000Z</time></trkpt>
        <trkpt lat="29.574823" lon="103.362467"><ele>1604.1567</ele><time>2026-07-24T16:10:32.000Z</time></trkpt>
        <trkpt lat="29.574816" lon="103.362455"><ele>1604.0835</ele><time>2026-07-24T16:10:34.000Z</time></trkpt>
        <trkpt lat="29.574808" lon="103.362442"><ele>1603.363</ele><time>2026-07-24T16:10:36.000Z</time></trkpt>
        <trkpt lat="29.574799" lon="103.36243"><ele>1603.3423</ele><time>2026-07-24T16:10:38.000Z</time></trkpt>
        <trkpt lat="29.574791" lon="103.362421"><ele>1603.6884</ele><time>2026-07-24T16:10:40.000Z</time></trkpt>
        <trkpt lat="29.574783" lon="103.362417"><ele>1602.8531</ele><time>2026-07-24T16:10:42.000Z</time></trkpt>
        <trkpt lat="29.574771" lon="103.362413"><ele>1602.5826</ele><time>2026-07-24T16:10:44.000Z</time></trkpt>
        <trkpt lat="29.574758" lon="103.362409"><ele>1603.6895</ele><time>2026-07-24T16:10:46.000Z</time></trkpt>
        <trkpt lat="29.574744" lon="103.362407"><ele>1604.4333</ele><time>2026-07-24T16:10:48.000Z</time></trkpt>
        <trkpt lat="29.574732" lon="103.362406"><ele>1604.4543</ele><time>2026-07-24T16:10:50.000Z</time></trkpt>
        <trkpt lat="29.574719" lon="103.362407"><ele>1604.9231</ele><time>2026-07-24T16:10:52.000Z</time></trkpt>
        <trkpt lat="29.574708" lon="103.362409"><ele>1605.5425</ele><time>2026-07-24T16:10:54.000Z</time></trkpt>
        <trkpt lat="29.574698" lon="103.362413"><ele>1605.1388</ele><time>2026-07-24T16:10:56.000Z</time></trkpt>
        <trkpt lat="29.574689" lon="103.362417"><ele>1605.6154</ele><time>2026-07-24T16:10:58.000Z</time></trkpt>
        <trkpt lat="29.57468" lon="103.362421"><ele>1605.4918</ele><time>2026-07-24T16:11:00.000Z</time></trkpt>
        <trkpt lat="29.57467" lon="103.362424"><ele>1605.4457</ele><time>2026-07-24T16:11:02.000Z</time></trkpt>
        <trkpt lat="29.574661" lon="103.362426"><ele>1605.97</ele><time>2026-07-24T16:11:04.000Z</time></trkpt>
        <trkpt lat="29.574644" lon="103.362428"><ele>1605.9236</ele><time>2026-07-24T16:11:08.000Z</time></trkpt>
        <trkpt lat="29.574633" lon="103.362431"><ele>1605.7554</ele><time>2026-07-24T16:11:10.000Z</time></trkpt>
        <trkpt lat="29.574619" lon="103.362435"><ele>1604.8154</ele><time>2026-07-24T16:11:12.000Z</time></trkpt>
        <trkpt lat="29.574605" lon="103.36244"><ele>1605.1311</ele><time>2026-07-24T16:11:14.000Z</time></trkpt>
        <trkpt lat="29.574583" lon="103.362449"><ele>1604.9811</ele><time>2026-07-24T16:11:16.000Z</time></trkpt>
        <trkpt lat="29.574564" lon="103.362458"><ele>1605.0043</ele><time>2026-07-24T16:11:18.000Z</time></trkpt>
        <trkpt lat="29.574547" lon="103.362468"><ele>1605.3793</ele><time>2026-07-24T16:11:20.000Z</time></trkpt>
        <trkpt lat="29.574531" lon="103.362475"><ele>1605.2633</ele><time>2026-07-24T16:11:22.000Z</time></trkpt>
        <trkpt lat="29.574517" lon="103.362481"><ele>1604.9199</ele><time>2026-07-24T16:11:24.000Z</time></trkpt>
        <trkpt lat="29.574503" lon="103.362485"><ele>1605.8068</ele><time>2026-07-24T16:11:26.000Z</time></trkpt>
        <trkpt lat="29.574491" lon="103.362489"><ele>1605.991</ele><time>2026-07-24T16:11:28.000Z</time></trkpt>
        <trkpt lat="29.574478" lon="103.362493"><ele>1607.1455</ele><time>2026-07-24T16:11:30.000Z</time></trkpt>
        <trkpt lat="29.574464" lon="103.362497"><ele>1606.0001</ele><time>2026-07-24T16:11:32.000Z</time></trkpt>
        <trkpt lat="29.574447" lon="103.362502"><ele>1604.8304</ele><time>2026-07-24T16:11:34.000Z</time></trkpt>
        <trkpt lat="29.574428" lon="103.362506"><ele>1606.3024</ele><time>2026-07-24T16:11:36.000Z</time></trkpt>
        <trkpt lat="29.574409" lon="103.362509"><ele>1606.2917</ele><time>2026-07-24T16:11:38.000Z</time></trkpt>
        <trkpt lat="29.574389" lon="103.36251"><ele>1606.9783</ele><time>2026-07-24T16:11:40.000Z</time></trkpt>
        <trkpt lat="29.574368" lon="103.362511"><ele>1605.3759</ele><time>2026-07-24T16:11:42.000Z</time></trkpt>
        <trkpt lat="29.574348" lon="103.362512"><ele>1605.4315</ele><time>2026-07-24T16:11:44.000Z</time></trkpt>
        <trkpt lat="29.57433" lon="103.362513"><ele>1604.8646</ele><time>2026-07-24T16:11:46.000Z</time></trkpt>
        <trkpt lat="29.574314" lon="103.362514"><ele>1604.6724</ele><time>2026-07-24T16:11:48.000Z</time></trkpt>
        <trkpt lat="29.574296" lon="103.362514"><ele>1604.5637</ele><time>2026-07-24T16:11:50.000Z</time></trkpt>
        <trkpt lat="29.574278" lon="103.362513"><ele>1604.6469</ele><time>2026-07-24T16:11:52.000Z</time></trkpt>
        <trkpt lat="29.574263" lon="103.362511"><ele>1604.7725</ele><time>2026-07-24T16:11:54.000Z</time></trkpt>
        <trkpt lat="29.574253" lon="103.362511"><ele>1605.8011</ele><time>2026-07-24T16:11:56.000Z</time></trkpt>
        <trkpt lat="29.574238" lon="103.362512"><ele>1607.0006</ele><time>2026-07-24T16:11:58.000Z</time></trkpt>
        <trkpt lat="29.574221" lon="103.362515"><ele>1606.2592</ele><time>2026-07-24T16:12:00.000Z</time></trkpt>
        <trkpt lat="29.5742" lon="103.362518"><ele>1602.6963</ele><time>2026-07-24T16:12:02.000Z</time></trkpt>
        <trkpt lat="29.574182" lon="103.362521"><ele>1605.2574</ele><time>2026-07-24T16:12:04.000Z</time></trkpt>
        <trkpt lat="29.574164" lon="103.362524"><ele>1604.8162</ele><time>2026-07-24T16:12:06.000Z</time></trkpt>
        <trkpt lat="29.574144" lon="103.362527"><ele>1604.3594</ele><time>2026-07-24T16:12:08.000Z</time></trkpt>
        <trkpt lat="29.574129" lon="103.362528"><ele>1604.8998</ele><time>2026-07-24T16:12:10.000Z</time></trkpt>
        <trkpt lat="29.574116" lon="103.362529"><ele>1605.1481</ele><time>2026-07-24T16:12:12.000Z</time></trkpt>
        <trkpt lat="29.574103" lon="103.362531"><ele>1605.6683</ele><time>2026-07-24T16:12:14.000Z</time></trkpt>
        <trkpt lat="29.57409" lon="103.362536"><ele>1604.2454</ele><time>2026-07-24T16:12:16.000Z</time></trkpt>
        <trkpt lat="29.574076" lon="103.362541"><ele>1602.5446</ele><time>2026-07-24T16:12:18.000Z</time></trkpt>
        <trkpt lat="29.574062" lon="103.362543"><ele>1605.2153</ele><time>2026-07-24T16:12:20.000Z</time></trkpt>
        <trkpt lat="29.574047" lon="103.362542"><ele>1603.7482</ele><time>2026-07-24T16:12:22.000Z</time></trkpt>
        <trkpt lat="29.574033" lon="103.36254"><ele>1603.869</ele><time>2026-07-24T16:12:24.000Z</time></trkpt>
        <trkpt lat="29.57402" lon="103.362534"><ele>1603.1061</ele><time>2026-07-24T16:12:26.000Z</time></trkpt>
        <trkpt lat="29.574008" lon="103.362529"><ele>1604.4203</ele><time>2026-07-24T16:12:28.000Z</time></trkpt>
        <trkpt lat="29.573999" lon="103.362524"><ele>1604.8607</ele><time>2026-07-24T16:12:30.000Z</time></trkpt>
        <trkpt lat="29.57399" lon="103.362521"><ele>1603.935</ele><time>2026-07-24T16:12:32.000Z</time></trkpt>
        <trkpt lat="29.573976" lon="103.362522"><ele>1605.8759</ele><time>2026-07-24T16:12:36.000Z</time></trkpt>
        <trkpt lat="29.573963" lon="103.362519"><ele>1606.1775</ele><time>2026-07-24T16:12:38.000Z</time></trkpt>
        <trkpt lat="29.573962" lon="103.362517"><ele>1605.7372</ele><time>2026-07-24T16:12:42.000Z</time></trkpt>
        <trkpt lat="29.57395" lon="103.362487"><ele>1608.1123</ele><time>2026-07-24T16:12:46.000Z</time></trkpt>
        <trkpt lat="29.573942" lon="103.362473"><ele>1607.1617</ele><time>2026-07-24T16:12:48.000Z</time></trkpt>
        <trkpt lat="29.573932" lon="103.362457"><ele>1607.4387</ele><time>2026-07-24T16:12:50.000Z</time></trkpt>
        <trkpt lat="29.573922" lon="103.362439"><ele>1607.4052</ele><time>2026-07-24T16:12:52.000Z</time></trkpt>
        <trkpt lat="29.57391" lon="103.362422"><ele>1610.5677</ele><time>2026-07-24T16:12:54.000Z</time></trkpt>
        <trkpt lat="29.573897" lon="103.362407"><ele>1609.9517</ele><time>2026-07-24T16:12:56.000Z</time></trkpt>
        <trkpt lat="29.573883" lon="103.362393"><ele>1610.7999</ele><time>2026-07-24T16:12:58.000Z</time></trkpt>
        <trkpt lat="29.573868" lon="103.362379"><ele>1611.5118</ele><time>2026-07-24T16:13:00.000Z</time></trkpt>
        <trkpt lat="29.573854" lon="103.362366"><ele>1611.7634</ele><time>2026-07-24T16:13:02.000Z</time></trkpt>
        <trkpt lat="29.573843" lon="103.362356"><ele>1612.0393</ele><time>2026-07-24T16:13:04.000Z</time></trkpt>
        <trkpt lat="29.573835" lon="103.36235"><ele>1613.4275</ele><time>2026-07-24T16:13:06.000Z</time></trkpt>
        <trkpt lat="29.573828" lon="103.362345"><ele>1613.024</ele><time>2026-07-24T16:13:08.000Z</time></trkpt>
        <trkpt lat="29.573816" lon="103.362337"><ele>1610.9106</ele><time>2026-07-24T16:13:14.000Z</time></trkpt>
        <trkpt lat="29.573808" lon="103.362332"><ele>1612.4806</ele><time>2026-07-24T16:13:18.000Z</time></trkpt>
        <trkpt lat="29.573802" lon="103.362327"><ele>1614.2958</ele><time>2026-07-24T16:13:22.000Z</time></trkpt>
        <trkpt lat="29.57379" lon="103.362323"><ele>1613.8977</ele><time>2026-07-24T16:13:26.000Z</time></trkpt>
        <trkpt lat="29.57378" lon="103.362321"><ele>1613.1166</ele><time>2026-07-24T16:13:28.000Z</time></trkpt>
        <trkpt lat="29.573768" lon="103.362317"><ele>1612.1096</ele><time>2026-07-24T16:13:34.000Z</time></trkpt>
        <trkpt lat="29.573756" lon="103.362311"><ele>1612.4407</ele><time>2026-07-24T16:13:36.000Z</time></trkpt>
        <trkpt lat="29.573749" lon="103.362305"><ele>1613.3612</ele><time>2026-07-24T16:13:44.000Z</time></trkpt>
        <trkpt lat="29.573741" lon="103.362298"><ele>1614.0632</ele><time>2026-07-24T16:13:48.000Z</time></trkpt>
        <trkpt lat="29.573721" lon="103.362283"><ele>1613.29</ele><time>2026-07-24T16:13:50.000Z</time></trkpt>
        <trkpt lat="29.57372" lon="103.362281"><ele>1614.7445</ele><time>2026-07-24T16:13:52.000Z</time></trkpt>
        <trkpt lat="29.573716" lon="103.362264"><ele>1616.1722</ele><time>2026-07-24T16:13:56.000Z</time></trkpt>
        <trkpt lat="29.57371" lon="103.362247"><ele>1617.3892</ele><time>2026-07-24T16:13:58.000Z</time></trkpt>
        <trkpt lat="29.573702" lon="103.36223"><ele>1618.2416</ele><time>2026-07-24T16:14:00.000Z</time></trkpt>
        <trkpt lat="29.573695" lon="103.362218"><ele>1619.0092</ele><time>2026-07-24T16:14:02.000Z</time></trkpt>
        <trkpt lat="29.573689" lon="103.362211"><ele>1618.909</ele><time>2026-07-24T16:14:04.000Z</time></trkpt>
        <trkpt lat="29.573682" lon="103.362208"><ele>1619.1396</ele><time>2026-07-24T16:14:06.000Z</time></trkpt>
        <trkpt lat="29.573667" lon="103.362204"><ele>1620.1194</ele><time>2026-07-24T16:14:16.000Z</time></trkpt>
        <trkpt lat="29.573655" lon="103.3622"><ele>1619.6173</ele><time>2026-07-24T16:14:20.000Z</time></trkpt>
        <trkpt lat="29.57365" lon="103.362198"><ele>1619.7206</ele><time>2026-07-24T16:14:22.000Z</time></trkpt>
        <trkpt lat="29.573642" lon="103.362188"><ele>1619.6768</ele><time>2026-07-24T16:14:26.000Z</time></trkpt>
        <trkpt lat="29.573624" lon="103.362182"><ele>1623.4711</ele><time>2026-07-24T16:14:47.000Z</time></trkpt>
        <trkpt lat="29.573611" lon="103.362188"><ele>1622.2864</ele><time>2026-07-24T16:15:02.000Z</time></trkpt>
        <trkpt lat="29.573596" lon="103.362194"><ele>1621.4099</ele><time>2026-07-24T16:15:17.000Z</time></trkpt>
        <trkpt lat="29.573595" lon="103.362155"><ele>1624.1884</ele><time>2026-07-24T16:15:55.000Z</time></trkpt>
        <trkpt lat="29.573594" lon="103.362152"><ele>1625.9551</ele><time>2026-07-24T16:15:57.000Z</time></trkpt>
        <trkpt lat="29.573591" lon="103.362148"><ele>1626.8796</ele><time>2026-07-24T16:15:59.000Z</time></trkpt>
        <trkpt lat="29.573569" lon="103.362121"><ele>1625.309</ele><time>2026-07-24T16:16:07.000Z</time></trkpt>
        <trkpt lat="29.573566" lon="103.362115"><ele>1625.1115</ele><time>2026-07-24T16:16:09.000Z</time></trkpt>
        <trkpt lat="29.573566" lon="103.362113"><ele>1624.9342</ele><time>2026-07-24T16:16:11.000Z</time></trkpt>
        <trkpt lat="29.573561" lon="103.362085"><ele>1626.4683</ele><time>2026-07-24T16:16:29.000Z</time></trkpt>
        <trkpt lat="29.57356" lon="103.36208"><ele>1626.7802</ele><time>2026-07-24T16:16:31.000Z</time></trkpt>
        <trkpt lat="29.573558" lon="103.362078"><ele>1626.7323</ele><time>2026-07-24T16:16:33.000Z</time></trkpt>
        <trkpt lat="29.573538" lon="103.362058"><ele>1626.3468</ele><time>2026-07-24T16:16:45.000Z</time></trkpt>
        <trkpt lat="29.573532" lon="103.362055"><ele>1625.6545</ele><time>2026-07-24T16:16:47.000Z</time></trkpt>
        <trkpt lat="29.573515" lon="103.362049"><ele>1625.9843</ele><time>2026-07-24T16:16:49.000Z</time></trkpt>
        <trkpt lat="29.573502" lon="103.362044"><ele>1626.1515</ele><time>2026-07-24T16:16:51.000Z</time></trkpt>
        <trkpt lat="29.573502" lon="103.362044"><ele>1626.6796</ele><time>2026-07-24T16:16:53.000Z</time></trkpt>
        <trkpt lat="29.573494" lon="103.362022"><ele>1629.952</ele><time>2026-07-24T16:17:03.000Z</time></trkpt>
        <trkpt lat="29.573488" lon="103.362012"><ele>1634.0779</ele><time>2026-07-24T16:17:17.000Z</time></trkpt>
        <trkpt lat="29.573483" lon="103.362006"><ele>1634.6108</ele><time>2026-07-24T16:17:19.000Z</time></trkpt>
        <trkpt lat="29.573455" lon="103.361972"><ele>1636.0836</ele><time>2026-07-24T16:17:34.000Z</time></trkpt>
        <trkpt lat="29.573455" lon="103.361972"><ele>1635.4169</ele><time>2026-07-24T16:17:36.000Z</time></trkpt>
        <trkpt lat="29.573455" lon="103.361971"><ele>1635.6079</ele><time>2026-07-24T16:17:38.000Z</time></trkpt>
        <trkpt lat="29.57344" lon="103.361943"><ele>1637.2029</ele><time>2026-07-24T16:17:54.000Z</time></trkpt>
        <trkpt lat="29.573435" lon="103.361937"><ele>1636.9564</ele><time>2026-07-24T16:17:56.000Z</time></trkpt>
        <trkpt lat="29.573431" lon="103.361936"><ele>1637.2313</ele><time>2026-07-24T16:17:58.000Z</time></trkpt>
        <trkpt lat="29.573412" lon="103.361928"><ele>1638.6681</ele><time>2026-07-24T16:18:27.000Z</time></trkpt>
        <trkpt lat="29.573405" lon="103.361925"><ele>1639.343</ele><time>2026-07-24T16:18:29.000Z</time></trkpt>
        <trkpt lat="29.573398" lon="103.361923"><ele>1638.2844</ele><time>2026-07-24T16:18:31.000Z</time></trkpt>
        <trkpt lat="29.573372" lon="103.361919"><ele>1639.5197</ele><time>2026-07-24T16:18:41.000Z</time></trkpt>
        <trkpt lat="29.573366" lon="103.361918"><ele>1639.3245</ele><time>2026-07-24T16:18:43.000Z</time></trkpt>
        <trkpt lat="29.573362" lon="103.361915"><ele>1639.4186</ele><time>2026-07-24T16:18:45.000Z</time></trkpt>
        <trkpt lat="29.573344" lon="103.361903"><ele>1639.6953</ele><time>2026-07-24T16:18:53.000Z</time></trkpt>
        <trkpt lat="29.573341" lon="103.3619"><ele>1640.4752</ele><time>2026-07-24T16:18:55.000Z</time></trkpt>
        <trkpt lat="29.573336" lon="103.361897"><ele>1640.7269</ele><time>2026-07-24T16:18:57.000Z</time></trkpt>
        <trkpt lat="29.573316" lon="103.361886"><ele>1641.4379</ele><time>2026-07-24T16:19:05.000Z</time></trkpt>
        <trkpt lat="29.573311" lon="103.361883"><ele>1642.2354</ele><time>2026-07-24T16:19:07.000Z</time></trkpt>
        <trkpt lat="29.573309" lon="103.361881"><ele>1642.5819</ele><time>2026-07-24T16:19:09.000Z</time></trkpt>
        <trkpt lat="29.573279" lon="103.361871"><ele>1644.0233</ele><time>2026-07-24T16:19:26.000Z</time></trkpt>
        <trkpt lat="29.573271" lon="103.361873"><ele>1647.652</ele><time>2026-07-24T16:19:41.000Z</time></trkpt>
        <trkpt lat="29.573273" lon="103.361872"><ele>1646.4976</ele><time>2026-07-24T16:19:56.000Z</time></trkpt>
        <trkpt lat="29.573303" lon="103.361841"><ele>1646.428</ele><time>2026-07-24T16:20:59.000Z</time></trkpt>
        <trkpt lat="29.573306" lon="103.36184"><ele>1647.525</ele><time>2026-07-24T16:21:14.000Z</time></trkpt>
        <trkpt lat="29.573243" lon="103.361865"><ele>1646.6348</ele><time>2026-07-24T16:24:12.000Z</time></trkpt>
        <trkpt lat="29.573243" lon="103.361866"><ele>1645.9608</ele><time>2026-07-24T16:24:14.000Z</time></trkpt>
        <trkpt lat="29.573241" lon="103.361865"><ele>1647.3182</ele><time>2026-07-24T16:24:16.000Z</time></trkpt>
        <trkpt lat="29.57318" lon="103.361834"><ele>1647.7145</ele><time>2026-07-24T16:24:25.000Z</time></trkpt>
        <trkpt lat="29.57318" lon="103.361833"><ele>1646.1135</ele><time>2026-07-24T16:24:27.000Z</time></trkpt>
        <trkpt lat="29.573177" lon="103.361832"><ele>1646.0431</ele><time>2026-07-24T16:24:29.000Z</time></trkpt>
        <trkpt lat="29.573149" lon="103.361817"><ele>1648.6224</ele><time>2026-07-24T16:24:33.000Z</time></trkpt>
        <trkpt lat="29.573133" lon="103.361807"><ele>1648.1882</ele><time>2026-07-24T16:24:35.000Z</time></trkpt>
        <trkpt lat="29.573118" lon="103.361795"><ele>1647.7705</ele><time>2026-07-24T16:24:37.000Z</time></trkpt>
        <trkpt lat="29.573105" lon="103.361783"><ele>1649.2078</ele><time>2026-07-24T16:24:39.000Z</time></trkpt>
        <trkpt lat="29.573095" lon="103.361775"><ele>1649.1954</ele><time>2026-07-24T16:24:41.000Z</time></trkpt>
        <trkpt lat="29.573085" lon="103.361765"><ele>1650.4567</ele><time>2026-07-24T16:24:43.000Z</time></trkpt>
        <trkpt lat="29.573074" lon="103.361754"><ele>1649.5281</ele><time>2026-07-24T16:24:45.000Z</time></trkpt>
        <trkpt lat="29.573063" lon="103.361742"><ele>1649.8933</ele><time>2026-07-24T16:24:47.000Z</time></trkpt>
        <trkpt lat="29.573053" lon="103.36173"><ele>1650.1034</ele><time>2026-07-24T16:24:49.000Z</time></trkpt>
        <trkpt lat="29.573041" lon="103.361718"><ele>1651.3113</ele><time>2026-07-24T16:24:51.000Z</time></trkpt>
        <trkpt lat="29.573029" lon="103.361706"><ele>1651.0953</ele><time>2026-07-24T16:24:53.000Z</time></trkpt>
        <trkpt lat="29.573013" lon="103.361694"><ele>1650.6425</ele><time>2026-07-24T16:24:55.000Z</time></trkpt>
        <trkpt lat="29.572998" lon="103.361685"><ele>1649.3086</ele><time>2026-07-24T16:24:57.000Z</time></trkpt>
        <trkpt lat="29.572984" lon="103.361676"><ele>1649.7029</ele><time>2026-07-24T16:24:59.000Z</time></trkpt>
        <trkpt lat="29.572967" lon="103.361667"><ele>1650.5068</ele><time>2026-07-24T16:25:01.000Z</time></trkpt>
        <trkpt lat="29.57295" lon="103.361658"><ele>1649.0457</ele><time>2026-07-24T16:25:03.000Z</time></trkpt>
        <trkpt lat="29.572929" lon="103.36165"><ele>1651.8876</ele><time>2026-07-24T16:25:05.000Z</time></trkpt>
        <trkpt lat="29.572907" lon="103.361642"><ele>1651.4261</ele><time>2026-07-24T16:25:07.000Z</time></trkpt>
        <trkpt lat="29.572889" lon="103.361636"><ele>1652.0186</ele><time>2026-07-24T16:25:09.000Z</time></trkpt>
        <trkpt lat="29.572867" lon="103.361631"><ele>1651.9021</ele><time>2026-07-24T16:25:11.000Z</time></trkpt>
        <trkpt lat="29.572846" lon="103.361628"><ele>1651.2695</ele><time>2026-07-24T16:25:13.000Z</time></trkpt>
        <trkpt lat="29.572826" lon="103.361629"><ele>1651.7535</ele><time>2026-07-24T16:25:15.000Z</time></trkpt>
        <trkpt lat="29.572808" lon="103.36163"><ele>1650.7026</ele><time>2026-07-24T16:25:17.000Z</time></trkpt>
        <trkpt lat="29.572792" lon="103.36163"><ele>1651.2549</ele><time>2026-07-24T16:25:19.000Z</time></trkpt>
        <trkpt lat="29.572774" lon="103.361631"><ele>1649.6412</ele><time>2026-07-24T16:25:21.000Z</time></trkpt>
        <trkpt lat="29.572757" lon="103.361634"><ele>1649.7722</ele><time>2026-07-24T16:25:23.000Z</time></trkpt>
        <trkpt lat="29.572742" lon="103.361636"><ele>1650.5006</ele><time>2026-07-24T16:25:25.000Z</time></trkpt>
        <trkpt lat="29.572726" lon="103.361638"><ele>1651.4547</ele><time>2026-07-24T16:25:27.000Z</time></trkpt>
        <trkpt lat="29.572707" lon="103.361643"><ele>1652.4498</ele><time>2026-07-24T16:25:29.000Z</time></trkpt>
        <trkpt lat="29.57269" lon="103.361649"><ele>1652.2424</ele><time>2026-07-24T16:25:31.000Z</time></trkpt>
        <trkpt lat="29.572674" lon="103.361653"><ele>1650.5403</ele><time>2026-07-24T16:25:33.000Z</time></trkpt>
        <trkpt lat="29.572659" lon="103.361658"><ele>1651.1312</ele><time>2026-07-24T16:25:35.000Z</time></trkpt>
        <trkpt lat="29.572645" lon="103.361662"><ele>1651.3553</ele><time>2026-07-24T16:25:37.000Z</time></trkpt>
        <trkpt lat="29.572632" lon="103.361664"><ele>1652.2235</ele><time>2026-07-24T16:25:39.000Z</time></trkpt>
        <trkpt lat="29.572619" lon="103.361666"><ele>1651.3942</ele><time>2026-07-24T16:25:41.000Z</time></trkpt>
        <trkpt lat="29.572604" lon="103.361669"><ele>1651.6653</ele><time>2026-07-24T16:25:43.000Z</time></trkpt>
        <trkpt lat="29.57259" lon="103.361671"><ele>1653.0388</ele><time>2026-07-24T16:25:45.000Z</time></trkpt>
        <trkpt lat="29.57258" lon="103.361674"><ele>1653.6367</ele><time>2026-07-24T16:25:47.000Z</time></trkpt>
        <trkpt lat="29.572571" lon="103.361673"><ele>1652.9846</ele><time>2026-07-24T16:25:49.000Z</time></trkpt>
        <trkpt lat="29.572558" lon="103.361671"><ele>1657.2354</ele><time>2026-07-24T16:25:53.000Z</time></trkpt>
        <trkpt lat="29.572551" lon="103.361674"><ele>1657.8821</ele><time>2026-07-24T16:25:57.000Z</time></trkpt>
        <trkpt lat="29.572539" lon="103.361684"><ele>1658.2736</ele><time>2026-07-24T16:26:01.000Z</time></trkpt>
        <trkpt lat="29.572527" lon="103.361695"><ele>1658.0547</ele><time>2026-07-24T16:26:03.000Z</time></trkpt>
        <trkpt lat="29.572526" lon="103.361696"><ele>1657.58</ele><time>2026-07-24T16:26:05.000Z</time></trkpt>
        <trkpt lat="29.57251" lon="103.361712"><ele>1655.4802</ele><time>2026-07-24T16:26:11.000Z</time></trkpt>
        <trkpt lat="29.572504" lon="103.36172"><ele>1655.1659</ele><time>2026-07-24T16:26:13.000Z</time></trkpt>
        <trkpt lat="29.572498" lon="103.361725"><ele>1654.2181</ele><time>2026-07-24T16:26:15.000Z</time></trkpt>
        <trkpt lat="29.572484" lon="103.361734"><ele>1655.0142</ele><time>2026-07-24T16:26:21.000Z</time></trkpt>
        <trkpt lat="29.572477" lon="103.36174"><ele>1656.1372</ele><time>2026-07-24T16:26:27.000Z</time></trkpt>
        <trkpt lat="29.57247" lon="103.361741"><ele>1654.6854</ele><time>2026-07-24T16:26:31.000Z</time></trkpt>
        <trkpt lat="29.572434" lon="103.361744"><ele>1660.8949</ele><time>2026-07-24T16:26:48.000Z</time></trkpt>
        <trkpt lat="29.572425" lon="103.361747"><ele>1661.8492</ele><time>2026-07-24T16:26:52.000Z</time></trkpt>
        <trkpt lat="29.57242" lon="103.361748"><ele>1661.8457</ele><time>2026-07-24T16:26:54.000Z</time></trkpt>
        <trkpt lat="29.572404" lon="103.361751"><ele>1661.7186</ele><time>2026-07-24T16:27:02.000Z</time></trkpt>
        <trkpt lat="29.572394" lon="103.361751"><ele>1663.0133</ele><time>2026-07-24T16:27:06.000Z</time></trkpt>
        <trkpt lat="29.572389" lon="103.361751"><ele>1663.9166</ele><time>2026-07-24T16:27:08.000Z</time></trkpt>
        <trkpt lat="29.572372" lon="103.361753"><ele>1666.5444</ele><time>2026-07-24T16:27:20.000Z</time></trkpt>
        <trkpt lat="29.572328" lon="103.361761"><ele>1667.795</ele><time>2026-07-24T16:27:37.000Z</time></trkpt>
        <trkpt lat="29.57232" lon="103.361765"><ele>1666.9641</ele><time>2026-07-24T16:27:42.000Z</time></trkpt>
        <trkpt lat="29.572319" lon="103.361766"><ele>1668.316</ele><time>2026-07-24T16:27:44.000Z</time></trkpt>
        <trkpt lat="29.5723" lon="103.361774"><ele>1665.6255</ele><time>2026-07-24T16:27:56.000Z</time></trkpt>
        <trkpt lat="29.572285" lon="103.361777"><ele>1666.9788</ele><time>2026-07-24T16:28:00.000Z</time></trkpt>
        <trkpt lat="29.572279" lon="103.361775"><ele>1667.1451</ele><time>2026-07-24T16:28:02.000Z</time></trkpt>
        <trkpt lat="29.572266" lon="103.361771"><ele>1667.1506</ele><time>2026-07-24T16:28:06.000Z</time></trkpt>
        <trkpt lat="29.572258" lon="103.361775"><ele>1669.1779</ele><time>2026-07-24T16:28:16.000Z</time></trkpt>
        <trkpt lat="29.572249" lon="103.36178"><ele>1669.1283</ele><time>2026-07-24T16:28:22.000Z</time></trkpt>
        <trkpt lat="29.572238" lon="103.361782"><ele>1669.9232</ele><time>2026-07-24T16:28:32.000Z</time></trkpt>
        <trkpt lat="29.572226" lon="103.361787"><ele>1671.4658</ele><time>2026-07-24T16:28:43.000Z</time></trkpt>
        <trkpt lat="29.572221" lon="103.361791"><ele>1671.224</ele><time>2026-07-24T16:28:45.000Z</time></trkpt>
        <trkpt lat="29.572205" lon="103.3618"><ele>1672.587</ele><time>2026-07-24T16:28:49.000Z</time></trkpt>
        <trkpt lat="29.572199" lon="103.3618"><ele>1672.646</ele><time>2026-07-24T16:28:51.000Z</time></trkpt>
        <trkpt lat="29.572187" lon="103.361807"><ele>1672.0576</ele><time>2026-07-24T16:28:53.000Z</time></trkpt>
        <trkpt lat="29.572173" lon="103.361814"><ele>1671.2354</ele><time>2026-07-24T16:29:01.000Z</time></trkpt>
        <trkpt lat="29.572167" lon="103.361814"><ele>1672.835</ele><time>2026-07-24T16:29:03.000Z</time></trkpt>
        <trkpt lat="29.572156" lon="103.361816"><ele>1674.1349</ele><time>2026-07-24T16:29:09.000Z</time></trkpt>
        <trkpt lat="29.572142" lon="103.361822"><ele>1675.2258</ele><time>2026-07-24T16:29:13.000Z</time></trkpt>
        <trkpt lat="29.572137" lon="103.361826"><ele>1674.8689</ele><time>2026-07-24T16:29:15.000Z</time></trkpt>
        <trkpt lat="29.572128" lon="103.361832"><ele>1673.8114</ele><time>2026-07-24T16:29:19.000Z</time></trkpt>
        <trkpt lat="29.572114" lon="103.361839"><ele>1675.4497</ele><time>2026-07-24T16:29:23.000Z</time></trkpt>
        <trkpt lat="29.572106" lon="103.361841"><ele>1675.6628</ele><time>2026-07-24T16:29:25.000Z</time></trkpt>
        <trkpt lat="29.572098" lon="103.361842"><ele>1676.3348</ele><time>2026-07-24T16:29:27.000Z</time></trkpt>
        <trkpt lat="29.572083" lon="103.361845"><ele>1676.8682</ele><time>2026-07-24T16:29:31.000Z</time></trkpt>
        <trkpt lat="29.57207" lon="103.361849"><ele>1677.7291</ele><time>2026-07-24T16:29:35.000Z</time></trkpt>
        <trkpt lat="29.572067" lon="103.361848"><ele>1678.3444</ele><time>2026-07-24T16:29:37.000Z</time></trkpt>
        <trkpt lat="29.572052" lon="103.361843"><ele>1678.7904</ele><time>2026-07-24T16:29:43.000Z</time></trkpt>
        <trkpt lat="29.572037" lon="103.361839"><ele>1679.2328</ele><time>2026-07-24T16:29:49.000Z</time></trkpt>
        <trkpt lat="29.572033" lon="103.361839"><ele>1679.0431</ele><time>2026-07-24T16:29:51.000Z</time></trkpt>
        <trkpt lat="29.572018" lon="103.361839"><ele>1679.87</ele><time>2026-07-24T16:29:59.000Z</time></trkpt>
        <trkpt lat="29.572004" lon="103.361838"><ele>1681.2177</ele><time>2026-07-24T16:30:03.000Z</time></trkpt>
        <trkpt lat="29.571999" lon="103.361839"><ele>1681.077</ele><time>2026-07-24T16:30:05.000Z</time></trkpt>
        <trkpt lat="29.571988" lon="103.361837"><ele>1681.3519</ele><time>2026-07-24T16:30:11.000Z</time></trkpt>
        <trkpt lat="29.571974" lon="103.361836"><ele>1683.7013</ele><time>2026-07-24T16:30:29.000Z</time></trkpt>
        <trkpt lat="29.571965" lon="103.361836"><ele>1683.3019</ele><time>2026-07-24T16:30:33.000Z</time></trkpt>
        <trkpt lat="29.571957" lon="103.36184"><ele>1684.275</ele><time>2026-07-24T16:30:36.000Z</time></trkpt>
        <trkpt lat="29.571943" lon="103.361843"><ele>1685.8597</ele><time>2026-07-24T16:30:48.000Z</time></trkpt>
        <trkpt lat="29.571935" lon="103.36184"><ele>1686.2903</ele><time>2026-07-24T16:30:52.000Z</time></trkpt>
        <trkpt lat="29.571925" lon="103.36184"><ele>1686.7875</ele><time>2026-07-24T16:30:58.000Z</time></trkpt>
        <trkpt lat="29.57191" lon="103.361841"><ele>1686.7255</ele><time>2026-07-24T16:31:04.000Z</time></trkpt>
        <trkpt lat="29.571902" lon="103.36184"><ele>1686.2585</ele><time>2026-07-24T16:31:08.000Z</time></trkpt>
        <trkpt lat="29.57189" lon="103.361839"><ele>1687.9882</ele><time>2026-07-24T16:31:13.000Z</time></trkpt>
        <trkpt lat="29.571879" lon="103.361837"><ele>1686.4169</ele><time>2026-07-24T16:31:19.000Z</time></trkpt>
        <trkpt lat="29.571869" lon="103.361836"><ele>1688.6488</ele><time>2026-07-24T16:31:25.000Z</time></trkpt>
        <trkpt lat="29.571861" lon="103.361837"><ele>1691.0415</ele><time>2026-07-24T16:31:31.000Z</time></trkpt>
        <trkpt lat="29.571848" lon="103.361838"><ele>1691.4562</ele><time>2026-07-24T16:31:37.000Z</time></trkpt>
        <trkpt lat="29.571839" lon="103.361837"><ele>1691.5177</ele><time>2026-07-24T16:31:43.000Z</time></trkpt>
        <trkpt lat="29.571815" lon="103.361834"><ele>1691.52</ele><time>2026-07-24T16:31:58.000Z</time></trkpt>
        <trkpt lat="29.571787" lon="103.361832"><ele>1692.0403</ele><time>2026-07-24T16:32:07.000Z</time></trkpt>
        <trkpt lat="29.571783" lon="103.361833"><ele>1692.0637</ele><time>2026-07-24T16:32:09.000Z</time></trkpt>
        <trkpt lat="29.571778" lon="103.361835"><ele>1692.2281</ele><time>2026-07-24T16:32:11.000Z</time></trkpt>
        <trkpt lat="29.571756" lon="103.361847"><ele>1691.0712</ele><time>2026-07-24T16:32:19.000Z</time></trkpt>
        <trkpt lat="29.571742" lon="103.361854"><ele>1690.9839</ele><time>2026-07-24T16:32:21.000Z</time></trkpt>
        <trkpt lat="29.571741" lon="103.361854"><ele>1690.657</ele><time>2026-07-24T16:32:23.000Z</time></trkpt>
        <trkpt lat="29.571716" lon="103.361861"><ele>1691.8306</ele><time>2026-07-24T16:32:25.000Z</time></trkpt>
        <trkpt lat="29.571711" lon="103.361863"><ele>1691.7723</ele><time>2026-07-24T16:32:29.000Z</time></trkpt>
        <trkpt lat="29.571698" lon="103.361867"><ele>1691.5931</ele><time>2026-07-24T16:32:31.000Z</time></trkpt>
        <trkpt lat="29.571679" lon="103.361874"><ele>1691.7208</ele><time>2026-07-24T16:32:33.000Z</time></trkpt>
        <trkpt lat="29.571657" lon="103.361882"><ele>1691.8685</ele><time>2026-07-24T16:32:35.000Z</time></trkpt>
        <trkpt lat="29.571638" lon="103.361889"><ele>1691.4988</ele><time>2026-07-24T16:32:37.000Z</time></trkpt>
        <trkpt lat="29.571621" lon="103.361892"><ele>1692.6279</ele><time>2026-07-24T16:32:39.000Z</time></trkpt>
        <trkpt lat="29.571608" lon="103.36189"><ele>1692.5345</ele><time>2026-07-24T16:32:41.000Z</time></trkpt>
        <trkpt lat="29.57159" lon="103.361886"><ele>1695.3732</ele><time>2026-07-24T16:32:43.000Z</time></trkpt>
        <trkpt lat="29.571573" lon="103.361877"><ele>1695.041</ele><time>2026-07-24T16:32:45.000Z</time></trkpt>
        <trkpt lat="29.571557" lon="103.361867"><ele>1694.7338</ele><time>2026-07-24T16:32:47.000Z</time></trkpt>
        <trkpt lat="29.57154" lon="103.361856"><ele>1696.4263</ele><time>2026-07-24T16:32:49.000Z</time></trkpt>
        <trkpt lat="29.571525" lon="103.361846"><ele>1696.7349</ele><time>2026-07-24T16:32:51.000Z</time></trkpt>
        <trkpt lat="29.57151" lon="103.361836"><ele>1696.6199</ele><time>2026-07-24T16:32:53.000Z</time></trkpt>
        <trkpt lat="29.571496" lon="103.361826"><ele>1697.1458</ele><time>2026-07-24T16:32:55.000Z</time></trkpt>
        <trkpt lat="29.571481" lon="103.361816"><ele>1696.0254</ele><time>2026-07-24T16:32:57.000Z</time></trkpt>
        <trkpt lat="29.571464" lon="103.361803"><ele>1695.2974</ele><time>2026-07-24T16:32:59.000Z</time></trkpt>
        <trkpt lat="29.571446" lon="103.361786"><ele>1695.8381</ele><time>2026-07-24T16:33:01.000Z</time></trkpt>
        <trkpt lat="29.571428" lon="103.361769"><ele>1694.5592</ele><time>2026-07-24T16:33:03.000Z</time></trkpt>
        <trkpt lat="29.571413" lon="103.361754"><ele>1692.5566</ele><time>2026-07-24T16:33:05.000Z</time></trkpt>
        <trkpt lat="29.571398" lon="103.361741"><ele>1692.9332</ele><time>2026-07-24T16:33:07.000Z</time></trkpt>
        <trkpt lat="29.571382" lon="103.36173"><ele>1692.9243</ele><time>2026-07-24T16:33:09.000Z</time></trkpt>
        <trkpt lat="29.571367" lon="103.361724"><ele>1691.5201</ele><time>2026-07-24T16:33:11.000Z</time></trkpt>
        <trkpt lat="29.571352" lon="103.361721"><ele>1692.6427</ele><time>2026-07-24T16:33:13.000Z</time></trkpt>
        <trkpt lat="29.571336" lon="103.361721"><ele>1692.498</ele><time>2026-07-24T16:33:15.000Z</time></trkpt>
        <trkpt lat="29.571319" lon="103.361723"><ele>1691.9762</ele><time>2026-07-24T16:33:17.000Z</time></trkpt>
        <trkpt lat="29.571301" lon="103.361725"><ele>1691.4271</ele><time>2026-07-24T16:33:19.000Z</time></trkpt>
        <trkpt lat="29.571285" lon="103.361729"><ele>1691.5405</ele><time>2026-07-24T16:33:21.000Z</time></trkpt>
        <trkpt lat="29.571265" lon="103.361735"><ele>1691.0592</ele><time>2026-07-24T16:33:23.000Z</time></trkpt>
        <trkpt lat="29.57124" lon="103.361741"><ele>1692.4972</ele><time>2026-07-24T16:33:25.000Z</time></trkpt>
        <trkpt lat="29.571216" lon="103.361743"><ele>1692.7697</ele><time>2026-07-24T16:33:27.000Z</time></trkpt>
        <trkpt lat="29.571194" lon="103.361741"><ele>1692.7024</ele><time>2026-07-24T16:33:29.000Z</time></trkpt>
        <trkpt lat="29.571177" lon="103.361733"><ele>1691.4108</ele><time>2026-07-24T16:33:31.000Z</time></trkpt>
        <trkpt lat="29.571163" lon="103.361724"><ele>1692.1182</ele><time>2026-07-24T16:33:33.000Z</time></trkpt>
        <trkpt lat="29.571153" lon="103.361716"><ele>1692.0629</ele><time>2026-07-24T16:33:35.000Z</time></trkpt>
        <trkpt lat="29.571144" lon="103.361707"><ele>1692.0723</ele><time>2026-07-24T16:33:37.000Z</time></trkpt>
        <trkpt lat="29.571137" lon="103.361699"><ele>1692.0406</ele><time>2026-07-24T16:33:39.000Z</time></trkpt>
        <trkpt lat="29.571134" lon="103.36169"><ele>1692.4108</ele><time>2026-07-24T16:33:41.000Z</time></trkpt>
        <trkpt lat="29.571138" lon="103.361679"><ele>1692.9457</ele><time>2026-07-24T16:33:47.000Z</time></trkpt>
        <trkpt lat="29.571147" lon="103.361667"><ele>1693.2938</ele><time>2026-07-24T16:33:55.000Z</time></trkpt>
        <trkpt lat="29.571151" lon="103.361668"><ele>1690.6552</ele><time>2026-07-24T16:34:24.000Z</time></trkpt>
        <trkpt lat="29.57111" lon="103.361659"><ele>1693.729</ele><time>2026-07-24T16:35:39.000Z</time></trkpt>
        <trkpt lat="29.571079" lon="103.361653"><ele>1694.1063</ele><time>2026-07-24T16:35:41.000Z</time></trkpt>
        <trkpt lat="29.571077" lon="103.361652"><ele>1694.2045</ele><time>2026-07-24T16:35:43.000Z</time></trkpt>
        <trkpt lat="29.571049" lon="103.361637"><ele>1694.4088</ele><time>2026-07-24T16:35:46.000Z</time></trkpt>
        <trkpt lat="29.571048" lon="103.361637"><ele>1695.5807</ele><time>2026-07-24T16:35:48.000Z</time></trkpt>
        <trkpt lat="29.571045" lon="103.361635"><ele>1694.9597</ele><time>2026-07-24T16:35:50.000Z</time></trkpt>
        <trkpt lat="29.57102" lon="103.361618"><ele>1695.2913</ele><time>2026-07-24T16:35:54.000Z</time></trkpt>
        <trkpt lat="29.571006" lon="103.361608"><ele>1695.0719</ele><time>2026-07-24T16:35:56.000Z</time></trkpt>
        <trkpt lat="29.570992" lon="103.3616"><ele>1695.4889</ele><time>2026-07-24T16:35:58.000Z</time></trkpt>
        <trkpt lat="29.570978" lon="103.361591"><ele>1696.1725</ele><time>2026-07-24T16:36:00.000Z</time></trkpt>
        <trkpt lat="29.570965" lon="103.361583"><ele>1697.0637</ele><time>2026-07-24T16:36:02.000Z</time></trkpt>
        <trkpt lat="29.570953" lon="103.361575"><ele>1696.5908</ele><time>2026-07-24T16:36:04.000Z</time></trkpt>
        <trkpt lat="29.570941" lon="103.361568"><ele>1698.7472</ele><time>2026-07-24T16:36:06.000Z</time></trkpt>
        <trkpt lat="29.570931" lon="103.361561"><ele>1698.6279</ele><time>2026-07-24T16:36:08.000Z</time></trkpt>
        <trkpt lat="29.570918" lon="103.361552"><ele>1698.8357</ele><time>2026-07-24T16:36:10.000Z</time></trkpt>
        <trkpt lat="29.570907" lon="103.361544"><ele>1698.688</ele><time>2026-07-24T16:36:12.000Z</time></trkpt>
        <trkpt lat="29.570894" lon="103.361535"><ele>1699.3933</ele><time>2026-07-24T16:36:14.000Z</time></trkpt>
        <trkpt lat="29.57088" lon="103.361526"><ele>1699.656</ele><time>2026-07-24T16:36:16.000Z</time></trkpt>
        <trkpt lat="29.570863" lon="103.361517"><ele>1700.3657</ele><time>2026-07-24T16:36:18.000Z</time></trkpt>
        <trkpt lat="29.570846" lon="103.361509"><ele>1700.1412</ele><time>2026-07-24T16:36:20.000Z</time></trkpt>
        <trkpt lat="29.570834" lon="103.361502"><ele>1700.337</ele><time>2026-07-24T16:36:22.000Z</time></trkpt>
        <trkpt lat="29.57082" lon="103.361495"><ele>1699.5662</ele><time>2026-07-24T16:36:24.000Z</time></trkpt>
        <trkpt lat="29.570807" lon="103.36149"><ele>1699.7091</ele><time>2026-07-24T16:36:26.000Z</time></trkpt>
        <trkpt lat="29.570796" lon="103.361485"><ele>1699.34</ele><time>2026-07-24T16:36:28.000Z</time></trkpt>
        <trkpt lat="29.570783" lon="103.361481"><ele>1699.881</ele><time>2026-07-24T16:36:30.000Z</time></trkpt>
        <trkpt lat="29.570767" lon="103.361475"><ele>1699.9569</ele><time>2026-07-24T16:36:32.000Z</time></trkpt>
        <trkpt lat="29.570752" lon="103.361468"><ele>1700.4894</ele><time>2026-07-24T16:36:34.000Z</time></trkpt>
        <trkpt lat="29.570739" lon="103.361461"><ele>1700.4204</ele><time>2026-07-24T16:36:36.000Z</time></trkpt>
        <trkpt lat="29.570728" lon="103.361455"><ele>1700.4019</ele><time>2026-07-24T16:36:38.000Z</time></trkpt>
        <trkpt lat="29.570717" lon="103.361451"><ele>1699.2239</ele><time>2026-07-24T16:36:40.000Z</time></trkpt>
        <trkpt lat="29.570701" lon="103.361446"><ele>1701.2784</ele><time>2026-07-24T16:36:42.000Z</time></trkpt>
        <trkpt lat="29.570688" lon="103.361443"><ele>1702.108</ele><time>2026-07-24T16:36:44.000Z</time></trkpt>
        <trkpt lat="29.570674" lon="103.361439"><ele>1702.2992</ele><time>2026-07-24T16:36:46.000Z</time></trkpt>
        <trkpt lat="29.570663" lon="103.361433"><ele>1702.5388</ele><time>2026-07-24T16:36:48.000Z</time></trkpt>
        <trkpt lat="29.570652" lon="103.361428"><ele>1701.4183</ele><time>2026-07-24T16:36:50.000Z</time></trkpt>
        <trkpt lat="29.570637" lon="103.361424"><ele>1701.9442</ele><time>2026-07-24T16:36:52.000Z</time></trkpt>
        <trkpt lat="29.57062" lon="103.361419"><ele>1702.9718</ele><time>2026-07-24T16:36:54.000Z</time></trkpt>
        <trkpt lat="29.570603" lon="103.361416"><ele>1703.4246</ele><time>2026-07-24T16:36:56.000Z</time></trkpt>
        <trkpt lat="29.570585" lon="103.361412"><ele>1703.5355</ele><time>2026-07-24T16:36:58.000Z</time></trkpt>
        <trkpt lat="29.570565" lon="103.361408"><ele>1704.0173</ele><time>2026-07-24T16:37:00.000Z</time></trkpt>
        <trkpt lat="29.570545" lon="103.361403"><ele>1704.835</ele><time>2026-07-24T16:37:02.000Z</time></trkpt>
        <trkpt lat="29.570524" lon="103.361398"><ele>1703.5994</ele><time>2026-07-24T16:37:04.000Z</time></trkpt>
        <trkpt lat="29.570505" lon="103.361394"><ele>1703.8534</ele><time>2026-07-24T16:37:06.000Z</time></trkpt>
        <trkpt lat="29.570487" lon="103.361389"><ele>1704.0916</ele><time>2026-07-24T16:37:08.000Z</time></trkpt>
        <trkpt lat="29.570467" lon="103.361382"><ele>1704.3868</ele><time>2026-07-24T16:37:10.000Z</time></trkpt>
        <trkpt lat="29.570447" lon="103.361373"><ele>1703.7031</ele><time>2026-07-24T16:37:12.000Z</time></trkpt>
        <trkpt lat="29.570429" lon="103.361365"><ele>1704.3488</ele><time>2026-07-24T16:37:14.000Z</time></trkpt>
        <trkpt lat="29.570413" lon="103.361355"><ele>1702.69</ele><time>2026-07-24T16:37:16.000Z</time></trkpt>
        <trkpt lat="29.570396" lon="103.361345"><ele>1701.8005</ele><time>2026-07-24T16:37:18.000Z</time></trkpt>
        <trkpt lat="29.570381" lon="103.361336"><ele>1702.0807</ele><time>2026-07-24T16:37:20.000Z</time></trkpt>
        <trkpt lat="29.570365" lon="103.361326"><ele>1703.2734</ele><time>2026-07-24T16:37:22.000Z</time></trkpt>
        <trkpt lat="29.570348" lon="103.361315"><ele>1701.2892</ele><time>2026-07-24T16:37:24.000Z</time></trkpt>
        <trkpt lat="29.570331" lon="103.361304"><ele>1701.1082</ele><time>2026-07-24T16:37:26.000Z</time></trkpt>
        <trkpt lat="29.570309" lon="103.361293"><ele>1700.7064</ele><time>2026-07-24T16:37:28.000Z</time></trkpt>
        <trkpt lat="29.57029" lon="103.361283"><ele>1701.529</ele><time>2026-07-24T16:37:30.000Z</time></trkpt>
        <trkpt lat="29.570271" lon="103.361273"><ele>1701.3314</ele><time>2026-07-24T16:37:32.000Z</time></trkpt>
        <trkpt lat="29.570252" lon="103.361265"><ele>1700.6322</ele><time>2026-07-24T16:37:34.000Z</time></trkpt>
        <trkpt lat="29.570232" lon="103.361258"><ele>1700.5994</ele><time>2026-07-24T16:37:36.000Z</time></trkpt>
        <trkpt lat="29.570212" lon="103.361254"><ele>1700.9703</ele><time>2026-07-24T16:37:38.000Z</time></trkpt>
        <trkpt lat="29.570193" lon="103.36125"><ele>1700.254</ele><time>2026-07-24T16:37:40.000Z</time></trkpt>
        <trkpt lat="29.570177" lon="103.361246"><ele>1700.8971</ele><time>2026-07-24T16:37:42.000Z</time></trkpt>
        <trkpt lat="29.570159" lon="103.361243"><ele>1700.4218</ele><time>2026-07-24T16:37:44.000Z</time></trkpt>
        <trkpt lat="29.570144" lon="103.36124"><ele>1699.7891</ele><time>2026-07-24T16:37:46.000Z</time></trkpt>
        <trkpt lat="29.570129" lon="103.361237"><ele>1700.8079</ele><time>2026-07-24T16:37:48.000Z</time></trkpt>
        <trkpt lat="29.570112" lon="103.361234"><ele>1701.7589</ele><time>2026-07-24T16:37:50.000Z</time></trkpt>
        <trkpt lat="29.570097" lon="103.361231"><ele>1701.3331</ele><time>2026-07-24T16:37:52.000Z</time></trkpt>
        <trkpt lat="29.570078" lon="103.361228"><ele>1699.9852</ele><time>2026-07-24T16:37:54.000Z</time></trkpt>
        <trkpt lat="29.570059" lon="103.361224"><ele>1701.5651</ele><time>2026-07-24T16:37:56.000Z</time></trkpt>
        <trkpt lat="29.57004" lon="103.361222"><ele>1701.44</ele><time>2026-07-24T16:37:58.000Z</time></trkpt>
        <trkpt lat="29.570024" lon="103.36122"><ele>1702.5098</ele><time>2026-07-24T16:38:00.000Z</time></trkpt>
        <trkpt lat="29.570011" lon="103.361219"><ele>1701.9247</ele><time>2026-07-24T16:38:02.000Z</time></trkpt>
        <trkpt lat="29.569999" lon="103.361218"><ele>1702.9038</ele><time>2026-07-24T16:38:04.000Z</time></trkpt>
        <trkpt lat="29.569993" lon="103.361215"><ele>1702.8735</ele><time>2026-07-24T16:38:06.000Z</time></trkpt>
        <trkpt lat="29.569978" lon="103.3612"><ele>1704.5087</ele><time>2026-07-24T16:38:10.000Z</time></trkpt>
        <trkpt lat="29.569972" lon="103.361192"><ele>1705.3004</ele><time>2026-07-24T16:38:16.000Z</time></trkpt>
        <trkpt lat="29.569958" lon="103.361169"><ele>1705.5544</ele><time>2026-07-24T16:38:18.000Z</time></trkpt>
        <trkpt lat="29.569957" lon="103.361167"><ele>1706.2203</ele><time>2026-07-24T16:38:20.000Z</time></trkpt>
        <trkpt lat="29.569948" lon="103.361156"><ele>1706.9268</ele><time>2026-07-24T16:38:24.000Z</time></trkpt>
        <trkpt lat="29.569929" lon="103.361129"><ele>1707.0703</ele><time>2026-07-24T16:38:28.000Z</time></trkpt>
        <trkpt lat="29.569921" lon="103.361115"><ele>1708.0978</ele><time>2026-07-24T16:38:30.000Z</time></trkpt>
        <trkpt lat="29.569912" lon="103.3611"><ele>1706.9255</ele><time>2026-07-24T16:38:32.000Z</time></trkpt>
        <trkpt lat="29.569904" lon="103.361088"><ele>1708.7767</ele><time>2026-07-24T16:38:34.000Z</time></trkpt>
        <trkpt lat="29.569897" lon="103.361079"><ele>1709.4119</ele><time>2026-07-24T16:38:36.000Z</time></trkpt>
        <trkpt lat="29.569889" lon="103.361073"><ele>1708.3558</ele><time>2026-07-24T16:38:38.000Z</time></trkpt>
        <trkpt lat="29.56988" lon="103.361071"><ele>1710.1492</ele><time>2026-07-24T16:38:40.000Z</time></trkpt>
        <trkpt lat="29.569863" lon="103.361067"><ele>1711.8907</ele><time>2026-07-24T16:38:44.000Z</time></trkpt>
        <trkpt lat="29.569855" lon="103.361066"><ele>1711.4823</ele><time>2026-07-24T16:38:46.000Z</time></trkpt>
        <trkpt lat="29.569845" lon="103.361062"><ele>1711.0394</ele><time>2026-07-24T16:38:48.000Z</time></trkpt>
        <trkpt lat="29.569827" lon="103.361057"><ele>1709.5986</ele><time>2026-07-24T16:38:52.000Z</time></trkpt>
        <trkpt lat="29.569818" lon="103.361054"><ele>1710.995</ele><time>2026-07-24T16:38:54.000Z</time></trkpt>
        <trkpt lat="29.569805" lon="103.36105"><ele>1710.6104</ele><time>2026-07-24T16:38:56.000Z</time></trkpt>
        <trkpt lat="29.569792" lon="103.361047"><ele>1712.4006</ele><time>2026-07-24T16:38:58.000Z</time></trkpt>
        <trkpt lat="29.569776" lon="103.361044"><ele>1711.6356</ele><time>2026-07-24T16:39:00.000Z</time></trkpt>
        <trkpt lat="29.569761" lon="103.36104"><ele>1711.7869</ele><time>2026-07-24T16:39:02.000Z</time></trkpt>
        <trkpt lat="29.569744" lon="103.361036"><ele>1713.2898</ele><time>2026-07-24T16:39:04.000Z</time></trkpt>
        <trkpt lat="29.569728" lon="103.361028"><ele>1712.402</ele><time>2026-07-24T16:39:06.000Z</time></trkpt>
        <trkpt lat="29.569713" lon="103.36102"><ele>1712.6417</ele><time>2026-07-24T16:39:08.000Z</time></trkpt>
        <trkpt lat="29.569698" lon="103.36101"><ele>1712.9691</ele><time>2026-07-24T16:39:10.000Z</time></trkpt>
        <trkpt lat="29.569684" lon="103.360999"><ele>1713.1384</ele><time>2026-07-24T16:39:12.000Z</time></trkpt>
        <trkpt lat="29.569673" lon="103.360986"><ele>1711.8262</ele><time>2026-07-24T16:39:14.000Z</time></trkpt>
        <trkpt lat="29.569663" lon="103.360972"><ele>1712.734</ele><time>2026-07-24T16:39:16.000Z</time></trkpt>
        <trkpt lat="29.569653" lon="103.360957"><ele>1712.1989</ele><time>2026-07-24T16:39:18.000Z</time></trkpt>
        <trkpt lat="29.569639" lon="103.360939"><ele>1711.416</ele><time>2026-07-24T16:39:20.000Z</time></trkpt>
        <trkpt lat="29.569626" lon="103.360923"><ele>1713.14</ele><time>2026-07-24T16:39:22.000Z</time></trkpt>
        <trkpt lat="29.569614" lon="103.360907"><ele>1712.7167</ele><time>2026-07-24T16:39:24.000Z</time></trkpt>
        <trkpt lat="29.569603" lon="103.360894"><ele>1712.9412</ele><time>2026-07-24T16:39:26.000Z</time></trkpt>
        <trkpt lat="29.56959" lon="103.360879"><ele>1712.2465</ele><time>2026-07-24T16:39:28.000Z</time></trkpt>
        <trkpt lat="29.569575" lon="103.360866"><ele>1712.459</ele><time>2026-07-24T16:39:30.000Z</time></trkpt>
        <trkpt lat="29.569562" lon="103.360855"><ele>1712.6526</ele><time>2026-07-24T16:39:32.000Z</time></trkpt>
        <trkpt lat="29.569548" lon="103.360845"><ele>1710.9473</ele><time>2026-07-24T16:39:34.000Z</time></trkpt>
        <trkpt lat="29.569534" lon="103.360835"><ele>1712.9691</ele><time>2026-07-24T16:39:36.000Z</time></trkpt>
        <trkpt lat="29.569516" lon="103.360824"><ele>1714.3107</ele><time>2026-07-24T16:39:38.000Z</time></trkpt>
        <trkpt lat="29.569497" lon="103.360813"><ele>1713.3933</ele><time>2026-07-24T16:39:40.000Z</time></trkpt>
        <trkpt lat="29.569478" lon="103.360803"><ele>1712.2722</ele><time>2026-07-24T16:39:42.000Z</time></trkpt>
        <trkpt lat="29.569459" lon="103.360793"><ele>1713.2968</ele><time>2026-07-24T16:39:44.000Z</time></trkpt>
        <trkpt lat="29.569441" lon="103.360784"><ele>1713.5356</ele><time>2026-07-24T16:39:46.000Z</time></trkpt>
        <trkpt lat="29.569425" lon="103.360775"><ele>1713.2489</ele><time>2026-07-24T16:39:48.000Z</time></trkpt>
        <trkpt lat="29.569413" lon="103.360769"><ele>1712.9275</ele><time>2026-07-24T16:39:50.000Z</time></trkpt>
        <trkpt lat="29.569403" lon="103.360764"><ele>1714.4644</ele><time>2026-07-24T16:39:52.000Z</time></trkpt>
        <trkpt lat="29.569395" lon="103.360758"><ele>1714.8661</ele><time>2026-07-24T16:39:54.000Z</time></trkpt>
        <trkpt lat="29.569379" lon="103.360747"><ele>1715.9589</ele><time>2026-07-24T16:39:58.000Z</time></trkpt>
        <trkpt lat="29.569367" lon="103.360739"><ele>1716.8441</ele><time>2026-07-24T16:40:00.000Z</time></trkpt>
        <trkpt lat="29.569355" lon="103.36073"><ele>1717.0833</ele><time>2026-07-24T16:40:02.000Z</time></trkpt>
        <trkpt lat="29.569341" lon="103.360718"><ele>1716.4392</ele><time>2026-07-24T16:40:04.000Z</time></trkpt>
        <trkpt lat="29.569326" lon="103.360706"><ele>1716.5677</ele><time>2026-07-24T16:40:06.000Z</time></trkpt>
        <trkpt lat="29.569314" lon="103.360693"><ele>1715.7448</ele><time>2026-07-24T16:40:08.000Z</time></trkpt>
        <trkpt lat="29.569302" lon="103.360679"><ele>1715.0663</ele><time>2026-07-24T16:40:10.000Z</time></trkpt>
        <trkpt lat="29.569288" lon="103.360668"><ele>1716.2428</ele><time>2026-07-24T16:40:12.000Z</time></trkpt>
        <trkpt lat="29.569271" lon="103.360656"><ele>1716.2064</ele><time>2026-07-24T16:40:14.000Z</time></trkpt>
        <trkpt lat="29.569256" lon="103.360645"><ele>1717.3391</ele><time>2026-07-24T16:40:16.000Z</time></trkpt>
        <trkpt lat="29.569243" lon="103.360634"><ele>1717.4984</ele><time>2026-07-24T16:40:18.000Z</time></trkpt>
        <trkpt lat="29.569232" lon="103.360625"><ele>1716.4974</ele><time>2026-07-24T16:40:20.000Z</time></trkpt>
        <trkpt lat="29.569222" lon="103.360618"><ele>1718.6503</ele><time>2026-07-24T16:40:22.000Z</time></trkpt>
        <trkpt lat="29.569211" lon="103.360609"><ele>1717.9044</ele><time>2026-07-24T16:40:24.000Z</time></trkpt>
        <trkpt lat="29.569201" lon="103.360602"><ele>1716.8066</ele><time>2026-07-24T16:40:26.000Z</time></trkpt>
        <trkpt lat="29.569192" lon="103.360594"><ele>1717.1969</ele><time>2026-07-24T16:40:28.000Z</time></trkpt>
        <trkpt lat="29.569182" lon="103.360584"><ele>1716.9309</ele><time>2026-07-24T16:40:30.000Z</time></trkpt>
        <trkpt lat="29.569172" lon="103.360572"><ele>1718.6714</ele><time>2026-07-24T16:40:32.000Z</time></trkpt>
        <trkpt lat="29.569162" lon="103.360561"><ele>1719.5947</ele><time>2026-07-24T16:40:34.000Z</time></trkpt>
        <trkpt lat="29.569153" lon="103.36055"><ele>1718.8635</ele><time>2026-07-24T16:40:36.000Z</time></trkpt>
        <trkpt lat="29.569145" lon="103.360539"><ele>1719.7694</ele><time>2026-07-24T16:40:38.000Z</time></trkpt>
        <trkpt lat="29.569134" lon="103.360523"><ele>1720.389</ele><time>2026-07-24T16:40:40.000Z</time></trkpt>
        <trkpt lat="29.569125" lon="103.36051"><ele>1720.0947</ele><time>2026-07-24T16:40:42.000Z</time></trkpt>
        <trkpt lat="29.569119" lon="103.360498"><ele>1721.7406</ele><time>2026-07-24T16:40:44.000Z</time></trkpt>
        <trkpt lat="29.569111" lon="103.360487"><ele>1721.879</ele><time>2026-07-24T16:40:46.000Z</time></trkpt>
        <trkpt lat="29.569103" lon="103.360477"><ele>1722.3143</ele><time>2026-07-24T16:40:48.000Z</time></trkpt>
        <trkpt lat="29.569092" lon="103.360465"><ele>1721.6837</ele><time>2026-07-24T16:40:50.000Z</time></trkpt>
        <trkpt lat="29.569081" lon="103.360454"><ele>1721.1082</ele><time>2026-07-24T16:40:52.000Z</time></trkpt>
        <trkpt lat="29.569071" lon="103.360444"><ele>1722.3177</ele><time>2026-07-24T16:40:54.000Z</time></trkpt>
        <trkpt lat="29.569061" lon="103.360434"><ele>1722.2369</ele><time>2026-07-24T16:40:56.000Z</time></trkpt>
        <trkpt lat="29.569048" lon="103.360425"><ele>1722.2036</ele><time>2026-07-24T16:40:58.000Z</time></trkpt>
        <trkpt lat="29.569032" lon="103.360414"><ele>1722.6583</ele><time>2026-07-24T16:41:00.000Z</time></trkpt>
        <trkpt lat="29.569014" lon="103.360404"><ele>1722.7634</ele><time>2026-07-24T16:41:02.000Z</time></trkpt>
        <trkpt lat="29.569" lon="103.360394"><ele>1722.2037</ele><time>2026-07-24T16:41:04.000Z</time></trkpt>
        <trkpt lat="29.568987" lon="103.360385"><ele>1722.1567</ele><time>2026-07-24T16:41:06.000Z</time></trkpt>
        <trkpt lat="29.568977" lon="103.36038"><ele>1722.3146</ele><time>2026-07-24T16:41:08.000Z</time></trkpt>
        <trkpt lat="29.568966" lon="103.360373"><ele>1722.1022</ele><time>2026-07-24T16:41:10.000Z</time></trkpt>
        <trkpt lat="29.568957" lon="103.360366"><ele>1722.2723</ele><time>2026-07-24T16:41:12.000Z</time></trkpt>
        <trkpt lat="29.568949" lon="103.360359"><ele>1722.8234</ele><time>2026-07-24T16:41:14.000Z</time></trkpt>
        <trkpt lat="29.568939" lon="103.36035"><ele>1723.7317</ele><time>2026-07-24T16:41:16.000Z</time></trkpt>
        <trkpt lat="29.568926" lon="103.360341"><ele>1723.8595</ele><time>2026-07-24T16:41:18.000Z</time></trkpt>
        <trkpt lat="29.568914" lon="103.360331"><ele>1723.4762</ele><time>2026-07-24T16:41:20.000Z</time></trkpt>
        <trkpt lat="29.568905" lon="103.360324"><ele>1723.0576</ele><time>2026-07-24T16:41:22.000Z</time></trkpt>
        <trkpt lat="29.568898" lon="103.360316"><ele>1722.8102</ele><time>2026-07-24T16:41:24.000Z</time></trkpt>
        <trkpt lat="29.568889" lon="103.360307"><ele>1723.2834</ele><time>2026-07-24T16:41:26.000Z</time></trkpt>
        <trkpt lat="29.568881" lon="103.360301"><ele>1721.9257</ele><time>2026-07-24T16:41:28.000Z</time></trkpt>
        <trkpt lat="29.568874" lon="103.360294"><ele>1722.9429</ele><time>2026-07-24T16:41:30.000Z</time></trkpt>
        <trkpt lat="29.568865" lon="103.360286"><ele>1723.1091</ele><time>2026-07-24T16:41:32.000Z</time></trkpt>
        <trkpt lat="29.568855" lon="103.360277"><ele>1723.8179</ele><time>2026-07-24T16:41:34.000Z</time></trkpt>
        <trkpt lat="29.568845" lon="103.360267"><ele>1724.6053</ele><time>2026-07-24T16:41:36.000Z</time></trkpt>
        <trkpt lat="29.568837" lon="103.360254"><ele>1725.3226</ele><time>2026-07-24T16:41:38.000Z</time></trkpt>
        <trkpt lat="29.568832" lon="103.360243"><ele>1725.4031</ele><time>2026-07-24T16:41:40.000Z</time></trkpt>
        <trkpt lat="29.568826" lon="103.360229"><ele>1725.5988</ele><time>2026-07-24T16:41:42.000Z</time></trkpt>
        <trkpt lat="29.56882" lon="103.360215"><ele>1726.1936</ele><time>2026-07-24T16:41:44.000Z</time></trkpt>
        <trkpt lat="29.568814" lon="103.360202"><ele>1725.165</ele><time>2026-07-24T16:41:46.000Z</time></trkpt>
        <trkpt lat="29.568806" lon="103.360189"><ele>1725.2515</ele><time>2026-07-24T16:41:48.000Z</time></trkpt>
        <trkpt lat="29.568801" lon="103.360177"><ele>1725.5922</ele><time>2026-07-24T16:41:50.000Z</time></trkpt>
        <trkpt lat="29.568795" lon="103.360167"><ele>1726.502</ele><time>2026-07-24T16:41:52.000Z</time></trkpt>
        <trkpt lat="29.568789" lon="103.360155"><ele>1726.8301</ele><time>2026-07-24T16:41:54.000Z</time></trkpt>
        <trkpt lat="29.568786" lon="103.360147"><ele>1728.2749</ele><time>2026-07-24T16:41:56.000Z</time></trkpt>
        <trkpt lat="29.568782" lon="103.360135"><ele>1727.4834</ele><time>2026-07-24T16:41:58.000Z</time></trkpt>
        <trkpt lat="29.568778" lon="103.360123"><ele>1726.7961</ele><time>2026-07-24T16:42:00.000Z</time></trkpt>
        <trkpt lat="29.568775" lon="103.360109"><ele>1727.9524</ele><time>2026-07-24T16:42:02.000Z</time></trkpt>
        <trkpt lat="29.56877" lon="103.360092"><ele>1727.683</ele><time>2026-07-24T16:42:04.000Z</time></trkpt>
        <trkpt lat="29.568765" lon="103.360074"><ele>1727.6722</ele><time>2026-07-24T16:42:06.000Z</time></trkpt>
        <trkpt lat="29.568758" lon="103.360057"><ele>1727.3749</ele><time>2026-07-24T16:42:08.000Z</time></trkpt>
        <trkpt lat="29.568751" lon="103.360043"><ele>1727.7437</ele><time>2026-07-24T16:42:10.000Z</time></trkpt>
        <trkpt lat="29.568745" lon="103.360027"><ele>1728.5723</ele><time>2026-07-24T16:42:12.000Z</time></trkpt>
        <trkpt lat="29.568741" lon="103.360007"><ele>1729.0453</ele><time>2026-07-24T16:42:14.000Z</time></trkpt>
        <trkpt lat="29.56874" lon="103.359987"><ele>1730.2485</ele><time>2026-07-24T16:42:16.000Z</time></trkpt>
        <trkpt lat="29.568742" lon="103.359968"><ele>1730.4099</ele><time>2026-07-24T16:42:18.000Z</time></trkpt>
        <trkpt lat="29.568744" lon="103.359944"><ele>1731.284</ele><time>2026-07-24T16:42:20.000Z</time></trkpt>
        <trkpt lat="29.568745" lon="103.359925"><ele>1731.4391</ele><time>2026-07-24T16:42:22.000Z</time></trkpt>
        <trkpt lat="29.568746" lon="103.359906"><ele>1729.6389</ele><time>2026-07-24T16:42:24.000Z</time></trkpt>
        <trkpt lat="29.568747" lon="103.359885"><ele>1730.3009</ele><time>2026-07-24T16:42:26.000Z</time></trkpt>
        <trkpt lat="29.568749" lon="103.359865"><ele>1731.0225</ele><time>2026-07-24T16:42:28.000Z</time></trkpt>
        <trkpt lat="29.56875" lon="103.359847"><ele>1731.1873</ele><time>2026-07-24T16:42:30.000Z</time></trkpt>
        <trkpt lat="29.568752" lon="103.35983"><ele>1731.9939</ele><time>2026-07-24T16:42:32.000Z</time></trkpt>
        <trkpt lat="29.568752" lon="103.359812"><ele>1731.5338</ele><time>2026-07-24T16:42:34.000Z</time></trkpt>
        <trkpt lat="29.568751" lon="103.359792"><ele>1732.322</ele><time>2026-07-24T16:42:36.000Z</time></trkpt>
        <trkpt lat="29.568751" lon="103.359772"><ele>1732.4181</ele><time>2026-07-24T16:42:38.000Z</time></trkpt>
        <trkpt lat="29.568752" lon="103.359749"><ele>1732.5513</ele><time>2026-07-24T16:42:40.000Z</time></trkpt>
        <trkpt lat="29.568752" lon="103.359733"><ele>1733.8694</ele><time>2026-07-24T16:42:42.000Z</time></trkpt>
        <trkpt lat="29.56875" lon="103.359723"><ele>1732.7402</ele><time>2026-07-24T16:42:44.000Z</time></trkpt>
        <trkpt lat="29.568746" lon="103.35971"><ele>1733.5865</ele><time>2026-07-24T16:42:46.000Z</time></trkpt>
        <trkpt lat="29.568739" lon="103.359706"><ele>1733.8392</ele><time>2026-07-24T16:42:48.000Z</time></trkpt>
        <trkpt lat="29.568723" lon="103.359701"><ele>1734.7229</ele><time>2026-07-24T16:42:52.000Z</time></trkpt>
        <trkpt lat="29.568712" lon="103.359699"><ele>1734.9336</ele><time>2026-07-24T16:42:54.000Z</time></trkpt>
        <trkpt lat="29.568697" lon="103.359699"><ele>1734.2594</ele><time>2026-07-24T16:42:56.000Z</time></trkpt>
        <trkpt lat="29.568685" lon="103.359699"><ele>1735.4181</ele><time>2026-07-24T16:42:58.000Z</time></trkpt>
        <trkpt lat="29.568685" lon="103.3597"><ele>1735.6948</ele><time>2026-07-24T16:43:00.000Z</time></trkpt>
        <trkpt lat="29.568692" lon="103.359667"><ele>1736.7927</ele><time>2026-07-24T16:43:42.000Z</time></trkpt>
        <trkpt lat="29.568691" lon="103.359664"><ele>1736.9031</ele><time>2026-07-24T16:43:58.000Z</time></trkpt>
        <trkpt lat="29.56869" lon="103.359664"><ele>1737.1573</ele><time>2026-07-24T16:44:14.000Z</time></trkpt>
        <trkpt lat="29.568661" lon="103.359672"><ele>1738.1677</ele><time>2026-07-24T16:44:50.000Z</time></trkpt>
        <trkpt lat="29.568645" lon="103.359674"><ele>1736.6118</ele><time>2026-07-24T16:44:52.000Z</time></trkpt>
        <trkpt lat="29.568625" lon="103.359677"><ele>1738.1844</ele><time>2026-07-24T16:44:54.000Z</time></trkpt>
        <trkpt lat="29.568623" lon="103.359678"><ele>1737.425</ele><time>2026-07-24T16:44:56.000Z</time></trkpt>
        <trkpt lat="29.568596" lon="103.359681"><ele>1736.3832</ele><time>2026-07-24T16:45:00.000Z</time></trkpt>
        <trkpt lat="29.568567" lon="103.359686"><ele>1736.4739</ele><time>2026-07-24T16:45:02.000Z</time></trkpt>
        <trkpt lat="29.56854" lon="103.35969"><ele>1735.8395</ele><time>2026-07-24T16:45:04.000Z</time></trkpt>
        <trkpt lat="29.568521" lon="103.359695"><ele>1735.7336</ele><time>2026-07-24T16:45:06.000Z</time></trkpt>
        <trkpt lat="29.568511" lon="103.359697"><ele>1735.5593</ele><time>2026-07-24T16:45:08.000Z</time></trkpt>
        <trkpt lat="29.568509" lon="103.359696"><ele>1735.2675</ele><time>2026-07-24T16:45:10.000Z</time></trkpt>
        <trkpt lat="29.568491" lon="103.359698"><ele>1734.955</ele><time>2026-07-24T16:45:25.000Z</time></trkpt>
        <trkpt lat="29.568463" lon="103.359697"><ele>1737.1512</ele><time>2026-07-24T16:45:51.000Z</time></trkpt>
        <trkpt lat="29.568456" lon="103.359697"><ele>1736.3317</ele><time>2026-07-24T16:45:53.000Z</time></trkpt>
        <trkpt lat="29.568438" lon="103.359693"><ele>1736.4025</ele><time>2026-07-24T16:45:55.000Z</time></trkpt>
        <trkpt lat="29.568428" lon="103.359691"><ele>1736.5981</ele><time>2026-07-24T16:46:01.000Z</time></trkpt>
        <trkpt lat="29.568423" lon="103.359686"><ele>1736.6898</ele><time>2026-07-24T16:46:03.000Z</time></trkpt>
        <trkpt lat="29.568414" lon="103.35969"><ele>1736.6416</ele><time>2026-07-24T16:47:27.000Z</time></trkpt>
        <trkpt lat="29.568398" lon="103.359693"><ele>1735.8815</ele><time>2026-07-24T16:47:52.000Z</time></trkpt>
        <trkpt lat="29.568378" lon="103.359696"><ele>1736.5004</ele><time>2026-07-24T16:47:54.000Z</time></trkpt>
        <trkpt lat="29.568362" lon="103.359696"><ele>1735.7747</ele><time>2026-07-24T16:47:56.000Z</time></trkpt>
        <trkpt lat="29.568329" lon="103.359696"><ele>1736.0844</ele><time>2026-07-24T16:47:59.000Z</time></trkpt>
        <trkpt lat="29.568329" lon="103.359696"><ele>1735.897</ele><time>2026-07-24T16:48:01.000Z</time></trkpt>
        <trkpt lat="29.568324" lon="103.359696"><ele>1736.7968</ele><time>2026-07-24T16:48:03.000Z</time></trkpt>
        <trkpt lat="29.568283" lon="103.359691"><ele>1736.3481</ele><time>2026-07-24T16:48:07.000Z</time></trkpt>
        <trkpt lat="29.56826" lon="103.359686"><ele>1735.8815</ele><time>2026-07-24T16:48:09.000Z</time></trkpt>
        <trkpt lat="29.568234" lon="103.359678"><ele>1736.5499</ele><time>2026-07-24T16:48:11.000Z</time></trkpt>
        <trkpt lat="29.568212" lon="103.359666"><ele>1737.2307</ele><time>2026-07-24T16:48:13.000Z</time></trkpt>
        <trkpt lat="29.568193" lon="103.35965"><ele>1737.3171</ele><time>2026-07-24T16:48:15.000Z</time></trkpt>
        <trkpt lat="29.568179" lon="103.359632"><ele>1737.1832</ele><time>2026-07-24T16:48:17.000Z</time></trkpt>
        <trkpt lat="29.568167" lon="103.35961"><ele>1737.401</ele><time>2026-07-24T16:48:19.000Z</time></trkpt>
        <trkpt lat="29.568158" lon="103.359585"><ele>1736.6722</ele><time>2026-07-24T16:48:21.000Z</time></trkpt>
        <trkpt lat="29.568149" lon="103.35956"><ele>1736.54</ele><time>2026-07-24T16:48:23.000Z</time></trkpt>
        <trkpt lat="29.568136" lon="103.359541"><ele>1736.3081</ele><time>2026-07-24T16:48:25.000Z</time></trkpt>
        <trkpt lat="29.568121" lon="103.359532"><ele>1736.629</ele><time>2026-07-24T16:48:27.000Z</time></trkpt>
        <trkpt lat="29.568103" lon="103.35953"><ele>1736.5111</ele><time>2026-07-24T16:48:29.000Z</time></trkpt>
        <trkpt lat="29.568084" lon="103.359533"><ele>1736.5348</ele><time>2026-07-24T16:48:31.000Z</time></trkpt>
        <trkpt lat="29.56807" lon="103.359537"><ele>1735.9099</ele><time>2026-07-24T16:48:33.000Z</time></trkpt>
        <trkpt lat="29.56805" lon="103.359543"><ele>1735.1514</ele><time>2026-07-24T16:48:35.000Z</time></trkpt>
        <trkpt lat="29.568029" lon="103.359548"><ele>1736.4398</ele><time>2026-07-24T16:48:37.000Z</time></trkpt>
        <trkpt lat="29.568007" lon="103.359554"><ele>1735.9817</ele><time>2026-07-24T16:48:39.000Z</time></trkpt>
        <trkpt lat="29.567982" lon="103.359561"><ele>1735.1696</ele><time>2026-07-24T16:48:41.000Z</time></trkpt>
        <trkpt lat="29.567959" lon="103.359567"><ele>1736.7935</ele><time>2026-07-24T16:48:43.000Z</time></trkpt>
        <trkpt lat="29.567939" lon="103.359572"><ele>1737.2667</ele><time>2026-07-24T16:48:45.000Z</time></trkpt>
        <trkpt lat="29.567915" lon="103.359578"><ele>1736.1349</ele><time>2026-07-24T16:48:47.000Z</time></trkpt>
        <trkpt lat="29.567895" lon="103.359582"><ele>1737.1389</ele><time>2026-07-24T16:48:49.000Z</time></trkpt>
        <trkpt lat="29.567875" lon="103.359584"><ele>1736.5161</ele><time>2026-07-24T16:48:51.000Z</time></trkpt>
        <trkpt lat="29.567856" lon="103.359582"><ele>1737.1953</ele><time>2026-07-24T16:48:53.000Z</time></trkpt>
        <trkpt lat="29.56784" lon="103.359577"><ele>1737.5338</ele><time>2026-07-24T16:48:55.000Z</time></trkpt>
        <trkpt lat="29.567822" lon="103.35957"><ele>1737.5944</ele><time>2026-07-24T16:48:57.000Z</time></trkpt>
        <trkpt lat="29.567805" lon="103.359559"><ele>1737.0515</ele><time>2026-07-24T16:48:59.000Z</time></trkpt>
        <trkpt lat="29.567793" lon="103.359549"><ele>1737.455</ele><time>2026-07-24T16:49:01.000Z</time></trkpt>
        <trkpt lat="29.56778" lon="103.359538"><ele>1737.8962</ele><time>2026-07-24T16:49:03.000Z</time></trkpt>
        <trkpt lat="29.567765" lon="103.359525"><ele>1738.1384</ele><time>2026-07-24T16:49:05.000Z</time></trkpt>
        <trkpt lat="29.56775" lon="103.359514"><ele>1738.484</ele><time>2026-07-24T16:49:07.000Z</time></trkpt>
        <trkpt lat="29.567736" lon="103.359504"><ele>1738.5883</ele><time>2026-07-24T16:49:09.000Z</time></trkpt>
        <trkpt lat="29.567721" lon="103.359492"><ele>1739.4285</ele><time>2026-07-24T16:49:11.000Z</time></trkpt>
        <trkpt lat="29.567707" lon="103.359481"><ele>1740.2606</ele><time>2026-07-24T16:49:13.000Z</time></trkpt>
        <trkpt lat="29.567698" lon="103.359471"><ele>1740.1575</ele><time>2026-07-24T16:49:15.000Z</time></trkpt>
        <trkpt lat="29.567691" lon="103.359465"><ele>1741.6199</ele><time>2026-07-24T16:49:17.000Z</time></trkpt>
        <trkpt lat="29.567677" lon="103.359456"><ele>1740.5894</ele><time>2026-07-24T16:49:21.000Z</time></trkpt>
        <trkpt lat="29.567669" lon="103.359452"><ele>1741.6116</ele><time>2026-07-24T16:49:23.000Z</time></trkpt>
        <trkpt lat="29.567657" lon="103.359445"><ele>1741.7305</ele><time>2026-07-24T16:49:25.000Z</time></trkpt>
        <trkpt lat="29.567645" lon="103.35944"><ele>1740.4976</ele><time>2026-07-24T16:49:27.000Z</time></trkpt>
        <trkpt lat="29.567636" lon="103.359435"><ele>1740.2468</ele><time>2026-07-24T16:49:29.000Z</time></trkpt>
        <trkpt lat="29.567627" lon="103.35943"><ele>1740.6444</ele><time>2026-07-24T16:49:31.000Z</time></trkpt>
        <trkpt lat="29.567622" lon="103.359422"><ele>1738.6172</ele><time>2026-07-24T16:49:35.000Z</time></trkpt>
        <trkpt lat="29.567613" lon="103.359417"><ele>1743.456</ele><time>2026-07-24T16:49:57.000Z</time></trkpt>
        <trkpt lat="29.567598" lon="103.359412"><ele>1745.1472</ele><time>2026-07-24T16:50:12.000Z</time></trkpt>
        <trkpt lat="29.567524" lon="103.359386"><ele>1746.0983</ele><time>2026-07-24T16:50:27.000Z</time></trkpt>
        <trkpt lat="29.567464" lon="103.35941"><ele>1747.9263</ele><time>2026-07-24T16:50:42.000Z</time></trkpt>
        <trkpt lat="29.567446" lon="103.359417"><ele>1747.4705</ele><time>2026-07-24T16:50:47.000Z</time></trkpt>
        <trkpt lat="29.567446" lon="103.359417"><ele>1747.4976</ele><time>2026-07-24T16:50:49.000Z</time></trkpt>
        <trkpt lat="29.567431" lon="103.359422"><ele>1747.3561</ele><time>2026-07-24T16:50:53.000Z</time></trkpt>
        <trkpt lat="29.567417" lon="103.359427"><ele>1747.5088</ele><time>2026-07-24T16:50:55.000Z</time></trkpt>
        <trkpt lat="29.567404" lon="103.359432"><ele>1747.5946</ele><time>2026-07-24T16:50:57.000Z</time></trkpt>
        <trkpt lat="29.567394" lon="103.359436"><ele>1749.0613</ele><time>2026-07-24T16:50:59.000Z</time></trkpt>
        <trkpt lat="29.567388" lon="103.359441"><ele>1748.9958</ele><time>2026-07-24T16:51:01.000Z</time></trkpt>
        <trkpt lat="29.567375" lon="103.359451"><ele>1749.6847</ele><time>2026-07-24T16:51:05.000Z</time></trkpt>
        <trkpt lat="29.567363" lon="103.35946"><ele>1749.4623</ele><time>2026-07-24T16:51:08.000Z</time></trkpt>
        <trkpt lat="29.567362" lon="103.35946"><ele>1749.2278</ele><time>2026-07-24T16:51:10.000Z</time></trkpt>
        <trkpt lat="29.567335" lon="103.359461"><ele>1749.3157</ele><time>2026-07-24T16:51:16.000Z</time></trkpt>
        <trkpt lat="29.567326" lon="103.359456"><ele>1750.3007</ele><time>2026-07-24T16:51:18.000Z</time></trkpt>
        <trkpt lat="29.567291" lon="103.359441"><ele>1750.9175</ele><time>2026-07-24T16:51:26.000Z</time></trkpt>
        <trkpt lat="29.567284" lon="103.359441"><ele>1751.2697</ele><time>2026-07-24T16:51:28.000Z</time></trkpt>
        <trkpt lat="29.567273" lon="103.359444"><ele>1752.706</ele><time>2026-07-24T16:51:30.000Z</time></trkpt>
        <trkpt lat="29.567264" lon="103.359456"><ele>1751.7482</ele><time>2026-07-24T16:51:34.000Z</time></trkpt>
        <trkpt lat="29.567255" lon="103.359461"><ele>1754.5237</ele><time>2026-07-24T16:51:42.000Z</time></trkpt>
        <trkpt lat="29.567241" lon="103.359462"><ele>1755.434</ele><time>2026-07-24T16:51:46.000Z</time></trkpt>
        <trkpt lat="29.567225" lon="103.359464"><ele>1756.782</ele><time>2026-07-24T16:51:48.000Z</time></trkpt>
        <trkpt lat="29.567224" lon="103.359464"><ele>1756.5222</ele><time>2026-07-24T16:51:50.000Z</time></trkpt>
        <trkpt lat="29.567208" lon="103.359458"><ele>1754.6318</ele><time>2026-07-24T16:51:54.000Z</time></trkpt>
        <trkpt lat="29.567194" lon="103.359452"><ele>1756.0292</ele><time>2026-07-24T16:51:56.000Z</time></trkpt>
        <trkpt lat="29.567186" lon="103.359445"><ele>1756.0485</ele><time>2026-07-24T16:51:58.000Z</time></trkpt>
        <trkpt lat="29.567182" lon="103.35944"><ele>1757.3044</ele><time>2026-07-24T16:52:00.000Z</time></trkpt>
        <trkpt lat="29.56717" lon="103.359425"><ele>1757.225</ele><time>2026-07-24T16:52:08.000Z</time></trkpt>
        <trkpt lat="29.567164" lon="103.359421"><ele>1756.6326</ele><time>2026-07-24T16:52:10.000Z</time></trkpt>
        <trkpt lat="29.56716" lon="103.35942"><ele>1755.613</ele><time>2026-07-24T16:52:12.000Z</time></trkpt>
        <trkpt lat="29.567139" lon="103.35942"><ele>1757.2347</ele><time>2026-07-24T16:52:20.000Z</time></trkpt>
        <trkpt lat="29.56713" lon="103.359423"><ele>1757.1172</ele><time>2026-07-24T16:52:24.000Z</time></trkpt>
        <trkpt lat="29.567119" lon="103.359416"><ele>1759.179</ele><time>2026-07-24T16:52:26.000Z</time></trkpt>
        <trkpt lat="29.567107" lon="103.359411"><ele>1758.4224</ele><time>2026-07-24T16:52:36.000Z</time></trkpt>
        <trkpt lat="29.567061" lon="103.359392"><ele>1758.546</ele><time>2026-07-24T16:52:47.000Z</time></trkpt>
        <trkpt lat="29.567054" lon="103.35939"><ele>1758.5083</ele><time>2026-07-24T16:52:49.000Z</time></trkpt>
        <trkpt lat="29.567046" lon="103.359388"><ele>1758.3615</ele><time>2026-07-24T16:52:51.000Z</time></trkpt>
        <trkpt lat="29.567026" lon="103.359381"><ele>1761.6223</ele><time>2026-07-24T16:52:59.000Z</time></trkpt>
        <trkpt lat="29.56702" lon="103.359379"><ele>1762.1703</ele><time>2026-07-24T16:53:01.000Z</time></trkpt>
        <trkpt lat="29.567014" lon="103.359374"><ele>1762.8125</ele><time>2026-07-24T16:53:03.000Z</time></trkpt>
        <trkpt lat="29.566991" lon="103.359357"><ele>1763.8159</ele><time>2026-07-24T16:53:07.000Z</time></trkpt>
        <trkpt lat="29.566991" lon="103.359357"><ele>1764.6469</ele><time>2026-07-24T16:53:09.000Z</time></trkpt>
        <trkpt lat="29.566986" lon="103.359356"><ele>1763.676</ele><time>2026-07-24T16:53:13.000Z</time></trkpt>
        <trkpt lat="29.566955" lon="103.359345"><ele>1763.8964</ele><time>2026-07-24T16:53:19.000Z</time></trkpt>
        <trkpt lat="29.566955" lon="103.359345"><ele>1763.0775</ele><time>2026-07-24T16:53:21.000Z</time></trkpt>
        <trkpt lat="29.566953" lon="103.359344"><ele>1763.5121</ele><time>2026-07-24T16:53:23.000Z</time></trkpt>
        <trkpt lat="29.566917" lon="103.359342"><ele>1762.0321</ele><time>2026-07-24T16:53:31.000Z</time></trkpt>
        <trkpt lat="29.566902" lon="103.35934"><ele>1764.5212</ele><time>2026-07-24T16:53:33.000Z</time></trkpt>
        <trkpt lat="29.566901" lon="103.35934"><ele>1763.2158</ele><time>2026-07-24T16:53:35.000Z</time></trkpt>
        <trkpt lat="29.566867" lon="103.359315"><ele>1762.7719</ele><time>2026-07-24T16:53:38.000Z</time></trkpt>
        <trkpt lat="29.566867" lon="103.359315"><ele>1762.9376</ele><time>2026-07-24T16:53:40.000Z</time></trkpt>
        <trkpt lat="29.566865" lon="103.359312"><ele>1763.2437</ele><time>2026-07-24T16:53:42.000Z</time></trkpt>
        <trkpt lat="29.566843" lon="103.359279"><ele>1766.6635</ele><time>2026-07-24T16:53:46.000Z</time></trkpt>
        <trkpt lat="29.566834" lon="103.359265"><ele>1766.6678</ele><time>2026-07-24T16:53:48.000Z</time></trkpt>
        <trkpt lat="29.566825" lon="103.359253"><ele>1766.9982</ele><time>2026-07-24T16:53:50.000Z</time></trkpt>
        <trkpt lat="29.566818" lon="103.359243"><ele>1767.364</ele><time>2026-07-24T16:53:52.000Z</time></trkpt>
        <trkpt lat="29.566808" lon="103.359232"><ele>1769.9608</ele><time>2026-07-24T16:53:54.000Z</time></trkpt>
        <trkpt lat="29.5668" lon="103.359224"><ele>1769.7996</ele><time>2026-07-24T16:53:56.000Z</time></trkpt>
        <trkpt lat="29.566791" lon="103.359215"><ele>1769.7725</ele><time>2026-07-24T16:53:58.000Z</time></trkpt>
        <trkpt lat="29.566783" lon="103.359205"><ele>1769.8501</ele><time>2026-07-24T16:54:00.000Z</time></trkpt>
        <trkpt lat="29.566778" lon="103.359198"><ele>1770.4683</ele><time>2026-07-24T16:54:02.000Z</time></trkpt>
        <trkpt lat="29.566772" lon="103.35919"><ele>1769.6733</ele><time>2026-07-24T16:54:04.000Z</time></trkpt>
        <trkpt lat="29.566762" lon="103.359181"><ele>1769.7549</ele><time>2026-07-24T16:54:06.000Z</time></trkpt>
        <trkpt lat="29.566751" lon="103.359172"><ele>1769.8228</ele><time>2026-07-24T16:54:08.000Z</time></trkpt>
        <trkpt lat="29.566737" lon="103.359164"><ele>1770.318</ele><time>2026-07-24T16:54:10.000Z</time></trkpt>
        <trkpt lat="29.566724" lon="103.359156"><ele>1769.6842</ele><time>2026-07-24T16:54:12.000Z</time></trkpt>
        <trkpt lat="29.566711" lon="103.359147"><ele>1768.9131</ele><time>2026-07-24T16:54:14.000Z</time></trkpt>
        <trkpt lat="29.566696" lon="103.359134"><ele>1767.311</ele><time>2026-07-24T16:54:16.000Z</time></trkpt>
        <trkpt lat="29.566683" lon="103.359121"><ele>1769.0935</ele><time>2026-07-24T16:54:18.000Z</time></trkpt>
        <trkpt lat="29.566666" lon="103.359104"><ele>1768.9257</ele><time>2026-07-24T16:54:20.000Z</time></trkpt>
        <trkpt lat="29.566652" lon="103.359091"><ele>1769.6418</ele><time>2026-07-24T16:54:22.000Z</time></trkpt>
        <trkpt lat="29.56664" lon="103.359078"><ele>1769.2596</ele><time>2026-07-24T16:54:24.000Z</time></trkpt>
        <trkpt lat="29.56663" lon="103.359064"><ele>1770.18</ele><time>2026-07-24T16:54:26.000Z</time></trkpt>
        <trkpt lat="29.566622" lon="103.359053"><ele>1770.5991</ele><time>2026-07-24T16:54:28.000Z</time></trkpt>
        <trkpt lat="29.566614" lon="103.359044"><ele>1771.3992</ele><time>2026-07-24T16:54:30.000Z</time></trkpt>
        <trkpt lat="29.566603" lon="103.359033"><ele>1771.3527</ele><time>2026-07-24T16:54:32.000Z</time></trkpt>
        <trkpt lat="29.56659" lon="103.359026"><ele>1770.9589</ele><time>2026-07-24T16:54:34.000Z</time></trkpt>
        <trkpt lat="29.566578" lon="103.35902"><ele>1768.9961</ele><time>2026-07-24T16:54:36.000Z</time></trkpt>
        <trkpt lat="29.566566" lon="103.359015"><ele>1770.0809</ele><time>2026-07-24T16:54:38.000Z</time></trkpt>
        <trkpt lat="29.566552" lon="103.359009"><ele>1770.7872</ele><time>2026-07-24T16:54:40.000Z</time></trkpt>
        <trkpt lat="29.566545" lon="103.359005"><ele>1770.616</ele><time>2026-07-24T16:54:42.000Z</time></trkpt>
        <trkpt lat="29.566536" lon="103.359"><ele>1773.0153</ele><time>2026-07-24T16:54:44.000Z</time></trkpt>
        <trkpt lat="29.566525" lon="103.358993"><ele>1773.7273</ele><time>2026-07-24T16:54:46.000Z</time></trkpt>
        <trkpt lat="29.566518" lon="103.358987"><ele>1774.961</ele><time>2026-07-24T16:54:48.000Z</time></trkpt>
        <trkpt lat="29.566506" lon="103.358974"><ele>1776.0215</ele><time>2026-07-24T16:54:52.000Z</time></trkpt>
        <trkpt lat="29.566502" lon="103.358968"><ele>1776.9324</ele><time>2026-07-24T16:54:54.000Z</time></trkpt>
        <trkpt lat="29.566496" lon="103.358964"><ele>1777.5938</ele><time>2026-07-24T16:54:56.000Z</time></trkpt>
        <trkpt lat="29.566479" lon="103.358955"><ele>1778.5486</ele><time>2026-07-24T16:55:04.000Z</time></trkpt>
        <trkpt lat="29.566471" lon="103.358946"><ele>1776.8513</ele><time>2026-07-24T16:55:08.000Z</time></trkpt>
        <trkpt lat="29.566472" lon="103.358944"><ele>1777.895</ele><time>2026-07-24T16:55:10.000Z</time></trkpt>
        <trkpt lat="29.566481" lon="103.35892"><ele>1778.8646</ele><time>2026-07-24T17:00:22.000Z</time></trkpt>
        <trkpt lat="29.56646" lon="103.358904"><ele>1783.081</ele><time>2026-07-24T17:02:32.000Z</time></trkpt>
        <trkpt lat="29.566458" lon="103.358902"><ele>1782.6366</ele><time>2026-07-24T17:02:34.000Z</time></trkpt>
        <trkpt lat="29.566455" lon="103.358901"><ele>1782.329</ele><time>2026-07-24T17:02:36.000Z</time></trkpt>
        <trkpt lat="29.566414" lon="103.358889"><ele>1780.8074</ele><time>2026-07-24T17:02:44.000Z</time></trkpt>
        <trkpt lat="29.566414" lon="103.358889"><ele>1780.2881</ele><time>2026-07-24T17:02:46.000Z</time></trkpt>
        <trkpt lat="29.566414" lon="103.358889"><ele>1781.556</ele><time>2026-07-24T17:02:48.000Z</time></trkpt>
        <trkpt lat="29.566389" lon="103.358867"><ele>1779.2673</ele><time>2026-07-24T17:02:56.000Z</time></trkpt>
        <trkpt lat="29.566373" lon="103.358854"><ele>1779.9187</ele><time>2026-07-24T17:02:58.000Z</time></trkpt>
        <trkpt lat="29.566372" lon="103.358853"><ele>1781.676</ele><time>2026-07-24T17:03:00.000Z</time></trkpt>
        <trkpt lat="29.566362" lon="103.358837"><ele>1782.16</ele><time>2026-07-24T17:03:04.000Z</time></trkpt>
        <trkpt lat="29.566352" lon="103.358825"><ele>1781.8694</ele><time>2026-07-24T17:03:06.000Z</time></trkpt>
        <trkpt lat="29.566343" lon="103.358814"><ele>1782.027</ele><time>2026-07-24T17:03:08.000Z</time></trkpt>
        <trkpt lat="29.566336" lon="103.358803"><ele>1781.8555</ele><time>2026-07-24T17:03:10.000Z</time></trkpt>
        <trkpt lat="29.566331" lon="103.358796"><ele>1782.2805</ele><time>2026-07-24T17:03:12.000Z</time></trkpt>
        <trkpt lat="29.56632" lon="103.35878"><ele>1781.6854</ele><time>2026-07-24T17:03:16.000Z</time></trkpt>
        <trkpt lat="29.566316" lon="103.358774"><ele>1782.5957</ele><time>2026-07-24T17:03:18.000Z</time></trkpt>
        <trkpt lat="29.566308" lon="103.358765"><ele>1782.5967</ele><time>2026-07-24T17:03:20.000Z</time></trkpt>
        <trkpt lat="29.566297" lon="103.358754"><ele>1783.4275</ele><time>2026-07-24T17:03:22.000Z</time></trkpt>
        <trkpt lat="29.566283" lon="103.358745"><ele>1783.2147</ele><time>2026-07-24T17:03:24.000Z</time></trkpt>
        <trkpt lat="29.566272" lon="103.358739"><ele>1782.2792</ele><time>2026-07-24T17:03:26.000Z</time></trkpt>
        <trkpt lat="29.566262" lon="103.358735"><ele>1781.2483</ele><time>2026-07-24T17:03:28.000Z</time></trkpt>
        <trkpt lat="29.56626" lon="103.358729"><ele>1782.1809</ele><time>2026-07-24T17:03:30.000Z</time></trkpt>
        <trkpt lat="29.566252" lon="103.358712"><ele>1782.7441</ele><time>2026-07-24T17:03:34.000Z</time></trkpt>
        <trkpt lat="29.566245" lon="103.3587"><ele>1782.9023</ele><time>2026-07-24T17:03:38.000Z</time></trkpt>
        <trkpt lat="29.566243" lon="103.358695"><ele>1782.1307</ele><time>2026-07-24T17:03:40.000Z</time></trkpt>
        <trkpt lat="29.566234" lon="103.358685"><ele>1783.7646</ele><time>2026-07-24T17:03:46.000Z</time></trkpt>
        <trkpt lat="29.566225" lon="103.358669"><ele>1785.6624</ele><time>2026-07-24T17:03:53.000Z</time></trkpt>
        <trkpt lat="29.566222" lon="103.358663"><ele>1785.7316</ele><time>2026-07-24T17:03:55.000Z</time></trkpt>
        <trkpt lat="29.56621" lon="103.358649"><ele>1790.3094</ele><time>2026-07-24T17:04:10.000Z</time></trkpt>
        <trkpt lat="29.566201" lon="103.358638"><ele>1790.3608</ele><time>2026-07-24T17:04:26.000Z</time></trkpt>
        <trkpt lat="29.5662" lon="103.358621"><ele>1790.3281</ele><time>2026-07-24T17:04:41.000Z</time></trkpt>
        <trkpt lat="29.566198" lon="103.358615"><ele>1790.944</ele><time>2026-07-24T17:04:56.000Z</time></trkpt>
        <trkpt lat="29.566191" lon="103.35859"><ele>1790.0955</ele><time>2026-07-24T17:05:10.000Z</time></trkpt>
        <trkpt lat="29.56619" lon="103.358588"><ele>1790.5358</ele><time>2026-07-24T17:05:12.000Z</time></trkpt>
        <trkpt lat="29.56619" lon="103.358582"><ele>1790.505</ele><time>2026-07-24T17:05:14.000Z</time></trkpt>
        <trkpt lat="29.566191" lon="103.358552"><ele>1790.9678</ele><time>2026-07-24T17:05:20.000Z</time></trkpt>
        <trkpt lat="29.566191" lon="103.358533"><ele>1791.1302</ele><time>2026-07-24T17:05:22.000Z</time></trkpt>
        <trkpt lat="29.566191" lon="103.358531"><ele>1791.1101</ele><time>2026-07-24T17:05:24.000Z</time></trkpt>
        <trkpt lat="29.566191" lon="103.358518"><ele>1791.5345</ele><time>2026-07-24T17:05:28.000Z</time></trkpt>
        <trkpt lat="29.56619" lon="103.358482"><ele>1791.7338</ele><time>2026-07-24T17:05:32.000Z</time></trkpt>
        <trkpt lat="29.56619" lon="103.358482"><ele>1792.5065</ele><time>2026-07-24T17:05:34.000Z</time></trkpt>
        <trkpt lat="29.566191" lon="103.358479"><ele>1794.5212</ele><time>2026-07-24T17:05:36.000Z</time></trkpt>
        <trkpt lat="29.566196" lon="103.358442"><ele>1794.4534</ele><time>2026-07-24T17:05:40.000Z</time></trkpt>
        <trkpt lat="29.566201" lon="103.358423"><ele>1794.7141</ele><time>2026-07-24T17:05:42.000Z</time></trkpt>
        <trkpt lat="29.566204" lon="103.35841"><ele>1793.835</ele><time>2026-07-24T17:05:44.000Z</time></trkpt>
        <trkpt lat="29.566206" lon="103.358396"><ele>1793.2947</ele><time>2026-07-24T17:05:46.000Z</time></trkpt>
        <trkpt lat="29.566207" lon="103.358383"><ele>1794.58</ele><time>2026-07-24T17:05:48.000Z</time></trkpt>
        <trkpt lat="29.566206" lon="103.358375"><ele>1794.5751</ele><time>2026-07-24T17:05:50.000Z</time></trkpt>
        <trkpt lat="29.566205" lon="103.358355"><ele>1794.7452</ele><time>2026-07-24T17:05:54.000Z</time></trkpt>
        <trkpt lat="29.566206" lon="103.358343"><ele>1795.4629</ele><time>2026-07-24T17:05:56.000Z</time></trkpt>
        <trkpt lat="29.566207" lon="103.358331"><ele>1795.5553</ele><time>2026-07-24T17:05:58.000Z</time></trkpt>
        <trkpt lat="29.566206" lon="103.358317"><ele>1795.5879</ele><time>2026-07-24T17:06:02.000Z</time></trkpt>
        <trkpt lat="29.566209" lon="103.35831"><ele>1796.0299</ele><time>2026-07-24T17:06:12.000Z</time></trkpt>
        <trkpt lat="29.566207" lon="103.358298"><ele>1796.2775</ele><time>2026-07-24T17:06:32.000Z</time></trkpt>
        <trkpt lat="29.566201" lon="103.358265"><ele>1796.2106</ele><time>2026-07-24T17:06:36.000Z</time></trkpt>
        <trkpt lat="29.566201" lon="103.358265"><ele>1797.0096</ele><time>2026-07-24T17:06:38.000Z</time></trkpt>
        <trkpt lat="29.5662" lon="103.358264"><ele>1797.9401</ele><time>2026-07-24T17:06:40.000Z</time></trkpt>
        <trkpt lat="29.566185" lon="103.358222"><ele>1799.1112</ele><time>2026-07-24T17:06:48.000Z</time></trkpt>
        <trkpt lat="29.566185" lon="103.358222"><ele>1797.8577</ele><time>2026-07-24T17:06:50.000Z</time></trkpt>
        <trkpt lat="29.566184" lon="103.35822"><ele>1799.5293</ele><time>2026-07-24T17:06:52.000Z</time></trkpt>
        <trkpt lat="29.566176" lon="103.358188"><ele>1799.59</ele><time>2026-07-24T17:07:06.000Z</time></trkpt>
        <trkpt lat="29.566174" lon="103.358183"><ele>1800.6976</ele><time>2026-07-24T17:07:08.000Z</time></trkpt>
        <trkpt lat="29.56617" lon="103.358177"><ele>1801.0168</ele><time>2026-07-24T17:07:10.000Z</time></trkpt>
        <trkpt lat="29.566154" lon="103.358148"><ele>1801.4093</ele><time>2026-07-24T17:07:19.000Z</time></trkpt>
        <trkpt lat="29.566152" lon="103.358144"><ele>1802.0006</ele><time>2026-07-24T17:07:21.000Z</time></trkpt>
        <trkpt lat="29.566151" lon="103.358142"><ele>1802.6052</ele><time>2026-07-24T17:07:23.000Z</time></trkpt>
        <trkpt lat="29.566136" lon="103.35812"><ele>1804.0417</ele><time>2026-07-24T17:07:31.000Z</time></trkpt>
        <trkpt lat="29.566136" lon="103.358115"><ele>1804.1522</ele><time>2026-07-24T17:07:35.000Z</time></trkpt>
        <trkpt lat="29.566134" lon="103.358112"><ele>1803.4277</ele><time>2026-07-24T17:07:45.000Z</time></trkpt>
        <trkpt lat="29.566112" lon="103.358064"><ele>1806.394</ele><time>2026-07-24T17:08:16.000Z</time></trkpt>
        <trkpt lat="29.566106" lon="103.358051"><ele>1807.676</ele><time>2026-07-24T17:08:18.000Z</time></trkpt>
        <trkpt lat="29.566105" lon="103.35805"><ele>1807.3473</ele><time>2026-07-24T17:08:20.000Z</time></trkpt>
        <trkpt lat="29.566101" lon="103.358025"><ele>1808.8304</ele><time>2026-07-24T17:08:26.000Z</time></trkpt>
        <trkpt lat="29.566098" lon="103.358009"><ele>1808.2363</ele><time>2026-07-24T17:08:28.000Z</time></trkpt>
        <trkpt lat="29.566097" lon="103.358008"><ele>1808.3073</ele><time>2026-07-24T17:08:30.000Z</time></trkpt>
        <trkpt lat="29.56608" lon="103.357983"><ele>1807.296</ele><time>2026-07-24T17:08:36.000Z</time></trkpt>
        <trkpt lat="29.566073" lon="103.357971"><ele>1807.5717</ele><time>2026-07-24T17:08:38.000Z</time></trkpt>
        <trkpt lat="29.566065" lon="103.35796"><ele>1806.9478</ele><time>2026-07-24T17:08:40.000Z</time></trkpt>
        <trkpt lat="29.566058" lon="103.357948"><ele>1808.1377</ele><time>2026-07-24T17:08:42.000Z</time></trkpt>
        <trkpt lat="29.566052" lon="103.357939"><ele>1808.6158</ele><time>2026-07-24T17:08:44.000Z</time></trkpt>
        <trkpt lat="29.566045" lon="103.357928"><ele>1809.4725</ele><time>2026-07-24T17:08:48.000Z</time></trkpt>
        <trkpt lat="29.566036" lon="103.357915"><ele>1810.0255</ele><time>2026-07-24T17:08:52.000Z</time></trkpt>
        <trkpt lat="29.566034" lon="103.357908"><ele>1810.4951</ele><time>2026-07-24T17:08:54.000Z</time></trkpt>
        <trkpt lat="29.566027" lon="103.357893"><ele>1812.7705</ele><time>2026-07-24T17:08:58.000Z</time></trkpt>
        <trkpt lat="29.566019" lon="103.357876"><ele>1813.9064</ele><time>2026-07-24T17:09:02.000Z</time></trkpt>
        <trkpt lat="29.566016" lon="103.357869"><ele>1813.873</ele><time>2026-07-24T17:09:04.000Z</time></trkpt>
        <trkpt lat="29.566015" lon="103.357861"><ele>1813.5325</ele><time>2026-07-24T17:09:06.000Z</time></trkpt>
        <trkpt lat="29.566014" lon="103.357838"><ele>1814.1011</ele><time>2026-07-24T17:09:12.000Z</time></trkpt>
        <trkpt lat="29.566014" lon="103.357831"><ele>1814.2249</ele><time>2026-07-24T17:09:14.000Z</time></trkpt>
        <trkpt lat="29.566012" lon="103.357822"><ele>1813.4264</ele><time>2026-07-24T17:09:16.000Z</time></trkpt>
        <trkpt lat="29.566007" lon="103.357804"><ele>1814.997</ele><time>2026-07-24T17:09:22.000Z</time></trkpt>
        <trkpt lat="29.566005" lon="103.357796"><ele>1815.2726</ele><time>2026-07-24T17:09:24.000Z</time></trkpt>
        <trkpt lat="29.566002" lon="103.357786"><ele>1815.1156</ele><time>2026-07-24T17:09:26.000Z</time></trkpt>
        <trkpt lat="29.565996" lon="103.357764"><ele>1817.0154</ele><time>2026-07-24T17:09:30.000Z</time></trkpt>
        <trkpt lat="29.565995" lon="103.357756"><ele>1817.2191</ele><time>2026-07-24T17:09:32.000Z</time></trkpt>
        <trkpt lat="29.565994" lon="103.357745"><ele>1817.4479</ele><time>2026-07-24T17:09:34.000Z</time></trkpt>
        <trkpt lat="29.565992" lon="103.35773"><ele>1817.8955</ele><time>2026-07-24T17:09:36.000Z</time></trkpt>
        <trkpt lat="29.565989" lon="103.357718"><ele>1817.0905</ele><time>2026-07-24T17:09:38.000Z</time></trkpt>
        <trkpt lat="29.565986" lon="103.357705"><ele>1817.9739</ele><time>2026-07-24T17:09:40.000Z</time></trkpt>
        <trkpt lat="29.565983" lon="103.357695"><ele>1818.0133</ele><time>2026-07-24T17:09:42.000Z</time></trkpt>
        <trkpt lat="29.565977" lon="103.357687"><ele>1818.8773</ele><time>2026-07-24T17:09:48.000Z</time></trkpt>
        <trkpt lat="29.565973" lon="103.357672"><ele>1817.0206</ele><time>2026-07-24T17:09:56.000Z</time></trkpt>
        <trkpt lat="29.565969" lon="103.357646"><ele>1822.1583</ele><time>2026-07-24T17:16:55.000Z</time></trkpt>
        <trkpt lat="29.56595" lon="103.357586"><ele>1823.9167</ele><time>2026-07-24T17:17:11.000Z</time></trkpt>
        <trkpt lat="29.565934" lon="103.357543"><ele>1823.4719</ele><time>2026-07-24T17:17:21.000Z</time></trkpt>
        <trkpt lat="29.565931" lon="103.357537"><ele>1824.1766</ele><time>2026-07-24T17:17:23.000Z</time></trkpt>
        <trkpt lat="29.565927" lon="103.357534"><ele>1824.3525</ele><time>2026-07-24T17:17:25.000Z</time></trkpt>
        <trkpt lat="29.565906" lon="103.357519"><ele>1824.7534</ele><time>2026-07-24T17:17:35.000Z</time></trkpt>
        <trkpt lat="29.565901" lon="103.357514"><ele>1824.926</ele><time>2026-07-24T17:17:37.000Z</time></trkpt>
        <trkpt lat="29.565896" lon="103.357508"><ele>1825.2201</ele><time>2026-07-24T17:17:39.000Z</time></trkpt>
        <trkpt lat="29.565884" lon="103.357493"><ele>1825.9802</ele><time>2026-07-24T17:17:45.000Z</time></trkpt>
        <trkpt lat="29.565881" lon="103.357489"><ele>1826.3209</ele><time>2026-07-24T17:17:47.000Z</time></trkpt>
        <trkpt lat="29.565871" lon="103.357483"><ele>1826.8741</ele><time>2026-07-24T17:17:51.000Z</time></trkpt>
        <trkpt lat="29.565841" lon="103.357467"><ele>1826.8768</ele><time>2026-07-24T17:17:57.000Z</time></trkpt>
        <trkpt lat="29.565841" lon="103.357467"><ele>1827.5817</ele><time>2026-07-24T17:17:59.000Z</time></trkpt>
        <trkpt lat="29.56584" lon="103.357467"><ele>1827.5614</ele><time>2026-07-24T17:18:01.000Z</time></trkpt>
        <trkpt lat="29.565814" lon="103.357454"><ele>1828.7845</ele><time>2026-07-24T17:18:09.000Z</time></trkpt>
        <trkpt lat="29.565806" lon="103.357451"><ele>1829.31</ele><time>2026-07-24T17:18:11.000Z</time></trkpt>
        <trkpt lat="29.565798" lon="103.357448"><ele>1829.7527</ele><time>2026-07-24T17:18:13.000Z</time></trkpt>
        <trkpt lat="29.565786" lon="103.357442"><ele>1830.2684</ele><time>2026-07-24T17:18:17.000Z</time></trkpt>
        <trkpt lat="29.565777" lon="103.357436"><ele>1831.0763</ele><time>2026-07-24T17:18:21.000Z</time></trkpt>
        <trkpt lat="29.565767" lon="103.357429"><ele>1831.0425</ele><time>2026-07-24T17:18:25.000Z</time></trkpt>
        <trkpt lat="29.565754" lon="103.357419"><ele>1831.9835</ele><time>2026-07-24T17:18:27.000Z</time></trkpt>
        <trkpt lat="29.565749" lon="103.357417"><ele>1832.2861</ele><time>2026-07-24T17:18:31.000Z</time></trkpt>
        <trkpt lat="29.565738" lon="103.35741"><ele>1832.3723</ele><time>2026-07-24T17:18:33.000Z</time></trkpt>
        <trkpt lat="29.565721" lon="103.357399"><ele>1832.4817</ele><time>2026-07-24T17:18:35.000Z</time></trkpt>
        <trkpt lat="29.565705" lon="103.357388"><ele>1832.798</ele><time>2026-07-24T17:18:37.000Z</time></trkpt>
        <trkpt lat="29.56569" lon="103.357377"><ele>1832.3198</ele><time>2026-07-24T17:18:39.000Z</time></trkpt>
        <trkpt lat="29.565677" lon="103.357368"><ele>1832.515</ele><time>2026-07-24T17:18:41.000Z</time></trkpt>
        <trkpt lat="29.565664" lon="103.357356"><ele>1833.0563</ele><time>2026-07-24T17:18:43.000Z</time></trkpt>
        <trkpt lat="29.565654" lon="103.357345"><ele>1832.9355</ele><time>2026-07-24T17:18:45.000Z</time></trkpt>
        <trkpt lat="29.565644" lon="103.357333"><ele>1833.1744</ele><time>2026-07-24T17:18:47.000Z</time></trkpt>
        <trkpt lat="29.565634" lon="103.357319"><ele>1832.9323</ele><time>2026-07-24T17:18:49.000Z</time></trkpt>
        <trkpt lat="29.565624" lon="103.357306"><ele>1832.7993</ele><time>2026-07-24T17:18:51.000Z</time></trkpt>
        <trkpt lat="29.565616" lon="103.357296"><ele>1833.249</ele><time>2026-07-24T17:18:53.000Z</time></trkpt>
        <trkpt lat="29.565607" lon="103.357283"><ele>1833.1791</ele><time>2026-07-24T17:18:55.000Z</time></trkpt>
        <trkpt lat="29.565598" lon="103.35727"><ele>1833.0679</ele><time>2026-07-24T17:18:57.000Z</time></trkpt>
        <trkpt lat="29.565593" lon="103.35726"><ele>1833.4971</ele><time>2026-07-24T17:18:59.000Z</time></trkpt>
        <trkpt lat="29.565588" lon="103.357248"><ele>1833.8032</ele><time>2026-07-24T17:19:01.000Z</time></trkpt>
        <trkpt lat="29.565584" lon="103.357238"><ele>1833.6228</ele><time>2026-07-24T17:19:03.000Z</time></trkpt>
        <trkpt lat="29.56558" lon="103.357228"><ele>1833.8531</ele><time>2026-07-24T17:19:07.000Z</time></trkpt>
        <trkpt lat="29.565573" lon="103.357213"><ele>1834.8029</ele><time>2026-07-24T17:19:15.000Z</time></trkpt>
        <trkpt lat="29.565566" lon="103.357199"><ele>1835.491</ele><time>2026-07-24T17:19:19.000Z</time></trkpt>
        <trkpt lat="29.565563" lon="103.357194"><ele>1835.6112</ele><time>2026-07-24T17:19:21.000Z</time></trkpt>
        <trkpt lat="29.565553" lon="103.357184"><ele>1836.2891</ele><time>2026-07-24T17:19:27.000Z</time></trkpt>
        <trkpt lat="29.565525" lon="103.35716"><ele>1838.1029</ele><time>2026-07-24T17:19:58.000Z</time></trkpt>
        <trkpt lat="29.56552" lon="103.357156"><ele>1838.8325</ele><time>2026-07-24T17:20:00.000Z</time></trkpt>
        <trkpt lat="29.565516" lon="103.357152"><ele>1839.3378</ele><time>2026-07-24T17:20:02.000Z</time></trkpt>
        <trkpt lat="29.565498" lon="103.357132"><ele>1839.0176</ele><time>2026-07-24T17:20:08.000Z</time></trkpt>
        <trkpt lat="29.565486" lon="103.357119"><ele>1838.8092</ele><time>2026-07-24T17:20:10.000Z</time></trkpt>
        <trkpt lat="29.565486" lon="103.357118"><ele>1839.076</ele><time>2026-07-24T17:20:12.000Z</time></trkpt>
        <trkpt lat="29.565473" lon="103.3571"><ele>1839.2567</ele><time>2026-07-24T17:20:22.000Z</time></trkpt>
        <trkpt lat="29.565461" lon="103.357085"><ele>1838.5995</ele><time>2026-07-24T17:20:26.000Z</time></trkpt>
        <trkpt lat="29.565453" lon="103.357075"><ele>1838.3832</ele><time>2026-07-24T17:20:28.000Z</time></trkpt>
        <trkpt lat="29.565453" lon="103.357074"><ele>1838.3447</ele><time>2026-07-24T17:20:30.000Z</time></trkpt>
        <trkpt lat="29.565446" lon="103.35705"><ele>1837.3763</ele><time>2026-07-24T17:20:36.000Z</time></trkpt>
        <trkpt lat="29.565444" lon="103.357042"><ele>1837.1696</ele><time>2026-07-24T17:20:38.000Z</time></trkpt>
        <trkpt lat="29.565441" lon="103.357037"><ele>1836.9315</ele><time>2026-07-24T17:20:40.000Z</time></trkpt>
        <trkpt lat="29.56543" lon="103.357021"><ele>1838.5216</ele><time>2026-07-24T17:20:48.000Z</time></trkpt>
        <trkpt lat="29.565427" lon="103.357015"><ele>1838.6151</ele><time>2026-07-24T17:20:50.000Z</time></trkpt>
        <trkpt lat="29.565423" lon="103.357005"><ele>1839.1586</ele><time>2026-07-24T17:20:54.000Z</time></trkpt>
        <trkpt lat="29.565416" lon="103.356988"><ele>1840.8191</ele><time>2026-07-24T17:21:00.000Z</time></trkpt>
        <trkpt lat="29.565415" lon="103.356983"><ele>1842.2593</ele><time>2026-07-24T17:21:02.000Z</time></trkpt>
        <trkpt lat="29.565414" lon="103.356971"><ele>1841.6675</ele><time>2026-07-24T17:21:10.000Z</time></trkpt>
        <trkpt lat="29.565412" lon="103.356949"><ele>1842.2767</ele><time>2026-07-24T17:21:30.000Z</time></trkpt>
        <trkpt lat="29.565411" lon="103.356944"><ele>1842.386</ele><time>2026-07-24T17:21:32.000Z</time></trkpt>
        <trkpt lat="29.565407" lon="103.356912"><ele>1846.2229</ele><time>2026-07-24T17:21:49.000Z</time></trkpt>
        <trkpt lat="29.565398" lon="103.35689"><ele>1850.4655</ele><time>2026-07-24T17:22:04.000Z</time></trkpt>
        <trkpt lat="29.565385" lon="103.356871"><ele>1849.2283</ele><time>2026-07-24T17:22:19.000Z</time></trkpt>
        <trkpt lat="29.565375" lon="103.356849"><ele>1848.6531</ele><time>2026-07-24T17:22:34.000Z</time></trkpt>
        <trkpt lat="29.565374" lon="103.356848"><ele>1848.5243</ele><time>2026-07-24T17:22:49.000Z</time></trkpt>
        <trkpt lat="29.565362" lon="103.356841"><ele>1850.2565</ele><time>2026-07-24T17:23:04.000Z</time></trkpt>
        <trkpt lat="29.565341" lon="103.356828"><ele>1850.6125</ele><time>2026-07-24T17:23:52.000Z</time></trkpt>
        <trkpt lat="29.565306" lon="103.356807"><ele>1850.3164</ele><time>2026-07-24T17:24:07.000Z</time></trkpt>
        <trkpt lat="29.56527" lon="103.356785"><ele>1852.6398</ele><time>2026-07-24T17:24:21.000Z</time></trkpt>
        <trkpt lat="29.565263" lon="103.356781"><ele>1852.4922</ele><time>2026-07-24T17:24:23.000Z</time></trkpt>
        <trkpt lat="29.565249" lon="103.356771"><ele>1852.6235</ele><time>2026-07-24T17:24:25.000Z</time></trkpt>
        <trkpt lat="29.565238" lon="103.356762"><ele>1853.5286</ele><time>2026-07-24T17:24:31.000Z</time></trkpt>
        <trkpt lat="29.56523" lon="103.356756"><ele>1854.0044</ele><time>2026-07-24T17:24:33.000Z</time></trkpt>
        <trkpt lat="29.565224" lon="103.35675"><ele>1854.4078</ele><time>2026-07-24T17:24:35.000Z</time></trkpt>
        <trkpt lat="29.565213" lon="103.356742"><ele>1855.7323</ele><time>2026-07-24T17:24:39.000Z</time></trkpt>
        <trkpt lat="29.5652" lon="103.356733"><ele>1855.6895</ele><time>2026-07-24T17:24:43.000Z</time></trkpt>
        <trkpt lat="29.565195" lon="103.35673"><ele>1856.1324</ele><time>2026-07-24T17:24:45.000Z</time></trkpt>
        <trkpt lat="29.565186" lon="103.356723"><ele>1856.7343</ele><time>2026-07-24T17:24:49.000Z</time></trkpt>
        <trkpt lat="29.565174" lon="103.356715"><ele>1857.216</ele><time>2026-07-24T17:24:53.000Z</time></trkpt>
        <trkpt lat="29.565162" lon="103.356707"><ele>1857.9413</ele><time>2026-07-24T17:24:55.000Z</time></trkpt>
        <trkpt lat="29.565159" lon="103.356706"><ele>1859.1938</ele><time>2026-07-24T17:24:59.000Z</time></trkpt>
        <trkpt lat="29.56513" lon="103.356692"><ele>1858.1536</ele><time>2026-07-24T17:25:03.000Z</time></trkpt>
        <trkpt lat="29.56513" lon="103.356691"><ele>1858.3062</ele><time>2026-07-24T17:25:05.000Z</time></trkpt>
        <trkpt lat="29.565129" lon="103.356691"><ele>1858.5691</ele><time>2026-07-24T17:25:07.000Z</time></trkpt>
        <trkpt lat="29.565094" lon="103.356671"><ele>1857.2539</ele><time>2026-07-24T17:25:22.000Z</time></trkpt>
        <trkpt lat="29.565094" lon="103.356671"><ele>1857.6029</ele><time>2026-07-24T17:25:24.000Z</time></trkpt>
        <trkpt lat="29.565093" lon="103.35667"><ele>1857.1624</ele><time>2026-07-24T17:25:26.000Z</time></trkpt>
        <trkpt lat="29.56507" lon="103.356646"><ele>1859.54</ele><time>2026-07-24T17:25:36.000Z</time></trkpt>
        <trkpt lat="29.565064" lon="103.356642"><ele>1860.0012</ele><time>2026-07-24T17:25:38.000Z</time></trkpt>
        <trkpt lat="29.56506" lon="103.356639"><ele>1860.7827</ele><time>2026-07-24T17:25:40.000Z</time></trkpt>
        <trkpt lat="29.565039" lon="103.356626"><ele>1861.5918</ele><time>2026-07-24T17:25:44.000Z</time></trkpt>
        <trkpt lat="29.565036" lon="103.356625"><ele>1862.2109</ele><time>2026-07-24T17:25:48.000Z</time></trkpt>
        <trkpt lat="29.565027" lon="103.35662"><ele>1862.013</ele><time>2026-07-24T17:25:50.000Z</time></trkpt>
        <trkpt lat="29.565012" lon="103.356612"><ele>1862.0784</ele><time>2026-07-24T17:25:52.000Z</time></trkpt>
        <trkpt lat="29.564995" lon="103.356603"><ele>1862.7134</ele><time>2026-07-24T17:25:54.000Z</time></trkpt>
        <trkpt lat="29.564979" lon="103.356594"><ele>1863.5265</ele><time>2026-07-24T17:25:56.000Z</time></trkpt>
        <trkpt lat="29.564969" lon="103.356586"><ele>1863.08</ele><time>2026-07-24T17:25:58.000Z</time></trkpt>
        <trkpt lat="29.564958" lon="103.356577"><ele>1863.527</ele><time>2026-07-24T17:26:00.000Z</time></trkpt>
        <trkpt lat="29.564948" lon="103.356569"><ele>1865.0621</ele><time>2026-07-24T17:26:02.000Z</time></trkpt>
        <trkpt lat="29.564942" lon="103.356561"><ele>1865.2196</ele><time>2026-07-24T17:26:04.000Z</time></trkpt>
        <trkpt lat="29.564935" lon="103.356551"><ele>1865.142</ele><time>2026-07-24T17:26:06.000Z</time></trkpt>
        <trkpt lat="29.56493" lon="103.356541"><ele>1866.2812</ele><time>2026-07-24T17:26:08.000Z</time></trkpt>
        <trkpt lat="29.564927" lon="103.35653"><ele>1866.7832</ele><time>2026-07-24T17:26:10.000Z</time></trkpt>
        <trkpt lat="29.564922" lon="103.35652"><ele>1867.0657</ele><time>2026-07-24T17:26:14.000Z</time></trkpt>
        <trkpt lat="29.564917" lon="103.356509"><ele>1868.1447</ele><time>2026-07-24T17:26:20.000Z</time></trkpt>
        <trkpt lat="29.564905" lon="103.356498"><ele>1868.4086</ele><time>2026-07-24T17:26:24.000Z</time></trkpt>
        <trkpt lat="29.564891" lon="103.356486"><ele>1868.2366</ele><time>2026-07-24T17:26:26.000Z</time></trkpt>
        <trkpt lat="29.56489" lon="103.356485"><ele>1868.3944</ele><time>2026-07-24T17:26:28.000Z</time></trkpt>
        <trkpt lat="29.564882" lon="103.356467"><ele>1868.0457</ele><time>2026-07-24T17:26:34.000Z</time></trkpt>
        <trkpt lat="29.564876" lon="103.356453"><ele>1868.2582</ele><time>2026-07-24T17:26:38.000Z</time></trkpt>
        <trkpt lat="29.564872" lon="103.35645"><ele>1868.6047</ele><time>2026-07-24T17:26:40.000Z</time></trkpt>
        <trkpt lat="29.564853" lon="103.356437"><ele>1868.6584</ele><time>2026-07-24T17:26:44.000Z</time></trkpt>
        <trkpt lat="29.564851" lon="103.356432"><ele>1870.4869</ele><time>2026-07-24T17:26:50.000Z</time></trkpt>
        <trkpt lat="29.564847" lon="103.356427"><ele>1870.9917</ele><time>2026-07-24T17:26:52.000Z</time></trkpt>
        <trkpt lat="29.564831" lon="103.356409"><ele>1871.8646</ele><time>2026-07-24T17:26:58.000Z</time></trkpt>
        <trkpt lat="29.564818" lon="103.356396"><ele>1872.1393</ele><time>2026-07-24T17:27:00.000Z</time></trkpt>
        <trkpt lat="29.564817" lon="103.356395"><ele>1872.2871</ele><time>2026-07-24T17:27:02.000Z</time></trkpt>
        <trkpt lat="29.564809" lon="103.356384"><ele>1872.6292</ele><time>2026-07-24T17:27:06.000Z</time></trkpt>
        <trkpt lat="29.564794" lon="103.356365"><ele>1873.5109</ele><time>2026-07-24T17:27:10.000Z</time></trkpt>
        <trkpt lat="29.564788" lon="103.356358"><ele>1873.6812</ele><time>2026-07-24T17:27:12.000Z</time></trkpt>
        <trkpt lat="29.564782" lon="103.356352"><ele>1874.059</ele><time>2026-07-24T17:27:14.000Z</time></trkpt>
        <trkpt lat="29.56477" lon="103.356336"><ele>1875.068</ele><time>2026-07-24T17:27:20.000Z</time></trkpt>
        <trkpt lat="29.564761" lon="103.356324"><ele>1875.2511</ele><time>2026-07-24T17:27:22.000Z</time></trkpt>
        <trkpt lat="29.564761" lon="103.356323"><ele>1875.9763</ele><time>2026-07-24T17:27:24.000Z</time></trkpt>
        <trkpt lat="29.564749" lon="103.356299"><ele>1876.8447</ele><time>2026-07-24T17:27:30.000Z</time></trkpt>
        <trkpt lat="29.56474" lon="103.356285"><ele>1876.2466</ele><time>2026-07-24T17:27:32.000Z</time></trkpt>
        <trkpt lat="29.564731" lon="103.356271"><ele>1875.9858</ele><time>2026-07-24T17:27:34.000Z</time></trkpt>
        <trkpt lat="29.564722" lon="103.356257"><ele>1876.6624</ele><time>2026-07-24T17:27:36.000Z</time></trkpt>
        <trkpt lat="29.56472" lon="103.35625"><ele>1876.206</ele><time>2026-07-24T17:27:38.000Z</time></trkpt>
        <trkpt lat="29.564715" lon="103.356239"><ele>1876.5994</ele><time>2026-07-24T17:27:46.000Z</time></trkpt>
        <trkpt lat="29.564704" lon="103.356219"><ele>1876.8029</ele><time>2026-07-24T17:27:52.000Z</time></trkpt>
        <trkpt lat="29.5647" lon="103.356214"><ele>1876.6467</ele><time>2026-07-24T17:27:54.000Z</time></trkpt>
        <trkpt lat="29.564698" lon="103.356211"><ele>1876.6359</ele><time>2026-07-24T17:27:56.000Z</time></trkpt>
        <trkpt lat="29.56468" lon="103.356184"><ele>1876.1113</ele><time>2026-07-24T17:28:06.000Z</time></trkpt>
        <trkpt lat="29.564675" lon="103.356177"><ele>1876.1464</ele><time>2026-07-24T17:28:08.000Z</time></trkpt>
        <trkpt lat="29.564669" lon="103.35617"><ele>1876.136</ele><time>2026-07-24T17:28:10.000Z</time></trkpt>
        <trkpt lat="29.564656" lon="103.356155"><ele>1877.388</ele><time>2026-07-24T17:28:14.000Z</time></trkpt>
        <trkpt lat="29.564655" lon="103.35615"><ele>1878.018</ele><time>2026-07-24T17:28:16.000Z</time></trkpt>
        <trkpt lat="29.564652" lon="103.356141"><ele>1879.0074</ele><time>2026-07-24T17:28:26.000Z</time></trkpt>
        <trkpt lat="29.564643" lon="103.356104"><ele>1879.8015</ele><time>2026-07-24T17:28:30.000Z</time></trkpt>
        <trkpt lat="29.564643" lon="103.356104"><ele>1879.5183</ele><time>2026-07-24T17:28:32.000Z</time></trkpt>
        <trkpt lat="29.564642" lon="103.356101"><ele>1880.0029</ele><time>2026-07-24T17:28:34.000Z</time></trkpt>
        <trkpt lat="29.564631" lon="103.356063"><ele>1881.0754</ele><time>2026-07-24T17:28:42.000Z</time></trkpt>
        <trkpt lat="29.564628" lon="103.356055"><ele>1881.7815</ele><time>2026-07-24T17:28:44.000Z</time></trkpt>
        <trkpt lat="29.564624" lon="103.356047"><ele>1881.9773</ele><time>2026-07-24T17:28:46.000Z</time></trkpt>
        <trkpt lat="29.564614" lon="103.356033"><ele>1882.4131</ele><time>2026-07-24T17:28:50.000Z</time></trkpt>
        <trkpt lat="29.564607" lon="103.356024"><ele>1883.1897</ele><time>2026-07-24T17:28:54.000Z</time></trkpt>
        <trkpt lat="29.564603" lon="103.356019"><ele>1883.5868</ele><time>2026-07-24T17:28:56.000Z</time></trkpt>
        <trkpt lat="29.564585" lon="103.356012"><ele>1882.7031</ele><time>2026-07-24T17:29:13.000Z</time></trkpt>
        <trkpt lat="29.564558" lon="103.356008"><ele>1882.8881</ele><time>2026-07-24T17:29:29.000Z</time></trkpt>
        <trkpt lat="29.564551" lon="103.356016"><ele>1883.2789</ele><time>2026-07-24T17:29:45.000Z</time></trkpt>
        <trkpt lat="29.564549" lon="103.356018"><ele>1883.1505</ele><time>2026-07-24T17:30:47.000Z</time></trkpt>
        <trkpt lat="29.564513" lon="103.356045"><ele>1884.9814</ele><time>2026-07-24T17:31:02.000Z</time></trkpt>
        <trkpt lat="29.564488" lon="103.356069"><ele>1885.8687</ele><time>2026-07-24T17:31:15.000Z</time></trkpt>
        <trkpt lat="29.564488" lon="103.356069"><ele>1886.6571</ele><time>2026-07-24T17:31:17.000Z</time></trkpt>
        <trkpt lat="29.564487" lon="103.35607"><ele>1886.8989</ele><time>2026-07-24T17:31:19.000Z</time></trkpt>
        <trkpt lat="29.564471" lon="103.3561"><ele>1892.1332</ele><time>2026-07-24T17:31:39.000Z</time></trkpt>
        <trkpt lat="29.564469" lon="103.356103"><ele>1892.3723</ele><time>2026-07-24T17:31:41.000Z</time></trkpt>
        <trkpt lat="29.564467" lon="103.356105"><ele>1892.2325</ele><time>2026-07-24T17:31:43.000Z</time></trkpt>
        <trkpt lat="29.564448" lon="103.356133"><ele>1891.6262</ele><time>2026-07-24T17:31:56.000Z</time></trkpt>
        <trkpt lat="29.564448" lon="103.356134"><ele>1891.4972</ele><time>2026-07-24T17:31:58.000Z</time></trkpt>
        <trkpt lat="29.564448" lon="103.356134"><ele>1891.2373</ele><time>2026-07-24T17:32:00.000Z</time></trkpt>
        <trkpt lat="29.564418" lon="103.356136"><ele>1893.3073</ele><time>2026-07-24T17:32:56.000Z</time></trkpt>
        <trkpt lat="29.564413" lon="103.356134"><ele>1893.1736</ele><time>2026-07-24T17:32:58.000Z</time></trkpt>
        <trkpt lat="29.564406" lon="103.356133"><ele>1893.9592</ele><time>2026-07-24T17:33:00.000Z</time></trkpt>
        <trkpt lat="29.564383" lon="103.356136"><ele>1893.3552</ele><time>2026-07-24T17:33:06.000Z</time></trkpt>
        <trkpt lat="29.564372" lon="103.356139"><ele>1893.7957</ele><time>2026-07-24T17:33:08.000Z</time></trkpt>
        <trkpt lat="29.564372" lon="103.356138"><ele>1894.5337</ele><time>2026-07-24T17:33:10.000Z</time></trkpt>
        <trkpt lat="29.564385" lon="103.356172"><ele>1898.4747</ele><time>2026-07-24T17:33:34.000Z</time></trkpt>
        <trkpt lat="29.564388" lon="103.356177"><ele>1898.595</ele><time>2026-07-24T17:33:36.000Z</time></trkpt>
        <trkpt lat="29.564387" lon="103.356183"><ele>1899.1636</ele><time>2026-07-24T17:33:38.000Z</time></trkpt>
        <trkpt lat="29.564383" lon="103.356209"><ele>1898.263</ele><time>2026-07-24T17:33:48.000Z</time></trkpt>
        <trkpt lat="29.564381" lon="103.356217"><ele>1898.4714</ele><time>2026-07-24T17:33:50.000Z</time></trkpt>
        <trkpt lat="29.564379" lon="103.356226"><ele>1898.5128</ele><time>2026-07-24T17:33:52.000Z</time></trkpt>
        <trkpt lat="29.56437" lon="103.356239"><ele>1898.5641</ele><time>2026-07-24T17:33:58.000Z</time></trkpt>
        <trkpt lat="29.56436" lon="103.356257"><ele>1897.8038</ele><time>2026-07-24T17:34:16.000Z</time></trkpt>
        <trkpt lat="29.564356" lon="103.356261"><ele>1895.9462</ele><time>2026-07-24T17:34:32.000Z</time></trkpt>
        <trkpt lat="29.564352" lon="103.35627"><ele>1895.8545</ele><time>2026-07-24T17:34:48.000Z</time></trkpt>
        <trkpt lat="29.564339" lon="103.356297"><ele>1898.5425</ele><time>2026-07-24T17:35:04.000Z</time></trkpt>
        <trkpt lat="29.564329" lon="103.356316"><ele>1904.9052</ele><time>2026-07-24T17:35:20.000Z</time></trkpt>
        <trkpt lat="29.564313" lon="103.356353"><ele>1908.6342</ele><time>2026-07-24T17:35:36.000Z</time></trkpt>
        <trkpt lat="29.564307" lon="103.356364"><ele>1910.7251</ele><time>2026-07-24T17:35:46.000Z</time></trkpt>
        <trkpt lat="29.564305" lon="103.356367"><ele>1910.8752</ele><time>2026-07-24T17:35:48.000Z</time></trkpt>
        <trkpt lat="29.564295" lon="103.356382"><ele>1911.6216</ele><time>2026-07-24T17:36:00.000Z</time></trkpt>
        <trkpt lat="29.564287" lon="103.356392"><ele>1911.6294</ele><time>2026-07-24T17:36:06.000Z</time></trkpt>
        <trkpt lat="29.564284" lon="103.356394"><ele>1910.7498</ele><time>2026-07-24T17:36:08.000Z</time></trkpt>
        <trkpt lat="29.564254" lon="103.356412"><ele>1908.7668</ele><time>2026-07-24T17:36:40.000Z</time></trkpt>
        <trkpt lat="29.564235" lon="103.356422"><ele>1909.0795</ele><time>2026-07-24T17:36:45.000Z</time></trkpt>
        <trkpt lat="29.564233" lon="103.356421"><ele>1909.6864</ele><time>2026-07-24T17:36:47.000Z</time></trkpt>
        <trkpt lat="29.564228" lon="103.356425"><ele>1906.1128</ele><time>2026-07-24T17:38:05.000Z</time></trkpt>
        <trkpt lat="29.564187" lon="103.356459"><ele>1911.4286</ele><time>2026-07-24T17:45:11.000Z</time></trkpt>
        <trkpt lat="29.564183" lon="103.356459"><ele>1911.6622</ele><time>2026-07-24T17:45:27.000Z</time></trkpt>
        <trkpt lat="29.564163" lon="103.356463"><ele>1911.5886</ele><time>2026-07-24T17:45:43.000Z</time></trkpt>
        <trkpt lat="29.56413" lon="103.356404"><ele>1910.2891</ele><time>2026-07-24T17:45:59.000Z</time></trkpt>
        <trkpt lat="29.564112" lon="103.356373"><ele>1908.6871</ele><time>2026-07-24T17:46:04.000Z</time></trkpt>
        <trkpt lat="29.564112" lon="103.356373"><ele>1910.6262</ele><time>2026-07-24T17:46:06.000Z</time></trkpt>
        <trkpt lat="29.564112" lon="103.356372"><ele>1910.8999</ele><time>2026-07-24T17:46:08.000Z</time></trkpt>
        <trkpt lat="29.564106" lon="103.35633"><ele>1912.0181</ele><time>2026-07-24T17:46:18.000Z</time></trkpt>
        <trkpt lat="29.564105" lon="103.356322"><ele>1911.4</ele><time>2026-07-24T17:46:20.000Z</time></trkpt>
        <trkpt lat="29.564105" lon="103.356318"><ele>1911.4238</ele><time>2026-07-24T17:46:22.000Z</time></trkpt>
        <trkpt lat="29.564104" lon="103.356294"><ele>1909.6465</ele><time>2026-07-24T17:46:32.000Z</time></trkpt>
        <trkpt lat="29.564104" lon="103.356285"><ele>1910.1005</ele><time>2026-07-24T17:46:34.000Z</time></trkpt>
        <trkpt lat="29.564103" lon="103.356269"><ele>1909.3717</ele><time>2026-07-24T17:46:36.000Z</time></trkpt>
        <trkpt lat="29.5641" lon="103.35626"><ele>1909.6427</ele><time>2026-07-24T17:46:42.000Z</time></trkpt>
        <trkpt lat="29.564097" lon="103.356249"><ele>1909.7786</ele><time>2026-07-24T17:46:46.000Z</time></trkpt>
        <trkpt lat="29.564089" lon="103.356227"><ele>1907.1237</ele><time>2026-07-24T17:47:31.000Z</time></trkpt>
        <trkpt lat="29.564086" lon="103.356213"><ele>1906.8481</ele><time>2026-07-24T17:47:33.000Z</time></trkpt>
        <trkpt lat="29.564082" lon="103.356196"><ele>1906.6227</ele><time>2026-07-24T17:47:35.000Z</time></trkpt>
        <trkpt lat="29.564078" lon="103.356176"><ele>1906.2776</ele><time>2026-07-24T17:47:37.000Z</time></trkpt>
        <trkpt lat="29.564077" lon="103.356174"><ele>1906.7375</ele><time>2026-07-24T17:47:39.000Z</time></trkpt>
        <trkpt lat="29.564079" lon="103.356159"><ele>1908.5216</ele><time>2026-07-24T17:47:47.000Z</time></trkpt>
        <trkpt lat="29.56408" lon="103.356138"><ele>1908.9803</ele><time>2026-07-24T17:48:05.000Z</time></trkpt>
        <trkpt lat="29.56408" lon="103.356134"><ele>1908.6761</ele><time>2026-07-24T17:48:07.000Z</time></trkpt>
        <trkpt lat="29.564077" lon="103.356118"><ele>1906.8905</ele><time>2026-07-24T17:48:37.000Z</time></trkpt>
        <trkpt lat="29.56407" lon="103.356086"><ele>1906.4622</ele><time>2026-07-24T17:48:41.000Z</time></trkpt>
        <trkpt lat="29.56407" lon="103.356086"><ele>1907.376</ele><time>2026-07-24T17:48:43.000Z</time></trkpt>
        <trkpt lat="29.564069" lon="103.356082"><ele>1906.3624</ele><time>2026-07-24T17:48:45.000Z</time></trkpt>
        <trkpt lat="29.564052" lon="103.356047"><ele>1905.3864</ele><time>2026-07-24T17:48:49.000Z</time></trkpt>
        <trkpt lat="29.564045" lon="103.356029"><ele>1905.8542</ele><time>2026-07-24T17:48:51.000Z</time></trkpt>
        <trkpt lat="29.56404" lon="103.356012"><ele>1905.7174</ele><time>2026-07-24T17:48:53.000Z</time></trkpt>
        <trkpt lat="29.564035" lon="103.355993"><ele>1905.521</ele><time>2026-07-24T17:48:55.000Z</time></trkpt>
        <trkpt lat="29.564032" lon="103.355977"><ele>1904.5613</ele><time>2026-07-24T17:48:57.000Z</time></trkpt>
        <trkpt lat="29.56403" lon="103.35596"><ele>1904.6566</ele><time>2026-07-24T17:48:59.000Z</time></trkpt>
        <trkpt lat="29.564028" lon="103.355945"><ele>1904.475</ele><time>2026-07-24T17:49:01.000Z</time></trkpt>
        <trkpt lat="29.564026" lon="103.355933"><ele>1904.7297</ele><time>2026-07-24T17:49:03.000Z</time></trkpt>
        <trkpt lat="29.564023" lon="103.355923"><ele>1903.1561</ele><time>2026-07-24T17:49:05.000Z</time></trkpt>
        <trkpt lat="29.564013" lon="103.355901"><ele>1902.1543</ele><time>2026-07-24T17:49:09.000Z</time></trkpt>
        <trkpt lat="29.564008" lon="103.35589"><ele>1901.4316</ele><time>2026-07-24T17:49:11.000Z</time></trkpt>
        <trkpt lat="29.564003" lon="103.355881"><ele>1900.939</ele><time>2026-07-24T17:49:13.000Z</time></trkpt>
        <trkpt lat="29.563997" lon="103.355867"><ele>1899.4215</ele><time>2026-07-24T17:49:17.000Z</time></trkpt>
        <trkpt lat="29.563997" lon="103.355858"><ele>1898.5636</ele><time>2026-07-24T17:49:19.000Z</time></trkpt>
        <trkpt lat="29.563999" lon="103.355847"><ele>1898.1903</ele><time>2026-07-24T17:49:21.000Z</time></trkpt>
        <trkpt lat="29.564003" lon="103.355827"><ele>1898.4948</ele><time>2026-07-24T17:49:25.000Z</time></trkpt>
        <trkpt lat="29.564005" lon="103.355821"><ele>1898.4263</ele><time>2026-07-24T17:49:27.000Z</time></trkpt>
        <trkpt lat="29.564007" lon="103.355808"><ele>1897.712</ele><time>2026-07-24T17:49:33.000Z</time></trkpt>
        <trkpt lat="29.564008" lon="103.355785"><ele>1895.1018</ele><time>2026-07-24T17:49:39.000Z</time></trkpt>
        <trkpt lat="29.564009" lon="103.355765"><ele>1895.333</ele><time>2026-07-24T17:49:41.000Z</time></trkpt>
        <trkpt lat="29.564009" lon="103.355763"><ele>1895.5304</ele><time>2026-07-24T17:49:43.000Z</time></trkpt>
        <trkpt lat="29.564005" lon="103.355743"><ele>1894.247</ele><time>2026-07-24T17:49:47.000Z</time></trkpt>
        <trkpt lat="29.563999" lon="103.35572"><ele>1895.1387</ele><time>2026-07-24T17:49:49.000Z</time></trkpt>
        <trkpt lat="29.563992" lon="103.355693"><ele>1895.0028</ele><time>2026-07-24T17:49:51.000Z</time></trkpt>
        <trkpt lat="29.563986" lon="103.355673"><ele>1893.8186</ele><time>2026-07-24T17:49:53.000Z</time></trkpt>
        <trkpt lat="29.56398" lon="103.355661"><ele>1895.1583</ele><time>2026-07-24T17:49:55.000Z</time></trkpt>
        <trkpt lat="29.563977" lon="103.355656"><ele>1894.8525</ele><time>2026-07-24T17:49:57.000Z</time></trkpt>
        <trkpt lat="29.563969" lon="103.355639"><ele>1894.1107</ele><time>2026-07-24T17:50:54.000Z</time></trkpt>
        <trkpt lat="29.563961" lon="103.355617"><ele>1893.3169</ele><time>2026-07-24T17:51:01.000Z</time></trkpt>
        <trkpt lat="29.563959" lon="103.35561"><ele>1893.1796</ele><time>2026-07-24T17:51:03.000Z</time></trkpt>
        <trkpt lat="29.563959" lon="103.355606"><ele>1893.5687</ele><time>2026-07-24T17:51:05.000Z</time></trkpt>
        <trkpt lat="29.563959" lon="103.355578"><ele>1891.5989</ele><time>2026-07-24T17:51:21.000Z</time></trkpt>
        <trkpt lat="29.56396" lon="103.355557"><ele>1891.6667</ele><time>2026-07-24T17:51:23.000Z</time></trkpt>
        <trkpt lat="29.56396" lon="103.355555"><ele>1890.4304</ele><time>2026-07-24T17:51:25.000Z</time></trkpt>
        <trkpt lat="29.563954" lon="103.355519"><ele>1890.8798</ele><time>2026-07-24T17:51:28.000Z</time></trkpt>
        <trkpt lat="29.563954" lon="103.355517"><ele>1891.4098</ele><time>2026-07-24T17:51:30.000Z</time></trkpt>
        <trkpt lat="29.563953" lon="103.355514"><ele>1892.1113</ele><time>2026-07-24T17:51:32.000Z</time></trkpt>
        <trkpt lat="29.563949" lon="103.355484"><ele>1890.4274</ele><time>2026-07-24T17:51:36.000Z</time></trkpt>
        <trkpt lat="29.563947" lon="103.35547"><ele>1890.2958</ele><time>2026-07-24T17:51:38.000Z</time></trkpt>
        <trkpt lat="29.563945" lon="103.355457"><ele>1890.6998</ele><time>2026-07-24T17:51:40.000Z</time></trkpt>
        <trkpt lat="29.563941" lon="103.355447"><ele>1890.456</ele><time>2026-07-24T17:51:42.000Z</time></trkpt>
        <trkpt lat="29.563935" lon="103.355437"><ele>1890.1102</ele><time>2026-07-24T17:51:48.000Z</time></trkpt>
        <trkpt lat="29.56393" lon="103.355426"><ele>1889.4862</ele><time>2026-07-24T17:51:56.000Z</time></trkpt>
        <trkpt lat="29.563927" lon="103.355415"><ele>1888.6952</ele><time>2026-07-24T17:52:02.000Z</time></trkpt>
        <trkpt lat="29.563925" lon="103.3554"><ele>1887.6862</ele><time>2026-07-24T17:52:06.000Z</time></trkpt>
        <trkpt lat="29.563921" lon="103.355378"><ele>1887.7225</ele><time>2026-07-24T17:52:08.000Z</time></trkpt>
        <trkpt lat="29.563921" lon="103.355376"><ele>1887.2388</ele><time>2026-07-24T17:52:10.000Z</time></trkpt>
        <trkpt lat="29.563918" lon="103.355355"><ele>1886.9006</ele><time>2026-07-24T17:52:16.000Z</time></trkpt>
        <trkpt lat="29.563917" lon="103.355343"><ele>1887.0565</ele><time>2026-07-24T17:52:18.000Z</time></trkpt>
        <trkpt lat="29.563914" lon="103.355325"><ele>1886.9954</ele><time>2026-07-24T17:52:20.000Z</time></trkpt>
        <trkpt lat="29.563914" lon="103.355319"><ele>1887.308</ele><time>2026-07-24T17:52:24.000Z</time></trkpt>
        <trkpt lat="29.563913" lon="103.355307"><ele>1886.1246</ele><time>2026-07-24T17:52:26.000Z</time></trkpt>
        <trkpt lat="29.56391" lon="103.355288"><ele>1886.1093</ele><time>2026-07-24T17:52:28.000Z</time></trkpt>
        <trkpt lat="29.563906" lon="103.355273"><ele>1885.4436</ele><time>2026-07-24T17:52:30.000Z</time></trkpt>
        <trkpt lat="29.563903" lon="103.355263"><ele>1885.6057</ele><time>2026-07-24T17:52:32.000Z</time></trkpt>
        <trkpt lat="29.563897" lon="103.355248"><ele>1886.0297</ele><time>2026-07-24T17:52:34.000Z</time></trkpt>
        <trkpt lat="29.563891" lon="103.355233"><ele>1885.1245</ele><time>2026-07-24T17:52:36.000Z</time></trkpt>
        <trkpt lat="29.563883" lon="103.355218"><ele>1885.1774</ele><time>2026-07-24T17:52:38.000Z</time></trkpt>
        <trkpt lat="29.563873" lon="103.355201"><ele>1885.1906</ele><time>2026-07-24T17:52:40.000Z</time></trkpt>
        <trkpt lat="29.563864" lon="103.355188"><ele>1883.8789</ele><time>2026-07-24T17:52:42.000Z</time></trkpt>
        <trkpt lat="29.563857" lon="103.355178"><ele>1883.576</ele><time>2026-07-24T17:52:44.000Z</time></trkpt>
        <trkpt lat="29.563851" lon="103.355169"><ele>1884.798</ele><time>2026-07-24T17:52:46.000Z</time></trkpt>
        <trkpt lat="29.563844" lon="103.35516"><ele>1882.7628</ele><time>2026-07-24T17:52:48.000Z</time></trkpt>
        <trkpt lat="29.563836" lon="103.355148"><ele>1882.5463</ele><time>2026-07-24T17:52:50.000Z</time></trkpt>
        <trkpt lat="29.563826" lon="103.355135"><ele>1881.4369</ele><time>2026-07-24T17:52:52.000Z</time></trkpt>
        <trkpt lat="29.563816" lon="103.355123"><ele>1881.2314</ele><time>2026-07-24T17:52:54.000Z</time></trkpt>
        <trkpt lat="29.563807" lon="103.355114"><ele>1881.303</ele><time>2026-07-24T17:52:56.000Z</time></trkpt>
        <trkpt lat="29.563797" lon="103.355104"><ele>1880.884</ele><time>2026-07-24T17:52:58.000Z</time></trkpt>
        <trkpt lat="29.563786" lon="103.355092"><ele>1881.0107</ele><time>2026-07-24T17:53:00.000Z</time></trkpt>
        <trkpt lat="29.563779" lon="103.355083"><ele>1879.9703</ele><time>2026-07-24T17:53:02.000Z</time></trkpt>
        <trkpt lat="29.563772" lon="103.355074"><ele>1878.3693</ele><time>2026-07-24T17:53:04.000Z</time></trkpt>
        <trkpt lat="29.563765" lon="103.355063"><ele>1878.4908</ele><time>2026-07-24T17:53:06.000Z</time></trkpt>
        <trkpt lat="29.563755" lon="103.355048"><ele>1879.1866</ele><time>2026-07-24T17:53:08.000Z</time></trkpt>
        <trkpt lat="29.563746" lon="103.355035"><ele>1879.5834</ele><time>2026-07-24T17:53:10.000Z</time></trkpt>
        <trkpt lat="29.563737" lon="103.355021"><ele>1881.0521</ele><time>2026-07-24T17:53:12.000Z</time></trkpt>
        <trkpt lat="29.563732" lon="103.355012"><ele>1879.8718</ele><time>2026-07-24T17:53:14.000Z</time></trkpt>
        <trkpt lat="29.563729" lon="103.355006"><ele>1879.2101</ele><time>2026-07-24T17:53:24.000Z</time></trkpt>
        <trkpt lat="29.563721" lon="103.354991"><ele>1879.8973</ele><time>2026-07-24T17:53:28.000Z</time></trkpt>
        <trkpt lat="29.563713" lon="103.354976"><ele>1879.5948</ele><time>2026-07-24T17:53:30.000Z</time></trkpt>
        <trkpt lat="29.563702" lon="103.354955"><ele>1880.4445</ele><time>2026-07-24T17:53:32.000Z</time></trkpt>
        <trkpt lat="29.563701" lon="103.354954"><ele>1880.6371</ele><time>2026-07-24T17:53:34.000Z</time></trkpt>
        <trkpt lat="29.563683" lon="103.354934"><ele>1880.7471</ele><time>2026-07-24T17:53:38.000Z</time></trkpt>
        <trkpt lat="29.563664" lon="103.354917"><ele>1880.9106</ele><time>2026-07-24T17:53:40.000Z</time></trkpt>
        <trkpt lat="29.563646" lon="103.354901"><ele>1881.5393</ele><time>2026-07-24T17:53:42.000Z</time></trkpt>
        <trkpt lat="29.56363" lon="103.354887"><ele>1881.5759</ele><time>2026-07-24T17:53:44.000Z</time></trkpt>
        <trkpt lat="29.563617" lon="103.354874"><ele>1880.4568</ele><time>2026-07-24T17:53:46.000Z</time></trkpt>
        <trkpt lat="29.563605" lon="103.354861"><ele>1880.4116</ele><time>2026-07-24T17:53:48.000Z</time></trkpt>
        <trkpt lat="29.563593" lon="103.354847"><ele>1880.2314</ele><time>2026-07-24T17:53:50.000Z</time></trkpt>
        <trkpt lat="29.56358" lon="103.354833"><ele>1880.5624</ele><time>2026-07-24T17:53:52.000Z</time></trkpt>
        <trkpt lat="29.563568" lon="103.354817"><ele>1880.9767</ele><time>2026-07-24T17:53:54.000Z</time></trkpt>
        <trkpt lat="29.563555" lon="103.3548"><ele>1880.9796</ele><time>2026-07-24T17:53:56.000Z</time></trkpt>
        <trkpt lat="29.563543" lon="103.354783"><ele>1880.5024</ele><time>2026-07-24T17:53:58.000Z</time></trkpt>
        <trkpt lat="29.563531" lon="103.354764"><ele>1880.0907</ele><time>2026-07-24T17:54:00.000Z</time></trkpt>
        <trkpt lat="29.563522" lon="103.354747"><ele>1879.7722</ele><time>2026-07-24T17:54:02.000Z</time></trkpt>
        <trkpt lat="29.563516" lon="103.354733"><ele>1879.3143</ele><time>2026-07-24T17:54:04.000Z</time></trkpt>
        <trkpt lat="29.563514" lon="103.354723"><ele>1879.7389</ele><time>2026-07-24T17:54:06.000Z</time></trkpt>
        <trkpt lat="29.563513" lon="103.354713"><ele>1880.5862</ele><time>2026-07-24T17:54:08.000Z</time></trkpt>
        <trkpt lat="29.563508" lon="103.354688"><ele>1881.2748</ele><time>2026-07-24T17:54:12.000Z</time></trkpt>
        <trkpt lat="29.563503" lon="103.354672"><ele>1881.5007</ele><time>2026-07-24T17:54:14.000Z</time></trkpt>
        <trkpt lat="29.563496" lon="103.354655"><ele>1881.3828</ele><time>2026-07-24T17:54:16.000Z</time></trkpt>
        <trkpt lat="29.563487" lon="103.35464"><ele>1881.242</ele><time>2026-07-24T17:54:18.000Z</time></trkpt>
        <trkpt lat="29.563475" lon="103.354626"><ele>1882.4056</ele><time>2026-07-24T17:54:20.000Z</time></trkpt>
        <trkpt lat="29.563461" lon="103.354611"><ele>1883.2747</ele><time>2026-07-24T17:54:22.000Z</time></trkpt>
        <trkpt lat="29.563448" lon="103.354601"><ele>1882.7421</ele><time>2026-07-24T17:54:24.000Z</time></trkpt>
        <trkpt lat="29.563437" lon="103.354594"><ele>1884.7759</ele><time>2026-07-24T17:54:26.000Z</time></trkpt>
        <trkpt lat="29.563427" lon="103.354588"><ele>1883.8452</ele><time>2026-07-24T17:54:28.000Z</time></trkpt>
        <trkpt lat="29.56342" lon="103.354586"><ele>1883.7849</ele><time>2026-07-24T17:54:30.000Z</time></trkpt>
        <trkpt lat="29.563408" lon="103.354583"><ele>1883.4816</ele><time>2026-07-24T17:54:34.000Z</time></trkpt>
        <trkpt lat="29.563396" lon="103.354584"><ele>1883.1364</ele><time>2026-07-24T17:54:38.000Z</time></trkpt>
        <trkpt lat="29.563388" lon="103.354578"><ele>1885.2231</ele><time>2026-07-24T17:56:16.000Z</time></trkpt>
        <trkpt lat="29.563336" lon="103.354535"><ele>1883.757</ele><time>2026-07-24T18:04:11.000Z</time></trkpt>
        <trkpt lat="29.563323" lon="103.354521"><ele>1884.1332</ele><time>2026-07-24T18:04:13.000Z</time></trkpt>
        <trkpt lat="29.563315" lon="103.354509"><ele>1884.1893</ele><time>2026-07-24T18:04:15.000Z</time></trkpt>
        <trkpt lat="29.563307" lon="103.354498"><ele>1885.2476</ele><time>2026-07-24T18:04:17.000Z</time></trkpt>
        <trkpt lat="29.563305" lon="103.354493"><ele>1886.0669</ele><time>2026-07-24T18:04:21.000Z</time></trkpt>
        <trkpt lat="29.5633" lon="103.35448"><ele>1886.7932</ele><time>2026-07-24T18:04:23.000Z</time></trkpt>
        <trkpt lat="29.563294" lon="103.354457"><ele>1886.4424</ele><time>2026-07-24T18:04:25.000Z</time></trkpt>
        <trkpt lat="29.563286" lon="103.354432"><ele>1886.285</ele><time>2026-07-24T18:04:27.000Z</time></trkpt>
        <trkpt lat="29.56328" lon="103.354406"><ele>1886.8854</ele><time>2026-07-24T18:04:29.000Z</time></trkpt>
        <trkpt lat="29.563276" lon="103.354386"><ele>1887.1986</ele><time>2026-07-24T18:04:31.000Z</time></trkpt>
        <trkpt lat="29.563273" lon="103.354368"><ele>1886.1713</ele><time>2026-07-24T18:04:33.000Z</time></trkpt>
        <trkpt lat="29.563272" lon="103.35435"><ele>1885.7546</ele><time>2026-07-24T18:04:35.000Z</time></trkpt>
        <trkpt lat="29.563271" lon="103.354331"><ele>1885.3444</ele><time>2026-07-24T18:04:37.000Z</time></trkpt>
        <trkpt lat="29.563269" lon="103.354315"><ele>1885.0394</ele><time>2026-07-24T18:04:39.000Z</time></trkpt>
        <trkpt lat="29.563268" lon="103.354299"><ele>1885.4604</ele><time>2026-07-24T18:04:41.000Z</time></trkpt>
        <trkpt lat="29.563268" lon="103.354283"><ele>1884.4364</ele><time>2026-07-24T18:04:43.000Z</time></trkpt>
        <trkpt lat="29.563266" lon="103.354264"><ele>1884.4117</ele><time>2026-07-24T18:04:45.000Z</time></trkpt>
        <trkpt lat="29.563263" lon="103.354247"><ele>1884.7015</ele><time>2026-07-24T18:04:47.000Z</time></trkpt>
        <trkpt lat="29.563259" lon="103.354228"><ele>1884.0127</ele><time>2026-07-24T18:04:49.000Z</time></trkpt>
        <trkpt lat="29.563254" lon="103.354209"><ele>1882.8904</ele><time>2026-07-24T18:04:51.000Z</time></trkpt>
        <trkpt lat="29.563249" lon="103.35419"><ele>1883.293</ele><time>2026-07-24T18:04:53.000Z</time></trkpt>
        <trkpt lat="29.563244" lon="103.354174"><ele>1881.7823</ele><time>2026-07-24T18:04:55.000Z</time></trkpt>
        <trkpt lat="29.563238" lon="103.354155"><ele>1882.2992</ele><time>2026-07-24T18:04:57.000Z</time></trkpt>
        <trkpt lat="29.563233" lon="103.354139"><ele>1882.2687</ele><time>2026-07-24T18:04:59.000Z</time></trkpt>
        <trkpt lat="29.563226" lon="103.354124"><ele>1881.8059</ele><time>2026-07-24T18:05:01.000Z</time></trkpt>
        <trkpt lat="29.563218" lon="103.354105"><ele>1881.2833</ele><time>2026-07-24T18:05:03.000Z</time></trkpt>
        <trkpt lat="29.563209" lon="103.354088"><ele>1882.1976</ele><time>2026-07-24T18:05:05.000Z</time></trkpt>
        <trkpt lat="29.563196" lon="103.354067"><ele>1882.0934</ele><time>2026-07-24T18:05:07.000Z</time></trkpt>
        <trkpt lat="29.563183" lon="103.354042"><ele>1881.932</ele><time>2026-07-24T18:05:09.000Z</time></trkpt>
        <trkpt lat="29.563171" lon="103.354016"><ele>1882.1307</ele><time>2026-07-24T18:05:11.000Z</time></trkpt>
        <trkpt lat="29.563161" lon="103.353991"><ele>1882.6423</ele><time>2026-07-24T18:05:13.000Z</time></trkpt>
        <trkpt lat="29.563154" lon="103.353968"><ele>1882.3157</ele><time>2026-07-24T18:05:15.000Z</time></trkpt>
        <trkpt lat="29.563148" lon="103.353947"><ele>1881.9666</ele><time>2026-07-24T18:05:17.000Z</time></trkpt>
        <trkpt lat="29.563143" lon="103.353929"><ele>1881.6382</ele><time>2026-07-24T18:05:19.000Z</time></trkpt>
        <trkpt lat="29.56314" lon="103.353909"><ele>1881.3602</ele><time>2026-07-24T18:05:21.000Z</time></trkpt>
        <trkpt lat="29.563139" lon="103.353888"><ele>1881.282</ele><time>2026-07-24T18:05:23.000Z</time></trkpt>
        <trkpt lat="29.56314" lon="103.353868"><ele>1881.0707</ele><time>2026-07-24T18:05:25.000Z</time></trkpt>
        <trkpt lat="29.56314" lon="103.353848"><ele>1880.8175</ele><time>2026-07-24T18:05:27.000Z</time></trkpt>
        <trkpt lat="29.563139" lon="103.353828"><ele>1881.1799</ele><time>2026-07-24T18:05:29.000Z</time></trkpt>
        <trkpt lat="29.563137" lon="103.353807"><ele>1881.8241</ele><time>2026-07-24T18:05:31.000Z</time></trkpt>
        <trkpt lat="29.563131" lon="103.353787"><ele>1882.9419</ele><time>2026-07-24T18:05:33.000Z</time></trkpt>
        <trkpt lat="29.563123" lon="103.353768"><ele>1884.0266</ele><time>2026-07-24T18:05:35.000Z</time></trkpt>
        <trkpt lat="29.563115" lon="103.35375"><ele>1883.2954</ele><time>2026-07-24T18:05:37.000Z</time></trkpt>
        <trkpt lat="29.563106" lon="103.353732"><ele>1883.4744</ele><time>2026-07-24T18:05:39.000Z</time></trkpt>
        <trkpt lat="29.5631" lon="103.353718"><ele>1883.438</ele><time>2026-07-24T18:05:41.000Z</time></trkpt>
        <trkpt lat="29.563094" lon="103.353706"><ele>1882.9114</ele><time>2026-07-24T18:05:43.000Z</time></trkpt>
        <trkpt lat="29.563091" lon="103.353699"><ele>1882.915</ele><time>2026-07-24T18:05:45.000Z</time></trkpt>
        <trkpt lat="29.563077" lon="103.353672"><ele>1883.0139</ele><time>2026-07-24T18:05:57.000Z</time></trkpt>
        <trkpt lat="29.563077" lon="103.353672"><ele>1883.1803</ele><time>2026-07-24T18:05:59.000Z</time></trkpt>
        <trkpt lat="29.563071" lon="103.353644"><ele>1883.099</ele><time>2026-07-24T18:06:01.000Z</time></trkpt>
        <trkpt lat="29.563071" lon="103.353637"><ele>1883.6519</ele><time>2026-07-24T18:06:05.000Z</time></trkpt>
        <trkpt lat="29.563069" lon="103.353621"><ele>1883.48</ele><time>2026-07-24T18:06:07.000Z</time></trkpt>
        <trkpt lat="29.563068" lon="103.353595"><ele>1882.6027</ele><time>2026-07-24T18:06:09.000Z</time></trkpt>
        <trkpt lat="29.563067" lon="103.353569"><ele>1883.0194</ele><time>2026-07-24T18:06:11.000Z</time></trkpt>
        <trkpt lat="29.563067" lon="103.353545"><ele>1882.9312</ele><time>2026-07-24T18:06:13.000Z</time></trkpt>
        <trkpt lat="29.563069" lon="103.353528"><ele>1882.505</ele><time>2026-07-24T18:06:15.000Z</time></trkpt>
        <trkpt lat="29.56307" lon="103.353516"><ele>1882.2402</ele><time>2026-07-24T18:06:17.000Z</time></trkpt>
        <trkpt lat="29.563073" lon="103.353506"><ele>1882.2155</ele><time>2026-07-24T18:06:19.000Z</time></trkpt>
        <trkpt lat="29.563077" lon="103.353495"><ele>1882.287</ele><time>2026-07-24T18:06:21.000Z</time></trkpt>
        <trkpt lat="29.563082" lon="103.353485"><ele>1881.5682</ele><time>2026-07-24T18:06:23.000Z</time></trkpt>
        <trkpt lat="29.563086" lon="103.353474"><ele>1881.076</ele><time>2026-07-24T18:06:25.000Z</time></trkpt>
        <trkpt lat="29.56309" lon="103.353463"><ele>1880.397</ele><time>2026-07-24T18:06:27.000Z</time></trkpt>
        <trkpt lat="29.563091" lon="103.353452"><ele>1880.6238</ele><time>2026-07-24T18:06:31.000Z</time></trkpt>
        <trkpt lat="29.563091" lon="103.353441"><ele>1880.5338</ele><time>2026-07-24T18:06:49.000Z</time></trkpt>
        <trkpt lat="29.56309" lon="103.353422"><ele>1880.6788</ele><time>2026-07-24T18:06:53.000Z</time></trkpt>
        <trkpt lat="29.563088" lon="103.353415"><ele>1880.2687</ele><time>2026-07-24T18:06:55.000Z</time></trkpt>
        <trkpt lat="29.563085" lon="103.353407"><ele>1879.3678</ele><time>2026-07-24T18:07:01.000Z</time></trkpt>
        <trkpt lat="29.563076" lon="103.353386"><ele>1879.2794</ele><time>2026-07-24T18:07:15.000Z</time></trkpt>
        <trkpt lat="29.563075" lon="103.353381"><ele>1879.5021</ele><time>2026-07-24T18:07:17.000Z</time></trkpt>
        <trkpt lat="29.563071" lon="103.353374"><ele>1879.6744</ele><time>2026-07-24T18:07:21.000Z</time></trkpt>
        <trkpt lat="29.563059" lon="103.353351"><ele>1879.3983</ele><time>2026-07-24T18:07:29.000Z</time></trkpt>
        <trkpt lat="29.563051" lon="103.353337"><ele>1879.3936</ele><time>2026-07-24T18:07:31.000Z</time></trkpt>
        <trkpt lat="29.563051" lon="103.353336"><ele>1879.4644</ele><time>2026-07-24T18:07:33.000Z</time></trkpt>
        <trkpt lat="29.563046" lon="103.353297"><ele>1879.642</ele><time>2026-07-24T18:07:39.000Z</time></trkpt>
        <trkpt lat="29.563042" lon="103.35327"><ele>1879.1932</ele><time>2026-07-24T18:07:41.000Z</time></trkpt>
        <trkpt lat="29.563036" lon="103.35324"><ele>1878.611</ele><time>2026-07-24T18:07:43.000Z</time></trkpt>
        <trkpt lat="29.563033" lon="103.353217"><ele>1879.0194</ele><time>2026-07-24T18:07:45.000Z</time></trkpt>
        <trkpt lat="29.563031" lon="103.353196"><ele>1877.6454</ele><time>2026-07-24T18:07:47.000Z</time></trkpt>
        <trkpt lat="29.563029" lon="103.353176"><ele>1877.6044</ele><time>2026-07-24T18:07:49.000Z</time></trkpt>
        <trkpt lat="29.563027" lon="103.353159"><ele>1878.0153</ele><time>2026-07-24T18:07:51.000Z</time></trkpt>
        <trkpt lat="29.563025" lon="103.35314"><ele>1879.4976</ele><time>2026-07-24T18:07:53.000Z</time></trkpt>
        <trkpt lat="29.563021" lon="103.353121"><ele>1879.8517</ele><time>2026-07-24T18:07:55.000Z</time></trkpt>
        <trkpt lat="29.563017" lon="103.3531"><ele>1880.457</ele><time>2026-07-24T18:07:57.000Z</time></trkpt>
        <trkpt lat="29.563011" lon="103.353077"><ele>1880.56</ele><time>2026-07-24T18:07:59.000Z</time></trkpt>
        <trkpt lat="29.563005" lon="103.353054"><ele>1880.2219</ele><time>2026-07-24T18:08:01.000Z</time></trkpt>
        <trkpt lat="29.562996" lon="103.35303"><ele>1878.762</ele><time>2026-07-24T18:08:03.000Z</time></trkpt>
        <trkpt lat="29.562986" lon="103.353007"><ele>1879.6921</ele><time>2026-07-24T18:08:05.000Z</time></trkpt>
        <trkpt lat="29.562976" lon="103.352986"><ele>1879.5309</ele><time>2026-07-24T18:08:07.000Z</time></trkpt>
        <trkpt lat="29.562969" lon="103.352963"><ele>1878.3347</ele><time>2026-07-24T18:08:09.000Z</time></trkpt>
        <trkpt lat="29.562962" lon="103.352942"><ele>1878.5483</ele><time>2026-07-24T18:08:11.000Z</time></trkpt>
        <trkpt lat="29.562955" lon="103.352923"><ele>1878.1011</ele><time>2026-07-24T18:08:13.000Z</time></trkpt>
        <trkpt lat="29.562949" lon="103.352912"><ele>1878.1228</ele><time>2026-07-24T18:08:15.000Z</time></trkpt>
        <trkpt lat="29.562946" lon="103.352905"><ele>1878.0365</ele><time>2026-07-24T18:08:17.000Z</time></trkpt>
        <trkpt lat="29.562947" lon="103.352893"><ele>1877.276</ele><time>2026-07-24T18:08:25.000Z</time></trkpt>
        <trkpt lat="29.562945" lon="103.352876"><ele>1876.4788</ele><time>2026-07-24T18:08:35.000Z</time></trkpt>
        <trkpt lat="29.562944" lon="103.352867"><ele>1877.0404</ele><time>2026-07-24T18:08:39.000Z</time></trkpt>
        <trkpt lat="29.562942" lon="103.352857"><ele>1876.7266</ele><time>2026-07-24T18:08:45.000Z</time></trkpt>
        <trkpt lat="29.562937" lon="103.35284"><ele>1872.0183</ele><time>2026-07-24T18:09:10.000Z</time></trkpt>
        <trkpt lat="29.562931" lon="103.352817"><ele>1870.9714</ele><time>2026-07-24T18:09:25.000Z</time></trkpt>
        <trkpt lat="29.562927" lon="103.352798"><ele>1870.3793</ele><time>2026-07-24T18:09:41.000Z</time></trkpt>
        <trkpt lat="29.562927" lon="103.352798"><ele>1868.2648</ele><time>2026-07-24T18:09:44.000Z</time></trkpt>
        <trkpt lat="29.56292" lon="103.352782"><ele>1867.2871</ele><time>2026-07-24T18:09:52.000Z</time></trkpt>
        <trkpt lat="29.562913" lon="103.352764"><ele>1867.48</ele><time>2026-07-24T18:10:00.000Z</time></trkpt>
        <trkpt lat="29.562913" lon="103.352763"><ele>1867.3756</ele><time>2026-07-24T18:10:02.000Z</time></trkpt>
        <trkpt lat="29.56292" lon="103.352748"><ele>1866.2728</ele><time>2026-07-24T18:10:22.000Z</time></trkpt>
        <trkpt lat="29.562935" lon="103.352718"><ele>1864.5613</ele><time>2026-07-24T18:10:38.000Z</time></trkpt>
        <trkpt lat="29.562936" lon="103.352714"><ele>1864.1935</ele><time>2026-07-24T18:10:40.000Z</time></trkpt>
        <trkpt lat="29.562938" lon="103.35271"><ele>1864.4197</ele><time>2026-07-24T18:10:42.000Z</time></trkpt>
        <trkpt lat="29.562948" lon="103.352679"><ele>1862.8762</ele><time>2026-07-24T18:10:58.000Z</time></trkpt>
        <trkpt lat="29.562949" lon="103.352672"><ele>1862.4465</ele><time>2026-07-24T18:11:00.000Z</time></trkpt>
        <trkpt lat="29.562951" lon="103.352667"><ele>1862.3115</ele><time>2026-07-24T18:11:02.000Z</time></trkpt>
        <trkpt lat="29.562963" lon="103.352645"><ele>1860.4716</ele><time>2026-07-24T18:11:10.000Z</time></trkpt>
        <trkpt lat="29.562965" lon="103.352641"><ele>1860.3079</ele><time>2026-07-24T18:11:12.000Z</time></trkpt>
        <trkpt lat="29.562967" lon="103.352638"><ele>1860.5109</ele><time>2026-07-24T18:11:14.000Z</time></trkpt>
        <trkpt lat="29.56298" lon="103.352613"><ele>1860.7445</ele><time>2026-07-24T18:11:36.000Z</time></trkpt>
        <trkpt lat="29.562982" lon="103.352609"><ele>1860.6042</ele><time>2026-07-24T18:11:38.000Z</time></trkpt>
        <trkpt lat="29.562986" lon="103.352605"><ele>1860.3497</ele><time>2026-07-24T18:11:40.000Z</time></trkpt>
        <trkpt lat="29.563004" lon="103.352583"><ele>1858.7983</ele><time>2026-07-24T18:11:48.000Z</time></trkpt>
        <trkpt lat="29.563023" lon="103.352556"><ele>1856.0203</ele><time>2026-07-24T18:11:58.000Z</time></trkpt>
        <trkpt lat="29.563026" lon="103.352548"><ele>1855.7172</ele><time>2026-07-24T18:12:00.000Z</time></trkpt>
        <trkpt lat="29.563031" lon="103.352534"><ele>1856.063</ele><time>2026-07-24T18:12:02.000Z</time></trkpt>
        <trkpt lat="29.563037" lon="103.352519"><ele>1855.7336</ele><time>2026-07-24T18:12:10.000Z</time></trkpt>
        <trkpt lat="29.56304" lon="103.352512"><ele>1855.2587</ele><time>2026-07-24T18:12:12.000Z</time></trkpt>
        <trkpt lat="29.563047" lon="103.352498"><ele>1854.554</ele><time>2026-07-24T18:12:16.000Z</time></trkpt>
        <trkpt lat="29.563054" lon="103.352482"><ele>1854.9967</ele><time>2026-07-24T18:12:20.000Z</time></trkpt>
        <trkpt lat="29.563057" lon="103.352473"><ele>1855.0632</ele><time>2026-07-24T18:12:22.000Z</time></trkpt>
        <trkpt lat="29.563064" lon="103.352455"><ele>1854.7762</ele><time>2026-07-24T18:12:24.000Z</time></trkpt>
        <trkpt lat="29.563068" lon="103.352451"><ele>1854.1091</ele><time>2026-07-24T18:12:28.000Z</time></trkpt>
        <trkpt lat="29.563077" lon="103.352437"><ele>1853.6998</ele><time>2026-07-24T18:12:30.000Z</time></trkpt>
        <trkpt lat="29.56309" lon="103.352418"><ele>1853.5806</ele><time>2026-07-24T18:12:32.000Z</time></trkpt>
        <trkpt lat="29.563102" lon="103.352396"><ele>1852.7595</ele><time>2026-07-24T18:12:34.000Z</time></trkpt>
        <trkpt lat="29.563113" lon="103.352376"><ele>1853.286</ele><time>2026-07-24T18:12:36.000Z</time></trkpt>
        <trkpt lat="29.56312" lon="103.352357"><ele>1852.5176</ele><time>2026-07-24T18:12:38.000Z</time></trkpt>
        <trkpt lat="29.563125" lon="103.352335"><ele>1850.6464</ele><time>2026-07-24T18:12:40.000Z</time></trkpt>
        <trkpt lat="29.563127" lon="103.352315"><ele>1851.8456</ele><time>2026-07-24T18:12:42.000Z</time></trkpt>
        <trkpt lat="29.563134" lon="103.352302"><ele>1852.7064</ele><time>2026-07-24T18:12:44.000Z</time></trkpt>
        <trkpt lat="29.563133" lon="103.3523"><ele>1851.8762</ele><time>2026-07-24T18:12:46.000Z</time></trkpt>
        <trkpt lat="29.563123" lon="103.352281"><ele>1851.1812</ele><time>2026-07-24T18:13:33.000Z</time></trkpt>
        <trkpt lat="29.563082" lon="103.352211"><ele>1853.2592</ele><time>2026-07-24T18:14:11.000Z</time></trkpt>
        <trkpt lat="29.563072" lon="103.352194"><ele>1854.5033</ele><time>2026-07-24T18:14:13.000Z</time></trkpt>
        <trkpt lat="29.563072" lon="103.352192"><ele>1852.9957</ele><time>2026-07-24T18:14:15.000Z</time></trkpt>
        <trkpt lat="29.563066" lon="103.352159"><ele>1852.1589</ele><time>2026-07-24T18:14:19.000Z</time></trkpt>
        <trkpt lat="29.563059" lon="103.352128"><ele>1851.361</ele><time>2026-07-24T18:14:21.000Z</time></trkpt>
        <trkpt lat="29.563053" lon="103.3521"><ele>1852.2109</ele><time>2026-07-24T18:14:23.000Z</time></trkpt>
        <trkpt lat="29.563049" lon="103.352076"><ele>1851.8253</ele><time>2026-07-24T18:14:25.000Z</time></trkpt>
        <trkpt lat="29.563047" lon="103.352057"><ele>1852.4862</ele><time>2026-07-24T18:14:27.000Z</time></trkpt>
        <trkpt lat="29.563046" lon="103.352041"><ele>1852.6577</ele><time>2026-07-24T18:14:29.000Z</time></trkpt>
        <trkpt lat="29.563045" lon="103.352029"><ele>1852.5844</ele><time>2026-07-24T18:14:31.000Z</time></trkpt>
        <trkpt lat="29.563043" lon="103.352019"><ele>1852.5596</ele><time>2026-07-24T18:14:33.000Z</time></trkpt>
        <trkpt lat="29.563038" lon="103.351998"><ele>1852.2697</ele><time>2026-07-24T18:14:37.000Z</time></trkpt>
        <trkpt lat="29.563035" lon="103.351985"><ele>1853.6879</ele><time>2026-07-24T18:14:39.000Z</time></trkpt>
        <trkpt lat="29.56303" lon="103.351969"><ele>1853.6199</ele><time>2026-07-24T18:14:41.000Z</time></trkpt>
        <trkpt lat="29.563025" lon="103.351952"><ele>1853.4705</ele><time>2026-07-24T18:14:43.000Z</time></trkpt>
        <trkpt lat="29.56302" lon="103.351933"><ele>1854.1793</ele><time>2026-07-24T18:14:45.000Z</time></trkpt>
        <trkpt lat="29.563016" lon="103.351914"><ele>1854.5515</ele><time>2026-07-24T18:14:47.000Z</time></trkpt>
        <trkpt lat="29.56301" lon="103.351894"><ele>1855.3851</ele><time>2026-07-24T18:14:49.000Z</time></trkpt>
        <trkpt lat="29.563003" lon="103.351875"><ele>1857.0765</ele><time>2026-07-24T18:14:51.000Z</time></trkpt>
        <trkpt lat="29.562998" lon="103.351859"><ele>1856.4817</ele><time>2026-07-24T18:14:53.000Z</time></trkpt>
        <trkpt lat="29.562994" lon="103.35184"><ele>1854.4775</ele><time>2026-07-24T18:14:55.000Z</time></trkpt>
        <trkpt lat="29.562992" lon="103.351825"><ele>1854.1307</ele><time>2026-07-24T18:14:57.000Z</time></trkpt>
        <trkpt lat="29.56299" lon="103.351811"><ele>1853.6896</ele><time>2026-07-24T18:14:59.000Z</time></trkpt>
        <trkpt lat="29.562988" lon="103.351801"><ele>1852.9799</ele><time>2026-07-24T18:15:01.000Z</time></trkpt>
        <trkpt lat="29.562987" lon="103.351791"><ele>1852.9763</ele><time>2026-07-24T18:15:03.000Z</time></trkpt>
        <trkpt lat="29.562986" lon="103.351771"><ele>1852.635</ele><time>2026-07-24T18:15:07.000Z</time></trkpt>
        <trkpt lat="29.562986" lon="103.351762"><ele>1852.3896</ele><time>2026-07-24T18:15:09.000Z</time></trkpt>
        <trkpt lat="29.562987" lon="103.351752"><ele>1851.685</ele><time>2026-07-24T18:15:11.000Z</time></trkpt>
        <trkpt lat="29.562985" lon="103.351736"><ele>1851.495</ele><time>2026-07-24T18:15:17.000Z</time></trkpt>
        <trkpt lat="29.562985" lon="103.351716"><ele>1851.811</ele><time>2026-07-24T18:15:21.000Z</time></trkpt>
        <trkpt lat="29.562985" lon="103.351696"><ele>1851.2578</ele><time>2026-07-24T18:15:23.000Z</time></trkpt>
        <trkpt lat="29.562985" lon="103.351694"><ele>1851.9034</ele><time>2026-07-24T18:15:25.000Z</time></trkpt>
        <trkpt lat="29.562983" lon="103.351672"><ele>1850.746</ele><time>2026-07-24T18:15:29.000Z</time></trkpt>
        <trkpt lat="29.56298" lon="103.351648"><ele>1851.1755</ele><time>2026-07-24T18:15:31.000Z</time></trkpt>
        <trkpt lat="29.562978" lon="103.351628"><ele>1850.4296</ele><time>2026-07-24T18:15:33.000Z</time></trkpt>
        <trkpt lat="29.562974" lon="103.351609"><ele>1851.1969</ele><time>2026-07-24T18:15:35.000Z</time></trkpt>
        <trkpt lat="29.562969" lon="103.351592"><ele>1850.9572</ele><time>2026-07-24T18:15:37.000Z</time></trkpt>
        <trkpt lat="29.562965" lon="103.351578"><ele>1850.6517</ele><time>2026-07-24T18:15:39.000Z</time></trkpt>
        <trkpt lat="29.562959" lon="103.351564"><ele>1850.1963</ele><time>2026-07-24T18:15:41.000Z</time></trkpt>
        <trkpt lat="29.562956" lon="103.351554"><ele>1849.8502</ele><time>2026-07-24T18:15:43.000Z</time></trkpt>
        <trkpt lat="29.562953" lon="103.351546"><ele>1848.3165</ele><time>2026-07-24T18:15:45.000Z</time></trkpt>
        <trkpt lat="29.562943" lon="103.351529"><ele>1848.7333</ele><time>2026-07-24T18:15:51.000Z</time></trkpt>
        <trkpt lat="29.562936" lon="103.351517"><ele>1847.628</ele><time>2026-07-24T18:15:53.000Z</time></trkpt>
        <trkpt lat="29.562935" lon="103.351516"><ele>1847.5249</ele><time>2026-07-24T18:15:55.000Z</time></trkpt>
        <trkpt lat="29.562927" lon="103.351493"><ele>1847.4935</ele><time>2026-07-24T18:15:57.000Z</time></trkpt>
        <trkpt lat="29.562925" lon="103.351478"><ele>1846.8339</ele><time>2026-07-24T18:16:03.000Z</time></trkpt>
        <trkpt lat="29.562925" lon="103.351459"><ele>1846.383</ele><time>2026-07-24T18:16:05.000Z</time></trkpt>
        <trkpt lat="29.562928" lon="103.35144"><ele>1845.9508</ele><time>2026-07-24T18:16:07.000Z</time></trkpt>
        <trkpt lat="29.562933" lon="103.351418"><ele>1845.1703</ele><time>2026-07-24T18:16:09.000Z</time></trkpt>
        <trkpt lat="29.562939" lon="103.351401"><ele>1844.7723</ele><time>2026-07-24T18:16:11.000Z</time></trkpt>
        <trkpt lat="29.562947" lon="103.351387"><ele>1845.6761</ele><time>2026-07-24T18:16:13.000Z</time></trkpt>
        <trkpt lat="29.562955" lon="103.351374"><ele>1845.052</ele><time>2026-07-24T18:16:15.000Z</time></trkpt>
        <trkpt lat="29.562963" lon="103.351362"><ele>1843.7201</ele><time>2026-07-24T18:16:17.000Z</time></trkpt>
        <trkpt lat="29.562971" lon="103.351349"><ele>1843.0018</ele><time>2026-07-24T18:16:19.000Z</time></trkpt>
        <trkpt lat="29.562978" lon="103.351336"><ele>1842.847</ele><time>2026-07-24T18:16:21.000Z</time></trkpt>
        <trkpt lat="29.562984" lon="103.351326"><ele>1842.7081</ele><time>2026-07-24T18:16:23.000Z</time></trkpt>
        <trkpt lat="29.562989" lon="103.351317"><ele>1841.8043</ele><time>2026-07-24T18:16:25.000Z</time></trkpt>
        <trkpt lat="29.562998" lon="103.351298"><ele>1840.868</ele><time>2026-07-24T18:16:29.000Z</time></trkpt>
        <trkpt lat="29.563002" lon="103.351287"><ele>1839.8285</ele><time>2026-07-24T18:16:31.000Z</time></trkpt>
        <trkpt lat="29.563004" lon="103.351277"><ele>1839.1769</ele><time>2026-07-24T18:16:33.000Z</time></trkpt>
        <trkpt lat="29.563006" lon="103.351258"><ele>1839.347</ele><time>2026-07-24T18:16:37.000Z</time></trkpt>
        <trkpt lat="29.563005" lon="103.351248"><ele>1839.0334</ele><time>2026-07-24T18:16:39.000Z</time></trkpt>
        <trkpt lat="29.563004" lon="103.351237"><ele>1838.6445</ele><time>2026-07-24T18:16:41.000Z</time></trkpt>
        <trkpt lat="29.563001" lon="103.351217"><ele>1838.1284</ele><time>2026-07-24T18:16:45.000Z</time></trkpt>
        <trkpt lat="29.562999" lon="103.351209"><ele>1838.6046</ele><time>2026-07-24T18:16:47.000Z</time></trkpt>
        <trkpt lat="29.562998" lon="103.351202"><ele>1839.2858</ele><time>2026-07-24T18:16:53.000Z</time></trkpt>
        <trkpt lat="29.562995" lon="103.351178"><ele>1838.4823</ele><time>2026-07-24T18:17:01.000Z</time></trkpt>
        <trkpt lat="29.562994" lon="103.351173"><ele>1838.2197</ele><time>2026-07-24T18:17:03.000Z</time></trkpt>
        <trkpt lat="29.562992" lon="103.351166"><ele>1838.3933</ele><time>2026-07-24T18:17:05.000Z</time></trkpt>
        <trkpt lat="29.562985" lon="103.35114"><ele>1837.585</ele><time>2026-07-24T18:17:11.000Z</time></trkpt>
        <trkpt lat="29.562984" lon="103.351137"><ele>1837.4647</ele><time>2026-07-24T18:17:13.000Z</time></trkpt>
        <trkpt lat="29.562983" lon="103.351132"><ele>1836.8413</ele><time>2026-07-24T18:17:15.000Z</time></trkpt>
        <trkpt lat="29.562975" lon="103.351108"><ele>1838.5001</ele><time>2026-07-24T18:17:20.000Z</time></trkpt>
        <trkpt lat="29.562972" lon="103.351101"><ele>1836.9471</ele><time>2026-07-24T18:17:22.000Z</time></trkpt>
        <trkpt lat="29.562964" lon="103.35108"><ele>1836.2391</ele><time>2026-07-24T18:17:24.000Z</time></trkpt>
        <trkpt lat="29.562954" lon="103.351051"><ele>1836.4917</ele><time>2026-07-24T18:17:26.000Z</time></trkpt>
        <trkpt lat="29.562944" lon="103.351021"><ele>1834.1766</ele><time>2026-07-24T18:17:28.000Z</time></trkpt>
        <trkpt lat="29.562936" lon="103.350992"><ele>1833.86</ele><time>2026-07-24T18:17:30.000Z</time></trkpt>
        <trkpt lat="29.562929" lon="103.350965"><ele>1834.1879</ele><time>2026-07-24T18:17:32.000Z</time></trkpt>
        <trkpt lat="29.562922" lon="103.350941"><ele>1834.8778</ele><time>2026-07-24T18:17:34.000Z</time></trkpt>
        <trkpt lat="29.562917" lon="103.35092"><ele>1834.7147</ele><time>2026-07-24T18:17:36.000Z</time></trkpt>
        <trkpt lat="29.562911" lon="103.350899"><ele>1834.8988</ele><time>2026-07-24T18:17:38.000Z</time></trkpt>
        <trkpt lat="29.562907" lon="103.350881"><ele>1835.1497</ele><time>2026-07-24T18:17:40.000Z</time></trkpt>
        <trkpt lat="29.562902" lon="103.350863"><ele>1834.7971</ele><time>2026-07-24T18:17:42.000Z</time></trkpt>
        <trkpt lat="29.562896" lon="103.350846"><ele>1834.4677</ele><time>2026-07-24T18:17:44.000Z</time></trkpt>
        <trkpt lat="29.562888" lon="103.350828"><ele>1834.4607</ele><time>2026-07-24T18:17:46.000Z</time></trkpt>
        <trkpt lat="29.562878" lon="103.350811"><ele>1834.3756</ele><time>2026-07-24T18:17:48.000Z</time></trkpt>
        <trkpt lat="29.562866" lon="103.350797"><ele>1834.738</ele><time>2026-07-24T18:17:50.000Z</time></trkpt>
        <trkpt lat="29.562852" lon="103.350788"><ele>1835.6775</ele><time>2026-07-24T18:17:52.000Z</time></trkpt>
        <trkpt lat="29.562837" lon="103.350782"><ele>1835.2566</ele><time>2026-07-24T18:17:54.000Z</time></trkpt>
        <trkpt lat="29.562822" lon="103.350775"><ele>1835.8784</ele><time>2026-07-24T18:17:56.000Z</time></trkpt>
        <trkpt lat="29.562813" lon="103.350768"><ele>1836.1537</ele><time>2026-07-24T18:17:58.000Z</time></trkpt>
        <trkpt lat="29.562811" lon="103.35076"><ele>1836.2954</ele><time>2026-07-24T18:18:00.000Z</time></trkpt>
        <trkpt lat="29.562805" lon="103.350737"><ele>1837.7554</ele><time>2026-07-24T18:18:26.000Z</time></trkpt>
        <trkpt lat="29.562804" lon="103.350734"><ele>1837.1555</ele><time>2026-07-24T18:18:30.000Z</time></trkpt>
        <trkpt lat="29.562804" lon="103.350726"><ele>1837.3588</ele><time>2026-07-24T18:18:32.000Z</time></trkpt>
        <trkpt lat="29.562802" lon="103.350698"><ele>1835.9822</ele><time>2026-07-24T18:18:38.000Z</time></trkpt>
        <trkpt lat="29.562803" lon="103.350696"><ele>1835.212</ele><time>2026-07-24T18:18:40.000Z</time></trkpt>
        <trkpt lat="29.562808" lon="103.350685"><ele>1833.2769</ele><time>2026-07-24T18:18:48.000Z</time></trkpt>
        <trkpt lat="29.562817" lon="103.350664"><ele>1832.7958</ele><time>2026-07-24T18:18:54.000Z</time></trkpt>
        <trkpt lat="29.562817" lon="103.350659"><ele>1832.8503</ele><time>2026-07-24T18:18:56.000Z</time></trkpt>
        <trkpt lat="29.562815" lon="103.35065"><ele>1832.5483</ele><time>2026-07-24T18:19:00.000Z</time></trkpt>
        <trkpt lat="29.562803" lon="103.350619"><ele>1832.703</ele><time>2026-07-24T18:19:36.000Z</time></trkpt>
        <trkpt lat="29.562803" lon="103.350619"><ele>1832.4957</ele><time>2026-07-24T18:19:51.000Z</time></trkpt>
        <trkpt lat="29.56284" lon="103.350625"><ele>1833.213</ele><time>2026-07-24T18:23:50.000Z</time></trkpt>
        <trkpt lat="29.56284" lon="103.350625"><ele>1832.0067</ele><time>2026-07-24T18:24:06.000Z</time></trkpt>
        <trkpt lat="29.562838" lon="103.350622"><ele>1832.15</ele><time>2026-07-24T18:24:21.000Z</time></trkpt>
        <trkpt lat="29.562863" lon="103.350657"><ele>1830.0299</ele><time>2026-07-24T18:30:51.000Z</time></trkpt>
        <trkpt lat="29.562863" lon="103.350657"><ele>1830.0142</ele><time>2026-07-24T18:30:53.000Z</time></trkpt>
        <trkpt lat="29.562862" lon="103.350655"><ele>1829.7633</ele><time>2026-07-24T18:30:55.000Z</time></trkpt>
        <trkpt lat="29.562841" lon="103.350629"><ele>1830.2958</ele><time>2026-07-24T18:34:43.000Z</time></trkpt>
        <trkpt lat="29.562841" lon="103.350629"><ele>1832.2561</ele><time>2026-07-24T18:36:44.000Z</time></trkpt>
        <trkpt lat="29.562842" lon="103.350631"><ele>1831.4032</ele><time>2026-07-24T18:37:36.000Z</time></trkpt>
        <trkpt lat="29.56286" lon="103.350656"><ele>1830.9275</ele><time>2026-07-24T18:38:27.000Z</time></trkpt>
        <trkpt lat="29.56286" lon="103.350656"><ele>1830.6752</ele><time>2026-07-24T18:38:29.000Z</time></trkpt>
        <trkpt lat="29.562857" lon="103.350656"><ele>1831.1117</ele><time>2026-07-24T18:38:41.000Z</time></trkpt>
        <trkpt lat="29.562829" lon="103.350662"><ele>1830.9373</ele><time>2026-07-24T18:44:48.000Z</time></trkpt>
        <trkpt lat="29.562828" lon="103.350661"><ele>1830.9373</ele><time>2026-07-24T18:45:04.000Z</time></trkpt>
        <trkpt lat="29.562797" lon="103.35063"><ele>1831.5525</ele><time>2026-07-24T18:45:20.000Z</time></trkpt>
        <trkpt lat="29.562786" lon="103.350617"><ele>1833.8315</ele><time>2026-07-24T18:45:35.000Z</time></trkpt>
        <trkpt lat="29.562786" lon="103.350618"><ele>1833.8315</ele><time>2026-07-24T18:45:50.000Z</time></trkpt>
        <trkpt lat="29.562835" lon="103.350646"><ele>1836.3485</ele><time>2026-07-24T18:46:20.000Z</time></trkpt>
        <trkpt lat="29.562837" lon="103.350648"><ele>1836.3485</ele><time>2026-07-24T18:46:35.000Z</time></trkpt>
        <trkpt lat="29.562858" lon="103.350704"><ele>1832.8821</ele><time>2026-07-24T18:46:50.000Z</time></trkpt>
        <trkpt lat="29.562855" lon="103.350704"><ele>1831.2623</ele><time>2026-07-24T18:47:06.000Z</time></trkpt>
        <trkpt lat="29.5628" lon="103.350699"><ele>1833.2495</ele><time>2026-07-24T18:47:58.000Z</time></trkpt>
        <trkpt lat="29.5628" lon="103.350699"><ele>1833.2495</ele><time>2026-07-24T18:48:14.000Z</time></trkpt>
        <trkpt lat="29.5628" lon="103.350699"><ele>1833.2495</ele><time>2026-07-24T18:48:29.000Z</time></trkpt>
        <trkpt lat="29.56274" lon="103.350716"><ele>1832.6848</ele><time>2026-07-24T18:52:01.000Z</time></trkpt>
        <trkpt lat="29.562827" lon="103.350672"><ele>1830.9882</ele><time>2026-07-24T18:52:48.000Z</time></trkpt>
        <trkpt lat="29.56283" lon="103.350671"><ele>1830.9882</ele><time>2026-07-24T18:53:03.000Z</time></trkpt>
        <trkpt lat="29.56283" lon="103.350671"><ele>1830.9882</ele><time>2026-07-24T18:53:19.000Z</time></trkpt>
        <trkpt lat="29.562834" lon="103.350631"><ele>1829.4773</ele><time>2026-07-24T18:54:37.000Z</time></trkpt>
        <trkpt lat="29.562836" lon="103.35061"><ele>1834.1052</ele><time>2026-07-24T18:54:53.000Z</time></trkpt>
        <trkpt lat="29.562836" lon="103.350612"><ele>1834.1052</ele><time>2026-07-24T18:55:09.000Z</time></trkpt>
        <trkpt lat="29.562859" lon="103.350731"><ele>1829.2264</ele><time>2026-07-24T18:56:50.000Z</time></trkpt>
        <trkpt lat="29.562862" lon="103.350744"><ele>1828.9011</ele><time>2026-07-24T18:56:52.000Z</time></trkpt>
        <trkpt lat="29.562862" lon="103.350744"><ele>1828.3141</ele><time>2026-07-24T18:56:54.000Z</time></trkpt>
        <trkpt lat="29.562818" lon="103.350635"><ele>1832.4016</ele><time>2026-07-24T18:57:06.000Z</time></trkpt>
        <trkpt lat="29.562818" lon="103.350635"><ele>1832.4021</ele><time>2026-07-24T18:57:08.000Z</time></trkpt>
        <trkpt lat="29.562818" lon="103.350635"><ele>1832.4021</ele><time>2026-07-24T18:57:10.000Z</time></trkpt>
        <trkpt lat="29.56284" lon="103.350661"><ele>1830.698</ele><time>2026-07-24T18:58:14.000Z</time></trkpt>
        <trkpt lat="29.562852" lon="103.350612"><ele>1837.068</ele><time>2026-07-24T18:59:02.000Z</time></trkpt>
        <trkpt lat="29.562853" lon="103.350612"><ele>1837.017</ele><time>2026-07-24T18:59:04.000Z</time></trkpt>
        <trkpt lat="29.562855" lon="103.350611"><ele>1836.3936</ele><time>2026-07-24T18:59:06.000Z</time></trkpt>
        <trkpt lat="29.562826" lon="103.350633"><ele>1832.6644</ele><time>2026-07-24T18:59:28.000Z</time></trkpt>
        <trkpt lat="29.562826" lon="103.350633"><ele>1832.7417</ele><time>2026-07-24T18:59:30.000Z</time></trkpt>
        <trkpt lat="29.562825" lon="103.350635"><ele>1832.7069</ele><time>2026-07-24T18:59:32.000Z</time></trkpt>
        <trkpt lat="29.562844" lon="103.350604"><ele>1837.4177</ele><time>2026-07-24T19:00:04.000Z</time></trkpt>
        <trkpt lat="29.562844" lon="103.350603"><ele>1837.2821</ele><time>2026-07-24T19:00:06.000Z</time></trkpt>
        <trkpt lat="29.562845" lon="103.350602"><ele>1837.1245</ele><time>2026-07-24T19:00:08.000Z</time></trkpt>
        <trkpt lat="29.562818" lon="103.350631"><ele>1834.7047</ele><time>2026-07-24T19:00:48.000Z</time></trkpt>
        <trkpt lat="29.562797" lon="103.350653"><ele>1834.0549</ele><time>2026-07-24T19:00:50.000Z</time></trkpt>
        <trkpt lat="29.562796" lon="103.350654"><ele>1833.4381</ele><time>2026-07-24T19:00:52.000Z</time></trkpt>
        <trkpt lat="29.562814" lon="103.350595"><ele>1835.1873</ele><time>2026-07-24T19:01:05.000Z</time></trkpt>
        <trkpt lat="29.562815" lon="103.35059"><ele>1835.6427</ele><time>2026-07-24T19:01:07.000Z</time></trkpt>
        <trkpt lat="29.562814" lon="103.350589"><ele>1836.1582</ele><time>2026-07-24T19:01:09.000Z</time></trkpt>
        <trkpt lat="29.56284" lon="103.350618"><ele>1835.2808</ele><time>2026-07-24T19:01:25.000Z</time></trkpt>
        <trkpt lat="29.562841" lon="103.350624"><ele>1835.2749</ele><time>2026-07-24T19:01:27.000Z</time></trkpt>
        <trkpt lat="29.562842" lon="103.350624"><ele>1834.501</ele><time>2026-07-24T19:01:29.000Z</time></trkpt>
        <trkpt lat="29.562811" lon="103.350606"><ele>1833.7625</ele><time>2026-07-24T19:04:16.000Z</time></trkpt>
        <trkpt lat="29.56281" lon="103.350607"><ele>1833.7625</ele><time>2026-07-24T19:04:31.000Z</time></trkpt>
        <trkpt lat="29.56281" lon="103.350607"><ele>1833.7625</ele><time>2026-07-24T19:04:46.000Z</time></trkpt>
        <trkpt lat="29.562823" lon="103.350645"><ele>1836.7518</ele><time>2026-07-24T19:05:01.000Z</time></trkpt>
        <trkpt lat="29.562837" lon="103.350636"><ele>1833.57</ele><time>2026-07-24T19:05:37.000Z</time></trkpt>
        <trkpt lat="29.562838" lon="103.350637"><ele>1833.3972</ele><time>2026-07-24T19:05:39.000Z</time></trkpt>
        <trkpt lat="29.562794" lon="103.350606"><ele>1836.8281</ele><time>2026-07-24T19:06:19.000Z</time></trkpt>
        <trkpt lat="29.562787" lon="103.3506"><ele>1837.0459</ele><time>2026-07-24T19:06:21.000Z</time></trkpt>
        <trkpt lat="29.562787" lon="103.350599"><ele>1837.706</ele><time>2026-07-24T19:06:23.000Z</time></trkpt>
        <trkpt lat="29.562793" lon="103.350559"><ele>1838.0791</ele><time>2026-07-24T19:06:31.000Z</time></trkpt>
        <trkpt lat="29.562796" lon="103.350535"><ele>1837.5117</ele><time>2026-07-24T19:06:33.000Z</time></trkpt>
        <trkpt lat="29.562796" lon="103.350534"><ele>1837.8187</ele><time>2026-07-24T19:06:35.000Z</time></trkpt>
        <trkpt lat="29.562799" lon="103.350523"><ele>1836.6902</ele><time>2026-07-24T19:06:39.000Z</time></trkpt>
        <trkpt lat="29.562808" lon="103.350478"><ele>1834.4038</ele><time>2026-07-24T19:06:43.000Z</time></trkpt>
        <trkpt lat="29.562813" lon="103.350451"><ele>1832.9703</ele><time>2026-07-24T19:06:45.000Z</time></trkpt>
        <trkpt lat="29.562819" lon="103.350423"><ele>1833.0765</ele><time>2026-07-24T19:06:47.000Z</time></trkpt>
        <trkpt lat="29.562825" lon="103.350395"><ele>1833.0774</ele><time>2026-07-24T19:06:49.000Z</time></trkpt>
        <trkpt lat="29.562828" lon="103.350374"><ele>1832.5073</ele><time>2026-07-24T19:06:51.000Z</time></trkpt>
        <trkpt lat="29.562835" lon="103.350348"><ele>1831.3495</ele><time>2026-07-24T19:06:53.000Z</time></trkpt>
        <trkpt lat="29.562841" lon="103.350328"><ele>1832.4637</ele><time>2026-07-24T19:06:55.000Z</time></trkpt>
        <trkpt lat="29.562848" lon="103.350312"><ele>1833.0153</ele><time>2026-07-24T19:06:57.000Z</time></trkpt>
        <trkpt lat="29.562854" lon="103.350295"><ele>1833.1938</ele><time>2026-07-24T19:06:59.000Z</time></trkpt>
        <trkpt lat="29.562859" lon="103.350276"><ele>1832.5054</ele><time>2026-07-24T19:07:01.000Z</time></trkpt>
        <trkpt lat="29.562862" lon="103.350258"><ele>1831.4816</ele><time>2026-07-24T19:07:03.000Z</time></trkpt>
        <trkpt lat="29.562864" lon="103.350242"><ele>1831.7345</ele><time>2026-07-24T19:07:05.000Z</time></trkpt>
        <trkpt lat="29.562866" lon="103.350225"><ele>1830.3722</ele><time>2026-07-24T19:07:07.000Z</time></trkpt>
        <trkpt lat="29.562869" lon="103.350209"><ele>1829.7267</ele><time>2026-07-24T19:07:09.000Z</time></trkpt>
        <trkpt lat="29.562872" lon="103.350195"><ele>1830.4174</ele><time>2026-07-24T19:07:11.000Z</time></trkpt>
        <trkpt lat="29.562878" lon="103.350178"><ele>1830.8656</ele><time>2026-07-24T19:07:13.000Z</time></trkpt>
        <trkpt lat="29.562884" lon="103.350159"><ele>1830.533</ele><time>2026-07-24T19:07:15.000Z</time></trkpt>
        <trkpt lat="29.56289" lon="103.350138"><ele>1830.0717</ele><time>2026-07-24T19:07:16.000Z</time></trkpt>
        <trkpt lat="29.562897" lon="103.350115"><ele>1829.3534</ele><time>2026-07-24T19:07:18.000Z</time></trkpt>
        <trkpt lat="29.562902" lon="103.350093"><ele>1828.7933</ele><time>2026-07-24T19:07:20.000Z</time></trkpt>
        <trkpt lat="29.562905" lon="103.350073"><ele>1828.9176</ele><time>2026-07-24T19:07:22.000Z</time></trkpt>
        <trkpt lat="29.562908" lon="103.350055"><ele>1827.6437</ele><time>2026-07-24T19:07:24.000Z</time></trkpt>
        <trkpt lat="29.56291" lon="103.350036"><ele>1828.0985</ele><time>2026-07-24T19:07:26.000Z</time></trkpt>
        <trkpt lat="29.562912" lon="103.350014"><ele>1828.4608</ele><time>2026-07-24T19:07:28.000Z</time></trkpt>
        <trkpt lat="29.562913" lon="103.349991"><ele>1829.1395</ele><time>2026-07-24T19:07:30.000Z</time></trkpt>
        <trkpt lat="29.562915" lon="103.349967"><ele>1831.7025</ele><time>2026-07-24T19:07:32.000Z</time></trkpt>
        <trkpt lat="29.562917" lon="103.349943"><ele>1829.9431</ele><time>2026-07-24T19:07:34.000Z</time></trkpt>
        <trkpt lat="29.56292" lon="103.349918"><ele>1829.3993</ele><time>2026-07-24T19:07:36.000Z</time></trkpt>
        <trkpt lat="29.562924" lon="103.349894"><ele>1829.1409</ele><time>2026-07-24T19:07:38.000Z</time></trkpt>
        <trkpt lat="29.562926" lon="103.34987"><ele>1828.8674</ele><time>2026-07-24T19:07:40.000Z</time></trkpt>
        <trkpt lat="29.562929" lon="103.349845"><ele>1828.6143</ele><time>2026-07-24T19:07:42.000Z</time></trkpt>
        <trkpt lat="29.562934" lon="103.349822"><ele>1827.8746</ele><time>2026-07-24T19:07:44.000Z</time></trkpt>
        <trkpt lat="29.562941" lon="103.349797"><ele>1827.7023</ele><time>2026-07-24T19:07:46.000Z</time></trkpt>
        <trkpt lat="29.562949" lon="103.349773"><ele>1828.0533</ele><time>2026-07-24T19:07:49.000Z</time></trkpt>
        <trkpt lat="29.562958" lon="103.349749"><ele>1828.1959</ele><time>2026-07-24T19:07:51.000Z</time></trkpt>
        <trkpt lat="29.562965" lon="103.349726"><ele>1827.6818</ele><time>2026-07-24T19:07:53.000Z</time></trkpt>
        <trkpt lat="29.562973" lon="103.349701"><ele>1826.4191</ele><time>2026-07-24T19:07:55.000Z</time></trkpt>
        <trkpt lat="29.562982" lon="103.349676"><ele>1826.6605</ele><time>2026-07-24T19:07:57.000Z</time></trkpt>
        <trkpt lat="29.562991" lon="103.349653"><ele>1826.4379</ele><time>2026-07-24T19:07:59.000Z</time></trkpt>
        <trkpt lat="29.563002" lon="103.349631"><ele>1826.8036</ele><time>2026-07-24T19:08:01.000Z</time></trkpt>
        <trkpt lat="29.563014" lon="103.349608"><ele>1826.783</ele><time>2026-07-24T19:08:03.000Z</time></trkpt>
        <trkpt lat="29.563024" lon="103.349588"><ele>1826.3702</ele><time>2026-07-24T19:08:05.000Z</time></trkpt>
        <trkpt lat="29.563035" lon="103.349566"><ele>1826.4371</ele><time>2026-07-24T19:08:07.000Z</time></trkpt>
        <trkpt lat="29.563046" lon="103.349544"><ele>1825.8103</ele><time>2026-07-24T19:08:09.000Z</time></trkpt>
        <trkpt lat="29.563056" lon="103.349523"><ele>1825.1099</ele><time>2026-07-24T19:08:11.000Z</time></trkpt>
        <trkpt lat="29.563067" lon="103.349502"><ele>1825.7501</ele><time>2026-07-24T19:08:13.000Z</time></trkpt>
        <trkpt lat="29.563075" lon="103.349488"><ele>1825.4506</ele><time>2026-07-24T19:08:15.000Z</time></trkpt>
        <trkpt lat="29.563082" lon="103.349474"><ele>1826.8369</ele><time>2026-07-24T19:08:17.000Z</time></trkpt>
        <trkpt lat="29.563085" lon="103.349462"><ele>1827.2704</ele><time>2026-07-24T19:08:19.000Z</time></trkpt>
        <trkpt lat="29.563088" lon="103.349448"><ele>1826.297</ele><time>2026-07-24T19:08:21.000Z</time></trkpt>
        <trkpt lat="29.563091" lon="103.349432"><ele>1826.6978</ele><time>2026-07-24T19:08:23.000Z</time></trkpt>
        <trkpt lat="29.563097" lon="103.349408"><ele>1825.9913</ele><time>2026-07-24T19:08:25.000Z</time></trkpt>
        <trkpt lat="29.563105" lon="103.349382"><ele>1827.5875</ele><time>2026-07-24T19:08:27.000Z</time></trkpt>
        <trkpt lat="29.563114" lon="103.349358"><ele>1828.9594</ele><time>2026-07-24T19:08:29.000Z</time></trkpt>
        <trkpt lat="29.563122" lon="103.349337"><ele>1828.9572</ele><time>2026-07-24T19:08:31.000Z</time></trkpt>
        <trkpt lat="29.563131" lon="103.349316"><ele>1828.5062</ele><time>2026-07-24T19:08:33.000Z</time></trkpt>
        <trkpt lat="29.56314" lon="103.349296"><ele>1829.4545</ele><time>2026-07-24T19:08:35.000Z</time></trkpt>
        <trkpt lat="29.563151" lon="103.349275"><ele>1828.1783</ele><time>2026-07-24T19:08:37.000Z</time></trkpt>
        <trkpt lat="29.563163" lon="103.349255"><ele>1828.2683</ele><time>2026-07-24T19:08:39.000Z</time></trkpt>
        <trkpt lat="29.563175" lon="103.349238"><ele>1828.3597</ele><time>2026-07-24T19:08:41.000Z</time></trkpt>
        <trkpt lat="29.563185" lon="103.349222"><ele>1828.192</ele><time>2026-07-24T19:08:43.000Z</time></trkpt>
        <trkpt lat="29.563195" lon="103.349208"><ele>1827.9672</ele><time>2026-07-24T19:08:45.000Z</time></trkpt>
        <trkpt lat="29.563204" lon="103.349193"><ele>1829.0869</ele><time>2026-07-24T19:08:47.000Z</time></trkpt>
        <trkpt lat="29.563212" lon="103.349179"><ele>1829.9065</ele><time>2026-07-24T19:08:49.000Z</time></trkpt>
        <trkpt lat="29.563219" lon="103.349159"><ele>1830.6135</ele><time>2026-07-24T19:08:51.000Z</time></trkpt>
        <trkpt lat="29.563221" lon="103.349139"><ele>1829.8477</ele><time>2026-07-24T19:08:53.000Z</time></trkpt>
        <trkpt lat="29.563223" lon="103.349119"><ele>1830.5939</ele><time>2026-07-24T19:08:55.000Z</time></trkpt>
        <trkpt lat="29.563223" lon="103.349097"><ele>1830.1924</ele><time>2026-07-24T19:08:57.000Z</time></trkpt>
        <trkpt lat="29.563222" lon="103.349078"><ele>1830.9409</ele><time>2026-07-24T19:08:59.000Z</time></trkpt>
        <trkpt lat="29.563219" lon="103.34906"><ele>1830.3612</ele><time>2026-07-24T19:09:01.000Z</time></trkpt>
        <trkpt lat="29.563218" lon="103.349042"><ele>1830.494</ele><time>2026-07-24T19:09:03.000Z</time></trkpt>
        <trkpt lat="29.56322" lon="103.349026"><ele>1831.0708</ele><time>2026-07-24T19:09:05.000Z</time></trkpt>
        <trkpt lat="29.563225" lon="103.349011"><ele>1831.1713</ele><time>2026-07-24T19:09:07.000Z</time></trkpt>
        <trkpt lat="29.563231" lon="103.348998"><ele>1832.468</ele><time>2026-07-24T19:09:09.000Z</time></trkpt>
        <trkpt lat="29.563236" lon="103.348984"><ele>1832.8872</ele><time>2026-07-24T19:09:11.000Z</time></trkpt>
        <trkpt lat="29.563239" lon="103.348974"><ele>1832.4009</ele><time>2026-07-24T19:09:13.000Z</time></trkpt>
        <trkpt lat="29.563241" lon="103.348963"><ele>1832.6427</ele><time>2026-07-24T19:09:15.000Z</time></trkpt>
        <trkpt lat="29.563244" lon="103.348949"><ele>1832.5737</ele><time>2026-07-24T19:09:17.000Z</time></trkpt>
        <trkpt lat="29.563246" lon="103.348935"><ele>1832.8152</ele><time>2026-07-24T19:09:19.000Z</time></trkpt>
        <trkpt lat="29.563248" lon="103.348922"><ele>1833.8658</ele><time>2026-07-24T19:09:20.000Z</time></trkpt>
        <trkpt lat="29.563249" lon="103.348905"><ele>1834.1061</ele><time>2026-07-24T19:09:22.000Z</time></trkpt>
        <trkpt lat="29.563249" lon="103.348884"><ele>1833.4877</ele><time>2026-07-24T19:09:24.000Z</time></trkpt>
        <trkpt lat="29.563248" lon="103.348861"><ele>1833.8453</ele><time>2026-07-24T19:09:26.000Z</time></trkpt>
        <trkpt lat="29.563247" lon="103.348837"><ele>1833.4536</ele><time>2026-07-24T19:09:28.000Z</time></trkpt>
        <trkpt lat="29.563246" lon="103.348815"><ele>1832.9889</ele><time>2026-07-24T19:09:30.000Z</time></trkpt>
        <trkpt lat="29.563243" lon="103.348789"><ele>1832.773</ele><time>2026-07-24T19:09:33.000Z</time></trkpt>
        <trkpt lat="29.563239" lon="103.348762"><ele>1832.3816</ele><time>2026-07-24T19:09:35.000Z</time></trkpt>
        <trkpt lat="29.563236" lon="103.34874"><ele>1833.0684</ele><time>2026-07-24T19:09:37.000Z</time></trkpt>
        <trkpt lat="29.563233" lon="103.348718"><ele>1832.8278</ele><time>2026-07-24T19:09:39.000Z</time></trkpt>
        <trkpt lat="29.563231" lon="103.348696"><ele>1832.7631</ele><time>2026-07-24T19:09:41.000Z</time></trkpt>
        <trkpt lat="29.563231" lon="103.348677"><ele>1833.4907</ele><time>2026-07-24T19:09:43.000Z</time></trkpt>
        <trkpt lat="29.563234" lon="103.348654"><ele>1833.5862</ele><time>2026-07-24T19:09:45.000Z</time></trkpt>
        <trkpt lat="29.563237" lon="103.348631"><ele>1833.1233</ele><time>2026-07-24T19:09:47.000Z</time></trkpt>
        <trkpt lat="29.563241" lon="103.348605"><ele>1833.4349</ele><time>2026-07-24T19:09:49.000Z</time></trkpt>
        <trkpt lat="29.563245" lon="103.348581"><ele>1833.7114</ele><time>2026-07-24T19:09:51.000Z</time></trkpt>
        <trkpt lat="29.563249" lon="103.348557"><ele>1834.1208</ele><time>2026-07-24T19:09:53.000Z</time></trkpt>
        <trkpt lat="29.563252" lon="103.348533"><ele>1834.0692</ele><time>2026-07-24T19:09:55.000Z</time></trkpt>
        <trkpt lat="29.563256" lon="103.348509"><ele>1834.0686</ele><time>2026-07-24T19:09:57.000Z</time></trkpt>
        <trkpt lat="29.563261" lon="103.348486"><ele>1833.8917</ele><time>2026-07-24T19:09:59.000Z</time></trkpt>
        <trkpt lat="29.563265" lon="103.348466"><ele>1834.4569</ele><time>2026-07-24T19:10:01.000Z</time></trkpt>
        <trkpt lat="29.563268" lon="103.348449"><ele>1833.991</ele><time>2026-07-24T19:10:03.000Z</time></trkpt>
        <trkpt lat="29.563273" lon="103.348433"><ele>1833.2915</ele><time>2026-07-24T19:10:05.000Z</time></trkpt>
        <trkpt lat="29.56328" lon="103.348417"><ele>1834.8691</ele><time>2026-07-24T19:10:07.000Z</time></trkpt>
        <trkpt lat="29.563286" lon="103.348403"><ele>1835.4971</ele><time>2026-07-24T19:10:09.000Z</time></trkpt>
        <trkpt lat="29.563291" lon="103.348389"><ele>1835.6917</ele><time>2026-07-24T19:10:11.000Z</time></trkpt>
        <trkpt lat="29.563299" lon="103.348373"><ele>1835.6396</ele><time>2026-07-24T19:10:13.000Z</time></trkpt>
        <trkpt lat="29.563307" lon="103.348356"><ele>1835.7117</ele><time>2026-07-24T19:10:15.000Z</time></trkpt>
        <trkpt lat="29.563316" lon="103.348342"><ele>1836.2971</ele><time>2026-07-24T19:10:17.000Z</time></trkpt>
        <trkpt lat="29.563325" lon="103.348327"><ele>1836.8185</ele><time>2026-07-24T19:10:19.000Z</time></trkpt>
        <trkpt lat="29.563335" lon="103.348312"><ele>1835.879</ele><time>2026-07-24T19:10:21.000Z</time></trkpt>
        <trkpt lat="29.563345" lon="103.348293"><ele>1835.9236</ele><time>2026-07-24T19:10:23.000Z</time></trkpt>
        <trkpt lat="29.563357" lon="103.348272"><ele>1834.7122</ele><time>2026-07-24T19:10:25.000Z</time></trkpt>
        <trkpt lat="29.563368" lon="103.348255"><ele>1834.9674</ele><time>2026-07-24T19:10:27.000Z</time></trkpt>
        <trkpt lat="29.563378" lon="103.348239"><ele>1835.6854</ele><time>2026-07-24T19:10:29.000Z</time></trkpt>
        <trkpt lat="29.563389" lon="103.348224"><ele>1835.2749</ele><time>2026-07-24T19:10:31.000Z</time></trkpt>
        <trkpt lat="29.563398" lon="103.348207"><ele>1836.2357</ele><time>2026-07-24T19:10:33.000Z</time></trkpt>
        <trkpt lat="29.563405" lon="103.348189"><ele>1835.6694</ele><time>2026-07-24T19:10:35.000Z</time></trkpt>
        <trkpt lat="29.563411" lon="103.348173"><ele>1836.4558</ele><time>2026-07-24T19:10:37.000Z</time></trkpt>
        <trkpt lat="29.563415" lon="103.348157"><ele>1837.3739</ele><time>2026-07-24T19:10:39.000Z</time></trkpt>
        <trkpt lat="29.56343" lon="103.348124"><ele>1837.6627</ele><time>2026-07-24T19:10:43.000Z</time></trkpt>
        <trkpt lat="29.56344" lon="103.348105"><ele>1838.2859</ele><time>2026-07-24T19:10:45.000Z</time></trkpt>
        <trkpt lat="29.563453" lon="103.348084"><ele>1837.2024</ele><time>2026-07-24T19:10:47.000Z</time></trkpt>
        <trkpt lat="29.563468" lon="103.348064"><ele>1836.6774</ele><time>2026-07-24T19:10:49.000Z</time></trkpt>
        <trkpt lat="29.56348" lon="103.348049"><ele>1836.7732</ele><time>2026-07-24T19:10:51.000Z</time></trkpt>
        <trkpt lat="29.563497" lon="103.348029"><ele>1835.994</ele><time>2026-07-24T19:10:53.000Z</time></trkpt>
        <trkpt lat="29.563514" lon="103.348008"><ele>1836.039</ele><time>2026-07-24T19:10:55.000Z</time></trkpt>
        <trkpt lat="29.563529" lon="103.347986"><ele>1836.3315</ele><time>2026-07-24T19:10:57.000Z</time></trkpt>
        <trkpt lat="29.563539" lon="103.347967"><ele>1836.0764</ele><time>2026-07-24T19:10:59.000Z</time></trkpt>
        <trkpt lat="29.563549" lon="103.347946"><ele>1834.097</ele><time>2026-07-24T19:11:01.000Z</time></trkpt>
        <trkpt lat="29.563554" lon="103.347928"><ele>1834.5262</ele><time>2026-07-24T19:11:03.000Z</time></trkpt>
        <trkpt lat="29.563558" lon="103.347914"><ele>1835.1293</ele><time>2026-07-24T19:11:05.000Z</time></trkpt>
        <trkpt lat="29.563563" lon="103.347898"><ele>1833.4844</ele><time>2026-07-24T19:11:07.000Z</time></trkpt>
        <trkpt lat="29.563566" lon="103.347883"><ele>1833.8472</ele><time>2026-07-24T19:11:09.000Z</time></trkpt>
        <trkpt lat="29.563568" lon="103.347869"><ele>1833.5369</ele><time>2026-07-24T19:11:11.000Z</time></trkpt>
        <trkpt lat="29.563568" lon="103.347856"><ele>1833.9896</ele><time>2026-07-24T19:11:13.000Z</time></trkpt>
        <trkpt lat="29.563568" lon="103.34784"><ele>1832.4155</ele><time>2026-07-24T19:11:15.000Z</time></trkpt>
        <trkpt lat="29.563567" lon="103.347821"><ele>1831.5562</ele><time>2026-07-24T19:11:17.000Z</time></trkpt>
        <trkpt lat="29.563567" lon="103.347805"><ele>1831.5297</ele><time>2026-07-24T19:11:19.000Z</time></trkpt>
        <trkpt lat="29.563565" lon="103.347786"><ele>1831.654</ele><time>2026-07-24T19:11:21.000Z</time></trkpt>
        <trkpt lat="29.563564" lon="103.347772"><ele>1831.4484</ele><time>2026-07-24T19:11:23.000Z</time></trkpt>
        <trkpt lat="29.563562" lon="103.347762"><ele>1831.5734</ele><time>2026-07-24T19:11:25.000Z</time></trkpt>
        <trkpt lat="29.563562" lon="103.347751"><ele>1830.4797</ele><time>2026-07-24T19:11:27.000Z</time></trkpt>
        <trkpt lat="29.563561" lon="103.347737"><ele>1829.6403</ele><time>2026-07-24T19:11:29.000Z</time></trkpt>
        <trkpt lat="29.563558" lon="103.34772"><ele>1827.9633</ele><time>2026-07-24T19:11:31.000Z</time></trkpt>
        <trkpt lat="29.563558" lon="103.347701"><ele>1829.082</ele><time>2026-07-24T19:11:33.000Z</time></trkpt>
        <trkpt lat="29.563559" lon="103.347684"><ele>1830.0453</ele><time>2026-07-24T19:11:35.000Z</time></trkpt>
        <trkpt lat="29.563562" lon="103.347667"><ele>1828.8433</ele><time>2026-07-24T19:11:37.000Z</time></trkpt>
        <trkpt lat="29.563564" lon="103.347654"><ele>1829.1945</ele><time>2026-07-24T19:11:39.000Z</time></trkpt>
        <trkpt lat="29.563566" lon="103.347649"><ele>1828.7069</ele><time>2026-07-24T19:11:41.000Z</time></trkpt>
        <trkpt lat="29.563568" lon="103.347632"><ele>1827.391</ele><time>2026-07-24T19:11:53.000Z</time></trkpt>
        <trkpt lat="29.56357" lon="103.347601"><ele>1827.3842</ele><time>2026-07-24T19:11:57.000Z</time></trkpt>
        <trkpt lat="29.56357" lon="103.347601"><ele>1826.6874</ele><time>2026-07-24T19:11:59.000Z</time></trkpt>
        <trkpt lat="29.563567" lon="103.347586"><ele>1824.8684</ele><time>2026-07-24T19:12:03.000Z</time></trkpt>
        <trkpt lat="29.563562" lon="103.347565"><ele>1826.5873</ele><time>2026-07-24T19:12:05.000Z</time></trkpt>
        <trkpt lat="29.563557" lon="103.347541"><ele>1826.4265</ele><time>2026-07-24T19:12:07.000Z</time></trkpt>
        <trkpt lat="29.563555" lon="103.347523"><ele>1826.1295</ele><time>2026-07-24T19:12:09.000Z</time></trkpt>
        <trkpt lat="29.563554" lon="103.347514"><ele>1826.67</ele><time>2026-07-24T19:12:11.000Z</time></trkpt>
        <trkpt lat="29.563552" lon="103.347507"><ele>1826.8486</ele><time>2026-07-24T19:12:13.000Z</time></trkpt>
        <trkpt lat="29.563544" lon="103.347478"><ele>1826.27</ele><time>2026-07-24T19:12:19.000Z</time></trkpt>
        <trkpt lat="29.563544" lon="103.347478"><ele>1826.883</ele><time>2026-07-24T19:12:21.000Z</time></trkpt>
        <trkpt lat="29.563539" lon="103.347461"><ele>1826.7417</ele><time>2026-07-24T19:12:25.000Z</time></trkpt>
        <trkpt lat="29.563532" lon="103.347439"><ele>1827.2822</ele><time>2026-07-24T19:12:27.000Z</time></trkpt>
        <trkpt lat="29.563525" lon="103.347417"><ele>1827.6183</ele><time>2026-07-24T19:12:29.000Z</time></trkpt>
        <trkpt lat="29.563519" lon="103.347403"><ele>1827.2362</ele><time>2026-07-24T19:12:31.000Z</time></trkpt>
        <trkpt lat="29.563515" lon="103.347394"><ele>1826.931</ele><time>2026-07-24T19:12:33.000Z</time></trkpt>
        <trkpt lat="29.563509" lon="103.347384"><ele>1827.5693</ele><time>2026-07-24T19:12:35.000Z</time></trkpt>
        <trkpt lat="29.563503" lon="103.347371"><ele>1827.5375</ele><time>2026-07-24T19:12:37.000Z</time></trkpt>
        <trkpt lat="29.563499" lon="103.347357"><ele>1828.4929</ele><time>2026-07-24T19:12:39.000Z</time></trkpt>
        <trkpt lat="29.563495" lon="103.347349"><ele>1828.6979</ele><time>2026-07-24T19:12:41.000Z</time></trkpt>
        <trkpt lat="29.563491" lon="103.34734"><ele>1829.0354</ele><time>2026-07-24T19:12:43.000Z</time></trkpt>
        <trkpt lat="29.563482" lon="103.347324"><ele>1829.6285</ele><time>2026-07-24T19:12:47.000Z</time></trkpt>
        <trkpt lat="29.563472" lon="103.347306"><ele>1829.6357</ele><time>2026-07-24T19:12:49.000Z</time></trkpt>
        <trkpt lat="29.563471" lon="103.347306"><ele>1829.4706</ele><time>2026-07-24T19:12:51.000Z</time></trkpt>
        <trkpt lat="29.563459" lon="103.347291"><ele>1829.0531</ele><time>2026-07-24T19:12:55.000Z</time></trkpt>
        <trkpt lat="29.56344" lon="103.34727"><ele>1829.4222</ele><time>2026-07-24T19:12:57.000Z</time></trkpt>
        <trkpt lat="29.563415" lon="103.347242"><ele>1829.046</ele><time>2026-07-24T19:12:59.000Z</time></trkpt>
        <trkpt lat="29.56339" lon="103.347217"><ele>1829.6306</ele><time>2026-07-24T19:13:01.000Z</time></trkpt>
        <trkpt lat="29.563366" lon="103.347197"><ele>1829.896</ele><time>2026-07-24T19:13:03.000Z</time></trkpt>
        <trkpt lat="29.563343" lon="103.347183"><ele>1829.9644</ele><time>2026-07-24T19:13:05.000Z</time></trkpt>
        <trkpt lat="29.563322" lon="103.34717"><ele>1830.3737</ele><time>2026-07-24T19:13:07.000Z</time></trkpt>
        <trkpt lat="29.5633" lon="103.347157"><ele>1830.2587</ele><time>2026-07-24T19:13:09.000Z</time></trkpt>
        <trkpt lat="29.563278" lon="103.347144"><ele>1830.3594</ele><time>2026-07-24T19:13:11.000Z</time></trkpt>
        <trkpt lat="29.563258" lon="103.347132"><ele>1830.2504</ele><time>2026-07-24T19:13:13.000Z</time></trkpt>
        <trkpt lat="29.563237" lon="103.347119"><ele>1830.0897</ele><time>2026-07-24T19:13:15.000Z</time></trkpt>
        <trkpt lat="29.563217" lon="103.347104"><ele>1830.1909</ele><time>2026-07-24T19:13:17.000Z</time></trkpt>
        <trkpt lat="29.5632" lon="103.347088"><ele>1830.574</ele><time>2026-07-24T19:13:19.000Z</time></trkpt>
        <trkpt lat="29.563186" lon="103.347071"><ele>1831.1057</ele><time>2026-07-24T19:13:21.000Z</time></trkpt>
        <trkpt lat="29.563171" lon="103.347051"><ele>1830.3903</ele><time>2026-07-24T19:13:23.000Z</time></trkpt>
        <trkpt lat="29.563156" lon="103.34703"><ele>1829.8529</ele><time>2026-07-24T19:13:25.000Z</time></trkpt>
        <trkpt lat="29.563142" lon="103.347008"><ele>1829.4434</ele><time>2026-07-24T19:13:27.000Z</time></trkpt>
        <trkpt lat="29.563128" lon="103.346987"><ele>1828.8928</ele><time>2026-07-24T19:13:29.000Z</time></trkpt>
        <trkpt lat="29.563116" lon="103.346969"><ele>1829.4899</ele><time>2026-07-24T19:13:31.000Z</time></trkpt>
        <trkpt lat="29.563103" lon="103.346952"><ele>1828.3883</ele><time>2026-07-24T19:13:33.000Z</time></trkpt>
        <trkpt lat="29.56309" lon="103.346936"><ele>1827.9232</ele><time>2026-07-24T19:13:35.000Z</time></trkpt>
        <trkpt lat="29.563079" lon="103.346922"><ele>1827.917</ele><time>2026-07-24T19:13:37.000Z</time></trkpt>
        <trkpt lat="29.563071" lon="103.346912"><ele>1827.6095</ele><time>2026-07-24T19:13:39.000Z</time></trkpt>
        <trkpt lat="29.563063" lon="103.346898"><ele>1827.3096</ele><time>2026-07-24T19:13:41.000Z</time></trkpt>
        <trkpt lat="29.563057" lon="103.346886"><ele>1824.9353</ele><time>2026-07-24T19:13:43.000Z</time></trkpt>
        <trkpt lat="29.563053" lon="103.346875"><ele>1825.2462</ele><time>2026-07-24T19:13:45.000Z</time></trkpt>
        <trkpt lat="29.563048" lon="103.346864"><ele>1823.9058</ele><time>2026-07-24T19:13:47.000Z</time></trkpt>
        <trkpt lat="29.56304" lon="103.346847"><ele>1823.205</ele><time>2026-07-24T19:13:51.000Z</time></trkpt>
        <trkpt lat="29.563036" lon="103.346839"><ele>1822.5874</ele><time>2026-07-24T19:13:53.000Z</time></trkpt>
        <trkpt lat="29.563031" lon="103.346832"><ele>1822.5668</ele><time>2026-07-24T19:14:33.000Z</time></trkpt>
        <trkpt lat="29.56302" lon="103.346819"><ele>1819.812</ele><time>2026-07-24T19:15:48.000Z</time></trkpt>
        <trkpt lat="29.562942" lon="103.346713"><ele>1821.3228</ele><time>2026-07-24T19:16:03.000Z</time></trkpt>
        <trkpt lat="29.562917" lon="103.346683"><ele>1821.4331</ele><time>2026-07-24T19:16:18.000Z</time></trkpt>
        <trkpt lat="29.562903" lon="103.346666"><ele>1821.82</ele><time>2026-07-24T19:16:20.000Z</time></trkpt>
        <trkpt lat="29.562902" lon="103.346665"><ele>1822.1241</ele><time>2026-07-24T19:16:22.000Z</time></trkpt>
        <trkpt lat="29.562889" lon="103.346643"><ele>1821.0583</ele><time>2026-07-24T19:16:26.000Z</time></trkpt>
        <trkpt lat="29.56287" lon="103.346614"><ele>1820.1218</ele><time>2026-07-24T19:16:28.000Z</time></trkpt>
        <trkpt lat="29.562846" lon="103.346581"><ele>1820.1289</ele><time>2026-07-24T19:16:30.000Z</time></trkpt>
        <trkpt lat="29.562821" lon="103.346553"><ele>1820.1991</ele><time>2026-07-24T19:16:32.000Z</time></trkpt>
        <trkpt lat="29.5628" lon="103.346532"><ele>1819.4529</ele><time>2026-07-24T19:16:34.000Z</time></trkpt>
        <trkpt lat="29.56278" lon="103.346518"><ele>1819.6635</ele><time>2026-07-24T19:16:36.000Z</time></trkpt>
        <trkpt lat="29.56276" lon="103.346508"><ele>1818.9836</ele><time>2026-07-24T19:16:38.000Z</time></trkpt>
        <trkpt lat="29.562741" lon="103.3465"><ele>1818.82</ele><time>2026-07-24T19:16:40.000Z</time></trkpt>
        <trkpt lat="29.562723" lon="103.346493"><ele>1818.6082</ele><time>2026-07-24T19:16:42.000Z</time></trkpt>
        <trkpt lat="29.562704" lon="103.346488"><ele>1818.5486</ele><time>2026-07-24T19:16:44.000Z</time></trkpt>
        <trkpt lat="29.562686" lon="103.346484"><ele>1818.3159</ele><time>2026-07-24T19:16:46.000Z</time></trkpt>
        <trkpt lat="29.562672" lon="103.346479"><ele>1819.6675</ele><time>2026-07-24T19:16:48.000Z</time></trkpt>
        <trkpt lat="29.562658" lon="103.346471"><ele>1819.0563</ele><time>2026-07-24T19:16:50.000Z</time></trkpt>
        <trkpt lat="29.562642" lon="103.346459"><ele>1818.6047</ele><time>2026-07-24T19:16:52.000Z</time></trkpt>
        <trkpt lat="29.562624" lon="103.346445"><ele>1818.9431</ele><time>2026-07-24T19:16:54.000Z</time></trkpt>
        <trkpt lat="29.562607" lon="103.346431"><ele>1819.09</ele><time>2026-07-24T19:16:56.000Z</time></trkpt>
        <trkpt lat="29.56259" lon="103.346417"><ele>1818.9456</ele><time>2026-07-24T19:16:58.000Z</time></trkpt>
        <trkpt lat="29.562575" lon="103.346402"><ele>1818.3508</ele><time>2026-07-24T19:17:00.000Z</time></trkpt>
        <trkpt lat="29.562561" lon="103.34639"><ele>1818.9143</ele><time>2026-07-24T19:17:02.000Z</time></trkpt>
        <trkpt lat="29.562548" lon="103.346377"><ele>1818.798</ele><time>2026-07-24T19:17:04.000Z</time></trkpt>
        <trkpt lat="29.562533" lon="103.346362"><ele>1818.5779</ele><time>2026-07-24T19:17:06.000Z</time></trkpt>
        <trkpt lat="29.562519" lon="103.346345"><ele>1818.4358</ele><time>2026-07-24T19:17:08.000Z</time></trkpt>
        <trkpt lat="29.562505" lon="103.346329"><ele>1818.8386</ele><time>2026-07-24T19:17:10.000Z</time></trkpt>
        <trkpt lat="29.56249" lon="103.346311"><ele>1818.4996</ele><time>2026-07-24T19:17:12.000Z</time></trkpt>
        <trkpt lat="29.562473" lon="103.346293"><ele>1817.9741</ele><time>2026-07-24T19:17:14.000Z</time></trkpt>
        <trkpt lat="29.562456" lon="103.346274"><ele>1817.8196</ele><time>2026-07-24T19:17:16.000Z</time></trkpt>
        <trkpt lat="29.56244" lon="103.346256"><ele>1817.9227</ele><time>2026-07-24T19:17:18.000Z</time></trkpt>
        <trkpt lat="29.562424" lon="103.346237"><ele>1817.5067</ele><time>2026-07-24T19:17:20.000Z</time></trkpt>
        <trkpt lat="29.562408" lon="103.346217"><ele>1817.1797</ele><time>2026-07-24T19:17:22.000Z</time></trkpt>
        <trkpt lat="29.562392" lon="103.3462"><ele>1817.5315</ele><time>2026-07-24T19:17:24.000Z</time></trkpt>
        <trkpt lat="29.562376" lon="103.346182"><ele>1816.7031</ele><time>2026-07-24T19:17:26.000Z</time></trkpt>
        <trkpt lat="29.56236" lon="103.346166"><ele>1817.1439</ele><time>2026-07-24T19:17:28.000Z</time></trkpt>
        <trkpt lat="29.562346" lon="103.34615"><ele>1817.2227</ele><time>2026-07-24T19:17:30.000Z</time></trkpt>
        <trkpt lat="29.562335" lon="103.346136"><ele>1816.9904</ele><time>2026-07-24T19:17:32.000Z</time></trkpt>
        <trkpt lat="29.562322" lon="103.346116"><ele>1815.8854</ele><time>2026-07-24T19:17:34.000Z</time></trkpt>
        <trkpt lat="29.562309" lon="103.346096"><ele>1816.4224</ele><time>2026-07-24T19:17:36.000Z</time></trkpt>
        <trkpt lat="29.562298" lon="103.346074"><ele>1816.6338</ele><time>2026-07-24T19:17:38.000Z</time></trkpt>
        <trkpt lat="29.562287" lon="103.34605"><ele>1815.9635</ele><time>2026-07-24T19:17:40.000Z</time></trkpt>
        <trkpt lat="29.562278" lon="103.346029"><ele>1815.7599</ele><time>2026-07-24T19:17:42.000Z</time></trkpt>
        <trkpt lat="29.562269" lon="103.346007"><ele>1814.9902</ele><time>2026-07-24T19:17:44.000Z</time></trkpt>
        <trkpt lat="29.56226" lon="103.345985"><ele>1815.096</ele><time>2026-07-24T19:17:45.000Z</time></trkpt>
        <trkpt lat="29.56225" lon="103.345963"><ele>1814.5988</ele><time>2026-07-24T19:17:47.000Z</time></trkpt>
        <trkpt lat="29.56224" lon="103.345941"><ele>1814.149</ele><time>2026-07-24T19:17:49.000Z</time></trkpt>
        <trkpt lat="29.562231" lon="103.345919"><ele>1812.7523</ele><time>2026-07-24T19:17:51.000Z</time></trkpt>
        <trkpt lat="29.562223" lon="103.345897"><ele>1813.6228</ele><time>2026-07-24T19:17:53.000Z</time></trkpt>
        <trkpt lat="29.562213" lon="103.345875"><ele>1813.9575</ele><time>2026-07-24T19:17:55.000Z</time></trkpt>
        <trkpt lat="29.562204" lon="103.345851"><ele>1813.7654</ele><time>2026-07-24T19:17:57.000Z</time></trkpt>
        <trkpt lat="29.562195" lon="103.345829"><ele>1813.8862</ele><time>2026-07-24T19:17:59.000Z</time></trkpt>
        <trkpt lat="29.562184" lon="103.345808"><ele>1813.9929</ele><time>2026-07-24T19:18:01.000Z</time></trkpt>
        <trkpt lat="29.562173" lon="103.345786"><ele>1813.6096</ele><time>2026-07-24T19:18:03.000Z</time></trkpt>
        <trkpt lat="29.562162" lon="103.345766"><ele>1814.0262</ele><time>2026-07-24T19:18:05.000Z</time></trkpt>
        <trkpt lat="29.56215" lon="103.345745"><ele>1814.1746</ele><time>2026-07-24T19:18:07.000Z</time></trkpt>
        <trkpt lat="29.562136" lon="103.345725"><ele>1814.4574</ele><time>2026-07-24T19:18:09.000Z</time></trkpt>
        <trkpt lat="29.562122" lon="103.34571"><ele>1814.6638</ele><time>2026-07-24T19:18:11.000Z</time></trkpt>
        <trkpt lat="29.562109" lon="103.345699"><ele>1814.4401</ele><time>2026-07-24T19:18:13.000Z</time></trkpt>
        <trkpt lat="29.562098" lon="103.34569"><ele>1814.3383</ele><time>2026-07-24T19:18:15.000Z</time></trkpt>
        <trkpt lat="29.56209" lon="103.345683"><ele>1814.5757</ele><time>2026-07-24T19:18:17.000Z</time></trkpt>
        <trkpt lat="29.56208" lon="103.34567"><ele>1814.62</ele><time>2026-07-24T19:18:19.000Z</time></trkpt>
        <trkpt lat="29.562071" lon="103.345658"><ele>1815.5964</ele><time>2026-07-24T19:18:22.000Z</time></trkpt>
        <trkpt lat="29.562059" lon="103.345646"><ele>1815.5151</ele><time>2026-07-24T19:18:24.000Z</time></trkpt>
        <trkpt lat="29.562045" lon="103.345634"><ele>1814.725</ele><time>2026-07-24T19:18:26.000Z</time></trkpt>
        <trkpt lat="29.562027" lon="103.345624"><ele>1814.6283</ele><time>2026-07-24T19:18:28.000Z</time></trkpt>
        <trkpt lat="29.562006" lon="103.345614"><ele>1815.3302</ele><time>2026-07-24T19:18:30.000Z</time></trkpt>
        <trkpt lat="29.561984" lon="103.345606"><ele>1815.5635</ele><time>2026-07-24T19:18:32.000Z</time></trkpt>
        <trkpt lat="29.561968" lon="103.345601"><ele>1815.9536</ele><time>2026-07-24T19:18:34.000Z</time></trkpt>
        <trkpt lat="29.561957" lon="103.345597"><ele>1816.1332</ele><time>2026-07-24T19:18:36.000Z</time></trkpt>
        <trkpt lat="29.561949" lon="103.345595"><ele>1816.41</ele><time>2026-07-24T19:18:38.000Z</time></trkpt>
        <trkpt lat="29.561935" lon="103.345591"><ele>1815.7621</ele><time>2026-07-24T19:18:42.000Z</time></trkpt>
        <trkpt lat="29.561926" lon="103.345589"><ele>1816.4037</ele><time>2026-07-24T19:18:44.000Z</time></trkpt>
        <trkpt lat="29.561916" lon="103.345585"><ele>1817.6926</ele><time>2026-07-24T19:18:46.000Z</time></trkpt>
        <trkpt lat="29.561903" lon="103.345582"><ele>1817.7526</ele><time>2026-07-24T19:18:48.000Z</time></trkpt>
        <trkpt lat="29.561885" lon="103.345578"><ele>1817.6572</ele><time>2026-07-24T19:18:50.000Z</time></trkpt>
        <trkpt lat="29.561866" lon="103.345575"><ele>1818.5925</ele><time>2026-07-24T19:18:52.000Z</time></trkpt>
        <trkpt lat="29.561847" lon="103.345575"><ele>1818.8019</ele><time>2026-07-24T19:18:54.000Z</time></trkpt>
        <trkpt lat="29.561826" lon="103.345576"><ele>1818.3093</ele><time>2026-07-24T19:18:56.000Z</time></trkpt>
        <trkpt lat="29.561805" lon="103.345579"><ele>1818.8098</ele><time>2026-07-24T19:18:58.000Z</time></trkpt>
        <trkpt lat="29.561789" lon="103.345583"><ele>1818.8881</ele><time>2026-07-24T19:19:00.000Z</time></trkpt>
        <trkpt lat="29.561771" lon="103.345587"><ele>1818.6708</ele><time>2026-07-24T19:19:02.000Z</time></trkpt>
        <trkpt lat="29.561754" lon="103.345591"><ele>1818.0542</ele><time>2026-07-24T19:19:04.000Z</time></trkpt>
        <trkpt lat="29.561736" lon="103.345595"><ele>1818.0819</ele><time>2026-07-24T19:19:06.000Z</time></trkpt>
        <trkpt lat="29.561721" lon="103.345597"><ele>1818.7845</ele><time>2026-07-24T19:19:08.000Z</time></trkpt>
        <trkpt lat="29.561706" lon="103.345598"><ele>1818.3237</ele><time>2026-07-24T19:19:10.000Z</time></trkpt>
        <trkpt lat="29.561691" lon="103.345598"><ele>1818.1788</ele><time>2026-07-24T19:19:12.000Z</time></trkpt>
        <trkpt lat="29.561675" lon="103.345597"><ele>1818.2917</ele><time>2026-07-24T19:19:14.000Z</time></trkpt>
        <trkpt lat="29.561659" lon="103.345597"><ele>1817.2252</ele><time>2026-07-24T19:19:16.000Z</time></trkpt>
        <trkpt lat="29.561645" lon="103.345595"><ele>1817.0464</ele><time>2026-07-24T19:19:18.000Z</time></trkpt>
        <trkpt lat="29.561632" lon="103.345592"><ele>1817.5072</ele><time>2026-07-24T19:19:20.000Z</time></trkpt>
        <trkpt lat="29.561618" lon="103.345586"><ele>1818.1002</ele><time>2026-07-24T19:19:22.000Z</time></trkpt>
        <trkpt lat="29.561606" lon="103.345577"><ele>1819.7355</ele><time>2026-07-24T19:19:24.000Z</time></trkpt>
        <trkpt lat="29.561593" lon="103.345565"><ele>1819.6023</ele><time>2026-07-24T19:19:26.000Z</time></trkpt>
        <trkpt lat="29.561582" lon="103.345554"><ele>1819.2942</ele><time>2026-07-24T19:19:28.000Z</time></trkpt>
        <trkpt lat="29.561572" lon="103.345545"><ele>1818.8221</ele><time>2026-07-24T19:19:30.000Z</time></trkpt>
        <trkpt lat="29.561561" lon="103.345537"><ele>1819.3463</ele><time>2026-07-24T19:19:32.000Z</time></trkpt>
        <trkpt lat="29.561554" lon="103.345533"><ele>1818.3944</ele><time>2026-07-24T19:19:34.000Z</time></trkpt>
        <trkpt lat="29.561545" lon="103.345525"><ele>1817.8777</ele><time>2026-07-24T19:19:38.000Z</time></trkpt>
        <trkpt lat="29.56153" lon="103.345514"><ele>1817.0995</ele><time>2026-07-24T19:19:42.000Z</time></trkpt>
        <trkpt lat="29.561526" lon="103.345511"><ele>1816.7849</ele><time>2026-07-24T19:19:44.000Z</time></trkpt>
        <trkpt lat="29.56152" lon="103.345504"><ele>1816.7186</ele><time>2026-07-24T19:19:57.000Z</time></trkpt>
        <trkpt lat="29.561497" lon="103.345477"><ele>1815.9487</ele><time>2026-07-24T19:20:01.000Z</time></trkpt>
        <trkpt lat="29.561497" lon="103.345477"><ele>1815.3353</ele><time>2026-07-24T19:20:03.000Z</time></trkpt>
        <trkpt lat="29.561489" lon="103.345445"><ele>1815.3959</ele><time>2026-07-24T19:20:05.000Z</time></trkpt>
        <trkpt lat="29.561488" lon="103.345444"><ele>1816.0957</ele><time>2026-07-24T19:20:07.000Z</time></trkpt>
        <trkpt lat="29.561485" lon="103.345441"><ele>1815.6254</ele><time>2026-07-24T19:20:09.000Z</time></trkpt>
        <trkpt lat="29.561452" lon="103.345401"><ele>1815.1774</ele><time>2026-07-24T19:20:13.000Z</time></trkpt>
        <trkpt lat="29.56143" lon="103.345372"><ele>1815.2196</ele><time>2026-07-24T19:20:15.000Z</time></trkpt>
        <trkpt lat="29.561408" lon="103.345344"><ele>1815.0948</ele><time>2026-07-24T19:20:17.000Z</time></trkpt>
        <trkpt lat="29.561391" lon="103.345321"><ele>1815.1954</ele><time>2026-07-24T19:20:19.000Z</time></trkpt>
        <trkpt lat="29.561379" lon="103.345305"><ele>1815.1486</ele><time>2026-07-24T19:20:21.000Z</time></trkpt>
        <trkpt lat="29.561369" lon="103.345292"><ele>1815.6506</ele><time>2026-07-24T19:20:23.000Z</time></trkpt>
        <trkpt lat="29.56136" lon="103.345281"><ele>1815.6866</ele><time>2026-07-24T19:20:25.000Z</time></trkpt>
        <trkpt lat="29.561355" lon="103.345274"><ele>1816.5236</ele><time>2026-07-24T19:20:27.000Z</time></trkpt>
        <trkpt lat="29.561345" lon="103.345261"><ele>1817.0424</ele><time>2026-07-24T19:20:31.000Z</time></trkpt>
        <trkpt lat="29.561339" lon="103.345254"><ele>1817.124</ele><time>2026-07-24T19:20:33.000Z</time></trkpt>
        <trkpt lat="29.561335" lon="103.345248"><ele>1817.4795</ele><time>2026-07-24T19:20:35.000Z</time></trkpt>
        <trkpt lat="29.561324" lon="103.345233"><ele>1817.8196</ele><time>2026-07-24T19:20:39.000Z</time></trkpt>
        <trkpt lat="29.561318" lon="103.345227"><ele>1818.2656</ele><time>2026-07-24T19:20:41.000Z</time></trkpt>
        <trkpt lat="29.561311" lon="103.345223"><ele>1819.065</ele><time>2026-07-24T19:20:43.000Z</time></trkpt>
        <trkpt lat="29.561297" lon="103.345217"><ele>1819.4617</ele><time>2026-07-24T19:20:47.000Z</time></trkpt>
        <trkpt lat="29.56129" lon="103.345216"><ele>1819.5383</ele><time>2026-07-24T19:20:49.000Z</time></trkpt>
        <trkpt lat="29.561281" lon="103.345215"><ele>1819.5543</ele><time>2026-07-24T19:20:52.000Z</time></trkpt>
        <trkpt lat="29.561265" lon="103.345211"><ele>1820.3333</ele><time>2026-07-24T19:20:56.000Z</time></trkpt>
        <trkpt lat="29.56126" lon="103.345206"><ele>1820.5559</ele><time>2026-07-24T19:20:58.000Z</time></trkpt>
        <trkpt lat="29.561258" lon="103.345197"><ele>1820.7533</ele><time>2026-07-24T19:21:02.000Z</time></trkpt>
        <trkpt lat="29.561253" lon="103.345177"><ele>1822.1652</ele><time>2026-07-24T19:21:10.000Z</time></trkpt>
        <trkpt lat="29.56125" lon="103.345174"><ele>1822.5059</ele><time>2026-07-24T19:21:12.000Z</time></trkpt>
        <trkpt lat="29.561243" lon="103.345168"><ele>1824.0011</ele><time>2026-07-24T19:21:16.000Z</time></trkpt>
        <trkpt lat="29.561227" lon="103.345157"><ele>1825.2521</ele><time>2026-07-24T19:21:24.000Z</time></trkpt>
        <trkpt lat="29.561218" lon="103.345147"><ele>1827.3568</ele><time>2026-07-24T19:21:39.000Z</time></trkpt>
        <trkpt lat="29.561209" lon="103.345133"><ele>1829.7201</ele><time>2026-07-24T19:21:54.000Z</time></trkpt>
        <trkpt lat="29.561184" lon="103.345102"><ele>1830.7805</ele><time>2026-07-24T19:22:09.000Z</time></trkpt>
        <trkpt lat="29.561161" lon="103.345072"><ele>1832.371</ele><time>2026-07-24T19:22:24.000Z</time></trkpt>
        <trkpt lat="29.561135" lon="103.345057"><ele>1833.9698</ele><time>2026-07-24T19:22:39.000Z</time></trkpt>
        <trkpt lat="29.561122" lon="103.345058"><ele>1836.1964</ele><time>2026-07-24T19:22:55.000Z</time></trkpt>
        <trkpt lat="29.561098" lon="103.34506"><ele>1837.8274</ele><time>2026-07-24T19:23:05.000Z</time></trkpt>
        <trkpt lat="29.561097" lon="103.345059"><ele>1837.9045</ele><time>2026-07-24T19:23:07.000Z</time></trkpt>
        <trkpt lat="29.561093" lon="103.345046"><ele>1840.2136</ele><time>2026-07-24T19:23:21.000Z</time></trkpt>
        <trkpt lat="29.561085" lon="103.345024"><ele>1840.9156</ele><time>2026-07-24T19:23:27.000Z</time></trkpt>
        <trkpt lat="29.561083" lon="103.345019"><ele>1841.3447</ele><time>2026-07-24T19:23:29.000Z</time></trkpt>
        <trkpt lat="29.56108" lon="103.345013"><ele>1841.6461</ele><time>2026-07-24T19:23:31.000Z</time></trkpt>
        <trkpt lat="29.561065" lon="103.344994"><ele>1843.0695</ele><time>2026-07-24T19:23:50.000Z</time></trkpt>
        <trkpt lat="29.561059" lon="103.344994"><ele>1843.0762</ele><time>2026-07-24T19:24:20.000Z</time></trkpt>
        <trkpt lat="29.56105" lon="103.344997"><ele>1846.0369</ele><time>2026-07-24T19:24:29.000Z</time></trkpt>
        <trkpt lat="29.56103" lon="103.345003"><ele>1847.4689</ele><time>2026-07-24T19:24:38.000Z</time></trkpt>
        <trkpt lat="29.561023" lon="103.345006"><ele>1847.9642</ele><time>2026-07-24T19:24:40.000Z</time></trkpt>
        <trkpt lat="29.561017" lon="103.345011"><ele>1848.5746</ele><time>2026-07-24T19:24:42.000Z</time></trkpt>
        <trkpt lat="29.561002" lon="103.345022"><ele>1849.4226</ele><time>2026-07-24T19:24:46.000Z</time></trkpt>
        <trkpt lat="29.560996" lon="103.345027"><ele>1849.6476</ele><time>2026-07-24T19:24:48.000Z</time></trkpt>
        <trkpt lat="29.560989" lon="103.345033"><ele>1850.3389</ele><time>2026-07-24T19:24:50.000Z</time></trkpt>
        <trkpt lat="29.560973" lon="103.345043"><ele>1851.944</ele><time>2026-07-24T19:24:56.000Z</time></trkpt>
        <trkpt lat="29.560969" lon="103.345047"><ele>1852.1716</ele><time>2026-07-24T19:24:58.000Z</time></trkpt>
        <trkpt lat="29.560945" lon="103.345074"><ele>1853.5187</ele><time>2026-07-24T19:25:09.000Z</time></trkpt>
        <trkpt lat="29.56094" lon="103.345084"><ele>1854.978</ele><time>2026-07-24T19:25:11.000Z</time></trkpt>
        <trkpt lat="29.560939" lon="103.345084"><ele>1855.8638</ele><time>2026-07-24T19:25:13.000Z</time></trkpt>
        <trkpt lat="29.560914" lon="103.345081"><ele>1853.886</ele><time>2026-07-24T19:25:58.000Z</time></trkpt>
        <trkpt lat="29.560883" lon="103.345078"><ele>1856.5901</ele><time>2026-07-24T19:26:12.000Z</time></trkpt>
        <trkpt lat="29.560881" lon="103.345079"><ele>1856.9471</ele><time>2026-07-24T19:26:14.000Z</time></trkpt>
        <trkpt lat="29.560881" lon="103.345079"><ele>1857.0217</ele><time>2026-07-24T19:26:16.000Z</time></trkpt>
        <trkpt lat="29.560863" lon="103.345045"><ele>1860.1526</ele><time>2026-07-24T19:26:36.000Z</time></trkpt>
        <trkpt lat="29.56086" lon="103.345038"><ele>1860.3328</ele><time>2026-07-24T19:26:38.000Z</time></trkpt>
        <trkpt lat="29.560858" lon="103.34503"><ele>1860.7535</ele><time>2026-07-24T19:26:40.000Z</time></trkpt>
        <trkpt lat="29.56085" lon="103.344979"><ele>1863.0027</ele><time>2026-07-24T19:26:57.000Z</time></trkpt>
        <trkpt lat="29.560847" lon="103.344959"><ele>1864.0494</ele><time>2026-07-24T19:27:12.000Z</time></trkpt>
        <trkpt lat="29.560844" lon="103.344956"><ele>1864.2426</ele><time>2026-07-24T19:27:14.000Z</time></trkpt>
        <trkpt lat="29.560838" lon="103.344942"><ele>1865.3269</ele><time>2026-07-24T19:27:38.000Z</time></trkpt>
        <trkpt lat="29.560832" lon="103.344926"><ele>1865.7305</ele><time>2026-07-24T19:27:42.000Z</time></trkpt>
        <trkpt lat="29.56083" lon="103.344918"><ele>1866.4156</ele><time>2026-07-24T19:27:44.000Z</time></trkpt>
        <trkpt lat="29.560825" lon="103.344911"><ele>1866.5918</ele><time>2026-07-24T19:27:48.000Z</time></trkpt>
        <trkpt lat="29.560815" lon="103.344897"><ele>1866.2848</ele><time>2026-07-24T19:28:28.000Z</time></trkpt>
        <trkpt lat="29.560817" lon="103.344893"><ele>1866.3223</ele><time>2026-07-24T19:29:52.000Z</time></trkpt>
        <trkpt lat="29.560797" lon="103.344929"><ele>1867.6252</ele><time>2026-07-24T19:30:38.000Z</time></trkpt>
        <trkpt lat="29.560793" lon="103.344933"><ele>1868.6605</ele><time>2026-07-24T19:30:40.000Z</time></trkpt>
        <trkpt lat="29.560786" lon="103.344938"><ele>1868.7429</ele><time>2026-07-24T19:30:42.000Z</time></trkpt>
        <trkpt lat="29.560768" lon="103.344942"><ele>1871.0079</ele><time>2026-07-24T19:30:52.000Z</time></trkpt>
        <trkpt lat="29.560763" lon="103.34494"><ele>1871.3916</ele><time>2026-07-24T19:30:56.000Z</time></trkpt>
        <trkpt lat="29.560756" lon="103.344934"><ele>1871.9303</ele><time>2026-07-24T19:31:00.000Z</time></trkpt>
        <trkpt lat="29.56074" lon="103.344922"><ele>1872.9165</ele><time>2026-07-24T19:31:08.000Z</time></trkpt>
        <trkpt lat="29.560736" lon="103.34492"><ele>1873.332</ele><time>2026-07-24T19:31:10.000Z</time></trkpt>
        <trkpt lat="29.560725" lon="103.344914"><ele>1873.7877</ele><time>2026-07-24T19:31:14.000Z</time></trkpt>
        <trkpt lat="29.560717" lon="103.344903"><ele>1873.8712</ele><time>2026-07-24T19:31:20.000Z</time></trkpt>
        <trkpt lat="29.560718" lon="103.344898"><ele>1874.5691</ele><time>2026-07-24T19:31:24.000Z</time></trkpt>
        <trkpt lat="29.560723" lon="103.344847"><ele>1875.8256</ele><time>2026-07-24T19:31:36.000Z</time></trkpt>
        <trkpt lat="29.560724" lon="103.344831"><ele>1875.6693</ele><time>2026-07-24T19:31:38.000Z</time></trkpt>
        <trkpt lat="29.560724" lon="103.34483"><ele>1876.3787</ele><time>2026-07-24T19:31:40.000Z</time></trkpt>
        <trkpt lat="29.560718" lon="103.344808"><ele>1877.276</ele><time>2026-07-24T19:31:48.000Z</time></trkpt>
        <trkpt lat="29.560714" lon="103.344792"><ele>1877.2933</ele><time>2026-07-24T19:31:50.000Z</time></trkpt>
        <trkpt lat="29.560714" lon="103.344791"><ele>1877.7264</ele><time>2026-07-24T19:31:52.000Z</time></trkpt>
        <trkpt lat="29.560708" lon="103.344769"><ele>1878.9171</ele><time>2026-07-24T19:32:02.000Z</time></trkpt>
        <trkpt lat="29.560705" lon="103.344755"><ele>1879.6207</ele><time>2026-07-24T19:32:06.000Z</time></trkpt>
        <trkpt lat="29.560704" lon="103.344752"><ele>1880.0308</ele><time>2026-07-24T19:32:08.000Z</time></trkpt>
        <trkpt lat="29.5607" lon="103.34473"><ele>1882.2122</ele><time>2026-07-24T19:32:23.000Z</time></trkpt>
        <trkpt lat="29.560696" lon="103.344723"><ele>1883.2211</ele><time>2026-07-24T19:32:28.000Z</time></trkpt>
        <trkpt lat="29.560692" lon="103.344721"><ele>1883.4818</ele><time>2026-07-24T19:32:30.000Z</time></trkpt>
        <trkpt lat="29.56067" lon="103.344706"><ele>1883.5947</ele><time>2026-07-24T19:32:34.000Z</time></trkpt>
        <trkpt lat="29.56067" lon="103.344706"><ele>1883.5199</ele><time>2026-07-24T19:32:38.000Z</time></trkpt>
        <trkpt lat="29.56067" lon="103.344702"><ele>1882.9774</ele><time>2026-07-24T19:32:42.000Z</time></trkpt>
        <trkpt lat="29.560672" lon="103.34474"><ele>1886.827</ele><time>2026-07-24T19:34:19.000Z</time></trkpt>
        <trkpt lat="29.560651" lon="103.344745"><ele>1885.9996</ele><time>2026-07-24T19:35:46.000Z</time></trkpt>
      </trkseg>
      <trkseg>
        <trkpt lat="29.560634" lon="103.344744"><ele>1884.6335</ele><time>2026-07-24T19:38:39.000Z</time></trkpt>
        <trkpt lat="29.560648" lon="103.344711"><ele>1885.466</ele><time>2026-07-24T19:41:07.000Z</time></trkpt>
        <trkpt lat="29.560649" lon="103.34471"><ele>1885.3654</ele><time>2026-07-24T19:41:09.000Z</time></trkpt>
        <trkpt lat="29.560649" lon="103.34471"><ele>1884.9429</ele><time>2026-07-24T19:41:11.000Z</time></trkpt>
        <trkpt lat="29.560622" lon="103.344689"><ele>1886.52</ele><time>2026-07-24T19:41:56.000Z</time></trkpt>
        <trkpt lat="29.560618" lon="103.344687"><ele>1886.5352</ele><time>2026-07-24T19:41:58.000Z</time></trkpt>
        <trkpt lat="29.560611" lon="103.344684"><ele>1886.7871</ele><time>2026-07-24T19:42:00.000Z</time></trkpt>
        <trkpt lat="29.560584" lon="103.344677"><ele>1887.2281</ele><time>2026-07-24T19:42:08.000Z</time></trkpt>
        <trkpt lat="29.560578" lon="103.344675"><ele>1887.5568</ele><time>2026-07-24T19:42:10.000Z</time></trkpt>
        <trkpt lat="29.560572" lon="103.344673"><ele>1888.1411</ele><time>2026-07-24T19:42:12.000Z</time></trkpt>
        <trkpt lat="29.560555" lon="103.344673"><ele>1890.0781</ele><time>2026-07-24T19:42:20.000Z</time></trkpt>
        <trkpt lat="29.560543" lon="103.344675"><ele>1891.3175</ele><time>2026-07-24T19:42:24.000Z</time></trkpt>
        <trkpt lat="29.560537" lon="103.344674"><ele>1891.8196</ele><time>2026-07-24T19:42:26.000Z</time></trkpt>
        <trkpt lat="29.560525" lon="103.34467"><ele>1893.411</ele><time>2026-07-24T19:42:38.000Z</time></trkpt>
        <trkpt lat="29.560487" lon="103.344645"><ele>1896.9762</ele><time>2026-07-24T19:42:53.000Z</time></trkpt>
        <trkpt lat="29.560467" lon="103.344636"><ele>1898.3726</ele><time>2026-07-24T19:43:09.000Z</time></trkpt>
        <trkpt lat="29.560457" lon="103.344631"><ele>1900.6139</ele><time>2026-07-24T19:43:24.000Z</time></trkpt>
        <trkpt lat="29.560437" lon="103.344623"><ele>1899.8214</ele><time>2026-07-24T19:43:39.000Z</time></trkpt>
        <trkpt lat="29.560431" lon="103.344619"><ele>1898.0856</ele><time>2026-07-24T19:43:54.000Z</time></trkpt>
        <trkpt lat="29.560415" lon="103.344605"><ele>1899.4369</ele><time>2026-07-24T19:44:09.000Z</time></trkpt>
        <trkpt lat="29.560394" lon="103.34459"><ele>1901.5596</ele><time>2026-07-24T19:44:22.000Z</time></trkpt>
        <trkpt lat="29.560394" lon="103.344589"><ele>1901.0526</ele><time>2026-07-24T19:44:24.000Z</time></trkpt>
        <trkpt lat="29.560391" lon="103.344586"><ele>1900.8398</ele><time>2026-07-24T19:44:38.000Z</time></trkpt>
        <trkpt lat="29.560363" lon="103.344563"><ele>1903.1274</ele><time>2026-07-24T19:45:08.000Z</time></trkpt>
        <trkpt lat="29.560339" lon="103.344543"><ele>1904.9211</ele><time>2026-07-24T19:45:24.000Z</time></trkpt>
        <trkpt lat="29.560325" lon="103.344534"><ele>1906.0579</ele><time>2026-07-24T19:45:39.000Z</time></trkpt>
        <trkpt lat="29.560305" lon="103.344516"><ele>1907.9125</ele><time>2026-07-24T19:45:54.000Z</time></trkpt>
        <trkpt lat="29.560292" lon="103.344506"><ele>1908.4999</ele><time>2026-07-24T19:46:09.000Z</time></trkpt>
        <trkpt lat="29.560274" lon="103.344495"><ele>1909.7615</ele><time>2026-07-24T19:46:24.000Z</time></trkpt>
        <trkpt lat="29.560255" lon="103.344482"><ele>1911.8545</ele><time>2026-07-24T19:46:39.000Z</time></trkpt>
        <trkpt lat="29.560246" lon="103.344473"><ele>1913.386</ele><time>2026-07-24T19:46:54.000Z</time></trkpt>
        <trkpt lat="29.560225" lon="103.344452"><ele>1914.4412</ele><time>2026-07-24T19:47:10.000Z</time></trkpt>
        <trkpt lat="29.560208" lon="103.344425"><ele>1916.7354</ele><time>2026-07-24T19:47:26.000Z</time></trkpt>
        <trkpt lat="29.560187" lon="103.3444"><ele>1918.2875</ele><time>2026-07-24T19:47:42.000Z</time></trkpt>
        <trkpt lat="29.560167" lon="103.344371"><ele>1920.0636</ele><time>2026-07-24T19:47:57.000Z</time></trkpt>
        <trkpt lat="29.560145" lon="103.344342"><ele>1920.2134</ele><time>2026-07-24T19:48:07.000Z</time></trkpt>
        <trkpt lat="29.560145" lon="103.344342"><ele>1920.1565</ele><time>2026-07-24T19:48:09.000Z</time></trkpt>
        <trkpt lat="29.560146" lon="103.344342"><ele>1921.1145</ele><time>2026-07-24T19:48:11.000Z</time></trkpt>
        <trkpt lat="29.560156" lon="103.344307"><ele>1922.5095</ele><time>2026-07-24T19:48:25.000Z</time></trkpt>
        <trkpt lat="29.560158" lon="103.344304"><ele>1923.2983</ele><time>2026-07-24T19:48:27.000Z</time></trkpt>
        <trkpt lat="29.56016" lon="103.344302"><ele>1923.6487</ele><time>2026-07-24T19:48:29.000Z</time></trkpt>
        <trkpt lat="29.560179" lon="103.344284"><ele>1927.0735</ele><time>2026-07-24T19:48:53.000Z</time></trkpt>
        <trkpt lat="29.56018" lon="103.344281"><ele>1926.8668</ele><time>2026-07-24T19:48:55.000Z</time></trkpt>
        <trkpt lat="29.560178" lon="103.344279"><ele>1926.7772</ele><time>2026-07-24T19:48:59.000Z</time></trkpt>
        <trkpt lat="29.560153" lon="103.34424"><ele>1927.4606</ele><time>2026-07-24T19:49:29.000Z</time></trkpt>
        <trkpt lat="29.560148" lon="103.344239"><ele>1927.6227</ele><time>2026-07-24T19:49:31.000Z</time></trkpt>
        <trkpt lat="29.560132" lon="103.344238"><ele>1927.8888</ele><time>2026-07-24T19:49:33.000Z</time></trkpt>
        <trkpt lat="29.560124" lon="103.344242"><ele>1929.2633</ele><time>2026-07-24T19:49:41.000Z</time></trkpt>
        <trkpt lat="29.560117" lon="103.344243"><ele>1930.5842</ele><time>2026-07-24T19:49:45.000Z</time></trkpt>
        <trkpt lat="29.560097" lon="103.344241"><ele>1932.6522</ele><time>2026-07-24T19:50:35.000Z</time></trkpt>
        <trkpt lat="29.560094" lon="103.344239"><ele>1932.1704</ele><time>2026-07-24T19:50:50.000Z</time></trkpt>
        <trkpt lat="29.560087" lon="103.344237"><ele>1933.4863</ele><time>2026-07-24T19:51:36.000Z</time></trkpt>
        <trkpt lat="29.560063" lon="103.34423"><ele>1936.9243</ele><time>2026-07-24T19:52:27.000Z</time></trkpt>
        <trkpt lat="29.560063" lon="103.344231"><ele>1936.0195</ele><time>2026-07-24T19:52:29.000Z</time></trkpt>
        <trkpt lat="29.560061" lon="103.344219"><ele>1935.4359</ele><time>2026-07-24T19:52:35.000Z</time></trkpt>
        <trkpt lat="29.560067" lon="103.344194"><ele>1938.9238</ele><time>2026-07-24T19:53:28.000Z</time></trkpt>
        <trkpt lat="29.560077" lon="103.344157"><ele>1940.6552</ele><time>2026-07-24T19:53:44.000Z</time></trkpt>
        <trkpt lat="29.560084" lon="103.344137"><ele>1942.0769</ele><time>2026-07-24T19:53:55.000Z</time></trkpt>
        <trkpt lat="29.560086" lon="103.344132"><ele>1941.5026</ele><time>2026-07-24T19:53:57.000Z</time></trkpt>
        <trkpt lat="29.560088" lon="103.344119"><ele>1942.251</ele><time>2026-07-24T19:54:01.000Z</time></trkpt>
        <trkpt lat="29.560088" lon="103.3441"><ele>1942.9576</ele><time>2026-07-24T19:54:13.000Z</time></trkpt>
        <trkpt lat="29.560087" lon="103.344094"><ele>1942.8921</ele><time>2026-07-24T19:54:15.000Z</time></trkpt>
        <trkpt lat="29.560079" lon="103.344073"><ele>1947.8702</ele><time>2026-07-24T19:54:40.000Z</time></trkpt>
        <trkpt lat="29.560062" lon="103.344046"><ele>1948.8083</ele><time>2026-07-24T19:54:55.000Z</time></trkpt>
        <trkpt lat="29.560061" lon="103.344043"><ele>1952.7228</ele><time>2026-07-24T19:55:07.000Z</time></trkpt>
        <trkpt lat="29.560062" lon="103.344043"><ele>1953.0133</ele><time>2026-07-24T19:55:09.000Z</time></trkpt>
        <trkpt lat="29.560081" lon="103.344016"><ele>1957.4243</ele><time>2026-07-24T19:55:31.000Z</time></trkpt>
        <trkpt lat="29.560085" lon="103.344011"><ele>1957.1492</ele><time>2026-07-24T19:55:33.000Z</time></trkpt>
        <trkpt lat="29.560086" lon="103.344005"><ele>1956.5892</ele><time>2026-07-24T19:55:35.000Z</time></trkpt>
        <trkpt lat="29.560095" lon="103.343958"><ele>1954.6473</ele><time>2026-07-24T19:55:55.000Z</time></trkpt>
        <trkpt lat="29.560099" lon="103.34393"><ele>1954.8345</ele><time>2026-07-24T19:56:11.000Z</time></trkpt>
        <trkpt lat="29.560096" lon="103.343923"><ele>1956.2842</ele><time>2026-07-24T19:56:26.000Z</time></trkpt>
        <trkpt lat="29.560085" lon="103.343912"><ele>1957.9626</ele><time>2026-07-24T19:56:41.000Z</time></trkpt>
        <trkpt lat="29.56006" lon="103.343896"><ele>1958.5596</ele><time>2026-07-24T19:56:56.000Z</time></trkpt>
        <trkpt lat="29.560053" lon="103.343891"><ele>1958.6533</ele><time>2026-07-24T19:56:59.000Z</time></trkpt>
        <trkpt lat="29.560053" lon="103.343891"><ele>1959.0417</ele><time>2026-07-24T19:57:01.000Z</time></trkpt>
        <trkpt lat="29.560033" lon="103.343876"><ele>1960.2181</ele><time>2026-07-24T19:57:15.000Z</time></trkpt>
        <trkpt lat="29.560026" lon="103.343871"><ele>1961.1272</ele><time>2026-07-24T19:57:19.000Z</time></trkpt>
        <trkpt lat="29.560023" lon="103.343868"><ele>1961.6312</ele><time>2026-07-24T19:57:21.000Z</time></trkpt>
        <trkpt lat="29.559992" lon="103.343843"><ele>1963.736</ele><time>2026-07-24T19:57:45.000Z</time></trkpt>
        <trkpt lat="29.559985" lon="103.343837"><ele>1962.3794</ele><time>2026-07-24T19:58:01.000Z</time></trkpt>
        <trkpt lat="29.559979" lon="103.343831"><ele>1961.7001</ele><time>2026-07-24T19:58:17.000Z</time></trkpt>
        <trkpt lat="29.559961" lon="103.34381"><ele>1963.8834</ele><time>2026-07-24T19:58:32.000Z</time></trkpt>
        <trkpt lat="29.559954" lon="103.343798"><ele>1966.2599</ele><time>2026-07-24T19:58:47.000Z</time></trkpt>
        <trkpt lat="29.559942" lon="103.343781"><ele>1968.3221</ele><time>2026-07-24T19:59:02.000Z</time></trkpt>
        <trkpt lat="29.559932" lon="103.343771"><ele>1970.6304</ele><time>2026-07-24T19:59:17.000Z</time></trkpt>
        <trkpt lat="29.559915" lon="103.343753"><ele>1975.1625</ele><time>2026-07-24T19:59:29.000Z</time></trkpt>
        <trkpt lat="29.559915" lon="103.343753"><ele>1975.0417</ele><time>2026-07-24T19:59:31.000Z</time></trkpt>
        <trkpt lat="29.559902" lon="103.34375"><ele>1975.7192</ele><time>2026-07-24T19:59:37.000Z</time></trkpt>
        <trkpt lat="29.559883" lon="103.343745"><ele>1977.0841</ele><time>2026-07-24T19:59:45.000Z</time></trkpt>
        <trkpt lat="29.55988" lon="103.343743"><ele>1976.9866</ele><time>2026-07-24T19:59:47.000Z</time></trkpt>
        <trkpt lat="29.559874" lon="103.343738"><ele>1975.6981</ele><time>2026-07-24T19:59:53.000Z</time></trkpt>
        <trkpt lat="29.559836" lon="103.343704"><ele>1974.9897</ele><time>2026-07-24T20:00:17.000Z</time></trkpt>
        <trkpt lat="29.559833" lon="103.343704"><ele>1974.8253</ele><time>2026-07-24T20:00:32.000Z</time></trkpt>
        <trkpt lat="29.55983" lon="103.3437"><ele>1974.125</ele><time>2026-07-24T20:00:47.000Z</time></trkpt>
        <trkpt lat="29.559806" lon="103.343674"><ele>1974.0146</ele><time>2026-07-24T20:01:32.000Z</time></trkpt>
      </trkseg>
      <trkseg>
        <trkpt lat="29.558848" lon="103.344345"><ele>2058.526</ele><time>2026-07-24T20:30:13.000Z</time></trkpt>
        <trkpt lat="29.558819" lon="103.344326"><ele>2061.2517</ele><time>2026-07-24T20:30:37.000Z</time></trkpt>
        <trkpt lat="29.558799" lon="103.344291"><ele>2061.102</ele><time>2026-07-24T20:30:39.000Z</time></trkpt>
        <trkpt lat="29.558797" lon="103.344289"><ele>2060.97</ele><time>2026-07-24T20:30:41.000Z</time></trkpt>
        <trkpt lat="29.558767" lon="103.344243"><ele>2061.1475</ele><time>2026-07-24T20:30:44.000Z</time></trkpt>
        <trkpt lat="29.558767" lon="103.344243"><ele>2060.8694</ele><time>2026-07-24T20:30:46.000Z</time></trkpt>
        <trkpt lat="29.558766" lon="103.344242"><ele>2060.8752</ele><time>2026-07-24T20:30:48.000Z</time></trkpt>
        <trkpt lat="29.558739" lon="103.344229"><ele>2062.458</ele><time>2026-07-24T20:31:17.000Z</time></trkpt>
        <trkpt lat="29.558718" lon="103.344218"><ele>2063.4575</ele><time>2026-07-24T20:31:19.000Z</time></trkpt>
        <trkpt lat="29.558717" lon="103.344218"><ele>2064.2617</ele><time>2026-07-24T20:31:21.000Z</time></trkpt>
        <trkpt lat="29.558711" lon="103.344222"><ele>2065.2954</ele><time>2026-07-24T20:31:25.000Z</time></trkpt>
        <trkpt lat="29.558685" lon="103.344232"><ele>2062.0828</ele><time>2026-07-24T20:31:35.000Z</time></trkpt>
        <trkpt lat="29.558661" lon="103.344241"><ele>2062.2715</ele><time>2026-07-24T20:31:37.000Z</time></trkpt>
        <trkpt lat="29.558659" lon="103.344241"><ele>2064.5168</ele><time>2026-07-24T20:31:39.000Z</time></trkpt>
        <trkpt lat="29.558655" lon="103.344241"><ele>2065.1355</ele><time>2026-07-24T20:31:41.000Z</time></trkpt>
        <trkpt lat="29.558625" lon="103.344243"><ele>2065.6636</ele><time>2026-07-24T20:31:45.000Z</time></trkpt>
        <trkpt lat="29.55861" lon="103.344242"><ele>2065.7124</ele><time>2026-07-24T20:31:48.000Z</time></trkpt>
        <trkpt lat="29.558596" lon="103.344238"><ele>2065.3938</ele><time>2026-07-24T20:31:50.000Z</time></trkpt>
        <trkpt lat="29.558587" lon="103.344235"><ele>2065.013</ele><time>2026-07-24T20:31:52.000Z</time></trkpt>
        <trkpt lat="29.55858" lon="103.344234"><ele>2065.3284</ele><time>2026-07-24T20:31:54.000Z</time></trkpt>
        <trkpt lat="29.558656" lon="103.344242"><ele>2065.8406</ele><time>2026-07-24T20:32:38.000Z</time></trkpt>
        <trkpt lat="29.558656" lon="103.344242"><ele>2065.3584</ele><time>2026-07-24T20:32:40.000Z</time></trkpt>
        <trkpt lat="29.558653" lon="103.344239"><ele>2065.2625</ele><time>2026-07-24T20:32:42.000Z</time></trkpt>
        <trkpt lat="29.558624" lon="103.344213"><ele>2069.12</ele><time>2026-07-24T20:32:46.000Z</time></trkpt>
        <trkpt lat="29.558607" lon="103.344197"><ele>2071.416</ele><time>2026-07-24T20:32:48.000Z</time></trkpt>
        <trkpt lat="29.558592" lon="103.344178"><ele>2072.565</ele><time>2026-07-24T20:32:50.000Z</time></trkpt>
        <trkpt lat="29.558572" lon="103.344142"><ele>2072.0566</ele><time>2026-07-24T20:32:52.000Z</time></trkpt>
        <trkpt lat="29.558534" lon="103.344089"><ele>2071.4382</ele><time>2026-07-24T20:32:54.000Z</time></trkpt>
        <trkpt lat="29.558492" lon="103.344024"><ele>2072.8367</ele><time>2026-07-24T20:32:56.000Z</time></trkpt>
        <trkpt lat="29.55848" lon="103.344005"><ele>2073.978</ele><time>2026-07-24T20:32:58.000Z</time></trkpt>
        <trkpt lat="29.558481" lon="103.344007"><ele>2073.229</ele><time>2026-07-24T20:33:00.000Z</time></trkpt>
        <trkpt lat="29.558516" lon="103.344062"><ele>2066.568</ele><time>2026-07-24T20:33:17.000Z</time></trkpt>
        <trkpt lat="29.558563" lon="103.344133"><ele>2065.6143</ele><time>2026-07-24T20:33:19.000Z</time></trkpt>
        <trkpt lat="29.558567" lon="103.344138"><ele>2063.416</ele><time>2026-07-24T20:33:20.000Z</time></trkpt>
        <trkpt lat="29.558578" lon="103.344147"><ele>2062.6846</ele><time>2026-07-24T20:33:22.000Z</time></trkpt>
        <trkpt lat="29.558606" lon="103.344175"><ele>2062.5447</ele><time>2026-07-24T20:33:24.000Z</time></trkpt>
        <trkpt lat="29.55863" lon="103.344207"><ele>2062.713</ele><time>2026-07-24T20:33:26.000Z</time></trkpt>
        <trkpt lat="29.558633" lon="103.344228"><ele>2063.12</ele><time>2026-07-24T20:33:28.000Z</time></trkpt>
        <trkpt lat="29.558628" lon="103.344234"><ele>2062.5732</ele><time>2026-07-24T20:33:30.000Z</time></trkpt>
        <trkpt lat="29.558613" lon="103.344242"><ele>2062.3538</ele><time>2026-07-24T20:33:32.000Z</time></trkpt>
        <trkpt lat="29.558599" lon="103.344244"><ele>2062.1492</ele><time>2026-07-24T20:33:34.000Z</time></trkpt>
        <trkpt lat="29.558575" lon="103.344244"><ele>2061.1602</ele><time>2026-07-24T20:33:36.000Z</time></trkpt>
        <trkpt lat="29.558561" lon="103.344241"><ele>2060.3586</ele><time>2026-07-24T20:33:38.000Z</time></trkpt>
        <trkpt lat="29.558557" lon="103.344241"><ele>2060.3743</ele><time>2026-07-24T20:33:40.000Z</time></trkpt>
        <trkpt lat="29.558617" lon="103.34424"><ele>2063.7734</ele><time>2026-07-24T20:33:46.000Z</time></trkpt>
        <trkpt lat="29.558632" lon="103.344246"><ele>2064.6265</ele><time>2026-07-24T20:33:48.000Z</time></trkpt>
        <trkpt lat="29.558648" lon="103.344254"><ele>2065.5386</ele><time>2026-07-24T20:33:50.000Z</time></trkpt>
        <trkpt lat="29.558652" lon="103.344255"><ele>2064.0684</ele><time>2026-07-24T20:33:52.000Z</time></trkpt>
        <trkpt lat="29.558561" lon="103.344244"><ele>2062.0747</ele><time>2026-07-24T20:34:02.000Z</time></trkpt>
        <trkpt lat="29.558561" lon="103.344244"><ele>2063.782</ele><time>2026-07-24T20:34:04.000Z</time></trkpt>
        <trkpt lat="29.558561" lon="103.34424"><ele>2065.0635</ele><time>2026-07-24T20:34:06.000Z</time></trkpt>
        <trkpt lat="29.558562" lon="103.344207"><ele>2065.2454</ele><time>2026-07-24T20:34:16.000Z</time></trkpt>
        <trkpt lat="29.558587" lon="103.344214"><ele>2064.4521</ele><time>2026-07-24T20:34:18.000Z</time></trkpt>
        <trkpt lat="29.558587" lon="103.344213"><ele>2063.4814</ele><time>2026-07-24T20:34:20.000Z</time></trkpt>
        <trkpt lat="29.558569" lon="103.344239"><ele>2065.9214</ele><time>2026-07-24T20:34:57.000Z</time></trkpt>
        <trkpt lat="29.558567" lon="103.344239"><ele>2065.2378</ele><time>2026-07-24T20:35:42.000Z</time></trkpt>
        <trkpt lat="29.558566" lon="103.344241"><ele>2065.2737</ele><time>2026-07-24T20:35:44.000Z</time></trkpt>
        <trkpt lat="29.558574" lon="103.344202"><ele>2065.12</ele><time>2026-07-24T20:35:58.000Z</time></trkpt>
        <trkpt lat="29.558575" lon="103.3442"><ele>2065.246</ele><time>2026-07-24T20:36:00.000Z</time></trkpt>
        <trkpt lat="29.558576" lon="103.3442"><ele>2065.2717</ele><time>2026-07-24T20:36:02.000Z</time></trkpt>
        <trkpt lat="29.558544" lon="103.344189"><ele>2065.9268</ele><time>2026-07-24T20:36:40.000Z</time></trkpt>
        <trkpt lat="29.55854" lon="103.344188"><ele>2065.8118</ele><time>2026-07-24T20:36:42.000Z</time></trkpt>
        <trkpt lat="29.558536" lon="103.344186"><ele>2065.9834</ele><time>2026-07-24T20:36:44.000Z</time></trkpt>
        <trkpt lat="29.558518" lon="103.344173"><ele>2067.3513</ele><time>2026-07-24T20:36:54.000Z</time></trkpt>
        <trkpt lat="29.558514" lon="103.344166"><ele>2067.5337</ele><time>2026-07-24T20:36:56.000Z</time></trkpt>
        <trkpt lat="29.558503" lon="103.344161"><ele>2068.4492</ele><time>2026-07-24T20:36:58.000Z</time></trkpt>
        <trkpt lat="29.558487" lon="103.344153"><ele>2069.3933</ele><time>2026-07-24T20:37:08.000Z</time></trkpt>
        <trkpt lat="29.558484" lon="103.344151"><ele>2069.5208</ele><time>2026-07-24T20:37:10.000Z</time></trkpt>
        <trkpt lat="29.558469" lon="103.344143"><ele>2068.2795</ele><time>2026-07-24T20:37:14.000Z</time></trkpt>
        <trkpt lat="29.558456" lon="103.344135"><ele>2068.3293</ele><time>2026-07-24T20:37:16.000Z</time></trkpt>
        <trkpt lat="29.558454" lon="103.344135"><ele>2068.4329</ele><time>2026-07-24T20:37:18.000Z</time></trkpt>
        <trkpt lat="29.55844" lon="103.344133"><ele>2069.8516</ele><time>2026-07-24T20:37:26.000Z</time></trkpt>
        <trkpt lat="29.558426" lon="103.34413"><ele>2071.5876</ele><time>2026-07-24T20:37:38.000Z</time></trkpt>
        <trkpt lat="29.558424" lon="103.34413"><ele>2070.88</ele><time>2026-07-24T20:37:40.000Z</time></trkpt>
        <trkpt lat="29.558412" lon="103.344124"><ele>2071.9043</ele><time>2026-07-24T20:37:59.000Z</time></trkpt>
        <trkpt lat="29.558396" lon="103.344115"><ele>2072.615</ele><time>2026-07-24T20:38:07.000Z</time></trkpt>
        <trkpt lat="29.55839" lon="103.344114"><ele>2072.5115</ele><time>2026-07-24T20:38:09.000Z</time></trkpt>
        <trkpt lat="29.558381" lon="103.344113"><ele>2072.4475</ele><time>2026-07-24T20:38:13.000Z</time></trkpt>
        <trkpt lat="29.558359" lon="103.34411"><ele>2073.0542</ele><time>2026-07-24T20:39:05.000Z</time></trkpt>
        <trkpt lat="29.558348" lon="103.344109"><ele>2071.5872</ele><time>2026-07-24T20:39:07.000Z</time></trkpt>
        <trkpt lat="29.558326" lon="103.344109"><ele>2071.5322</ele><time>2026-07-24T20:39:09.000Z</time></trkpt>
        <trkpt lat="29.558324" lon="103.344109"><ele>2072.4678</ele><time>2026-07-24T20:39:11.000Z</time></trkpt>
        <trkpt lat="29.558313" lon="103.344108"><ele>2073.4155</ele><time>2026-07-24T20:39:15.000Z</time></trkpt>
        <trkpt lat="29.55829" lon="103.344105"><ele>2074.7732</ele><time>2026-07-24T20:39:19.000Z</time></trkpt>
        <trkpt lat="29.55829" lon="103.344105"><ele>2074.4438</ele><time>2026-07-24T20:39:21.000Z</time></trkpt>
        <trkpt lat="29.558267" lon="103.344091"><ele>2073.4893</ele><time>2026-07-24T20:39:25.000Z</time></trkpt>
        <trkpt lat="29.558253" lon="103.34408"><ele>2074.7349</ele><time>2026-07-24T20:39:31.000Z</time></trkpt>
        <trkpt lat="29.558244" lon="103.344073"><ele>2072.6125</ele><time>2026-07-24T20:39:33.000Z</time></trkpt>
        <trkpt lat="29.558212" lon="103.344046"><ele>2071.611</ele><time>2026-07-24T20:39:37.000Z</time></trkpt>
        <trkpt lat="29.558127" lon="103.344035"><ele>2071.8884</ele><time>2026-07-24T20:39:39.000Z</time></trkpt>
        <trkpt lat="29.558121" lon="103.344032"><ele>2071.0662</ele><time>2026-07-24T20:39:41.000Z</time></trkpt>
        <trkpt lat="29.558122" lon="103.344031"><ele>2070.7979</ele><time>2026-07-24T20:39:43.000Z</time></trkpt>
        <trkpt lat="29.558104" lon="103.344087"><ele>2070.0474</ele><time>2026-07-24T20:39:47.000Z</time></trkpt>
        <trkpt lat="29.558087" lon="103.344113"><ele>2069.1838</ele><time>2026-07-24T20:39:49.000Z</time></trkpt>
        <trkpt lat="29.558072" lon="103.344131"><ele>2068.2366</ele><time>2026-07-24T20:39:51.000Z</time></trkpt>
        <trkpt lat="29.558045" lon="103.344154"><ele>2068.7627</ele><time>2026-07-24T20:39:53.000Z</time></trkpt>
        <trkpt lat="29.558019" lon="103.344176"><ele>2068.3723</ele><time>2026-07-24T20:39:55.000Z</time></trkpt>
        <trkpt lat="29.557968" lon="103.344054"><ele>2068.6506</ele><time>2026-07-24T20:40:01.000Z</time></trkpt>
        <trkpt lat="29.557945" lon="103.343999"><ele>2068.9075</ele><time>2026-07-24T20:40:07.000Z</time></trkpt>
        <trkpt lat="29.557961" lon="103.344003"><ele>2069.161</ele><time>2026-07-24T20:40:13.000Z</time></trkpt>
        <trkpt lat="29.557754" lon="103.343943"><ele>2069.525</ele><time>2026-07-24T20:40:25.000Z</time></trkpt>
        <trkpt lat="29.557689" lon="103.343924"><ele>2076.2815</ele><time>2026-07-24T20:40:31.000Z</time></trkpt>
        <trkpt lat="29.557677" lon="103.343946"><ele>2067.1528</ele><time>2026-07-24T20:40:33.000Z</time></trkpt>
        <trkpt lat="29.557644" lon="103.343939"><ele>2070.0117</ele><time>2026-07-24T20:40:41.000Z</time></trkpt>
        <trkpt lat="29.557582" lon="103.343925"><ele>2076.892</ele><time>2026-07-24T20:40:49.000Z</time></trkpt>
        <trkpt lat="29.557565" lon="103.343919"><ele>2077.9775</ele><time>2026-07-24T20:40:51.000Z</time></trkpt>
        <trkpt lat="29.557553" lon="103.343914"><ele>2077.4124</ele><time>2026-07-24T20:40:53.000Z</time></trkpt>
        <trkpt lat="29.557543" lon="103.343907"><ele>2076.849</ele><time>2026-07-24T20:40:55.000Z</time></trkpt>
        <trkpt lat="29.557534" lon="103.3439"><ele>2076.7888</ele><time>2026-07-24T20:40:57.000Z</time></trkpt>
        <trkpt lat="29.557526" lon="103.343894"><ele>2075.7922</ele><time>2026-07-24T20:40:59.000Z</time></trkpt>
        <trkpt lat="29.557519" lon="103.343884"><ele>2075.8262</ele><time>2026-07-24T20:41:03.000Z</time></trkpt>
        <trkpt lat="29.557509" lon="103.343868"><ele>2074.8875</ele><time>2026-07-24T20:41:05.000Z</time></trkpt>
        <trkpt lat="29.557498" lon="103.343845"><ele>2074.65</ele><time>2026-07-24T20:41:07.000Z</time></trkpt>
        <trkpt lat="29.557488" lon="103.343819"><ele>2074.9866</ele><time>2026-07-24T20:41:09.000Z</time></trkpt>
        <trkpt lat="29.557479" lon="103.343792"><ele>2075.2454</ele><time>2026-07-24T20:41:11.000Z</time></trkpt>
        <trkpt lat="29.557472" lon="103.343767"><ele>2074.3499</ele><time>2026-07-24T20:41:13.000Z</time></trkpt>
        <trkpt lat="29.557467" lon="103.343743"><ele>2075.2166</ele><time>2026-07-24T20:41:15.000Z</time></trkpt>
        <trkpt lat="29.557458" lon="103.34372"><ele>2074.1262</ele><time>2026-07-24T20:41:17.000Z</time></trkpt>
        <trkpt lat="29.55745" lon="103.343702"><ele>2075.3335</ele><time>2026-07-24T20:41:19.000Z</time></trkpt>
        <trkpt lat="29.557443" lon="103.34369"><ele>2075.1743</ele><time>2026-07-24T20:41:21.000Z</time></trkpt>
        <trkpt lat="29.557437" lon="103.343688"><ele>2074.9045</ele><time>2026-07-24T20:41:23.000Z</time></trkpt>
        <trkpt lat="29.557416" lon="103.343687"><ele>2070.7632</ele><time>2026-07-24T20:41:27.000Z</time></trkpt>
        <trkpt lat="29.557398" lon="103.343691"><ele>2073.1057</ele><time>2026-07-24T20:41:29.000Z</time></trkpt>
        <trkpt lat="29.557384" lon="103.343694"><ele>2073.4316</ele><time>2026-07-24T20:41:31.000Z</time></trkpt>
        <trkpt lat="29.55737" lon="103.343698"><ele>2073.5754</ele><time>2026-07-24T20:41:33.000Z</time></trkpt>
        <trkpt lat="29.55736" lon="103.3437"><ele>2073.942</ele><time>2026-07-24T20:41:35.000Z</time></trkpt>
        <trkpt lat="29.557352" lon="103.343699"><ele>2074.4414</ele><time>2026-07-24T20:41:37.000Z</time></trkpt>
        <trkpt lat="29.557334" lon="103.343693"><ele>2074.5825</ele><time>2026-07-24T20:41:41.000Z</time></trkpt>
        <trkpt lat="29.557326" lon="103.343687"><ele>2074.8289</ele><time>2026-07-24T20:41:43.000Z</time></trkpt>
        <trkpt lat="29.557321" lon="103.34368"><ele>2074.6033</ele><time>2026-07-24T20:41:45.000Z</time></trkpt>
        <trkpt lat="29.557307" lon="103.343672"><ele>2075.947</ele><time>2026-07-24T20:41:53.000Z</time></trkpt>
        <trkpt lat="29.557297" lon="103.343667"><ele>2077.0212</ele><time>2026-07-24T20:42:01.000Z</time></trkpt>
        <trkpt lat="29.557291" lon="103.343664"><ele>2077.0781</ele><time>2026-07-24T20:42:03.000Z</time></trkpt>
        <trkpt lat="29.557277" lon="103.343659"><ele>2077.3118</ele><time>2026-07-24T20:42:09.000Z</time></trkpt>
        <trkpt lat="29.557263" lon="103.343655"><ele>2077.044</ele><time>2026-07-24T20:42:15.000Z</time></trkpt>
        <trkpt lat="29.557261" lon="103.343655"><ele>2078.3745</ele><time>2026-07-24T20:42:17.000Z</time></trkpt>
        <trkpt lat="29.557247" lon="103.343651"><ele>2081.8289</ele><time>2026-07-24T20:42:31.000Z</time></trkpt>
        <trkpt lat="29.557234" lon="103.343647"><ele>2081.823</ele><time>2026-07-24T20:42:37.000Z</time></trkpt>
        <trkpt lat="29.557232" lon="103.343647"><ele>2082.2388</ele><time>2026-07-24T20:42:39.000Z</time></trkpt>
        <trkpt lat="29.557214" lon="103.343645"><ele>2084.1401</ele><time>2026-07-24T20:42:49.000Z</time></trkpt>
        <trkpt lat="29.557199" lon="103.343643"><ele>2083.9531</ele><time>2026-07-24T20:42:57.000Z</time></trkpt>
        <trkpt lat="29.557195" lon="103.343641"><ele>2084.3892</ele><time>2026-07-24T20:42:59.000Z</time></trkpt>
        <trkpt lat="29.557185" lon="103.343634"><ele>2085.402</ele><time>2026-07-24T20:43:05.000Z</time></trkpt>
        <trkpt lat="29.55717" lon="103.343627"><ele>2087.8286</ele><time>2026-07-24T20:43:21.000Z</time></trkpt>
        <trkpt lat="29.55715" lon="103.343619"><ele>2087.203</ele><time>2026-07-24T20:43:23.000Z</time></trkpt>
        <trkpt lat="29.557136" lon="103.343613"><ele>2087.0408</ele><time>2026-07-24T20:43:25.000Z</time></trkpt>
        <trkpt lat="29.557135" lon="103.343613"><ele>2087.3596</ele><time>2026-07-24T20:43:27.000Z</time></trkpt>
        <trkpt lat="29.557119" lon="103.343623"><ele>2088.9</ele><time>2026-07-24T20:43:35.000Z</time></trkpt>
        <trkpt lat="29.557104" lon="103.343631"><ele>2089.2324</ele><time>2026-07-24T20:43:39.000Z</time></trkpt>
        <trkpt lat="29.5571" lon="103.343633"><ele>2089.5361</ele><time>2026-07-24T20:43:41.000Z</time></trkpt>
        <trkpt lat="29.557092" lon="103.34364"><ele>2090.3184</ele><time>2026-07-24T20:43:45.000Z</time></trkpt>
        <trkpt lat="29.557079" lon="103.343652"><ele>2089.1514</ele><time>2026-07-24T20:43:53.000Z</time></trkpt>
        <trkpt lat="29.557074" lon="103.343655"><ele>2091.027</ele><time>2026-07-24T20:43:57.000Z</time></trkpt>
        <trkpt lat="29.557066" lon="103.343657"><ele>2092.103</ele><time>2026-07-24T20:44:01.000Z</time></trkpt>
        <trkpt lat="29.557022" lon="103.343671"><ele>2092.5432</ele><time>2026-07-24T20:44:16.000Z</time></trkpt>
        <trkpt lat="29.557019" lon="103.343671"><ele>2093.5918</ele><time>2026-07-24T20:44:18.000Z</time></trkpt>
        <trkpt lat="29.557017" lon="103.343672"><ele>2093.9272</ele><time>2026-07-24T20:44:20.000Z</time></trkpt>
        <trkpt lat="29.556996" lon="103.34369"><ele>2096.4868</ele><time>2026-07-24T20:44:34.000Z</time></trkpt>
        <trkpt lat="29.556992" lon="103.343694"><ele>2096.8252</ele><time>2026-07-24T20:44:36.000Z</time></trkpt>
        <trkpt lat="29.556987" lon="103.343695"><ele>2097.6255</ele><time>2026-07-24T20:44:38.000Z</time></trkpt>
        <trkpt lat="29.556964" lon="103.343702"><ele>2096.8904</ele><time>2026-07-24T20:44:42.000Z</time></trkpt>
        <trkpt lat="29.556949" lon="103.343707"><ele>2096.7046</ele><time>2026-07-24T20:44:44.000Z</time></trkpt>
        <trkpt lat="29.556933" lon="103.343713"><ele>2097.5015</ele><time>2026-07-24T20:44:46.000Z</time></trkpt>
        <trkpt lat="29.556914" lon="103.343721"><ele>2096.66</ele><time>2026-07-24T20:44:48.000Z</time></trkpt>
        <trkpt lat="29.556898" lon="103.343728"><ele>2098.1858</ele><time>2026-07-24T20:44:50.000Z</time></trkpt>
        <trkpt lat="29.556886" lon="103.343734"><ele>2099.5461</ele><time>2026-07-24T20:44:52.000Z</time></trkpt>
        <trkpt lat="29.556881" lon="103.34374"><ele>2099.693</ele><time>2026-07-24T20:44:54.000Z</time></trkpt>
        <trkpt lat="29.55686" lon="103.343748"><ele>2101.225</ele><time>2026-07-24T20:52:20.000Z</time></trkpt>
        <trkpt lat="29.556832" lon="103.343751"><ele>2103.3801</ele><time>2026-07-24T20:52:35.000Z</time></trkpt>
        <trkpt lat="29.556814" lon="103.343752"><ele>2103.869</ele><time>2026-07-24T20:52:38.000Z</time></trkpt>
        <trkpt lat="29.556814" lon="103.343752"><ele>2104.0042</ele><time>2026-07-24T20:52:40.000Z</time></trkpt>
        <trkpt lat="29.556802" lon="103.343742"><ele>2106.148</ele><time>2026-07-24T20:52:46.000Z</time></trkpt>
        <trkpt lat="29.556787" lon="103.34373"><ele>2107.7986</ele><time>2026-07-24T20:52:52.000Z</time></trkpt>
        <trkpt lat="29.556782" lon="103.343728"><ele>2108.3115</ele><time>2026-07-24T20:52:54.000Z</time></trkpt>
        <trkpt lat="29.556769" lon="103.343725"><ele>2108.2336</ele><time>2026-07-24T20:52:58.000Z</time></trkpt>
        <trkpt lat="29.556756" lon="103.343722"><ele>2108.172</ele><time>2026-07-24T20:53:02.000Z</time></trkpt>
        <trkpt lat="29.556749" lon="103.343722"><ele>2108.4229</ele><time>2026-07-24T20:53:04.000Z</time></trkpt>
        <trkpt lat="29.556737" lon="103.343727"><ele>2108.9553</ele><time>2026-07-24T20:53:08.000Z</time></trkpt>
        <trkpt lat="29.556703" lon="103.343744"><ele>2108.669</ele><time>2026-07-24T20:53:21.000Z</time></trkpt>
        <trkpt lat="29.556697" lon="103.343749"><ele>2108.8962</ele><time>2026-07-24T20:53:23.000Z</time></trkpt>
        <trkpt lat="29.556691" lon="103.343753"><ele>2108.958</ele><time>2026-07-24T20:53:25.000Z</time></trkpt>
        <trkpt lat="29.556674" lon="103.343764"><ele>2109.907</ele><time>2026-07-24T20:53:35.000Z</time></trkpt>
        <trkpt lat="29.556669" lon="103.343767"><ele>2109.9077</ele><time>2026-07-24T20:53:37.000Z</time></trkpt>
        <trkpt lat="29.556664" lon="103.343769"><ele>2109.8965</ele><time>2026-07-24T20:53:39.000Z</time></trkpt>
        <trkpt lat="29.55664" lon="103.343781"><ele>2110.7566</ele><time>2026-07-24T20:53:47.000Z</time></trkpt>
        <trkpt lat="29.556636" lon="103.343783"><ele>2110.8406</ele><time>2026-07-24T20:53:49.000Z</time></trkpt>
        <trkpt lat="29.556632" lon="103.343785"><ele>2111.408</ele><time>2026-07-24T20:53:51.000Z</time></trkpt>
        <trkpt lat="29.556614" lon="103.343801"><ele>2113.7236</ele><time>2026-07-24T20:54:06.000Z</time></trkpt>
        <trkpt lat="29.556594" lon="103.343819"><ele>2116.6082</ele><time>2026-07-24T20:54:21.000Z</time></trkpt>
        <trkpt lat="29.556569" lon="103.343847"><ele>2118.3274</ele><time>2026-07-24T20:54:37.000Z</time></trkpt>
        <trkpt lat="29.556564" lon="103.343873"><ele>2119.254</ele><time>2026-07-24T20:54:52.000Z</time></trkpt>
        <trkpt lat="29.556564" lon="103.343897"><ele>2119.7627</ele><time>2026-07-24T20:55:07.000Z</time></trkpt>
        <trkpt lat="29.556563" lon="103.343915"><ele>2121.4058</ele><time>2026-07-24T20:55:22.000Z</time></trkpt>
        <trkpt lat="29.556557" lon="103.34394"><ele>2122.7566</ele><time>2026-07-24T20:55:37.000Z</time></trkpt>
        <trkpt lat="29.55655" lon="103.343965"><ele>2123.7554</ele><time>2026-07-24T20:55:52.000Z</time></trkpt>
        <trkpt lat="29.556545" lon="103.343982"><ele>2126.1309</ele><time>2026-07-24T20:56:07.000Z</time></trkpt>
        <trkpt lat="29.556541" lon="103.344004"><ele>2128.0037</ele><time>2026-07-24T20:56:22.000Z</time></trkpt>
        <trkpt lat="29.556534" lon="103.344041"><ele>2129.5503</ele><time>2026-07-24T20:56:38.000Z</time></trkpt>
        <trkpt lat="29.556525" lon="103.344068"><ele>2131.3662</ele><time>2026-07-24T20:56:54.000Z</time></trkpt>
        <trkpt lat="29.556513" lon="103.344097"><ele>2132.047</ele><time>2026-07-24T20:57:02.000Z</time></trkpt>
        <trkpt lat="29.556506" lon="103.344112"><ele>2132.863</ele><time>2026-07-24T20:57:04.000Z</time></trkpt>
        <trkpt lat="29.556505" lon="103.344112"><ele>2133.2112</ele><time>2026-07-24T20:57:06.000Z</time></trkpt>
        <trkpt lat="29.556491" lon="103.344127"><ele>2133.613</ele><time>2026-07-24T20:57:14.000Z</time></trkpt>
        <trkpt lat="29.55648" lon="103.344138"><ele>2134.391</ele><time>2026-07-24T20:57:18.000Z</time></trkpt>
        <trkpt lat="29.556477" lon="103.344142"><ele>2134.5437</ele><time>2026-07-24T20:57:20.000Z</time></trkpt>
        <trkpt lat="29.556466" lon="103.344154"><ele>2134.8955</ele><time>2026-07-24T20:57:24.000Z</time></trkpt>
        <trkpt lat="29.556457" lon="103.344164"><ele>2135.9126</ele><time>2026-07-24T20:57:28.000Z</time></trkpt>
        <trkpt lat="29.556454" lon="103.34417"><ele>2136.171</ele><time>2026-07-24T20:57:30.000Z</time></trkpt>
        <trkpt lat="29.556446" lon="103.34418"><ele>2136.5981</ele><time>2026-07-24T20:57:34.000Z</time></trkpt>
        <trkpt lat="29.556435" lon="103.344193"><ele>2137.3132</ele><time>2026-07-24T20:57:40.000Z</time></trkpt>
        <trkpt lat="29.556432" lon="103.344196"><ele>2137.4036</ele><time>2026-07-24T20:57:42.000Z</time></trkpt>
        <trkpt lat="29.556421" lon="103.344204"><ele>2137.7031</ele><time>2026-07-24T20:57:46.000Z</time></trkpt>
        <trkpt lat="29.556407" lon="103.344211"><ele>2137.6196</ele><time>2026-07-24T20:57:50.000Z</time></trkpt>
        <trkpt lat="29.556392" lon="103.344219"><ele>2137.6538</ele><time>2026-07-24T20:57:52.000Z</time></trkpt>
        <trkpt lat="29.556392" lon="103.344219"><ele>2137.8767</ele><time>2026-07-24T20:57:54.000Z</time></trkpt>
        <trkpt lat="29.556373" lon="103.344228"><ele>2138.855</ele><time>2026-07-24T20:58:02.000Z</time></trkpt>
        <trkpt lat="29.556362" lon="103.344231"><ele>2140.456</ele><time>2026-07-24T20:58:06.000Z</time></trkpt>
        <trkpt lat="29.556358" lon="103.344232"><ele>2140.1155</ele><time>2026-07-24T20:58:08.000Z</time></trkpt>
        <trkpt lat="29.556341" lon="103.344236"><ele>2141.3928</ele><time>2026-07-24T20:58:14.000Z</time></trkpt>
        <trkpt lat="29.556328" lon="103.344239"><ele>2142.1113</ele><time>2026-07-24T20:58:18.000Z</time></trkpt>
        <trkpt lat="29.556321" lon="103.34424"><ele>2142.7236</ele><time>2026-07-24T20:58:20.000Z</time></trkpt>
        <trkpt lat="29.556304" lon="103.344245"><ele>2142.4722</ele><time>2026-07-24T20:58:24.000Z</time></trkpt>
        <trkpt lat="29.556292" lon="103.344248"><ele>2142.4136</ele><time>2026-07-24T20:58:26.000Z</time></trkpt>
        <trkpt lat="29.556292" lon="103.344248"><ele>2142.1223</ele><time>2026-07-24T20:58:28.000Z</time></trkpt>
        <trkpt lat="29.556278" lon="103.344264"><ele>2142.9119</ele><time>2026-07-24T20:58:36.000Z</time></trkpt>
        <trkpt lat="29.556267" lon="103.344276"><ele>2143.1033</ele><time>2026-07-24T20:58:40.000Z</time></trkpt>
        <trkpt lat="29.556266" lon="103.34428"><ele>2143.299</ele><time>2026-07-24T20:58:42.000Z</time></trkpt>
        <trkpt lat="29.55626" lon="103.344297"><ele>2144.9062</ele><time>2026-07-24T20:58:50.000Z</time></trkpt>
        <trkpt lat="29.556255" lon="103.344307"><ele>2145.417</ele><time>2026-07-24T20:58:54.000Z</time></trkpt>
        <trkpt lat="29.556252" lon="103.344312"><ele>2145.4639</ele><time>2026-07-24T20:58:56.000Z</time></trkpt>
        <trkpt lat="29.556243" lon="103.344331"><ele>2145.7747</ele><time>2026-07-24T20:59:02.000Z</time></trkpt>
        <trkpt lat="29.556239" lon="103.34434"><ele>2146.252</ele><time>2026-07-24T20:59:06.000Z</time></trkpt>
        <trkpt lat="29.556238" lon="103.344344"><ele>2146.2644</ele><time>2026-07-24T20:59:08.000Z</time></trkpt>
        <trkpt lat="29.556228" lon="103.344364"><ele>2147.717</ele><time>2026-07-24T20:59:16.000Z</time></trkpt>
        <trkpt lat="29.556224" lon="103.344371"><ele>2148.4233</ele><time>2026-07-24T20:59:20.000Z</time></trkpt>
        <trkpt lat="29.556221" lon="103.344375"><ele>2148.7124</ele><time>2026-07-24T20:59:22.000Z</time></trkpt>
        <trkpt lat="29.556197" lon="103.344413"><ele>2149.8596</ele><time>2026-07-24T20:59:28.000Z</time></trkpt>
        <trkpt lat="29.556197" lon="103.344413"><ele>2150.1567</ele><time>2026-07-24T20:59:30.000Z</time></trkpt>
        <trkpt lat="29.556196" lon="103.344414"><ele>2149.9575</ele><time>2026-07-24T20:59:32.000Z</time></trkpt>
        <trkpt lat="29.556164" lon="103.344441"><ele>2150.9385</ele><time>2026-07-24T20:59:38.000Z</time></trkpt>
        <trkpt lat="29.556155" lon="103.344449"><ele>2151.8225</ele><time>2026-07-24T20:59:40.000Z</time></trkpt>
        <trkpt lat="29.556151" lon="103.344458"><ele>2152.8013</ele><time>2026-07-24T20:59:42.000Z</time></trkpt>
        <trkpt lat="29.556147" lon="103.344476"><ele>2152.741</ele><time>2026-07-24T20:59:46.000Z</time></trkpt>
        <trkpt lat="29.556148" lon="103.344483"><ele>2152.8503</ele><time>2026-07-24T20:59:48.000Z</time></trkpt>
        <trkpt lat="29.556148" lon="103.344496"><ele>2153.6963</ele><time>2026-07-24T20:59:52.000Z</time></trkpt>
      </trkseg>
      <trkseg>
        <trkpt lat="29.556126" lon="103.344513"><ele>2149.7268</ele><time>2026-07-24T21:06:10.000Z</time></trkpt>
        <trkpt lat="29.556097" lon="103.344529"><ele>2154.752</ele><time>2026-07-24T21:10:03.000Z</time></trkpt>
        <trkpt lat="29.556095" lon="103.344536"><ele>2155.061</ele><time>2026-07-24T21:10:05.000Z</time></trkpt>
        <trkpt lat="29.556091" lon="103.344538"><ele>2155.326</ele><time>2026-07-24T21:10:07.000Z</time></trkpt>
        <trkpt lat="29.556063" lon="103.344569"><ele>2156.193</ele><time>2026-07-24T21:10:26.000Z</time></trkpt>
        <trkpt lat="29.556023" lon="103.344629"><ele>2157.716</ele><time>2026-07-24T21:10:41.000Z</time></trkpt>
        <trkpt lat="29.556" lon="103.344668"><ele>2158.8162</ele><time>2026-07-24T21:10:56.000Z</time></trkpt>
        <trkpt lat="29.555969" lon="103.344718"><ele>2160.424</ele><time>2026-07-24T21:11:12.000Z</time></trkpt>
        <trkpt lat="29.555957" lon="103.344747"><ele>2162.1792</ele><time>2026-07-24T21:11:27.000Z</time></trkpt>
        <trkpt lat="29.555948" lon="103.344764"><ele>2164.9512</ele><time>2026-07-24T21:11:42.000Z</time></trkpt>
        <trkpt lat="29.555932" lon="103.344799"><ele>2167.1145</ele><time>2026-07-24T21:11:57.000Z</time></trkpt>
        <trkpt lat="29.55592" lon="103.344829"><ele>2167.3132</ele><time>2026-07-24T21:12:12.000Z</time></trkpt>
        <trkpt lat="29.555898" lon="103.344888"><ele>2167.8481</ele><time>2026-07-24T21:12:27.000Z</time></trkpt>
        <trkpt lat="29.55589" lon="103.344909"><ele>2168.342</ele><time>2026-07-24T21:12:29.000Z</time></trkpt>
        <trkpt lat="29.555881" lon="103.344928"><ele>2168.285</ele><time>2026-07-24T21:12:31.000Z</time></trkpt>
        <trkpt lat="29.555881" lon="103.34493"><ele>2168.02</ele><time>2026-07-24T21:12:33.000Z</time></trkpt>
        <trkpt lat="29.555872" lon="103.344943"><ele>2168.8198</ele><time>2026-07-24T21:12:37.000Z</time></trkpt>
        <trkpt lat="29.555859" lon="103.344962"><ele>2168.447</ele><time>2026-07-24T21:12:41.000Z</time></trkpt>
        <trkpt lat="29.555859" lon="103.344962"><ele>2168.3064</ele><time>2026-07-24T21:12:43.000Z</time></trkpt>
        <trkpt lat="29.555848" lon="103.344968"><ele>2169.3516</ele><time>2026-07-24T21:12:49.000Z</time></trkpt>
        <trkpt lat="29.555826" lon="103.344979"><ele>2170.3506</ele><time>2026-07-24T21:12:53.000Z</time></trkpt>
        <trkpt lat="29.555826" lon="103.344979"><ele>2171.1633</ele><time>2026-07-24T21:12:55.000Z</time></trkpt>
        <trkpt lat="29.555816" lon="103.344982"><ele>2171.3965</ele><time>2026-07-24T21:12:59.000Z</time></trkpt>
        <trkpt lat="29.55579" lon="103.344989"><ele>2171.9263</ele><time>2026-07-24T21:13:03.000Z</time></trkpt>
        <trkpt lat="29.55579" lon="103.344989"><ele>2172.0908</ele><time>2026-07-24T21:13:05.000Z</time></trkpt>
        <trkpt lat="29.555785" lon="103.344987"><ele>2172.6475</ele><time>2026-07-24T21:13:09.000Z</time></trkpt>
        <trkpt lat="29.555756" lon="103.344974"><ele>2172.9065</ele><time>2026-07-24T21:13:15.000Z</time></trkpt>
        <trkpt lat="29.555756" lon="103.344974"><ele>2174.0005</ele><time>2026-07-24T21:13:17.000Z</time></trkpt>
        <trkpt lat="29.555755" lon="103.344974"><ele>2174.5315</ele><time>2026-07-24T21:13:19.000Z</time></trkpt>
        <trkpt lat="29.555726" lon="103.344974"><ele>2179.1814</ele><time>2026-07-24T21:13:33.000Z</time></trkpt>
        <trkpt lat="29.555726" lon="103.344974"><ele>2178.9082</ele><time>2026-07-24T21:13:35.000Z</time></trkpt>
        <trkpt lat="29.555723" lon="103.344973"><ele>2178.8718</ele><time>2026-07-24T21:13:37.000Z</time></trkpt>
        <trkpt lat="29.555697" lon="103.344963"><ele>2180.131</ele><time>2026-07-24T21:13:49.000Z</time></trkpt>
        <trkpt lat="29.555683" lon="103.344957"><ele>2180.2566</ele><time>2026-07-24T21:13:51.000Z</time></trkpt>
        <trkpt lat="29.555682" lon="103.344957"><ele>2180.697</ele><time>2026-07-24T21:13:53.000Z</time></trkpt>
        <trkpt lat="29.555664" lon="103.344951"><ele>2181.4497</ele><time>2026-07-24T21:14:01.000Z</time></trkpt>
        <trkpt lat="29.55563" lon="103.344938"><ele>2182.6204</ele><time>2026-07-24T21:14:11.000Z</time></trkpt>
        <trkpt lat="29.55563" lon="103.344938"><ele>2182.8955</ele><time>2026-07-24T21:14:13.000Z</time></trkpt>
        <trkpt lat="29.55563" lon="103.344938"><ele>2183.4885</ele><time>2026-07-24T21:14:15.000Z</time></trkpt>
        <trkpt lat="29.5556" lon="103.344942"><ele>2184.286</ele><time>2026-07-24T21:14:25.000Z</time></trkpt>
        <trkpt lat="29.555597" lon="103.344943"><ele>2184.604</ele><time>2026-07-24T21:14:27.000Z</time></trkpt>
        <trkpt lat="29.555593" lon="103.344947"><ele>2184.8198</ele><time>2026-07-24T21:14:29.000Z</time></trkpt>
        <trkpt lat="29.555575" lon="103.344966"><ele>2186.1162</ele><time>2026-07-24T21:14:37.000Z</time></trkpt>
        <trkpt lat="29.555575" lon="103.344969"><ele>2186.7612</ele><time>2026-07-24T21:14:39.000Z</time></trkpt>
        <trkpt lat="29.555572" lon="103.344976"><ele>2187.6135</ele><time>2026-07-24T21:14:43.000Z</time></trkpt>
        <trkpt lat="29.555561" lon="103.344998"><ele>2187.787</ele><time>2026-07-24T21:14:57.000Z</time></trkpt>
        <trkpt lat="29.55556" lon="103.344999"><ele>2187.9385</ele><time>2026-07-24T21:14:59.000Z</time></trkpt>
        <trkpt lat="29.555557" lon="103.345006"><ele>2188.026</ele><time>2026-07-24T21:15:05.000Z</time></trkpt>
        <trkpt lat="29.555538" lon="103.345038"><ele>2190.7866</ele><time>2026-07-24T21:15:27.000Z</time></trkpt>
        <trkpt lat="29.55552" lon="103.345057"><ele>2191.47</ele><time>2026-07-24T21:15:43.000Z</time></trkpt>
        <trkpt lat="29.555501" lon="103.345082"><ele>2191.701</ele><time>2026-07-24T21:15:59.000Z</time></trkpt>
        <trkpt lat="29.555469" lon="103.345114"><ele>2192.7944</ele><time>2026-07-24T21:16:14.000Z</time></trkpt>
        <trkpt lat="29.555439" lon="103.345125"><ele>2193.1838</ele><time>2026-07-24T21:16:29.000Z</time></trkpt>
        <trkpt lat="29.555401" lon="103.345134"><ele>2195.9485</ele><time>2026-07-24T21:16:44.000Z</time></trkpt>
        <trkpt lat="29.555388" lon="103.345135"><ele>2197.5566</ele><time>2026-07-24T21:16:48.000Z</time></trkpt>
        <trkpt lat="29.555386" lon="103.345134"><ele>2198.1677</ele><time>2026-07-24T21:16:50.000Z</time></trkpt>
        <trkpt lat="29.555371" lon="103.345122"><ele>2199.6099</ele><time>2026-07-24T21:16:56.000Z</time></trkpt>
        <trkpt lat="29.555363" lon="103.345114"><ele>2199.79</ele><time>2026-07-24T21:17:00.000Z</time></trkpt>
        <trkpt lat="29.555362" lon="103.345111"><ele>2200.2954</ele><time>2026-07-24T21:17:02.000Z</time></trkpt>
        <trkpt lat="29.555353" lon="103.345085"><ele>2201.955</ele><time>2026-07-24T21:17:08.000Z</time></trkpt>
        <trkpt lat="29.555348" lon="103.345071"><ele>2202.4268</ele><time>2026-07-24T21:17:10.000Z</time></trkpt>
        <trkpt lat="29.555348" lon="103.34507"><ele>2203.1287</ele><time>2026-07-24T21:17:12.000Z</time></trkpt>
        <trkpt lat="29.555332" lon="103.345042"><ele>2203.3418</ele><time>2026-07-24T21:17:18.000Z</time></trkpt>
        <trkpt lat="29.555326" lon="103.345032"><ele>2202.7463</ele><time>2026-07-24T21:17:20.000Z</time></trkpt>
        <trkpt lat="29.555321" lon="103.345029"><ele>2202.2373</ele><time>2026-07-24T21:17:22.000Z</time></trkpt>
        <trkpt lat="29.555295" lon="103.345014"><ele>2202.6802</ele><time>2026-07-24T21:17:28.000Z</time></trkpt>
        <trkpt lat="29.555295" lon="103.345014"><ele>2203.0513</ele><time>2026-07-24T21:17:30.000Z</time></trkpt>
        <trkpt lat="29.555293" lon="103.345014"><ele>2204.076</ele><time>2026-07-24T21:17:32.000Z</time></trkpt>
        <trkpt lat="29.555249" lon="103.345009"><ele>2205.1367</ele><time>2026-07-24T21:17:40.000Z</time></trkpt>
        <trkpt lat="29.555249" lon="103.345009"><ele>2204.9817</ele><time>2026-07-24T21:17:42.000Z</time></trkpt>
        <trkpt lat="29.555248" lon="103.34501"><ele>2204.8628</ele><time>2026-07-24T21:17:44.000Z</time></trkpt>
        <trkpt lat="29.55523" lon="103.345043"><ele>2205.4463</ele><time>2026-07-24T21:17:52.000Z</time></trkpt>
        <trkpt lat="29.555227" lon="103.345051"><ele>2206.0605</ele><time>2026-07-24T21:17:54.000Z</time></trkpt>
        <trkpt lat="29.555218" lon="103.345064"><ele>2206.9546</ele><time>2026-07-24T21:17:56.000Z</time></trkpt>
        <trkpt lat="29.555206" lon="103.345075"><ele>2207.2666</ele><time>2026-07-24T21:18:02.000Z</time></trkpt>
        <trkpt lat="29.555189" lon="103.345088"><ele>2207.051</ele><time>2026-07-24T21:18:04.000Z</time></trkpt>
        <trkpt lat="29.555167" lon="103.345098"><ele>2207.144</ele><time>2026-07-24T21:18:06.000Z</time></trkpt>
        <trkpt lat="29.555143" lon="103.345109"><ele>2205.8298</ele><time>2026-07-24T21:18:08.000Z</time></trkpt>
        <trkpt lat="29.555124" lon="103.345121"><ele>2206.354</ele><time>2026-07-24T21:18:10.000Z</time></trkpt>
        <trkpt lat="29.555109" lon="103.345131"><ele>2206.2488</ele><time>2026-07-24T21:18:12.000Z</time></trkpt>
        <trkpt lat="29.555098" lon="103.34514"><ele>2206.6235</ele><time>2026-07-24T21:18:14.000Z</time></trkpt>
        <trkpt lat="29.555089" lon="103.345149"><ele>2206.606</ele><time>2026-07-24T21:18:16.000Z</time></trkpt>
        <trkpt lat="29.555083" lon="103.345155"><ele>2206.84</ele><time>2026-07-24T21:18:18.000Z</time></trkpt>
        <trkpt lat="29.555076" lon="103.345167"><ele>2206.9734</ele><time>2026-07-24T21:18:22.000Z</time></trkpt>
        <trkpt lat="29.555064" lon="103.34517"><ele>2209.3213</ele><time>2026-07-24T21:23:37.000Z</time></trkpt>
        <trkpt lat="29.555053" lon="103.34517"><ele>2211.1682</ele><time>2026-07-24T21:23:46.000Z</time></trkpt>
        <trkpt lat="29.555039" lon="103.345167"><ele>2211.0212</ele><time>2026-07-24T21:23:48.000Z</time></trkpt>
        <trkpt lat="29.555005" lon="103.345162"><ele>2212.3276</ele><time>2026-07-24T21:23:54.000Z</time></trkpt>
        <trkpt lat="29.555005" lon="103.345162"><ele>2212.3804</ele><time>2026-07-24T21:23:56.000Z</time></trkpt>
        <trkpt lat="29.555002" lon="103.345162"><ele>2212.6506</ele><time>2026-07-24T21:23:58.000Z</time></trkpt>
        <trkpt lat="29.554972" lon="103.345163"><ele>2213.227</ele><time>2026-07-24T21:24:02.000Z</time></trkpt>
        <trkpt lat="29.554957" lon="103.345164"><ele>2213.621</ele><time>2026-07-24T21:24:04.000Z</time></trkpt>
        <trkpt lat="29.554939" lon="103.345164"><ele>2213.837</ele><time>2026-07-24T21:24:06.000Z</time></trkpt>
        <trkpt lat="29.554924" lon="103.345163"><ele>2214.3408</ele><time>2026-07-24T21:24:08.000Z</time></trkpt>
        <trkpt lat="29.554913" lon="103.345163"><ele>2214.6387</ele><time>2026-07-24T21:24:10.000Z</time></trkpt>
        <trkpt lat="29.554902" lon="103.345164"><ele>2214.7769</ele><time>2026-07-24T21:24:12.000Z</time></trkpt>
        <trkpt lat="29.554891" lon="103.345169"><ele>2215.1526</ele><time>2026-07-24T21:24:14.000Z</time></trkpt>
        <trkpt lat="29.554881" lon="103.345175"><ele>2215.6077</ele><time>2026-07-24T21:24:16.000Z</time></trkpt>
        <trkpt lat="29.554872" lon="103.345182"><ele>2215.7659</ele><time>2026-07-24T21:24:18.000Z</time></trkpt>
        <trkpt lat="29.554863" lon="103.345191"><ele>2215.984</ele><time>2026-07-24T21:24:20.000Z</time></trkpt>
        <trkpt lat="29.554855" lon="103.345199"><ele>2216.1658</ele><time>2026-07-24T21:24:22.000Z</time></trkpt>
        <trkpt lat="29.55485" lon="103.345207"><ele>2216.5117</ele><time>2026-07-24T21:24:24.000Z</time></trkpt>
        <trkpt lat="29.554842" lon="103.345217"><ele>2217.0266</ele><time>2026-07-24T21:24:28.000Z</time></trkpt>
        <trkpt lat="29.554834" lon="103.345226"><ele>2217.12</ele><time>2026-07-24T21:24:32.000Z</time></trkpt>
        <trkpt lat="29.554828" lon="103.34523"><ele>2217.576</ele><time>2026-07-24T21:24:34.000Z</time></trkpt>
        <trkpt lat="29.554815" lon="103.34524"><ele>2218.0017</ele><time>2026-07-24T21:24:38.000Z</time></trkpt>
        <trkpt lat="29.554805" lon="103.345248"><ele>2218.4062</ele><time>2026-07-24T21:24:42.000Z</time></trkpt>
        <trkpt lat="29.554802" lon="103.345251"><ele>2218.639</ele><time>2026-07-24T21:24:44.000Z</time></trkpt>
        <trkpt lat="29.554788" lon="103.345265"><ele>2219.2031</ele><time>2026-07-24T21:24:50.000Z</time></trkpt>
        <trkpt lat="29.55476" lon="103.345284"><ele>2221.0974</ele><time>2026-07-24T21:25:05.000Z</time></trkpt>
        <trkpt lat="29.554735" lon="103.345296"><ele>2223.455</ele><time>2026-07-24T21:25:20.000Z</time></trkpt>
        <trkpt lat="29.5547" lon="103.345326"><ele>2225.244</ele><time>2026-07-24T21:25:35.000Z</time></trkpt>
        <trkpt lat="29.554687" lon="103.345333"><ele>2225.3086</ele><time>2026-07-24T21:25:51.000Z</time></trkpt>
        <trkpt lat="29.554673" lon="103.345342"><ele>2225.8533</ele><time>2026-07-24T21:26:06.000Z</time></trkpt>
        <trkpt lat="29.554669" lon="103.345343"><ele>2225.9753</ele><time>2026-07-24T21:26:21.000Z</time></trkpt>
        <trkpt lat="29.554645" lon="103.345343"><ele>2226.8752</ele><time>2026-07-24T21:26:39.000Z</time></trkpt>
        <trkpt lat="29.554642" lon="103.345343"><ele>2227.6694</ele><time>2026-07-24T21:26:45.000Z</time></trkpt>
        <trkpt lat="29.554637" lon="103.345343"><ele>2228.1047</ele><time>2026-07-24T21:26:47.000Z</time></trkpt>
        <trkpt lat="29.554615" lon="103.345346"><ele>2228.2705</ele><time>2026-07-24T21:26:53.000Z</time></trkpt>
        <trkpt lat="29.554609" lon="103.345345"><ele>2228.4097</ele><time>2026-07-24T21:26:55.000Z</time></trkpt>
        <trkpt lat="29.554604" lon="103.345346"><ele>2228.6821</ele><time>2026-07-24T21:26:57.000Z</time></trkpt>
        <trkpt lat="29.554579" lon="103.345347"><ele>2230.4736</ele><time>2026-07-24T21:27:05.000Z</time></trkpt>
        <trkpt lat="29.554573" lon="103.345348"><ele>2230.3862</ele><time>2026-07-24T21:27:07.000Z</time></trkpt>
        <trkpt lat="29.554567" lon="103.345349"><ele>2230.9626</ele><time>2026-07-24T21:27:09.000Z</time></trkpt>
        <trkpt lat="29.554549" lon="103.345353"><ele>2234.7156</ele><time>2026-07-24T21:27:24.000Z</time></trkpt>
        <trkpt lat="29.554513" lon="103.345356"><ele>2235.1926</ele><time>2026-07-24T21:27:39.000Z</time></trkpt>
        <trkpt lat="29.554472" lon="103.345361"><ele>2238.3118</ele><time>2026-07-24T21:27:54.000Z</time></trkpt>
        <trkpt lat="29.554435" lon="103.345373"><ele>2239.551</ele><time>2026-07-24T21:28:10.000Z</time></trkpt>
        <trkpt lat="29.554403" lon="103.34538"><ele>2239.481</ele><time>2026-07-24T21:28:24.000Z</time></trkpt>
        <trkpt lat="29.554388" lon="103.345384"><ele>2239.185</ele><time>2026-07-24T21:28:26.000Z</time></trkpt>
        <trkpt lat="29.554387" lon="103.345384"><ele>2239.4207</ele><time>2026-07-24T21:28:28.000Z</time></trkpt>
        <trkpt lat="29.554372" lon="103.34539"><ele>2239.762</ele><time>2026-07-24T21:28:34.000Z</time></trkpt>
        <trkpt lat="29.554359" lon="103.345395"><ele>2240.5796</ele><time>2026-07-24T21:28:40.000Z</time></trkpt>
        <trkpt lat="29.554354" lon="103.345396"><ele>2240.7683</ele><time>2026-07-24T21:28:42.000Z</time></trkpt>
        <trkpt lat="29.554342" lon="103.345397"><ele>2242.113</ele><time>2026-07-24T21:28:48.000Z</time></trkpt>
        <trkpt lat="29.55433" lon="103.345398"><ele>2242.5398</ele><time>2026-07-24T21:28:52.000Z</time></trkpt>
        <trkpt lat="29.554323" lon="103.345399"><ele>2243.1943</ele><time>2026-07-24T21:28:54.000Z</time></trkpt>
        <trkpt lat="29.55431" lon="103.345401"><ele>2244.1228</ele><time>2026-07-24T21:28:58.000Z</time></trkpt>
        <trkpt lat="29.554297" lon="103.345403"><ele>2245.584</ele><time>2026-07-24T21:29:04.000Z</time></trkpt>
        <trkpt lat="29.55429" lon="103.345403"><ele>2245.622</ele><time>2026-07-24T21:29:06.000Z</time></trkpt>
        <trkpt lat="29.554277" lon="103.345405"><ele>2246.617</ele><time>2026-07-24T21:29:12.000Z</time></trkpt>
        <trkpt lat="29.554267" lon="103.345408"><ele>2247.124</ele><time>2026-07-24T21:29:16.000Z</time></trkpt>
        <trkpt lat="29.554262" lon="103.345413"><ele>2247.5193</ele><time>2026-07-24T21:29:24.000Z</time></trkpt>
        <trkpt lat="29.554249" lon="103.345424"><ele>2249.0278</ele><time>2026-07-24T21:29:30.000Z</time></trkpt>
        <trkpt lat="29.55424" lon="103.34543"><ele>2249.3086</ele><time>2026-07-24T21:29:34.000Z</time></trkpt>
        <trkpt lat="29.554236" lon="103.345432"><ele>2249.903</ele><time>2026-07-24T21:29:36.000Z</time></trkpt>
        <trkpt lat="29.554218" lon="103.345436"><ele>2250.5718</ele><time>2026-07-24T21:29:42.000Z</time></trkpt>
        <trkpt lat="29.554206" lon="103.345437"><ele>2252.378</ele><time>2026-07-24T21:29:46.000Z</time></trkpt>
        <trkpt lat="29.554199" lon="103.345438"><ele>2252.738</ele><time>2026-07-24T21:29:48.000Z</time></trkpt>
        <trkpt lat="29.554185" lon="103.345443"><ele>2253.1318</ele><time>2026-07-24T21:29:54.000Z</time></trkpt>
        <trkpt lat="29.554172" lon="103.345446"><ele>2255.2297</ele><time>2026-07-24T21:30:02.000Z</time></trkpt>
        <trkpt lat="29.554165" lon="103.345447"><ele>2255.7583</ele><time>2026-07-24T21:30:04.000Z</time></trkpt>
        <trkpt lat="29.554152" lon="103.34545"><ele>2256.693</ele><time>2026-07-24T21:30:08.000Z</time></trkpt>
        <trkpt lat="29.554141" lon="103.345455"><ele>2256.3672</ele><time>2026-07-24T21:30:14.000Z</time></trkpt>
        <trkpt lat="29.55409" lon="103.345475"><ele>2257.212</ele><time>2026-07-24T21:30:28.000Z</time></trkpt>
        <trkpt lat="29.554083" lon="103.345479"><ele>2257.3406</ele><time>2026-07-24T21:30:30.000Z</time></trkpt>
        <trkpt lat="29.554079" lon="103.345482"><ele>2257.2017</ele><time>2026-07-24T21:30:32.000Z</time></trkpt>
        <trkpt lat="29.554064" lon="103.345497"><ele>2256.2651</ele><time>2026-07-24T21:30:40.000Z</time></trkpt>
        <trkpt lat="29.554058" lon="103.345501"><ele>2256.731</ele><time>2026-07-24T21:30:44.000Z</time></trkpt>
        <trkpt lat="29.554055" lon="103.3455"><ele>2256.41</ele><time>2026-07-24T21:30:50.000Z</time></trkpt>
        <trkpt lat="29.554033" lon="103.345489"><ele>2257.1619</ele><time>2026-07-24T21:31:52.000Z</time></trkpt>
        <trkpt lat="29.554027" lon="103.345486"><ele>2258.1902</ele><time>2026-07-24T21:31:54.000Z</time></trkpt>
        <trkpt lat="29.554022" lon="103.345483"><ele>2257.9878</ele><time>2026-07-24T21:31:56.000Z</time></trkpt>
        <trkpt lat="29.553998" lon="103.345472"><ele>2257.9324</ele><time>2026-07-24T21:32:02.000Z</time></trkpt>
        <trkpt lat="29.553991" lon="103.345468"><ele>2258.2383</ele><time>2026-07-24T21:32:04.000Z</time></trkpt>
        <trkpt lat="29.553983" lon="103.345459"><ele>2258.265</ele><time>2026-07-24T21:32:06.000Z</time></trkpt>
        <trkpt lat="29.553958" lon="103.34543"><ele>2258.8596</ele><time>2026-07-24T21:32:12.000Z</time></trkpt>
        <trkpt lat="29.553958" lon="103.34543"><ele>2258.9</ele><time>2026-07-24T21:32:14.000Z</time></trkpt>
        <trkpt lat="29.553955" lon="103.345428"><ele>2258.9915</ele><time>2026-07-24T21:32:16.000Z</time></trkpt>
        <trkpt lat="29.553928" lon="103.345407"><ele>2259.014</ele><time>2026-07-24T21:32:20.000Z</time></trkpt>
        <trkpt lat="29.553914" lon="103.345397"><ele>2259.3096</ele><time>2026-07-24T21:32:22.000Z</time></trkpt>
        <trkpt lat="29.553902" lon="103.345388"><ele>2259.5635</ele><time>2026-07-24T21:32:24.000Z</time></trkpt>
        <trkpt lat="29.55389" lon="103.345382"><ele>2260.1904</ele><time>2026-07-24T21:32:26.000Z</time></trkpt>
        <trkpt lat="29.553878" lon="103.345378"><ele>2260.227</ele><time>2026-07-24T21:32:28.000Z</time></trkpt>
        <trkpt lat="29.553866" lon="103.345375"><ele>2260.5876</ele><time>2026-07-24T21:32:30.000Z</time></trkpt>
        <trkpt lat="29.553855" lon="103.345372"><ele>2260.628</ele><time>2026-07-24T21:32:32.000Z</time></trkpt>
        <trkpt lat="29.553843" lon="103.345367"><ele>2260.4082</ele><time>2026-07-24T21:32:34.000Z</time></trkpt>
        <trkpt lat="29.553836" lon="103.345363"><ele>2261.1218</ele><time>2026-07-24T21:32:36.000Z</time></trkpt>
        <trkpt lat="29.553823" lon="103.345358"><ele>2261.8938</ele><time>2026-07-24T21:32:40.000Z</time></trkpt>
        <trkpt lat="29.553809" lon="103.345353"><ele>2263.4355</ele><time>2026-07-24T21:32:44.000Z</time></trkpt>
        <trkpt lat="29.553802" lon="103.345352"><ele>2263.9644</ele><time>2026-07-24T21:32:46.000Z</time></trkpt>
        <trkpt lat="29.553787" lon="103.345349"><ele>2264.218</ele><time>2026-07-24T21:32:48.000Z</time></trkpt>
        <trkpt lat="29.55377" lon="103.345344"><ele>2265.6985</ele><time>2026-07-24T21:32:54.000Z</time></trkpt>
        <trkpt lat="29.553756" lon="103.345339"><ele>2266.1758</ele><time>2026-07-24T21:32:56.000Z</time></trkpt>
        <trkpt lat="29.553745" lon="103.345334"><ele>2267.3157</ele><time>2026-07-24T21:32:58.000Z</time></trkpt>
        <trkpt lat="29.553735" lon="103.345328"><ele>2267.3354</ele><time>2026-07-24T21:33:00.000Z</time></trkpt>
        <trkpt lat="29.553726" lon="103.345324"><ele>2267.1394</ele><time>2026-07-24T21:33:02.000Z</time></trkpt>
        <trkpt lat="29.553716" lon="103.345318"><ele>2266.9485</ele><time>2026-07-24T21:33:06.000Z</time></trkpt>
        <trkpt lat="29.553704" lon="103.345314"><ele>2267.6216</ele><time>2026-07-24T21:33:14.000Z</time></trkpt>
        <trkpt lat="29.553697" lon="103.345313"><ele>2267.5632</ele><time>2026-07-24T21:33:16.000Z</time></trkpt>
        <trkpt lat="29.553681" lon="103.345312"><ele>2267.359</ele><time>2026-07-24T21:33:20.000Z</time></trkpt>
        <trkpt lat="29.553674" lon="103.345311"><ele>2267.206</ele><time>2026-07-24T21:33:22.000Z</time></trkpt>
        <trkpt lat="29.55366" lon="103.345311"><ele>2267.4004</ele><time>2026-07-24T21:33:26.000Z</time></trkpt>
        <trkpt lat="29.553621" lon="103.345313"><ele>2267.2493</ele><time>2026-07-24T21:33:38.000Z</time></trkpt>
        <trkpt lat="29.553614" lon="103.345313"><ele>2267.1924</ele><time>2026-07-24T21:33:40.000Z</time></trkpt>
        <trkpt lat="29.553607" lon="103.345315"><ele>2267.535</ele><time>2026-07-24T21:33:42.000Z</time></trkpt>
        <trkpt lat="29.55359" lon="103.345317"><ele>2267.4888</ele><time>2026-07-24T21:33:46.000Z</time></trkpt>
        <trkpt lat="29.553577" lon="103.345316"><ele>2269.261</ele><time>2026-07-24T21:33:50.000Z</time></trkpt>
        <trkpt lat="29.55357" lon="103.345314"><ele>2269.83</ele><time>2026-07-24T21:33:52.000Z</time></trkpt>
        <trkpt lat="29.553553" lon="103.345311"><ele>2270.2896</ele><time>2026-07-24T21:33:56.000Z</time></trkpt>
        <trkpt lat="29.553545" lon="103.345307"><ele>2271.5342</ele><time>2026-07-24T21:34:00.000Z</time></trkpt>
        <trkpt lat="29.55354" lon="103.345306"><ele>2271.583</ele><time>2026-07-24T21:34:04.000Z</time></trkpt>
        <trkpt lat="29.553499" lon="103.345301"><ele>2271.6519</ele><time>2026-07-24T21:34:16.000Z</time></trkpt>
        <trkpt lat="29.553499" lon="103.345301"><ele>2272.038</ele><time>2026-07-24T21:34:18.000Z</time></trkpt>
        <trkpt lat="29.553496" lon="103.345301"><ele>2272.3137</ele><time>2026-07-24T21:34:20.000Z</time></trkpt>
        <trkpt lat="29.553456" lon="103.345302"><ele>2275.6147</ele><time>2026-07-24T21:34:26.000Z</time></trkpt>
        <trkpt lat="29.553444" lon="103.345305"><ele>2275.8962</ele><time>2026-07-24T21:34:28.000Z</time></trkpt>
        <trkpt lat="29.553429" lon="103.345314"><ele>2275.1514</ele><time>2026-07-24T21:34:30.000Z</time></trkpt>
        <trkpt lat="29.55342" lon="103.34532"><ele>2275.4355</ele><time>2026-07-24T21:34:32.000Z</time></trkpt>
        <trkpt lat="29.553412" lon="103.345327"><ele>2276.3901</ele><time>2026-07-24T21:34:34.000Z</time></trkpt>
        <trkpt lat="29.553405" lon="103.345334"><ele>2276.6003</ele><time>2026-07-24T21:34:36.000Z</time></trkpt>
        <trkpt lat="29.553391" lon="103.345345"><ele>2276.273</ele><time>2026-07-24T21:34:40.000Z</time></trkpt>
        <trkpt lat="29.553386" lon="103.345348"><ele>2276.4958</ele><time>2026-07-24T21:34:42.000Z</time></trkpt>
        <trkpt lat="29.553372" lon="103.345356"><ele>2276.6416</ele><time>2026-07-24T21:34:44.000Z</time></trkpt>
        <trkpt lat="29.553357" lon="103.345362"><ele>2277.798</ele><time>2026-07-24T21:34:50.000Z</time></trkpt>
        <trkpt lat="29.553341" lon="103.345367"><ele>2277.5562</ele><time>2026-07-24T21:34:52.000Z</time></trkpt>
        <trkpt lat="29.553325" lon="103.345369"><ele>2277.5278</ele><time>2026-07-24T21:34:54.000Z</time></trkpt>
        <trkpt lat="29.553314" lon="103.34537"><ele>2277.0989</ele><time>2026-07-24T21:34:56.000Z</time></trkpt>
        <trkpt lat="29.553307" lon="103.34537"><ele>2276.0286</ele><time>2026-07-24T21:34:58.000Z</time></trkpt>
        <trkpt lat="29.553295" lon="103.345373"><ele>2274.7913</ele><time>2026-07-24T21:35:04.000Z</time></trkpt>
        <trkpt lat="29.553284" lon="103.345375"><ele>2274.6829</ele><time>2026-07-24T21:35:14.000Z</time></trkpt>
      </trkseg>
      <trkseg>
        <trkpt lat="29.548015" lon="103.341211"><ele>2336.8384</ele><time>2026-07-24T22:23:50.000Z</time></trkpt>
        <trkpt lat="29.547977" lon="103.341223"><ele>2335.3826</ele><time>2026-07-24T22:24:18.000Z</time></trkpt>
        <trkpt lat="29.547977" lon="103.341223"><ele>2335.7314</ele><time>2026-07-24T22:24:20.000Z</time></trkpt>
        <trkpt lat="29.547966" lon="103.341219"><ele>2336.2927</ele><time>2026-07-24T22:24:22.000Z</time></trkpt>
        <trkpt lat="29.547942" lon="103.341209"><ele>2337.9968</ele><time>2026-07-24T22:24:28.000Z</time></trkpt>
        <trkpt lat="29.547919" lon="103.3412"><ele>2339.2095</ele><time>2026-07-24T22:24:30.000Z</time></trkpt>
        <trkpt lat="29.547894" lon="103.341189"><ele>2338.6091</ele><time>2026-07-24T22:24:32.000Z</time></trkpt>
        <trkpt lat="29.54787" lon="103.341178"><ele>2338.5986</ele><time>2026-07-24T22:24:34.000Z</time></trkpt>
        <trkpt lat="29.547849" lon="103.341168"><ele>2338.311</ele><time>2026-07-24T22:24:36.000Z</time></trkpt>
        <trkpt lat="29.54783" lon="103.341158"><ele>2338.9731</ele><time>2026-07-24T22:24:38.000Z</time></trkpt>
        <trkpt lat="29.547813" lon="103.341148"><ele>2338.4426</ele><time>2026-07-24T22:24:40.000Z</time></trkpt>
        <trkpt lat="29.547795" lon="103.34114"><ele>2337.9524</ele><time>2026-07-24T22:24:42.000Z</time></trkpt>
        <trkpt lat="29.547776" lon="103.341132"><ele>2337.1338</ele><time>2026-07-24T22:24:44.000Z</time></trkpt>
        <trkpt lat="29.547758" lon="103.341126"><ele>2337.9895</ele><time>2026-07-24T22:24:46.000Z</time></trkpt>
        <trkpt lat="29.547738" lon="103.341119"><ele>2337.4907</ele><time>2026-07-24T22:24:48.000Z</time></trkpt>
        <trkpt lat="29.547724" lon="103.341113"><ele>2338.0576</ele><time>2026-07-24T22:24:50.000Z</time></trkpt>
        <trkpt lat="29.547709" lon="103.341105"><ele>2338.2368</ele><time>2026-07-24T22:24:52.000Z</time></trkpt>
        <trkpt lat="29.547697" lon="103.3411"><ele>2338.5713</ele><time>2026-07-24T22:24:54.000Z</time></trkpt>
        <trkpt lat="29.547684" lon="103.341094"><ele>2339.386</ele><time>2026-07-24T22:24:56.000Z</time></trkpt>
        <trkpt lat="29.547674" lon="103.34109"><ele>2339.5916</ele><time>2026-07-24T22:24:58.000Z</time></trkpt>
        <trkpt lat="29.547664" lon="103.341088"><ele>2339.0298</ele><time>2026-07-24T22:25:00.000Z</time></trkpt>
        <trkpt lat="29.547651" lon="103.341085"><ele>2339.2437</ele><time>2026-07-24T22:25:02.000Z</time></trkpt>
        <trkpt lat="29.54764" lon="103.341086"><ele>2339.7876</ele><time>2026-07-24T22:25:04.000Z</time></trkpt>
        <trkpt lat="29.54763" lon="103.341087"><ele>2339.6921</ele><time>2026-07-24T22:25:06.000Z</time></trkpt>
        <trkpt lat="29.547619" lon="103.341089"><ele>2339.8433</ele><time>2026-07-24T22:25:08.000Z</time></trkpt>
        <trkpt lat="29.547608" lon="103.341092"><ele>2340.0825</ele><time>2026-07-24T22:25:10.000Z</time></trkpt>
        <trkpt lat="29.547597" lon="103.341094"><ele>2339.589</ele><time>2026-07-24T22:25:12.000Z</time></trkpt>
        <trkpt lat="29.547585" lon="103.341096"><ele>2340.7058</ele><time>2026-07-24T22:25:14.000Z</time></trkpt>
        <trkpt lat="29.547578" lon="103.341095"><ele>2341.3137</ele><time>2026-07-24T22:25:16.000Z</time></trkpt>
        <trkpt lat="29.547559" lon="103.341091"><ele>2341.2363</ele><time>2026-07-24T22:25:20.000Z</time></trkpt>
        <trkpt lat="29.547551" lon="103.341087"><ele>2341.0273</ele><time>2026-07-24T22:25:22.000Z</time></trkpt>
        <trkpt lat="29.547544" lon="103.341084"><ele>2341.0088</ele><time>2026-07-24T22:25:24.000Z</time></trkpt>
        <trkpt lat="29.547531" lon="103.341079"><ele>2341.371</ele><time>2026-07-24T22:25:28.000Z</time></trkpt>
        <trkpt lat="29.54752" lon="103.341076"><ele>2341.6196</ele><time>2026-07-24T22:25:34.000Z</time></trkpt>
        <trkpt lat="29.547515" lon="103.341074"><ele>2341.9446</ele><time>2026-07-24T22:25:36.000Z</time></trkpt>
        <trkpt lat="29.547485" lon="103.341062"><ele>2342.725</ele><time>2026-07-24T22:25:55.000Z</time></trkpt>
        <trkpt lat="29.54748" lon="103.34106"><ele>2343.5593</ele><time>2026-07-24T22:25:58.000Z</time></trkpt>
        <trkpt lat="29.547477" lon="103.341059"><ele>2343.6711</ele><time>2026-07-24T22:26:00.000Z</time></trkpt>
        <trkpt lat="29.547455" lon="103.341048"><ele>2344.0513</ele><time>2026-07-24T22:26:06.000Z</time></trkpt>
        <trkpt lat="29.547448" lon="103.341045"><ele>2343.7754</ele><time>2026-07-24T22:26:08.000Z</time></trkpt>
        <trkpt lat="29.547443" lon="103.341043"><ele>2344.7644</ele><time>2026-07-24T22:26:10.000Z</time></trkpt>
        <trkpt lat="29.547425" lon="103.341036"><ele>2345.8945</ele><time>2026-07-24T22:26:18.000Z</time></trkpt>
        <trkpt lat="29.547417" lon="103.341032"><ele>2346.5144</ele><time>2026-07-24T22:26:22.000Z</time></trkpt>
        <trkpt lat="29.547416" lon="103.34103"><ele>2347.1091</ele><time>2026-07-24T22:26:26.000Z</time></trkpt>
        <trkpt lat="29.547404" lon="103.341"><ele>2347.2314</ele><time>2026-07-24T22:26:36.000Z</time></trkpt>
        <trkpt lat="29.547404" lon="103.341"><ele>2346.6733</ele><time>2026-07-24T22:26:38.000Z</time></trkpt>
        <trkpt lat="29.547404" lon="103.340996"><ele>2346.2861</ele><time>2026-07-24T22:26:40.000Z</time></trkpt>
        <trkpt lat="29.547403" lon="103.340953"><ele>2346.5156</ele><time>2026-07-24T22:26:44.000Z</time></trkpt>
        <trkpt lat="29.547404" lon="103.340922"><ele>2347.269</ele><time>2026-07-24T22:26:46.000Z</time></trkpt>
        <trkpt lat="29.547402" lon="103.340891"><ele>2346.496</ele><time>2026-07-24T22:26:48.000Z</time></trkpt>
        <trkpt lat="29.5474" lon="103.340868"><ele>2347.3083</ele><time>2026-07-24T22:26:50.000Z</time></trkpt>
        <trkpt lat="29.547396" lon="103.340846"><ele>2348.4087</ele><time>2026-07-24T22:26:52.000Z</time></trkpt>
        <trkpt lat="29.547391" lon="103.34083"><ele>2349.4414</ele><time>2026-07-24T22:26:54.000Z</time></trkpt>
        <trkpt lat="29.547384" lon="103.340812"><ele>2350.1553</ele><time>2026-07-24T22:26:56.000Z</time></trkpt>
        <trkpt lat="29.547376" lon="103.340795"><ele>2350.1824</ele><time>2026-07-24T22:26:58.000Z</time></trkpt>
        <trkpt lat="29.547368" lon="103.340776"><ele>2350.1643</ele><time>2026-07-24T22:27:00.000Z</time></trkpt>
        <trkpt lat="29.547361" lon="103.340759"><ele>2350.2854</ele><time>2026-07-24T22:27:02.000Z</time></trkpt>
        <trkpt lat="29.547353" lon="103.340742"><ele>2349.9397</ele><time>2026-07-24T22:27:04.000Z</time></trkpt>
        <trkpt lat="29.547346" lon="103.340725"><ele>2350.111</ele><time>2026-07-24T22:27:06.000Z</time></trkpt>
        <trkpt lat="29.547343" lon="103.340711"><ele>2350.2903</ele><time>2026-07-24T22:27:08.000Z</time></trkpt>
        <trkpt lat="29.547342" lon="103.340701"><ele>2350.7285</ele><time>2026-07-24T22:27:10.000Z</time></trkpt>
        <trkpt lat="29.547341" lon="103.340685"><ele>2351.6777</ele><time>2026-07-24T22:27:14.000Z</time></trkpt>
        <trkpt lat="29.547338" lon="103.340682"><ele>2351.8108</ele><time>2026-07-24T22:27:16.000Z</time></trkpt>
        <trkpt lat="29.547314" lon="103.340662"><ele>2350.929</ele><time>2026-07-24T22:27:20.000Z</time></trkpt>
        <trkpt lat="29.547314" lon="103.340662"><ele>2350.4038</ele><time>2026-07-24T22:27:22.000Z</time></trkpt>
        <trkpt lat="29.547311" lon="103.340659"><ele>2350.8362</ele><time>2026-07-24T22:27:24.000Z</time></trkpt>
        <trkpt lat="29.547284" lon="103.340638"><ele>2349.3457</ele><time>2026-07-24T22:27:28.000Z</time></trkpt>
        <trkpt lat="29.547274" lon="103.340627"><ele>2349.2717</ele><time>2026-07-24T22:27:30.000Z</time></trkpt>
        <trkpt lat="29.547264" lon="103.340616"><ele>2348.0198</ele><time>2026-07-24T22:27:32.000Z</time></trkpt>
        <trkpt lat="29.547256" lon="103.340602"><ele>2348.6902</ele><time>2026-07-24T22:27:34.000Z</time></trkpt>
        <trkpt lat="29.547256" lon="103.340593"><ele>2350.5215</ele><time>2026-07-24T22:27:36.000Z</time></trkpt>
        <trkpt lat="29.547256" lon="103.340577"><ele>2351.2764</ele><time>2026-07-24T22:27:40.000Z</time></trkpt>
        <trkpt lat="29.547255" lon="103.340566"><ele>2350.8376</ele><time>2026-07-24T22:27:44.000Z</time></trkpt>
        <trkpt lat="29.547253" lon="103.340553"><ele>2352.764</ele><time>2026-07-24T22:27:48.000Z</time></trkpt>
        <trkpt lat="29.547253" lon="103.340535"><ele>2353.4524</ele><time>2026-07-24T22:27:52.000Z</time></trkpt>
        <trkpt lat="29.547253" lon="103.340519"><ele>2353.4578</ele><time>2026-07-24T22:27:54.000Z</time></trkpt>
        <trkpt lat="29.547253" lon="103.340518"><ele>2352.773</ele><time>2026-07-24T22:27:56.000Z</time></trkpt>
        <trkpt lat="29.547245" lon="103.340496"><ele>2354.0593</ele><time>2026-07-24T22:28:02.000Z</time></trkpt>
        <trkpt lat="29.54724" lon="103.340486"><ele>2354.525</ele><time>2026-07-24T22:28:06.000Z</time></trkpt>
        <trkpt lat="29.547236" lon="103.340481"><ele>2353.5671</ele><time>2026-07-24T22:28:08.000Z</time></trkpt>
        <trkpt lat="29.547227" lon="103.340464"><ele>2352.384</ele><time>2026-07-24T22:28:16.000Z</time></trkpt>
        <trkpt lat="29.547222" lon="103.340455"><ele>2352.6582</ele><time>2026-07-24T22:28:22.000Z</time></trkpt>
        <trkpt lat="29.547222" lon="103.340445"><ele>2353.0273</ele><time>2026-07-24T22:28:26.000Z</time></trkpt>
        <trkpt lat="29.54723" lon="103.340433"><ele>2354.923</ele><time>2026-07-24T22:28:32.000Z</time></trkpt>
        <trkpt lat="29.547238" lon="103.340418"><ele>2354.726</ele><time>2026-07-24T22:28:34.000Z</time></trkpt>
        <trkpt lat="29.547238" lon="103.340415"><ele>2356.0518</ele><time>2026-07-24T22:28:38.000Z</time></trkpt>
        <trkpt lat="29.547243" lon="103.340398"><ele>2357.3394</ele><time>2026-07-24T22:28:42.000Z</time></trkpt>
        <trkpt lat="29.54725" lon="103.340374"><ele>2358.0876</ele><time>2026-07-24T22:28:46.000Z</time></trkpt>
        <trkpt lat="29.54725" lon="103.340374"><ele>2357.8293</ele><time>2026-07-24T22:28:48.000Z</time></trkpt>
        <trkpt lat="29.547233" lon="103.340365"><ele>2357.8975</ele><time>2026-07-24T22:28:52.000Z</time></trkpt>
        <trkpt lat="29.547216" lon="103.340355"><ele>2357.5334</ele><time>2026-07-24T22:28:54.000Z</time></trkpt>
        <trkpt lat="29.547205" lon="103.340349"><ele>2357.5151</ele><time>2026-07-24T22:28:56.000Z</time></trkpt>
        <trkpt lat="29.547195" lon="103.340341"><ele>2357.16</ele><time>2026-07-24T22:28:58.000Z</time></trkpt>
        <trkpt lat="29.547191" lon="103.340336"><ele>2357.797</ele><time>2026-07-24T22:29:00.000Z</time></trkpt>
        <trkpt lat="29.547182" lon="103.34032"><ele>2357.7737</ele><time>2026-07-24T22:29:04.000Z</time></trkpt>
        <trkpt lat="29.547178" lon="103.340309"><ele>2359.4822</ele><time>2026-07-24T22:29:08.000Z</time></trkpt>
        <trkpt lat="29.547178" lon="103.340305"><ele>2360.401</ele><time>2026-07-24T22:29:10.000Z</time></trkpt>
        <trkpt lat="29.547171" lon="103.340284"><ele>2360.6296</ele><time>2026-07-24T22:29:24.000Z</time></trkpt>
        <trkpt lat="29.547166" lon="103.340274"><ele>2360.6243</ele><time>2026-07-24T22:29:28.000Z</time></trkpt>
        <trkpt lat="29.547166" lon="103.340269"><ele>2361.0957</ele><time>2026-07-24T22:29:30.000Z</time></trkpt>
        <trkpt lat="29.547156" lon="103.340224"><ele>2363.6953</ele><time>2026-07-24T22:29:49.000Z</time></trkpt>
        <trkpt lat="29.547151" lon="103.340213"><ele>2363.029</ele><time>2026-07-24T22:29:53.000Z</time></trkpt>
        <trkpt lat="29.547151" lon="103.340208"><ele>2362.906</ele><time>2026-07-24T22:29:55.000Z</time></trkpt>
        <trkpt lat="29.547142" lon="103.340197"><ele>2364.1238</ele><time>2026-07-24T22:30:03.000Z</time></trkpt>
        <trkpt lat="29.54713" lon="103.340185"><ele>2363.479</ele><time>2026-07-24T22:30:07.000Z</time></trkpt>
        <trkpt lat="29.547126" lon="103.34018"><ele>2364.0515</ele><time>2026-07-24T22:30:09.000Z</time></trkpt>
        <trkpt lat="29.547119" lon="103.340174"><ele>2365.866</ele><time>2026-07-24T22:30:15.000Z</time></trkpt>
        <trkpt lat="29.547105" lon="103.340164"><ele>2367.9128</ele><time>2026-07-24T22:30:19.000Z</time></trkpt>
        <trkpt lat="29.547105" lon="103.340163"><ele>2368.4336</ele><time>2026-07-24T22:30:21.000Z</time></trkpt>
        <trkpt lat="29.547109" lon="103.340104"><ele>2372.8596</ele><time>2026-07-24T22:30:50.000Z</time></trkpt>
        <trkpt lat="29.547106" lon="103.340073"><ele>2373.8423</ele><time>2026-07-24T22:31:06.000Z</time></trkpt>
        <trkpt lat="29.5471" lon="103.340035"><ele>2378.081</ele><time>2026-07-24T22:31:22.000Z</time></trkpt>
        <trkpt lat="29.547098" lon="103.340031"><ele>2377.699</ele><time>2026-07-24T22:31:24.000Z</time></trkpt>
        <trkpt lat="29.547097" lon="103.340028"><ele>2377.7336</ele><time>2026-07-24T22:31:26.000Z</time></trkpt>
        <trkpt lat="29.547087" lon="103.340002"><ele>2380.3464</ele><time>2026-07-24T22:31:46.000Z</time></trkpt>
        <trkpt lat="29.547085" lon="103.339997"><ele>2380.2327</ele><time>2026-07-24T22:31:48.000Z</time></trkpt>
        <trkpt lat="29.547086" lon="103.339992"><ele>2380.5325</ele><time>2026-07-24T22:31:50.000Z</time></trkpt>
        <trkpt lat="29.547096" lon="103.339935"><ele>2382.3113</ele><time>2026-07-24T22:32:07.000Z</time></trkpt>
        <trkpt lat="29.547103" lon="103.339901"><ele>2383.7375</ele><time>2026-07-24T22:32:22.000Z</time></trkpt>
        <trkpt lat="29.54711" lon="103.339859"><ele>2384.813</ele><time>2026-07-24T22:32:33.000Z</time></trkpt>
        <trkpt lat="29.547113" lon="103.339845"><ele>2385.1318</ele><time>2026-07-24T22:32:35.000Z</time></trkpt>
        <trkpt lat="29.547113" lon="103.339844"><ele>2385.436</ele><time>2026-07-24T22:32:37.000Z</time></trkpt>
        <trkpt lat="29.547104" lon="103.339822"><ele>2386.3762</ele><time>2026-07-24T22:32:45.000Z</time></trkpt>
        <trkpt lat="29.547098" lon="103.339808"><ele>2386.5898</ele><time>2026-07-24T22:32:49.000Z</time></trkpt>
        <trkpt lat="29.547092" lon="103.339795"><ele>2386.522</ele><time>2026-07-24T22:32:51.000Z</time></trkpt>
        <trkpt lat="29.547085" lon="103.339782"><ele>2386.0254</ele><time>2026-07-24T22:32:57.000Z</time></trkpt>
        <trkpt lat="29.547079" lon="103.339771"><ele>2386.1462</ele><time>2026-07-24T22:32:59.000Z</time></trkpt>
        <trkpt lat="29.547073" lon="103.33976"><ele>2386.5044</ele><time>2026-07-24T22:33:01.000Z</time></trkpt>
        <trkpt lat="29.547067" lon="103.339752"><ele>2386.3623</ele><time>2026-07-24T22:33:03.000Z</time></trkpt>
        <trkpt lat="29.54706" lon="103.339739"><ele>2386.6082</ele><time>2026-07-24T22:33:07.000Z</time></trkpt>
        <trkpt lat="29.547055" lon="103.339729"><ele>2386.7964</ele><time>2026-07-24T22:33:11.000Z</time></trkpt>
        <trkpt lat="29.547051" lon="103.339719"><ele>2387.317</ele><time>2026-07-24T22:33:15.000Z</time></trkpt>
        <trkpt lat="29.547046" lon="103.339705"><ele>2387.8708</ele><time>2026-07-24T22:33:21.000Z</time></trkpt>
        <trkpt lat="29.54704" lon="103.33969"><ele>2388.0894</ele><time>2026-07-24T22:33:23.000Z</time></trkpt>
        <trkpt lat="29.547039" lon="103.339689"><ele>2388.6653</ele><time>2026-07-24T22:33:27.000Z</time></trkpt>
        <trkpt lat="29.547021" lon="103.339678"><ele>2389.8445</ele><time>2026-07-24T22:33:33.000Z</time></trkpt>
        <trkpt lat="29.547012" lon="103.339672"><ele>2390.0728</ele><time>2026-07-24T22:33:37.000Z</time></trkpt>
        <trkpt lat="29.547006" lon="103.339669"><ele>2389.714</ele><time>2026-07-24T22:33:39.000Z</time></trkpt>
        <trkpt lat="29.546992" lon="103.339662"><ele>2390.2314</ele><time>2026-07-24T22:33:43.000Z</time></trkpt>
        <trkpt lat="29.546978" lon="103.339654"><ele>2389.9426</ele><time>2026-07-24T22:33:47.000Z</time></trkpt>
        <trkpt lat="29.546974" lon="103.33965"><ele>2390.02</ele><time>2026-07-24T22:33:49.000Z</time></trkpt>
        <trkpt lat="29.546967" lon="103.339642"><ele>2391.0889</ele><time>2026-07-24T22:33:53.000Z</time></trkpt>
        <trkpt lat="29.54694" lon="103.339609"><ele>2391.725</ele><time>2026-07-24T22:34:10.000Z</time></trkpt>
        <trkpt lat="29.546919" lon="103.339579"><ele>2393.3032</ele><time>2026-07-24T22:34:24.000Z</time></trkpt>
        <trkpt lat="29.546918" lon="103.339576"><ele>2393.862</ele><time>2026-07-24T22:34:26.000Z</time></trkpt>
        <trkpt lat="29.546915" lon="103.339572"><ele>2394.2234</ele><time>2026-07-24T22:34:28.000Z</time></trkpt>
        <trkpt lat="29.546901" lon="103.339552"><ele>2396.7046</ele><time>2026-07-24T22:34:38.000Z</time></trkpt>
        <trkpt lat="29.546896" lon="103.339547"><ele>2397.2258</ele><time>2026-07-24T22:34:42.000Z</time></trkpt>
        <trkpt lat="29.546893" lon="103.339543"><ele>2396.9985</ele><time>2026-07-24T22:34:44.000Z</time></trkpt>
        <trkpt lat="29.546884" lon="103.339525"><ele>2399.722</ele><time>2026-07-24T22:34:54.000Z</time></trkpt>
        <trkpt lat="29.546879" lon="103.339498"><ele>2401.8955</ele><time>2026-07-24T22:35:10.000Z</time></trkpt>
        <trkpt lat="29.54687" lon="103.339456"><ele>2403.149</ele><time>2026-07-24T22:35:26.000Z</time></trkpt>
        <trkpt lat="29.546858" lon="103.339424"><ele>2405.58</ele><time>2026-07-24T22:35:42.000Z</time></trkpt>
        <trkpt lat="29.546843" lon="103.339399"><ele>2406.7139</ele><time>2026-07-24T22:35:58.000Z</time></trkpt>
        <trkpt lat="29.546829" lon="103.339384"><ele>2408.144</ele><time>2026-07-24T22:36:13.000Z</time></trkpt>
        <trkpt lat="29.54681" lon="103.339364"><ele>2409.5212</ele><time>2026-07-24T22:36:28.000Z</time></trkpt>
        <trkpt lat="29.5468" lon="103.33935"><ele>2409.3975</ele><time>2026-07-24T22:36:32.000Z</time></trkpt>
        <trkpt lat="29.546792" lon="103.339339"><ele>2409.6113</ele><time>2026-07-24T22:36:34.000Z</time></trkpt>
        <trkpt lat="29.54679" lon="103.339337"><ele>2410.1658</ele><time>2026-07-24T22:36:38.000Z</time></trkpt>
        <trkpt lat="29.546775" lon="103.339322"><ele>2410.3047</ele><time>2026-07-24T22:36:44.000Z</time></trkpt>
        <trkpt lat="29.546774" lon="103.339315"><ele>2411.3481</ele><time>2026-07-24T22:36:52.000Z</time></trkpt>
        <trkpt lat="29.546776" lon="103.339313"><ele>2415.2847</ele><time>2026-07-24T22:37:20.000Z</time></trkpt>
        <trkpt lat="29.546741" lon="103.339337"><ele>2411.819</ele><time>2026-07-24T22:38:23.000Z</time></trkpt>
        <trkpt lat="29.546738" lon="103.339337"><ele>2411.5132</ele><time>2026-07-24T22:38:38.000Z</time></trkpt>
      </trkseg>
      <trkseg>
        <trkpt lat="29.546781" lon="103.339324"><ele>2417.8052</ele><time>2026-07-24T22:49:30.000Z</time></trkpt>
        <trkpt lat="29.546757" lon="103.339303"><ele>2414.5593</ele><time>2026-07-24T22:50:12.000Z</time></trkpt>
        <trkpt lat="29.546758" lon="103.339299"><ele>2414.5073</ele><time>2026-07-24T22:50:14.000Z</time></trkpt>
        <trkpt lat="29.546756" lon="103.339298"><ele>2414.4468</ele><time>2026-07-24T22:50:16.000Z</time></trkpt>
        <trkpt lat="29.546734" lon="103.339271"><ele>2417.2512</ele><time>2026-07-24T22:51:00.000Z</time></trkpt>
        <trkpt lat="29.546715" lon="103.339249"><ele>2417.1875</ele><time>2026-07-24T22:51:16.000Z</time></trkpt>
        <trkpt lat="29.546704" lon="103.33923"><ele>2419.576</ele><time>2026-07-24T22:51:32.000Z</time></trkpt>
        <trkpt lat="29.546688" lon="103.339191"><ele>2421.4053</ele><time>2026-07-24T22:51:48.000Z</time></trkpt>
        <trkpt lat="29.546675" lon="103.339158"><ele>2423.2688</ele><time>2026-07-24T22:52:03.000Z</time></trkpt>
        <trkpt lat="29.546662" lon="103.339122"><ele>2424.3374</ele><time>2026-07-24T22:52:14.000Z</time></trkpt>
        <trkpt lat="29.546658" lon="103.339116"><ele>2424.7964</ele><time>2026-07-24T22:52:16.000Z</time></trkpt>
        <trkpt lat="29.546654" lon="103.339111"><ele>2425.4312</ele><time>2026-07-24T22:52:18.000Z</time></trkpt>
        <trkpt lat="29.546638" lon="103.339095"><ele>2425.5408</ele><time>2026-07-24T22:52:24.000Z</time></trkpt>
        <trkpt lat="29.546635" lon="103.339093"><ele>2425.9917</ele><time>2026-07-24T22:52:26.000Z</time></trkpt>
        <trkpt lat="29.54663" lon="103.339086"><ele>2425.9072</ele><time>2026-07-24T22:52:30.000Z</time></trkpt>
        <trkpt lat="29.546614" lon="103.339066"><ele>2426.4495</ele><time>2026-07-24T22:52:36.000Z</time></trkpt>
        <trkpt lat="29.54661" lon="103.33906"><ele>2426.4822</ele><time>2026-07-24T22:52:38.000Z</time></trkpt>
        <trkpt lat="29.546607" lon="103.339055"><ele>2427.247</ele><time>2026-07-24T22:52:40.000Z</time></trkpt>
        <trkpt lat="29.546594" lon="103.339036"><ele>2427.5554</ele><time>2026-07-24T22:52:43.000Z</time></trkpt>
        <trkpt lat="29.546586" lon="103.339024"><ele>2428.6672</ele><time>2026-07-24T22:52:49.000Z</time></trkpt>
        <trkpt lat="29.546578" lon="103.339013"><ele>2428.771</ele><time>2026-07-24T22:52:51.000Z</time></trkpt>
        <trkpt lat="29.546571" lon="103.339002"><ele>2428.6506</ele><time>2026-07-24T22:52:53.000Z</time></trkpt>
        <trkpt lat="29.546566" lon="103.338995"><ele>2428.8909</ele><time>2026-07-24T22:52:55.000Z</time></trkpt>
        <trkpt lat="29.546559" lon="103.338985"><ele>2428.6113</ele><time>2026-07-24T22:53:01.000Z</time></trkpt>
        <trkpt lat="29.546552" lon="103.338971"><ele>2428.9927</ele><time>2026-07-24T22:53:07.000Z</time></trkpt>
        <trkpt lat="29.546547" lon="103.338964"><ele>2428.6335</ele><time>2026-07-24T22:53:11.000Z</time></trkpt>
        <trkpt lat="29.546542" lon="103.338955"><ele>2429.6902</ele><time>2026-07-24T22:53:17.000Z</time></trkpt>
        <trkpt lat="29.546527" lon="103.338934"><ele>2430.6116</ele><time>2026-07-24T22:53:35.000Z</time></trkpt>
        <trkpt lat="29.546508" lon="103.338911"><ele>2430.5732</ele><time>2026-07-24T22:53:51.000Z</time></trkpt>
        <trkpt lat="29.546486" lon="103.338884"><ele>2433.2769</ele><time>2026-07-24T22:54:06.000Z</time></trkpt>
        <trkpt lat="29.546461" lon="103.338859"><ele>2435.7112</ele><time>2026-07-24T22:54:22.000Z</time></trkpt>
        <trkpt lat="29.546436" lon="103.338838"><ele>2437.2236</ele><time>2026-07-24T22:54:38.000Z</time></trkpt>
        <trkpt lat="29.546408" lon="103.338821"><ele>2438.2139</ele><time>2026-07-24T22:54:54.000Z</time></trkpt>
        <trkpt lat="29.546383" lon="103.338801"><ele>2440.0579</ele><time>2026-07-24T22:55:10.000Z</time></trkpt>
        <trkpt lat="29.546357" lon="103.338776"><ele>2442.9766</ele><time>2026-07-24T22:55:26.000Z</time></trkpt>
        <trkpt lat="29.546339" lon="103.338751"><ele>2443.963</ele><time>2026-07-24T22:55:42.000Z</time></trkpt>
        <trkpt lat="29.546327" lon="103.338733"><ele>2444.9658</ele><time>2026-07-24T22:55:49.000Z</time></trkpt>
        <trkpt lat="29.546324" lon="103.338728"><ele>2445.3494</ele><time>2026-07-24T22:55:51.000Z</time></trkpt>
        <trkpt lat="29.546321" lon="103.338722"><ele>2445.4846</ele><time>2026-07-24T22:55:53.000Z</time></trkpt>
        <trkpt lat="29.546305" lon="103.338699"><ele>2447.0823</ele><time>2026-07-24T22:56:01.000Z</time></trkpt>
        <trkpt lat="29.546301" lon="103.338694"><ele>2446.7751</ele><time>2026-07-24T22:56:03.000Z</time></trkpt>
        <trkpt lat="29.546298" lon="103.338688"><ele>2446.9219</ele><time>2026-07-24T22:56:05.000Z</time></trkpt>
        <trkpt lat="29.546288" lon="103.338667"><ele>2448.2297</ele><time>2026-07-24T22:56:09.000Z</time></trkpt>
        <trkpt lat="29.546285" lon="103.338662"><ele>2447.9868</ele><time>2026-07-24T22:56:15.000Z</time></trkpt>
        <trkpt lat="29.546282" lon="103.338656"><ele>2447.3774</ele><time>2026-07-24T22:56:17.000Z</time></trkpt>
        <trkpt lat="29.546264" lon="103.338627"><ele>2447.4573</ele><time>2026-07-24T22:56:21.000Z</time></trkpt>
        <trkpt lat="29.546264" lon="103.338627"><ele>2447.9014</ele><time>2026-07-24T22:56:23.000Z</time></trkpt>
        <trkpt lat="29.546264" lon="103.338626"><ele>2448.47</ele><time>2026-07-24T22:56:25.000Z</time></trkpt>
        <trkpt lat="29.546251" lon="103.33859"><ele>2449.0906</ele><time>2026-07-24T22:56:37.000Z</time></trkpt>
        <trkpt lat="29.546249" lon="103.338585"><ele>2448.9775</ele><time>2026-07-24T22:56:39.000Z</time></trkpt>
        <trkpt lat="29.546247" lon="103.338579"><ele>2449.1733</ele><time>2026-07-24T22:56:41.000Z</time></trkpt>
        <trkpt lat="29.546239" lon="103.338551"><ele>2449.2468</ele><time>2026-07-24T22:56:49.000Z</time></trkpt>
        <trkpt lat="29.546236" lon="103.338543"><ele>2449.4116</ele><time>2026-07-24T22:56:51.000Z</time></trkpt>
        <trkpt lat="29.546233" lon="103.338535"><ele>2449.4993</ele><time>2026-07-24T22:56:53.000Z</time></trkpt>
        <trkpt lat="29.546224" lon="103.338513"><ele>2449.8582</ele><time>2026-07-24T22:56:57.000Z</time></trkpt>
        <trkpt lat="29.54622" lon="103.338505"><ele>2450.159</ele><time>2026-07-24T22:56:59.000Z</time></trkpt>
        <trkpt lat="29.546217" lon="103.338497"><ele>2450.5352</ele><time>2026-07-24T22:57:01.000Z</time></trkpt>
        <trkpt lat="29.54621" lon="103.338476"><ele>2451.7102</ele><time>2026-07-24T22:57:09.000Z</time></trkpt>
        <trkpt lat="29.546208" lon="103.33847"><ele>2452.1284</ele><time>2026-07-24T22:57:11.000Z</time></trkpt>
        <trkpt lat="29.546206" lon="103.338462"><ele>2452.6814</ele><time>2026-07-24T22:57:13.000Z</time></trkpt>
        <trkpt lat="29.546198" lon="103.338437"><ele>2453.6602</ele><time>2026-07-24T22:57:21.000Z</time></trkpt>
        <trkpt lat="29.546195" lon="103.338428"><ele>2454.0002</ele><time>2026-07-24T22:57:23.000Z</time></trkpt>
        <trkpt lat="29.546192" lon="103.338414"><ele>2454.26</ele><time>2026-07-24T22:57:25.000Z</time></trkpt>
        <trkpt lat="29.546193" lon="103.338404"><ele>2454.9531</ele><time>2026-07-24T22:57:31.000Z</time></trkpt>
        <trkpt lat="29.546195" lon="103.338382"><ele>2455.4446</ele><time>2026-07-24T22:57:33.000Z</time></trkpt>
        <trkpt lat="29.546195" lon="103.33838"><ele>2455.5322</ele><time>2026-07-24T22:57:35.000Z</time></trkpt>
        <trkpt lat="29.546195" lon="103.338368"><ele>2455.7432</ele><time>2026-07-24T22:57:39.000Z</time></trkpt>
        <trkpt lat="29.546195" lon="103.33834"><ele>2456.1829</ele><time>2026-07-24T22:57:43.000Z</time></trkpt>
        <trkpt lat="29.546196" lon="103.338327"><ele>2456.4731</ele><time>2026-07-24T22:57:45.000Z</time></trkpt>
        <trkpt lat="29.546195" lon="103.338316"><ele>2456.645</ele><time>2026-07-24T22:57:47.000Z</time></trkpt>
        <trkpt lat="29.546196" lon="103.338296"><ele>2456.88</ele><time>2026-07-24T22:57:51.000Z</time></trkpt>
        <trkpt lat="29.546197" lon="103.338288"><ele>2456.9143</ele><time>2026-07-24T22:57:53.000Z</time></trkpt>
        <trkpt lat="29.5462" lon="103.338277"><ele>2457.7722</ele><time>2026-07-24T22:57:57.000Z</time></trkpt>
        <trkpt lat="29.546205" lon="103.338263"><ele>2457.7463</ele><time>2026-07-24T22:58:01.000Z</time></trkpt>
        <trkpt lat="29.54621" lon="103.338254"><ele>2458.1665</ele><time>2026-07-24T22:58:05.000Z</time></trkpt>
        <trkpt lat="29.546215" lon="103.338245"><ele>2458.5605</ele><time>2026-07-24T22:58:09.000Z</time></trkpt>
        <trkpt lat="29.546218" lon="103.338231"><ele>2459.3582</ele><time>2026-07-24T22:58:17.000Z</time></trkpt>
        <trkpt lat="29.546233" lon="103.338183"><ele>2463.4082</ele><time>2026-07-24T22:58:37.000Z</time></trkpt>
        <trkpt lat="29.546246" lon="103.338145"><ele>2464.9866</ele><time>2026-07-24T22:58:48.000Z</time></trkpt>
        <trkpt lat="29.546247" lon="103.338143"><ele>2465.454</ele><time>2026-07-24T22:58:50.000Z</time></trkpt>
        <trkpt lat="29.546247" lon="103.338141"><ele>2465.5896</ele><time>2026-07-24T22:58:52.000Z</time></trkpt>
        <trkpt lat="29.546249" lon="103.338109"><ele>2467.435</ele><time>2026-07-24T22:59:00.000Z</time></trkpt>
        <trkpt lat="29.546249" lon="103.338101"><ele>2466.8086</ele><time>2026-07-24T22:59:02.000Z</time></trkpt>
        <trkpt lat="29.54625" lon="103.338096"><ele>2467.7998</ele><time>2026-07-24T22:59:04.000Z</time></trkpt>
        <trkpt lat="29.546259" lon="103.338059"><ele>2468.0132</ele><time>2026-07-24T22:59:10.000Z</time></trkpt>
        <trkpt lat="29.546259" lon="103.338059"><ele>2468.0151</ele><time>2026-07-24T22:59:12.000Z</time></trkpt>
        <trkpt lat="29.546261" lon="103.338056"><ele>2469.0447</ele><time>2026-07-24T22:59:14.000Z</time></trkpt>
        <trkpt lat="29.546281" lon="103.338025"><ele>2468.6228</ele><time>2026-07-24T22:59:18.000Z</time></trkpt>
        <trkpt lat="29.546291" lon="103.338008"><ele>2468.0789</ele><time>2026-07-24T22:59:20.000Z</time></trkpt>
        <trkpt lat="29.546304" lon="103.337989"><ele>2467.3235</ele><time>2026-07-24T22:59:22.000Z</time></trkpt>
        <trkpt lat="29.546315" lon="103.337975"><ele>2467.294</ele><time>2026-07-24T22:59:24.000Z</time></trkpt>
        <trkpt lat="29.546326" lon="103.337962"><ele>2467.1213</ele><time>2026-07-24T22:59:26.000Z</time></trkpt>
        <trkpt lat="29.546337" lon="103.337948"><ele>2466.7512</ele><time>2026-07-24T22:59:28.000Z</time></trkpt>
        <trkpt lat="29.546347" lon="103.33793"><ele>2466.4404</ele><time>2026-07-24T22:59:30.000Z</time></trkpt>
        <trkpt lat="29.546358" lon="103.337912"><ele>2465.975</ele><time>2026-07-24T22:59:32.000Z</time></trkpt>
        <trkpt lat="29.546368" lon="103.337894"><ele>2466.1394</ele><time>2026-07-24T22:59:34.000Z</time></trkpt>
        <trkpt lat="29.546375" lon="103.337879"><ele>2466.873</ele><time>2026-07-24T22:59:36.000Z</time></trkpt>
        <trkpt lat="29.546382" lon="103.337861"><ele>2466.8892</ele><time>2026-07-24T22:59:38.000Z</time></trkpt>
        <trkpt lat="29.54639" lon="103.33784"><ele>2466.929</ele><time>2026-07-24T22:59:40.000Z</time></trkpt>
        <trkpt lat="29.546398" lon="103.337819"><ele>2467.096</ele><time>2026-07-24T22:59:42.000Z</time></trkpt>
        <trkpt lat="29.546406" lon="103.337799"><ele>2467.569</ele><time>2026-07-24T22:59:44.000Z</time></trkpt>
        <trkpt lat="29.546413" lon="103.33778"><ele>2468.042</ele><time>2026-07-24T22:59:46.000Z</time></trkpt>
        <trkpt lat="29.546419" lon="103.337761"><ele>2468.1921</ele><time>2026-07-24T22:59:48.000Z</time></trkpt>
        <trkpt lat="29.546422" lon="103.337745"><ele>2468.1118</ele><time>2026-07-24T22:59:50.000Z</time></trkpt>
        <trkpt lat="29.546425" lon="103.33773"><ele>2468.1985</ele><time>2026-07-24T22:59:52.000Z</time></trkpt>
        <trkpt lat="29.546427" lon="103.337713"><ele>2467.7456</ele><time>2026-07-24T22:59:54.000Z</time></trkpt>
        <trkpt lat="29.54643" lon="103.337696"><ele>2468.4158</ele><time>2026-07-24T22:59:56.000Z</time></trkpt>
        <trkpt lat="29.546434" lon="103.33768"><ele>2468.7534</ele><time>2026-07-24T22:59:58.000Z</time></trkpt>
        <trkpt lat="29.54644" lon="103.337662"><ele>2468.6436</ele><time>2026-07-24T23:00:00.000Z</time></trkpt>
        <trkpt lat="29.546448" lon="103.337643"><ele>2468.9333</ele><time>2026-07-24T23:00:02.000Z</time></trkpt>
        <trkpt lat="29.546457" lon="103.33762"><ele>2468.7332</ele><time>2026-07-24T23:00:04.000Z</time></trkpt>
        <trkpt lat="29.546467" lon="103.3376"><ele>2469.2195</ele><time>2026-07-24T23:00:06.000Z</time></trkpt>
        <trkpt lat="29.546479" lon="103.337582"><ele>2469.003</ele><time>2026-07-24T23:00:08.000Z</time></trkpt>
        <trkpt lat="29.546492" lon="103.337567"><ele>2469.1633</ele><time>2026-07-24T23:00:10.000Z</time></trkpt>
        <trkpt lat="29.546509" lon="103.337549"><ele>2468.21</ele><time>2026-07-24T23:00:12.000Z</time></trkpt>
        <trkpt lat="29.546527" lon="103.337528"><ele>2467.6885</ele><time>2026-07-24T23:00:14.000Z</time></trkpt>
        <trkpt lat="29.546542" lon="103.337506"><ele>2467.2742</ele><time>2026-07-24T23:00:16.000Z</time></trkpt>
        <trkpt lat="29.546553" lon="103.337484"><ele>2467.419</ele><time>2026-07-24T23:00:18.000Z</time></trkpt>
        <trkpt lat="29.546562" lon="103.337463"><ele>2467.098</ele><time>2026-07-24T23:00:20.000Z</time></trkpt>
        <trkpt lat="29.546568" lon="103.337443"><ele>2467.1838</ele><time>2026-07-24T23:00:22.000Z</time></trkpt>
        <trkpt lat="29.546573" lon="103.337424"><ele>2467.2903</ele><time>2026-07-24T23:00:24.000Z</time></trkpt>
        <trkpt lat="29.546577" lon="103.337406"><ele>2467.3389</ele><time>2026-07-24T23:00:26.000Z</time></trkpt>
        <trkpt lat="29.546581" lon="103.337392"><ele>2467.6638</ele><time>2026-07-24T23:00:28.000Z</time></trkpt>
        <trkpt lat="29.546585" lon="103.337377"><ele>2467.8704</ele><time>2026-07-24T23:00:30.000Z</time></trkpt>
        <trkpt lat="29.546589" lon="103.33736"><ele>2467.6516</ele><time>2026-07-24T23:00:32.000Z</time></trkpt>
        <trkpt lat="29.546593" lon="103.337337"><ele>2467.4673</ele><time>2026-07-24T23:00:34.000Z</time></trkpt>
        <trkpt lat="29.546596" lon="103.337312"><ele>2467.3228</ele><time>2026-07-24T23:00:36.000Z</time></trkpt>
        <trkpt lat="29.546598" lon="103.337286"><ele>2467.5881</ele><time>2026-07-24T23:00:38.000Z</time></trkpt>
        <trkpt lat="29.546598" lon="103.337262"><ele>2467.652</ele><time>2026-07-24T23:00:40.000Z</time></trkpt>
        <trkpt lat="29.546598" lon="103.337244"><ele>2467.825</ele><time>2026-07-24T23:00:42.000Z</time></trkpt>
        <trkpt lat="29.546596" lon="103.337227"><ele>2468.2908</ele><time>2026-07-24T23:00:44.000Z</time></trkpt>
        <trkpt lat="29.546594" lon="103.337209"><ele>2468.3936</ele><time>2026-07-24T23:00:46.000Z</time></trkpt>
        <trkpt lat="29.546592" lon="103.337192"><ele>2468.326</ele><time>2026-07-24T23:00:48.000Z</time></trkpt>
        <trkpt lat="29.546591" lon="103.337173"><ele>2468.7017</ele><time>2026-07-24T23:00:50.000Z</time></trkpt>
        <trkpt lat="29.54659" lon="103.337157"><ele>2468.5627</ele><time>2026-07-24T23:00:52.000Z</time></trkpt>
        <trkpt lat="29.546589" lon="103.337145"><ele>2468.7622</ele><time>2026-07-24T23:00:54.000Z</time></trkpt>
        <trkpt lat="29.546591" lon="103.337135"><ele>2468.6682</ele><time>2026-07-24T23:00:56.000Z</time></trkpt>
        <trkpt lat="29.546591" lon="103.337113"><ele>2468.708</ele><time>2026-07-24T23:01:00.000Z</time></trkpt>
        <trkpt lat="29.546589" lon="103.337104"><ele>2468.3486</ele><time>2026-07-24T23:01:02.000Z</time></trkpt>
        <trkpt lat="29.546586" lon="103.3371"><ele>2468.631</ele><time>2026-07-24T23:01:04.000Z</time></trkpt>
        <trkpt lat="29.546553" lon="103.337067"><ele>2469.9346</ele><time>2026-07-24T23:02:15.000Z</time></trkpt>
        <trkpt lat="29.546543" lon="103.337057"><ele>2469.3613</ele><time>2026-07-24T23:02:17.000Z</time></trkpt>
        <trkpt lat="29.546542" lon="103.337056"><ele>2468.1414</ele><time>2026-07-24T23:02:19.000Z</time></trkpt>
        <trkpt lat="29.54653" lon="103.337039"><ele>2468.3748</ele><time>2026-07-24T23:02:24.000Z</time></trkpt>
        <trkpt lat="29.546515" lon="103.337021"><ele>2467.707</ele><time>2026-07-24T23:02:26.000Z</time></trkpt>
        <trkpt lat="29.5465" lon="103.337004"><ele>2467.2578</ele><time>2026-07-24T23:02:28.000Z</time></trkpt>
        <trkpt lat="29.546485" lon="103.336985"><ele>2467.4402</ele><time>2026-07-24T23:02:30.000Z</time></trkpt>
        <trkpt lat="29.546475" lon="103.336967"><ele>2466.3462</ele><time>2026-07-24T23:02:32.000Z</time></trkpt>
        <trkpt lat="29.546468" lon="103.336949"><ele>2467.9033</ele><time>2026-07-24T23:02:34.000Z</time></trkpt>
        <trkpt lat="29.546464" lon="103.33693"><ele>2467.8408</ele><time>2026-07-24T23:02:36.000Z</time></trkpt>
        <trkpt lat="29.546459" lon="103.336905"><ele>2467.8179</ele><time>2026-07-24T23:02:38.000Z</time></trkpt>
        <trkpt lat="29.546453" lon="103.33688"><ele>2467.3542</ele><time>2026-07-24T23:02:40.000Z</time></trkpt>
        <trkpt lat="29.546449" lon="103.336861"><ele>2466.0264</ele><time>2026-07-24T23:02:42.000Z</time></trkpt>
        <trkpt lat="29.546448" lon="103.336843"><ele>2466.4302</ele><time>2026-07-24T23:02:44.000Z</time></trkpt>
        <trkpt lat="29.546447" lon="103.336825"><ele>2466.4622</ele><time>2026-07-24T23:02:46.000Z</time></trkpt>
        <trkpt lat="29.546444" lon="103.336804"><ele>2466.0535</ele><time>2026-07-24T23:02:48.000Z</time></trkpt>
        <trkpt lat="29.546439" lon="103.336778"><ele>2466.6292</ele><time>2026-07-24T23:02:50.000Z</time></trkpt>
        <trkpt lat="29.546433" lon="103.336755"><ele>2467.0168</ele><time>2026-07-24T23:02:52.000Z</time></trkpt>
        <trkpt lat="29.546427" lon="103.336735"><ele>2466.512</ele><time>2026-07-24T23:02:54.000Z</time></trkpt>
        <trkpt lat="29.546425" lon="103.336725"><ele>2466.145</ele><time>2026-07-24T23:02:56.000Z</time></trkpt>
        <trkpt lat="29.546426" lon="103.336719"><ele>2465.9998</ele><time>2026-07-24T23:02:58.000Z</time></trkpt>
        <trkpt lat="29.546432" lon="103.336701"><ele>2465.0823</ele><time>2026-07-24T23:03:02.000Z</time></trkpt>
        <trkpt lat="29.546432" lon="103.336688"><ele>2464.3567</ele><time>2026-07-24T23:03:04.000Z</time></trkpt>
        <trkpt lat="29.546431" lon="103.336671"><ele>2463.7327</ele><time>2026-07-24T23:03:06.000Z</time></trkpt>
        <trkpt lat="29.54643" lon="103.336665"><ele>2463.8064</ele><time>2026-07-24T23:03:10.000Z</time></trkpt>
        <trkpt lat="29.546427" lon="103.336654"><ele>2463.859</ele><time>2026-07-24T23:03:12.000Z</time></trkpt>
        <trkpt lat="29.546424" lon="103.336638"><ele>2462.0708</ele><time>2026-07-24T23:03:14.000Z</time></trkpt>
        <trkpt lat="29.546423" lon="103.336619"><ele>2460.6338</ele><time>2026-07-24T23:03:16.000Z</time></trkpt>
        <trkpt lat="29.546426" lon="103.3366"><ele>2460.5244</ele><time>2026-07-24T23:03:18.000Z</time></trkpt>
        <trkpt lat="29.546436" lon="103.33658"><ele>2461.0352</ele><time>2026-07-24T23:03:20.000Z</time></trkpt>
        <trkpt lat="29.546449" lon="103.336558"><ele>2460.8228</ele><time>2026-07-24T23:03:22.000Z</time></trkpt>
        <trkpt lat="29.54646" lon="103.336539"><ele>2460.3433</ele><time>2026-07-24T23:03:24.000Z</time></trkpt>
        <trkpt lat="29.546469" lon="103.336521"><ele>2460.5435</ele><time>2026-07-24T23:03:25.000Z</time></trkpt>
        <trkpt lat="29.546475" lon="103.33651"><ele>2459.9148</ele><time>2026-07-24T23:03:27.000Z</time></trkpt>
        <trkpt lat="29.546477" lon="103.336501"><ele>2460.1792</ele><time>2026-07-24T23:03:29.000Z</time></trkpt>
        <trkpt lat="29.546482" lon="103.33649"><ele>2458.8071</ele><time>2026-07-24T23:03:33.000Z</time></trkpt>
        <trkpt lat="29.546488" lon="103.336474"><ele>2457.5542</ele><time>2026-07-24T23:03:37.000Z</time></trkpt>
        <trkpt lat="29.546492" lon="103.336461"><ele>2458.1418</ele><time>2026-07-24T23:03:39.000Z</time></trkpt>
        <trkpt lat="29.546493" lon="103.336456"><ele>2457.772</ele><time>2026-07-24T23:03:43.000Z</time></trkpt>
        <trkpt lat="29.546499" lon="103.336426"><ele>2457.1194</ele><time>2026-07-24T23:03:47.000Z</time></trkpt>
        <trkpt lat="29.546503" lon="103.336407"><ele>2458.6013</ele><time>2026-07-24T23:03:49.000Z</time></trkpt>
        <trkpt lat="29.546506" lon="103.336387"><ele>2458.9446</ele><time>2026-07-24T23:03:51.000Z</time></trkpt>
        <trkpt lat="29.546508" lon="103.336366"><ele>2459.6987</ele><time>2026-07-24T23:03:53.000Z</time></trkpt>
        <trkpt lat="29.546509" lon="103.336349"><ele>2459.838</ele><time>2026-07-24T23:03:55.000Z</time></trkpt>
        <trkpt lat="29.546509" lon="103.336336"><ele>2457.1235</ele><time>2026-07-24T23:03:57.000Z</time></trkpt>
        <trkpt lat="29.546508" lon="103.336322"><ele>2456.443</ele><time>2026-07-24T23:03:59.000Z</time></trkpt>
        <trkpt lat="29.546505" lon="103.33631"><ele>2457.7092</ele><time>2026-07-24T23:04:01.000Z</time></trkpt>
        <trkpt lat="29.546501" lon="103.3363"><ele>2454.7637</ele><time>2026-07-24T23:04:03.000Z</time></trkpt>
        <trkpt lat="29.546498" lon="103.336286"><ele>2455.4314</ele><time>2026-07-24T23:04:05.000Z</time></trkpt>
        <trkpt lat="29.546498" lon="103.336271"><ele>2454.4631</ele><time>2026-07-24T23:04:07.000Z</time></trkpt>
        <trkpt lat="29.5465" lon="103.336247"><ele>2455.896</ele><time>2026-07-24T23:04:09.000Z</time></trkpt>
        <trkpt lat="29.546503" lon="103.336225"><ele>2455.0144</ele><time>2026-07-24T23:04:11.000Z</time></trkpt>
        <trkpt lat="29.546507" lon="103.336204"><ele>2455.4924</ele><time>2026-07-24T23:04:13.000Z</time></trkpt>
        <trkpt lat="29.546514" lon="103.336187"><ele>2454.7346</ele><time>2026-07-24T23:04:15.000Z</time></trkpt>
        <trkpt lat="29.546521" lon="103.33617"><ele>2456.163</ele><time>2026-07-24T23:04:17.000Z</time></trkpt>
        <trkpt lat="29.54653" lon="103.336157"><ele>2453.6597</ele><time>2026-07-24T23:04:19.000Z</time></trkpt>
        <trkpt lat="29.546544" lon="103.336141"><ele>2454.303</ele><time>2026-07-24T23:04:21.000Z</time></trkpt>
        <trkpt lat="29.546559" lon="103.336125"><ele>2455.5408</ele><time>2026-07-24T23:04:23.000Z</time></trkpt>
        <trkpt lat="29.546569" lon="103.336113"><ele>2457.424</ele><time>2026-07-24T23:04:25.000Z</time></trkpt>
        <trkpt lat="29.546577" lon="103.336102"><ele>2455.232</ele><time>2026-07-24T23:04:27.000Z</time></trkpt>
        <trkpt lat="29.546583" lon="103.336085"><ele>2454.694</ele><time>2026-07-24T23:04:29.000Z</time></trkpt>
        <trkpt lat="29.546587" lon="103.336066"><ele>2454.724</ele><time>2026-07-24T23:04:31.000Z</time></trkpt>
        <trkpt lat="29.546588" lon="103.336045"><ele>2453.4036</ele><time>2026-07-24T23:04:33.000Z</time></trkpt>
        <trkpt lat="29.546591" lon="103.336025"><ele>2450.8171</ele><time>2026-07-24T23:04:35.000Z</time></trkpt>
        <trkpt lat="29.546595" lon="103.336005"><ele>2452.149</ele><time>2026-07-24T23:04:37.000Z</time></trkpt>
        <trkpt lat="29.546602" lon="103.335982"><ele>2451.0103</ele><time>2026-07-24T23:04:39.000Z</time></trkpt>
        <trkpt lat="29.546611" lon="103.335958"><ele>2450.652</ele><time>2026-07-24T23:04:41.000Z</time></trkpt>
        <trkpt lat="29.54662" lon="103.335934"><ele>2450.7507</ele><time>2026-07-24T23:04:43.000Z</time></trkpt>
        <trkpt lat="29.546631" lon="103.335908"><ele>2451.0586</ele><time>2026-07-24T23:04:45.000Z</time></trkpt>
        <trkpt lat="29.546639" lon="103.335883"><ele>2449.7168</ele><time>2026-07-24T23:04:47.000Z</time></trkpt>
        <trkpt lat="29.546644" lon="103.335858"><ele>2448.36</ele><time>2026-07-24T23:04:49.000Z</time></trkpt>
        <trkpt lat="29.546649" lon="103.335834"><ele>2448.5005</ele><time>2026-07-24T23:04:51.000Z</time></trkpt>
        <trkpt lat="29.546654" lon="103.335814"><ele>2446.383</ele><time>2026-07-24T23:04:53.000Z</time></trkpt>
        <trkpt lat="29.54666" lon="103.335792"><ele>2446.1438</ele><time>2026-07-24T23:04:55.000Z</time></trkpt>
        <trkpt lat="29.546665" lon="103.335767"><ele>2445.6768</ele><time>2026-07-24T23:04:57.000Z</time></trkpt>
        <trkpt lat="29.546666" lon="103.335741"><ele>2446.9504</ele><time>2026-07-24T23:04:59.000Z</time></trkpt>
        <trkpt lat="29.546664" lon="103.335724"><ele>2445.3362</ele><time>2026-07-24T23:05:01.000Z</time></trkpt>
        <trkpt lat="29.546661" lon="103.335709"><ele>2444.6328</ele><time>2026-07-24T23:05:03.000Z</time></trkpt>
        <trkpt lat="29.546661" lon="103.335691"><ele>2444.5378</ele><time>2026-07-24T23:05:05.000Z</time></trkpt>
        <trkpt lat="29.546663" lon="103.335673"><ele>2445.0623</ele><time>2026-07-24T23:05:07.000Z</time></trkpt>
        <trkpt lat="29.546668" lon="103.335653"><ele>2444.8875</ele><time>2026-07-24T23:05:09.000Z</time></trkpt>
        <trkpt lat="29.546676" lon="103.33563"><ele>2444.5793</ele><time>2026-07-24T23:05:11.000Z</time></trkpt>
        <trkpt lat="29.546687" lon="103.335608"><ele>2443.9658</ele><time>2026-07-24T23:05:13.000Z</time></trkpt>
        <trkpt lat="29.546698" lon="103.335586"><ele>2443.231</ele><time>2026-07-24T23:05:15.000Z</time></trkpt>
        <trkpt lat="29.546709" lon="103.335561"><ele>2444.0625</ele><time>2026-07-24T23:05:17.000Z</time></trkpt>
        <trkpt lat="29.546716" lon="103.335538"><ele>2444.1697</ele><time>2026-07-24T23:05:19.000Z</time></trkpt>
        <trkpt lat="29.546721" lon="103.335515"><ele>2444.0503</ele><time>2026-07-24T23:05:21.000Z</time></trkpt>
        <trkpt lat="29.546727" lon="103.335491"><ele>2444.804</ele><time>2026-07-24T23:05:23.000Z</time></trkpt>
        <trkpt lat="29.546734" lon="103.335466"><ele>2445.5054</ele><time>2026-07-24T23:05:25.000Z</time></trkpt>
        <trkpt lat="29.546741" lon="103.335443"><ele>2444.1948</ele><time>2026-07-24T23:05:27.000Z</time></trkpt>
        <trkpt lat="29.546746" lon="103.33543"><ele>2445.557</ele><time>2026-07-24T23:05:29.000Z</time></trkpt>
        <trkpt lat="29.546747" lon="103.335425"><ele>2445.3706</ele><time>2026-07-24T23:05:31.000Z</time></trkpt>
        <trkpt lat="29.546751" lon="103.335405"><ele>2445.7124</ele><time>2026-07-24T23:05:37.000Z</time></trkpt>
        <trkpt lat="29.546754" lon="103.335392"><ele>2444.9268</ele><time>2026-07-24T23:05:39.000Z</time></trkpt>
        <trkpt lat="29.54676" lon="103.335372"><ele>2446.5874</ele><time>2026-07-24T23:05:41.000Z</time></trkpt>
        <trkpt lat="29.546764" lon="103.335353"><ele>2445.0037</ele><time>2026-07-24T23:05:43.000Z</time></trkpt>
        <trkpt lat="29.546768" lon="103.335336"><ele>2443.534</ele><time>2026-07-24T23:05:45.000Z</time></trkpt>
        <trkpt lat="29.546771" lon="103.33532"><ele>2443.0986</ele><time>2026-07-24T23:05:47.000Z</time></trkpt>
        <trkpt lat="29.546775" lon="103.335304"><ele>2442.5806</ele><time>2026-07-24T23:05:49.000Z</time></trkpt>
        <trkpt lat="29.546779" lon="103.335288"><ele>2441.964</ele><time>2026-07-24T23:05:51.000Z</time></trkpt>
        <trkpt lat="29.546783" lon="103.335272"><ele>2440.0364</ele><time>2026-07-24T23:05:53.000Z</time></trkpt>
        <trkpt lat="29.546787" lon="103.335259"><ele>2439.8796</ele><time>2026-07-24T23:05:55.000Z</time></trkpt>
        <trkpt lat="29.546791" lon="103.335241"><ele>2440.7068</ele><time>2026-07-24T23:05:57.000Z</time></trkpt>
        <trkpt lat="29.546794" lon="103.335222"><ele>2439.2588</ele><time>2026-07-24T23:05:59.000Z</time></trkpt>
        <trkpt lat="29.546794" lon="103.335202"><ele>2438.738</ele><time>2026-07-24T23:06:01.000Z</time></trkpt>
        <trkpt lat="29.546793" lon="103.33518"><ele>2439.921</ele><time>2026-07-24T23:06:03.000Z</time></trkpt>
        <trkpt lat="29.546791" lon="103.335163"><ele>2439.9182</ele><time>2026-07-24T23:06:05.000Z</time></trkpt>
        <trkpt lat="29.546788" lon="103.335149"><ele>2439.204</ele><time>2026-07-24T23:06:07.000Z</time></trkpt>
        <trkpt lat="29.546783" lon="103.335133"><ele>2439.2778</ele><time>2026-07-24T23:06:09.000Z</time></trkpt>
        <trkpt lat="29.546779" lon="103.335121"><ele>2439.1917</ele><time>2026-07-24T23:06:11.000Z</time></trkpt>
        <trkpt lat="29.546774" lon="103.335109"><ele>2438.2405</ele><time>2026-07-24T23:06:13.000Z</time></trkpt>
        <trkpt lat="29.546768" lon="103.335096"><ele>2438.4736</ele><time>2026-07-24T23:06:15.000Z</time></trkpt>
        <trkpt lat="29.546764" lon="103.335084"><ele>2438.214</ele><time>2026-07-24T23:06:17.000Z</time></trkpt>
        <trkpt lat="29.546761" lon="103.335071"><ele>2437.809</ele><time>2026-07-24T23:06:19.000Z</time></trkpt>
        <trkpt lat="29.546757" lon="103.335057"><ele>2438.1624</ele><time>2026-07-24T23:06:21.000Z</time></trkpt>
        <trkpt lat="29.546753" lon="103.335044"><ele>2438.0647</ele><time>2026-07-24T23:06:23.000Z</time></trkpt>
        <trkpt lat="29.546746" lon="103.335031"><ele>2437.5337</ele><time>2026-07-24T23:06:25.000Z</time></trkpt>
        <trkpt lat="29.546735" lon="103.335019"><ele>2437.2612</ele><time>2026-07-24T23:06:27.000Z</time></trkpt>
        <trkpt lat="29.546723" lon="103.335009"><ele>2436.9463</ele><time>2026-07-24T23:06:29.000Z</time></trkpt>
        <trkpt lat="29.546711" lon="103.335001"><ele>2436.6125</ele><time>2026-07-24T23:06:31.000Z</time></trkpt>
        <trkpt lat="29.546698" lon="103.334992"><ele>2436.8438</ele><time>2026-07-24T23:06:33.000Z</time></trkpt>
        <trkpt lat="29.546687" lon="103.334985"><ele>2438.439</ele><time>2026-07-24T23:06:35.000Z</time></trkpt>
        <trkpt lat="29.546676" lon="103.334979"><ele>2436.0454</ele><time>2026-07-24T23:06:37.000Z</time></trkpt>
        <trkpt lat="29.546663" lon="103.334971"><ele>2437.965</ele><time>2026-07-24T23:06:39.000Z</time></trkpt>
        <trkpt lat="29.546647" lon="103.334959"><ele>2437.33</ele><time>2026-07-24T23:06:41.000Z</time></trkpt>
        <trkpt lat="29.546631" lon="103.334945"><ele>2437.692</ele><time>2026-07-24T23:06:43.000Z</time></trkpt>
        <trkpt lat="29.546616" lon="103.334931"><ele>2436.9985</ele><time>2026-07-24T23:06:45.000Z</time></trkpt>
        <trkpt lat="29.546601" lon="103.334917"><ele>2437.0505</ele><time>2026-07-24T23:06:47.000Z</time></trkpt>
        <trkpt lat="29.546588" lon="103.334904"><ele>2435.7114</ele><time>2026-07-24T23:06:49.000Z</time></trkpt>
        <trkpt lat="29.546575" lon="103.334889"><ele>2438.0552</ele><time>2026-07-24T23:06:51.000Z</time></trkpt>
        <trkpt lat="29.546562" lon="103.334876"><ele>2437.528</ele><time>2026-07-24T23:06:53.000Z</time></trkpt>
        <trkpt lat="29.546547" lon="103.334863"><ele>2437.8123</ele><time>2026-07-24T23:06:55.000Z</time></trkpt>
        <trkpt lat="29.546531" lon="103.334852"><ele>2437.3425</ele><time>2026-07-24T23:06:57.000Z</time></trkpt>
        <trkpt lat="29.546515" lon="103.334842"><ele>2437.7302</ele><time>2026-07-24T23:06:59.000Z</time></trkpt>
        <trkpt lat="29.546501" lon="103.334834"><ele>2439.3176</ele><time>2026-07-24T23:07:01.000Z</time></trkpt>
        <trkpt lat="29.546487" lon="103.334825"><ele>2440.2803</ele><time>2026-07-24T23:07:03.000Z</time></trkpt>
        <trkpt lat="29.546484" lon="103.334827"><ele>2439.5115</ele><time>2026-07-24T23:07:05.000Z</time></trkpt>
        <trkpt lat="29.546464" lon="103.334828"><ele>2438.4702</ele><time>2026-07-24T23:07:19.000Z</time></trkpt>
        <trkpt lat="29.546443" lon="103.334824"><ele>2438.0916</ele><time>2026-07-24T23:07:21.000Z</time></trkpt>
        <trkpt lat="29.546421" lon="103.334819"><ele>2439.5718</ele><time>2026-07-24T23:07:23.000Z</time></trkpt>
        <trkpt lat="29.54642" lon="103.334818"><ele>2438.606</ele><time>2026-07-24T23:07:25.000Z</time></trkpt>
        <trkpt lat="29.546405" lon="103.334806"><ele>2438.708</ele><time>2026-07-24T23:07:29.000Z</time></trkpt>
        <trkpt lat="29.546386" lon="103.334795"><ele>2440.0562</ele><time>2026-07-24T23:07:31.000Z</time></trkpt>
        <trkpt lat="29.546371" lon="103.334785"><ele>2440.045</ele><time>2026-07-24T23:07:33.000Z</time></trkpt>
        <trkpt lat="29.54636" lon="103.334779"><ele>2440.4287</ele><time>2026-07-24T23:07:35.000Z</time></trkpt>
        <trkpt lat="29.546352" lon="103.334773"><ele>2440.6555</ele><time>2026-07-24T23:07:37.000Z</time></trkpt>
        <trkpt lat="29.546343" lon="103.33477"><ele>2439.642</ele><time>2026-07-24T23:07:39.000Z</time></trkpt>
        <trkpt lat="29.546336" lon="103.334762"><ele>2440.9138</ele><time>2026-07-24T23:07:45.000Z</time></trkpt>
        <trkpt lat="29.546324" lon="103.334756"><ele>2441.85</ele><time>2026-07-24T23:07:53.000Z</time></trkpt>
        <trkpt lat="29.54631" lon="103.334753"><ele>2442.451</ele><time>2026-07-24T23:08:01.000Z</time></trkpt>
        <trkpt lat="29.546306" lon="103.334756"><ele>2441.6123</ele><time>2026-07-24T23:08:03.000Z</time></trkpt>
        <trkpt lat="29.546289" lon="103.334762"><ele>2442.6047</ele><time>2026-07-24T23:08:12.000Z</time></trkpt>
        <trkpt lat="29.546282" lon="103.334762"><ele>2445.67</ele><time>2026-07-24T23:08:18.000Z</time></trkpt>
        <trkpt lat="29.546274" lon="103.334762"><ele>2445.7139</ele><time>2026-07-24T23:08:24.000Z</time></trkpt>
        <trkpt lat="29.546242" lon="103.334763"><ele>2447.2622</ele><time>2026-07-24T23:08:28.000Z</time></trkpt>
        <trkpt lat="29.546242" lon="103.334763"><ele>2447.937</ele><time>2026-07-24T23:08:30.000Z</time></trkpt>
        <trkpt lat="29.54624" lon="103.334764"><ele>2446.587</ele><time>2026-07-24T23:08:32.000Z</time></trkpt>
        <trkpt lat="29.5462" lon="103.334782"><ele>2445.9966</ele><time>2026-07-24T23:08:38.000Z</time></trkpt>
        <trkpt lat="29.5462" lon="103.334782"><ele>2447.187</ele><time>2026-07-24T23:08:40.000Z</time></trkpt>
        <trkpt lat="29.546196" lon="103.334782"><ele>2447.558</ele><time>2026-07-24T23:08:42.000Z</time></trkpt>
        <trkpt lat="29.546157" lon="103.334781"><ele>2449.0037</ele><time>2026-07-24T23:08:46.000Z</time></trkpt>
        <trkpt lat="29.546137" lon="103.33478"><ele>2448.8975</ele><time>2026-07-24T23:08:48.000Z</time></trkpt>
        <trkpt lat="29.546121" lon="103.334778"><ele>2448.2036</ele><time>2026-07-24T23:08:50.000Z</time></trkpt>
        <trkpt lat="29.546108" lon="103.334776"><ele>2447.5981</ele><time>2026-07-24T23:08:52.000Z</time></trkpt>
        <trkpt lat="29.546105" lon="103.334774"><ele>2447.5408</ele><time>2026-07-24T23:08:54.000Z</time></trkpt>
        <trkpt lat="29.546143" lon="103.334802"><ele>2445.8386</ele><time>2026-07-24T23:09:08.000Z</time></trkpt>
        <trkpt lat="29.546143" lon="103.334803"><ele>2446.0764</ele><time>2026-07-24T23:09:10.000Z</time></trkpt>
        <trkpt lat="29.546144" lon="103.334803"><ele>2446.245</ele><time>2026-07-24T23:09:12.000Z</time></trkpt>
        <trkpt lat="29.546173" lon="103.334798"><ele>2446.6973</ele><time>2026-07-24T23:09:38.000Z</time></trkpt>
        <trkpt lat="29.546113" lon="103.334782"><ele>2446.8828</ele><time>2026-07-24T23:09:57.000Z</time></trkpt>
        <trkpt lat="29.546085" lon="103.334774"><ele>2445.8994</ele><time>2026-07-24T23:09:59.000Z</time></trkpt>
        <trkpt lat="29.546083" lon="103.334773"><ele>2445.2644</ele><time>2026-07-24T23:10:01.000Z</time></trkpt>
        <trkpt lat="29.546079" lon="103.334771"><ele>2444.128</ele><time>2026-07-24T23:10:03.000Z</time></trkpt>
        <trkpt lat="29.546045" lon="103.334753"><ele>2445.552</ele><time>2026-07-24T23:10:07.000Z</time></trkpt>
        <trkpt lat="29.546028" lon="103.334746"><ele>2444.1226</ele><time>2026-07-24T23:10:09.000Z</time></trkpt>
        <trkpt lat="29.546011" lon="103.334738"><ele>2444.9285</ele><time>2026-07-24T23:10:11.000Z</time></trkpt>
        <trkpt lat="29.545995" lon="103.334732"><ele>2444.908</ele><time>2026-07-24T23:10:13.000Z</time></trkpt>
        <trkpt lat="29.545984" lon="103.334729"><ele>2445.1538</ele><time>2026-07-24T23:10:15.000Z</time></trkpt>
        <trkpt lat="29.545974" lon="103.334729"><ele>2445.7927</ele><time>2026-07-24T23:10:17.000Z</time></trkpt>
        <trkpt lat="29.545963" lon="103.334731"><ele>2446.0981</ele><time>2026-07-24T23:10:19.000Z</time></trkpt>
        <trkpt lat="29.545951" lon="103.334733"><ele>2446.5776</ele><time>2026-07-24T23:10:21.000Z</time></trkpt>
        <trkpt lat="29.545941" lon="103.334735"><ele>2446.604</ele><time>2026-07-24T23:10:23.000Z</time></trkpt>
        <trkpt lat="29.545932" lon="103.334731"><ele>2445.0312</ele><time>2026-07-24T23:10:25.000Z</time></trkpt>
        <trkpt lat="29.545919" lon="103.334719"><ele>2444.5923</ele><time>2026-07-24T23:10:29.000Z</time></trkpt>
        <trkpt lat="29.545915" lon="103.334712"><ele>2444.5242</ele><time>2026-07-24T23:10:31.000Z</time></trkpt>
        <trkpt lat="29.545911" lon="103.334703"><ele>2444.0713</ele><time>2026-07-24T23:10:33.000Z</time></trkpt>
        <trkpt lat="29.545902" lon="103.334678"><ele>2444.2344</ele><time>2026-07-24T23:10:37.000Z</time></trkpt>
        <trkpt lat="29.545895" lon="103.334661"><ele>2443.7324</ele><time>2026-07-24T23:10:39.000Z</time></trkpt>
        <trkpt lat="29.54589" lon="103.334645"><ele>2442.9521</ele><time>2026-07-24T23:10:41.000Z</time></trkpt>
        <trkpt lat="29.545884" lon="103.334629"><ele>2442.4304</ele><time>2026-07-24T23:10:43.000Z</time></trkpt>
        <trkpt lat="29.545876" lon="103.33461"><ele>2441.8076</ele><time>2026-07-24T23:10:45.000Z</time></trkpt>
        <trkpt lat="29.545868" lon="103.334596"><ele>2440.169</ele><time>2026-07-24T23:10:47.000Z</time></trkpt>
        <trkpt lat="29.545862" lon="103.334588"><ele>2439.1284</ele><time>2026-07-24T23:10:49.000Z</time></trkpt>
        <trkpt lat="29.545857" lon="103.334584"><ele>2439.3965</ele><time>2026-07-24T23:10:51.000Z</time></trkpt>
        <trkpt lat="29.545839" lon="103.334572"><ele>2438.4995</ele><time>2026-07-24T23:10:59.000Z</time></trkpt>
        <trkpt lat="29.545826" lon="103.334563"><ele>2438.0725</ele><time>2026-07-24T23:11:01.000Z</time></trkpt>
        <trkpt lat="29.545825" lon="103.334562"><ele>2437.5012</ele><time>2026-07-24T23:11:03.000Z</time></trkpt>
        <trkpt lat="29.545809" lon="103.33455"><ele>2436.352</ele><time>2026-07-24T23:11:07.000Z</time></trkpt>
        <trkpt lat="29.545792" lon="103.334536"><ele>2438.3604</ele><time>2026-07-24T23:11:09.000Z</time></trkpt>
        <trkpt lat="29.545771" lon="103.33452"><ele>2437.4075</ele><time>2026-07-24T23:11:11.000Z</time></trkpt>
        <trkpt lat="29.545751" lon="103.334507"><ele>2436.8687</ele><time>2026-07-24T23:11:13.000Z</time></trkpt>
        <trkpt lat="29.545731" lon="103.334493"><ele>2437.1487</ele><time>2026-07-24T23:11:15.000Z</time></trkpt>
        <trkpt lat="29.545711" lon="103.334479"><ele>2437.1162</ele><time>2026-07-24T23:11:17.000Z</time></trkpt>
        <trkpt lat="29.545694" lon="103.334467"><ele>2436.7808</ele><time>2026-07-24T23:11:19.000Z</time></trkpt>
        <trkpt lat="29.545678" lon="103.334458"><ele>2435.8604</ele><time>2026-07-24T23:11:21.000Z</time></trkpt>
        <trkpt lat="29.54566" lon="103.334448"><ele>2435.7437</ele><time>2026-07-24T23:11:23.000Z</time></trkpt>
        <trkpt lat="29.545642" lon="103.334438"><ele>2435.733</ele><time>2026-07-24T23:11:25.000Z</time></trkpt>
        <trkpt lat="29.545626" lon="103.334431"><ele>2435.675</ele><time>2026-07-24T23:11:27.000Z</time></trkpt>
        <trkpt lat="29.545607" lon="103.334422"><ele>2435.5002</ele><time>2026-07-24T23:11:29.000Z</time></trkpt>
        <trkpt lat="29.545591" lon="103.334415"><ele>2434.3208</ele><time>2026-07-24T23:11:31.000Z</time></trkpt>
        <trkpt lat="29.545577" lon="103.33441"><ele>2434.8137</ele><time>2026-07-24T23:11:33.000Z</time></trkpt>
        <trkpt lat="29.54556" lon="103.334405"><ele>2434.3887</ele><time>2026-07-24T23:11:35.000Z</time></trkpt>
        <trkpt lat="29.545543" lon="103.334398"><ele>2434.0142</ele><time>2026-07-24T23:11:37.000Z</time></trkpt>
        <trkpt lat="29.545527" lon="103.33439"><ele>2434.45</ele><time>2026-07-24T23:11:39.000Z</time></trkpt>
        <trkpt lat="29.545512" lon="103.334381"><ele>2434.2478</ele><time>2026-07-24T23:11:41.000Z</time></trkpt>
        <trkpt lat="29.545505" lon="103.334373"><ele>2434.4592</ele><time>2026-07-24T23:11:43.000Z</time></trkpt>
        <trkpt lat="29.545501" lon="103.334368"><ele>2434.0667</ele><time>2026-07-24T23:11:45.000Z</time></trkpt>
        <trkpt lat="29.545491" lon="103.334354"><ele>2434.2212</ele><time>2026-07-24T23:11:49.000Z</time></trkpt>
        <trkpt lat="29.545486" lon="103.334345"><ele>2434.1458</ele><time>2026-07-24T23:11:53.000Z</time></trkpt>
        <trkpt lat="29.545482" lon="103.33434"><ele>2434.9531</ele><time>2026-07-24T23:11:57.000Z</time></trkpt>
        <trkpt lat="29.545469" lon="103.334333"><ele>2435.9116</ele><time>2026-07-24T23:12:01.000Z</time></trkpt>
        <trkpt lat="29.545457" lon="103.334328"><ele>2436.2075</ele><time>2026-07-24T23:12:05.000Z</time></trkpt>
        <trkpt lat="29.545453" lon="103.334326"><ele>2436.633</ele><time>2026-07-24T23:12:07.000Z</time></trkpt>
        <trkpt lat="29.545433" lon="103.33432"><ele>2438.2195</ele><time>2026-07-24T23:12:13.000Z</time></trkpt>
        <trkpt lat="29.545418" lon="103.334311"><ele>2438.377</ele><time>2026-07-24T23:12:15.000Z</time></trkpt>
        <trkpt lat="29.545398" lon="103.334299"><ele>2438.5374</ele><time>2026-07-24T23:12:17.000Z</time></trkpt>
        <trkpt lat="29.545396" lon="103.334299"><ele>2438.4053</ele><time>2026-07-24T23:12:19.000Z</time></trkpt>
        <trkpt lat="29.545391" lon="103.334295"><ele>2438.6252</ele><time>2026-07-24T23:12:21.000Z</time></trkpt>
        <trkpt lat="29.545352" lon="103.334265"><ele>2440.0942</ele><time>2026-07-24T23:12:25.000Z</time></trkpt>
        <trkpt lat="29.545332" lon="103.334247"><ele>2439.3032</ele><time>2026-07-24T23:12:27.000Z</time></trkpt>
        <trkpt lat="29.545314" lon="103.334225"><ele>2440.3801</ele><time>2026-07-24T23:12:29.000Z</time></trkpt>
        <trkpt lat="29.545298" lon="103.334204"><ele>2441.0698</ele><time>2026-07-24T23:12:31.000Z</time></trkpt>
        <trkpt lat="29.545286" lon="103.334188"><ele>2439.4988</ele><time>2026-07-24T23:12:33.000Z</time></trkpt>
        <trkpt lat="29.545275" lon="103.334174"><ele>2439.1616</ele><time>2026-07-24T23:12:35.000Z</time></trkpt>
        <trkpt lat="29.545269" lon="103.334169"><ele>2438.904</ele><time>2026-07-24T23:12:37.000Z</time></trkpt>
        <trkpt lat="29.54526" lon="103.334157"><ele>2438.5215</ele><time>2026-07-24T23:12:49.000Z</time></trkpt>
        <trkpt lat="29.54525" lon="103.334146"><ele>2438.45</ele><time>2026-07-24T23:12:51.000Z</time></trkpt>
        <trkpt lat="29.545222" lon="103.334117"><ele>2439.5562</ele><time>2026-07-24T23:12:55.000Z</time></trkpt>
        <trkpt lat="29.545222" lon="103.334117"><ele>2441.4407</ele><time>2026-07-24T23:12:57.000Z</time></trkpt>
        <trkpt lat="29.545218" lon="103.334115"><ele>2442.5166</ele><time>2026-07-24T23:12:59.000Z</time></trkpt>
        <trkpt lat="29.54518" lon="103.334099"><ele>2443.9949</ele><time>2026-07-24T23:13:03.000Z</time></trkpt>
        <trkpt lat="29.545162" lon="103.334092"><ele>2444.7246</ele><time>2026-07-24T23:13:05.000Z</time></trkpt>
        <trkpt lat="29.545145" lon="103.334082"><ele>2444.4434</ele><time>2026-07-24T23:13:07.000Z</time></trkpt>
        <trkpt lat="29.54513" lon="103.334075"><ele>2446.225</ele><time>2026-07-24T23:13:09.000Z</time></trkpt>
        <trkpt lat="29.545114" lon="103.334068"><ele>2444.943</ele><time>2026-07-24T23:13:11.000Z</time></trkpt>
        <trkpt lat="29.545098" lon="103.334063"><ele>2444.6904</ele><time>2026-07-24T23:13:13.000Z</time></trkpt>
        <trkpt lat="29.545084" lon="103.33406"><ele>2444.3145</ele><time>2026-07-24T23:13:15.000Z</time></trkpt>
        <trkpt lat="29.545066" lon="103.334055"><ele>2445.195</ele><time>2026-07-24T23:13:17.000Z</time></trkpt>
        <trkpt lat="29.545053" lon="103.334053"><ele>2445.3726</ele><time>2026-07-24T23:13:19.000Z</time></trkpt>
        <trkpt lat="29.545039" lon="103.334052"><ele>2447.4385</ele><time>2026-07-24T23:13:21.000Z</time></trkpt>
        <trkpt lat="29.545028" lon="103.334052"><ele>2447.0222</ele><time>2026-07-24T23:13:23.000Z</time></trkpt>
        <trkpt lat="29.545022" lon="103.334052"><ele>2445.741</ele><time>2026-07-24T23:13:25.000Z</time></trkpt>
        <trkpt lat="29.545005" lon="103.33405"><ele>2446.0535</ele><time>2026-07-24T23:13:31.000Z</time></trkpt>
        <trkpt lat="29.544987" lon="103.334048"><ele>2447.5586</ele><time>2026-07-24T23:13:33.000Z</time></trkpt>
        <trkpt lat="29.544986" lon="103.334048"><ele>2446.739</ele><time>2026-07-24T23:13:35.000Z</time></trkpt>
        <trkpt lat="29.544972" lon="103.334047"><ele>2447.3916</ele><time>2026-07-24T23:13:39.000Z</time></trkpt>
        <trkpt lat="29.544955" lon="103.334048"><ele>2445.175</ele><time>2026-07-24T23:13:41.000Z</time></trkpt>
        <trkpt lat="29.544936" lon="103.334046"><ele>2443.949</ele><time>2026-07-24T23:13:43.000Z</time></trkpt>
        <trkpt lat="29.544919" lon="103.334046"><ele>2444.4746</ele><time>2026-07-24T23:13:45.000Z</time></trkpt>
        <trkpt lat="29.544901" lon="103.334047"><ele>2443.5417</ele><time>2026-07-24T23:13:47.000Z</time></trkpt>
        <trkpt lat="29.544879" lon="103.33405"><ele>2443.1921</ele><time>2026-07-24T23:13:49.000Z</time></trkpt>
        <trkpt lat="29.54486" lon="103.334055"><ele>2443.1282</ele><time>2026-07-24T23:13:51.000Z</time></trkpt>
        <trkpt lat="29.544844" lon="103.334063"><ele>2442.8975</ele><time>2026-07-24T23:13:53.000Z</time></trkpt>
        <trkpt lat="29.544834" lon="103.334072"><ele>2441.9766</ele><time>2026-07-24T23:13:55.000Z</time></trkpt>
        <trkpt lat="29.544824" lon="103.334085"><ele>2439.81</ele><time>2026-07-24T23:13:57.000Z</time></trkpt>
        <trkpt lat="29.544813" lon="103.334102"><ele>2441.8962</ele><time>2026-07-24T23:13:59.000Z</time></trkpt>
        <trkpt lat="29.544801" lon="103.334121"><ele>2441.1145</ele><time>2026-07-24T23:14:01.000Z</time></trkpt>
        <trkpt lat="29.544789" lon="103.334141"><ele>2441.5664</ele><time>2026-07-24T23:14:03.000Z</time></trkpt>
        <trkpt lat="29.544779" lon="103.334156"><ele>2439.7827</ele><time>2026-07-24T23:14:05.000Z</time></trkpt>
        <trkpt lat="29.544768" lon="103.334169"><ele>2438.3665</ele><time>2026-07-24T23:14:07.000Z</time></trkpt>
        <trkpt lat="29.544754" lon="103.334185"><ele>2439.5916</ele><time>2026-07-24T23:14:09.000Z</time></trkpt>
        <trkpt lat="29.544742" lon="103.334196"><ele>2437.8926</ele><time>2026-07-24T23:14:11.000Z</time></trkpt>
        <trkpt lat="29.54473" lon="103.334204"><ele>2438.464</ele><time>2026-07-24T23:14:13.000Z</time></trkpt>
        <trkpt lat="29.544717" lon="103.334209"><ele>2437.277</ele><time>2026-07-24T23:14:15.000Z</time></trkpt>
        <trkpt lat="29.544706" lon="103.334212"><ele>2438.6843</ele><time>2026-07-24T23:14:17.000Z</time></trkpt>
        <trkpt lat="29.544693" lon="103.334213"><ele>2437.9443</ele><time>2026-07-24T23:14:19.000Z</time></trkpt>
        <trkpt lat="29.544681" lon="103.334214"><ele>2439.257</ele><time>2026-07-24T23:14:21.000Z</time></trkpt>
        <trkpt lat="29.544675" lon="103.334217"><ele>2437.3608</ele><time>2026-07-24T23:14:23.000Z</time></trkpt>
        <trkpt lat="29.544654" lon="103.334224"><ele>2437.4731</ele><time>2026-07-24T23:14:27.000Z</time></trkpt>
        <trkpt lat="29.544637" lon="103.334226"><ele>2439.9587</ele><time>2026-07-24T23:14:29.000Z</time></trkpt>
        <trkpt lat="29.544616" lon="103.334223"><ele>2441.0703</ele><time>2026-07-24T23:14:31.000Z</time></trkpt>
        <trkpt lat="29.544595" lon="103.334219"><ele>2438.97</ele><time>2026-07-24T23:14:33.000Z</time></trkpt>
        <trkpt lat="29.544572" lon="103.334213"><ele>2438.6304</ele><time>2026-07-24T23:14:35.000Z</time></trkpt>
        <trkpt lat="29.54455" lon="103.334205"><ele>2437.5188</ele><time>2026-07-24T23:14:37.000Z</time></trkpt>
        <trkpt lat="29.54453" lon="103.334197"><ele>2437.855</ele><time>2026-07-24T23:14:39.000Z</time></trkpt>
        <trkpt lat="29.544513" lon="103.33419"><ele>2437.2249</ele><time>2026-07-24T23:14:41.000Z</time></trkpt>
        <trkpt lat="29.544496" lon="103.334184"><ele>2434.521</ele><time>2026-07-24T23:14:43.000Z</time></trkpt>
        <trkpt lat="29.544476" lon="103.334179"><ele>2435.392</ele><time>2026-07-24T23:14:45.000Z</time></trkpt>
        <trkpt lat="29.544458" lon="103.334176"><ele>2436.2476</ele><time>2026-07-24T23:14:47.000Z</time></trkpt>
        <trkpt lat="29.54444" lon="103.334172"><ele>2435.56</ele><time>2026-07-24T23:14:49.000Z</time></trkpt>
        <trkpt lat="29.54442" lon="103.334167"><ele>2437.393</ele><time>2026-07-24T23:14:51.000Z</time></trkpt>
        <trkpt lat="29.544402" lon="103.334163"><ele>2437.0242</ele><time>2026-07-24T23:14:53.000Z</time></trkpt>
        <trkpt lat="29.544381" lon="103.334159"><ele>2438.5586</ele><time>2026-07-24T23:14:55.000Z</time></trkpt>
        <trkpt lat="29.54436" lon="103.334155"><ele>2438.1335</ele><time>2026-07-24T23:14:57.000Z</time></trkpt>
        <trkpt lat="29.544342" lon="103.334152"><ele>2438.0596</ele><time>2026-07-24T23:14:59.000Z</time></trkpt>
        <trkpt lat="29.544325" lon="103.334151"><ele>2438.7812</ele><time>2026-07-24T23:15:01.000Z</time></trkpt>
        <trkpt lat="29.544312" lon="103.334151"><ele>2437.5867</ele><time>2026-07-24T23:15:03.000Z</time></trkpt>
        <trkpt lat="29.544301" lon="103.334151"><ele>2436.6736</ele><time>2026-07-24T23:15:05.000Z</time></trkpt>
        <trkpt lat="29.544288" lon="103.334149"><ele>2436.4019</ele><time>2026-07-24T23:15:07.000Z</time></trkpt>
        <trkpt lat="29.544273" lon="103.334145"><ele>2437.345</ele><time>2026-07-24T23:15:09.000Z</time></trkpt>
        <trkpt lat="29.54426" lon="103.334139"><ele>2436.833</ele><time>2026-07-24T23:15:11.000Z</time></trkpt>
        <trkpt lat="29.544248" lon="103.334132"><ele>2437.3613</ele><time>2026-07-24T23:15:13.000Z</time></trkpt>
        <trkpt lat="29.544237" lon="103.334126"><ele>2437.2612</ele><time>2026-07-24T23:15:15.000Z</time></trkpt>
        <trkpt lat="29.544224" lon="103.334122"><ele>2437.234</ele><time>2026-07-24T23:15:17.000Z</time></trkpt>
        <trkpt lat="29.544208" lon="103.334117"><ele>2437.9695</ele><time>2026-07-24T23:15:19.000Z</time></trkpt>
        <trkpt lat="29.544192" lon="103.334114"><ele>2438.583</ele><time>2026-07-24T23:15:21.000Z</time></trkpt>
        <trkpt lat="29.544179" lon="103.334111"><ele>2438.082</ele><time>2026-07-24T23:15:23.000Z</time></trkpt>
        <trkpt lat="29.544163" lon="103.334108"><ele>2438.3672</ele><time>2026-07-24T23:15:25.000Z</time></trkpt>
        <trkpt lat="29.544145" lon="103.334105"><ele>2438.8076</ele><time>2026-07-24T23:15:27.000Z</time></trkpt>
        <trkpt lat="29.544128" lon="103.334102"><ele>2440.138</ele><time>2026-07-24T23:15:29.000Z</time></trkpt>
        <trkpt lat="29.544114" lon="103.334102"><ele>2440.0667</ele><time>2026-07-24T23:15:31.000Z</time></trkpt>
        <trkpt lat="29.544105" lon="103.334105"><ele>2440.1426</ele><time>2026-07-24T23:15:33.000Z</time></trkpt>
        <trkpt lat="29.544099" lon="103.334105"><ele>2439.9</ele><time>2026-07-24T23:15:35.000Z</time></trkpt>
        <trkpt lat="29.544079" lon="103.334101"><ele>2439.3413</ele><time>2026-07-24T23:15:41.000Z</time></trkpt>
        <trkpt lat="29.544065" lon="103.334095"><ele>2439.9363</ele><time>2026-07-24T23:15:43.000Z</time></trkpt>
        <trkpt lat="29.544051" lon="103.334087"><ele>2438.2612</ele><time>2026-07-24T23:15:45.000Z</time></trkpt>
        <trkpt lat="29.544038" lon="103.334077"><ele>2439.0356</ele><time>2026-07-24T23:15:47.000Z</time></trkpt>
        <trkpt lat="29.544022" lon="103.334067"><ele>2439.2083</ele><time>2026-07-24T23:15:49.000Z</time></trkpt>
        <trkpt lat="29.544005" lon="103.334054"><ele>2439.0999</ele><time>2026-07-24T23:15:51.000Z</time></trkpt>
        <trkpt lat="29.543989" lon="103.334042"><ele>2438.549</ele><time>2026-07-24T23:15:53.000Z</time></trkpt>
        <trkpt lat="29.543973" lon="103.334029"><ele>2438.2512</ele><time>2026-07-24T23:15:55.000Z</time></trkpt>
        <trkpt lat="29.543959" lon="103.334013"><ele>2438.7969</ele><time>2026-07-24T23:15:57.000Z</time></trkpt>
        <trkpt lat="29.543951" lon="103.333999"><ele>2437.601</ele><time>2026-07-24T23:15:59.000Z</time></trkpt>
        <trkpt lat="29.543943" lon="103.333985"><ele>2438.3872</ele><time>2026-07-24T23:16:01.000Z</time></trkpt>
        <trkpt lat="29.543935" lon="103.333967"><ele>2438.1863</ele><time>2026-07-24T23:16:03.000Z</time></trkpt>
        <trkpt lat="29.543926" lon="103.333951"><ele>2436.7683</ele><time>2026-07-24T23:16:05.000Z</time></trkpt>
        <trkpt lat="29.543917" lon="103.333936"><ele>2438.7048</ele><time>2026-07-24T23:16:07.000Z</time></trkpt>
        <trkpt lat="29.543918" lon="103.333937"><ele>2439.5535</ele><time>2026-07-24T23:16:09.000Z</time></trkpt>
        <trkpt lat="29.54395" lon="103.333997"><ele>2437.3074</ele><time>2026-07-24T23:16:15.000Z</time></trkpt>
        <trkpt lat="29.543962" lon="103.334012"><ele>2437.4878</ele><time>2026-07-24T23:16:17.000Z</time></trkpt>
        <trkpt lat="29.543976" lon="103.33403"><ele>2438.365</ele><time>2026-07-24T23:16:19.000Z</time></trkpt>
        <trkpt lat="29.543986" lon="103.334043"><ele>2438.9333</ele><time>2026-07-24T23:16:21.000Z</time></trkpt>
        <trkpt lat="29.543994" lon="103.334051"><ele>2438.9202</ele><time>2026-07-24T23:16:23.000Z</time></trkpt>
        <trkpt lat="29.543996" lon="103.334055"><ele>2439.1724</ele><time>2026-07-24T23:16:25.000Z</time></trkpt>
        <trkpt lat="29.54393" lon="103.333957"><ele>2438.782</ele><time>2026-07-24T23:17:07.000Z</time></trkpt>
        <trkpt lat="29.543909" lon="103.333926"><ele>2439.6938</ele><time>2026-07-24T23:17:12.000Z</time></trkpt>
        <trkpt lat="29.543909" lon="103.333926"><ele>2440.1853</ele><time>2026-07-24T23:17:14.000Z</time></trkpt>
        <trkpt lat="29.543873" lon="103.333911"><ele>2440.609</ele><time>2026-07-24T23:17:16.000Z</time></trkpt>
        <trkpt lat="29.543871" lon="103.333911"><ele>2439.6282</ele><time>2026-07-24T23:17:18.000Z</time></trkpt>
        <trkpt lat="29.543866" lon="103.33391"><ele>2439.6172</ele><time>2026-07-24T23:17:20.000Z</time></trkpt>
        <trkpt lat="29.543824" lon="103.333912"><ele>2439.0098</ele><time>2026-07-24T23:17:24.000Z</time></trkpt>
        <trkpt lat="29.543804" lon="103.333913"><ele>2438.5571</ele><time>2026-07-24T23:17:26.000Z</time></trkpt>
        <trkpt lat="29.543782" lon="103.333915"><ele>2438.4485</ele><time>2026-07-24T23:17:28.000Z</time></trkpt>
        <trkpt lat="29.543762" lon="103.333918"><ele>2438.5234</ele><time>2026-07-24T23:17:30.000Z</time></trkpt>
        <trkpt lat="29.543744" lon="103.333923"><ele>2438.0645</ele><time>2026-07-24T23:17:32.000Z</time></trkpt>
        <trkpt lat="29.543728" lon="103.333928"><ele>2435.434</ele><time>2026-07-24T23:17:34.000Z</time></trkpt>
        <trkpt lat="29.543713" lon="103.33393"><ele>2434.0244</ele><time>2026-07-24T23:17:36.000Z</time></trkpt>
        <trkpt lat="29.543698" lon="103.333928"><ele>2433.039</ele><time>2026-07-24T23:17:38.000Z</time></trkpt>
        <trkpt lat="29.543681" lon="103.33392"><ele>2434.2666</ele><time>2026-07-24T23:17:40.000Z</time></trkpt>
        <trkpt lat="29.543664" lon="103.333907"><ele>2434.3127</ele><time>2026-07-24T23:17:42.000Z</time></trkpt>
        <trkpt lat="29.543649" lon="103.333893"><ele>2432.738</ele><time>2026-07-24T23:17:44.000Z</time></trkpt>
        <trkpt lat="29.543636" lon="103.333879"><ele>2434.181</ele><time>2026-07-24T23:17:46.000Z</time></trkpt>
        <trkpt lat="29.543622" lon="103.333862"><ele>2434.611</ele><time>2026-07-24T23:17:48.000Z</time></trkpt>
        <trkpt lat="29.543612" lon="103.333849"><ele>2435.1858</ele><time>2026-07-24T23:17:50.000Z</time></trkpt>
        <trkpt lat="29.543605" lon="103.333838"><ele>2432.199</ele><time>2026-07-24T23:17:52.000Z</time></trkpt>
        <trkpt lat="29.543602" lon="103.333825"><ele>2432.7202</ele><time>2026-07-24T23:17:54.000Z</time></trkpt>
        <trkpt lat="29.543597" lon="103.333814"><ele>2433.106</ele><time>2026-07-24T23:17:56.000Z</time></trkpt>
        <trkpt lat="29.543592" lon="103.333805"><ele>2433.73</ele><time>2026-07-24T23:17:58.000Z</time></trkpt>
        <trkpt lat="29.543587" lon="103.333796"><ele>2432.6667</ele><time>2026-07-24T23:18:00.000Z</time></trkpt>
        <trkpt lat="29.543578" lon="103.333785"><ele>2432.9646</ele><time>2026-07-24T23:18:02.000Z</time></trkpt>
        <trkpt lat="29.543568" lon="103.333774"><ele>2433.3325</ele><time>2026-07-24T23:18:04.000Z</time></trkpt>
        <trkpt lat="29.54356" lon="103.333763"><ele>2434.5295</ele><time>2026-07-24T23:18:06.000Z</time></trkpt>
        <trkpt lat="29.543553" lon="103.333755"><ele>2435.663</ele><time>2026-07-24T23:18:08.000Z</time></trkpt>
        <trkpt lat="29.543546" lon="103.333744"><ele>2436.21</ele><time>2026-07-24T23:18:10.000Z</time></trkpt>
        <trkpt lat="29.543538" lon="103.333735"><ele>2436.893</ele><time>2026-07-24T23:18:12.000Z</time></trkpt>
        <trkpt lat="29.543531" lon="103.333728"><ele>2436.2534</ele><time>2026-07-24T23:18:14.000Z</time></trkpt>
        <trkpt lat="29.543523" lon="103.333721"><ele>2435.8792</ele><time>2026-07-24T23:18:16.000Z</time></trkpt>
        <trkpt lat="29.543513" lon="103.333712"><ele>2435.4534</ele><time>2026-07-24T23:18:18.000Z</time></trkpt>
        <trkpt lat="29.543501" lon="103.333701"><ele>2435.8313</ele><time>2026-07-24T23:18:20.000Z</time></trkpt>
        <trkpt lat="29.543491" lon="103.333691"><ele>2434.5764</ele><time>2026-07-24T23:18:22.000Z</time></trkpt>
        <trkpt lat="29.543481" lon="103.333684"><ele>2434.3499</ele><time>2026-07-24T23:18:24.000Z</time></trkpt>
        <trkpt lat="29.543471" lon="103.333676"><ele>2434.087</ele><time>2026-07-24T23:18:26.000Z</time></trkpt>
        <trkpt lat="29.543461" lon="103.333668"><ele>2434.4373</ele><time>2026-07-24T23:18:28.000Z</time></trkpt>
        <trkpt lat="29.543451" lon="103.33366"><ele>2433.607</ele><time>2026-07-24T23:18:30.000Z</time></trkpt>
        <trkpt lat="29.543442" lon="103.333652"><ele>2433.238</ele><time>2026-07-24T23:18:32.000Z</time></trkpt>
        <trkpt lat="29.543436" lon="103.333645"><ele>2433.092</ele><time>2026-07-24T23:18:34.000Z</time></trkpt>
        <trkpt lat="29.543431" lon="103.333636"><ele>2433.5332</ele><time>2026-07-24T23:18:36.000Z</time></trkpt>
        <trkpt lat="29.543425" lon="103.333613"><ele>2433.2214</ele><time>2026-07-24T23:18:40.000Z</time></trkpt>
        <trkpt lat="29.543423" lon="103.333599"><ele>2432.4219</ele><time>2026-07-24T23:18:42.000Z</time></trkpt>
        <trkpt lat="29.543421" lon="103.33358"><ele>2432.5015</ele><time>2026-07-24T23:18:44.000Z</time></trkpt>
        <trkpt lat="29.543418" lon="103.333558"><ele>2432.6958</ele><time>2026-07-24T23:18:46.000Z</time></trkpt>
        <trkpt lat="29.543414" lon="103.333535"><ele>2432.6235</ele><time>2026-07-24T23:18:48.000Z</time></trkpt>
        <trkpt lat="29.543405" lon="103.333511"><ele>2430.6653</ele><time>2026-07-24T23:18:50.000Z</time></trkpt>
        <trkpt lat="29.543397" lon="103.333487"><ele>2429.8704</ele><time>2026-07-24T23:18:52.000Z</time></trkpt>
        <trkpt lat="29.54339" lon="103.333459"><ele>2428.7622</ele><time>2026-07-24T23:18:54.000Z</time></trkpt>
        <trkpt lat="29.543385" lon="103.333433"><ele>2428.4546</ele><time>2026-07-24T23:18:56.000Z</time></trkpt>
        <trkpt lat="29.543381" lon="103.333409"><ele>2429.6047</ele><time>2026-07-24T23:18:58.000Z</time></trkpt>
        <trkpt lat="29.543379" lon="103.333391"><ele>2430.1533</ele><time>2026-07-24T23:19:00.000Z</time></trkpt>
        <trkpt lat="29.543376" lon="103.333373"><ele>2431.1333</ele><time>2026-07-24T23:19:02.000Z</time></trkpt>
        <trkpt lat="29.543371" lon="103.333354"><ele>2430.5906</ele><time>2026-07-24T23:19:04.000Z</time></trkpt>
        <trkpt lat="29.543365" lon="103.333333"><ele>2430.5598</ele><time>2026-07-24T23:19:06.000Z</time></trkpt>
        <trkpt lat="29.543357" lon="103.333315"><ele>2429.33</ele><time>2026-07-24T23:19:08.000Z</time></trkpt>
        <trkpt lat="29.543351" lon="103.333299"><ele>2430.2598</ele><time>2026-07-24T23:19:10.000Z</time></trkpt>
        <trkpt lat="29.543343" lon="103.333282"><ele>2430.0183</ele><time>2026-07-24T23:19:12.000Z</time></trkpt>
        <trkpt lat="29.543338" lon="103.333269"><ele>2429.4678</ele><time>2026-07-24T23:19:14.000Z</time></trkpt>
        <trkpt lat="29.543333" lon="103.333253"><ele>2429.39</ele><time>2026-07-24T23:19:16.000Z</time></trkpt>
        <trkpt lat="29.543328" lon="103.333242"><ele>2428.8838</ele><time>2026-07-24T23:19:18.000Z</time></trkpt>
        <trkpt lat="29.543322" lon="103.33323"><ele>2427.8347</ele><time>2026-07-24T23:19:20.000Z</time></trkpt>
        <trkpt lat="29.543309" lon="103.333211"><ele>2427.2666</ele><time>2026-07-24T23:19:22.000Z</time></trkpt>
        <trkpt lat="29.543293" lon="103.333197"><ele>2427.4487</ele><time>2026-07-24T23:19:24.000Z</time></trkpt>
        <trkpt lat="29.543276" lon="103.333184"><ele>2429.5017</ele><time>2026-07-24T23:19:26.000Z</time></trkpt>
        <trkpt lat="29.543265" lon="103.333176"><ele>2430.4702</ele><time>2026-07-24T23:19:28.000Z</time></trkpt>
        <trkpt lat="29.543263" lon="103.333169"><ele>2429.7004</ele><time>2026-07-24T23:19:30.000Z</time></trkpt>
        <trkpt lat="29.543245" lon="103.333117"><ele>2430.8738</ele><time>2026-07-24T23:21:33.000Z</time></trkpt>
        <trkpt lat="29.543242" lon="103.333108"><ele>2430.6729</ele><time>2026-07-24T23:21:35.000Z</time></trkpt>
        <trkpt lat="29.543241" lon="103.333107"><ele>2429.9563</ele><time>2026-07-24T23:21:37.000Z</time></trkpt>
        <trkpt lat="29.543228" lon="103.333087"><ele>2430.7695</ele><time>2026-07-24T23:21:43.000Z</time></trkpt>
        <trkpt lat="29.543215" lon="103.333071"><ele>2431.4985</ele><time>2026-07-24T23:21:45.000Z</time></trkpt>
        <trkpt lat="29.543203" lon="103.333056"><ele>2430.8096</ele><time>2026-07-24T23:21:47.000Z</time></trkpt>
        <trkpt lat="29.543202" lon="103.333055"><ele>2431.3547</ele><time>2026-07-24T23:21:49.000Z</time></trkpt>
        <trkpt lat="29.54319" lon="103.333032"><ele>2431.5369</ele><time>2026-07-24T23:21:53.000Z</time></trkpt>
        <trkpt lat="29.543174" lon="103.333012"><ele>2433.1191</ele><time>2026-07-24T23:21:55.000Z</time></trkpt>
        <trkpt lat="29.543152" lon="103.332993"><ele>2433.2334</ele><time>2026-07-24T23:21:57.000Z</time></trkpt>
        <trkpt lat="29.543129" lon="103.332981"><ele>2434.1287</ele><time>2026-07-24T23:21:59.000Z</time></trkpt>
        <trkpt lat="29.543107" lon="103.332972"><ele>2434.595</ele><time>2026-07-24T23:22:01.000Z</time></trkpt>
        <trkpt lat="29.543081" lon="103.332965"><ele>2435.241</ele><time>2026-07-24T23:22:03.000Z</time></trkpt>
        <trkpt lat="29.543052" lon="103.332959"><ele>2436.007</ele><time>2026-07-24T23:22:05.000Z</time></trkpt>
        <trkpt lat="29.543026" lon="103.332956"><ele>2436.5715</ele><time>2026-07-24T23:22:07.000Z</time></trkpt>
        <trkpt lat="29.543006" lon="103.332956"><ele>2436.4302</ele><time>2026-07-24T23:22:09.000Z</time></trkpt>
        <trkpt lat="29.542989" lon="103.332957"><ele>2436.22</ele><time>2026-07-24T23:22:11.000Z</time></trkpt>
        <trkpt lat="29.542976" lon="103.332959"><ele>2436.845</ele><time>2026-07-24T23:22:13.000Z</time></trkpt>
        <trkpt lat="29.54297" lon="103.332957"><ele>2436.3303</ele><time>2026-07-24T23:22:15.000Z</time></trkpt>
        <trkpt lat="29.542961" lon="103.332951"><ele>2436.1042</ele><time>2026-07-24T23:22:17.000Z</time></trkpt>
        <trkpt lat="29.542942" lon="103.332938"><ele>2432.8274</ele><time>2026-07-24T23:22:21.000Z</time></trkpt>
        <trkpt lat="29.542932" lon="103.332932"><ele>2433.1362</ele><time>2026-07-24T23:22:23.000Z</time></trkpt>
        <trkpt lat="29.542919" lon="103.332923"><ele>2435.0386</ele><time>2026-07-24T23:22:25.000Z</time></trkpt>
        <trkpt lat="29.542904" lon="103.332914"><ele>2435.6016</ele><time>2026-07-24T23:22:27.000Z</time></trkpt>
        <trkpt lat="29.542882" lon="103.332908"><ele>2435.387</ele><time>2026-07-24T23:22:29.000Z</time></trkpt>
        <trkpt lat="29.542865" lon="103.33291"><ele>2435.7952</ele><time>2026-07-24T23:22:31.000Z</time></trkpt>
        <trkpt lat="29.542856" lon="103.332915"><ele>2436.4175</ele><time>2026-07-24T23:22:33.000Z</time></trkpt>
        <trkpt lat="29.542855" lon="103.33292"><ele>2435.7947</ele><time>2026-07-24T23:22:35.000Z</time></trkpt>
        <trkpt lat="29.542857" lon="103.332943"><ele>2438.4233</ele><time>2026-07-24T23:23:45.000Z</time></trkpt>
        <trkpt lat="29.542854" lon="103.33288"><ele>2436.8308</ele><time>2026-07-24T23:27:12.000Z</time></trkpt>
        <trkpt lat="29.542854" lon="103.332882"><ele>2437.3357</ele><time>2026-07-24T23:27:27.000Z</time></trkpt>
        <trkpt lat="29.542852" lon="103.332884"><ele>2436.1848</ele><time>2026-07-24T23:27:42.000Z</time></trkpt>
        <trkpt lat="29.542885" lon="103.332858"><ele>2436.7573</ele><time>2026-07-24T23:29:19.000Z</time></trkpt>
        <trkpt lat="29.542885" lon="103.332858"><ele>2435.9885</ele><time>2026-07-24T23:29:21.000Z</time></trkpt>
        <trkpt lat="29.542867" lon="103.332829"><ele>2436.3345</ele><time>2026-07-24T23:29:23.000Z</time></trkpt>
        <trkpt lat="29.542842" lon="103.332788"><ele>2437.0361</ele><time>2026-07-24T23:29:26.000Z</time></trkpt>
        <trkpt lat="29.542842" lon="103.332788"><ele>2436.8428</ele><time>2026-07-24T23:29:28.000Z</time></trkpt>
        <trkpt lat="29.54284" lon="103.332783"><ele>2436.3245</ele><time>2026-07-24T23:29:30.000Z</time></trkpt>
        <trkpt lat="29.542818" lon="103.332735"><ele>2435.6743</ele><time>2026-07-24T23:29:34.000Z</time></trkpt>
        <trkpt lat="29.542806" lon="103.332712"><ele>2435.1907</ele><time>2026-07-24T23:29:36.000Z</time></trkpt>
        <trkpt lat="29.54279" lon="103.332688"><ele>2436.2004</ele><time>2026-07-24T23:29:38.000Z</time></trkpt>
        <trkpt lat="29.542771" lon="103.332668"><ele>2434.5676</ele><time>2026-07-24T23:29:40.000Z</time></trkpt>
        <trkpt lat="29.542751" lon="103.332654"><ele>2436.0315</ele><time>2026-07-24T23:29:42.000Z</time></trkpt>
        <trkpt lat="29.542727" lon="103.332643"><ele>2436.6748</ele><time>2026-07-24T23:29:44.000Z</time></trkpt>
        <trkpt lat="29.542697" lon="103.332633"><ele>2437.6487</ele><time>2026-07-24T23:29:46.000Z</time></trkpt>
        <trkpt lat="29.542665" lon="103.332625"><ele>2437.27</ele><time>2026-07-24T23:29:48.000Z</time></trkpt>
        <trkpt lat="29.542641" lon="103.332619"><ele>2436.7327</ele><time>2026-07-24T23:29:50.000Z</time></trkpt>
        <trkpt lat="29.54262" lon="103.332609"><ele>2436.741</ele><time>2026-07-24T23:29:52.000Z</time></trkpt>
        <trkpt lat="29.542603" lon="103.332597"><ele>2436.6228</ele><time>2026-07-24T23:29:54.000Z</time></trkpt>
        <trkpt lat="29.542592" lon="103.332584"><ele>2436.1077</ele><time>2026-07-24T23:29:56.000Z</time></trkpt>
        <trkpt lat="29.542586" lon="103.332572"><ele>2435.4316</ele><time>2026-07-24T23:29:58.000Z</time></trkpt>
        <trkpt lat="29.542583" lon="103.332557"><ele>2434.7517</ele><time>2026-07-24T23:30:00.000Z</time></trkpt>
        <trkpt lat="29.542581" lon="103.332537"><ele>2435.0579</ele><time>2026-07-24T23:30:02.000Z</time></trkpt>
        <trkpt lat="29.542579" lon="103.332517"><ele>2435.504</ele><time>2026-07-24T23:30:04.000Z</time></trkpt>
        <trkpt lat="29.542578" lon="103.332496"><ele>2434.0952</ele><time>2026-07-24T23:30:06.000Z</time></trkpt>
        <trkpt lat="29.542577" lon="103.332477"><ele>2434.3352</ele><time>2026-07-24T23:30:08.000Z</time></trkpt>
        <trkpt lat="29.542577" lon="103.332459"><ele>2433.7693</ele><time>2026-07-24T23:30:10.000Z</time></trkpt>
        <trkpt lat="29.542575" lon="103.332443"><ele>2433.2092</ele><time>2026-07-24T23:30:12.000Z</time></trkpt>
        <trkpt lat="29.542569" lon="103.332428"><ele>2432.969</ele><time>2026-07-24T23:30:14.000Z</time></trkpt>
        <trkpt lat="29.542562" lon="103.332414"><ele>2432.795</ele><time>2026-07-24T23:30:16.000Z</time></trkpt>
        <trkpt lat="29.542554" lon="103.332399"><ele>2432.874</ele><time>2026-07-24T23:30:18.000Z</time></trkpt>
        <trkpt lat="29.542546" lon="103.332387"><ele>2433.6338</ele><time>2026-07-24T23:30:20.000Z</time></trkpt>
        <trkpt lat="29.542538" lon="103.332373"><ele>2434.1155</ele><time>2026-07-24T23:30:22.000Z</time></trkpt>
        <trkpt lat="29.542529" lon="103.332357"><ele>2435.7942</ele><time>2026-07-24T23:30:24.000Z</time></trkpt>
        <trkpt lat="29.542519" lon="103.332337"><ele>2435.9744</ele><time>2026-07-24T23:30:26.000Z</time></trkpt>
        <trkpt lat="29.542507" lon="103.332316"><ele>2435.6555</ele><time>2026-07-24T23:30:28.000Z</time></trkpt>
        <trkpt lat="29.542498" lon="103.332297"><ele>2435.1194</ele><time>2026-07-24T23:30:30.000Z</time></trkpt>
        <trkpt lat="29.542491" lon="103.332281"><ele>2435.7878</ele><time>2026-07-24T23:30:32.000Z</time></trkpt>
        <trkpt lat="29.542483" lon="103.332264"><ele>2435.3909</ele><time>2026-07-24T23:30:34.000Z</time></trkpt>
        <trkpt lat="29.542474" lon="103.332243"><ele>2435.596</ele><time>2026-07-24T23:30:36.000Z</time></trkpt>
        <trkpt lat="29.542466" lon="103.332221"><ele>2435.805</ele><time>2026-07-24T23:30:38.000Z</time></trkpt>
        <trkpt lat="29.542455" lon="103.332201"><ele>2435.579</ele><time>2026-07-24T23:30:40.000Z</time></trkpt>
        <trkpt lat="29.542442" lon="103.332192"><ele>2435.684</ele><time>2026-07-24T23:30:42.000Z</time></trkpt>
        <trkpt lat="29.542428" lon="103.332185"><ele>2435.4128</ele><time>2026-07-24T23:30:44.000Z</time></trkpt>
        <trkpt lat="29.542413" lon="103.332178"><ele>2435.3257</ele><time>2026-07-24T23:30:46.000Z</time></trkpt>
        <trkpt lat="29.542405" lon="103.332176"><ele>2435.727</ele><time>2026-07-24T23:30:48.000Z</time></trkpt>
        <trkpt lat="29.542394" lon="103.332177"><ele>2435.52</ele><time>2026-07-24T23:30:50.000Z</time></trkpt>
        <trkpt lat="29.542381" lon="103.332182"><ele>2435.8943</ele><time>2026-07-24T23:30:52.000Z</time></trkpt>
        <trkpt lat="29.542364" lon="103.332192"><ele>2436.6763</ele><time>2026-07-24T23:30:54.000Z</time></trkpt>
        <trkpt lat="29.542354" lon="103.332199"><ele>2436.4983</ele><time>2026-07-24T23:30:56.000Z</time></trkpt>
        <trkpt lat="29.542349" lon="103.332198"><ele>2436.6987</ele><time>2026-07-24T23:30:58.000Z</time></trkpt>
        <trkpt lat="29.542335" lon="103.332186"><ele>2435.6382</ele><time>2026-07-24T23:31:06.000Z</time></trkpt>
        <trkpt lat="29.542316" lon="103.332171"><ele>2436.0903</ele><time>2026-07-24T23:31:08.000Z</time></trkpt>
        <trkpt lat="29.542315" lon="103.33217"><ele>2435.8286</ele><time>2026-07-24T23:31:10.000Z</time></trkpt>
        <trkpt lat="29.542309" lon="103.332167"><ele>2434.9277</ele><time>2026-07-24T23:31:14.000Z</time></trkpt>
        <trkpt lat="29.542343" lon="103.332187"><ele>2433.2256</ele><time>2026-07-24T23:31:32.000Z</time></trkpt>
        <trkpt lat="29.542343" lon="103.332186"><ele>2433.7832</ele><time>2026-07-24T23:31:34.000Z</time></trkpt>
        <trkpt lat="29.542343" lon="103.332184"><ele>2434.152</ele><time>2026-07-24T23:31:36.000Z</time></trkpt>
        <trkpt lat="29.542338" lon="103.332152"><ele>2427.2297</ele><time>2026-07-24T23:33:00.000Z</time></trkpt>
        <trkpt lat="29.542336" lon="103.332149"><ele>2427.554</ele><time>2026-07-24T23:33:02.000Z</time></trkpt>
        <trkpt lat="29.542335" lon="103.332148"><ele>2428.607</ele><time>2026-07-24T23:33:04.000Z</time></trkpt>
        <trkpt lat="29.542317" lon="103.332125"><ele>2428.406</ele><time>2026-07-24T23:33:27.000Z</time></trkpt>
        <trkpt lat="29.542308" lon="103.332109"><ele>2428.9229</ele><time>2026-07-24T23:33:29.000Z</time></trkpt>
        <trkpt lat="29.542296" lon="103.332086"><ele>2428.857</ele><time>2026-07-24T23:33:31.000Z</time></trkpt>
        <trkpt lat="29.542295" lon="103.332084"><ele>2428.6116</ele><time>2026-07-24T23:33:33.000Z</time></trkpt>
        <trkpt lat="29.542291" lon="103.33208"><ele>2429.792</ele><time>2026-07-24T23:33:35.000Z</time></trkpt>
        <trkpt lat="29.54226" lon="103.332045"><ele>2429.5017</ele><time>2026-07-24T23:33:39.000Z</time></trkpt>
        <trkpt lat="29.542247" lon="103.332027"><ele>2429.1582</ele><time>2026-07-24T23:33:41.000Z</time></trkpt>
        <trkpt lat="29.542234" lon="103.332007"><ele>2428.8342</ele><time>2026-07-24T23:33:43.000Z</time></trkpt>
        <trkpt lat="29.542221" lon="103.331993"><ele>2429.1257</ele><time>2026-07-24T23:33:45.000Z</time></trkpt>
        <trkpt lat="29.542209" lon="103.331983"><ele>2429.2341</ele><time>2026-07-24T23:33:47.000Z</time></trkpt>
        <trkpt lat="29.542195" lon="103.331976"><ele>2429.9465</ele><time>2026-07-24T23:33:49.000Z</time></trkpt>
        <trkpt lat="29.542181" lon="103.331971"><ele>2430.3982</ele><time>2026-07-24T23:33:51.000Z</time></trkpt>
        <trkpt lat="29.542169" lon="103.331971"><ele>2428.7898</ele><time>2026-07-24T23:33:53.000Z</time></trkpt>
        <trkpt lat="29.542158" lon="103.331974"><ele>2428.646</ele><time>2026-07-24T23:33:55.000Z</time></trkpt>
        <trkpt lat="29.542147" lon="103.331978"><ele>2428.5325</ele><time>2026-07-24T23:33:57.000Z</time></trkpt>
        <trkpt lat="29.542133" lon="103.331981"><ele>2428.6191</ele><time>2026-07-24T23:33:59.000Z</time></trkpt>
        <trkpt lat="29.542121" lon="103.331983"><ele>2428.5798</ele><time>2026-07-24T23:34:01.000Z</time></trkpt>
        <trkpt lat="29.542114" lon="103.331984"><ele>2428.071</ele><time>2026-07-24T23:34:03.000Z</time></trkpt>
        <trkpt lat="29.542096" lon="103.331986"><ele>2428.3403</ele><time>2026-07-24T23:34:07.000Z</time></trkpt>
        <trkpt lat="29.542086" lon="103.331988"><ele>2427.6838</ele><time>2026-07-24T23:34:09.000Z</time></trkpt>
        <trkpt lat="29.542076" lon="103.33199"><ele>2428.7344</ele><time>2026-07-24T23:34:11.000Z</time></trkpt>
        <trkpt lat="29.542066" lon="103.331993"><ele>2428.5142</ele><time>2026-07-24T23:34:13.000Z</time></trkpt>
        <trkpt lat="29.542058" lon="103.332"><ele>2428.5044</ele><time>2026-07-24T23:34:15.000Z</time></trkpt>
        <trkpt lat="29.542052" lon="103.332012"><ele>2428.601</ele><time>2026-07-24T23:34:17.000Z</time></trkpt>
        <trkpt lat="29.542048" lon="103.332026"><ele>2428.1404</ele><time>2026-07-24T23:34:19.000Z</time></trkpt>
        <trkpt lat="29.542047" lon="103.332037"><ele>2428.3667</ele><time>2026-07-24T23:34:21.000Z</time></trkpt>
        <trkpt lat="29.542048" lon="103.332049"><ele>2428.6487</ele><time>2026-07-24T23:34:23.000Z</time></trkpt>
        <trkpt lat="29.542049" lon="103.332064"><ele>2428.6501</ele><time>2026-07-24T23:34:25.000Z</time></trkpt>
        <trkpt lat="29.542047" lon="103.332075"><ele>2428.46</ele><time>2026-07-24T23:34:27.000Z</time></trkpt>
        <trkpt lat="29.542044" lon="103.332077"><ele>2428.311</ele><time>2026-07-24T23:34:29.000Z</time></trkpt>
        <trkpt lat="29.542017" lon="103.332082"><ele>2427.178</ele><time>2026-07-24T23:34:33.000Z</time></trkpt>
        <trkpt lat="29.541996" lon="103.332083"><ele>2428.0771</ele><time>2026-07-24T23:34:35.000Z</time></trkpt>
        <trkpt lat="29.541973" lon="103.332083"><ele>2427.5012</ele><time>2026-07-24T23:34:37.000Z</time></trkpt>
        <trkpt lat="29.541952" lon="103.332082"><ele>2427.745</ele><time>2026-07-24T23:34:39.000Z</time></trkpt>
        <trkpt lat="29.541928" lon="103.332082"><ele>2427.3594</ele><time>2026-07-24T23:34:41.000Z</time></trkpt>
        <trkpt lat="29.541906" lon="103.332082"><ele>2427.9844</ele><time>2026-07-24T23:34:43.000Z</time></trkpt>
        <trkpt lat="29.541882" lon="103.332082"><ele>2428.0933</ele><time>2026-07-24T23:34:45.000Z</time></trkpt>
        <trkpt lat="29.54186" lon="103.332083"><ele>2428.1155</ele><time>2026-07-24T23:34:47.000Z</time></trkpt>
        <trkpt lat="29.54184" lon="103.332082"><ele>2428.066</ele><time>2026-07-24T23:34:49.000Z</time></trkpt>
        <trkpt lat="29.541821" lon="103.33208"><ele>2427.4495</ele><time>2026-07-24T23:34:51.000Z</time></trkpt>
        <trkpt lat="29.541809" lon="103.332078"><ele>2427.4187</ele><time>2026-07-24T23:34:53.000Z</time></trkpt>
        <trkpt lat="29.541794" lon="103.332075"><ele>2427.9915</ele><time>2026-07-24T23:34:55.000Z</time></trkpt>
        <trkpt lat="29.54178" lon="103.332071"><ele>2428.7925</ele><time>2026-07-24T23:34:57.000Z</time></trkpt>
        <trkpt lat="29.541767" lon="103.332068"><ele>2428.8203</ele><time>2026-07-24T23:34:59.000Z</time></trkpt>
        <trkpt lat="29.541755" lon="103.332062"><ele>2428.527</ele><time>2026-07-24T23:35:01.000Z</time></trkpt>
        <trkpt lat="29.541747" lon="103.332053"><ele>2428.709</ele><time>2026-07-24T23:35:03.000Z</time></trkpt>
        <trkpt lat="29.541739" lon="103.332039"><ele>2428.6377</ele><time>2026-07-24T23:35:05.000Z</time></trkpt>
        <trkpt lat="29.541732" lon="103.332022"><ele>2427.6047</ele><time>2026-07-24T23:35:07.000Z</time></trkpt>
        <trkpt lat="29.541723" lon="103.332002"><ele>2427.4072</ele><time>2026-07-24T23:35:09.000Z</time></trkpt>
        <trkpt lat="29.541713" lon="103.331987"><ele>2426.6062</ele><time>2026-07-24T23:35:11.000Z</time></trkpt>
        <trkpt lat="29.541707" lon="103.331972"><ele>2426.9583</ele><time>2026-07-24T23:35:13.000Z</time></trkpt>
        <trkpt lat="29.541702" lon="103.331962"><ele>2427.088</ele><time>2026-07-24T23:35:15.000Z</time></trkpt>
        <trkpt lat="29.541696" lon="103.331961"><ele>2426.3765</ele><time>2026-07-24T23:35:17.000Z</time></trkpt>
        <trkpt lat="29.541743" lon="103.33197"><ele>2428.5984</ele><time>2026-07-24T23:35:33.000Z</time></trkpt>
        <trkpt lat="29.541766" lon="103.331932"><ele>2427.395</ele><time>2026-07-24T23:35:35.000Z</time></trkpt>
        <trkpt lat="29.541782" lon="103.331908"><ele>2427.1174</ele><time>2026-07-24T23:35:37.000Z</time></trkpt>
        <trkpt lat="29.541783" lon="103.331906"><ele>2425.4685</ele><time>2026-07-24T23:35:39.000Z</time></trkpt>
        <trkpt lat="29.541785" lon="103.3319"><ele>2424.447</ele><time>2026-07-24T23:35:41.000Z</time></trkpt>
        <trkpt lat="29.541795" lon="103.331875"><ele>2423.1052</ele><time>2026-07-24T23:35:43.000Z</time></trkpt>
        <trkpt lat="29.541806" lon="103.331838"><ele>2423.176</ele><time>2026-07-24T23:35:45.000Z</time></trkpt>
        <trkpt lat="29.541816" lon="103.331799"><ele>2421.9028</ele><time>2026-07-24T23:35:47.000Z</time></trkpt>
        <trkpt lat="29.541824" lon="103.331766"><ele>2421.4412</ele><time>2026-07-24T23:35:49.000Z</time></trkpt>
        <trkpt lat="29.541827" lon="103.331741"><ele>2421.2866</ele><time>2026-07-24T23:35:51.000Z</time></trkpt>
        <trkpt lat="29.54183" lon="103.331722"><ele>2421.4514</ele><time>2026-07-24T23:35:53.000Z</time></trkpt>
        <trkpt lat="29.541832" lon="103.3317"><ele>2422.1353</ele><time>2026-07-24T23:35:55.000Z</time></trkpt>
        <trkpt lat="29.54183" lon="103.33168"><ele>2423.2576</ele><time>2026-07-24T23:35:57.000Z</time></trkpt>
        <trkpt lat="29.541822" lon="103.33167"><ele>2424.3489</ele><time>2026-07-24T23:35:59.000Z</time></trkpt>
        <trkpt lat="29.541808" lon="103.331663"><ele>2423.9722</ele><time>2026-07-24T23:36:01.000Z</time></trkpt>
        <trkpt lat="29.541791" lon="103.33166"><ele>2424.2695</ele><time>2026-07-24T23:36:03.000Z</time></trkpt>
        <trkpt lat="29.54177" lon="103.331658"><ele>2423.8682</ele><time>2026-07-24T23:36:05.000Z</time></trkpt>
        <trkpt lat="29.541751" lon="103.331658"><ele>2424.5361</ele><time>2026-07-24T23:36:07.000Z</time></trkpt>
        <trkpt lat="29.54173" lon="103.33166"><ele>2424.8276</ele><time>2026-07-24T23:36:09.000Z</time></trkpt>
        <trkpt lat="29.541716" lon="103.331662"><ele>2425.85</ele><time>2026-07-24T23:36:11.000Z</time></trkpt>
        <trkpt lat="29.541694" lon="103.331665"><ele>2427.301</ele><time>2026-07-24T23:36:13.000Z</time></trkpt>
        <trkpt lat="29.541674" lon="103.331668"><ele>2427.3022</ele><time>2026-07-24T23:36:15.000Z</time></trkpt>
        <trkpt lat="29.541653" lon="103.331672"><ele>2427.1177</ele><time>2026-07-24T23:36:17.000Z</time></trkpt>
        <trkpt lat="29.541633" lon="103.331675"><ele>2427.673</ele><time>2026-07-24T23:36:19.000Z</time></trkpt>
        <trkpt lat="29.541613" lon="103.331679"><ele>2427.6318</ele><time>2026-07-24T23:36:21.000Z</time></trkpt>
        <trkpt lat="29.541593" lon="103.331682"><ele>2427.5496</ele><time>2026-07-24T23:36:23.000Z</time></trkpt>
        <trkpt lat="29.541572" lon="103.331684"><ele>2427.677</ele><time>2026-07-24T23:36:25.000Z</time></trkpt>
        <trkpt lat="29.54155" lon="103.331687"><ele>2428.6448</ele><time>2026-07-24T23:36:27.000Z</time></trkpt>
        <trkpt lat="29.541526" lon="103.331692"><ele>2427.8162</ele><time>2026-07-24T23:36:29.000Z</time></trkpt>
        <trkpt lat="29.541504" lon="103.331697"><ele>2427.7776</ele><time>2026-07-24T23:36:31.000Z</time></trkpt>
        <trkpt lat="29.541486" lon="103.331701"><ele>2428.5845</ele><time>2026-07-24T23:36:33.000Z</time></trkpt>
        <trkpt lat="29.541469" lon="103.331704"><ele>2428.6284</ele><time>2026-07-24T23:36:35.000Z</time></trkpt>
        <trkpt lat="29.541449" lon="103.331707"><ele>2428.767</ele><time>2026-07-24T23:36:37.000Z</time></trkpt>
        <trkpt lat="29.541428" lon="103.33171"><ele>2430.17</ele><time>2026-07-24T23:36:39.000Z</time></trkpt>
        <trkpt lat="29.541405" lon="103.331713"><ele>2431.133</ele><time>2026-07-24T23:36:41.000Z</time></trkpt>
        <trkpt lat="29.54138" lon="103.331715"><ele>2431.0173</ele><time>2026-07-24T23:36:43.000Z</time></trkpt>
        <trkpt lat="29.541358" lon="103.331715"><ele>2432.0085</ele><time>2026-07-24T23:36:45.000Z</time></trkpt>
        <trkpt lat="29.541333" lon="103.331716"><ele>2433.073</ele><time>2026-07-24T23:36:47.000Z</time></trkpt>
        <trkpt lat="29.54131" lon="103.331719"><ele>2434.0461</ele><time>2026-07-24T23:36:49.000Z</time></trkpt>
        <trkpt lat="29.54129" lon="103.331722"><ele>2434.252</ele><time>2026-07-24T23:36:51.000Z</time></trkpt>
        <trkpt lat="29.541268" lon="103.331727"><ele>2433.904</ele><time>2026-07-24T23:36:53.000Z</time></trkpt>
        <trkpt lat="29.541246" lon="103.331732"><ele>2434.0425</ele><time>2026-07-24T23:36:55.000Z</time></trkpt>
        <trkpt lat="29.541222" lon="103.331737"><ele>2433.614</ele><time>2026-07-24T23:36:57.000Z</time></trkpt>
        <trkpt lat="29.541199" lon="103.331741"><ele>2432.55</ele><time>2026-07-24T23:36:59.000Z</time></trkpt>
        <trkpt lat="29.541176" lon="103.331745"><ele>2432.7712</ele><time>2026-07-24T23:37:01.000Z</time></trkpt>
        <trkpt lat="29.541158" lon="103.331748"><ele>2433.072</ele><time>2026-07-24T23:37:03.000Z</time></trkpt>
        <trkpt lat="29.541143" lon="103.331753"><ele>2433.2747</ele><time>2026-07-24T23:37:05.000Z</time></trkpt>
        <trkpt lat="29.541134" lon="103.331758"><ele>2432.654</ele><time>2026-07-24T23:37:07.000Z</time></trkpt>
        <trkpt lat="29.54113" lon="103.331765"><ele>2432.2407</ele><time>2026-07-24T23:37:09.000Z</time></trkpt>
        <trkpt lat="29.541116" lon="103.331785"><ele>2431.0898</ele><time>2026-07-24T23:37:13.000Z</time></trkpt>
        <trkpt lat="29.541111" lon="103.331791"><ele>2431.2275</ele><time>2026-07-24T23:37:15.000Z</time></trkpt>
        <trkpt lat="29.541104" lon="103.331795"><ele>2432.0935</ele><time>2026-07-24T23:37:17.000Z</time></trkpt>
        <trkpt lat="29.541088" lon="103.331801"><ele>2432.8484</ele><time>2026-07-24T23:37:21.000Z</time></trkpt>
        <trkpt lat="29.541078" lon="103.331801"><ele>2433.1013</ele><time>2026-07-24T23:37:23.000Z</time></trkpt>
        <trkpt lat="29.541063" lon="103.331801"><ele>2434.1995</ele><time>2026-07-24T23:37:25.000Z</time></trkpt>
        <trkpt lat="29.541047" lon="103.331803"><ele>2434.5564</ele><time>2026-07-24T23:37:27.000Z</time></trkpt>
        <trkpt lat="29.541033" lon="103.331804"><ele>2435.4858</ele><time>2026-07-24T23:37:29.000Z</time></trkpt>
        <trkpt lat="29.541018" lon="103.331807"><ele>2435.7996</ele><time>2026-07-24T23:37:31.000Z</time></trkpt>
        <trkpt lat="29.541004" lon="103.33181"><ele>2436.8706</ele><time>2026-07-24T23:37:33.000Z</time></trkpt>
        <trkpt lat="29.540994" lon="103.331812"><ele>2435.6582</ele><time>2026-07-24T23:37:35.000Z</time></trkpt>
        <trkpt lat="29.540982" lon="103.331811"><ele>2435.5295</ele><time>2026-07-24T23:37:37.000Z</time></trkpt>
        <trkpt lat="29.540962" lon="103.331807"><ele>2434.177</ele><time>2026-07-24T23:37:39.000Z</time></trkpt>
        <trkpt lat="29.54094" lon="103.331799"><ele>2435.5635</ele><time>2026-07-24T23:37:41.000Z</time></trkpt>
        <trkpt lat="29.540918" lon="103.331788"><ele>2437.105</ele><time>2026-07-24T23:37:43.000Z</time></trkpt>
        <trkpt lat="29.540897" lon="103.331776"><ele>2437.8557</ele><time>2026-07-24T23:37:45.000Z</time></trkpt>
        <trkpt lat="29.540876" lon="103.331762"><ele>2437.9014</ele><time>2026-07-24T23:37:47.000Z</time></trkpt>
        <trkpt lat="29.540857" lon="103.331751"><ele>2438.4636</ele><time>2026-07-24T23:37:49.000Z</time></trkpt>
        <trkpt lat="29.540836" lon="103.331742"><ele>2439.5327</ele><time>2026-07-24T23:37:51.000Z</time></trkpt>
        <trkpt lat="29.540816" lon="103.331733"><ele>2438.5457</ele><time>2026-07-24T23:37:53.000Z</time></trkpt>
        <trkpt lat="29.540798" lon="103.331727"><ele>2439.2283</ele><time>2026-07-24T23:37:55.000Z</time></trkpt>
        <trkpt lat="29.540784" lon="103.331724"><ele>2438.9424</ele><time>2026-07-24T23:37:57.000Z</time></trkpt>
        <trkpt lat="29.540772" lon="103.331722"><ele>2440.45</ele><time>2026-07-24T23:37:59.000Z</time></trkpt>
        <trkpt lat="29.540762" lon="103.331723"><ele>2440.4385</ele><time>2026-07-24T23:38:01.000Z</time></trkpt>
        <trkpt lat="29.540753" lon="103.331725"><ele>2440.3052</ele><time>2026-07-24T23:38:03.000Z</time></trkpt>
        <trkpt lat="29.540742" lon="103.331729"><ele>2440.4868</ele><time>2026-07-24T23:38:05.000Z</time></trkpt>
        <trkpt lat="29.540727" lon="103.331735"><ele>2441.979</ele><time>2026-07-24T23:38:07.000Z</time></trkpt>
        <trkpt lat="29.54071" lon="103.331743"><ele>2441.8152</ele><time>2026-07-24T23:38:09.000Z</time></trkpt>
        <trkpt lat="29.540692" lon="103.331752"><ele>2442.1655</ele><time>2026-07-24T23:38:11.000Z</time></trkpt>
        <trkpt lat="29.540674" lon="103.331761"><ele>2442.6414</ele><time>2026-07-24T23:38:13.000Z</time></trkpt>
        <trkpt lat="29.540662" lon="103.331772"><ele>2442.9805</ele><time>2026-07-24T23:38:15.000Z</time></trkpt>
        <trkpt lat="29.540654" lon="103.331784"><ele>2441.0415</ele><time>2026-07-24T23:38:17.000Z</time></trkpt>
        <trkpt lat="29.540645" lon="103.331798"><ele>2443.454</ele><time>2026-07-24T23:38:19.000Z</time></trkpt>
        <trkpt lat="29.540636" lon="103.331807"><ele>2442.6252</ele><time>2026-07-24T23:38:21.000Z</time></trkpt>
        <trkpt lat="29.540626" lon="103.331812"><ele>2441.672</ele><time>2026-07-24T23:38:23.000Z</time></trkpt>
        <trkpt lat="29.540611" lon="103.331816"><ele>2441.8228</ele><time>2026-07-24T23:38:25.000Z</time></trkpt>
        <trkpt lat="29.540597" lon="103.331819"><ele>2440.7917</ele><time>2026-07-24T23:38:27.000Z</time></trkpt>
        <trkpt lat="29.540585" lon="103.331823"><ele>2440.5154</ele><time>2026-07-24T23:38:29.000Z</time></trkpt>
        <trkpt lat="29.540569" lon="103.331831"><ele>2440.9155</ele><time>2026-07-24T23:38:31.000Z</time></trkpt>
        <trkpt lat="29.54055" lon="103.33184"><ele>2441.8323</ele><time>2026-07-24T23:38:33.000Z</time></trkpt>
        <trkpt lat="29.54053" lon="103.331849"><ele>2443.0742</ele><time>2026-07-24T23:38:35.000Z</time></trkpt>
        <trkpt lat="29.54051" lon="103.33186"><ele>2442.896</ele><time>2026-07-24T23:38:37.000Z</time></trkpt>
        <trkpt lat="29.540492" lon="103.331871"><ele>2443.0955</ele><time>2026-07-24T23:38:39.000Z</time></trkpt>
        <trkpt lat="29.540478" lon="103.33188"><ele>2443.677</ele><time>2026-07-24T23:38:41.000Z</time></trkpt>
        <trkpt lat="29.540459" lon="103.331895"><ele>2442.8765</ele><time>2026-07-24T23:38:43.000Z</time></trkpt>
        <trkpt lat="29.540441" lon="103.331909"><ele>2443.4392</ele><time>2026-07-24T23:38:45.000Z</time></trkpt>
        <trkpt lat="29.540419" lon="103.331923"><ele>2443.9207</ele><time>2026-07-24T23:38:47.000Z</time></trkpt>
        <trkpt lat="29.540398" lon="103.331933"><ele>2444.0525</ele><time>2026-07-24T23:38:49.000Z</time></trkpt>
        <trkpt lat="29.540377" lon="103.331942"><ele>2445.6584</ele><time>2026-07-24T23:38:51.000Z</time></trkpt>
        <trkpt lat="29.540356" lon="103.331949"><ele>2446.1648</ele><time>2026-07-24T23:38:53.000Z</time></trkpt>
        <trkpt lat="29.540335" lon="103.331957"><ele>2445.7273</ele><time>2026-07-24T23:38:55.000Z</time></trkpt>
        <trkpt lat="29.540315" lon="103.331965"><ele>2445.6697</ele><time>2026-07-24T23:38:57.000Z</time></trkpt>
        <trkpt lat="29.540295" lon="103.331975"><ele>2444.7573</ele><time>2026-07-24T23:38:59.000Z</time></trkpt>
        <trkpt lat="29.540282" lon="103.331984"><ele>2445.5076</ele><time>2026-07-24T23:39:01.000Z</time></trkpt>
        <trkpt lat="29.540277" lon="103.331993"><ele>2445.5774</ele><time>2026-07-24T23:39:03.000Z</time></trkpt>
        <trkpt lat="29.540274" lon="103.332002"><ele>2444.3586</ele><time>2026-07-24T23:39:07.000Z</time></trkpt>
        <trkpt lat="29.540262" lon="103.332026"><ele>2442.2568</ele><time>2026-07-24T23:39:13.000Z</time></trkpt>
        <trkpt lat="29.540255" lon="103.33204"><ele>2441.7515</ele><time>2026-07-24T23:39:15.000Z</time></trkpt>
        <trkpt lat="29.540254" lon="103.332041"><ele>2441.937</ele><time>2026-07-24T23:39:17.000Z</time></trkpt>
        <trkpt lat="29.540235" lon="103.332055"><ele>2441.759</ele><time>2026-07-24T23:39:23.000Z</time></trkpt>
        <trkpt lat="29.540216" lon="103.332069"><ele>2442.545</ele><time>2026-07-24T23:39:25.000Z</time></trkpt>
        <trkpt lat="29.540215" lon="103.332071"><ele>2442.4602</ele><time>2026-07-24T23:39:27.000Z</time></trkpt>
        <trkpt lat="29.540199" lon="103.332085"><ele>2442.633</ele><time>2026-07-24T23:39:31.000Z</time></trkpt>
        <trkpt lat="29.540179" lon="103.3321"><ele>2443.5342</ele><time>2026-07-24T23:39:33.000Z</time></trkpt>
        <trkpt lat="29.540153" lon="103.332114"><ele>2444.163</ele><time>2026-07-24T23:39:35.000Z</time></trkpt>
        <trkpt lat="29.540127" lon="103.332125"><ele>2444.3816</ele><time>2026-07-24T23:39:37.000Z</time></trkpt>
        <trkpt lat="29.540109" lon="103.33213"><ele>2443.7031</ele><time>2026-07-24T23:39:39.000Z</time></trkpt>
        <trkpt lat="29.540089" lon="103.332135"><ele>2444.2322</ele><time>2026-07-24T23:39:41.000Z</time></trkpt>
        <trkpt lat="29.540075" lon="103.332137"><ele>2444.6948</ele><time>2026-07-24T23:39:43.000Z</time></trkpt>
        <trkpt lat="29.540066" lon="103.33214"><ele>2444.6858</ele><time>2026-07-24T23:39:45.000Z</time></trkpt>
        <trkpt lat="29.54006" lon="103.332147"><ele>2444.4683</ele><time>2026-07-24T23:39:47.000Z</time></trkpt>
        <trkpt lat="29.540044" lon="103.332163"><ele>2444.4954</ele><time>2026-07-24T23:39:51.000Z</time></trkpt>
        <trkpt lat="29.540035" lon="103.332173"><ele>2445.602</ele><time>2026-07-24T23:39:53.000Z</time></trkpt>
        <trkpt lat="29.540026" lon="103.332184"><ele>2445.1802</ele><time>2026-07-24T23:39:55.000Z</time></trkpt>
        <trkpt lat="29.540012" lon="103.332195"><ele>2445.4878</ele><time>2026-07-24T23:39:57.000Z</time></trkpt>
        <trkpt lat="29.539995" lon="103.332206"><ele>2445.1162</ele><time>2026-07-24T23:39:59.000Z</time></trkpt>
        <trkpt lat="29.539978" lon="103.332215"><ele>2443.1372</ele><time>2026-07-24T23:40:01.000Z</time></trkpt>
        <trkpt lat="29.539958" lon="103.332224"><ele>2444.6643</ele><time>2026-07-24T23:40:03.000Z</time></trkpt>
        <trkpt lat="29.539937" lon="103.332232"><ele>2446.1335</ele><time>2026-07-24T23:40:05.000Z</time></trkpt>
        <trkpt lat="29.539922" lon="103.332237"><ele>2445.8428</ele><time>2026-07-24T23:40:07.000Z</time></trkpt>
        <trkpt lat="29.539906" lon="103.332242"><ele>2446.797</ele><time>2026-07-24T23:40:09.000Z</time></trkpt>
        <trkpt lat="29.539892" lon="103.332249"><ele>2446.845</ele><time>2026-07-24T23:40:11.000Z</time></trkpt>
        <trkpt lat="29.539874" lon="103.332258"><ele>2446.9749</ele><time>2026-07-24T23:40:13.000Z</time></trkpt>
        <trkpt lat="29.539852" lon="103.332271"><ele>2446.096</ele><time>2026-07-24T23:40:15.000Z</time></trkpt>
        <trkpt lat="29.53983" lon="103.332282"><ele>2444.0996</ele><time>2026-07-24T23:40:17.000Z</time></trkpt>
        <trkpt lat="29.539809" lon="103.332293"><ele>2443.1338</ele><time>2026-07-24T23:40:19.000Z</time></trkpt>
        <trkpt lat="29.539791" lon="103.332303"><ele>2442.7996</ele><time>2026-07-24T23:40:21.000Z</time></trkpt>
        <trkpt lat="29.539775" lon="103.332314"><ele>2442</ele><time>2026-07-24T23:40:23.000Z</time></trkpt>
        <trkpt lat="29.539757" lon="103.332326"><ele>2442.0437</ele><time>2026-07-24T23:40:25.000Z</time></trkpt>
        <trkpt lat="29.53974" lon="103.332335"><ele>2442.136</ele><time>2026-07-24T23:40:27.000Z</time></trkpt>
        <trkpt lat="29.539722" lon="103.332344"><ele>2442.2402</ele><time>2026-07-24T23:40:29.000Z</time></trkpt>
        <trkpt lat="29.539703" lon="103.332354"><ele>2442.1904</ele><time>2026-07-24T23:40:31.000Z</time></trkpt>
        <trkpt lat="29.53969" lon="103.332363"><ele>2442.8171</ele><time>2026-07-24T23:40:33.000Z</time></trkpt>
        <trkpt lat="29.539675" lon="103.332372"><ele>2443.8647</ele><time>2026-07-24T23:40:35.000Z</time></trkpt>
        <trkpt lat="29.53966" lon="103.33238"><ele>2444.1094</ele><time>2026-07-24T23:40:37.000Z</time></trkpt>
        <trkpt lat="29.539642" lon="103.332389"><ele>2443.3027</ele><time>2026-07-24T23:40:39.000Z</time></trkpt>
        <trkpt lat="29.539625" lon="103.332399"><ele>2442.4978</ele><time>2026-07-24T23:40:41.000Z</time></trkpt>
        <trkpt lat="29.539612" lon="103.332408"><ele>2441.4287</ele><time>2026-07-24T23:40:43.000Z</time></trkpt>
        <trkpt lat="29.539603" lon="103.332415"><ele>2441.1648</ele><time>2026-07-24T23:40:45.000Z</time></trkpt>
        <trkpt lat="29.539595" lon="103.332421"><ele>2441.0764</ele><time>2026-07-24T23:40:47.000Z</time></trkpt>
        <trkpt lat="29.539575" lon="103.332435"><ele>2440.8088</ele><time>2026-07-24T23:40:51.000Z</time></trkpt>
        <trkpt lat="29.539571" lon="103.332441"><ele>2441.1572</ele><time>2026-07-24T23:40:53.000Z</time></trkpt>
        <trkpt lat="29.539566" lon="103.332447"><ele>2442.3372</ele><time>2026-07-24T23:40:55.000Z</time></trkpt>
        <trkpt lat="29.539553" lon="103.332461"><ele>2442.2715</ele><time>2026-07-24T23:40:59.000Z</time></trkpt>
        <trkpt lat="29.539548" lon="103.332469"><ele>2443.165</ele><time>2026-07-24T23:41:01.000Z</time></trkpt>
        <trkpt lat="29.539546" lon="103.332476"><ele>2444.517</ele><time>2026-07-24T23:41:03.000Z</time></trkpt>
        <trkpt lat="29.539537" lon="103.332494"><ele>2446.2917</ele><time>2026-07-24T23:41:09.000Z</time></trkpt>
        <trkpt lat="29.539533" lon="103.332495"><ele>2447.7966</ele><time>2026-07-24T23:41:13.000Z</time></trkpt>
        <trkpt lat="29.539522" lon="103.332501"><ele>2449.2334</ele><time>2026-07-24T23:41:17.000Z</time></trkpt>
        <trkpt lat="29.539509" lon="103.332513"><ele>2449.5928</ele><time>2026-07-24T23:41:23.000Z</time></trkpt>
        <trkpt lat="29.539496" lon="103.332526"><ele>2450.1567</ele><time>2026-07-24T23:41:25.000Z</time></trkpt>
        <trkpt lat="29.539496" lon="103.332527"><ele>2450.2068</ele><time>2026-07-24T23:41:27.000Z</time></trkpt>
        <trkpt lat="29.539486" lon="103.332551"><ele>2450.9277</ele><time>2026-07-24T23:41:33.000Z</time></trkpt>
        <trkpt lat="29.539482" lon="103.332561"><ele>2451.1492</ele><time>2026-07-24T23:41:35.000Z</time></trkpt>
        <trkpt lat="29.539475" lon="103.332575"><ele>2450.9883</ele><time>2026-07-24T23:41:37.000Z</time></trkpt>
        <trkpt lat="29.539466" lon="103.332588"><ele>2451.4678</ele><time>2026-07-24T23:41:39.000Z</time></trkpt>
        <trkpt lat="29.539458" lon="103.332596"><ele>2450.8315</ele><time>2026-07-24T23:41:41.000Z</time></trkpt>
        <trkpt lat="29.53945" lon="103.332602"><ele>2452.6804</ele><time>2026-07-24T23:41:43.000Z</time></trkpt>
        <trkpt lat="29.539439" lon="103.33261"><ele>2453.6152</ele><time>2026-07-24T23:41:45.000Z</time></trkpt>
        <trkpt lat="29.539428" lon="103.332618"><ele>2452.9512</ele><time>2026-07-24T23:41:47.000Z</time></trkpt>
        <trkpt lat="29.539412" lon="103.332628"><ele>2452.5085</ele><time>2026-07-24T23:41:49.000Z</time></trkpt>
        <trkpt lat="29.539402" lon="103.332636"><ele>2452.3674</ele><time>2026-07-24T23:41:51.000Z</time></trkpt>
        <trkpt lat="29.539393" lon="103.332644"><ele>2452.744</ele><time>2026-07-24T23:41:53.000Z</time></trkpt>
        <trkpt lat="29.53938" lon="103.332658"><ele>2454.7126</ele><time>2026-07-24T23:41:55.000Z</time></trkpt>
        <trkpt lat="29.539369" lon="103.332671"><ele>2454.019</ele><time>2026-07-24T23:41:57.000Z</time></trkpt>
        <trkpt lat="29.539359" lon="103.332684"><ele>2453.9685</ele><time>2026-07-24T23:41:59.000Z</time></trkpt>
        <trkpt lat="29.539349" lon="103.332702"><ele>2454.4834</ele><time>2026-07-24T23:42:01.000Z</time></trkpt>
        <trkpt lat="29.539337" lon="103.33272"><ele>2454.5354</ele><time>2026-07-24T23:42:03.000Z</time></trkpt>
        <trkpt lat="29.539325" lon="103.332735"><ele>2454.9556</ele><time>2026-07-24T23:42:05.000Z</time></trkpt>
        <trkpt lat="29.539312" lon="103.332747"><ele>2454.436</ele><time>2026-07-24T23:42:07.000Z</time></trkpt>
        <trkpt lat="29.5393" lon="103.332757"><ele>2454.5398</ele><time>2026-07-24T23:42:09.000Z</time></trkpt>
        <trkpt lat="29.53929" lon="103.332768"><ele>2453.204</ele><time>2026-07-24T23:42:11.000Z</time></trkpt>
        <trkpt lat="29.539277" lon="103.332783"><ele>2452.586</ele><time>2026-07-24T23:42:13.000Z</time></trkpt>
        <trkpt lat="29.539263" lon="103.332795"><ele>2454.3933</ele><time>2026-07-24T23:42:15.000Z</time></trkpt>
        <trkpt lat="29.539247" lon="103.332805"><ele>2454.455</ele><time>2026-07-24T23:42:17.000Z</time></trkpt>
        <trkpt lat="29.539228" lon="103.332813"><ele>2453.6453</ele><time>2026-07-24T23:42:19.000Z</time></trkpt>
        <trkpt lat="29.539206" lon="103.332819"><ele>2455.502</ele><time>2026-07-24T23:42:21.000Z</time></trkpt>
        <trkpt lat="29.539187" lon="103.332823"><ele>2455.934</ele><time>2026-07-24T23:42:23.000Z</time></trkpt>
        <trkpt lat="29.539169" lon="103.332828"><ele>2456.4448</ele><time>2026-07-24T23:42:25.000Z</time></trkpt>
        <trkpt lat="29.539155" lon="103.332835"><ele>2455.6448</ele><time>2026-07-24T23:42:27.000Z</time></trkpt>
        <trkpt lat="29.539142" lon="103.332844"><ele>2455.549</ele><time>2026-07-24T23:42:29.000Z</time></trkpt>
        <trkpt lat="29.539131" lon="103.332854"><ele>2455.9453</ele><time>2026-07-24T23:42:31.000Z</time></trkpt>
        <trkpt lat="29.539123" lon="103.332862"><ele>2457.037</ele><time>2026-07-24T23:42:33.000Z</time></trkpt>
        <trkpt lat="29.539116" lon="103.332874"><ele>2458.0054</ele><time>2026-07-24T23:42:35.000Z</time></trkpt>
        <trkpt lat="29.539108" lon="103.332888"><ele>2458.2078</ele><time>2026-07-24T23:42:37.000Z</time></trkpt>
        <trkpt lat="29.539101" lon="103.3329"><ele>2459.1663</ele><time>2026-07-24T23:42:39.000Z</time></trkpt>
        <trkpt lat="29.539092" lon="103.332911"><ele>2460.5583</ele><time>2026-07-24T23:42:41.000Z</time></trkpt>
        <trkpt lat="29.53908" lon="103.332922"><ele>2459.8315</ele><time>2026-07-24T23:42:43.000Z</time></trkpt>
        <trkpt lat="29.539072" lon="103.332929"><ele>2460.4868</ele><time>2026-07-24T23:42:45.000Z</time></trkpt>
        <trkpt lat="29.539061" lon="103.332937"><ele>2460.7175</ele><time>2026-07-24T23:42:47.000Z</time></trkpt>
        <trkpt lat="29.539049" lon="103.33295"><ele>2461.859</ele><time>2026-07-24T23:42:49.000Z</time></trkpt>
        <trkpt lat="29.539036" lon="103.332964"><ele>2462.6113</ele><time>2026-07-24T23:42:51.000Z</time></trkpt>
        <trkpt lat="29.539021" lon="103.33298"><ele>2462.1772</ele><time>2026-07-24T23:42:53.000Z</time></trkpt>
        <trkpt lat="29.539002" lon="103.332997"><ele>2462.5674</ele><time>2026-07-24T23:42:55.000Z</time></trkpt>
        <trkpt lat="29.538984" lon="103.333012"><ele>2461.8865</ele><time>2026-07-24T23:42:57.000Z</time></trkpt>
        <trkpt lat="29.538963" lon="103.333027"><ele>2462.31</ele><time>2026-07-24T23:42:59.000Z</time></trkpt>
        <trkpt lat="29.538942" lon="103.333043"><ele>2462.5256</ele><time>2026-07-24T23:43:01.000Z</time></trkpt>
        <trkpt lat="29.53892" lon="103.333061"><ele>2463.195</ele><time>2026-07-24T23:43:03.000Z</time></trkpt>
        <trkpt lat="29.538898" lon="103.333075"><ele>2463.774</ele><time>2026-07-24T23:43:05.000Z</time></trkpt>
        <trkpt lat="29.538874" lon="103.333086"><ele>2463.4575</ele><time>2026-07-24T23:43:07.000Z</time></trkpt>
        <trkpt lat="29.538853" lon="103.333092"><ele>2462.3748</ele><time>2026-07-24T23:43:09.000Z</time></trkpt>
        <trkpt lat="29.538831" lon="103.333097"><ele>2459.785</ele><time>2026-07-24T23:43:11.000Z</time></trkpt>
        <trkpt lat="29.538807" lon="103.333101"><ele>2460.013</ele><time>2026-07-24T23:43:13.000Z</time></trkpt>
        <trkpt lat="29.538783" lon="103.333107"><ele>2458.9126</ele><time>2026-07-24T23:43:15.000Z</time></trkpt>
        <trkpt lat="29.53876" lon="103.333112"><ele>2459.8013</ele><time>2026-07-24T23:43:17.000Z</time></trkpt>
        <trkpt lat="29.538737" lon="103.333115"><ele>2459.9558</ele><time>2026-07-24T23:43:19.000Z</time></trkpt>
        <trkpt lat="29.538716" lon="103.333118"><ele>2459.2266</ele><time>2026-07-24T23:43:21.000Z</time></trkpt>
        <trkpt lat="29.538695" lon="103.33312"><ele>2459.5198</ele><time>2026-07-24T23:43:23.000Z</time></trkpt>
        <trkpt lat="29.538682" lon="103.333122"><ele>2458.2852</ele><time>2026-07-24T23:43:25.000Z</time></trkpt>
        <trkpt lat="29.538669" lon="103.333125"><ele>2458.7014</ele><time>2026-07-24T23:43:27.000Z</time></trkpt>
        <trkpt lat="29.538654" lon="103.333129"><ele>2459.0947</ele><time>2026-07-24T23:43:29.000Z</time></trkpt>
        <trkpt lat="29.53864" lon="103.333134"><ele>2458.4282</ele><time>2026-07-24T23:43:31.000Z</time></trkpt>
        <trkpt lat="29.538624" lon="103.333139"><ele>2459.2212</ele><time>2026-07-24T23:43:33.000Z</time></trkpt>
        <trkpt lat="29.538607" lon="103.333143"><ele>2458.7646</ele><time>2026-07-24T23:43:35.000Z</time></trkpt>
        <trkpt lat="29.538589" lon="103.333145"><ele>2459.0637</ele><time>2026-07-24T23:43:37.000Z</time></trkpt>
        <trkpt lat="29.538571" lon="103.333146"><ele>2458.382</ele><time>2026-07-24T23:43:39.000Z</time></trkpt>
        <trkpt lat="29.538553" lon="103.333146"><ele>2457.9702</ele><time>2026-07-24T23:43:41.000Z</time></trkpt>
        <trkpt lat="29.538534" lon="103.333147"><ele>2458.555</ele><time>2026-07-24T23:43:43.000Z</time></trkpt>
        <trkpt lat="29.538516" lon="103.333148"><ele>2460.8296</ele><time>2026-07-24T23:43:45.000Z</time></trkpt>
        <trkpt lat="29.538503" lon="103.333149"><ele>2460.796</ele><time>2026-07-24T23:43:47.000Z</time></trkpt>
        <trkpt lat="29.538485" lon="103.333152"><ele>2460.5173</ele><time>2026-07-24T23:43:49.000Z</time></trkpt>
        <trkpt lat="29.538469" lon="103.333155"><ele>2461.61</ele><time>2026-07-24T23:43:51.000Z</time></trkpt>
        <trkpt lat="29.538454" lon="103.333158"><ele>2461.6392</ele><time>2026-07-24T23:43:53.000Z</time></trkpt>
        <trkpt lat="29.538436" lon="103.333162"><ele>2461.468</ele><time>2026-07-24T23:43:55.000Z</time></trkpt>
        <trkpt lat="29.538417" lon="103.333168"><ele>2461.943</ele><time>2026-07-24T23:43:57.000Z</time></trkpt>
        <trkpt lat="29.538399" lon="103.333174"><ele>2461.5981</ele><time>2026-07-24T23:43:59.000Z</time></trkpt>
        <trkpt lat="29.538378" lon="103.33318"><ele>2462.201</ele><time>2026-07-24T23:44:01.000Z</time></trkpt>
        <trkpt lat="29.538365" lon="103.333185"><ele>2460.453</ele><time>2026-07-24T23:44:03.000Z</time></trkpt>
        <trkpt lat="29.538354" lon="103.33319"><ele>2461.5242</ele><time>2026-07-24T23:44:05.000Z</time></trkpt>
        <trkpt lat="29.538344" lon="103.333199"><ele>2462.2922</ele><time>2026-07-24T23:44:07.000Z</time></trkpt>
        <trkpt lat="29.538333" lon="103.333212"><ele>2462.8386</ele><time>2026-07-24T23:44:09.000Z</time></trkpt>
        <trkpt lat="29.53832" lon="103.333227"><ele>2464.6226</ele><time>2026-07-24T23:44:11.000Z</time></trkpt>
        <trkpt lat="29.538309" lon="103.333238"><ele>2464.3328</ele><time>2026-07-24T23:44:13.000Z</time></trkpt>
        <trkpt lat="29.538296" lon="103.333246"><ele>2464.7341</ele><time>2026-07-24T23:44:15.000Z</time></trkpt>
        <trkpt lat="29.53828" lon="103.333254"><ele>2465.341</ele><time>2026-07-24T23:44:17.000Z</time></trkpt>
        <trkpt lat="29.538266" lon="103.333263"><ele>2465.2656</ele><time>2026-07-24T23:44:19.000Z</time></trkpt>
        <trkpt lat="29.538252" lon="103.333276"><ele>2465.6338</ele><time>2026-07-24T23:44:21.000Z</time></trkpt>
        <trkpt lat="29.538238" lon="103.333288"><ele>2465.7744</ele><time>2026-07-24T23:44:23.000Z</time></trkpt>
        <trkpt lat="29.538225" lon="103.333298"><ele>2465.814</ele><time>2026-07-24T23:44:25.000Z</time></trkpt>
        <trkpt lat="29.538211" lon="103.33331"><ele>2466.7754</ele><time>2026-07-24T23:44:27.000Z</time></trkpt>
        <trkpt lat="29.538195" lon="103.333326"><ele>2467.8384</ele><time>2026-07-24T23:44:29.000Z</time></trkpt>
        <trkpt lat="29.538179" lon="103.333347"><ele>2468.529</ele><time>2026-07-24T23:44:31.000Z</time></trkpt>
        <trkpt lat="29.538161" lon="103.333364"><ele>2469.622</ele><time>2026-07-24T23:44:33.000Z</time></trkpt>
        <trkpt lat="29.538142" lon="103.333376"><ele>2468.2341</ele><time>2026-07-24T23:44:35.000Z</time></trkpt>
        <trkpt lat="29.538125" lon="103.333385"><ele>2467.584</ele><time>2026-07-24T23:44:37.000Z</time></trkpt>
        <trkpt lat="29.538103" lon="103.333393"><ele>2466.5657</ele><time>2026-07-24T23:44:39.000Z</time></trkpt>
        <trkpt lat="29.53808" lon="103.333403"><ele>2466.2598</ele><time>2026-07-24T23:44:41.000Z</time></trkpt>
        <trkpt lat="29.538054" lon="103.333414"><ele>2466.576</ele><time>2026-07-24T23:44:43.000Z</time></trkpt>
        <trkpt lat="29.538029" lon="103.333424"><ele>2466.6208</ele><time>2026-07-24T23:44:45.000Z</time></trkpt>
        <trkpt lat="29.538007" lon="103.33343"><ele>2466.1921</ele><time>2026-07-24T23:44:47.000Z</time></trkpt>
        <trkpt lat="29.537986" lon="103.333437"><ele>2466.736</ele><time>2026-07-24T23:44:49.000Z</time></trkpt>
        <trkpt lat="29.537974" lon="103.333443"><ele>2465.963</ele><time>2026-07-24T23:44:51.000Z</time></trkpt>
        <trkpt lat="29.537959" lon="103.333453"><ele>2466.7717</ele><time>2026-07-24T23:44:53.000Z</time></trkpt>
        <trkpt lat="29.537939" lon="103.333467"><ele>2468.5093</ele><time>2026-07-24T23:44:55.000Z</time></trkpt>
        <trkpt lat="29.537924" lon="103.333478"><ele>2468.2278</ele><time>2026-07-24T23:44:57.000Z</time></trkpt>
        <trkpt lat="29.53791" lon="103.333487"><ele>2469.0276</ele><time>2026-07-24T23:44:59.000Z</time></trkpt>
        <trkpt lat="29.537894" lon="103.333496"><ele>2468.4927</ele><time>2026-07-24T23:45:01.000Z</time></trkpt>
        <trkpt lat="29.537875" lon="103.333509"><ele>2468.8623</ele><time>2026-07-24T23:45:03.000Z</time></trkpt>
        <trkpt lat="29.537863" lon="103.333521"><ele>2468.9958</ele><time>2026-07-24T23:45:05.000Z</time></trkpt>
        <trkpt lat="29.537856" lon="103.333531"><ele>2469.1616</ele><time>2026-07-24T23:45:07.000Z</time></trkpt>
        <trkpt lat="29.537849" lon="103.333541"><ele>2469.1604</ele><time>2026-07-24T23:45:09.000Z</time></trkpt>
        <trkpt lat="29.537843" lon="103.333549"><ele>2468.33</ele><time>2026-07-24T23:45:11.000Z</time></trkpt>
        <trkpt lat="29.537837" lon="103.33356"><ele>2467.246</ele><time>2026-07-24T23:45:13.000Z</time></trkpt>
        <trkpt lat="29.537829" lon="103.333572"><ele>2466.9736</ele><time>2026-07-24T23:45:17.000Z</time></trkpt>
        <trkpt lat="29.537819" lon="103.333579"><ele>2467.106</ele><time>2026-07-24T23:45:21.000Z</time></trkpt>
        <trkpt lat="29.5378" lon="103.333595"><ele>2468.1118</ele><time>2026-07-24T23:45:23.000Z</time></trkpt>
        <trkpt lat="29.537798" lon="103.333596"><ele>2467.541</ele><time>2026-07-24T23:45:25.000Z</time></trkpt>
        <trkpt lat="29.537794" lon="103.333598"><ele>2466.9717</ele><time>2026-07-24T23:45:27.000Z</time></trkpt>
        <trkpt lat="29.537759" lon="103.333621"><ele>2468.064</ele><time>2026-07-24T23:45:31.000Z</time></trkpt>
        <trkpt lat="29.537739" lon="103.333634"><ele>2467.5854</ele><time>2026-07-24T23:45:33.000Z</time></trkpt>
        <trkpt lat="29.53772" lon="103.333651"><ele>2467.309</ele><time>2026-07-24T23:45:35.000Z</time></trkpt>
        <trkpt lat="29.537704" lon="103.333663"><ele>2468.8435</ele><time>2026-07-24T23:45:37.000Z</time></trkpt>
        <trkpt lat="29.537693" lon="103.333676"><ele>2468.7766</ele><time>2026-07-24T23:45:39.000Z</time></trkpt>
        <trkpt lat="29.537681" lon="103.333693"><ele>2469.2349</ele><time>2026-07-24T23:45:41.000Z</time></trkpt>
        <trkpt lat="29.537671" lon="103.333707"><ele>2470.0083</ele><time>2026-07-24T23:45:43.000Z</time></trkpt>
        <trkpt lat="29.537663" lon="103.333719"><ele>2471.6702</ele><time>2026-07-24T23:45:45.000Z</time></trkpt>
        <trkpt lat="29.537652" lon="103.333727"><ele>2472.6284</ele><time>2026-07-24T23:45:47.000Z</time></trkpt>
        <trkpt lat="29.537642" lon="103.333731"><ele>2471.4617</ele><time>2026-07-24T23:45:49.000Z</time></trkpt>
        <trkpt lat="29.537628" lon="103.333737"><ele>2472.061</ele><time>2026-07-24T23:45:51.000Z</time></trkpt>
        <trkpt lat="29.537615" lon="103.333742"><ele>2472.2078</ele><time>2026-07-24T23:45:53.000Z</time></trkpt>
        <trkpt lat="29.537599" lon="103.333747"><ele>2472.234</ele><time>2026-07-24T23:45:55.000Z</time></trkpt>
        <trkpt lat="29.53758" lon="103.333753"><ele>2472.4282</ele><time>2026-07-24T23:45:57.000Z</time></trkpt>
        <trkpt lat="29.537565" lon="103.333757"><ele>2472.2244</ele><time>2026-07-24T23:45:59.000Z</time></trkpt>
        <trkpt lat="29.537553" lon="103.333757"><ele>2472.6042</ele><time>2026-07-24T23:46:01.000Z</time></trkpt>
        <trkpt lat="29.537541" lon="103.333755"><ele>2472.0776</ele><time>2026-07-24T23:46:03.000Z</time></trkpt>
        <trkpt lat="29.537532" lon="103.333754"><ele>2472.9597</ele><time>2026-07-24T23:46:05.000Z</time></trkpt>
        <trkpt lat="29.537522" lon="103.333754"><ele>2473.6455</ele><time>2026-07-24T23:46:07.000Z</time></trkpt>
        <trkpt lat="29.537509" lon="103.333753"><ele>2473.6062</ele><time>2026-07-24T23:46:09.000Z</time></trkpt>
        <trkpt lat="29.537488" lon="103.333755"><ele>2474.359</ele><time>2026-07-24T23:46:11.000Z</time></trkpt>
        <trkpt lat="29.537467" lon="103.33376"><ele>2475.1782</ele><time>2026-07-24T23:46:13.000Z</time></trkpt>
        <trkpt lat="29.537448" lon="103.333764"><ele>2475.7546</ele><time>2026-07-24T23:46:15.000Z</time></trkpt>
        <trkpt lat="29.537431" lon="103.33377"><ele>2477.4363</ele><time>2026-07-24T23:46:17.000Z</time></trkpt>
        <trkpt lat="29.53741" lon="103.333776"><ele>2479.2969</ele><time>2026-07-24T23:46:19.000Z</time></trkpt>
        <trkpt lat="29.537388" lon="103.333781"><ele>2479.231</ele><time>2026-07-24T23:46:21.000Z</time></trkpt>
        <trkpt lat="29.537365" lon="103.333787"><ele>2478.1768</ele><time>2026-07-24T23:46:23.000Z</time></trkpt>
        <trkpt lat="29.537352" lon="103.333793"><ele>2477.4966</ele><time>2026-07-24T23:46:25.000Z</time></trkpt>
        <trkpt lat="29.53734" lon="103.333802"><ele>2477.4094</ele><time>2026-07-24T23:46:27.000Z</time></trkpt>
        <trkpt lat="29.537326" lon="103.333814"><ele>2476.5696</ele><time>2026-07-24T23:46:29.000Z</time></trkpt>
        <trkpt lat="29.537312" lon="103.333829"><ele>2474.6829</ele><time>2026-07-24T23:46:31.000Z</time></trkpt>
        <trkpt lat="29.537302" lon="103.333844"><ele>2474.8335</ele><time>2026-07-24T23:46:33.000Z</time></trkpt>
        <trkpt lat="29.537295" lon="103.333858"><ele>2475.6768</ele><time>2026-07-24T23:46:35.000Z</time></trkpt>
        <trkpt lat="29.53729" lon="103.333873"><ele>2475.989</ele><time>2026-07-24T23:46:37.000Z</time></trkpt>
        <trkpt lat="29.537288" lon="103.333886"><ele>2477.31</ele><time>2026-07-24T23:46:39.000Z</time></trkpt>
        <trkpt lat="29.537284" lon="103.333902"><ele>2477.4553</ele><time>2026-07-24T23:46:41.000Z</time></trkpt>
        <trkpt lat="29.53728" lon="103.333916"><ele>2477.6814</ele><time>2026-07-24T23:46:43.000Z</time></trkpt>
        <trkpt lat="29.537276" lon="103.333924"><ele>2477.9868</ele><time>2026-07-24T23:46:45.000Z</time></trkpt>
        <trkpt lat="29.537269" lon="103.333933"><ele>2475.7527</ele><time>2026-07-24T23:46:49.000Z</time></trkpt>
        <trkpt lat="29.537261" lon="103.333946"><ele>2475.598</ele><time>2026-07-24T23:46:55.000Z</time></trkpt>
        <trkpt lat="29.53726" lon="103.333953"><ele>2475.5244</ele><time>2026-07-24T23:46:57.000Z</time></trkpt>
        <trkpt lat="29.537258" lon="103.333969"><ele>2475.278</ele><time>2026-07-24T23:47:01.000Z</time></trkpt>
        <trkpt lat="29.537256" lon="103.333982"><ele>2475.5505</ele><time>2026-07-24T23:47:05.000Z</time></trkpt>
        <trkpt lat="29.537253" lon="103.333983"><ele>2475.8684</ele><time>2026-07-24T23:47:07.000Z</time></trkpt>
        <trkpt lat="29.537229" lon="103.333999"><ele>2475.3293</ele><time>2026-07-24T23:47:15.000Z</time></trkpt>
        <trkpt lat="29.537214" lon="103.334009"><ele>2474.859</ele><time>2026-07-24T23:47:17.000Z</time></trkpt>
        <trkpt lat="29.537213" lon="103.33401"><ele>2475.0156</ele><time>2026-07-24T23:47:19.000Z</time></trkpt>
        <trkpt lat="29.537205" lon="103.33403"><ele>2474.933</ele><time>2026-07-24T23:47:21.000Z</time></trkpt>
        <trkpt lat="29.537196" lon="103.334051"><ele>2475.4353</ele><time>2026-07-24T23:47:27.000Z</time></trkpt>
        <trkpt lat="29.537186" lon="103.334069"><ele>2475.509</ele><time>2026-07-24T23:47:29.000Z</time></trkpt>
        <trkpt lat="29.537175" lon="103.334087"><ele>2476.2888</ele><time>2026-07-24T23:47:31.000Z</time></trkpt>
        <trkpt lat="29.537164" lon="103.334104"><ele>2476.8574</ele><time>2026-07-24T23:47:33.000Z</time></trkpt>
        <trkpt lat="29.537154" lon="103.334115"><ele>2477.6917</ele><time>2026-07-24T23:47:35.000Z</time></trkpt>
        <trkpt lat="29.537144" lon="103.334125"><ele>2478.0503</ele><time>2026-07-24T23:47:37.000Z</time></trkpt>
        <trkpt lat="29.537134" lon="103.334134"><ele>2477.3071</ele><time>2026-07-24T23:47:39.000Z</time></trkpt>
        <trkpt lat="29.537123" lon="103.334144"><ele>2479.0493</ele><time>2026-07-24T23:47:41.000Z</time></trkpt>
        <trkpt lat="29.537112" lon="103.334154"><ele>2479.4055</ele><time>2026-07-24T23:47:43.000Z</time></trkpt>
        <trkpt lat="29.537101" lon="103.334161"><ele>2480.2764</ele><time>2026-07-24T23:47:45.000Z</time></trkpt>
        <trkpt lat="29.537092" lon="103.334165"><ele>2480.3606</ele><time>2026-07-24T23:47:47.000Z</time></trkpt>
        <trkpt lat="29.537084" lon="103.334167"><ele>2480.402</ele><time>2026-07-24T23:47:49.000Z</time></trkpt>
        <trkpt lat="29.53707" lon="103.334174"><ele>2482.6533</ele><time>2026-07-24T23:47:53.000Z</time></trkpt>
        <trkpt lat="29.537057" lon="103.334181"><ele>2484.0198</ele><time>2026-07-24T23:47:55.000Z</time></trkpt>
        <trkpt lat="29.537056" lon="103.334181"><ele>2484.596</ele><time>2026-07-24T23:47:57.000Z</time></trkpt>
        <trkpt lat="29.537041" lon="103.334185"><ele>2485.1543</ele><time>2026-07-24T23:48:03.000Z</time></trkpt>
        <trkpt lat="29.537027" lon="103.334186"><ele>2486.1357</ele><time>2026-07-24T23:48:07.000Z</time></trkpt>
        <trkpt lat="29.53701" lon="103.334187"><ele>2486.373</ele><time>2026-07-24T23:48:09.000Z</time></trkpt>
        <trkpt lat="29.537009" lon="103.334188"><ele>2486.197</ele><time>2026-07-24T23:48:11.000Z</time></trkpt>
        <trkpt lat="29.536993" lon="103.334191"><ele>2486.1863</ele><time>2026-07-24T23:48:15.000Z</time></trkpt>
        <trkpt lat="29.536935" lon="103.334207"><ele>2487.9844</ele><time>2026-07-24T23:48:25.000Z</time></trkpt>
        <trkpt lat="29.536927" lon="103.334211"><ele>2488.029</ele><time>2026-07-24T23:48:27.000Z</time></trkpt>
        <trkpt lat="29.536922" lon="103.334215"><ele>2488.8335</ele><time>2026-07-24T23:48:29.000Z</time></trkpt>
        <trkpt lat="29.536906" lon="103.334226"><ele>2488.705</ele><time>2026-07-24T23:48:35.000Z</time></trkpt>
        <trkpt lat="29.536902" lon="103.334225"><ele>2489.2256</ele><time>2026-07-24T23:48:37.000Z</time></trkpt>
        <trkpt lat="29.536891" lon="103.334228"><ele>2490.7734</ele><time>2026-07-24T23:48:41.000Z</time></trkpt>
        <trkpt lat="29.536876" lon="103.334231"><ele>2489.137</ele><time>2026-07-24T23:48:59.000Z</time></trkpt>
        <trkpt lat="29.536827" lon="103.334248"><ele>2489.4033</ele><time>2026-07-24T23:49:17.000Z</time></trkpt>
        <trkpt lat="29.536792" lon="103.334267"><ele>2493.4646</ele><time>2026-07-24T23:49:26.000Z</time></trkpt>
        <trkpt lat="29.536783" lon="103.334273"><ele>2495.0208</ele><time>2026-07-24T23:49:28.000Z</time></trkpt>
        <trkpt lat="29.536783" lon="103.334274"><ele>2496.266</ele><time>2026-07-24T23:49:30.000Z</time></trkpt>
        <trkpt lat="29.536767" lon="103.334291"><ele>2496.4963</ele><time>2026-07-24T23:49:34.000Z</time></trkpt>
        <trkpt lat="29.536751" lon="103.334305"><ele>2496.3003</ele><time>2026-07-24T23:49:36.000Z</time></trkpt>
        <trkpt lat="29.536732" lon="103.334318"><ele>2495.7751</ele><time>2026-07-24T23:49:38.000Z</time></trkpt>
        <trkpt lat="29.536714" lon="103.33433"><ele>2495.877</ele><time>2026-07-24T23:49:40.000Z</time></trkpt>
        <trkpt lat="29.536699" lon="103.334339"><ele>2496.8975</ele><time>2026-07-24T23:49:42.000Z</time></trkpt>
        <trkpt lat="29.536697" lon="103.334336"><ele>2497.1516</ele><time>2026-07-24T23:49:44.000Z</time></trkpt>
        <trkpt lat="29.536681" lon="103.334332"><ele>2497.2449</ele><time>2026-07-24T23:50:06.000Z</time></trkpt>
        <trkpt lat="29.536664" lon="103.334327"><ele>2498.0469</ele><time>2026-07-24T23:50:08.000Z</time></trkpt>
        <trkpt lat="29.536663" lon="103.334327"><ele>2497.5183</ele><time>2026-07-24T23:50:10.000Z</time></trkpt>
        <trkpt lat="29.536636" lon="103.334334"><ele>2497.1582</ele><time>2026-07-24T23:50:12.000Z</time></trkpt>
        <trkpt lat="29.536634" lon="103.334334"><ele>2495.6335</ele><time>2026-07-24T23:50:14.000Z</time></trkpt>
        <trkpt lat="29.536631" lon="103.334333"><ele>2495.1611</ele><time>2026-07-24T23:50:16.000Z</time></trkpt>
        <trkpt lat="29.536594" lon="103.334321"><ele>2494.4521</ele><time>2026-07-24T23:50:20.000Z</time></trkpt>
        <trkpt lat="29.536569" lon="103.334315"><ele>2493.4905</ele><time>2026-07-24T23:50:22.000Z</time></trkpt>
        <trkpt lat="29.536541" lon="103.334311"><ele>2494.002</ele><time>2026-07-24T23:50:24.000Z</time></trkpt>
        <trkpt lat="29.536517" lon="103.334312"><ele>2493.856</ele><time>2026-07-24T23:50:26.000Z</time></trkpt>
        <trkpt lat="29.536494" lon="103.334315"><ele>2493.614</ele><time>2026-07-24T23:50:28.000Z</time></trkpt>
        <trkpt lat="29.536475" lon="103.33432"><ele>2493.4814</ele><time>2026-07-24T23:50:30.000Z</time></trkpt>
        <trkpt lat="29.536458" lon="103.334325"><ele>2493.7805</ele><time>2026-07-24T23:50:32.000Z</time></trkpt>
        <trkpt lat="29.536444" lon="103.33433"><ele>2493.3174</ele><time>2026-07-24T23:50:34.000Z</time></trkpt>
        <trkpt lat="29.536433" lon="103.334335"><ele>2493.006</ele><time>2026-07-24T23:50:36.000Z</time></trkpt>
        <trkpt lat="29.536422" lon="103.33434"><ele>2492.7976</ele><time>2026-07-24T23:50:38.000Z</time></trkpt>
        <trkpt lat="29.536414" lon="103.334344"><ele>2493.1067</ele><time>2026-07-24T23:50:40.000Z</time></trkpt>
        <trkpt lat="29.536404" lon="103.334348"><ele>2494.0442</ele><time>2026-07-24T23:50:42.000Z</time></trkpt>
        <trkpt lat="29.536394" lon="103.334351"><ele>2494.1313</ele><time>2026-07-24T23:50:46.000Z</time></trkpt>
        <trkpt lat="29.53638" lon="103.334354"><ele>2494.6062</ele><time>2026-07-24T23:51:08.000Z</time></trkpt>
        <trkpt lat="29.536365" lon="103.334358"><ele>2495.634</ele><time>2026-07-24T23:51:10.000Z</time></trkpt>
        <trkpt lat="29.536365" lon="103.334358"><ele>2495.343</ele><time>2026-07-24T23:51:12.000Z</time></trkpt>
        <trkpt lat="29.536327" lon="103.33434"><ele>2496.062</ele><time>2026-07-24T23:51:16.000Z</time></trkpt>
        <trkpt lat="29.536327" lon="103.33434"><ele>2496.5122</ele><time>2026-07-24T23:51:18.000Z</time></trkpt>
        <trkpt lat="29.536325" lon="103.334339"><ele>2494.7375</ele><time>2026-07-24T23:51:20.000Z</time></trkpt>
        <trkpt lat="29.5363" lon="103.334321"><ele>2493.5068</ele><time>2026-07-24T23:51:24.000Z</time></trkpt>
        <trkpt lat="29.536287" lon="103.334312"><ele>2493.1694</ele><time>2026-07-24T23:51:26.000Z</time></trkpt>
        <trkpt lat="29.536279" lon="103.334305"><ele>2492.8555</ele><time>2026-07-24T23:51:28.000Z</time></trkpt>
        <trkpt lat="29.536271" lon="103.334301"><ele>2493.121</ele><time>2026-07-24T23:51:30.000Z</time></trkpt>
        <trkpt lat="29.536252" lon="103.334294"><ele>2491.4553</ele><time>2026-07-24T23:51:34.000Z</time></trkpt>
        <trkpt lat="29.536248" lon="103.334297"><ele>2494.157</ele><time>2026-07-24T23:51:36.000Z</time></trkpt>
        <trkpt lat="29.536236" lon="103.334296"><ele>2494.7622</ele><time>2026-07-24T23:51:38.000Z</time></trkpt>
        <trkpt lat="29.536222" lon="103.334292"><ele>2497.678</ele><time>2026-07-24T23:51:44.000Z</time></trkpt>
        <trkpt lat="29.536208" lon="103.334285"><ele>2498.956</ele><time>2026-07-24T23:51:46.000Z</time></trkpt>
        <trkpt lat="29.53619" lon="103.334274"><ele>2499.5217</ele><time>2026-07-24T23:51:48.000Z</time></trkpt>
        <trkpt lat="29.536175" lon="103.334263"><ele>2500.0789</ele><time>2026-07-24T23:51:50.000Z</time></trkpt>
        <trkpt lat="29.53616" lon="103.334255"><ele>2500.7864</ele><time>2026-07-24T23:51:52.000Z</time></trkpt>
        <trkpt lat="29.536146" lon="103.334245"><ele>2499.7822</ele><time>2026-07-24T23:51:54.000Z</time></trkpt>
        <trkpt lat="29.536132" lon="103.334235"><ele>2499.935</ele><time>2026-07-24T23:51:56.000Z</time></trkpt>
        <trkpt lat="29.536121" lon="103.334224"><ele>2499.8635</ele><time>2026-07-24T23:51:58.000Z</time></trkpt>
        <trkpt lat="29.536116" lon="103.334216"><ele>2500.4983</ele><time>2026-07-24T23:52:00.000Z</time></trkpt>
        <trkpt lat="29.536111" lon="103.334207"><ele>2501.0105</ele><time>2026-07-24T23:52:02.000Z</time></trkpt>
        <trkpt lat="29.536102" lon="103.334193"><ele>2499.9978</ele><time>2026-07-24T23:52:06.000Z</time></trkpt>
        <trkpt lat="29.536098" lon="103.334191"><ele>2500.2961</ele><time>2026-07-24T23:52:08.000Z</time></trkpt>
        <trkpt lat="29.536065" lon="103.334178"><ele>2498.7502</ele><time>2026-07-24T23:52:12.000Z</time></trkpt>
        <trkpt lat="29.536065" lon="103.334178"><ele>2498.962</ele><time>2026-07-24T23:52:14.000Z</time></trkpt>
        <trkpt lat="29.536063" lon="103.334177"><ele>2500.0344</ele><time>2026-07-24T23:52:16.000Z</time></trkpt>
        <trkpt lat="29.53603" lon="103.334156"><ele>2501.0674</ele><time>2026-07-24T23:52:22.000Z</time></trkpt>
        <trkpt lat="29.536015" lon="103.334147"><ele>2501.7935</ele><time>2026-07-24T23:52:24.000Z</time></trkpt>
        <trkpt lat="29.536004" lon="103.33414"><ele>2502.7517</ele><time>2026-07-24T23:52:26.000Z</time></trkpt>
        <trkpt lat="29.535995" lon="103.334136"><ele>2502.724</ele><time>2026-07-24T23:52:28.000Z</time></trkpt>
        <trkpt lat="29.535986" lon="103.334132"><ele>2503.3254</ele><time>2026-07-24T23:52:30.000Z</time></trkpt>
        <trkpt lat="29.535973" lon="103.334129"><ele>2506.6355</ele><time>2026-07-24T23:52:36.000Z</time></trkpt>
        <trkpt lat="29.535964" lon="103.334123"><ele>2505.8923</ele><time>2026-07-24T23:52:40.000Z</time></trkpt>
        <trkpt lat="29.53595" lon="103.334119"><ele>2506.377</ele><time>2026-07-24T23:52:43.000Z</time></trkpt>
        <trkpt lat="29.535933" lon="103.334116"><ele>2507.5112</ele><time>2026-07-24T23:52:45.000Z</time></trkpt>
        <trkpt lat="29.535932" lon="103.334116"><ele>2506.1592</ele><time>2026-07-24T23:52:47.000Z</time></trkpt>
        <trkpt lat="29.535917" lon="103.334109"><ele>2506.991</ele><time>2026-07-24T23:52:54.000Z</time></trkpt>
        <trkpt lat="29.535898" lon="103.3341"><ele>2507.2158</ele><time>2026-07-24T23:52:56.000Z</time></trkpt>
        <trkpt lat="29.535897" lon="103.334098"><ele>2507.5618</ele><time>2026-07-24T23:52:58.000Z</time></trkpt>
        <trkpt lat="29.535883" lon="103.334087"><ele>2508.206</ele><time>2026-07-24T23:53:02.000Z</time></trkpt>
        <trkpt lat="29.535869" lon="103.334073"><ele>2509.2937</ele><time>2026-07-24T23:53:04.000Z</time></trkpt>
        <trkpt lat="29.535855" lon="103.33406"><ele>2509.0295</ele><time>2026-07-24T23:53:06.000Z</time></trkpt>
        <trkpt lat="29.535839" lon="103.334047"><ele>2510.3193</ele><time>2026-07-24T23:53:08.000Z</time></trkpt>
        <trkpt lat="29.535822" lon="103.334035"><ele>2509.3955</ele><time>2026-07-24T23:53:10.000Z</time></trkpt>
        <trkpt lat="29.535804" lon="103.334026"><ele>2509.8237</ele><time>2026-07-24T23:53:12.000Z</time></trkpt>
        <trkpt lat="29.535786" lon="103.334017"><ele>2509.073</ele><time>2026-07-24T23:53:14.000Z</time></trkpt>
        <trkpt lat="29.535766" lon="103.334006"><ele>2507.1575</ele><time>2026-07-24T23:53:16.000Z</time></trkpt>
        <trkpt lat="29.535747" lon="103.333996"><ele>2506.8647</ele><time>2026-07-24T23:53:18.000Z</time></trkpt>
        <trkpt lat="29.535727" lon="103.333988"><ele>2508.671</ele><time>2026-07-24T23:53:20.000Z</time></trkpt>
        <trkpt lat="29.535718" lon="103.333989"><ele>2508.4653</ele><time>2026-07-24T23:53:22.000Z</time></trkpt>
        <trkpt lat="29.535718" lon="103.333989"><ele>2509.217</ele><time>2026-07-24T23:53:24.000Z</time></trkpt>
        <trkpt lat="29.535712" lon="103.334021"><ele>2510.247</ele><time>2026-07-24T23:53:34.000Z</time></trkpt>
        <trkpt lat="29.535681" lon="103.333998"><ele>2508.4812</ele><time>2026-07-24T23:53:38.000Z</time></trkpt>
        <trkpt lat="29.535681" lon="103.333998"><ele>2509.0637</ele><time>2026-07-24T23:53:40.000Z</time></trkpt>
        <trkpt lat="29.535677" lon="103.333995"><ele>2508.869</ele><time>2026-07-24T23:53:42.000Z</time></trkpt>
        <trkpt lat="29.535647" lon="103.333964"><ele>2508.8403</ele><time>2026-07-24T23:53:46.000Z</time></trkpt>
        <trkpt lat="29.535634" lon="103.333944"><ele>2508.8164</ele><time>2026-07-24T23:53:48.000Z</time></trkpt>
        <trkpt lat="29.535624" lon="103.333925"><ele>2508.2637</ele><time>2026-07-24T23:53:50.000Z</time></trkpt>
        <trkpt lat="29.53562" lon="103.333909"><ele>2510.0498</ele><time>2026-07-24T23:53:52.000Z</time></trkpt>
        <trkpt lat="29.535617" lon="103.333891"><ele>2510.1167</ele><time>2026-07-24T23:53:54.000Z</time></trkpt>
        <trkpt lat="29.535615" lon="103.333874"><ele>2510.2468</ele><time>2026-07-24T23:53:56.000Z</time></trkpt>
        <trkpt lat="29.535612" lon="103.333859"><ele>2511.4448</ele><time>2026-07-24T23:53:58.000Z</time></trkpt>
        <trkpt lat="29.535608" lon="103.333848"><ele>2512.151</ele><time>2026-07-24T23:54:00.000Z</time></trkpt>
        <trkpt lat="29.535603" lon="103.33384"><ele>2512.525</ele><time>2026-07-24T23:54:02.000Z</time></trkpt>
        <trkpt lat="29.535593" lon="103.333823"><ele>2512.6094</ele><time>2026-07-24T23:54:06.000Z</time></trkpt>
        <trkpt lat="29.535589" lon="103.333818"><ele>2513.878</ele><time>2026-07-24T23:54:08.000Z</time></trkpt>
        <trkpt lat="29.535585" lon="103.333809"><ele>2514.9336</ele><time>2026-07-24T23:54:12.000Z</time></trkpt>
        <trkpt lat="29.535564" lon="103.33377"><ele>2514.1604</ele><time>2026-07-24T23:54:27.000Z</time></trkpt>
        <trkpt lat="29.535551" lon="103.333747"><ele>2513.8416</ele><time>2026-07-24T23:54:29.000Z</time></trkpt>
        <trkpt lat="29.53555" lon="103.333745"><ele>2513.2505</ele><time>2026-07-24T23:54:31.000Z</time></trkpt>
        <trkpt lat="29.535546" lon="103.333738"><ele>2514.1624</ele><time>2026-07-24T23:54:33.000Z</time></trkpt>
        <trkpt lat="29.535533" lon="103.333719"><ele>2513.7698</ele><time>2026-07-24T23:54:35.000Z</time></trkpt>
        <trkpt lat="29.535518" lon="103.333702"><ele>2513.5254</ele><time>2026-07-24T23:54:37.000Z</time></trkpt>
        <trkpt lat="29.535506" lon="103.333687"><ele>2513.172</ele><time>2026-07-24T23:54:39.000Z</time></trkpt>
        <trkpt lat="29.535498" lon="103.333681"><ele>2513.1174</ele><time>2026-07-24T23:54:41.000Z</time></trkpt>
        <trkpt lat="29.535487" lon="103.333674"><ele>2512.814</ele><time>2026-07-24T23:54:43.000Z</time></trkpt>
        <trkpt lat="29.535481" lon="103.333667"><ele>2513.9102</ele><time>2026-07-24T23:54:45.000Z</time></trkpt>
        <trkpt lat="29.535473" lon="103.333659"><ele>2514.2764</ele><time>2026-07-24T23:54:49.000Z</time></trkpt>
        <trkpt lat="29.535457" lon="103.333644"><ele>2513.6072</ele><time>2026-07-24T23:54:51.000Z</time></trkpt>
        <trkpt lat="29.535456" lon="103.333643"><ele>2515.81</ele><time>2026-07-24T23:54:53.000Z</time></trkpt>
        <trkpt lat="29.535439" lon="103.333632"><ele>2514.7876</ele><time>2026-07-24T23:54:57.000Z</time></trkpt>
        <trkpt lat="29.535421" lon="103.333622"><ele>2513.7134</ele><time>2026-07-24T23:54:59.000Z</time></trkpt>
        <trkpt lat="29.535403" lon="103.33361"><ele>2514.3115</ele><time>2026-07-24T23:55:01.000Z</time></trkpt>
        <trkpt lat="29.535389" lon="103.333598"><ele>2514.6936</ele><time>2026-07-24T23:55:03.000Z</time></trkpt>
        <trkpt lat="29.535381" lon="103.333584"><ele>2514.9922</ele><time>2026-07-24T23:55:05.000Z</time></trkpt>
        <trkpt lat="29.535379" lon="103.33357"><ele>2514.798</ele><time>2026-07-24T23:55:07.000Z</time></trkpt>
        <trkpt lat="29.53538" lon="103.333559"><ele>2515.0403</ele><time>2026-07-24T23:55:09.000Z</time></trkpt>
        <trkpt lat="29.535382" lon="103.33355"><ele>2515.697</ele><time>2026-07-24T23:55:11.000Z</time></trkpt>
        <trkpt lat="29.535386" lon="103.333526"><ele>2516.6248</ele><time>2026-07-24T23:55:15.000Z</time></trkpt>
        <trkpt lat="29.535384" lon="103.333519"><ele>2515.064</ele><time>2026-07-24T23:55:17.000Z</time></trkpt>
        <trkpt lat="29.535378" lon="103.333514"><ele>2515.2805</ele><time>2026-07-24T23:55:19.000Z</time></trkpt>
        <trkpt lat="29.535359" lon="103.333496"><ele>2513.9902</ele><time>2026-07-24T23:55:23.000Z</time></trkpt>
        <trkpt lat="29.535353" lon="103.33349"><ele>2514.1345</ele><time>2026-07-24T23:55:25.000Z</time></trkpt>
        <trkpt lat="29.535351" lon="103.333486"><ele>2514.1218</ele><time>2026-07-24T23:55:27.000Z</time></trkpt>
        <trkpt lat="29.535345" lon="103.333466"><ele>2516.324</ele><time>2026-07-24T23:55:35.000Z</time></trkpt>
        <trkpt lat="29.53534" lon="103.333461"><ele>2517.1362</ele><time>2026-07-24T23:55:41.000Z</time></trkpt>
        <trkpt lat="29.53532" lon="103.333451"><ele>2516.061</ele><time>2026-07-24T23:56:00.000Z</time></trkpt>
        <trkpt lat="29.535307" lon="103.333446"><ele>2515.7</ele><time>2026-07-24T23:56:02.000Z</time></trkpt>
        <trkpt lat="29.535306" lon="103.333446"><ele>2515.212</ele><time>2026-07-24T23:56:04.000Z</time></trkpt>
        <trkpt lat="29.535288" lon="103.333447"><ele>2515.873</ele><time>2026-07-24T23:56:08.000Z</time></trkpt>
        <trkpt lat="29.535272" lon="103.333451"><ele>2516.0679</ele><time>2026-07-24T23:56:10.000Z</time></trkpt>
        <trkpt lat="29.535258" lon="103.333454"><ele>2517.8862</ele><time>2026-07-24T23:56:12.000Z</time></trkpt>
        <trkpt lat="29.535244" lon="103.333457"><ele>2518.46</ele><time>2026-07-24T23:56:14.000Z</time></trkpt>
        <trkpt lat="29.535238" lon="103.333461"><ele>2519.845</ele><time>2026-07-24T23:56:16.000Z</time></trkpt>
        <trkpt lat="29.535228" lon="103.333471"><ele>2518.697</ele><time>2026-07-24T23:56:22.000Z</time></trkpt>
        <trkpt lat="29.535221" lon="103.33348"><ele>2519.5554</ele><time>2026-07-24T23:56:26.000Z</time></trkpt>
        <trkpt lat="29.53522" lon="103.333487"><ele>2519.2854</ele><time>2026-07-24T23:56:28.000Z</time></trkpt>
        <trkpt lat="29.535219" lon="103.333517"><ele>2520.8093</ele><time>2026-07-24T23:56:32.000Z</time></trkpt>
        <trkpt lat="29.535219" lon="103.333517"><ele>2519.4448</ele><time>2026-07-24T23:56:34.000Z</time></trkpt>
        <trkpt lat="29.535218" lon="103.333522"><ele>2518.818</ele><time>2026-07-24T23:56:36.000Z</time></trkpt>
        <trkpt lat="29.535212" lon="103.333554"><ele>2519.7964</ele><time>2026-07-24T23:56:40.000Z</time></trkpt>
      </trkseg>
      <trkseg>
        <trkpt lat="29.535169" lon="103.33374"><ele>2531.6917</ele><time>2026-07-25T00:00:05.000Z</time></trkpt>
        <trkpt lat="29.535142" lon="103.333757"><ele>2533.9785</ele><time>2026-07-25T00:00:17.000Z</time></trkpt>
        <trkpt lat="29.53513" lon="103.333764"><ele>2534.5725</ele><time>2026-07-25T00:00:19.000Z</time></trkpt>
        <trkpt lat="29.535129" lon="103.333764"><ele>2534.4253</ele><time>2026-07-25T00:00:21.000Z</time></trkpt>
        <trkpt lat="29.535105" lon="103.333773"><ele>2533.8733</ele><time>2026-07-25T00:00:27.000Z</time></trkpt>
        <trkpt lat="29.535097" lon="103.333776"><ele>2533.8997</ele><time>2026-07-25T00:00:29.000Z</time></trkpt>
        <trkpt lat="29.535092" lon="103.333779"><ele>2534.712</ele><time>2026-07-25T00:00:31.000Z</time></trkpt>
        <trkpt lat="29.535074" lon="103.333785"><ele>2535.5225</ele><time>2026-07-25T00:00:37.000Z</time></trkpt>
        <trkpt lat="29.535069" lon="103.333783"><ele>2534.9958</ele><time>2026-07-25T00:00:41.000Z</time></trkpt>
        <trkpt lat="29.53506" lon="103.333778"><ele>2534.0793</ele><time>2026-07-25T00:00:45.000Z</time></trkpt>
        <trkpt lat="29.535035" lon="103.33376"><ele>2533.5735</ele><time>2026-07-25T00:00:47.000Z</time></trkpt>
        <trkpt lat="29.535033" lon="103.333759"><ele>2531.896</ele><time>2026-07-25T00:00:49.000Z</time></trkpt>
        <trkpt lat="29.535033" lon="103.333759"><ele>2532.2222</ele><time>2026-07-25T00:00:51.000Z</time></trkpt>
        <trkpt lat="29.535026" lon="103.3338"><ele>2533.0889</ele><time>2026-07-25T00:01:03.000Z</time></trkpt>
        <trkpt lat="29.535023" lon="103.333815"><ele>2533.1829</ele><time>2026-07-25T00:01:05.000Z</time></trkpt>
        <trkpt lat="29.535023" lon="103.333816"><ele>2533.292</ele><time>2026-07-25T00:01:07.000Z</time></trkpt>
        <trkpt lat="29.535051" lon="103.333859"><ele>2532.5366</ele><time>2026-07-25T00:01:10.000Z</time></trkpt>
        <trkpt lat="29.535051" lon="103.333859"><ele>2531.9048</ele><time>2026-07-25T00:01:12.000Z</time></trkpt>
        <trkpt lat="29.535048" lon="103.333864"><ele>2531.74</ele><time>2026-07-25T00:01:14.000Z</time></trkpt>
        <trkpt lat="29.535021" lon="103.333893"><ele>2530.9592</ele><time>2026-07-25T00:01:18.000Z</time></trkpt>
        <trkpt lat="29.535014" lon="103.333902"><ele>2530.5854</ele><time>2026-07-25T00:01:20.000Z</time></trkpt>
        <trkpt lat="29.535013" lon="103.333909"><ele>2531.117</ele><time>2026-07-25T00:01:22.000Z</time></trkpt>
        <trkpt lat="29.535008" lon="103.333924"><ele>2533.6323</ele><time>2026-07-25T00:01:26.000Z</time></trkpt>
        <trkpt lat="29.535002" lon="103.333928"><ele>2533.592</ele><time>2026-07-25T00:01:32.000Z</time></trkpt>
        <trkpt lat="29.535049" lon="103.333906"><ele>2534.3862</ele><time>2026-07-25T00:01:48.000Z</time></trkpt>
        <trkpt lat="29.53505" lon="103.333905"><ele>2534.633</ele><time>2026-07-25T00:01:50.000Z</time></trkpt>
        <trkpt lat="29.535047" lon="103.333905"><ele>2533.478</ele><time>2026-07-25T00:01:52.000Z</time></trkpt>
        <trkpt lat="29.534972" lon="103.333899"><ele>2535.4133</ele><time>2026-07-25T00:02:13.000Z</time></trkpt>
        <trkpt lat="29.534933" lon="103.333898"><ele>2533.4043</ele><time>2026-07-25T00:02:28.000Z</time></trkpt>
        <trkpt lat="29.534888" lon="103.333897"><ele>2531.8218</ele><time>2026-07-25T00:02:43.000Z</time></trkpt>
      </trkseg>
      <trkseg>
        <trkpt lat="29.534839" lon="103.333757"><ele>2540.4539</ele><time>2026-07-25T00:04:46.000Z</time></trkpt>
        <trkpt lat="29.534833" lon="103.333791"><ele>2546.1882</ele><time>2026-07-25T00:05:08.000Z</time></trkpt>
        <trkpt lat="29.534832" lon="103.333794"><ele>2546.1472</ele><time>2026-07-25T00:05:10.000Z</time></trkpt>
        <trkpt lat="29.534832" lon="103.333794"><ele>2546.1257</ele><time>2026-07-25T00:05:12.000Z</time></trkpt>
        <trkpt lat="29.534787" lon="103.333777"><ele>2540.144</ele><time>2026-07-25T00:05:26.000Z</time></trkpt>
        <trkpt lat="29.534787" lon="103.333777"><ele>2540.1091</ele><time>2026-07-25T00:05:28.000Z</time></trkpt>
        <trkpt lat="29.534771" lon="103.33378"><ele>2539.9697</ele><time>2026-07-25T00:05:30.000Z</time></trkpt>
        <trkpt lat="29.534711" lon="103.333794"><ele>2541.4868</ele><time>2026-07-25T00:05:32.000Z</time></trkpt>
        <trkpt lat="29.534538" lon="103.333836"><ele>2544.5762</ele><time>2026-07-25T00:05:34.000Z</time></trkpt>
        <trkpt lat="29.534525" lon="103.33384"><ele>2547.5862</ele><time>2026-07-25T00:05:36.000Z</time></trkpt>
        <trkpt lat="29.534501" lon="103.333846"><ele>2551.4478</ele><time>2026-07-25T00:05:38.000Z</time></trkpt>
        <trkpt lat="29.534415" lon="103.333868"><ele>2555.6882</ele><time>2026-07-25T00:05:40.000Z</time></trkpt>
        <trkpt lat="29.534275" lon="103.333904"><ele>2560.402</ele><time>2026-07-25T00:05:42.000Z</time></trkpt>
        <trkpt lat="29.534121" lon="103.333943"><ele>2565.5352</ele><time>2026-07-25T00:05:44.000Z</time></trkpt>
        <trkpt lat="29.533966" lon="103.333981"><ele>2570.8672</ele><time>2026-07-25T00:05:46.000Z</time></trkpt>
        <trkpt lat="29.533815" lon="103.334017"><ele>2576.1394</ele><time>2026-07-25T00:05:48.000Z</time></trkpt>
        <trkpt lat="29.533664" lon="103.334053"><ele>2582.302</ele><time>2026-07-25T00:05:50.000Z</time></trkpt>
        <trkpt lat="29.533511" lon="103.334088"><ele>2588.0884</ele><time>2026-07-25T00:05:52.000Z</time></trkpt>
        <trkpt lat="29.533355" lon="103.334124"><ele>2594.0747</ele><time>2026-07-25T00:05:54.000Z</time></trkpt>
        <trkpt lat="29.533194" lon="103.334161"><ele>2601.175</ele><time>2026-07-25T00:05:56.000Z</time></trkpt>
        <trkpt lat="29.53303" lon="103.334198"><ele>2608.6555</ele><time>2026-07-25T00:05:58.000Z</time></trkpt>
        <trkpt lat="29.532861" lon="103.334236"><ele>2616.0176</ele><time>2026-07-25T00:06:00.000Z</time></trkpt>
        <trkpt lat="29.532689" lon="103.334274"><ele>2623.601</ele><time>2026-07-25T00:06:02.000Z</time></trkpt>
        <trkpt lat="29.532517" lon="103.334313"><ele>2631.4976</ele><time>2026-07-25T00:06:04.000Z</time></trkpt>
        <trkpt lat="29.532345" lon="103.334351"><ele>2639.2449</ele><time>2026-07-25T00:06:06.000Z</time></trkpt>
        <trkpt lat="29.532174" lon="103.33439"><ele>2646.608</ele><time>2026-07-25T00:06:08.000Z</time></trkpt>
        <trkpt lat="29.532004" lon="103.33443"><ele>2654.3328</ele><time>2026-07-25T00:06:10.000Z</time></trkpt>
        <trkpt lat="29.531836" lon="103.334469"><ele>2662.5435</ele><time>2026-07-25T00:06:12.000Z</time></trkpt>
        <trkpt lat="29.531669" lon="103.334508"><ele>2670.7112</ele><time>2026-07-25T00:06:14.000Z</time></trkpt>
        <trkpt lat="29.531502" lon="103.334547"><ele>2678.7766</ele><time>2026-07-25T00:06:16.000Z</time></trkpt>
        <trkpt lat="29.531335" lon="103.334585"><ele>2687.1067</ele><time>2026-07-25T00:06:18.000Z</time></trkpt>
        <trkpt lat="29.531169" lon="103.334623"><ele>2695.7761</ele><time>2026-07-25T00:06:20.000Z</time></trkpt>
        <trkpt lat="29.531003" lon="103.334661"><ele>2703.8035</ele><time>2026-07-25T00:06:22.000Z</time></trkpt>
        <trkpt lat="29.530837" lon="103.3347"><ele>2712.3462</ele><time>2026-07-25T00:06:24.000Z</time></trkpt>
        <trkpt lat="29.530672" lon="103.33474"><ele>2721.1074</ele><time>2026-07-25T00:06:26.000Z</time></trkpt>
        <trkpt lat="29.530507" lon="103.334779"><ele>2729.7202</ele><time>2026-07-25T00:06:28.000Z</time></trkpt>
        <trkpt lat="29.530344" lon="103.334819"><ele>2738.0554</ele><time>2026-07-25T00:06:30.000Z</time></trkpt>
        <trkpt lat="29.530182" lon="103.334858"><ele>2747.013</ele><time>2026-07-25T00:06:32.000Z</time></trkpt>
        <trkpt lat="29.530019" lon="103.334897"><ele>2755.9265</ele><time>2026-07-25T00:06:34.000Z</time></trkpt>
        <trkpt lat="29.529857" lon="103.334935"><ele>2765.276</ele><time>2026-07-25T00:06:36.000Z</time></trkpt>
        <trkpt lat="29.529694" lon="103.334974"><ele>2774.916</ele><time>2026-07-25T00:06:38.000Z</time></trkpt>
        <trkpt lat="29.529532" lon="103.335012"><ele>2784.3467</ele><time>2026-07-25T00:06:40.000Z</time></trkpt>
        <trkpt lat="29.529371" lon="103.335051"><ele>2793.9731</ele><time>2026-07-25T00:06:42.000Z</time></trkpt>
        <trkpt lat="29.529209" lon="103.335088"><ele>2803.4678</ele><time>2026-07-25T00:06:44.000Z</time></trkpt>
        <trkpt lat="29.529049" lon="103.335125"><ele>2813.0332</ele><time>2026-07-25T00:06:46.000Z</time></trkpt>
        <trkpt lat="29.528889" lon="103.335161"><ele>2822.877</ele><time>2026-07-25T00:06:48.000Z</time></trkpt>
        <trkpt lat="29.52873" lon="103.335197"><ele>2832.1326</ele><time>2026-07-25T00:06:50.000Z</time></trkpt>
        <trkpt lat="29.528571" lon="103.335232"><ele>2841.8533</ele><time>2026-07-25T00:06:52.000Z</time></trkpt>
        <trkpt lat="29.528412" lon="103.335268"><ele>2851.4778</ele><time>2026-07-25T00:06:54.000Z</time></trkpt>
        <trkpt lat="29.528254" lon="103.335305"><ele>2861.559</ele><time>2026-07-25T00:06:56.000Z</time></trkpt>
        <trkpt lat="29.528097" lon="103.335341"><ele>2871.675</ele><time>2026-07-25T00:06:58.000Z</time></trkpt>
        <trkpt lat="29.527939" lon="103.335378"><ele>2881.8901</ele><time>2026-07-25T00:07:00.000Z</time></trkpt>
        <trkpt lat="29.527782" lon="103.335415"><ele>2891.9785</ele><time>2026-07-25T00:07:02.000Z</time></trkpt>
        <trkpt lat="29.527624" lon="103.335452"><ele>2902.1296</ele><time>2026-07-25T00:07:04.000Z</time></trkpt>
        <trkpt lat="29.527467" lon="103.335488"><ele>2912.281</ele><time>2026-07-25T00:07:06.000Z</time></trkpt>
        <trkpt lat="29.52731" lon="103.335525"><ele>2922.058</ele><time>2026-07-25T00:07:08.000Z</time></trkpt>
        <trkpt lat="29.527151" lon="103.335562"><ele>2932.259</ele><time>2026-07-25T00:07:10.000Z</time></trkpt>
        <trkpt lat="29.526994" lon="103.335597"><ele>2942.4524</ele><time>2026-07-25T00:07:12.000Z</time></trkpt>
        <trkpt lat="29.526838" lon="103.335633"><ele>2953.065</ele><time>2026-07-25T00:07:14.000Z</time></trkpt>
        <trkpt lat="29.526687" lon="103.335667"><ele>2963.0327</ele><time>2026-07-25T00:07:16.000Z</time></trkpt>
        <trkpt lat="29.526546" lon="103.335698"><ele>2972.3381</ele><time>2026-07-25T00:07:18.000Z</time></trkpt>
        <trkpt lat="29.52642" lon="103.335727"><ele>2980.919</ele><time>2026-07-25T00:07:20.000Z</time></trkpt>
        <trkpt lat="29.526307" lon="103.335752"><ele>2988.5754</ele><time>2026-07-25T00:07:22.000Z</time></trkpt>
        <trkpt lat="29.526204" lon="103.335775"><ele>2995.306</ele><time>2026-07-25T00:07:24.000Z</time></trkpt>
        <trkpt lat="29.526113" lon="103.335796"><ele>3001.3022</ele><time>2026-07-25T00:07:26.000Z</time></trkpt>
        <trkpt lat="29.526032" lon="103.335815"><ele>3006.5835</ele><time>2026-07-25T00:07:28.000Z</time></trkpt>
        <trkpt lat="29.525963" lon="103.335832"><ele>3011.0176</ele><time>2026-07-25T00:07:30.000Z</time></trkpt>
        <trkpt lat="29.525904" lon="103.335846"><ele>3015.0952</ele><time>2026-07-25T00:07:32.000Z</time></trkpt>
        <trkpt lat="29.525853" lon="103.33586"><ele>3018.4116</ele><time>2026-07-25T00:07:34.000Z</time></trkpt>
        <trkpt lat="29.52581" lon="103.335871"><ele>3021.2002</ele><time>2026-07-25T00:07:36.000Z</time></trkpt>
        <trkpt lat="29.525777" lon="103.33588"><ele>3023.919</ele><time>2026-07-25T00:07:38.000Z</time></trkpt>
        <trkpt lat="29.52575" lon="103.335887"><ele>3025.88</ele><time>2026-07-25T00:07:40.000Z</time></trkpt>
        <trkpt lat="29.525728" lon="103.335892"><ele>3027.2585</ele><time>2026-07-25T00:07:42.000Z</time></trkpt>
        <trkpt lat="29.525711" lon="103.335896"><ele>3028.6355</ele><time>2026-07-25T00:07:44.000Z</time></trkpt>
        <trkpt lat="29.525696" lon="103.3359"><ele>3029.664</ele><time>2026-07-25T00:07:46.000Z</time></trkpt>
        <trkpt lat="29.525685" lon="103.335903"><ele>3030.2205</ele><time>2026-07-25T00:07:48.000Z</time></trkpt>
        <trkpt lat="29.525675" lon="103.335904"><ele>3030.6287</ele><time>2026-07-25T00:07:50.000Z</time></trkpt>
        <trkpt lat="29.525667" lon="103.335905"><ele>3030.769</ele><time>2026-07-25T00:07:52.000Z</time></trkpt>
        <trkpt lat="29.525648" lon="103.335909"><ele>3032.4517</ele><time>2026-07-25T00:07:56.000Z</time></trkpt>
        <trkpt lat="29.525642" lon="103.335912"><ele>3032.9087</ele><time>2026-07-25T00:07:58.000Z</time></trkpt>
        <trkpt lat="29.525635" lon="103.335914"><ele>3033.938</ele><time>2026-07-25T00:08:00.000Z</time></trkpt>
        <trkpt lat="29.525616" lon="103.335922"><ele>3035.014</ele><time>2026-07-25T00:08:06.000Z</time></trkpt>
        <trkpt lat="29.525611" lon="103.335923"><ele>3035.3596</ele><time>2026-07-25T00:08:08.000Z</time></trkpt>
        <trkpt lat="29.525605" lon="103.335923"><ele>3036.0522</ele><time>2026-07-25T00:08:10.000Z</time></trkpt>
        <trkpt lat="29.52557" lon="103.335925"><ele>3036.8203</ele><time>2026-07-25T00:08:16.000Z</time></trkpt>
        <trkpt lat="29.52557" lon="103.335925"><ele>3037.4727</ele><time>2026-07-25T00:08:18.000Z</time></trkpt>
        <trkpt lat="29.52557" lon="103.335925"><ele>3038.1904</ele><time>2026-07-25T00:08:20.000Z</time></trkpt>
        <trkpt lat="29.525536" lon="103.335924"><ele>3038.868</ele><time>2026-07-25T00:08:26.000Z</time></trkpt>
        <trkpt lat="29.525536" lon="103.335924"><ele>3038.9075</ele><time>2026-07-25T00:08:28.000Z</time></trkpt>
        <trkpt lat="29.525536" lon="103.335924"><ele>3039.4578</ele><time>2026-07-25T00:08:30.000Z</time></trkpt>
        <trkpt lat="29.525565" lon="103.335906"><ele>3040.468</ele><time>2026-07-25T00:08:40.000Z</time></trkpt>
        <trkpt lat="29.525566" lon="103.335906"><ele>3039.595</ele><time>2026-07-25T00:08:42.000Z</time></trkpt>
        <trkpt lat="29.525486" lon="103.335913"><ele>3038.5417</ele><time>2026-07-25T00:08:45.000Z</time></trkpt>
        <trkpt lat="29.525483" lon="103.335911"><ele>3038.18</ele><time>2026-07-25T00:08:47.000Z</time></trkpt>
        <trkpt lat="29.525483" lon="103.335911"><ele>3037.4077</ele><time>2026-07-25T00:08:49.000Z</time></trkpt>
        <trkpt lat="29.525522" lon="103.335883"><ele>3035.2268</ele><time>2026-07-25T00:08:55.000Z</time></trkpt>
        <trkpt lat="29.525516" lon="103.335848"><ele>3035.5945</ele><time>2026-07-25T00:08:57.000Z</time></trkpt>
        <trkpt lat="29.525509" lon="103.335811"><ele>3036.903</ele><time>2026-07-25T00:08:59.000Z</time></trkpt>
        <trkpt lat="29.525502" lon="103.3358"><ele>3035.9832</ele><time>2026-07-25T00:09:01.000Z</time></trkpt>
        <trkpt lat="29.525492" lon="103.335789"><ele>3037.1082</ele><time>2026-07-25T00:09:03.000Z</time></trkpt>
        <trkpt lat="29.525485" lon="103.335784"><ele>3035.1907</ele><time>2026-07-25T00:09:05.000Z</time></trkpt>
        <trkpt lat="29.525486" lon="103.33578"><ele>3033.6924</ele><time>2026-07-25T00:09:07.000Z</time></trkpt>
        <trkpt lat="29.525481" lon="103.33575"><ele>3034.9824</ele><time>2026-07-25T00:09:11.000Z</time></trkpt>
        <trkpt lat="29.525471" lon="103.335735"><ele>3034.319</ele><time>2026-07-25T00:09:13.000Z</time></trkpt>
        <trkpt lat="29.525455" lon="103.335723"><ele>3033.7412</ele><time>2026-07-25T00:09:15.000Z</time></trkpt>
        <trkpt lat="29.525435" lon="103.335716"><ele>3035.1997</ele><time>2026-07-25T00:09:17.000Z</time></trkpt>
        <trkpt lat="29.525413" lon="103.335718"><ele>3035.9072</ele><time>2026-07-25T00:09:19.000Z</time></trkpt>
        <trkpt lat="29.52539" lon="103.335724"><ele>3035.3127</ele><time>2026-07-25T00:09:21.000Z</time></trkpt>
        <trkpt lat="29.525367" lon="103.335723"><ele>3034.662</ele><time>2026-07-25T00:09:23.000Z</time></trkpt>
        <trkpt lat="29.525354" lon="103.335716"><ele>3035.5115</ele><time>2026-07-25T00:09:25.000Z</time></trkpt>
        <trkpt lat="29.525347" lon="103.335707"><ele>3035.435</ele><time>2026-07-25T00:09:27.000Z</time></trkpt>
        <trkpt lat="29.525339" lon="103.335692"><ele>3036.649</ele><time>2026-07-25T00:09:29.000Z</time></trkpt>
        <trkpt lat="29.525333" lon="103.335674"><ele>3037.2234</ele><time>2026-07-25T00:09:31.000Z</time></trkpt>
        <trkpt lat="29.525323" lon="103.335643"><ele>3040.1843</ele><time>2026-07-25T00:09:33.000Z</time></trkpt>
        <trkpt lat="29.525311" lon="103.335613"><ele>3040.4407</ele><time>2026-07-25T00:09:35.000Z</time></trkpt>
        <trkpt lat="29.5253" lon="103.335597"><ele>3038.4307</ele><time>2026-07-25T00:09:37.000Z</time></trkpt>
        <trkpt lat="29.525285" lon="103.335584"><ele>3039.0017</ele><time>2026-07-25T00:09:39.000Z</time></trkpt>
        <trkpt lat="29.525271" lon="103.335583"><ele>3039.272</ele><time>2026-07-25T00:09:41.000Z</time></trkpt>
        <trkpt lat="29.525261" lon="103.335588"><ele>3039.8198</ele><time>2026-07-25T00:09:43.000Z</time></trkpt>
        <trkpt lat="29.525251" lon="103.335597"><ele>3040.3337</ele><time>2026-07-25T00:09:45.000Z</time></trkpt>
        <trkpt lat="29.525239" lon="103.335608"><ele>3041.8865</ele><time>2026-07-25T00:09:47.000Z</time></trkpt>
        <trkpt lat="29.525227" lon="103.335618"><ele>3041.852</ele><time>2026-07-25T00:09:49.000Z</time></trkpt>
        <trkpt lat="29.525216" lon="103.335629"><ele>3041.8323</ele><time>2026-07-25T00:09:51.000Z</time></trkpt>
        <trkpt lat="29.525209" lon="103.33563"><ele>3041.4985</ele><time>2026-07-25T00:09:53.000Z</time></trkpt>
        <trkpt lat="29.525194" lon="103.335628"><ele>3040.2869</ele><time>2026-07-25T00:09:57.000Z</time></trkpt>
        <trkpt lat="29.525186" lon="103.335623"><ele>3040.5593</ele><time>2026-07-25T00:09:59.000Z</time></trkpt>
        <trkpt lat="29.525179" lon="103.335615"><ele>3041.465</ele><time>2026-07-25T00:10:01.000Z</time></trkpt>
        <trkpt lat="29.52517" lon="103.335602"><ele>3041.5112</ele><time>2026-07-25T00:10:05.000Z</time></trkpt>
        <trkpt lat="29.525167" lon="103.335594"><ele>3040.6108</ele><time>2026-07-25T00:10:09.000Z</time></trkpt>
        <trkpt lat="29.525162" lon="103.335581"><ele>3041.3123</ele><time>2026-07-25T00:10:13.000Z</time></trkpt>
        <trkpt lat="29.52516" lon="103.335569"><ele>3040.9175</ele><time>2026-07-25T00:10:17.000Z</time></trkpt>
        <trkpt lat="29.525159" lon="103.335561"><ele>3039.864</ele><time>2026-07-25T00:10:25.000Z</time></trkpt>
        <trkpt lat="29.525158" lon="103.335537"><ele>3038.9272</ele><time>2026-07-25T00:10:35.000Z</time></trkpt>
        <trkpt lat="29.525158" lon="103.33553"><ele>3038.9219</ele><time>2026-07-25T00:10:37.000Z</time></trkpt>
        <trkpt lat="29.525158" lon="103.335524"><ele>3039.187</ele><time>2026-07-25T00:10:39.000Z</time></trkpt>
        <trkpt lat="29.525155" lon="103.335501"><ele>3039.5576</ele><time>2026-07-25T00:10:59.000Z</time></trkpt>
        <trkpt lat="29.525156" lon="103.33547"><ele>3042.0952</ele><time>2026-07-25T00:11:15.000Z</time></trkpt>
        <trkpt lat="29.525159" lon="103.335458"><ele>3042.263</ele><time>2026-07-25T00:11:31.000Z</time></trkpt>
        <trkpt lat="29.525154" lon="103.335449"><ele>3044.574</ele><time>2026-07-25T00:11:43.000Z</time></trkpt>
        <trkpt lat="29.52519" lon="103.335504"><ele>3039.989</ele><time>2026-07-25T00:11:51.000Z</time></trkpt>
        <trkpt lat="29.52519" lon="103.335504"><ele>3040.1948</ele><time>2026-07-25T00:11:53.000Z</time></trkpt>
        <trkpt lat="29.52519" lon="103.335502"><ele>3041.9243</ele><time>2026-07-25T00:11:55.000Z</time></trkpt>
        <trkpt lat="29.52519" lon="103.335458"><ele>3040.5742</ele><time>2026-07-25T00:11:59.000Z</time></trkpt>
        <trkpt lat="29.52519" lon="103.335458"><ele>3039.762</ele><time>2026-07-25T00:12:01.000Z</time></trkpt>
        <trkpt lat="29.525189" lon="103.335457"><ele>3038.4263</ele><time>2026-07-25T00:12:03.000Z</time></trkpt>
        <trkpt lat="29.525184" lon="103.335423"><ele>3037.8115</ele><time>2026-07-25T00:12:11.000Z</time></trkpt>
        <trkpt lat="29.525186" lon="103.335419"><ele>3038.057</ele><time>2026-07-25T00:12:13.000Z</time></trkpt>
        <trkpt lat="29.525195" lon="103.335402"><ele>3038.5571</ele><time>2026-07-25T00:12:15.000Z</time></trkpt>
        <trkpt lat="29.5252" lon="103.335392"><ele>3037.0225</ele><time>2026-07-25T00:12:21.000Z</time></trkpt>
        <trkpt lat="29.525209" lon="103.335379"><ele>3036.8208</ele><time>2026-07-25T00:12:23.000Z</time></trkpt>
        <trkpt lat="29.525217" lon="103.335364"><ele>3035.8223</ele><time>2026-07-25T00:12:25.000Z</time></trkpt>
        <trkpt lat="29.525229" lon="103.335344"><ele>3035.2676</ele><time>2026-07-25T00:12:27.000Z</time></trkpt>
        <trkpt lat="29.52524" lon="103.335325"><ele>3036.341</ele><time>2026-07-25T00:12:29.000Z</time></trkpt>
        <trkpt lat="29.525249" lon="103.33531"><ele>3035.4617</ele><time>2026-07-25T00:12:31.000Z</time></trkpt>
        <trkpt lat="29.525253" lon="103.335298"><ele>3034.222</ele><time>2026-07-25T00:12:33.000Z</time></trkpt>
        <trkpt lat="29.525258" lon="103.335292"><ele>3033.6357</ele><time>2026-07-25T00:12:35.000Z</time></trkpt>
        <trkpt lat="29.525267" lon="103.335283"><ele>3032.981</ele><time>2026-07-25T00:12:45.000Z</time></trkpt>
        <trkpt lat="29.525276" lon="103.335271"><ele>3031.38</ele><time>2026-07-25T00:12:53.000Z</time></trkpt>
        <trkpt lat="29.525279" lon="103.335263"><ele>3031.2822</ele><time>2026-07-25T00:12:55.000Z</time></trkpt>
        <trkpt lat="29.525291" lon="103.335233"><ele>3030.882</ele><time>2026-07-25T00:12:57.000Z</time></trkpt>
        <trkpt lat="29.525292" lon="103.33523"><ele>3031.5576</ele><time>2026-07-25T00:12:59.000Z</time></trkpt>
        <trkpt lat="29.525293" lon="103.335228"><ele>3030.7427</ele><time>2026-07-25T00:13:01.000Z</time></trkpt>
        <trkpt lat="29.525301" lon="103.335189"><ele>3031.184</ele><time>2026-07-25T00:13:05.000Z</time></trkpt>
        <trkpt lat="29.525307" lon="103.335157"><ele>3032.4055</ele><time>2026-07-25T00:13:07.000Z</time></trkpt>
        <trkpt lat="29.525311" lon="103.33513"><ele>3032.6504</ele><time>2026-07-25T00:13:09.000Z</time></trkpt>
        <trkpt lat="29.525314" lon="103.335107"><ele>3033.5615</ele><time>2026-07-25T00:13:11.000Z</time></trkpt>
        <trkpt lat="29.525314" lon="103.335094"><ele>3034.243</ele><time>2026-07-25T00:13:13.000Z</time></trkpt>
        <trkpt lat="29.525312" lon="103.335092"><ele>3035.0085</ele><time>2026-07-25T00:13:15.000Z</time></trkpt>
        <trkpt lat="29.525288" lon="103.335074"><ele>3036.7937</ele><time>2026-07-25T00:13:20.000Z</time></trkpt>
        <trkpt lat="29.525288" lon="103.335074"><ele>3035.464</ele><time>2026-07-25T00:13:22.000Z</time></trkpt>
        <trkpt lat="29.525284" lon="103.335073"><ele>3034.8865</ele><time>2026-07-25T00:13:24.000Z</time></trkpt>
        <trkpt lat="29.525246" lon="103.335065"><ele>3034.716</ele><time>2026-07-25T00:13:28.000Z</time></trkpt>
        <trkpt lat="29.525221" lon="103.335058"><ele>3034.438</ele><time>2026-07-25T00:13:30.000Z</time></trkpt>
        <trkpt lat="29.525202" lon="103.335051"><ele>3034.6592</ele><time>2026-07-25T00:13:32.000Z</time></trkpt>
        <trkpt lat="29.525191" lon="103.335048"><ele>3034.3113</ele><time>2026-07-25T00:13:34.000Z</time></trkpt>
        <trkpt lat="29.525188" lon="103.335044"><ele>3033.9253</ele><time>2026-07-25T00:13:36.000Z</time></trkpt>
        <trkpt lat="29.525173" lon="103.335023"><ele>3032.389</ele><time>2026-07-25T00:13:45.000Z</time></trkpt>
        <trkpt lat="29.525164" lon="103.335011"><ele>3031.8433</ele><time>2026-07-25T00:13:47.000Z</time></trkpt>
        <trkpt lat="29.525163" lon="103.335011"><ele>3031.6155</ele><time>2026-07-25T00:13:49.000Z</time></trkpt>
        <trkpt lat="29.525146" lon="103.334998"><ele>3031.3567</ele><time>2026-07-25T00:13:55.000Z</time></trkpt>
        <trkpt lat="29.525135" lon="103.33499"><ele>3030.525</ele><time>2026-07-25T00:13:57.000Z</time></trkpt>
        <trkpt lat="29.525126" lon="103.334984"><ele>3030.4954</ele><time>2026-07-25T00:13:59.000Z</time></trkpt>
        <trkpt lat="29.525118" lon="103.334976"><ele>3029.98</ele><time>2026-07-25T00:14:01.000Z</time></trkpt>
        <trkpt lat="29.52511" lon="103.334969"><ele>3029.3542</ele><time>2026-07-25T00:14:03.000Z</time></trkpt>
        <trkpt lat="29.525102" lon="103.334961"><ele>3029.0427</ele><time>2026-07-25T00:14:05.000Z</time></trkpt>
        <trkpt lat="29.525092" lon="103.334948"><ele>3027.8755</ele><time>2026-07-25T00:14:07.000Z</time></trkpt>
        <trkpt lat="29.525079" lon="103.334932"><ele>3028.031</ele><time>2026-07-25T00:14:09.000Z</time></trkpt>
        <trkpt lat="29.525065" lon="103.334914"><ele>3028.3289</ele><time>2026-07-25T00:14:11.000Z</time></trkpt>
        <trkpt lat="29.525054" lon="103.334896"><ele>3029.1077</ele><time>2026-07-25T00:14:13.000Z</time></trkpt>
        <trkpt lat="29.525047" lon="103.334882"><ele>3028.8733</ele><time>2026-07-25T00:14:15.000Z</time></trkpt>
        <trkpt lat="29.525045" lon="103.334873"><ele>3029.1165</ele><time>2026-07-25T00:14:17.000Z</time></trkpt>
        <trkpt lat="29.52504" lon="103.33487"><ele>3028.4314</ele><time>2026-07-25T00:14:21.000Z</time></trkpt>
        <trkpt lat="29.525021" lon="103.334855"><ele>3022.615</ele><time>2026-07-25T00:16:11.000Z</time></trkpt>
        <trkpt lat="29.525005" lon="103.334843"><ele>3023.099</ele><time>2026-07-25T00:16:13.000Z</time></trkpt>
        <trkpt lat="29.524987" lon="103.334836"><ele>3023.1147</ele><time>2026-07-25T00:16:15.000Z</time></trkpt>
        <trkpt lat="29.524959" lon="103.334825"><ele>3022.707</ele><time>2026-07-25T00:16:18.000Z</time></trkpt>
        <trkpt lat="29.524959" lon="103.334825"><ele>3022.537</ele><time>2026-07-25T00:16:20.000Z</time></trkpt>
        <trkpt lat="29.524957" lon="103.334824"><ele>3024.2512</ele><time>2026-07-25T00:16:22.000Z</time></trkpt>
        <trkpt lat="29.524925" lon="103.334803"><ele>3022.6555</ele><time>2026-07-25T00:16:26.000Z</time></trkpt>
        <trkpt lat="29.524903" lon="103.334791"><ele>3022.1821</ele><time>2026-07-25T00:16:28.000Z</time></trkpt>
        <trkpt lat="29.524878" lon="103.334779"><ele>3022.0078</ele><time>2026-07-25T00:16:30.000Z</time></trkpt>
        <trkpt lat="29.524855" lon="103.334768"><ele>3021.7512</ele><time>2026-07-25T00:16:32.000Z</time></trkpt>
        <trkpt lat="29.524839" lon="103.334761"><ele>3022.7637</ele><time>2026-07-25T00:16:34.000Z</time></trkpt>
        <trkpt lat="29.52483" lon="103.334757"><ele>3023.3027</ele><time>2026-07-25T00:16:36.000Z</time></trkpt>
        <trkpt lat="29.524826" lon="103.334756"><ele>3023.569</ele><time>2026-07-25T00:16:38.000Z</time></trkpt>
        <trkpt lat="29.524808" lon="103.334754"><ele>3028.4575</ele><time>2026-07-25T00:17:01.000Z</time></trkpt>
        <trkpt lat="29.524779" lon="103.33475"><ele>3030.128</ele><time>2026-07-25T00:17:03.000Z</time></trkpt>
        <trkpt lat="29.524777" lon="103.334749"><ele>3030.668</ele><time>2026-07-25T00:17:05.000Z</time></trkpt>
        <trkpt lat="29.524775" lon="103.334749"><ele>3030.2021</ele><time>2026-07-25T00:17:07.000Z</time></trkpt>
        <trkpt lat="29.524748" lon="103.334752"><ele>3032.2668</ele><time>2026-07-25T00:17:41.000Z</time></trkpt>
        <trkpt lat="29.524743" lon="103.334751"><ele>3030.693</ele><time>2026-07-25T00:17:43.000Z</time></trkpt>
        <trkpt lat="29.524736" lon="103.334748"><ele>3031.2773</ele><time>2026-07-25T00:17:45.000Z</time></trkpt>
        <trkpt lat="29.524711" lon="103.334736"><ele>3032.15</ele><time>2026-07-25T00:17:47.000Z</time></trkpt>
        <trkpt lat="29.524709" lon="103.334736"><ele>3031.4585</ele><time>2026-07-25T00:17:49.000Z</time></trkpt>
        <trkpt lat="29.524707" lon="103.334736"><ele>3030.9104</ele><time>2026-07-25T00:17:51.000Z</time></trkpt>
        <trkpt lat="29.524677" lon="103.334742"><ele>3032.2275</ele><time>2026-07-25T00:17:55.000Z</time></trkpt>
        <trkpt lat="29.524649" lon="103.334751"><ele>3032.0361</ele><time>2026-07-25T00:17:57.000Z</time></trkpt>
        <trkpt lat="29.524612" lon="103.334765"><ele>3034.6772</ele><time>2026-07-25T00:17:59.000Z</time></trkpt>
        <trkpt lat="29.524579" lon="103.33478"><ele>3035.2878</ele><time>2026-07-25T00:18:01.000Z</time></trkpt>
        <trkpt lat="29.52455" lon="103.334797"><ele>3036.5537</ele><time>2026-07-25T00:18:03.000Z</time></trkpt>
        <trkpt lat="29.52452" lon="103.334814"><ele>3035.5552</ele><time>2026-07-25T00:18:05.000Z</time></trkpt>
        <trkpt lat="29.524488" lon="103.334834"><ele>3034.8752</ele><time>2026-07-25T00:18:07.000Z</time></trkpt>
        <trkpt lat="29.524455" lon="103.334856"><ele>3036.3467</ele><time>2026-07-25T00:18:09.000Z</time></trkpt>
        <trkpt lat="29.524428" lon="103.33488"><ele>3034.807</ele><time>2026-07-25T00:18:11.000Z</time></trkpt>
        <trkpt lat="29.524402" lon="103.334903"><ele>3033.8105</ele><time>2026-07-25T00:18:13.000Z</time></trkpt>
        <trkpt lat="29.524377" lon="103.334919"><ele>3032.4631</ele><time>2026-07-25T00:18:15.000Z</time></trkpt>
        <trkpt lat="29.524349" lon="103.334931"><ele>3034.295</ele><time>2026-07-25T00:18:17.000Z</time></trkpt>
        <trkpt lat="29.524321" lon="103.334937"><ele>3033.8425</ele><time>2026-07-25T00:18:19.000Z</time></trkpt>
        <trkpt lat="29.524289" lon="103.33494"><ele>3035.0078</ele><time>2026-07-25T00:18:21.000Z</time></trkpt>
        <trkpt lat="29.524257" lon="103.33494"><ele>3035.2903</ele><time>2026-07-25T00:18:23.000Z</time></trkpt>
        <trkpt lat="29.524228" lon="103.334939"><ele>3035.6895</ele><time>2026-07-25T00:18:25.000Z</time></trkpt>
        <trkpt lat="29.5242" lon="103.334937"><ele>3035.6455</ele><time>2026-07-25T00:18:27.000Z</time></trkpt>
        <trkpt lat="29.524176" lon="103.334935"><ele>3035.3625</ele><time>2026-07-25T00:18:29.000Z</time></trkpt>
        <trkpt lat="29.524153" lon="103.334934"><ele>3035.4856</ele><time>2026-07-25T00:18:31.000Z</time></trkpt>
        <trkpt lat="29.524131" lon="103.334933"><ele>3035.527</ele><time>2026-07-25T00:18:33.000Z</time></trkpt>
        <trkpt lat="29.524109" lon="103.334933"><ele>3035.7173</ele><time>2026-07-25T00:18:35.000Z</time></trkpt>
        <trkpt lat="29.524085" lon="103.334934"><ele>3036.0476</ele><time>2026-07-25T00:18:37.000Z</time></trkpt>
        <trkpt lat="29.524063" lon="103.334936"><ele>3035.6438</ele><time>2026-07-25T00:18:39.000Z</time></trkpt>
        <trkpt lat="29.524043" lon="103.334937"><ele>3034.6504</ele><time>2026-07-25T00:18:41.000Z</time></trkpt>
        <trkpt lat="29.524025" lon="103.334936"><ele>3033.851</ele><time>2026-07-25T00:18:43.000Z</time></trkpt>
        <trkpt lat="29.524007" lon="103.334932"><ele>3033.5398</ele><time>2026-07-25T00:18:45.000Z</time></trkpt>
        <trkpt lat="29.52399" lon="103.334925"><ele>3036.5193</ele><time>2026-07-25T00:18:47.000Z</time></trkpt>
        <trkpt lat="29.523978" lon="103.334918"><ele>3037.349</ele><time>2026-07-25T00:18:49.000Z</time></trkpt>
        <trkpt lat="29.523968" lon="103.334912"><ele>3037.8289</ele><time>2026-07-25T00:18:51.000Z</time></trkpt>
        <trkpt lat="29.523962" lon="103.334914"><ele>3038.817</ele><time>2026-07-25T00:18:53.000Z</time></trkpt>
        <trkpt lat="29.523947" lon="103.334917"><ele>3038.1694</ele><time>2026-07-25T00:18:59.000Z</time></trkpt>
        <trkpt lat="29.523933" lon="103.334919"><ele>3039.5867</ele><time>2026-07-25T00:19:05.000Z</time></trkpt>
        <trkpt lat="29.523928" lon="103.33492"><ele>3039.8008</ele><time>2026-07-25T00:19:07.000Z</time></trkpt>
        <trkpt lat="29.523883" lon="103.334927"><ele>3040.6736</ele><time>2026-07-25T00:19:11.000Z</time></trkpt>
        <trkpt lat="29.523883" lon="103.334927"><ele>3037.9255</ele><time>2026-07-25T00:19:13.000Z</time></trkpt>
        <trkpt lat="29.52388" lon="103.334926"><ele>3036.7495</ele><time>2026-07-25T00:19:15.000Z</time></trkpt>
        <trkpt lat="29.52384" lon="103.334915"><ele>3037.6472</ele><time>2026-07-25T00:19:19.000Z</time></trkpt>
        <trkpt lat="29.523814" lon="103.334909"><ele>3037.9697</ele><time>2026-07-25T00:19:21.000Z</time></trkpt>
        <trkpt lat="29.523793" lon="103.334906"><ele>3037.4246</ele><time>2026-07-25T00:19:23.000Z</time></trkpt>
        <trkpt lat="29.523778" lon="103.334904"><ele>3038.3691</ele><time>2026-07-25T00:19:25.000Z</time></trkpt>
        <trkpt lat="29.523768" lon="103.334902"><ele>3037.8164</ele><time>2026-07-25T00:19:27.000Z</time></trkpt>
        <trkpt lat="29.523756" lon="103.334901"><ele>3037.048</ele><time>2026-07-25T00:19:29.000Z</time></trkpt>
        <trkpt lat="29.523742" lon="103.334899"><ele>3036.4207</ele><time>2026-07-25T00:19:31.000Z</time></trkpt>
        <trkpt lat="29.52373" lon="103.334897"><ele>3038.4424</ele><time>2026-07-25T00:19:33.000Z</time></trkpt>
        <trkpt lat="29.523723" lon="103.334893"><ele>3038.0845</ele><time>2026-07-25T00:19:35.000Z</time></trkpt>
        <trkpt lat="29.523713" lon="103.33489"><ele>3038.7385</ele><time>2026-07-25T00:19:43.000Z</time></trkpt>
        <trkpt lat="29.523697" lon="103.334888"><ele>3039.4624</ele><time>2026-07-25T00:19:49.000Z</time></trkpt>
        <trkpt lat="29.523673" lon="103.334885"><ele>3038.297</ele><time>2026-07-25T00:19:51.000Z</time></trkpt>
        <trkpt lat="29.523671" lon="103.334885"><ele>3038.6228</ele><time>2026-07-25T00:19:53.000Z</time></trkpt>
        <trkpt lat="29.523667" lon="103.334886"><ele>3036.936</ele><time>2026-07-25T00:19:55.000Z</time></trkpt>
        <trkpt lat="29.523624" lon="103.334891"><ele>3038.6477</ele><time>2026-07-25T00:19:59.000Z</time></trkpt>
        <trkpt lat="29.523598" lon="103.334893"><ele>3037.5325</ele><time>2026-07-25T00:20:01.000Z</time></trkpt>
        <trkpt lat="29.523566" lon="103.334892"><ele>3035.205</ele><time>2026-07-25T00:20:03.000Z</time></trkpt>
        <trkpt lat="29.523535" lon="103.334888"><ele>3034.5798</ele><time>2026-07-25T00:20:05.000Z</time></trkpt>
        <trkpt lat="29.523509" lon="103.334883"><ele>3036.3347</ele><time>2026-07-25T00:20:07.000Z</time></trkpt>
        <trkpt lat="29.523493" lon="103.33488"><ele>3035.1038</ele><time>2026-07-25T00:20:09.000Z</time></trkpt>
        <trkpt lat="29.523485" lon="103.334879"><ele>3035.5798</ele><time>2026-07-25T00:20:11.000Z</time></trkpt>
        <trkpt lat="29.523479" lon="103.334878"><ele>3036.1458</ele><time>2026-07-25T00:20:13.000Z</time></trkpt>
        <trkpt lat="29.523461" lon="103.334872"><ele>3035.5156</ele><time>2026-07-25T00:20:17.000Z</time></trkpt>
        <trkpt lat="29.523446" lon="103.334866"><ele>3035.8826</ele><time>2026-07-25T00:20:23.000Z</time></trkpt>
        <trkpt lat="29.523426" lon="103.334859"><ele>3035.2854</ele><time>2026-07-25T00:20:25.000Z</time></trkpt>
        <trkpt lat="29.523399" lon="103.334849"><ele>3034.7852</ele><time>2026-07-25T00:20:27.000Z</time></trkpt>
        <trkpt lat="29.523372" lon="103.334839"><ele>3036.3057</ele><time>2026-07-25T00:20:29.000Z</time></trkpt>
        <trkpt lat="29.523346" lon="103.334829"><ele>3038.2168</ele><time>2026-07-25T00:20:31.000Z</time></trkpt>
        <trkpt lat="29.523324" lon="103.334822"><ele>3037.7168</ele><time>2026-07-25T00:20:33.000Z</time></trkpt>
        <trkpt lat="29.523304" lon="103.334815"><ele>3036.9575</ele><time>2026-07-25T00:20:35.000Z</time></trkpt>
        <trkpt lat="29.523286" lon="103.334807"><ele>3038.89</ele><time>2026-07-25T00:20:37.000Z</time></trkpt>
        <trkpt lat="29.523269" lon="103.334799"><ele>3037.7395</ele><time>2026-07-25T00:20:39.000Z</time></trkpt>
        <trkpt lat="29.52325" lon="103.334789"><ele>3037.74</ele><time>2026-07-25T00:20:41.000Z</time></trkpt>
        <trkpt lat="29.523229" lon="103.334781"><ele>3038.101</ele><time>2026-07-25T00:20:43.000Z</time></trkpt>
        <trkpt lat="29.523205" lon="103.334774"><ele>3038.1655</ele><time>2026-07-25T00:20:45.000Z</time></trkpt>
        <trkpt lat="29.52318" lon="103.334768"><ele>3037.5247</ele><time>2026-07-25T00:20:47.000Z</time></trkpt>
        <trkpt lat="29.523156" lon="103.334766"><ele>3036.9436</ele><time>2026-07-25T00:20:49.000Z</time></trkpt>
        <trkpt lat="29.52314" lon="103.33476"><ele>3036.9717</ele><time>2026-07-25T00:20:51.000Z</time></trkpt>
        <trkpt lat="29.523129" lon="103.334752"><ele>3038.5662</ele><time>2026-07-25T00:20:53.000Z</time></trkpt>
        <trkpt lat="29.523121" lon="103.334741"><ele>3038.8223</ele><time>2026-07-25T00:20:55.000Z</time></trkpt>
        <trkpt lat="29.523116" lon="103.334736"><ele>3037.5818</ele><time>2026-07-25T00:20:57.000Z</time></trkpt>
        <trkpt lat="29.523103" lon="103.334729"><ele>3041.2747</ele><time>2026-07-25T00:21:40.000Z</time></trkpt>
        <trkpt lat="29.523093" lon="103.334727"><ele>3041.9692</ele><time>2026-07-25T00:21:48.000Z</time></trkpt>
        <trkpt lat="29.523088" lon="103.334724"><ele>3042.743</ele><time>2026-07-25T00:21:50.000Z</time></trkpt>
        <trkpt lat="29.52307" lon="103.334718"><ele>3040.686</ele><time>2026-07-25T00:21:56.000Z</time></trkpt>
        <trkpt lat="29.523064" lon="103.334718"><ele>3042.2966</ele><time>2026-07-25T00:23:32.000Z</time></trkpt>
        <trkpt lat="29.523052" lon="103.334718"><ele>3040.809</ele><time>2026-07-25T00:23:46.000Z</time></trkpt>
        <trkpt lat="29.523028" lon="103.334717"><ele>3040.377</ele><time>2026-07-25T00:23:48.000Z</time></trkpt>
        <trkpt lat="29.523026" lon="103.334717"><ele>3039.6711</ele><time>2026-07-25T00:23:50.000Z</time></trkpt>
        <trkpt lat="29.522982" lon="103.334723"><ele>3039.682</ele><time>2026-07-25T00:23:53.000Z</time></trkpt>
        <trkpt lat="29.522979" lon="103.334724"><ele>3042.5315</ele><time>2026-07-25T00:23:55.000Z</time></trkpt>
        <trkpt lat="29.522976" lon="103.334724"><ele>3043.711</ele><time>2026-07-25T00:23:57.000Z</time></trkpt>
        <trkpt lat="29.522942" lon="103.334724"><ele>3045.59</ele><time>2026-07-25T00:24:01.000Z</time></trkpt>
        <trkpt lat="29.522927" lon="103.334724"><ele>3046.4197</ele><time>2026-07-25T00:24:03.000Z</time></trkpt>
        <trkpt lat="29.522914" lon="103.334724"><ele>3046.9954</ele><time>2026-07-25T00:24:05.000Z</time></trkpt>
        <trkpt lat="29.522905" lon="103.334724"><ele>3048.2747</ele><time>2026-07-25T00:24:07.000Z</time></trkpt>
        <trkpt lat="29.522895" lon="103.334727"><ele>3048.5615</ele><time>2026-07-25T00:24:09.000Z</time></trkpt>
        <trkpt lat="29.522885" lon="103.334732"><ele>3048.1824</ele><time>2026-07-25T00:24:11.000Z</time></trkpt>
        <trkpt lat="29.522874" lon="103.334738"><ele>3048.218</ele><time>2026-07-25T00:24:13.000Z</time></trkpt>
        <trkpt lat="29.522862" lon="103.334743"><ele>3049.8982</ele><time>2026-07-25T00:24:15.000Z</time></trkpt>
        <trkpt lat="29.522851" lon="103.334746"><ele>3051.0603</ele><time>2026-07-25T00:24:17.000Z</time></trkpt>
        <trkpt lat="29.522841" lon="103.334748"><ele>3050.9297</ele><time>2026-07-25T00:24:19.000Z</time></trkpt>
        <trkpt lat="29.522831" lon="103.33475"><ele>3049.998</ele><time>2026-07-25T00:24:21.000Z</time></trkpt>
        <trkpt lat="29.522822" lon="103.334752"><ele>3050.3867</ele><time>2026-07-25T00:24:23.000Z</time></trkpt>
        <trkpt lat="29.522809" lon="103.334755"><ele>3048.0542</ele><time>2026-07-25T00:24:25.000Z</time></trkpt>
        <trkpt lat="29.522792" lon="103.334758"><ele>3048.335</ele><time>2026-07-25T00:24:27.000Z</time></trkpt>
        <trkpt lat="29.522773" lon="103.334761"><ele>3048.013</ele><time>2026-07-25T00:24:29.000Z</time></trkpt>
        <trkpt lat="29.522757" lon="103.334762"><ele>3047.839</ele><time>2026-07-25T00:24:31.000Z</time></trkpt>
        <trkpt lat="29.522742" lon="103.334763"><ele>3047.2312</ele><time>2026-07-25T00:24:33.000Z</time></trkpt>
        <trkpt lat="29.522728" lon="103.334765"><ele>3047.047</ele><time>2026-07-25T00:24:35.000Z</time></trkpt>
        <trkpt lat="29.522715" lon="103.33477"><ele>3047.8691</ele><time>2026-07-25T00:24:37.000Z</time></trkpt>
        <trkpt lat="29.522705" lon="103.334778"><ele>3047.5266</ele><time>2026-07-25T00:24:39.000Z</time></trkpt>
        <trkpt lat="29.522696" lon="103.334792"><ele>3048.2117</ele><time>2026-07-25T00:24:41.000Z</time></trkpt>
        <trkpt lat="29.522689" lon="103.334808"><ele>3048.912</ele><time>2026-07-25T00:24:43.000Z</time></trkpt>
        <trkpt lat="29.522686" lon="103.334821"><ele>3049.3538</ele><time>2026-07-25T00:24:45.000Z</time></trkpt>
        <trkpt lat="29.522684" lon="103.334833"><ele>3049.2534</ele><time>2026-07-25T00:24:47.000Z</time></trkpt>
        <trkpt lat="29.522684" lon="103.334845"><ele>3048.5188</ele><time>2026-07-25T00:24:49.000Z</time></trkpt>
        <trkpt lat="29.522685" lon="103.334855"><ele>3047.6045</ele><time>2026-07-25T00:24:51.000Z</time></trkpt>
        <trkpt lat="29.522689" lon="103.334873"><ele>3048.7788</ele><time>2026-07-25T00:24:55.000Z</time></trkpt>
        <trkpt lat="29.522692" lon="103.334885"><ele>3048.5134</ele><time>2026-07-25T00:24:57.000Z</time></trkpt>
        <trkpt lat="29.522695" lon="103.334902"><ele>3049.1062</ele><time>2026-07-25T00:24:59.000Z</time></trkpt>
        <trkpt lat="29.522696" lon="103.33492"><ele>3048.82</ele><time>2026-07-25T00:25:01.000Z</time></trkpt>
        <trkpt lat="29.522696" lon="103.334936"><ele>3047.9915</ele><time>2026-07-25T00:25:03.000Z</time></trkpt>
        <trkpt lat="29.522694" lon="103.334951"><ele>3047.9907</ele><time>2026-07-25T00:25:05.000Z</time></trkpt>
        <trkpt lat="29.52269" lon="103.334964"><ele>3047.657</ele><time>2026-07-25T00:25:07.000Z</time></trkpt>
        <trkpt lat="29.522686" lon="103.334979"><ele>3047.496</ele><time>2026-07-25T00:25:09.000Z</time></trkpt>
        <trkpt lat="29.522682" lon="103.334994"><ele>3047.471</ele><time>2026-07-25T00:25:11.000Z</time></trkpt>
        <trkpt lat="29.52268" lon="103.335006"><ele>3047.7808</ele><time>2026-07-25T00:25:13.000Z</time></trkpt>
        <trkpt lat="29.522679" lon="103.335017"><ele>3047.975</ele><time>2026-07-25T00:25:15.000Z</time></trkpt>
        <trkpt lat="29.522679" lon="103.335036"><ele>3048.1504</ele><time>2026-07-25T00:25:19.000Z</time></trkpt>
        <trkpt lat="29.522682" lon="103.335039"><ele>3048.3745</ele><time>2026-07-25T00:25:21.000Z</time></trkpt>
        <trkpt lat="29.52269" lon="103.33505"><ele>3047.8308</ele><time>2026-07-25T00:25:27.000Z</time></trkpt>
        <trkpt lat="29.522704" lon="103.335071"><ele>3049.6572</ele><time>2026-07-25T00:25:56.000Z</time></trkpt>
      </trkseg>
      <trkseg>
        <trkpt lat="29.522719" lon="103.335087"><ele>3051.1</ele><time>2026-07-25T00:28:43.000Z</time></trkpt>
        <trkpt lat="29.52271" lon="103.335121"><ele>3052.7715</ele><time>2026-07-25T00:28:50.000Z</time></trkpt>
        <trkpt lat="29.52271" lon="103.335121"><ele>3052.8105</ele><time>2026-07-25T00:28:52.000Z</time></trkpt>
        <trkpt lat="29.522711" lon="103.335124"><ele>3052.9258</ele><time>2026-07-25T00:28:54.000Z</time></trkpt>
      </trkseg>
      <trkseg>
        <trkpt lat="29.523022" lon="103.335902"><ele>3067.1357</ele><time>2026-07-25T00:36:10.000Z</time></trkpt>
        <trkpt lat="29.523012" lon="103.335936"><ele>3065.4666</ele><time>2026-07-25T00:37:50.000Z</time></trkpt>
        <trkpt lat="29.523018" lon="103.335961"><ele>3066.4421</ele><time>2026-07-25T00:37:52.000Z</time></trkpt>
        <trkpt lat="29.523025" lon="103.335978"><ele>3066.7358</ele><time>2026-07-25T00:37:54.000Z</time></trkpt>
        <trkpt lat="29.523036" lon="103.336003"><ele>3066.9768</ele><time>2026-07-25T00:37:57.000Z</time></trkpt>
        <trkpt lat="29.523036" lon="103.336003"><ele>3067.4893</ele><time>2026-07-25T00:37:59.000Z</time></trkpt>
        <trkpt lat="29.523041" lon="103.336026"><ele>3067.667</ele><time>2026-07-25T00:38:03.000Z</time></trkpt>
        <trkpt lat="29.523047" lon="103.336049"><ele>3067.494</ele><time>2026-07-25T00:38:05.000Z</time></trkpt>
        <trkpt lat="29.523053" lon="103.336067"><ele>3067.9111</ele><time>2026-07-25T00:38:07.000Z</time></trkpt>
        <trkpt lat="29.523057" lon="103.336077"><ele>3068.094</ele><time>2026-07-25T00:38:09.000Z</time></trkpt>
        <trkpt lat="29.523061" lon="103.336082"><ele>3067.9106</ele><time>2026-07-25T00:38:11.000Z</time></trkpt>
        <trkpt lat="29.523072" lon="103.336095"><ele>3068.6575</ele><time>2026-07-25T00:38:23.000Z</time></trkpt>
        <trkpt lat="29.523087" lon="103.336114"><ele>3068.6086</ele><time>2026-07-25T00:38:25.000Z</time></trkpt>
        <trkpt lat="29.523088" lon="103.336115"><ele>3068.5642</ele><time>2026-07-25T00:38:27.000Z</time></trkpt>
        <trkpt lat="29.523097" lon="103.336123"><ele>3068.105</ele><time>2026-07-25T00:38:31.000Z</time></trkpt>
        <trkpt lat="29.523119" lon="103.336149"><ele>3068.706</ele><time>2026-07-25T00:38:35.000Z</time></trkpt>
        <trkpt lat="29.523124" lon="103.336156"><ele>3068.3325</ele><time>2026-07-25T00:38:37.000Z</time></trkpt>
        <trkpt lat="29.523124" lon="103.33616"><ele>3068.4268</ele><time>2026-07-25T00:38:39.000Z</time></trkpt>
        <trkpt lat="29.523127" lon="103.336182"><ele>3068.4287</ele><time>2026-07-25T00:38:50.000Z</time></trkpt>
        <trkpt lat="29.52313" lon="103.336199"><ele>3067.6895</ele><time>2026-07-25T00:38:52.000Z</time></trkpt>
        <trkpt lat="29.52313" lon="103.3362"><ele>3067.6584</ele><time>2026-07-25T00:38:54.000Z</time></trkpt>
        <trkpt lat="29.523128" lon="103.336219"><ele>3066.7585</ele><time>2026-07-25T00:38:58.000Z</time></trkpt>
        <trkpt lat="29.523123" lon="103.336238"><ele>3067.7173</ele><time>2026-07-25T00:39:00.000Z</time></trkpt>
        <trkpt lat="29.523117" lon="103.33625"><ele>3068.223</ele><time>2026-07-25T00:39:02.000Z</time></trkpt>
        <trkpt lat="29.523111" lon="103.336254"><ele>3068.2568</ele><time>2026-07-25T00:39:04.000Z</time></trkpt>
        <trkpt lat="29.523106" lon="103.336267"><ele>3067.918</ele><time>2026-07-25T00:39:18.000Z</time></trkpt>
      </trkseg>
      <trkseg>
        <trkpt lat="29.523105" lon="103.336375"><ele>3069.988</ele><time>2026-07-25T00:48:04.000Z</time></trkpt>
        <trkpt lat="29.523108" lon="103.336441"><ele>3069.299</ele><time>2026-07-25T00:48:12.000Z</time></trkpt>
        <trkpt lat="29.523108" lon="103.336486"><ele>3069.2493</ele><time>2026-07-25T00:48:14.000Z</time></trkpt>
        <trkpt lat="29.523107" lon="103.336529"><ele>3069.2268</ele><time>2026-07-25T00:48:16.000Z</time></trkpt>
        <trkpt lat="29.523107" lon="103.336565"><ele>3069.123</ele><time>2026-07-25T00:48:18.000Z</time></trkpt>
        <trkpt lat="29.523108" lon="103.3366"><ele>3069.5515</ele><time>2026-07-25T00:48:20.000Z</time></trkpt>
        <trkpt lat="29.523109" lon="103.336633"><ele>3070.203</ele><time>2026-07-25T00:48:22.000Z</time></trkpt>
        <trkpt lat="29.52311" lon="103.33666"><ele>3070.2244</ele><time>2026-07-25T00:48:24.000Z</time></trkpt>
        <trkpt lat="29.523112" lon="103.336683"><ele>3069.8784</ele><time>2026-07-25T00:48:26.000Z</time></trkpt>
        <trkpt lat="29.523114" lon="103.336702"><ele>3070.081</ele><time>2026-07-25T00:48:28.000Z</time></trkpt>
        <trkpt lat="29.523117" lon="103.336722"><ele>3069.7334</ele><time>2026-07-25T00:48:30.000Z</time></trkpt>
        <trkpt lat="29.523117" lon="103.33674"><ele>3069.4058</ele><time>2026-07-25T00:48:32.000Z</time></trkpt>
        <trkpt lat="29.523117" lon="103.336758"><ele>3070.8723</ele><time>2026-07-25T00:48:34.000Z</time></trkpt>
        <trkpt lat="29.523118" lon="103.336778"><ele>3071.0386</ele><time>2026-07-25T00:48:36.000Z</time></trkpt>
        <trkpt lat="29.523117" lon="103.336797"><ele>3071.2844</ele><time>2026-07-25T00:48:38.000Z</time></trkpt>
        <trkpt lat="29.523114" lon="103.336808"><ele>3071.5122</ele><time>2026-07-25T00:48:40.000Z</time></trkpt>
        <trkpt lat="29.523111" lon="103.336819"><ele>3072.264</ele><time>2026-07-25T00:48:42.000Z</time></trkpt>
        <trkpt lat="29.523106" lon="103.336832"><ele>3072.7744</ele><time>2026-07-25T00:48:44.000Z</time></trkpt>
        <trkpt lat="29.5231" lon="103.336844"><ele>3074.1858</ele><time>2026-07-25T00:48:46.000Z</time></trkpt>
        <trkpt lat="29.5231" lon="103.336853"><ele>3076.9207</ele><time>2026-07-25T00:48:48.000Z</time></trkpt>
        <trkpt lat="29.523101" lon="103.33687"><ele>3080.129</ele><time>2026-07-25T00:48:52.000Z</time></trkpt>
        <trkpt lat="29.523102" lon="103.336885"><ele>3080.4094</ele><time>2026-07-25T00:48:54.000Z</time></trkpt>
        <trkpt lat="29.523101" lon="103.336905"><ele>3079.5305</ele><time>2026-07-25T00:48:56.000Z</time></trkpt>
        <trkpt lat="29.523102" lon="103.336933"><ele>3077.9907</ele><time>2026-07-25T00:48:58.000Z</time></trkpt>
        <trkpt lat="29.523103" lon="103.336965"><ele>3077.9138</ele><time>2026-07-25T00:49:00.000Z</time></trkpt>
        <trkpt lat="29.523105" lon="103.336989"><ele>3077.1765</ele><time>2026-07-25T00:49:02.000Z</time></trkpt>
        <trkpt lat="29.523109" lon="103.337008"><ele>3076.8904</ele><time>2026-07-25T00:49:04.000Z</time></trkpt>
        <trkpt lat="29.523113" lon="103.337021"><ele>3076.8948</ele><time>2026-07-25T00:49:06.000Z</time></trkpt>
        <trkpt lat="29.523116" lon="103.337037"><ele>3076.388</ele><time>2026-07-25T00:49:08.000Z</time></trkpt>
        <trkpt lat="29.523116" lon="103.337049"><ele>3075.959</ele><time>2026-07-25T00:49:10.000Z</time></trkpt>
        <trkpt lat="29.523115" lon="103.337057"><ele>3075.8442</ele><time>2026-07-25T00:49:12.000Z</time></trkpt>
        <trkpt lat="29.52311" lon="103.33708"><ele>3076.6008</ele><time>2026-07-25T00:49:16.000Z</time></trkpt>
        <trkpt lat="29.523105" lon="103.337098"><ele>3076.411</ele><time>2026-07-25T00:49:18.000Z</time></trkpt>
        <trkpt lat="29.523103" lon="103.337113"><ele>3076.713</ele><time>2026-07-25T00:49:20.000Z</time></trkpt>
        <trkpt lat="29.523101" lon="103.337123"><ele>3076.7178</ele><time>2026-07-25T00:49:21.000Z</time></trkpt>
        <trkpt lat="29.523096" lon="103.337128"><ele>3075.6628</ele><time>2026-07-25T00:49:23.000Z</time></trkpt>
        <trkpt lat="29.523076" lon="103.337152"><ele>3077.5117</ele><time>2026-07-25T00:49:29.000Z</time></trkpt>
        <trkpt lat="29.523068" lon="103.337161"><ele>3078.4985</ele><time>2026-07-25T00:49:31.000Z</time></trkpt>
        <trkpt lat="29.523067" lon="103.337162"><ele>3079.5793</ele><time>2026-07-25T00:49:33.000Z</time></trkpt>
        <trkpt lat="29.52305" lon="103.337171"><ele>3081.4858</ele><time>2026-07-25T00:49:37.000Z</time></trkpt>
        <trkpt lat="29.523036" lon="103.337181"><ele>3081.5952</ele><time>2026-07-25T00:49:39.000Z</time></trkpt>
      </trkseg>
      <trkseg>
        <trkpt lat="29.523073" lon="103.33706"><ele>3082.224</ele><time>2026-07-25T00:55:20.000Z</time></trkpt>
        <trkpt lat="29.523037" lon="103.337087"><ele>3083.703</ele><time>2026-07-25T00:55:28.000Z</time></trkpt>
        <trkpt lat="29.523009" lon="103.337099"><ele>3083.153</ele><time>2026-07-25T00:55:30.000Z</time></trkpt>
        <trkpt lat="29.522982" lon="103.337109"><ele>3082.8892</ele><time>2026-07-25T00:55:32.000Z</time></trkpt>
        <trkpt lat="29.522957" lon="103.337118"><ele>3083.2673</ele><time>2026-07-25T00:55:34.000Z</time></trkpt>
        <trkpt lat="29.522931" lon="103.337125"><ele>3083.4973</ele><time>2026-07-25T00:55:36.000Z</time></trkpt>
        <trkpt lat="29.522915" lon="103.337133"><ele>3084.406</ele><time>2026-07-25T00:55:38.000Z</time></trkpt>
        <trkpt lat="29.522901" lon="103.337146"><ele>3084.3262</ele><time>2026-07-25T00:55:40.000Z</time></trkpt>
        <trkpt lat="29.522892" lon="103.337163"><ele>3084.5828</ele><time>2026-07-25T00:55:42.000Z</time></trkpt>
        <trkpt lat="29.522892" lon="103.337181"><ele>3084.8704</ele><time>2026-07-25T00:55:44.000Z</time></trkpt>
        <trkpt lat="29.522899" lon="103.337194"><ele>3084.649</ele><time>2026-07-25T00:55:46.000Z</time></trkpt>
        <trkpt lat="29.522909" lon="103.337201"><ele>3084.469</ele><time>2026-07-25T00:55:48.000Z</time></trkpt>
        <trkpt lat="29.522922" lon="103.337203"><ele>3083.001</ele><time>2026-07-25T00:55:50.000Z</time></trkpt>
        <trkpt lat="29.522936" lon="103.337203"><ele>3082.9165</ele><time>2026-07-25T00:55:52.000Z</time></trkpt>
        <trkpt lat="29.522951" lon="103.337201"><ele>3081.9595</ele><time>2026-07-25T00:55:54.000Z</time></trkpt>
        <trkpt lat="29.522967" lon="103.337197"><ele>3081.142</ele><time>2026-07-25T00:55:56.000Z</time></trkpt>
        <trkpt lat="29.522983" lon="103.337193"><ele>3081.1765</ele><time>2026-07-25T00:55:58.000Z</time></trkpt>
        <trkpt lat="29.522998" lon="103.337189"><ele>3080.2734</ele><time>2026-07-25T00:56:00.000Z</time></trkpt>
        <trkpt lat="29.523016" lon="103.337185"><ele>3080.1492</ele><time>2026-07-25T00:56:02.000Z</time></trkpt>
        <trkpt lat="29.523036" lon="103.33718"><ele>3081.0854</ele><time>2026-07-25T00:56:04.000Z</time></trkpt>
        <trkpt lat="29.523059" lon="103.337173"><ele>3081.332</ele><time>2026-07-25T00:56:06.000Z</time></trkpt>
        <trkpt lat="29.52308" lon="103.337162"><ele>3080.1958</ele><time>2026-07-25T00:56:08.000Z</time></trkpt>
        <trkpt lat="29.523098" lon="103.337149"><ele>3079.6394</ele><time>2026-07-25T00:56:10.000Z</time></trkpt>
        <trkpt lat="29.523114" lon="103.337136"><ele>3078.3042</ele><time>2026-07-25T00:56:12.000Z</time></trkpt>
        <trkpt lat="29.523126" lon="103.337123"><ele>3077.8096</ele><time>2026-07-25T00:56:14.000Z</time></trkpt>
        <trkpt lat="29.523136" lon="103.337108"><ele>3077.388</ele><time>2026-07-25T00:56:16.000Z</time></trkpt>
        <trkpt lat="29.523139" lon="103.337097"><ele>3078.5725</ele><time>2026-07-25T00:56:18.000Z</time></trkpt>
        <trkpt lat="29.523138" lon="103.337088"><ele>3076.7751</ele><time>2026-07-25T00:56:20.000Z</time></trkpt>
        <trkpt lat="29.523133" lon="103.337073"><ele>3076.2236</ele><time>2026-07-25T00:56:22.000Z</time></trkpt>
        <trkpt lat="29.523128" lon="103.337059"><ele>3076.644</ele><time>2026-07-25T00:56:24.000Z</time></trkpt>
        <trkpt lat="29.523124" lon="103.337045"><ele>3076.5947</ele><time>2026-07-25T00:56:26.000Z</time></trkpt>
        <trkpt lat="29.52312" lon="103.33703"><ele>3076.4126</ele><time>2026-07-25T00:56:28.000Z</time></trkpt>
        <trkpt lat="29.523117" lon="103.337018"><ele>3075.8657</ele><time>2026-07-25T00:56:30.000Z</time></trkpt>
        <trkpt lat="29.523112" lon="103.337003"><ele>3075.149</ele><time>2026-07-25T00:56:32.000Z</time></trkpt>
        <trkpt lat="29.523106" lon="103.336984"><ele>3075.3567</ele><time>2026-07-25T00:56:34.000Z</time></trkpt>
        <trkpt lat="29.523101" lon="103.336966"><ele>3074.7507</ele><time>2026-07-25T00:56:36.000Z</time></trkpt>
        <trkpt lat="29.523095" lon="103.336951"><ele>3073.1614</ele><time>2026-07-25T00:56:38.000Z</time></trkpt>
        <trkpt lat="29.523088" lon="103.336935"><ele>3071.7234</ele><time>2026-07-25T00:56:40.000Z</time></trkpt>
        <trkpt lat="29.52308" lon="103.336915"><ele>3070.8606</ele><time>2026-07-25T00:56:42.000Z</time></trkpt>
        <trkpt lat="29.523072" lon="103.3369"><ele>3069.2646</ele><time>2026-07-25T00:56:44.000Z</time></trkpt>
        <trkpt lat="29.523062" lon="103.336882"><ele>3068.2056</ele><time>2026-07-25T00:56:46.000Z</time></trkpt>
        <trkpt lat="29.523053" lon="103.336862"><ele>3067.1218</ele><time>2026-07-25T00:56:48.000Z</time></trkpt>
        <trkpt lat="29.523047" lon="103.33684"><ele>3066.564</ele><time>2026-07-25T00:56:50.000Z</time></trkpt>
        <trkpt lat="29.523046" lon="103.336816"><ele>3066.7693</ele><time>2026-07-25T00:56:52.000Z</time></trkpt>
        <trkpt lat="29.523048" lon="103.336793"><ele>3066.9336</ele><time>2026-07-25T00:56:54.000Z</time></trkpt>
        <trkpt lat="29.523054" lon="103.336772"><ele>3067.769</ele><time>2026-07-25T00:56:56.000Z</time></trkpt>
        <trkpt lat="29.523066" lon="103.336746"><ele>3067.7297</ele><time>2026-07-25T00:56:58.000Z</time></trkpt>
        <trkpt lat="29.523081" lon="103.336721"><ele>3068.1047</ele><time>2026-07-25T00:57:00.000Z</time></trkpt>
        <trkpt lat="29.523096" lon="103.336704"><ele>3068.2397</ele><time>2026-07-25T00:57:02.000Z</time></trkpt>
        <trkpt lat="29.523109" lon="103.336692"><ele>3068.033</ele><time>2026-07-25T00:57:04.000Z</time></trkpt>
        <trkpt lat="29.523117" lon="103.336679"><ele>3068.8289</ele><time>2026-07-25T00:57:06.000Z</time></trkpt>
        <trkpt lat="29.523123" lon="103.336662"><ele>3067.9788</ele><time>2026-07-25T00:57:08.000Z</time></trkpt>
        <trkpt lat="29.523125" lon="103.336644"><ele>3068.1558</ele><time>2026-07-25T00:57:10.000Z</time></trkpt>
        <trkpt lat="29.523123" lon="103.336629"><ele>3067.986</ele><time>2026-07-25T00:57:12.000Z</time></trkpt>
        <trkpt lat="29.523121" lon="103.336613"><ele>3067.302</ele><time>2026-07-25T00:57:14.000Z</time></trkpt>
        <trkpt lat="29.52312" lon="103.336591"><ele>3068.9443</ele><time>2026-07-25T00:57:16.000Z</time></trkpt>
        <trkpt lat="29.523121" lon="103.336577"><ele>3068.469</ele><time>2026-07-25T00:57:18.000Z</time></trkpt>
        <trkpt lat="29.523125" lon="103.336574"><ele>3068.5627</ele><time>2026-07-25T00:57:20.000Z</time></trkpt>
        <trkpt lat="29.523134" lon="103.336557"><ele>3069.4773</ele><time>2026-07-25T00:57:42.000Z</time></trkpt>
        <trkpt lat="29.523145" lon="103.336535"><ele>3069.3657</ele><time>2026-07-25T00:57:44.000Z</time></trkpt>
        <trkpt lat="29.523152" lon="103.336518"><ele>3069.2322</ele><time>2026-07-25T00:57:46.000Z</time></trkpt>
        <trkpt lat="29.523164" lon="103.336493"><ele>3069.2334</ele><time>2026-07-25T00:57:49.000Z</time></trkpt>
        <trkpt lat="29.523164" lon="103.336493"><ele>3069.2969</ele><time>2026-07-25T00:57:51.000Z</time></trkpt>
        <trkpt lat="29.523172" lon="103.336476"><ele>3069.4045</ele><time>2026-07-25T00:57:55.000Z</time></trkpt>
        <trkpt lat="29.523182" lon="103.336463"><ele>3068.6619</ele><time>2026-07-25T00:57:57.000Z</time></trkpt>
        <trkpt lat="29.523196" lon="103.336453"><ele>3068.7842</ele><time>2026-07-25T00:57:59.000Z</time></trkpt>
        <trkpt lat="29.523214" lon="103.336443"><ele>3069.0647</ele><time>2026-07-25T00:58:01.000Z</time></trkpt>
        <trkpt lat="29.523233" lon="103.336437"><ele>3069.8362</ele><time>2026-07-25T00:58:03.000Z</time></trkpt>
        <trkpt lat="29.523255" lon="103.336433"><ele>3069.4658</ele><time>2026-07-25T00:58:05.000Z</time></trkpt>
        <trkpt lat="29.523266" lon="103.33643"><ele>3069.5737</ele><time>2026-07-25T00:58:07.000Z</time></trkpt>
        <trkpt lat="29.523268" lon="103.336429"><ele>3069.4653</ele><time>2026-07-25T00:58:09.000Z</time></trkpt>
        <trkpt lat="29.523292" lon="103.33642"><ele>3069.589</ele><time>2026-07-25T00:58:16.000Z</time></trkpt>
        <trkpt lat="29.523298" lon="103.336419"><ele>3068.5698</ele><time>2026-07-25T00:58:20.000Z</time></trkpt>
        <trkpt lat="29.523316" lon="103.336416"><ele>3068.6958</ele><time>2026-07-25T00:58:22.000Z</time></trkpt>
        <trkpt lat="29.523339" lon="103.336413"><ele>3068.3108</ele><time>2026-07-25T00:58:24.000Z</time></trkpt>
      </trkseg>
      <trkseg>
        <trkpt lat="29.523458" lon="103.336402"><ele>3069.372</ele><time>2026-07-25T00:59:16.000Z</time></trkpt>
        <trkpt lat="29.523493" lon="103.336395"><ele>3068.402</ele><time>2026-07-25T00:59:25.000Z</time></trkpt>
        <trkpt lat="29.523518" lon="103.336393"><ele>3068.863</ele><time>2026-07-25T00:59:27.000Z</time></trkpt>
        <trkpt lat="29.523555" lon="103.33639"><ele>3068.7354</ele><time>2026-07-25T00:59:29.000Z</time></trkpt>
        <trkpt lat="29.523592" lon="103.336387"><ele>3068.936</ele><time>2026-07-25T00:59:31.000Z</time></trkpt>
        <trkpt lat="29.523626" lon="103.336384"><ele>3069.3052</ele><time>2026-07-25T00:59:33.000Z</time></trkpt>
        <trkpt lat="29.523655" lon="103.336382"><ele>3069.6028</ele><time>2026-07-25T00:59:35.000Z</time></trkpt>
        <trkpt lat="29.523682" lon="103.336379"><ele>3069.7253</ele><time>2026-07-25T00:59:37.000Z</time></trkpt>
        <trkpt lat="29.523705" lon="103.336377"><ele>3069.9385</ele><time>2026-07-25T00:59:39.000Z</time></trkpt>
        <trkpt lat="29.523729" lon="103.336375"><ele>3070.1074</ele><time>2026-07-25T00:59:41.000Z</time></trkpt>
        <trkpt lat="29.523751" lon="103.336374"><ele>3070.2175</ele><time>2026-07-25T00:59:43.000Z</time></trkpt>
        <trkpt lat="29.523772" lon="103.336377"><ele>3070.6226</ele><time>2026-07-25T00:59:45.000Z</time></trkpt>
        <trkpt lat="29.523794" lon="103.336383"><ele>3070.4434</ele><time>2026-07-25T00:59:47.000Z</time></trkpt>
        <trkpt lat="29.523817" lon="103.336391"><ele>3070.1106</ele><time>2026-07-25T00:59:49.000Z</time></trkpt>
        <trkpt lat="29.523839" lon="103.336401"><ele>3069.8433</ele><time>2026-07-25T00:59:51.000Z</time></trkpt>
        <trkpt lat="29.52386" lon="103.336412"><ele>3069.6743</ele><time>2026-07-25T00:59:53.000Z</time></trkpt>
        <trkpt lat="29.523876" lon="103.336424"><ele>3069.4412</ele><time>2026-07-25T00:59:55.000Z</time></trkpt>
        <trkpt lat="29.523887" lon="103.336433"><ele>3069.0781</ele><time>2026-07-25T00:59:57.000Z</time></trkpt>
        <trkpt lat="29.523896" lon="103.336439"><ele>3068.5198</ele><time>2026-07-25T00:59:59.000Z</time></trkpt>
        <trkpt lat="29.523907" lon="103.336444"><ele>3068.209</ele><time>2026-07-25T01:00:01.000Z</time></trkpt>
        <trkpt lat="29.523924" lon="103.33645"><ele>3068.0366</ele><time>2026-07-25T01:00:03.000Z</time></trkpt>
        <trkpt lat="29.523941" lon="103.336452"><ele>3067.055</ele><time>2026-07-25T01:00:05.000Z</time></trkpt>
        <trkpt lat="29.523953" lon="103.336454"><ele>3066.4458</ele><time>2026-07-25T01:00:07.000Z</time></trkpt>
        <trkpt lat="29.523961" lon="103.336453"><ele>3066.321</ele><time>2026-07-25T01:00:09.000Z</time></trkpt>
        <trkpt lat="29.523976" lon="103.336447"><ele>3066.1807</ele><time>2026-07-25T01:00:13.000Z</time></trkpt>
        <trkpt lat="29.523987" lon="103.336441"><ele>3065.7097</ele><time>2026-07-25T01:00:15.000Z</time></trkpt>
        <trkpt lat="29.523999" lon="103.336435"><ele>3064.4226</ele><time>2026-07-25T01:00:17.000Z</time></trkpt>
        <trkpt lat="29.524014" lon="103.336427"><ele>3064.4546</ele><time>2026-07-25T01:00:19.000Z</time></trkpt>
        <trkpt lat="29.524027" lon="103.33642"><ele>3063.9219</ele><time>2026-07-25T01:00:21.000Z</time></trkpt>
        <trkpt lat="29.524042" lon="103.336412"><ele>3063.0076</ele><time>2026-07-25T01:00:23.000Z</time></trkpt>
        <trkpt lat="29.524061" lon="103.336404"><ele>3063.0415</ele><time>2026-07-25T01:00:25.000Z</time></trkpt>
        <trkpt lat="29.524082" lon="103.336395"><ele>3061.9607</ele><time>2026-07-25T01:00:27.000Z</time></trkpt>
        <trkpt lat="29.524101" lon="103.336386"><ele>3061.3765</ele><time>2026-07-25T01:00:29.000Z</time></trkpt>
        <trkpt lat="29.524124" lon="103.336376"><ele>3061.418</ele><time>2026-07-25T01:00:31.000Z</time></trkpt>
        <trkpt lat="29.524148" lon="103.336366"><ele>3060.9377</ele><time>2026-07-25T01:00:33.000Z</time></trkpt>
        <trkpt lat="29.524171" lon="103.336356"><ele>3060.3176</ele><time>2026-07-25T01:00:35.000Z</time></trkpt>
        <trkpt lat="29.524187" lon="103.336347"><ele>3059.8235</ele><time>2026-07-25T01:00:37.000Z</time></trkpt>
        <trkpt lat="29.524201" lon="103.336339"><ele>3059.0305</ele><time>2026-07-25T01:00:39.000Z</time></trkpt>
        <trkpt lat="29.524214" lon="103.336331"><ele>3058.5703</ele><time>2026-07-25T01:00:41.000Z</time></trkpt>
        <trkpt lat="29.52423" lon="103.336324"><ele>3058.5286</ele><time>2026-07-25T01:00:43.000Z</time></trkpt>
        <trkpt lat="29.524247" lon="103.336317"><ele>3058.0435</ele><time>2026-07-25T01:00:45.000Z</time></trkpt>
        <trkpt lat="29.524261" lon="103.336313"><ele>3057.9324</ele><time>2026-07-25T01:00:47.000Z</time></trkpt>
        <trkpt lat="29.524275" lon="103.33631"><ele>3058.1418</ele><time>2026-07-25T01:00:49.000Z</time></trkpt>
        <trkpt lat="29.524292" lon="103.336305"><ele>3057.2913</ele><time>2026-07-25T01:00:51.000Z</time></trkpt>
        <trkpt lat="29.524304" lon="103.336301"><ele>3056.8574</ele><time>2026-07-25T01:00:53.000Z</time></trkpt>
        <trkpt lat="29.524308" lon="103.336299"><ele>3056.768</ele><time>2026-07-25T01:00:55.000Z</time></trkpt>
        <trkpt lat="29.524267" lon="103.336325"><ele>3056.3425</ele><time>2026-07-25T01:01:11.000Z</time></trkpt>
        <trkpt lat="29.524266" lon="103.336325"><ele>3056.4958</ele><time>2026-07-25T01:01:13.000Z</time></trkpt>
        <trkpt lat="29.524265" lon="103.336325"><ele>3056.5764</ele><time>2026-07-25T01:01:15.000Z</time></trkpt>
        <trkpt lat="29.524235" lon="103.336312"><ele>3057.0183</ele><time>2026-07-25T01:01:45.000Z</time></trkpt>
        <trkpt lat="29.524294" lon="103.33631"><ele>3055.6033</ele><time>2026-07-25T01:01:50.000Z</time></trkpt>
        <trkpt lat="29.524294" lon="103.33631"><ele>3055.0244</ele><time>2026-07-25T01:01:52.000Z</time></trkpt>
        <trkpt lat="29.524296" lon="103.336307"><ele>3054.3784</ele><time>2026-07-25T01:01:54.000Z</time></trkpt>
        <trkpt lat="29.524314" lon="103.336277"><ele>3054.8696</ele><time>2026-07-25T01:01:58.000Z</time></trkpt>
        <trkpt lat="29.524323" lon="103.336264"><ele>3054.1748</ele><time>2026-07-25T01:02:00.000Z</time></trkpt>
        <trkpt lat="29.524334" lon="103.336252"><ele>3053.0608</ele><time>2026-07-25T01:02:02.000Z</time></trkpt>
        <trkpt lat="29.524341" lon="103.336244"><ele>3052.9219</ele><time>2026-07-25T01:02:04.000Z</time></trkpt>
        <trkpt lat="29.524345" lon="103.336237"><ele>3052.2573</ele><time>2026-07-25T01:02:06.000Z</time></trkpt>
        <trkpt lat="29.524355" lon="103.336218"><ele>3050.9126</ele><time>2026-07-25T01:02:10.000Z</time></trkpt>
        <trkpt lat="29.524359" lon="103.336212"><ele>3049.8926</ele><time>2026-07-25T01:02:12.000Z</time></trkpt>
        <trkpt lat="29.524368" lon="103.336203"><ele>3049.5593</ele><time>2026-07-25T01:02:14.000Z</time></trkpt>
        <trkpt lat="29.524378" lon="103.336193"><ele>3049.4417</ele><time>2026-07-25T01:02:16.000Z</time></trkpt>
        <trkpt lat="29.524387" lon="103.336185"><ele>3048.8892</ele><time>2026-07-25T01:02:18.000Z</time></trkpt>
        <trkpt lat="29.524396" lon="103.336177"><ele>3048.4753</ele><time>2026-07-25T01:02:20.000Z</time></trkpt>
        <trkpt lat="29.524408" lon="103.336167"><ele>3047.78</ele><time>2026-07-25T01:02:22.000Z</time></trkpt>
        <trkpt lat="29.524416" lon="103.336159"><ele>3047.485</ele><time>2026-07-25T01:02:24.000Z</time></trkpt>
        <trkpt lat="29.524423" lon="103.336152"><ele>3047.5938</ele><time>2026-07-25T01:02:26.000Z</time></trkpt>
        <trkpt lat="29.524433" lon="103.33614"><ele>3047.3816</ele><time>2026-07-25T01:02:30.000Z</time></trkpt>
        <trkpt lat="29.524437" lon="103.336134"><ele>3046.9294</ele><time>2026-07-25T01:02:32.000Z</time></trkpt>
        <trkpt lat="29.524443" lon="103.336124"><ele>3046.9138</ele><time>2026-07-25T01:02:38.000Z</time></trkpt>
        <trkpt lat="29.524455" lon="103.336112"><ele>3045.9094</ele><time>2026-07-25T01:02:42.000Z</time></trkpt>
        <trkpt lat="29.524467" lon="103.336101"><ele>3045.608</ele><time>2026-07-25T01:02:44.000Z</time></trkpt>
        <trkpt lat="29.524468" lon="103.3361"><ele>3045.3958</ele><time>2026-07-25T01:02:46.000Z</time></trkpt>
        <trkpt lat="29.524488" lon="103.336078"><ele>3044.5256</ele><time>2026-07-25T01:02:52.000Z</time></trkpt>
        <trkpt lat="29.5245" lon="103.336065"><ele>3043.5703</ele><time>2026-07-25T01:02:54.000Z</time></trkpt>
        <trkpt lat="29.524517" lon="103.336046"><ele>3044.0093</ele><time>2026-07-25T01:02:56.000Z</time></trkpt>
        <trkpt lat="29.524538" lon="103.336028"><ele>3043.9287</ele><time>2026-07-25T01:02:58.000Z</time></trkpt>
        <trkpt lat="29.524558" lon="103.336011"><ele>3044.0464</ele><time>2026-07-25T01:03:00.000Z</time></trkpt>
        <trkpt lat="29.524577" lon="103.335993"><ele>3043.9143</ele><time>2026-07-25T01:03:02.000Z</time></trkpt>
        <trkpt lat="29.524595" lon="103.335975"><ele>3043.8027</ele><time>2026-07-25T01:03:04.000Z</time></trkpt>
        <trkpt lat="29.524612" lon="103.335955"><ele>3043.899</ele><time>2026-07-25T01:03:06.000Z</time></trkpt>
        <trkpt lat="29.524619" lon="103.335935"><ele>3043.8118</ele><time>2026-07-25T01:03:08.000Z</time></trkpt>
        <trkpt lat="29.524626" lon="103.335918"><ele>3043.9668</ele><time>2026-07-25T01:03:10.000Z</time></trkpt>
        <trkpt lat="29.524635" lon="103.335908"><ele>3043.6448</ele><time>2026-07-25T01:03:12.000Z</time></trkpt>
        <trkpt lat="29.524649" lon="103.3359"><ele>3043.4834</ele><time>2026-07-25T01:03:14.000Z</time></trkpt>
        <trkpt lat="29.524666" lon="103.33589"><ele>3043.4407</ele><time>2026-07-25T01:03:16.000Z</time></trkpt>
        <trkpt lat="29.524684" lon="103.335878"><ele>3042.9917</ele><time>2026-07-25T01:03:18.000Z</time></trkpt>
        <trkpt lat="29.524702" lon="103.335866"><ele>3043.3103</ele><time>2026-07-25T01:03:20.000Z</time></trkpt>
        <trkpt lat="29.524721" lon="103.335853"><ele>3043.3523</ele><time>2026-07-25T01:03:22.000Z</time></trkpt>
        <trkpt lat="29.52474" lon="103.335838"><ele>3043.4578</ele><time>2026-07-25T01:03:24.000Z</time></trkpt>
        <trkpt lat="29.524761" lon="103.335821"><ele>3043.8596</ele><time>2026-07-25T01:03:26.000Z</time></trkpt>
        <trkpt lat="29.524783" lon="103.335807"><ele>3043.9058</ele><time>2026-07-25T01:03:28.000Z</time></trkpt>
        <trkpt lat="29.524805" lon="103.335795"><ele>3044.6064</ele><time>2026-07-25T01:03:30.000Z</time></trkpt>
        <trkpt lat="29.524829" lon="103.335787"><ele>3044.546</ele><time>2026-07-25T01:03:32.000Z</time></trkpt>
        <trkpt lat="29.524851" lon="103.33578"><ele>3044.5112</ele><time>2026-07-25T01:03:34.000Z</time></trkpt>
        <trkpt lat="29.524875" lon="103.335774"><ele>3044.6628</ele><time>2026-07-25T01:03:36.000Z</time></trkpt>
        <trkpt lat="29.524905" lon="103.335769"><ele>3045.0151</ele><time>2026-07-25T01:03:38.000Z</time></trkpt>
        <trkpt lat="29.524939" lon="103.335767"><ele>3044.9177</ele><time>2026-07-25T01:03:40.000Z</time></trkpt>
        <trkpt lat="29.524973" lon="103.335768"><ele>3044.5918</ele><time>2026-07-25T01:03:42.000Z</time></trkpt>
        <trkpt lat="29.525007" lon="103.335773"><ele>3044.797</ele><time>2026-07-25T01:03:44.000Z</time></trkpt>
        <trkpt lat="29.525036" lon="103.335777"><ele>3045.2256</ele><time>2026-07-25T01:03:46.000Z</time></trkpt>
        <trkpt lat="29.525066" lon="103.335781"><ele>3045.66</ele><time>2026-07-25T01:03:48.000Z</time></trkpt>
        <trkpt lat="29.525093" lon="103.335787"><ele>3046.0723</ele><time>2026-07-25T01:03:50.000Z</time></trkpt>
        <trkpt lat="29.525113" lon="103.335793"><ele>3046.2632</ele><time>2026-07-25T01:03:52.000Z</time></trkpt>
        <trkpt lat="29.525122" lon="103.335797"><ele>3046.5715</ele><time>2026-07-25T01:03:54.000Z</time></trkpt>
        <trkpt lat="29.525133" lon="103.335804"><ele>3046.5059</ele><time>2026-07-25T01:03:56.000Z</time></trkpt>
        <trkpt lat="29.525141" lon="103.335811"><ele>3045.376</ele><time>2026-07-25T01:03:58.000Z</time></trkpt>
        <trkpt lat="29.525154" lon="103.335826"><ele>3045.609</ele><time>2026-07-25T01:04:00.000Z</time></trkpt>
        <trkpt lat="29.525161" lon="103.335838"><ele>3047.0886</ele><time>2026-07-25T01:04:02.000Z</time></trkpt>
        <trkpt lat="29.525167" lon="103.335851"><ele>3048.5742</ele><time>2026-07-25T01:04:04.000Z</time></trkpt>
        <trkpt lat="29.525171" lon="103.335864"><ele>3048.8318</ele><time>2026-07-25T01:04:06.000Z</time></trkpt>
        <trkpt lat="29.525175" lon="103.335867"><ele>3049.558</ele><time>2026-07-25T01:04:08.000Z</time></trkpt>
        <trkpt lat="29.525125" lon="103.335823"><ele>3049.1226</ele><time>2026-07-25T01:04:18.000Z</time></trkpt>
        <trkpt lat="29.525124" lon="103.335822"><ele>3047.9263</ele><time>2026-07-25T01:04:20.000Z</time></trkpt>
        <trkpt lat="29.52512" lon="103.335821"><ele>3048.45</ele><time>2026-07-25T01:04:22.000Z</time></trkpt>
        <trkpt lat="29.525067" lon="103.335804"><ele>3045.966</ele><time>2026-07-25T01:04:26.000Z</time></trkpt>
        <trkpt lat="29.525037" lon="103.335797"><ele>3046.084</ele><time>2026-07-25T01:04:28.000Z</time></trkpt>
        <trkpt lat="29.525007" lon="103.335791"><ele>3046.218</ele><time>2026-07-25T01:04:30.000Z</time></trkpt>
        <trkpt lat="29.524978" lon="103.335788"><ele>3046.591</ele><time>2026-07-25T01:04:32.000Z</time></trkpt>
        <trkpt lat="29.524952" lon="103.335785"><ele>3046.4954</ele><time>2026-07-25T01:04:34.000Z</time></trkpt>
        <trkpt lat="29.524928" lon="103.335784"><ele>3046.621</ele><time>2026-07-25T01:04:36.000Z</time></trkpt>
        <trkpt lat="29.524904" lon="103.335787"><ele>3046.5142</ele><time>2026-07-25T01:04:38.000Z</time></trkpt>
        <trkpt lat="29.52488" lon="103.335792"><ele>3046.4858</ele><time>2026-07-25T01:04:40.000Z</time></trkpt>
        <trkpt lat="29.524857" lon="103.335795"><ele>3046.3994</ele><time>2026-07-25T01:04:42.000Z</time></trkpt>
        <trkpt lat="29.524834" lon="103.335802"><ele>3046.3345</ele><time>2026-07-25T01:04:44.000Z</time></trkpt>
        <trkpt lat="29.524811" lon="103.335815"><ele>3046.3997</ele><time>2026-07-25T01:04:46.000Z</time></trkpt>
        <trkpt lat="29.524791" lon="103.335831"><ele>3046.5605</ele><time>2026-07-25T01:04:48.000Z</time></trkpt>
        <trkpt lat="29.524768" lon="103.335847"><ele>3047.521</ele><time>2026-07-25T01:04:50.000Z</time></trkpt>
        <trkpt lat="29.524744" lon="103.335855"><ele>3047.9407</ele><time>2026-07-25T01:04:52.000Z</time></trkpt>
        <trkpt lat="29.524719" lon="103.335862"><ele>3047.4224</ele><time>2026-07-25T01:04:54.000Z</time></trkpt>
        <trkpt lat="29.52469" lon="103.33587"><ele>3047.2607</ele><time>2026-07-25T01:04:56.000Z</time></trkpt>
        <trkpt lat="29.524671" lon="103.335877"><ele>3046.7979</ele><time>2026-07-25T01:04:58.000Z</time></trkpt>
        <trkpt lat="29.524653" lon="103.335886"><ele>3047.3147</ele><time>2026-07-25T01:05:00.000Z</time></trkpt>
        <trkpt lat="29.524631" lon="103.335891"><ele>3047.4707</ele><time>2026-07-25T01:05:02.000Z</time></trkpt>
        <trkpt lat="29.524615" lon="103.335892"><ele>3048.2385</ele><time>2026-07-25T01:05:04.000Z</time></trkpt>
        <trkpt lat="29.524605" lon="103.335891"><ele>3048.4255</ele><time>2026-07-25T01:05:06.000Z</time></trkpt>
        <trkpt lat="29.524605" lon="103.335891"><ele>3047.943</ele><time>2026-07-25T01:05:08.000Z</time></trkpt>
        <trkpt lat="29.524593" lon="103.335927"><ele>3044.771</ele><time>2026-07-25T01:06:04.000Z</time></trkpt>
        <trkpt lat="29.524595" lon="103.335934"><ele>3048.6863</ele><time>2026-07-25T01:06:20.000Z</time></trkpt>
        <trkpt lat="29.524598" lon="103.335934"><ele>3047.7744</ele><time>2026-07-25T01:06:36.000Z</time></trkpt>
        <trkpt lat="29.52464" lon="103.335924"><ele>3048.1233</ele><time>2026-07-25T01:07:00.000Z</time></trkpt>
        <trkpt lat="29.524668" lon="103.335917"><ele>3047.4785</ele><time>2026-07-25T01:07:02.000Z</time></trkpt>
        <trkpt lat="29.52467" lon="103.335916"><ele>3047.3323</ele><time>2026-07-25T01:07:04.000Z</time></trkpt>
        <trkpt lat="29.524678" lon="103.335912"><ele>3047.6646</ele><time>2026-07-25T01:07:06.000Z</time></trkpt>
        <trkpt lat="29.524705" lon="103.335898"><ele>3047.569</ele><time>2026-07-25T01:07:08.000Z</time></trkpt>
        <trkpt lat="29.524743" lon="103.335875"><ele>3046.8997</ele><time>2026-07-25T01:07:10.000Z</time></trkpt>
        <trkpt lat="29.524781" lon="103.335849"><ele>3046.8499</ele><time>2026-07-25T01:07:12.000Z</time></trkpt>
        <trkpt lat="29.524815" lon="103.335824"><ele>3047.7666</ele><time>2026-07-25T01:07:14.000Z</time></trkpt>
        <trkpt lat="29.524843" lon="103.335804"><ele>3047.2476</ele><time>2026-07-25T01:07:16.000Z</time></trkpt>
        <trkpt lat="29.524868" lon="103.335791"><ele>3047.8018</ele><time>2026-07-25T01:07:18.000Z</time></trkpt>
        <trkpt lat="29.524891" lon="103.335785"><ele>3047.271</ele><time>2026-07-25T01:07:20.000Z</time></trkpt>
        <trkpt lat="29.524915" lon="103.335782"><ele>3047.0657</ele><time>2026-07-25T01:07:22.000Z</time></trkpt>
        <trkpt lat="29.52494" lon="103.335784"><ele>3046.2546</ele><time>2026-07-25T01:07:24.000Z</time></trkpt>
        <trkpt lat="29.524969" lon="103.335787"><ele>3046.223</ele><time>2026-07-25T01:07:26.000Z</time></trkpt>
        <trkpt lat="29.524997" lon="103.335792"><ele>3046.455</ele><time>2026-07-25T01:07:28.000Z</time></trkpt>
        <trkpt lat="29.525027" lon="103.335797"><ele>3046.5115</ele><time>2026-07-25T01:07:30.000Z</time></trkpt>
        <trkpt lat="29.525056" lon="103.335801"><ele>3046.7761</ele><time>2026-07-25T01:07:32.000Z</time></trkpt>
        <trkpt lat="29.525082" lon="103.335806"><ele>3047.3542</ele><time>2026-07-25T01:07:34.000Z</time></trkpt>
        <trkpt lat="29.52511" lon="103.335811"><ele>3047.229</ele><time>2026-07-25T01:07:36.000Z</time></trkpt>
        <trkpt lat="29.525127" lon="103.335815"><ele>3047.4968</ele><time>2026-07-25T01:07:38.000Z</time></trkpt>
        <trkpt lat="29.52514" lon="103.335817"><ele>3047.725</ele><time>2026-07-25T01:07:40.000Z</time></trkpt>
        <trkpt lat="29.525149" lon="103.335823"><ele>3048.0232</ele><time>2026-07-25T01:07:42.000Z</time></trkpt>
        <trkpt lat="29.52516" lon="103.335837"><ele>3047.1174</ele><time>2026-07-25T01:07:44.000Z</time></trkpt>
        <trkpt lat="29.525171" lon="103.335859"><ele>3046.754</ele><time>2026-07-25T01:07:46.000Z</time></trkpt>
        <trkpt lat="29.525181" lon="103.335887"><ele>3045.9321</ele><time>2026-07-25T01:07:48.000Z</time></trkpt>
        <trkpt lat="29.525189" lon="103.335911"><ele>3046.6497</ele><time>2026-07-25T01:07:50.000Z</time></trkpt>
        <trkpt lat="29.525194" lon="103.335942"><ele>3047.121</ele><time>2026-07-25T01:07:52.000Z</time></trkpt>
        <trkpt lat="29.525194" lon="103.335969"><ele>3047.787</ele><time>2026-07-25T01:07:54.000Z</time></trkpt>
        <trkpt lat="29.525192" lon="103.335993"><ele>3047.783</ele><time>2026-07-25T01:07:56.000Z</time></trkpt>
        <trkpt lat="29.52519" lon="103.33601"><ele>3048.0537</ele><time>2026-07-25T01:07:58.000Z</time></trkpt>
      </trkseg>
  </trk>
</gpx>